<?xml version="1.0" encoding="UTF-8" standalone="no" ?>
<gpx xmlns="http://www.topografix.com/GPX/1/1" xmlns:xsi="http://www.w3.org/2001/XMLSchema-instance" xsi:schemaLocation="http://www.topografix.com/GPX/1/1 http://www.topografix.com/GPX/1/1/gpx.xsd" version="1.1" creator="VisuGPX - https://www.visugpx.com">
  <metadata>
    <name>Castelnau d'Auzan</name>
  </metadata>
  <trk>
    <name><![CDATA[Castelnau d'Auzan_1]]></name>
    <trkseg>
      <trkpt lat="43.94848" lon="0.08382">
        <ele>145.1</ele>
        <time>2025-03-30T07:34:03Z</time>
      </trkpt>
      <trkpt lat="43.94847" lon="0.08385">
        <ele>145</ele>
        <time>2025-03-30T07:34:04Z</time>
      </trkpt>
      <trkpt lat="43.94847" lon="0.08386">
        <ele>144.9</ele>
        <time>2025-03-30T07:34:05Z</time>
      </trkpt>
      <trkpt lat="43.94846" lon="0.08388">
        <ele>144.9</ele>
        <time>2025-03-30T07:34:06Z</time>
      </trkpt>
      <trkpt lat="43.94845" lon="0.0839">
        <ele>144.8</ele>
        <time>2025-03-30T07:34:08Z</time>
      </trkpt>
      <trkpt lat="43.94844" lon="0.08391">
        <ele>144.7</ele>
        <time>2025-03-30T07:34:09Z</time>
      </trkpt>
      <trkpt lat="43.94843" lon="0.08392">
        <ele>144.6</ele>
        <time>2025-03-30T07:34:10Z</time>
      </trkpt>
      <trkpt lat="43.94842" lon="0.08393">
        <ele>144.6</ele>
        <time>2025-03-30T07:34:11Z</time>
      </trkpt>
      <trkpt lat="43.94842" lon="0.08393">
        <ele>144.5</ele>
        <time>2025-03-30T07:34:12Z</time>
      </trkpt>
      <trkpt lat="43.9484" lon="0.08393">
        <ele>144.4</ele>
        <time>2025-03-30T07:34:13Z</time>
      </trkpt>
      <trkpt lat="43.94839" lon="0.08393">
        <ele>144.4</ele>
        <time>2025-03-30T07:34:14Z</time>
      </trkpt>
      <trkpt lat="43.94838" lon="0.08393">
        <ele>144.3</ele>
        <time>2025-03-30T07:34:15Z</time>
      </trkpt>
      <trkpt lat="43.94838" lon="0.08393">
        <ele>144.3</ele>
        <time>2025-03-30T07:34:16Z</time>
      </trkpt>
      <trkpt lat="43.94835" lon="0.08395">
        <ele>144.1</ele>
        <time>2025-03-30T07:34:17Z</time>
      </trkpt>
      <trkpt lat="43.94834" lon="0.08396">
        <ele>144.1</ele>
        <time>2025-03-30T07:34:18Z</time>
      </trkpt>
      <trkpt lat="43.94833" lon="0.08397">
        <ele>144</ele>
        <time>2025-03-30T07:34:19Z</time>
      </trkpt>
      <trkpt lat="43.94833" lon="0.08398">
        <ele>143.9</ele>
        <time>2025-03-30T07:34:20Z</time>
      </trkpt>
      <trkpt lat="43.94831" lon="0.08402">
        <ele>143.8</ele>
        <time>2025-03-30T07:34:22Z</time>
      </trkpt>
      <trkpt lat="43.94829" lon="0.084">
        <ele>143.7</ele>
        <time>2025-03-30T07:34:23Z</time>
      </trkpt>
      <trkpt lat="43.94827" lon="0.08402">
        <ele>143.9</ele>
        <time>2025-03-30T07:34:24Z</time>
      </trkpt>
      <trkpt lat="43.94827" lon="0.08403">
        <ele>144</ele>
        <time>2025-03-30T07:34:25Z</time>
      </trkpt>
      <trkpt lat="43.94826" lon="0.08404">
        <ele>144.1</ele>
        <time>2025-03-30T07:34:26Z</time>
      </trkpt>
      <trkpt lat="43.94825" lon="0.08405">
        <ele>144.3</ele>
        <time>2025-03-30T07:34:27Z</time>
      </trkpt>
      <trkpt lat="43.94824" lon="0.08407">
        <ele>144.4</ele>
        <time>2025-03-30T07:34:28Z</time>
      </trkpt>
      <trkpt lat="43.94823" lon="0.08409">
        <ele>144.6</ele>
        <time>2025-03-30T07:34:29Z</time>
      </trkpt>
      <trkpt lat="43.94822" lon="0.0841">
        <ele>144.7</ele>
        <time>2025-03-30T07:34:30Z</time>
      </trkpt>
      <trkpt lat="43.94821" lon="0.08412">
        <ele>145</ele>
        <time>2025-03-30T07:34:31Z</time>
      </trkpt>
      <trkpt lat="43.9482" lon="0.08413">
        <ele>145.1</ele>
        <time>2025-03-30T07:34:32Z</time>
      </trkpt>
      <trkpt lat="43.9482" lon="0.08414">
        <ele>145.1</ele>
        <time>2025-03-30T07:34:33Z</time>
      </trkpt>
      <trkpt lat="43.94819" lon="0.08416">
        <ele>145.3</ele>
        <time>2025-03-30T07:34:34Z</time>
      </trkpt>
      <trkpt lat="43.94818" lon="0.08417">
        <ele>145.4</ele>
        <time>2025-03-30T07:34:35Z</time>
      </trkpt>
      <trkpt lat="43.94816" lon="0.08421">
        <ele>145.6</ele>
        <time>2025-03-30T07:34:37Z</time>
      </trkpt>
      <trkpt lat="43.94815" lon="0.08422">
        <ele>145.8</ele>
        <time>2025-03-30T07:34:38Z</time>
      </trkpt>
      <trkpt lat="43.94815" lon="0.08424">
        <ele>145.8</ele>
        <time>2025-03-30T07:34:39Z</time>
      </trkpt>
      <trkpt lat="43.94814" lon="0.08425">
        <ele>145.8</ele>
        <time>2025-03-30T07:34:40Z</time>
      </trkpt>
      <trkpt lat="43.94813" lon="0.08426">
        <ele>145.8</ele>
        <time>2025-03-30T07:34:41Z</time>
      </trkpt>
      <trkpt lat="43.94812" lon="0.08427">
        <ele>145.8</ele>
        <time>2025-03-30T07:34:42Z</time>
      </trkpt>
      <trkpt lat="43.94812" lon="0.08427">
        <ele>145.8</ele>
        <time>2025-03-30T07:34:43Z</time>
      </trkpt>
      <trkpt lat="43.94811" lon="0.08428">
        <ele>145.7</ele>
        <time>2025-03-30T07:34:44Z</time>
      </trkpt>
      <trkpt lat="43.94809" lon="0.0843">
        <ele>145.7</ele>
        <time>2025-03-30T07:34:45Z</time>
      </trkpt>
      <trkpt lat="43.94807" lon="0.08432">
        <ele>145.7</ele>
        <time>2025-03-30T07:34:46Z</time>
      </trkpt>
      <trkpt lat="43.94807" lon="0.08433">
        <ele>145.7</ele>
        <time>2025-03-30T07:34:47Z</time>
      </trkpt>
      <trkpt lat="43.94806" lon="0.08435">
        <ele>145.6</ele>
        <time>2025-03-30T07:34:48Z</time>
      </trkpt>
      <trkpt lat="43.94806" lon="0.08437">
        <ele>145.6</ele>
        <time>2025-03-30T07:34:49Z</time>
      </trkpt>
      <trkpt lat="43.94805" lon="0.08439">
        <ele>145.6</ele>
        <time>2025-03-30T07:34:50Z</time>
      </trkpt>
      <trkpt lat="43.94805" lon="0.08441">
        <ele>145.6</ele>
        <time>2025-03-30T07:34:51Z</time>
      </trkpt>
      <trkpt lat="43.94803" lon="0.08443">
        <ele>145.5</ele>
        <time>2025-03-30T07:34:52Z</time>
      </trkpt>
      <trkpt lat="43.94803" lon="0.08443">
        <ele>145.5</ele>
        <time>2025-03-30T07:34:53Z</time>
      </trkpt>
      <trkpt lat="43.94802" lon="0.08444">
        <ele>145.5</ele>
        <time>2025-03-30T07:34:54Z</time>
      </trkpt>
      <trkpt lat="43.94801" lon="0.08444">
        <ele>145.5</ele>
        <time>2025-03-30T07:34:55Z</time>
      </trkpt>
      <trkpt lat="43.948" lon="0.08445">
        <ele>145.5</ele>
        <time>2025-03-30T07:34:56Z</time>
      </trkpt>
      <trkpt lat="43.94798" lon="0.08447">
        <ele>145.4</ele>
        <time>2025-03-30T07:34:58Z</time>
      </trkpt>
      <trkpt lat="43.94797" lon="0.08448">
        <ele>145.4</ele>
        <time>2025-03-30T07:34:59Z</time>
      </trkpt>
      <trkpt lat="43.94796" lon="0.08449">
        <ele>145.4</ele>
        <time>2025-03-30T07:35:00Z</time>
      </trkpt>
      <trkpt lat="43.94794" lon="0.0845">
        <ele>145.3</ele>
        <time>2025-03-30T07:35:01Z</time>
      </trkpt>
      <trkpt lat="43.94794" lon="0.08451">
        <ele>145.3</ele>
        <time>2025-03-30T07:35:02Z</time>
      </trkpt>
      <trkpt lat="43.94792" lon="0.08453">
        <ele>145.3</ele>
        <time>2025-03-30T07:35:03Z</time>
      </trkpt>
      <trkpt lat="43.94792" lon="0.08454">
        <ele>145.3</ele>
        <time>2025-03-30T07:35:04Z</time>
      </trkpt>
      <trkpt lat="43.94791" lon="0.08455">
        <ele>145.2</ele>
        <time>2025-03-30T07:35:05Z</time>
      </trkpt>
      <trkpt lat="43.9479" lon="0.08457">
        <ele>145.2</ele>
        <time>2025-03-30T07:35:06Z</time>
      </trkpt>
      <trkpt lat="43.94789" lon="0.08458">
        <ele>145.2</ele>
        <time>2025-03-30T07:35:07Z</time>
      </trkpt>
      <trkpt lat="43.94788" lon="0.08459">
        <ele>145.1</ele>
        <time>2025-03-30T07:35:08Z</time>
      </trkpt>
      <trkpt lat="43.94787" lon="0.08461">
        <ele>145.1</ele>
        <time>2025-03-30T07:35:10Z</time>
      </trkpt>
      <trkpt lat="43.94786" lon="0.08462">
        <ele>145.1</ele>
        <time>2025-03-30T07:35:11Z</time>
      </trkpt>
      <trkpt lat="43.94783" lon="0.08463">
        <ele>145</ele>
        <time>2025-03-30T07:35:12Z</time>
      </trkpt>
      <trkpt lat="43.94782" lon="0.08463">
        <ele>145</ele>
        <time>2025-03-30T07:35:13Z</time>
      </trkpt>
      <trkpt lat="43.9478" lon="0.08464">
        <ele>144.9</ele>
        <time>2025-03-30T07:35:14Z</time>
      </trkpt>
      <trkpt lat="43.94779" lon="0.08464">
        <ele>144.9</ele>
        <time>2025-03-30T07:35:15Z</time>
      </trkpt>
      <trkpt lat="43.94777" lon="0.08466">
        <ele>144.9</ele>
        <time>2025-03-30T07:35:16Z</time>
      </trkpt>
      <trkpt lat="43.94777" lon="0.08466">
        <ele>144.9</ele>
        <time>2025-03-30T07:35:17Z</time>
      </trkpt>
      <trkpt lat="43.94776" lon="0.08467">
        <ele>144.9</ele>
        <time>2025-03-30T07:35:18Z</time>
      </trkpt>
      <trkpt lat="43.94775" lon="0.08469">
        <ele>144.8</ele>
        <time>2025-03-30T07:35:19Z</time>
      </trkpt>
      <trkpt lat="43.94774" lon="0.08472">
        <ele>144.8</ele>
        <time>2025-03-30T07:35:21Z</time>
      </trkpt>
      <trkpt lat="43.94773" lon="0.08473">
        <ele>144.8</ele>
        <time>2025-03-30T07:35:22Z</time>
      </trkpt>
      <trkpt lat="43.94772" lon="0.08474">
        <ele>144.8</ele>
        <time>2025-03-30T07:35:23Z</time>
      </trkpt>
      <trkpt lat="43.94771" lon="0.08476">
        <ele>144.7</ele>
        <time>2025-03-30T07:35:24Z</time>
      </trkpt>
      <trkpt lat="43.94769" lon="0.08476">
        <ele>144.7</ele>
        <time>2025-03-30T07:35:25Z</time>
      </trkpt>
      <trkpt lat="43.94768" lon="0.08478">
        <ele>144.7</ele>
        <time>2025-03-30T07:35:26Z</time>
      </trkpt>
      <trkpt lat="43.94768" lon="0.08479">
        <ele>144.7</ele>
        <time>2025-03-30T07:35:27Z</time>
      </trkpt>
      <trkpt lat="43.94767" lon="0.08481">
        <ele>144.7</ele>
        <time>2025-03-30T07:35:28Z</time>
      </trkpt>
      <trkpt lat="43.94766" lon="0.08483">
        <ele>144.7</ele>
        <time>2025-03-30T07:35:29Z</time>
      </trkpt>
      <trkpt lat="43.94765" lon="0.08484">
        <ele>144.7</ele>
        <time>2025-03-30T07:35:30Z</time>
      </trkpt>
      <trkpt lat="43.94764" lon="0.08485">
        <ele>144.6</ele>
        <time>2025-03-30T07:35:31Z</time>
      </trkpt>
      <trkpt lat="43.94762" lon="0.08486">
        <ele>144.6</ele>
        <time>2025-03-30T07:35:32Z</time>
      </trkpt>
      <trkpt lat="43.94761" lon="0.08486">
        <ele>144.6</ele>
        <time>2025-03-30T07:35:34Z</time>
      </trkpt>
      <trkpt lat="43.94758" lon="0.08487">
        <ele>144.6</ele>
        <time>2025-03-30T07:35:35Z</time>
      </trkpt>
      <trkpt lat="43.94756" lon="0.08489">
        <ele>144.6</ele>
        <time>2025-03-30T07:35:36Z</time>
      </trkpt>
      <trkpt lat="43.94756" lon="0.0849">
        <ele>144.6</ele>
        <time>2025-03-30T07:35:37Z</time>
      </trkpt>
      <trkpt lat="43.94755" lon="0.08491">
        <ele>144.6</ele>
        <time>2025-03-30T07:35:38Z</time>
      </trkpt>
      <trkpt lat="43.94754" lon="0.08492">
        <ele>144.6</ele>
        <time>2025-03-30T07:35:39Z</time>
      </trkpt>
      <trkpt lat="43.94753" lon="0.08494">
        <ele>144.6</ele>
        <time>2025-03-30T07:35:40Z</time>
      </trkpt>
      <trkpt lat="43.94752" lon="0.08496">
        <ele>144.5</ele>
        <time>2025-03-30T07:35:41Z</time>
      </trkpt>
      <trkpt lat="43.94752" lon="0.08497">
        <ele>144.5</ele>
        <time>2025-03-30T07:35:42Z</time>
      </trkpt>
      <trkpt lat="43.94751" lon="0.08498">
        <ele>144.5</ele>
        <time>2025-03-30T07:35:43Z</time>
      </trkpt>
      <trkpt lat="43.9475" lon="0.08499">
        <ele>144.5</ele>
        <time>2025-03-30T07:35:44Z</time>
      </trkpt>
      <trkpt lat="43.94749" lon="0.08501">
        <ele>144.5</ele>
        <time>2025-03-30T07:35:45Z</time>
      </trkpt>
      <trkpt lat="43.94748" lon="0.08504">
        <ele>144.5</ele>
        <time>2025-03-30T07:35:47Z</time>
      </trkpt>
      <trkpt lat="43.94748" lon="0.08506">
        <ele>144.5</ele>
        <time>2025-03-30T07:35:49Z</time>
      </trkpt>
      <trkpt lat="43.94747" lon="0.08509">
        <ele>144.5</ele>
        <time>2025-03-30T07:35:50Z</time>
      </trkpt>
      <trkpt lat="43.94746" lon="0.0851">
        <ele>144.5</ele>
        <time>2025-03-30T07:35:51Z</time>
      </trkpt>
      <trkpt lat="43.94745" lon="0.08512">
        <ele>144.5</ele>
        <time>2025-03-30T07:35:52Z</time>
      </trkpt>
      <trkpt lat="43.94744" lon="0.08513">
        <ele>144.5</ele>
        <time>2025-03-30T07:35:53Z</time>
      </trkpt>
      <trkpt lat="43.94743" lon="0.08514">
        <ele>144.5</ele>
        <time>2025-03-30T07:35:54Z</time>
      </trkpt>
      <trkpt lat="43.94742" lon="0.08515">
        <ele>144.5</ele>
        <time>2025-03-30T07:35:55Z</time>
      </trkpt>
      <trkpt lat="43.94741" lon="0.08516">
        <ele>144.5</ele>
        <time>2025-03-30T07:35:56Z</time>
      </trkpt>
      <trkpt lat="43.94738" lon="0.08519">
        <ele>144.5</ele>
        <time>2025-03-30T07:35:58Z</time>
      </trkpt>
      <trkpt lat="43.94737" lon="0.0852">
        <ele>144.5</ele>
        <time>2025-03-30T07:35:59Z</time>
      </trkpt>
      <trkpt lat="43.94736" lon="0.08521">
        <ele>144.5</ele>
        <time>2025-03-30T07:36:00Z</time>
      </trkpt>
      <trkpt lat="43.94735" lon="0.08522">
        <ele>144.5</ele>
        <time>2025-03-30T07:36:01Z</time>
      </trkpt>
      <trkpt lat="43.94734" lon="0.08524">
        <ele>144.5</ele>
        <time>2025-03-30T07:36:03Z</time>
      </trkpt>
      <trkpt lat="43.94731" lon="0.08526">
        <ele>144.5</ele>
        <time>2025-03-30T07:36:04Z</time>
      </trkpt>
      <trkpt lat="43.9473" lon="0.08527">
        <ele>144.5</ele>
        <time>2025-03-30T07:36:05Z</time>
      </trkpt>
      <trkpt lat="43.94729" lon="0.08528">
        <ele>144.5</ele>
        <time>2025-03-30T07:36:06Z</time>
      </trkpt>
      <trkpt lat="43.94728" lon="0.0853">
        <ele>144.4</ele>
        <time>2025-03-30T07:36:07Z</time>
      </trkpt>
      <trkpt lat="43.94727" lon="0.08533">
        <ele>144.4</ele>
        <time>2025-03-30T07:36:09Z</time>
      </trkpt>
      <trkpt lat="43.94726" lon="0.08535">
        <ele>144.4</ele>
        <time>2025-03-30T07:36:10Z</time>
      </trkpt>
      <trkpt lat="43.94724" lon="0.0854">
        <ele>144.2</ele>
        <time>2025-03-30T07:36:12Z</time>
      </trkpt>
      <trkpt lat="43.94722" lon="0.08543">
        <ele>144.1</ele>
        <time>2025-03-30T07:36:14Z</time>
      </trkpt>
      <trkpt lat="43.94722" lon="0.08544">
        <ele>144</ele>
        <time>2025-03-30T07:36:15Z</time>
      </trkpt>
      <trkpt lat="43.9472" lon="0.0855">
        <ele>143.7</ele>
        <time>2025-03-30T07:36:17Z</time>
      </trkpt>
      <trkpt lat="43.94719" lon="0.08551">
        <ele>143.6</ele>
        <time>2025-03-30T07:36:19Z</time>
      </trkpt>
      <trkpt lat="43.94719" lon="0.08553">
        <ele>143.6</ele>
        <time>2025-03-30T07:36:20Z</time>
      </trkpt>
      <trkpt lat="43.94718" lon="0.08554">
        <ele>143.5</ele>
        <time>2025-03-30T07:36:21Z</time>
      </trkpt>
      <trkpt lat="43.94715" lon="0.08558">
        <ele>143.3</ele>
        <time>2025-03-30T07:36:23Z</time>
      </trkpt>
      <trkpt lat="43.94714" lon="0.08559">
        <ele>143.2</ele>
        <time>2025-03-30T07:36:24Z</time>
      </trkpt>
      <trkpt lat="43.94713" lon="0.0856">
        <ele>143.2</ele>
        <time>2025-03-30T07:36:25Z</time>
      </trkpt>
      <trkpt lat="43.94712" lon="0.08561">
        <ele>143.1</ele>
        <time>2025-03-30T07:36:26Z</time>
      </trkpt>
      <trkpt lat="43.9471" lon="0.08562">
        <ele>143</ele>
        <time>2025-03-30T07:36:27Z</time>
      </trkpt>
      <trkpt lat="43.9471" lon="0.08563">
        <ele>142.9</ele>
        <time>2025-03-30T07:36:29Z</time>
      </trkpt>
      <trkpt lat="43.94709" lon="0.08564">
        <ele>142.9</ele>
        <time>2025-03-30T07:36:30Z</time>
      </trkpt>
      <trkpt lat="43.94708" lon="0.08565">
        <ele>142.8</ele>
        <time>2025-03-30T07:36:31Z</time>
      </trkpt>
      <trkpt lat="43.94706" lon="0.08568">
        <ele>142.6</ele>
        <time>2025-03-30T07:36:32Z</time>
      </trkpt>
      <trkpt lat="43.94705" lon="0.08569">
        <ele>142.6</ele>
        <time>2025-03-30T07:36:33Z</time>
      </trkpt>
      <trkpt lat="43.94704" lon="0.08571">
        <ele>142.5</ele>
        <time>2025-03-30T07:36:35Z</time>
      </trkpt>
      <trkpt lat="43.94704" lon="0.0857">
        <ele>142.5</ele>
        <time>2025-03-30T07:36:36Z</time>
      </trkpt>
      <trkpt lat="43.94704" lon="0.0857">
        <ele>142.5</ele>
        <time>2025-03-30T07:36:37Z</time>
      </trkpt>
      <trkpt lat="43.94703" lon="0.08569">
        <ele>142.4</ele>
        <time>2025-03-30T07:36:38Z</time>
      </trkpt>
      <trkpt lat="43.94702" lon="0.0857">
        <ele>142.3</ele>
        <time>2025-03-30T07:36:39Z</time>
      </trkpt>
      <trkpt lat="43.94701" lon="0.08571">
        <ele>142.2</ele>
        <time>2025-03-30T07:36:40Z</time>
      </trkpt>
      <trkpt lat="43.94699" lon="0.08572">
        <ele>142.1</ele>
        <time>2025-03-30T07:36:41Z</time>
      </trkpt>
      <trkpt lat="43.94698" lon="0.08573">
        <ele>142.1</ele>
        <time>2025-03-30T07:36:42Z</time>
      </trkpt>
      <trkpt lat="43.94698" lon="0.08572">
        <ele>142.1</ele>
        <time>2025-03-30T07:36:43Z</time>
      </trkpt>
      <trkpt lat="43.94698" lon="0.08571">
        <ele>142</ele>
        <time>2025-03-30T07:36:44Z</time>
      </trkpt>
      <trkpt lat="43.94698" lon="0.0857">
        <ele>142</ele>
        <time>2025-03-30T07:36:45Z</time>
      </trkpt>
      <trkpt lat="43.94698" lon="0.0857">
        <ele>142</ele>
        <time>2025-03-30T07:36:46Z</time>
      </trkpt>
      <trkpt lat="43.94698" lon="0.08569">
        <ele>141.9</ele>
        <time>2025-03-30T07:36:47Z</time>
      </trkpt>
      <trkpt lat="43.94698" lon="0.08568">
        <ele>141.9</ele>
        <time>2025-03-30T07:36:48Z</time>
      </trkpt>
      <trkpt lat="43.94697" lon="0.08567">
        <ele>141.9</ele>
        <time>2025-03-30T07:36:49Z</time>
      </trkpt>
      <trkpt lat="43.94697" lon="0.08566">
        <ele>141.8</ele>
        <time>2025-03-30T07:36:50Z</time>
      </trkpt>
      <trkpt lat="43.94697" lon="0.08566">
        <ele>141.8</ele>
        <time>2025-03-30T07:36:51Z</time>
      </trkpt>
      <trkpt lat="43.94697" lon="0.08566">
        <ele>141.8</ele>
        <time>2025-03-30T07:36:53Z</time>
      </trkpt>
      <trkpt lat="43.94697" lon="0.08566">
        <ele>141.8</ele>
        <time>2025-03-30T07:36:55Z</time>
      </trkpt>
      <trkpt lat="43.94697" lon="0.08567">
        <ele>141.7</ele>
        <time>2025-03-30T07:36:56Z</time>
      </trkpt>
      <trkpt lat="43.94697" lon="0.08568">
        <ele>141.7</ele>
        <time>2025-03-30T07:36:57Z</time>
      </trkpt>
      <trkpt lat="43.94697" lon="0.08569">
        <ele>141.7</ele>
        <time>2025-03-30T07:36:58Z</time>
      </trkpt>
      <trkpt lat="43.94697" lon="0.08569">
        <ele>141.6</ele>
        <time>2025-03-30T07:36:59Z</time>
      </trkpt>
      <trkpt lat="43.94696" lon="0.0857">
        <ele>141.5</ele>
        <time>2025-03-30T07:37:00Z</time>
      </trkpt>
      <trkpt lat="43.94697" lon="0.08572">
        <ele>141.4</ele>
        <time>2025-03-30T07:37:01Z</time>
      </trkpt>
      <trkpt lat="43.94697" lon="0.08573">
        <ele>141.3</ele>
        <time>2025-03-30T07:37:02Z</time>
      </trkpt>
      <trkpt lat="43.94695" lon="0.0857">
        <ele>141</ele>
        <time>2025-03-30T07:37:03Z</time>
      </trkpt>
      <trkpt lat="43.94691" lon="0.08564">
        <ele>139.5</ele>
        <time>2025-03-30T07:37:04Z</time>
      </trkpt>
      <trkpt lat="43.94689" lon="0.08561">
        <ele>139.3</ele>
        <time>2025-03-30T07:37:05Z</time>
      </trkpt>
      <trkpt lat="43.9469" lon="0.08559">
        <ele>139.2</ele>
        <time>2025-03-30T07:37:06Z</time>
      </trkpt>
      <trkpt lat="43.9469" lon="0.08558">
        <ele>139.1</ele>
        <time>2025-03-30T07:37:07Z</time>
      </trkpt>
      <trkpt lat="43.94691" lon="0.08556">
        <ele>139</ele>
        <time>2025-03-30T07:37:08Z</time>
      </trkpt>
      <trkpt lat="43.94692" lon="0.08555">
        <ele>138.9</ele>
        <time>2025-03-30T07:37:09Z</time>
      </trkpt>
      <trkpt lat="43.94693" lon="0.08553">
        <ele>138.8</ele>
        <time>2025-03-30T07:37:10Z</time>
      </trkpt>
      <trkpt lat="43.94694" lon="0.0855">
        <ele>138.7</ele>
        <time>2025-03-30T07:37:11Z</time>
      </trkpt>
      <trkpt lat="43.94695" lon="0.08548">
        <ele>138.6</ele>
        <time>2025-03-30T07:37:13Z</time>
      </trkpt>
      <trkpt lat="43.94696" lon="0.08547">
        <ele>138.5</ele>
        <time>2025-03-30T07:37:14Z</time>
      </trkpt>
      <trkpt lat="43.94697" lon="0.08545">
        <ele>138.4</ele>
        <time>2025-03-30T07:37:15Z</time>
      </trkpt>
      <trkpt lat="43.94699" lon="0.08541">
        <ele>138.2</ele>
        <time>2025-03-30T07:37:17Z</time>
      </trkpt>
      <trkpt lat="43.94699" lon="0.0854">
        <ele>138.2</ele>
        <time>2025-03-30T07:37:18Z</time>
      </trkpt>
      <trkpt lat="43.947" lon="0.08539">
        <ele>138.1</ele>
        <time>2025-03-30T07:37:19Z</time>
      </trkpt>
      <trkpt lat="43.94701" lon="0.08537">
        <ele>138</ele>
        <time>2025-03-30T07:37:20Z</time>
      </trkpt>
      <trkpt lat="43.94702" lon="0.08535">
        <ele>137.9</ele>
        <time>2025-03-30T07:37:21Z</time>
      </trkpt>
      <trkpt lat="43.94702" lon="0.08533">
        <ele>137.8</ele>
        <time>2025-03-30T07:37:22Z</time>
      </trkpt>
      <trkpt lat="43.94703" lon="0.08532">
        <ele>137.8</ele>
        <time>2025-03-30T07:37:23Z</time>
      </trkpt>
      <trkpt lat="43.94703" lon="0.08529">
        <ele>137.6</ele>
        <time>2025-03-30T07:37:25Z</time>
      </trkpt>
      <trkpt lat="43.94704" lon="0.08525">
        <ele>137.5</ele>
        <time>2025-03-30T07:37:27Z</time>
      </trkpt>
      <trkpt lat="43.94704" lon="0.08522">
        <ele>137.3</ele>
        <time>2025-03-30T07:37:28Z</time>
      </trkpt>
      <trkpt lat="43.94704" lon="0.08521">
        <ele>137.3</ele>
        <time>2025-03-30T07:37:29Z</time>
      </trkpt>
      <trkpt lat="43.94705" lon="0.08518">
        <ele>137.2</ele>
        <time>2025-03-30T07:37:30Z</time>
      </trkpt>
      <trkpt lat="43.94705" lon="0.08517">
        <ele>137.1</ele>
        <time>2025-03-30T07:37:31Z</time>
      </trkpt>
      <trkpt lat="43.94705" lon="0.08516">
        <ele>137.1</ele>
        <time>2025-03-30T07:37:32Z</time>
      </trkpt>
      <trkpt lat="43.94706" lon="0.08515">
        <ele>137</ele>
        <time>2025-03-30T07:37:33Z</time>
      </trkpt>
      <trkpt lat="43.94706" lon="0.08514">
        <ele>137</ele>
        <time>2025-03-30T07:37:34Z</time>
      </trkpt>
      <trkpt lat="43.94706" lon="0.08514">
        <ele>137</ele>
        <time>2025-03-30T07:37:36Z</time>
      </trkpt>
      <trkpt lat="43.94705" lon="0.08514">
        <ele>136.9</ele>
        <time>2025-03-30T07:37:38Z</time>
      </trkpt>
      <trkpt lat="43.94706" lon="0.08514">
        <ele>136.9</ele>
        <time>2025-03-30T07:37:39Z</time>
      </trkpt>
      <trkpt lat="43.94705" lon="0.08515">
        <ele>136.9</ele>
        <time>2025-03-30T07:37:41Z</time>
      </trkpt>
      <trkpt lat="43.94705" lon="0.08515">
        <ele>136.9</ele>
        <time>2025-03-30T07:37:43Z</time>
      </trkpt>
      <trkpt lat="43.94706" lon="0.08514">
        <ele>136.9</ele>
        <time>2025-03-30T07:37:44Z</time>
      </trkpt>
      <trkpt lat="43.94706" lon="0.08513">
        <ele>136.9</ele>
        <time>2025-03-30T07:37:45Z</time>
      </trkpt>
      <trkpt lat="43.94707" lon="0.08513">
        <ele>136.8</ele>
        <time>2025-03-30T07:37:46Z</time>
      </trkpt>
      <trkpt lat="43.94707" lon="0.08511">
        <ele>136.7</ele>
        <time>2025-03-30T07:37:47Z</time>
      </trkpt>
      <trkpt lat="43.94708" lon="0.08511">
        <ele>136.7</ele>
        <time>2025-03-30T07:37:48Z</time>
      </trkpt>
      <trkpt lat="43.94708" lon="0.0851">
        <ele>136.7</ele>
        <time>2025-03-30T07:37:49Z</time>
      </trkpt>
      <trkpt lat="43.94708" lon="0.0851">
        <ele>136.7</ele>
        <time>2025-03-30T07:37:51Z</time>
      </trkpt>
      <trkpt lat="43.94708" lon="0.08509">
        <ele>136.6</ele>
        <time>2025-03-30T07:37:52Z</time>
      </trkpt>
      <trkpt lat="43.94708" lon="0.08508">
        <ele>136.6</ele>
        <time>2025-03-30T07:37:53Z</time>
      </trkpt>
      <trkpt lat="43.94709" lon="0.08507">
        <ele>136.5</ele>
        <time>2025-03-30T07:37:54Z</time>
      </trkpt>
      <trkpt lat="43.9471" lon="0.08505">
        <ele>136.4</ele>
        <time>2025-03-30T07:37:55Z</time>
      </trkpt>
      <trkpt lat="43.94711" lon="0.08502">
        <ele>136.3</ele>
        <time>2025-03-30T07:37:57Z</time>
      </trkpt>
      <trkpt lat="43.94712" lon="0.08501">
        <ele>136.2</ele>
        <time>2025-03-30T07:37:58Z</time>
      </trkpt>
      <trkpt lat="43.94712" lon="0.085">
        <ele>136.2</ele>
        <time>2025-03-30T07:37:59Z</time>
      </trkpt>
      <trkpt lat="43.94713" lon="0.08498">
        <ele>136.1</ele>
        <time>2025-03-30T07:38:00Z</time>
      </trkpt>
      <trkpt lat="43.94714" lon="0.08497">
        <ele>136</ele>
        <time>2025-03-30T07:38:02Z</time>
      </trkpt>
      <trkpt lat="43.94715" lon="0.08493">
        <ele>135.8</ele>
        <time>2025-03-30T07:38:03Z</time>
      </trkpt>
      <trkpt lat="43.94716" lon="0.08493">
        <ele>135.8</ele>
        <time>2025-03-30T07:38:04Z</time>
      </trkpt>
      <trkpt lat="43.94717" lon="0.08491">
        <ele>135.7</ele>
        <time>2025-03-30T07:38:05Z</time>
      </trkpt>
      <trkpt lat="43.94717" lon="0.08489">
        <ele>135.6</ele>
        <time>2025-03-30T07:38:06Z</time>
      </trkpt>
      <trkpt lat="43.94718" lon="0.08488">
        <ele>135.6</ele>
        <time>2025-03-30T07:38:07Z</time>
      </trkpt>
      <trkpt lat="43.94719" lon="0.08487">
        <ele>135.5</ele>
        <time>2025-03-30T07:38:08Z</time>
      </trkpt>
      <trkpt lat="43.94719" lon="0.08485">
        <ele>135.4</ele>
        <time>2025-03-30T07:38:09Z</time>
      </trkpt>
      <trkpt lat="43.9472" lon="0.08484">
        <ele>135.4</ele>
        <time>2025-03-30T07:38:10Z</time>
      </trkpt>
      <trkpt lat="43.9472" lon="0.08483">
        <ele>135.3</ele>
        <time>2025-03-30T07:38:11Z</time>
      </trkpt>
      <trkpt lat="43.94721" lon="0.08481">
        <ele>135.3</ele>
        <time>2025-03-30T07:38:12Z</time>
      </trkpt>
      <trkpt lat="43.94722" lon="0.0848">
        <ele>135.2</ele>
        <time>2025-03-30T07:38:13Z</time>
      </trkpt>
      <trkpt lat="43.94722" lon="0.08479">
        <ele>135.1</ele>
        <time>2025-03-30T07:38:14Z</time>
      </trkpt>
      <trkpt lat="43.94723" lon="0.08477">
        <ele>135.1</ele>
        <time>2025-03-30T07:38:15Z</time>
      </trkpt>
      <trkpt lat="43.94724" lon="0.08474">
        <ele>134.9</ele>
        <time>2025-03-30T07:38:16Z</time>
      </trkpt>
      <trkpt lat="43.94725" lon="0.08473">
        <ele>134.9</ele>
        <time>2025-03-30T07:38:17Z</time>
      </trkpt>
      <trkpt lat="43.94725" lon="0.08472">
        <ele>134.8</ele>
        <time>2025-03-30T07:38:18Z</time>
      </trkpt>
      <trkpt lat="43.94727" lon="0.08468">
        <ele>134.6</ele>
        <time>2025-03-30T07:38:20Z</time>
      </trkpt>
      <trkpt lat="43.94728" lon="0.08467">
        <ele>134.6</ele>
        <time>2025-03-30T07:38:21Z</time>
      </trkpt>
      <trkpt lat="43.94728" lon="0.08465">
        <ele>134.5</ele>
        <time>2025-03-30T07:38:22Z</time>
      </trkpt>
      <trkpt lat="43.94729" lon="0.08464">
        <ele>134.4</ele>
        <time>2025-03-30T07:38:23Z</time>
      </trkpt>
      <trkpt lat="43.94729" lon="0.08462">
        <ele>134.3</ele>
        <time>2025-03-30T07:38:24Z</time>
      </trkpt>
      <trkpt lat="43.94731" lon="0.08458">
        <ele>134.2</ele>
        <time>2025-03-30T07:38:26Z</time>
      </trkpt>
      <trkpt lat="43.94731" lon="0.08458">
        <ele>134.1</ele>
        <time>2025-03-30T07:38:27Z</time>
      </trkpt>
      <trkpt lat="43.94732" lon="0.08456">
        <ele>134.1</ele>
        <time>2025-03-30T07:38:28Z</time>
      </trkpt>
      <trkpt lat="43.94733" lon="0.08454">
        <ele>134</ele>
        <time>2025-03-30T07:38:29Z</time>
      </trkpt>
      <trkpt lat="43.94734" lon="0.08452">
        <ele>133.8</ele>
        <time>2025-03-30T07:38:31Z</time>
      </trkpt>
      <trkpt lat="43.94735" lon="0.08449">
        <ele>133.7</ele>
        <time>2025-03-30T07:38:32Z</time>
      </trkpt>
      <trkpt lat="43.94735" lon="0.08448">
        <ele>133.7</ele>
        <time>2025-03-30T07:38:33Z</time>
      </trkpt>
      <trkpt lat="43.94736" lon="0.08446">
        <ele>133.6</ele>
        <time>2025-03-30T07:38:34Z</time>
      </trkpt>
      <trkpt lat="43.94737" lon="0.08445">
        <ele>133.5</ele>
        <time>2025-03-30T07:38:35Z</time>
      </trkpt>
      <trkpt lat="43.94737" lon="0.08444">
        <ele>133.5</ele>
        <time>2025-03-30T07:38:36Z</time>
      </trkpt>
      <trkpt lat="43.94738" lon="0.08444">
        <ele>133.4</ele>
        <time>2025-03-30T07:38:38Z</time>
      </trkpt>
      <trkpt lat="43.94739" lon="0.0844">
        <ele>133.3</ele>
        <time>2025-03-30T07:38:39Z</time>
      </trkpt>
      <trkpt lat="43.94739" lon="0.08439">
        <ele>133.2</ele>
        <time>2025-03-30T07:38:40Z</time>
      </trkpt>
      <trkpt lat="43.9474" lon="0.08438">
        <ele>133.2</ele>
        <time>2025-03-30T07:38:42Z</time>
      </trkpt>
      <trkpt lat="43.94741" lon="0.08434">
        <ele>133</ele>
        <time>2025-03-30T07:38:43Z</time>
      </trkpt>
      <trkpt lat="43.94743" lon="0.08431">
        <ele>132.8</ele>
        <time>2025-03-30T07:38:45Z</time>
      </trkpt>
      <trkpt lat="43.94744" lon="0.08428">
        <ele>132.7</ele>
        <time>2025-03-30T07:38:46Z</time>
      </trkpt>
      <trkpt lat="43.94745" lon="0.08427">
        <ele>132.6</ele>
        <time>2025-03-30T07:38:48Z</time>
      </trkpt>
      <trkpt lat="43.94745" lon="0.08425">
        <ele>132.6</ele>
        <time>2025-03-30T07:38:49Z</time>
      </trkpt>
      <trkpt lat="43.94746" lon="0.08424">
        <ele>132.5</ele>
        <time>2025-03-30T07:38:50Z</time>
      </trkpt>
      <trkpt lat="43.94747" lon="0.08423">
        <ele>132.4</ele>
        <time>2025-03-30T07:38:51Z</time>
      </trkpt>
      <trkpt lat="43.94748" lon="0.08422">
        <ele>132.3</ele>
        <time>2025-03-30T07:38:52Z</time>
      </trkpt>
      <trkpt lat="43.94749" lon="0.08419">
        <ele>132.2</ele>
        <time>2025-03-30T07:38:53Z</time>
      </trkpt>
      <trkpt lat="43.94749" lon="0.08418">
        <ele>132.2</ele>
        <time>2025-03-30T07:38:54Z</time>
      </trkpt>
      <trkpt lat="43.9475" lon="0.08415">
        <ele>132.1</ele>
        <time>2025-03-30T07:38:56Z</time>
      </trkpt>
      <trkpt lat="43.94751" lon="0.08411">
        <ele>131.9</ele>
        <time>2025-03-30T07:38:57Z</time>
      </trkpt>
      <trkpt lat="43.94752" lon="0.08409">
        <ele>131.8</ele>
        <time>2025-03-30T07:38:58Z</time>
      </trkpt>
      <trkpt lat="43.94753" lon="0.08407">
        <ele>131.7</ele>
        <time>2025-03-30T07:38:59Z</time>
      </trkpt>
      <trkpt lat="43.94755" lon="0.08404">
        <ele>131.6</ele>
        <time>2025-03-30T07:39:01Z</time>
      </trkpt>
      <trkpt lat="43.94756" lon="0.08403">
        <ele>131.5</ele>
        <time>2025-03-30T07:39:02Z</time>
      </trkpt>
      <trkpt lat="43.94757" lon="0.08401">
        <ele>131.4</ele>
        <time>2025-03-30T07:39:03Z</time>
      </trkpt>
      <trkpt lat="43.94758" lon="0.084">
        <ele>131.3</ele>
        <time>2025-03-30T07:39:04Z</time>
      </trkpt>
      <trkpt lat="43.9476" lon="0.08397">
        <ele>131.2</ele>
        <time>2025-03-30T07:39:06Z</time>
      </trkpt>
      <trkpt lat="43.94762" lon="0.08394">
        <ele>131</ele>
        <time>2025-03-30T07:39:08Z</time>
      </trkpt>
      <trkpt lat="43.94763" lon="0.08393">
        <ele>131</ele>
        <time>2025-03-30T07:39:10Z</time>
      </trkpt>
      <trkpt lat="43.94764" lon="0.08391">
        <ele>130.9</ele>
        <time>2025-03-30T07:39:11Z</time>
      </trkpt>
      <trkpt lat="43.94766" lon="0.08387">
        <ele>130.7</ele>
        <time>2025-03-30T07:39:12Z</time>
      </trkpt>
      <trkpt lat="43.94767" lon="0.08387">
        <ele>130.7</ele>
        <time>2025-03-30T07:39:13Z</time>
      </trkpt>
      <trkpt lat="43.94768" lon="0.08385">
        <ele>130.6</ele>
        <time>2025-03-30T07:39:14Z</time>
      </trkpt>
      <trkpt lat="43.94768" lon="0.08383">
        <ele>130.6</ele>
        <time>2025-03-30T07:39:15Z</time>
      </trkpt>
      <trkpt lat="43.94769" lon="0.0838">
        <ele>130.4</ele>
        <time>2025-03-30T07:39:17Z</time>
      </trkpt>
      <trkpt lat="43.9477" lon="0.08377">
        <ele>130.3</ele>
        <time>2025-03-30T07:39:19Z</time>
      </trkpt>
      <trkpt lat="43.94771" lon="0.08375">
        <ele>130.2</ele>
        <time>2025-03-30T07:39:20Z</time>
      </trkpt>
      <trkpt lat="43.94771" lon="0.08373">
        <ele>130.2</ele>
        <time>2025-03-30T07:39:21Z</time>
      </trkpt>
      <trkpt lat="43.94773" lon="0.0837">
        <ele>130.1</ele>
        <time>2025-03-30T07:39:23Z</time>
      </trkpt>
      <trkpt lat="43.94774" lon="0.08369">
        <ele>130.1</ele>
        <time>2025-03-30T07:39:24Z</time>
      </trkpt>
      <trkpt lat="43.94775" lon="0.08366">
        <ele>130.1</ele>
        <time>2025-03-30T07:39:25Z</time>
      </trkpt>
      <trkpt lat="43.94776" lon="0.08365">
        <ele>130.1</ele>
        <time>2025-03-30T07:39:26Z</time>
      </trkpt>
      <trkpt lat="43.94776" lon="0.08364">
        <ele>130.1</ele>
        <time>2025-03-30T07:39:27Z</time>
      </trkpt>
      <trkpt lat="43.94776" lon="0.08363">
        <ele>130.1</ele>
        <time>2025-03-30T07:39:28Z</time>
      </trkpt>
      <trkpt lat="43.94778" lon="0.08361">
        <ele>130.1</ele>
        <time>2025-03-30T07:39:30Z</time>
      </trkpt>
      <trkpt lat="43.94779" lon="0.0836">
        <ele>130.1</ele>
        <time>2025-03-30T07:39:32Z</time>
      </trkpt>
      <trkpt lat="43.9478" lon="0.08356">
        <ele>130</ele>
        <time>2025-03-30T07:39:33Z</time>
      </trkpt>
      <trkpt lat="43.94781" lon="0.08352">
        <ele>130</ele>
        <time>2025-03-30T07:39:35Z</time>
      </trkpt>
      <trkpt lat="43.94782" lon="0.0835">
        <ele>130</ele>
        <time>2025-03-30T07:39:36Z</time>
      </trkpt>
      <trkpt lat="43.94783" lon="0.08349">
        <ele>130</ele>
        <time>2025-03-30T07:39:37Z</time>
      </trkpt>
      <trkpt lat="43.94783" lon="0.08347">
        <ele>130</ele>
        <time>2025-03-30T07:39:38Z</time>
      </trkpt>
      <trkpt lat="43.94784" lon="0.08345">
        <ele>129.9</ele>
        <time>2025-03-30T07:39:39Z</time>
      </trkpt>
      <trkpt lat="43.94785" lon="0.08345">
        <ele>129.9</ele>
        <time>2025-03-30T07:39:40Z</time>
      </trkpt>
      <trkpt lat="43.94785" lon="0.08343">
        <ele>129.9</ele>
        <time>2025-03-30T07:39:41Z</time>
      </trkpt>
      <trkpt lat="43.94787" lon="0.08339">
        <ele>129.9</ele>
        <time>2025-03-30T07:39:42Z</time>
      </trkpt>
      <trkpt lat="43.94787" lon="0.08338">
        <ele>129.9</ele>
        <time>2025-03-30T07:39:43Z</time>
      </trkpt>
      <trkpt lat="43.94788" lon="0.08336">
        <ele>130</ele>
        <time>2025-03-30T07:39:44Z</time>
      </trkpt>
      <trkpt lat="43.94789" lon="0.08335">
        <ele>130</ele>
        <time>2025-03-30T07:39:45Z</time>
      </trkpt>
      <trkpt lat="43.9479" lon="0.08333">
        <ele>129.9</ele>
        <time>2025-03-30T07:39:46Z</time>
      </trkpt>
      <trkpt lat="43.94789" lon="0.08333">
        <ele>129.9</ele>
        <time>2025-03-30T07:39:48Z</time>
      </trkpt>
      <trkpt lat="43.9479" lon="0.08331">
        <ele>129.8</ele>
        <time>2025-03-30T07:39:49Z</time>
      </trkpt>
      <trkpt lat="43.94792" lon="0.08327">
        <ele>129.6</ele>
        <time>2025-03-30T07:39:50Z</time>
      </trkpt>
      <trkpt lat="43.94793" lon="0.08326">
        <ele>129.5</ele>
        <time>2025-03-30T07:39:51Z</time>
      </trkpt>
      <trkpt lat="43.94795" lon="0.08323">
        <ele>129.3</ele>
        <time>2025-03-30T07:39:52Z</time>
      </trkpt>
      <trkpt lat="43.94796" lon="0.08321">
        <ele>129.2</ele>
        <time>2025-03-30T07:39:53Z</time>
      </trkpt>
      <trkpt lat="43.94797" lon="0.08317">
        <ele>129</ele>
        <time>2025-03-30T07:39:55Z</time>
      </trkpt>
      <trkpt lat="43.94798" lon="0.08316">
        <ele>128.9</ele>
        <time>2025-03-30T07:39:56Z</time>
      </trkpt>
      <trkpt lat="43.94799" lon="0.08314">
        <ele>128.8</ele>
        <time>2025-03-30T07:39:57Z</time>
      </trkpt>
      <trkpt lat="43.94799" lon="0.08313">
        <ele>128.7</ele>
        <time>2025-03-30T07:39:58Z</time>
      </trkpt>
      <trkpt lat="43.94801" lon="0.0831">
        <ele>128.5</ele>
        <time>2025-03-30T07:40:00Z</time>
      </trkpt>
      <trkpt lat="43.94801" lon="0.08308">
        <ele>128.5</ele>
        <time>2025-03-30T07:40:01Z</time>
      </trkpt>
      <trkpt lat="43.94802" lon="0.08307">
        <ele>128.4</ele>
        <time>2025-03-30T07:40:02Z</time>
      </trkpt>
      <trkpt lat="43.94802" lon="0.08306">
        <ele>128.3</ele>
        <time>2025-03-30T07:40:03Z</time>
      </trkpt>
      <trkpt lat="43.94803" lon="0.08304">
        <ele>128.2</ele>
        <time>2025-03-30T07:40:04Z</time>
      </trkpt>
      <trkpt lat="43.94802" lon="0.08302">
        <ele>128.1</ele>
        <time>2025-03-30T07:40:06Z</time>
      </trkpt>
      <trkpt lat="43.94804" lon="0.08299">
        <ele>128</ele>
        <time>2025-03-30T07:40:07Z</time>
      </trkpt>
      <trkpt lat="43.94805" lon="0.08296">
        <ele>127.8</ele>
        <time>2025-03-30T07:40:09Z</time>
      </trkpt>
      <trkpt lat="43.94805" lon="0.08295">
        <ele>127.7</ele>
        <time>2025-03-30T07:40:10Z</time>
      </trkpt>
      <trkpt lat="43.94806" lon="0.08292">
        <ele>127.6</ele>
        <time>2025-03-30T07:40:12Z</time>
      </trkpt>
      <trkpt lat="43.94807" lon="0.08291">
        <ele>127.5</ele>
        <time>2025-03-30T07:40:14Z</time>
      </trkpt>
      <trkpt lat="43.94808" lon="0.08289">
        <ele>127.3</ele>
        <time>2025-03-30T07:40:15Z</time>
      </trkpt>
      <trkpt lat="43.9481" lon="0.08288">
        <ele>127.2</ele>
        <time>2025-03-30T07:40:16Z</time>
      </trkpt>
      <trkpt lat="43.94812" lon="0.08286">
        <ele>127.1</ele>
        <time>2025-03-30T07:40:18Z</time>
      </trkpt>
      <trkpt lat="43.94813" lon="0.08285">
        <ele>127</ele>
        <time>2025-03-30T07:40:19Z</time>
      </trkpt>
      <trkpt lat="43.94816" lon="0.08282">
        <ele>126.7</ele>
        <time>2025-03-30T07:40:21Z</time>
      </trkpt>
      <trkpt lat="43.94817" lon="0.08281">
        <ele>126.6</ele>
        <time>2025-03-30T07:40:22Z</time>
      </trkpt>
      <trkpt lat="43.94818" lon="0.0828">
        <ele>126.5</ele>
        <time>2025-03-30T07:40:23Z</time>
      </trkpt>
      <trkpt lat="43.94819" lon="0.0828">
        <ele>126.5</ele>
        <time>2025-03-30T07:40:24Z</time>
      </trkpt>
      <trkpt lat="43.9482" lon="0.08278">
        <ele>126.4</ele>
        <time>2025-03-30T07:40:26Z</time>
      </trkpt>
      <trkpt lat="43.9482" lon="0.08276">
        <ele>126.2</ele>
        <time>2025-03-30T07:40:27Z</time>
      </trkpt>
      <trkpt lat="43.94821" lon="0.08274">
        <ele>126.1</ele>
        <time>2025-03-30T07:40:28Z</time>
      </trkpt>
      <trkpt lat="43.94823" lon="0.08271">
        <ele>125.9</ele>
        <time>2025-03-30T07:40:29Z</time>
      </trkpt>
      <trkpt lat="43.94824" lon="0.0827">
        <ele>125.8</ele>
        <time>2025-03-30T07:40:30Z</time>
      </trkpt>
      <trkpt lat="43.94825" lon="0.08268">
        <ele>125.7</ele>
        <time>2025-03-30T07:40:31Z</time>
      </trkpt>
      <trkpt lat="43.94826" lon="0.08266">
        <ele>125.6</ele>
        <time>2025-03-30T07:40:32Z</time>
      </trkpt>
      <trkpt lat="43.94827" lon="0.08264">
        <ele>125.5</ele>
        <time>2025-03-30T07:40:33Z</time>
      </trkpt>
      <trkpt lat="43.94827" lon="0.08262">
        <ele>125.5</ele>
        <time>2025-03-30T07:40:34Z</time>
      </trkpt>
      <trkpt lat="43.94828" lon="0.0826">
        <ele>125.4</ele>
        <time>2025-03-30T07:40:35Z</time>
      </trkpt>
      <trkpt lat="43.94829" lon="0.08258">
        <ele>125.3</ele>
        <time>2025-03-30T07:40:36Z</time>
      </trkpt>
      <trkpt lat="43.94829" lon="0.08256">
        <ele>125.3</ele>
        <time>2025-03-30T07:40:38Z</time>
      </trkpt>
      <trkpt lat="43.94831" lon="0.08253">
        <ele>125.2</ele>
        <time>2025-03-30T07:40:39Z</time>
      </trkpt>
      <trkpt lat="43.94831" lon="0.08251">
        <ele>125.1</ele>
        <time>2025-03-30T07:40:40Z</time>
      </trkpt>
      <trkpt lat="43.94832" lon="0.08249">
        <ele>125.1</ele>
        <time>2025-03-30T07:40:41Z</time>
      </trkpt>
      <trkpt lat="43.94833" lon="0.08248">
        <ele>125</ele>
        <time>2025-03-30T07:40:42Z</time>
      </trkpt>
      <trkpt lat="43.94834" lon="0.08246">
        <ele>124.9</ele>
        <time>2025-03-30T07:40:43Z</time>
      </trkpt>
      <trkpt lat="43.94834" lon="0.08244">
        <ele>124.9</ele>
        <time>2025-03-30T07:40:44Z</time>
      </trkpt>
      <trkpt lat="43.94835" lon="0.08243">
        <ele>124.8</ele>
        <time>2025-03-30T07:40:45Z</time>
      </trkpt>
      <trkpt lat="43.94836" lon="0.08241">
        <ele>124.8</ele>
        <time>2025-03-30T07:40:46Z</time>
      </trkpt>
      <trkpt lat="43.94837" lon="0.08237">
        <ele>124.7</ele>
        <time>2025-03-30T07:40:47Z</time>
      </trkpt>
      <trkpt lat="43.94838" lon="0.08236">
        <ele>124.6</ele>
        <time>2025-03-30T07:40:49Z</time>
      </trkpt>
      <trkpt lat="43.94838" lon="0.08234">
        <ele>124.6</ele>
        <time>2025-03-30T07:40:50Z</time>
      </trkpt>
      <trkpt lat="43.94839" lon="0.08233">
        <ele>124.5</ele>
        <time>2025-03-30T07:40:51Z</time>
      </trkpt>
      <trkpt lat="43.94839" lon="0.08232">
        <ele>124.5</ele>
        <time>2025-03-30T07:40:52Z</time>
      </trkpt>
      <trkpt lat="43.9484" lon="0.0823">
        <ele>124.4</ele>
        <time>2025-03-30T07:40:54Z</time>
      </trkpt>
      <trkpt lat="43.94841" lon="0.08227">
        <ele>124.4</ele>
        <time>2025-03-30T07:40:55Z</time>
      </trkpt>
      <trkpt lat="43.94842" lon="0.08225">
        <ele>124.3</ele>
        <time>2025-03-30T07:40:57Z</time>
      </trkpt>
      <trkpt lat="43.94842" lon="0.08224">
        <ele>124.3</ele>
        <time>2025-03-30T07:40:58Z</time>
      </trkpt>
      <trkpt lat="43.94844" lon="0.08221">
        <ele>124.2</ele>
        <time>2025-03-30T07:40:59Z</time>
      </trkpt>
      <trkpt lat="43.94844" lon="0.0822">
        <ele>124.2</ele>
        <time>2025-03-30T07:41:00Z</time>
      </trkpt>
      <trkpt lat="43.94845" lon="0.08218">
        <ele>124.1</ele>
        <time>2025-03-30T07:41:01Z</time>
      </trkpt>
      <trkpt lat="43.94847" lon="0.08215">
        <ele>124.1</ele>
        <time>2025-03-30T07:41:03Z</time>
      </trkpt>
      <trkpt lat="43.94847" lon="0.08214">
        <ele>124</ele>
        <time>2025-03-30T07:41:04Z</time>
      </trkpt>
      <trkpt lat="43.94848" lon="0.08213">
        <ele>123.9</ele>
        <time>2025-03-30T07:41:05Z</time>
      </trkpt>
      <trkpt lat="43.94848" lon="0.08212">
        <ele>123.9</ele>
        <time>2025-03-30T07:41:06Z</time>
      </trkpt>
      <trkpt lat="43.9485" lon="0.08209">
        <ele>123.8</ele>
        <time>2025-03-30T07:41:07Z</time>
      </trkpt>
      <trkpt lat="43.9485" lon="0.08208">
        <ele>123.7</ele>
        <time>2025-03-30T07:41:08Z</time>
      </trkpt>
      <trkpt lat="43.94851" lon="0.08207">
        <ele>123.7</ele>
        <time>2025-03-30T07:41:09Z</time>
      </trkpt>
      <trkpt lat="43.94852" lon="0.08205">
        <ele>123.6</ele>
        <time>2025-03-30T07:41:10Z</time>
      </trkpt>
      <trkpt lat="43.94854" lon="0.08202">
        <ele>123.5</ele>
        <time>2025-03-30T07:41:12Z</time>
      </trkpt>
      <trkpt lat="43.94854" lon="0.082">
        <ele>123.4</ele>
        <time>2025-03-30T07:41:13Z</time>
      </trkpt>
      <trkpt lat="43.94855" lon="0.08199">
        <ele>123.4</ele>
        <time>2025-03-30T07:41:14Z</time>
      </trkpt>
      <trkpt lat="43.94856" lon="0.08196">
        <ele>123.3</ele>
        <time>2025-03-30T07:41:15Z</time>
      </trkpt>
      <trkpt lat="43.94857" lon="0.08196">
        <ele>123.2</ele>
        <time>2025-03-30T07:41:16Z</time>
      </trkpt>
      <trkpt lat="43.94857" lon="0.08195">
        <ele>123.2</ele>
        <time>2025-03-30T07:41:17Z</time>
      </trkpt>
      <trkpt lat="43.94858" lon="0.08192">
        <ele>123.1</ele>
        <time>2025-03-30T07:41:19Z</time>
      </trkpt>
      <trkpt lat="43.9486" lon="0.08187">
        <ele>122.9</ele>
        <time>2025-03-30T07:41:20Z</time>
      </trkpt>
      <trkpt lat="43.94861" lon="0.08185">
        <ele>122.9</ele>
        <time>2025-03-30T07:41:22Z</time>
      </trkpt>
      <trkpt lat="43.94862" lon="0.08183">
        <ele>122.8</ele>
        <time>2025-03-30T07:41:23Z</time>
      </trkpt>
      <trkpt lat="43.94863" lon="0.08181">
        <ele>122.8</ele>
        <time>2025-03-30T07:41:24Z</time>
      </trkpt>
      <trkpt lat="43.94863" lon="0.08179">
        <ele>122.7</ele>
        <time>2025-03-30T07:41:25Z</time>
      </trkpt>
      <trkpt lat="43.94864" lon="0.08177">
        <ele>122.6</ele>
        <time>2025-03-30T07:41:26Z</time>
      </trkpt>
      <trkpt lat="43.94865" lon="0.08175">
        <ele>122.6</ele>
        <time>2025-03-30T07:41:27Z</time>
      </trkpt>
      <trkpt lat="43.94866" lon="0.08174">
        <ele>122.5</ele>
        <time>2025-03-30T07:41:28Z</time>
      </trkpt>
      <trkpt lat="43.94869" lon="0.08171">
        <ele>122.4</ele>
        <time>2025-03-30T07:41:30Z</time>
      </trkpt>
      <trkpt lat="43.94869" lon="0.0817">
        <ele>122.4</ele>
        <time>2025-03-30T07:41:31Z</time>
      </trkpt>
      <trkpt lat="43.94871" lon="0.08168">
        <ele>122.3</ele>
        <time>2025-03-30T07:41:33Z</time>
      </trkpt>
      <trkpt lat="43.94872" lon="0.08167">
        <ele>122.3</ele>
        <time>2025-03-30T07:41:34Z</time>
      </trkpt>
      <trkpt lat="43.94872" lon="0.08166">
        <ele>122.3</ele>
        <time>2025-03-30T07:41:35Z</time>
      </trkpt>
      <trkpt lat="43.94874" lon="0.08163">
        <ele>122.2</ele>
        <time>2025-03-30T07:41:36Z</time>
      </trkpt>
      <trkpt lat="43.94875" lon="0.08162">
        <ele>122.1</ele>
        <time>2025-03-30T07:41:37Z</time>
      </trkpt>
      <trkpt lat="43.94875" lon="0.0816">
        <ele>122.1</ele>
        <time>2025-03-30T07:41:38Z</time>
      </trkpt>
      <trkpt lat="43.94877" lon="0.08157">
        <ele>122</ele>
        <time>2025-03-30T07:41:40Z</time>
      </trkpt>
      <trkpt lat="43.94878" lon="0.08156">
        <ele>122</ele>
        <time>2025-03-30T07:41:41Z</time>
      </trkpt>
      <trkpt lat="43.94879" lon="0.08155">
        <ele>121.9</ele>
        <time>2025-03-30T07:41:42Z</time>
      </trkpt>
      <trkpt lat="43.94881" lon="0.08154">
        <ele>121.9</ele>
        <time>2025-03-30T07:41:44Z</time>
      </trkpt>
      <trkpt lat="43.94882" lon="0.08153">
        <ele>121.9</ele>
        <time>2025-03-30T07:41:46Z</time>
      </trkpt>
      <trkpt lat="43.94885" lon="0.08153">
        <ele>122.3</ele>
        <time>2025-03-30T07:41:47Z</time>
      </trkpt>
      <trkpt lat="43.94887" lon="0.08152">
        <ele>122.5</ele>
        <time>2025-03-30T07:41:49Z</time>
      </trkpt>
      <trkpt lat="43.94888" lon="0.08152">
        <ele>122.6</ele>
        <time>2025-03-30T07:41:50Z</time>
      </trkpt>
      <trkpt lat="43.9489" lon="0.08152">
        <ele>122.7</ele>
        <time>2025-03-30T07:41:52Z</time>
      </trkpt>
      <trkpt lat="43.9489" lon="0.08154">
        <ele>122.8</ele>
        <time>2025-03-30T07:41:54Z</time>
      </trkpt>
      <trkpt lat="43.94891" lon="0.08157">
        <ele>123.1</ele>
        <time>2025-03-30T07:41:55Z</time>
      </trkpt>
      <trkpt lat="43.94892" lon="0.08158">
        <ele>123.2</ele>
        <time>2025-03-30T07:41:56Z</time>
      </trkpt>
      <trkpt lat="43.94892" lon="0.0816">
        <ele>123.3</ele>
        <time>2025-03-30T07:41:57Z</time>
      </trkpt>
      <trkpt lat="43.94893" lon="0.08163">
        <ele>123.6</ele>
        <time>2025-03-30T07:41:59Z</time>
      </trkpt>
      <trkpt lat="43.94893" lon="0.08165">
        <ele>123.7</ele>
        <time>2025-03-30T07:42:00Z</time>
      </trkpt>
      <trkpt lat="43.94894" lon="0.08166">
        <ele>123.9</ele>
        <time>2025-03-30T07:42:01Z</time>
      </trkpt>
      <trkpt lat="43.94896" lon="0.08166">
        <ele>124.1</ele>
        <time>2025-03-30T07:42:02Z</time>
      </trkpt>
      <trkpt lat="43.94897" lon="0.08169">
        <ele>124.4</ele>
        <time>2025-03-30T07:42:04Z</time>
      </trkpt>
      <trkpt lat="43.94897" lon="0.0817">
        <ele>124.5</ele>
        <time>2025-03-30T07:42:05Z</time>
      </trkpt>
      <trkpt lat="43.94898" lon="0.08174">
        <ele>124.9</ele>
        <time>2025-03-30T07:42:07Z</time>
      </trkpt>
      <trkpt lat="43.94899" lon="0.08177">
        <ele>125.3</ele>
        <time>2025-03-30T07:42:09Z</time>
      </trkpt>
      <trkpt lat="43.94901" lon="0.0818">
        <ele>125.7</ele>
        <time>2025-03-30T07:42:11Z</time>
      </trkpt>
      <trkpt lat="43.94902" lon="0.08181">
        <ele>125.8</ele>
        <time>2025-03-30T07:42:12Z</time>
      </trkpt>
      <trkpt lat="43.94903" lon="0.08182">
        <ele>126</ele>
        <time>2025-03-30T07:42:13Z</time>
      </trkpt>
      <trkpt lat="43.94905" lon="0.08182">
        <ele>126.1</ele>
        <time>2025-03-30T07:42:14Z</time>
      </trkpt>
      <trkpt lat="43.94906" lon="0.08183">
        <ele>126.3</ele>
        <time>2025-03-30T07:42:15Z</time>
      </trkpt>
      <trkpt lat="43.94908" lon="0.08184">
        <ele>126.6</ele>
        <time>2025-03-30T07:42:17Z</time>
      </trkpt>
      <trkpt lat="43.9491" lon="0.08184">
        <ele>126.8</ele>
        <time>2025-03-30T07:42:19Z</time>
      </trkpt>
      <trkpt lat="43.94914" lon="0.08184">
        <ele>127.1</ele>
        <time>2025-03-30T07:42:20Z</time>
      </trkpt>
      <trkpt lat="43.94917" lon="0.08183">
        <ele>127.4</ele>
        <time>2025-03-30T07:42:22Z</time>
      </trkpt>
      <trkpt lat="43.94919" lon="0.08181">
        <ele>127.7</ele>
        <time>2025-03-30T07:42:24Z</time>
      </trkpt>
      <trkpt lat="43.94921" lon="0.0818">
        <ele>127.8</ele>
        <time>2025-03-30T07:42:25Z</time>
      </trkpt>
      <trkpt lat="43.94921" lon="0.08178">
        <ele>127.9</ele>
        <time>2025-03-30T07:42:27Z</time>
      </trkpt>
      <trkpt lat="43.94924" lon="0.08176">
        <ele>128.1</ele>
        <time>2025-03-30T07:42:28Z</time>
      </trkpt>
      <trkpt lat="43.94925" lon="0.08175">
        <ele>128.1</ele>
        <time>2025-03-30T07:42:29Z</time>
      </trkpt>
      <trkpt lat="43.94926" lon="0.08175">
        <ele>128.2</ele>
        <time>2025-03-30T07:42:30Z</time>
      </trkpt>
      <trkpt lat="43.94927" lon="0.08174">
        <ele>128.2</ele>
        <time>2025-03-30T07:42:32Z</time>
      </trkpt>
      <trkpt lat="43.94929" lon="0.08173">
        <ele>128.3</ele>
        <time>2025-03-30T07:42:33Z</time>
      </trkpt>
      <trkpt lat="43.9493" lon="0.08173">
        <ele>128.3</ele>
        <time>2025-03-30T07:42:34Z</time>
      </trkpt>
      <trkpt lat="43.94931" lon="0.08172">
        <ele>128.3</ele>
        <time>2025-03-30T07:42:35Z</time>
      </trkpt>
      <trkpt lat="43.94933" lon="0.0817">
        <ele>128.3</ele>
        <time>2025-03-30T07:42:36Z</time>
      </trkpt>
      <trkpt lat="43.94934" lon="0.08169">
        <ele>128.3</ele>
        <time>2025-03-30T07:42:37Z</time>
      </trkpt>
      <trkpt lat="43.94935" lon="0.08167">
        <ele>128.3</ele>
        <time>2025-03-30T07:42:38Z</time>
      </trkpt>
      <trkpt lat="43.94936" lon="0.08166">
        <ele>128.4</ele>
        <time>2025-03-30T07:42:40Z</time>
      </trkpt>
      <trkpt lat="43.94939" lon="0.08165">
        <ele>128.4</ele>
        <time>2025-03-30T07:42:41Z</time>
      </trkpt>
      <trkpt lat="43.94942" lon="0.08164">
        <ele>128.4</ele>
        <time>2025-03-30T07:42:43Z</time>
      </trkpt>
      <trkpt lat="43.94945" lon="0.08164">
        <ele>128.4</ele>
        <time>2025-03-30T07:42:45Z</time>
      </trkpt>
      <trkpt lat="43.94946" lon="0.08164">
        <ele>128.4</ele>
        <time>2025-03-30T07:42:46Z</time>
      </trkpt>
      <trkpt lat="43.94948" lon="0.08163">
        <ele>128.4</ele>
        <time>2025-03-30T07:42:48Z</time>
      </trkpt>
      <trkpt lat="43.94951" lon="0.08163">
        <ele>128.4</ele>
        <time>2025-03-30T07:42:49Z</time>
      </trkpt>
      <trkpt lat="43.94953" lon="0.08163">
        <ele>128.4</ele>
        <time>2025-03-30T07:42:50Z</time>
      </trkpt>
      <trkpt lat="43.94954" lon="0.08162">
        <ele>128.4</ele>
        <time>2025-03-30T07:42:51Z</time>
      </trkpt>
      <trkpt lat="43.94956" lon="0.08162">
        <ele>128.4</ele>
        <time>2025-03-30T07:42:52Z</time>
      </trkpt>
      <trkpt lat="43.94957" lon="0.08161">
        <ele>128.4</ele>
        <time>2025-03-30T07:42:53Z</time>
      </trkpt>
      <trkpt lat="43.94959" lon="0.08161">
        <ele>128.4</ele>
        <time>2025-03-30T07:42:54Z</time>
      </trkpt>
      <trkpt lat="43.9496" lon="0.0816">
        <ele>128.4</ele>
        <time>2025-03-30T07:42:56Z</time>
      </trkpt>
      <trkpt lat="43.94963" lon="0.08159">
        <ele>128.4</ele>
        <time>2025-03-30T07:42:57Z</time>
      </trkpt>
      <trkpt lat="43.94965" lon="0.08159">
        <ele>128.4</ele>
        <time>2025-03-30T07:42:58Z</time>
      </trkpt>
      <trkpt lat="43.94966" lon="0.08158">
        <ele>128.4</ele>
        <time>2025-03-30T07:42:59Z</time>
      </trkpt>
      <trkpt lat="43.94968" lon="0.08158">
        <ele>128.4</ele>
        <time>2025-03-30T07:43:01Z</time>
      </trkpt>
      <trkpt lat="43.9497" lon="0.08157">
        <ele>128.4</ele>
        <time>2025-03-30T07:43:02Z</time>
      </trkpt>
      <trkpt lat="43.94972" lon="0.08157">
        <ele>128.4</ele>
        <time>2025-03-30T07:43:04Z</time>
      </trkpt>
      <trkpt lat="43.94974" lon="0.08155">
        <ele>128.4</ele>
        <time>2025-03-30T07:43:05Z</time>
      </trkpt>
      <trkpt lat="43.94976" lon="0.08154">
        <ele>128.5</ele>
        <time>2025-03-30T07:43:06Z</time>
      </trkpt>
      <trkpt lat="43.94977" lon="0.08154">
        <ele>128.5</ele>
        <time>2025-03-30T07:43:07Z</time>
      </trkpt>
      <trkpt lat="43.94978" lon="0.08154">
        <ele>128.5</ele>
        <time>2025-03-30T07:43:08Z</time>
      </trkpt>
      <trkpt lat="43.94981" lon="0.08155">
        <ele>128.5</ele>
        <time>2025-03-30T07:43:10Z</time>
      </trkpt>
      <trkpt lat="43.94982" lon="0.08156">
        <ele>128.5</ele>
        <time>2025-03-30T07:43:11Z</time>
      </trkpt>
      <trkpt lat="43.94983" lon="0.08155">
        <ele>128.5</ele>
        <time>2025-03-30T07:43:12Z</time>
      </trkpt>
      <trkpt lat="43.94985" lon="0.08154">
        <ele>128.4</ele>
        <time>2025-03-30T07:43:14Z</time>
      </trkpt>
      <trkpt lat="43.94987" lon="0.08154">
        <ele>128.4</ele>
        <time>2025-03-30T07:43:15Z</time>
      </trkpt>
      <trkpt lat="43.94989" lon="0.08153">
        <ele>128.4</ele>
        <time>2025-03-30T07:43:16Z</time>
      </trkpt>
      <trkpt lat="43.94992" lon="0.08152">
        <ele>128.4</ele>
        <time>2025-03-30T07:43:18Z</time>
      </trkpt>
      <trkpt lat="43.94993" lon="0.08152">
        <ele>128.4</ele>
        <time>2025-03-30T07:43:19Z</time>
      </trkpt>
      <trkpt lat="43.94995" lon="0.08151">
        <ele>128.3</ele>
        <time>2025-03-30T07:43:20Z</time>
      </trkpt>
      <trkpt lat="43.94996" lon="0.0815">
        <ele>128.3</ele>
        <time>2025-03-30T07:43:21Z</time>
      </trkpt>
      <trkpt lat="43.94996" lon="0.0815">
        <ele>128.3</ele>
        <time>2025-03-30T07:43:22Z</time>
      </trkpt>
      <trkpt lat="43.94999" lon="0.0815">
        <ele>128.3</ele>
        <time>2025-03-30T07:43:24Z</time>
      </trkpt>
      <trkpt lat="43.95002" lon="0.0815">
        <ele>128.3</ele>
        <time>2025-03-30T07:43:26Z</time>
      </trkpt>
      <trkpt lat="43.95004" lon="0.0815">
        <ele>128.2</ele>
        <time>2025-03-30T07:43:27Z</time>
      </trkpt>
      <trkpt lat="43.95004" lon="0.0815">
        <ele>128.2</ele>
        <time>2025-03-30T07:43:28Z</time>
      </trkpt>
      <trkpt lat="43.95006" lon="0.08151">
        <ele>128.2</ele>
        <time>2025-03-30T07:43:29Z</time>
      </trkpt>
      <trkpt lat="43.95007" lon="0.08151">
        <ele>128.2</ele>
        <time>2025-03-30T07:43:31Z</time>
      </trkpt>
      <trkpt lat="43.95009" lon="0.08151">
        <ele>128.1</ele>
        <time>2025-03-30T07:43:32Z</time>
      </trkpt>
      <trkpt lat="43.95012" lon="0.08152">
        <ele>128.1</ele>
        <time>2025-03-30T07:43:34Z</time>
      </trkpt>
      <trkpt lat="43.95014" lon="0.08152">
        <ele>128</ele>
        <time>2025-03-30T07:43:36Z</time>
      </trkpt>
      <trkpt lat="43.95016" lon="0.0815">
        <ele>128</ele>
        <time>2025-03-30T07:43:37Z</time>
      </trkpt>
      <trkpt lat="43.95017" lon="0.0815">
        <ele>128</ele>
        <time>2025-03-30T07:43:38Z</time>
      </trkpt>
      <trkpt lat="43.95018" lon="0.08149">
        <ele>128</ele>
        <time>2025-03-30T07:43:39Z</time>
      </trkpt>
      <trkpt lat="43.95017" lon="0.08149">
        <ele>128</ele>
        <time>2025-03-30T07:43:40Z</time>
      </trkpt>
      <trkpt lat="43.95019" lon="0.0815">
        <ele>127.9</ele>
        <time>2025-03-30T07:43:41Z</time>
      </trkpt>
      <trkpt lat="43.95021" lon="0.08149">
        <ele>127.9</ele>
        <time>2025-03-30T07:43:42Z</time>
      </trkpt>
      <trkpt lat="43.95023" lon="0.08149">
        <ele>127.9</ele>
        <time>2025-03-30T07:43:43Z</time>
      </trkpt>
      <trkpt lat="43.95024" lon="0.08149">
        <ele>127.8</ele>
        <time>2025-03-30T07:43:44Z</time>
      </trkpt>
      <trkpt lat="43.95025" lon="0.08149">
        <ele>127.8</ele>
        <time>2025-03-30T07:43:45Z</time>
      </trkpt>
      <trkpt lat="43.95026" lon="0.08149">
        <ele>127.8</ele>
        <time>2025-03-30T07:43:46Z</time>
      </trkpt>
      <trkpt lat="43.95027" lon="0.08149">
        <ele>127.8</ele>
        <time>2025-03-30T07:43:47Z</time>
      </trkpt>
      <trkpt lat="43.9503" lon="0.08149">
        <ele>127.7</ele>
        <time>2025-03-30T07:43:49Z</time>
      </trkpt>
      <trkpt lat="43.95031" lon="0.08149">
        <ele>127.7</ele>
        <time>2025-03-30T07:43:50Z</time>
      </trkpt>
      <trkpt lat="43.95032" lon="0.08149">
        <ele>127.7</ele>
        <time>2025-03-30T07:43:51Z</time>
      </trkpt>
      <trkpt lat="43.95032" lon="0.08149">
        <ele>127.7</ele>
        <time>2025-03-30T07:43:52Z</time>
      </trkpt>
      <trkpt lat="43.95034" lon="0.08149">
        <ele>127.6</ele>
        <time>2025-03-30T07:43:53Z</time>
      </trkpt>
      <trkpt lat="43.95037" lon="0.08149">
        <ele>127.5</ele>
        <time>2025-03-30T07:43:55Z</time>
      </trkpt>
      <trkpt lat="43.95039" lon="0.08149">
        <ele>127.5</ele>
        <time>2025-03-30T07:43:56Z</time>
      </trkpt>
      <trkpt lat="43.9504" lon="0.08149">
        <ele>127.5</ele>
        <time>2025-03-30T07:43:58Z</time>
      </trkpt>
      <trkpt lat="43.95042" lon="0.08148">
        <ele>127.4</ele>
        <time>2025-03-30T07:43:59Z</time>
      </trkpt>
      <trkpt lat="43.95044" lon="0.08148">
        <ele>127.4</ele>
        <time>2025-03-30T07:44:00Z</time>
      </trkpt>
      <trkpt lat="43.95046" lon="0.08149">
        <ele>127.4</ele>
        <time>2025-03-30T07:44:01Z</time>
      </trkpt>
      <trkpt lat="43.9505" lon="0.08147">
        <ele>127.3</ele>
        <time>2025-03-30T07:44:03Z</time>
      </trkpt>
      <trkpt lat="43.95052" lon="0.08145">
        <ele>127.3</ele>
        <time>2025-03-30T07:44:04Z</time>
      </trkpt>
      <trkpt lat="43.95053" lon="0.08145">
        <ele>127.2</ele>
        <time>2025-03-30T07:44:06Z</time>
      </trkpt>
      <trkpt lat="43.95056" lon="0.08145">
        <ele>127.2</ele>
        <time>2025-03-30T07:44:07Z</time>
      </trkpt>
      <trkpt lat="43.95058" lon="0.08145">
        <ele>127.2</ele>
        <time>2025-03-30T07:44:08Z</time>
      </trkpt>
      <trkpt lat="43.95059" lon="0.08145">
        <ele>127.2</ele>
        <time>2025-03-30T07:44:09Z</time>
      </trkpt>
      <trkpt lat="43.9506" lon="0.08145">
        <ele>127.1</ele>
        <time>2025-03-30T07:44:10Z</time>
      </trkpt>
      <trkpt lat="43.95061" lon="0.08145">
        <ele>127.1</ele>
        <time>2025-03-30T07:44:11Z</time>
      </trkpt>
      <trkpt lat="43.95063" lon="0.08145">
        <ele>127.1</ele>
        <time>2025-03-30T07:44:13Z</time>
      </trkpt>
      <trkpt lat="43.95066" lon="0.08145">
        <ele>127.1</ele>
        <time>2025-03-30T07:44:15Z</time>
      </trkpt>
      <trkpt lat="43.95068" lon="0.08145">
        <ele>127</ele>
        <time>2025-03-30T07:44:16Z</time>
      </trkpt>
      <trkpt lat="43.95069" lon="0.08145">
        <ele>127</ele>
        <time>2025-03-30T07:44:17Z</time>
      </trkpt>
      <trkpt lat="43.95071" lon="0.08145">
        <ele>127</ele>
        <time>2025-03-30T07:44:18Z</time>
      </trkpt>
      <trkpt lat="43.95073" lon="0.08145">
        <ele>127</ele>
        <time>2025-03-30T07:44:19Z</time>
      </trkpt>
      <trkpt lat="43.95076" lon="0.08144">
        <ele>127</ele>
        <time>2025-03-30T07:44:21Z</time>
      </trkpt>
      <trkpt lat="43.95078" lon="0.08144">
        <ele>126.9</ele>
        <time>2025-03-30T07:44:22Z</time>
      </trkpt>
      <trkpt lat="43.95079" lon="0.08144">
        <ele>126.9</ele>
        <time>2025-03-30T07:44:23Z</time>
      </trkpt>
      <trkpt lat="43.9508" lon="0.08144">
        <ele>126.9</ele>
        <time>2025-03-30T07:44:24Z</time>
      </trkpt>
      <trkpt lat="43.95082" lon="0.08144">
        <ele>126.9</ele>
        <time>2025-03-30T07:44:25Z</time>
      </trkpt>
      <trkpt lat="43.95083" lon="0.08145">
        <ele>126.9</ele>
        <time>2025-03-30T07:44:26Z</time>
      </trkpt>
      <trkpt lat="43.95085" lon="0.08145">
        <ele>126.9</ele>
        <time>2025-03-30T07:44:27Z</time>
      </trkpt>
      <trkpt lat="43.95087" lon="0.08145">
        <ele>126.8</ele>
        <time>2025-03-30T07:44:29Z</time>
      </trkpt>
      <trkpt lat="43.95088" lon="0.08145">
        <ele>126.8</ele>
        <time>2025-03-30T07:44:30Z</time>
      </trkpt>
      <trkpt lat="43.95091" lon="0.08145">
        <ele>126.8</ele>
        <time>2025-03-30T07:44:31Z</time>
      </trkpt>
      <trkpt lat="43.95091" lon="0.08146">
        <ele>126.7</ele>
        <time>2025-03-30T07:44:32Z</time>
      </trkpt>
      <trkpt lat="43.95092" lon="0.08146">
        <ele>126.7</ele>
        <time>2025-03-30T07:44:33Z</time>
      </trkpt>
      <trkpt lat="43.95094" lon="0.08147">
        <ele>126.7</ele>
        <time>2025-03-30T07:44:35Z</time>
      </trkpt>
      <trkpt lat="43.95095" lon="0.08147">
        <ele>126.7</ele>
        <time>2025-03-30T07:44:36Z</time>
      </trkpt>
      <trkpt lat="43.95099" lon="0.08148">
        <ele>126.6</ele>
        <time>2025-03-30T07:44:38Z</time>
      </trkpt>
      <trkpt lat="43.951" lon="0.08148">
        <ele>126.6</ele>
        <time>2025-03-30T07:44:39Z</time>
      </trkpt>
      <trkpt lat="43.95101" lon="0.08148">
        <ele>126.6</ele>
        <time>2025-03-30T07:44:40Z</time>
      </trkpt>
      <trkpt lat="43.95102" lon="0.08148">
        <ele>126.5</ele>
        <time>2025-03-30T07:44:41Z</time>
      </trkpt>
      <trkpt lat="43.95103" lon="0.08148">
        <ele>126.5</ele>
        <time>2025-03-30T07:44:42Z</time>
      </trkpt>
      <trkpt lat="43.95105" lon="0.08148">
        <ele>126.5</ele>
        <time>2025-03-30T07:44:43Z</time>
      </trkpt>
      <trkpt lat="43.95107" lon="0.08149">
        <ele>126.5</ele>
        <time>2025-03-30T07:44:44Z</time>
      </trkpt>
      <trkpt lat="43.95108" lon="0.08149">
        <ele>126.5</ele>
        <time>2025-03-30T07:44:45Z</time>
      </trkpt>
      <trkpt lat="43.95109" lon="0.08149">
        <ele>126.5</ele>
        <time>2025-03-30T07:44:46Z</time>
      </trkpt>
      <trkpt lat="43.95111" lon="0.08149">
        <ele>126.4</ele>
        <time>2025-03-30T07:44:47Z</time>
      </trkpt>
      <trkpt lat="43.95112" lon="0.08149">
        <ele>126.4</ele>
        <time>2025-03-30T07:44:48Z</time>
      </trkpt>
      <trkpt lat="43.95114" lon="0.08149">
        <ele>126.4</ele>
        <time>2025-03-30T07:44:49Z</time>
      </trkpt>
      <trkpt lat="43.95115" lon="0.08149">
        <ele>126.4</ele>
        <time>2025-03-30T07:44:50Z</time>
      </trkpt>
      <trkpt lat="43.95118" lon="0.08148">
        <ele>126.4</ele>
        <time>2025-03-30T07:44:52Z</time>
      </trkpt>
      <trkpt lat="43.9512" lon="0.08147">
        <ele>126.3</ele>
        <time>2025-03-30T07:44:53Z</time>
      </trkpt>
      <trkpt lat="43.95121" lon="0.08147">
        <ele>126.3</ele>
        <time>2025-03-30T07:44:54Z</time>
      </trkpt>
      <trkpt lat="43.95122" lon="0.08147">
        <ele>126.3</ele>
        <time>2025-03-30T07:44:56Z</time>
      </trkpt>
      <trkpt lat="43.95125" lon="0.08147">
        <ele>126.3</ele>
        <time>2025-03-30T07:44:57Z</time>
      </trkpt>
      <trkpt lat="43.95127" lon="0.08147">
        <ele>126.3</ele>
        <time>2025-03-30T07:44:58Z</time>
      </trkpt>
      <trkpt lat="43.95129" lon="0.08147">
        <ele>126.2</ele>
        <time>2025-03-30T07:44:59Z</time>
      </trkpt>
      <trkpt lat="43.9513" lon="0.08147">
        <ele>126.2</ele>
        <time>2025-03-30T07:45:00Z</time>
      </trkpt>
      <trkpt lat="43.95132" lon="0.08146">
        <ele>126.2</ele>
        <time>2025-03-30T07:45:01Z</time>
      </trkpt>
      <trkpt lat="43.95135" lon="0.08147">
        <ele>126.1</ele>
        <time>2025-03-30T07:45:03Z</time>
      </trkpt>
      <trkpt lat="43.95136" lon="0.08147">
        <ele>126.1</ele>
        <time>2025-03-30T07:45:05Z</time>
      </trkpt>
      <trkpt lat="43.95139" lon="0.08147">
        <ele>126</ele>
        <time>2025-03-30T07:45:06Z</time>
      </trkpt>
      <trkpt lat="43.95141" lon="0.08147">
        <ele>126</ele>
        <time>2025-03-30T07:45:07Z</time>
      </trkpt>
      <trkpt lat="43.95142" lon="0.08148">
        <ele>126</ele>
        <time>2025-03-30T07:45:08Z</time>
      </trkpt>
      <trkpt lat="43.95144" lon="0.08148">
        <ele>125.9</ele>
        <time>2025-03-30T07:45:09Z</time>
      </trkpt>
      <trkpt lat="43.95145" lon="0.08148">
        <ele>125.9</ele>
        <time>2025-03-30T07:45:10Z</time>
      </trkpt>
      <trkpt lat="43.95147" lon="0.08149">
        <ele>125.9</ele>
        <time>2025-03-30T07:45:11Z</time>
      </trkpt>
      <trkpt lat="43.95148" lon="0.08149">
        <ele>125.9</ele>
        <time>2025-03-30T07:45:12Z</time>
      </trkpt>
      <trkpt lat="43.95152" lon="0.08149">
        <ele>125.9</ele>
        <time>2025-03-30T07:45:14Z</time>
      </trkpt>
      <trkpt lat="43.95153" lon="0.08148">
        <ele>125.9</ele>
        <time>2025-03-30T07:45:15Z</time>
      </trkpt>
      <trkpt lat="43.95155" lon="0.08148">
        <ele>125.8</ele>
        <time>2025-03-30T07:45:17Z</time>
      </trkpt>
      <trkpt lat="43.95158" lon="0.08148">
        <ele>125.8</ele>
        <time>2025-03-30T07:45:18Z</time>
      </trkpt>
      <trkpt lat="43.9516" lon="0.08148">
        <ele>125.8</ele>
        <time>2025-03-30T07:45:20Z</time>
      </trkpt>
      <trkpt lat="43.95161" lon="0.08148">
        <ele>125.8</ele>
        <time>2025-03-30T07:45:21Z</time>
      </trkpt>
      <trkpt lat="43.95164" lon="0.08147">
        <ele>125.7</ele>
        <time>2025-03-30T07:45:22Z</time>
      </trkpt>
      <trkpt lat="43.95166" lon="0.08147">
        <ele>125.7</ele>
        <time>2025-03-30T07:45:23Z</time>
      </trkpt>
      <trkpt lat="43.95169" lon="0.08147">
        <ele>125.7</ele>
        <time>2025-03-30T07:45:25Z</time>
      </trkpt>
      <trkpt lat="43.95169" lon="0.08149">
        <ele>125.7</ele>
        <time>2025-03-30T07:45:27Z</time>
      </trkpt>
      <trkpt lat="43.95168" lon="0.0815">
        <ele>125.6</ele>
        <time>2025-03-30T07:45:28Z</time>
      </trkpt>
      <trkpt lat="43.95169" lon="0.08151">
        <ele>125.6</ele>
        <time>2025-03-30T07:45:29Z</time>
      </trkpt>
      <trkpt lat="43.9517" lon="0.08151">
        <ele>125.6</ele>
        <time>2025-03-30T07:45:30Z</time>
      </trkpt>
      <trkpt lat="43.95172" lon="0.0815">
        <ele>125.6</ele>
        <time>2025-03-30T07:45:31Z</time>
      </trkpt>
      <trkpt lat="43.95174" lon="0.08152">
        <ele>125.5</ele>
        <time>2025-03-30T07:45:33Z</time>
      </trkpt>
      <trkpt lat="43.95175" lon="0.0815">
        <ele>125.5</ele>
        <time>2025-03-30T07:45:34Z</time>
      </trkpt>
      <trkpt lat="43.95177" lon="0.08146">
        <ele>125.5</ele>
        <time>2025-03-30T07:45:36Z</time>
      </trkpt>
      <trkpt lat="43.95178" lon="0.08144">
        <ele>125.4</ele>
        <time>2025-03-30T07:45:37Z</time>
      </trkpt>
      <trkpt lat="43.9518" lon="0.08143">
        <ele>125.4</ele>
        <time>2025-03-30T07:45:39Z</time>
      </trkpt>
      <trkpt lat="43.95181" lon="0.08143">
        <ele>125.4</ele>
        <time>2025-03-30T07:45:40Z</time>
      </trkpt>
      <trkpt lat="43.95183" lon="0.08143">
        <ele>125.4</ele>
        <time>2025-03-30T07:45:41Z</time>
      </trkpt>
      <trkpt lat="43.95185" lon="0.08143">
        <ele>125.3</ele>
        <time>2025-03-30T07:45:42Z</time>
      </trkpt>
      <trkpt lat="43.95186" lon="0.08144">
        <ele>125.3</ele>
        <time>2025-03-30T07:45:43Z</time>
      </trkpt>
      <trkpt lat="43.9519" lon="0.08144">
        <ele>125.3</ele>
        <time>2025-03-30T07:45:45Z</time>
      </trkpt>
      <trkpt lat="43.95192" lon="0.08144">
        <ele>125.2</ele>
        <time>2025-03-30T07:45:46Z</time>
      </trkpt>
      <trkpt lat="43.95193" lon="0.08143">
        <ele>125.2</ele>
        <time>2025-03-30T07:45:47Z</time>
      </trkpt>
      <trkpt lat="43.95195" lon="0.08143">
        <ele>125.2</ele>
        <time>2025-03-30T07:45:48Z</time>
      </trkpt>
      <trkpt lat="43.95196" lon="0.08142">
        <ele>125.1</ele>
        <time>2025-03-30T07:45:49Z</time>
      </trkpt>
      <trkpt lat="43.95197" lon="0.0814">
        <ele>125.1</ele>
        <time>2025-03-30T07:45:50Z</time>
      </trkpt>
      <trkpt lat="43.95199" lon="0.08139">
        <ele>125.1</ele>
        <time>2025-03-30T07:45:51Z</time>
      </trkpt>
      <trkpt lat="43.952" lon="0.08138">
        <ele>125.1</ele>
        <time>2025-03-30T07:45:52Z</time>
      </trkpt>
      <trkpt lat="43.95201" lon="0.08137">
        <ele>125</ele>
        <time>2025-03-30T07:45:53Z</time>
      </trkpt>
      <trkpt lat="43.95202" lon="0.08136">
        <ele>125</ele>
        <time>2025-03-30T07:45:54Z</time>
      </trkpt>
      <trkpt lat="43.95203" lon="0.08135">
        <ele>125</ele>
        <time>2025-03-30T07:45:55Z</time>
      </trkpt>
      <trkpt lat="43.95204" lon="0.08135">
        <ele>125</ele>
        <time>2025-03-30T07:45:56Z</time>
      </trkpt>
      <trkpt lat="43.95204" lon="0.08134">
        <ele>124.9</ele>
        <time>2025-03-30T07:45:57Z</time>
      </trkpt>
      <trkpt lat="43.95206" lon="0.08133">
        <ele>124.9</ele>
        <time>2025-03-30T07:45:58Z</time>
      </trkpt>
      <trkpt lat="43.95206" lon="0.08133">
        <ele>124.9</ele>
        <time>2025-03-30T07:45:59Z</time>
      </trkpt>
      <trkpt lat="43.95209" lon="0.08132">
        <ele>124.8</ele>
        <time>2025-03-30T07:46:00Z</time>
      </trkpt>
      <trkpt lat="43.95211" lon="0.08131">
        <ele>124.8</ele>
        <time>2025-03-30T07:46:02Z</time>
      </trkpt>
      <trkpt lat="43.95213" lon="0.0813">
        <ele>124.7</ele>
        <time>2025-03-30T07:46:04Z</time>
      </trkpt>
      <trkpt lat="43.95214" lon="0.0813">
        <ele>124.7</ele>
        <time>2025-03-30T07:46:05Z</time>
      </trkpt>
      <trkpt lat="43.95216" lon="0.08129">
        <ele>124.6</ele>
        <time>2025-03-30T07:46:06Z</time>
      </trkpt>
      <trkpt lat="43.95218" lon="0.0813">
        <ele>124.6</ele>
        <time>2025-03-30T07:46:07Z</time>
      </trkpt>
      <trkpt lat="43.95219" lon="0.0813">
        <ele>124.5</ele>
        <time>2025-03-30T07:46:08Z</time>
      </trkpt>
      <trkpt lat="43.95223" lon="0.08131">
        <ele>124.4</ele>
        <time>2025-03-30T07:46:10Z</time>
      </trkpt>
      <trkpt lat="43.95224" lon="0.08131">
        <ele>124.4</ele>
        <time>2025-03-30T07:46:12Z</time>
      </trkpt>
      <trkpt lat="43.95225" lon="0.08131">
        <ele>124.4</ele>
        <time>2025-03-30T07:46:13Z</time>
      </trkpt>
      <trkpt lat="43.95227" lon="0.08131">
        <ele>124.3</ele>
        <time>2025-03-30T07:46:14Z</time>
      </trkpt>
      <trkpt lat="43.95229" lon="0.08132">
        <ele>124.3</ele>
        <time>2025-03-30T07:46:15Z</time>
      </trkpt>
      <trkpt lat="43.9523" lon="0.08132">
        <ele>124.3</ele>
        <time>2025-03-30T07:46:16Z</time>
      </trkpt>
      <trkpt lat="43.95233" lon="0.08131">
        <ele>124.2</ele>
        <time>2025-03-30T07:46:18Z</time>
      </trkpt>
      <trkpt lat="43.95235" lon="0.08131">
        <ele>124.2</ele>
        <time>2025-03-30T07:46:20Z</time>
      </trkpt>
      <trkpt lat="43.95237" lon="0.0813">
        <ele>124.1</ele>
        <time>2025-03-30T07:46:21Z</time>
      </trkpt>
      <trkpt lat="43.95239" lon="0.0813">
        <ele>124.1</ele>
        <time>2025-03-30T07:46:22Z</time>
      </trkpt>
      <trkpt lat="43.9524" lon="0.0813">
        <ele>124.1</ele>
        <time>2025-03-30T07:46:23Z</time>
      </trkpt>
      <trkpt lat="43.95242" lon="0.0813">
        <ele>124</ele>
        <time>2025-03-30T07:46:24Z</time>
      </trkpt>
      <trkpt lat="43.95243" lon="0.08129">
        <ele>124</ele>
        <time>2025-03-30T07:46:26Z</time>
      </trkpt>
      <trkpt lat="43.95245" lon="0.08128">
        <ele>124</ele>
        <time>2025-03-30T07:46:27Z</time>
      </trkpt>
      <trkpt lat="43.95248" lon="0.08127">
        <ele>123.9</ele>
        <time>2025-03-30T07:46:28Z</time>
      </trkpt>
      <trkpt lat="43.95249" lon="0.08125">
        <ele>123.9</ele>
        <time>2025-03-30T07:46:29Z</time>
      </trkpt>
      <trkpt lat="43.9525" lon="0.08125">
        <ele>123.9</ele>
        <time>2025-03-30T07:46:30Z</time>
      </trkpt>
      <trkpt lat="43.95252" lon="0.08124">
        <ele>123.9</ele>
        <time>2025-03-30T07:46:32Z</time>
      </trkpt>
      <trkpt lat="43.95254" lon="0.08123">
        <ele>123.8</ele>
        <time>2025-03-30T07:46:34Z</time>
      </trkpt>
      <trkpt lat="43.95256" lon="0.08122">
        <ele>123.8</ele>
        <time>2025-03-30T07:46:35Z</time>
      </trkpt>
      <trkpt lat="43.95257" lon="0.08121">
        <ele>123.7</ele>
        <time>2025-03-30T07:46:37Z</time>
      </trkpt>
      <trkpt lat="43.95259" lon="0.0812">
        <ele>123.7</ele>
        <time>2025-03-30T07:46:38Z</time>
      </trkpt>
      <trkpt lat="43.9526" lon="0.08119">
        <ele>123.6</ele>
        <time>2025-03-30T07:46:39Z</time>
      </trkpt>
      <trkpt lat="43.95261" lon="0.08118">
        <ele>123.6</ele>
        <time>2025-03-30T07:46:40Z</time>
      </trkpt>
      <trkpt lat="43.95262" lon="0.08118">
        <ele>123.6</ele>
        <time>2025-03-30T07:46:41Z</time>
      </trkpt>
      <trkpt lat="43.95263" lon="0.08117">
        <ele>123.5</ele>
        <time>2025-03-30T07:46:42Z</time>
      </trkpt>
      <trkpt lat="43.95266" lon="0.08116">
        <ele>123.4</ele>
        <time>2025-03-30T07:46:44Z</time>
      </trkpt>
      <trkpt lat="43.95268" lon="0.08113">
        <ele>123.2</ele>
        <time>2025-03-30T07:46:46Z</time>
      </trkpt>
      <trkpt lat="43.95269" lon="0.08111">
        <ele>123.2</ele>
        <time>2025-03-30T07:46:48Z</time>
      </trkpt>
      <trkpt lat="43.95271" lon="0.08109">
        <ele>123</ele>
        <time>2025-03-30T07:46:49Z</time>
      </trkpt>
      <trkpt lat="43.95272" lon="0.08107">
        <ele>122.9</ele>
        <time>2025-03-30T07:46:51Z</time>
      </trkpt>
      <trkpt lat="43.95275" lon="0.08105">
        <ele>122.8</ele>
        <time>2025-03-30T07:46:52Z</time>
      </trkpt>
      <trkpt lat="43.95276" lon="0.08104">
        <ele>122.7</ele>
        <time>2025-03-30T07:46:54Z</time>
      </trkpt>
      <trkpt lat="43.95279" lon="0.08103">
        <ele>122.7</ele>
        <time>2025-03-30T07:46:55Z</time>
      </trkpt>
      <trkpt lat="43.95282" lon="0.08101">
        <ele>122.6</ele>
        <time>2025-03-30T07:46:57Z</time>
      </trkpt>
      <trkpt lat="43.95283" lon="0.081">
        <ele>122.5</ele>
        <time>2025-03-30T07:46:59Z</time>
      </trkpt>
      <trkpt lat="43.95285" lon="0.08099">
        <ele>122.5</ele>
        <time>2025-03-30T07:47:00Z</time>
      </trkpt>
      <trkpt lat="43.95288" lon="0.08097">
        <ele>122.4</ele>
        <time>2025-03-30T07:47:02Z</time>
      </trkpt>
      <trkpt lat="43.95289" lon="0.08095">
        <ele>122.4</ele>
        <time>2025-03-30T07:47:03Z</time>
      </trkpt>
      <trkpt lat="43.95292" lon="0.08094">
        <ele>122.3</ele>
        <time>2025-03-30T07:47:05Z</time>
      </trkpt>
      <trkpt lat="43.95294" lon="0.08093">
        <ele>122.3</ele>
        <time>2025-03-30T07:47:06Z</time>
      </trkpt>
      <trkpt lat="43.95296" lon="0.08092">
        <ele>122.2</ele>
        <time>2025-03-30T07:47:07Z</time>
      </trkpt>
      <trkpt lat="43.95297" lon="0.08091">
        <ele>122.2</ele>
        <time>2025-03-30T07:47:09Z</time>
      </trkpt>
      <trkpt lat="43.95298" lon="0.0809">
        <ele>122.1</ele>
        <time>2025-03-30T07:47:10Z</time>
      </trkpt>
      <trkpt lat="43.953" lon="0.08087">
        <ele>122.1</ele>
        <time>2025-03-30T07:47:11Z</time>
      </trkpt>
      <trkpt lat="43.95301" lon="0.08087">
        <ele>122.1</ele>
        <time>2025-03-30T07:47:12Z</time>
      </trkpt>
      <trkpt lat="43.95302" lon="0.08086">
        <ele>122</ele>
        <time>2025-03-30T07:47:13Z</time>
      </trkpt>
      <trkpt lat="43.95304" lon="0.08085">
        <ele>122</ele>
        <time>2025-03-30T07:47:14Z</time>
      </trkpt>
      <trkpt lat="43.95305" lon="0.08083">
        <ele>122</ele>
        <time>2025-03-30T07:47:15Z</time>
      </trkpt>
      <trkpt lat="43.95306" lon="0.08082">
        <ele>121.9</ele>
        <time>2025-03-30T07:47:16Z</time>
      </trkpt>
      <trkpt lat="43.95307" lon="0.08081">
        <ele>121.9</ele>
        <time>2025-03-30T07:47:17Z</time>
      </trkpt>
      <trkpt lat="43.95308" lon="0.08079">
        <ele>121.9</ele>
        <time>2025-03-30T07:47:18Z</time>
      </trkpt>
      <trkpt lat="43.95309" lon="0.08077">
        <ele>121.8</ele>
        <time>2025-03-30T07:47:20Z</time>
      </trkpt>
      <trkpt lat="43.95311" lon="0.08075">
        <ele>121.8</ele>
        <time>2025-03-30T07:47:22Z</time>
      </trkpt>
      <trkpt lat="43.95312" lon="0.08074">
        <ele>121.7</ele>
        <time>2025-03-30T07:47:23Z</time>
      </trkpt>
      <trkpt lat="43.95314" lon="0.08072">
        <ele>121.7</ele>
        <time>2025-03-30T07:47:25Z</time>
      </trkpt>
      <trkpt lat="43.95316" lon="0.08071">
        <ele>121.7</ele>
        <time>2025-03-30T07:47:27Z</time>
      </trkpt>
      <trkpt lat="43.95318" lon="0.08069">
        <ele>121.6</ele>
        <time>2025-03-30T07:47:28Z</time>
      </trkpt>
      <trkpt lat="43.95319" lon="0.08068">
        <ele>121.6</ele>
        <time>2025-03-30T07:47:29Z</time>
      </trkpt>
      <trkpt lat="43.9532" lon="0.08068">
        <ele>121.6</ele>
        <time>2025-03-30T07:47:30Z</time>
      </trkpt>
      <trkpt lat="43.95322" lon="0.08067">
        <ele>121.5</ele>
        <time>2025-03-30T07:47:31Z</time>
      </trkpt>
      <trkpt lat="43.95324" lon="0.08065">
        <ele>121.5</ele>
        <time>2025-03-30T07:47:33Z</time>
      </trkpt>
      <trkpt lat="43.95325" lon="0.08064">
        <ele>121.5</ele>
        <time>2025-03-30T07:47:34Z</time>
      </trkpt>
      <trkpt lat="43.95328" lon="0.08062">
        <ele>121.5</ele>
        <time>2025-03-30T07:47:36Z</time>
      </trkpt>
      <trkpt lat="43.95329" lon="0.08061">
        <ele>121.5</ele>
        <time>2025-03-30T07:47:38Z</time>
      </trkpt>
      <trkpt lat="43.95331" lon="0.08059">
        <ele>121.4</ele>
        <time>2025-03-30T07:47:39Z</time>
      </trkpt>
      <trkpt lat="43.95332" lon="0.08058">
        <ele>121.4</ele>
        <time>2025-03-30T07:47:40Z</time>
      </trkpt>
      <trkpt lat="43.95333" lon="0.08057">
        <ele>121.4</ele>
        <time>2025-03-30T07:47:41Z</time>
      </trkpt>
      <trkpt lat="43.95334" lon="0.08056">
        <ele>121.4</ele>
        <time>2025-03-30T07:47:42Z</time>
      </trkpt>
      <trkpt lat="43.95336" lon="0.08055">
        <ele>121.4</ele>
        <time>2025-03-30T07:47:43Z</time>
      </trkpt>
      <trkpt lat="43.95337" lon="0.08055">
        <ele>121.4</ele>
        <time>2025-03-30T07:47:44Z</time>
      </trkpt>
      <trkpt lat="43.95338" lon="0.08054">
        <ele>121.4</ele>
        <time>2025-03-30T07:47:45Z</time>
      </trkpt>
      <trkpt lat="43.95339" lon="0.08053">
        <ele>121.4</ele>
        <time>2025-03-30T07:47:46Z</time>
      </trkpt>
      <trkpt lat="43.95341" lon="0.08052">
        <ele>121.3</ele>
        <time>2025-03-30T07:47:47Z</time>
      </trkpt>
      <trkpt lat="43.95342" lon="0.08051">
        <ele>121.3</ele>
        <time>2025-03-30T07:47:48Z</time>
      </trkpt>
      <trkpt lat="43.95343" lon="0.0805">
        <ele>121.3</ele>
        <time>2025-03-30T07:47:49Z</time>
      </trkpt>
      <trkpt lat="43.95344" lon="0.08049">
        <ele>121.3</ele>
        <time>2025-03-30T07:47:50Z</time>
      </trkpt>
      <trkpt lat="43.95346" lon="0.08047">
        <ele>121.3</ele>
        <time>2025-03-30T07:47:51Z</time>
      </trkpt>
      <trkpt lat="43.95347" lon="0.08046">
        <ele>121.3</ele>
        <time>2025-03-30T07:47:53Z</time>
      </trkpt>
      <trkpt lat="43.95349" lon="0.08046">
        <ele>121.2</ele>
        <time>2025-03-30T07:47:55Z</time>
      </trkpt>
      <trkpt lat="43.9535" lon="0.08045">
        <ele>121.2</ele>
        <time>2025-03-30T07:47:56Z</time>
      </trkpt>
      <trkpt lat="43.95352" lon="0.08044">
        <ele>121.2</ele>
        <time>2025-03-30T07:47:58Z</time>
      </trkpt>
      <trkpt lat="43.95353" lon="0.08043">
        <ele>121.2</ele>
        <time>2025-03-30T07:48:00Z</time>
      </trkpt>
      <trkpt lat="43.95354" lon="0.0804">
        <ele>121.1</ele>
        <time>2025-03-30T07:48:01Z</time>
      </trkpt>
      <trkpt lat="43.95355" lon="0.08039">
        <ele>121.1</ele>
        <time>2025-03-30T07:48:03Z</time>
      </trkpt>
      <trkpt lat="43.95357" lon="0.08037">
        <ele>121.1</ele>
        <time>2025-03-30T07:48:04Z</time>
      </trkpt>
      <trkpt lat="43.95359" lon="0.08036">
        <ele>121</ele>
        <time>2025-03-30T07:48:06Z</time>
      </trkpt>
      <trkpt lat="43.95361" lon="0.08034">
        <ele>121</ele>
        <time>2025-03-30T07:48:07Z</time>
      </trkpt>
      <trkpt lat="43.95363" lon="0.08033">
        <ele>120.9</ele>
        <time>2025-03-30T07:48:09Z</time>
      </trkpt>
      <trkpt lat="43.95366" lon="0.08032">
        <ele>120.8</ele>
        <time>2025-03-30T07:48:10Z</time>
      </trkpt>
      <trkpt lat="43.95368" lon="0.08031">
        <ele>120.8</ele>
        <time>2025-03-30T07:48:12Z</time>
      </trkpt>
      <trkpt lat="43.9537" lon="0.0803">
        <ele>120.7</ele>
        <time>2025-03-30T07:48:14Z</time>
      </trkpt>
      <trkpt lat="43.95373" lon="0.08029">
        <ele>120.6</ele>
        <time>2025-03-30T07:48:15Z</time>
      </trkpt>
      <trkpt lat="43.95376" lon="0.08028">
        <ele>120.5</ele>
        <time>2025-03-30T07:48:17Z</time>
      </trkpt>
      <trkpt lat="43.95378" lon="0.08027">
        <ele>120.5</ele>
        <time>2025-03-30T07:48:18Z</time>
      </trkpt>
      <trkpt lat="43.95379" lon="0.08026">
        <ele>120.4</ele>
        <time>2025-03-30T07:48:20Z</time>
      </trkpt>
      <trkpt lat="43.95382" lon="0.08024">
        <ele>120.4</ele>
        <time>2025-03-30T07:48:21Z</time>
      </trkpt>
      <trkpt lat="43.95384" lon="0.08021">
        <ele>120.3</ele>
        <time>2025-03-30T07:48:23Z</time>
      </trkpt>
      <trkpt lat="43.95385" lon="0.0802">
        <ele>120.3</ele>
        <time>2025-03-30T07:48:24Z</time>
      </trkpt>
      <trkpt lat="43.95387" lon="0.08019">
        <ele>120.3</ele>
        <time>2025-03-30T07:48:25Z</time>
      </trkpt>
      <trkpt lat="43.95388" lon="0.08018">
        <ele>120.2</ele>
        <time>2025-03-30T07:48:26Z</time>
      </trkpt>
      <trkpt lat="43.95389" lon="0.08017">
        <ele>120.2</ele>
        <time>2025-03-30T07:48:27Z</time>
      </trkpt>
      <trkpt lat="43.9539" lon="0.08017">
        <ele>120.2</ele>
        <time>2025-03-30T07:48:28Z</time>
      </trkpt>
      <trkpt lat="43.95391" lon="0.08016">
        <ele>120.1</ele>
        <time>2025-03-30T07:48:29Z</time>
      </trkpt>
      <trkpt lat="43.95392" lon="0.08016">
        <ele>120.1</ele>
        <time>2025-03-30T07:48:30Z</time>
      </trkpt>
      <trkpt lat="43.95395" lon="0.08015">
        <ele>120.1</ele>
        <time>2025-03-30T07:48:32Z</time>
      </trkpt>
      <trkpt lat="43.95397" lon="0.08014">
        <ele>120</ele>
        <time>2025-03-30T07:48:34Z</time>
      </trkpt>
      <trkpt lat="43.95398" lon="0.08014">
        <ele>120</ele>
        <time>2025-03-30T07:48:35Z</time>
      </trkpt>
      <trkpt lat="43.95401" lon="0.08012">
        <ele>120</ele>
        <time>2025-03-30T07:48:37Z</time>
      </trkpt>
      <trkpt lat="43.95402" lon="0.08011">
        <ele>119.9</ele>
        <time>2025-03-30T07:48:38Z</time>
      </trkpt>
      <trkpt lat="43.95403" lon="0.0801">
        <ele>119.9</ele>
        <time>2025-03-30T07:48:39Z</time>
      </trkpt>
      <trkpt lat="43.95404" lon="0.0801">
        <ele>119.9</ele>
        <time>2025-03-30T07:48:40Z</time>
      </trkpt>
      <trkpt lat="43.95406" lon="0.08009">
        <ele>119.8</ele>
        <time>2025-03-30T07:48:41Z</time>
      </trkpt>
      <trkpt lat="43.95407" lon="0.08008">
        <ele>119.8</ele>
        <time>2025-03-30T07:48:42Z</time>
      </trkpt>
      <trkpt lat="43.95408" lon="0.08007">
        <ele>119.8</ele>
        <time>2025-03-30T07:48:43Z</time>
      </trkpt>
      <trkpt lat="43.95409" lon="0.08006">
        <ele>119.8</ele>
        <time>2025-03-30T07:48:44Z</time>
      </trkpt>
      <trkpt lat="43.9541" lon="0.08005">
        <ele>119.8</ele>
        <time>2025-03-30T07:48:45Z</time>
      </trkpt>
      <trkpt lat="43.95411" lon="0.08005">
        <ele>119.7</ele>
        <time>2025-03-30T07:48:46Z</time>
      </trkpt>
      <trkpt lat="43.95413" lon="0.08004">
        <ele>119.7</ele>
        <time>2025-03-30T07:48:47Z</time>
      </trkpt>
      <trkpt lat="43.95414" lon="0.08003">
        <ele>119.7</ele>
        <time>2025-03-30T07:48:48Z</time>
      </trkpt>
      <trkpt lat="43.95417" lon="0.08002">
        <ele>119.6</ele>
        <time>2025-03-30T07:48:49Z</time>
      </trkpt>
      <trkpt lat="43.95418" lon="0.08002">
        <ele>119.6</ele>
        <time>2025-03-30T07:48:50Z</time>
      </trkpt>
      <trkpt lat="43.9542" lon="0.08">
        <ele>119.6</ele>
        <time>2025-03-30T07:48:51Z</time>
      </trkpt>
      <trkpt lat="43.95421" lon="0.08">
        <ele>119.6</ele>
        <time>2025-03-30T07:48:52Z</time>
      </trkpt>
      <trkpt lat="43.95423" lon="0.07999">
        <ele>119.5</ele>
        <time>2025-03-30T07:48:53Z</time>
      </trkpt>
      <trkpt lat="43.95425" lon="0.07999">
        <ele>119.5</ele>
        <time>2025-03-30T07:48:54Z</time>
      </trkpt>
      <trkpt lat="43.95426" lon="0.07998">
        <ele>119.5</ele>
        <time>2025-03-30T07:48:55Z</time>
      </trkpt>
      <trkpt lat="43.95427" lon="0.07998">
        <ele>119.5</ele>
        <time>2025-03-30T07:48:56Z</time>
      </trkpt>
      <trkpt lat="43.95428" lon="0.07997">
        <ele>119.4</ele>
        <time>2025-03-30T07:48:57Z</time>
      </trkpt>
      <trkpt lat="43.9543" lon="0.07996">
        <ele>119.4</ele>
        <time>2025-03-30T07:48:58Z</time>
      </trkpt>
      <trkpt lat="43.95432" lon="0.07994">
        <ele>119.4</ele>
        <time>2025-03-30T07:49:00Z</time>
      </trkpt>
      <trkpt lat="43.95434" lon="0.07993">
        <ele>119.4</ele>
        <time>2025-03-30T07:49:02Z</time>
      </trkpt>
      <trkpt lat="43.95437" lon="0.07992">
        <ele>119.3</ele>
        <time>2025-03-30T07:49:03Z</time>
      </trkpt>
      <trkpt lat="43.95438" lon="0.07991">
        <ele>119.3</ele>
        <time>2025-03-30T07:49:04Z</time>
      </trkpt>
      <trkpt lat="43.95439" lon="0.07991">
        <ele>119.3</ele>
        <time>2025-03-30T07:49:05Z</time>
      </trkpt>
      <trkpt lat="43.95441" lon="0.0799">
        <ele>119.2</ele>
        <time>2025-03-30T07:49:06Z</time>
      </trkpt>
      <trkpt lat="43.95444" lon="0.07989">
        <ele>119.2</ele>
        <time>2025-03-30T07:49:08Z</time>
      </trkpt>
      <trkpt lat="43.95445" lon="0.07988">
        <ele>119.2</ele>
        <time>2025-03-30T07:49:09Z</time>
      </trkpt>
      <trkpt lat="43.95447" lon="0.07987">
        <ele>119.1</ele>
        <time>2025-03-30T07:49:10Z</time>
      </trkpt>
      <trkpt lat="43.95448" lon="0.07986">
        <ele>119.1</ele>
        <time>2025-03-30T07:49:11Z</time>
      </trkpt>
      <trkpt lat="43.9545" lon="0.07985">
        <ele>119</ele>
        <time>2025-03-30T07:49:12Z</time>
      </trkpt>
      <trkpt lat="43.9545" lon="0.07984">
        <ele>119</ele>
        <time>2025-03-30T07:49:14Z</time>
      </trkpt>
      <trkpt lat="43.95451" lon="0.07984">
        <ele>119</ele>
        <time>2025-03-30T07:49:15Z</time>
      </trkpt>
      <trkpt lat="43.95451" lon="0.07983">
        <ele>119</ele>
        <time>2025-03-30T07:49:16Z</time>
      </trkpt>
      <trkpt lat="43.95452" lon="0.07983">
        <ele>119</ele>
        <time>2025-03-30T07:49:17Z</time>
      </trkpt>
      <trkpt lat="43.95452" lon="0.07982">
        <ele>119</ele>
        <time>2025-03-30T07:49:18Z</time>
      </trkpt>
      <trkpt lat="43.95453" lon="0.07981">
        <ele>119</ele>
        <time>2025-03-30T07:49:19Z</time>
      </trkpt>
      <trkpt lat="43.95453" lon="0.07981">
        <ele>118.9</ele>
        <time>2025-03-30T07:49:20Z</time>
      </trkpt>
      <trkpt lat="43.95454" lon="0.0798">
        <ele>118.9</ele>
        <time>2025-03-30T07:49:21Z</time>
      </trkpt>
      <trkpt lat="43.95455" lon="0.0798">
        <ele>118.9</ele>
        <time>2025-03-30T07:49:22Z</time>
      </trkpt>
      <trkpt lat="43.95455" lon="0.07979">
        <ele>118.9</ele>
        <time>2025-03-30T07:49:23Z</time>
      </trkpt>
      <trkpt lat="43.95458" lon="0.07977">
        <ele>118.8</ele>
        <time>2025-03-30T07:49:24Z</time>
      </trkpt>
      <trkpt lat="43.95459" lon="0.07977">
        <ele>118.8</ele>
        <time>2025-03-30T07:49:25Z</time>
      </trkpt>
      <trkpt lat="43.9546" lon="0.07977">
        <ele>118.8</ele>
        <time>2025-03-30T07:49:26Z</time>
      </trkpt>
      <trkpt lat="43.95462" lon="0.07977">
        <ele>118.7</ele>
        <time>2025-03-30T07:49:27Z</time>
      </trkpt>
      <trkpt lat="43.95464" lon="0.07976">
        <ele>118.7</ele>
        <time>2025-03-30T07:49:28Z</time>
      </trkpt>
      <trkpt lat="43.95465" lon="0.07975">
        <ele>118.7</ele>
        <time>2025-03-30T07:49:29Z</time>
      </trkpt>
      <trkpt lat="43.95466" lon="0.07975">
        <ele>118.7</ele>
        <time>2025-03-30T07:49:30Z</time>
      </trkpt>
      <trkpt lat="43.95468" lon="0.07974">
        <ele>118.6</ele>
        <time>2025-03-30T07:49:31Z</time>
      </trkpt>
      <trkpt lat="43.95469" lon="0.07974">
        <ele>118.6</ele>
        <time>2025-03-30T07:49:32Z</time>
      </trkpt>
      <trkpt lat="43.9547" lon="0.07973">
        <ele>118.6</ele>
        <time>2025-03-30T07:49:33Z</time>
      </trkpt>
      <trkpt lat="43.95472" lon="0.07972">
        <ele>118.5</ele>
        <time>2025-03-30T07:49:34Z</time>
      </trkpt>
      <trkpt lat="43.95472" lon="0.07971">
        <ele>118.5</ele>
        <time>2025-03-30T07:49:35Z</time>
      </trkpt>
      <trkpt lat="43.95473" lon="0.07971">
        <ele>118.5</ele>
        <time>2025-03-30T07:49:36Z</time>
      </trkpt>
      <trkpt lat="43.95474" lon="0.0797">
        <ele>118.5</ele>
        <time>2025-03-30T07:49:37Z</time>
      </trkpt>
      <trkpt lat="43.95476" lon="0.0797">
        <ele>118.5</ele>
        <time>2025-03-30T07:49:38Z</time>
      </trkpt>
      <trkpt lat="43.95478" lon="0.0797">
        <ele>118.4</ele>
        <time>2025-03-30T07:49:39Z</time>
      </trkpt>
      <trkpt lat="43.95479" lon="0.0797">
        <ele>118.4</ele>
        <time>2025-03-30T07:49:40Z</time>
      </trkpt>
      <trkpt lat="43.9548" lon="0.0797">
        <ele>118.4</ele>
        <time>2025-03-30T07:49:41Z</time>
      </trkpt>
      <trkpt lat="43.95481" lon="0.0797">
        <ele>118.4</ele>
        <time>2025-03-30T07:49:42Z</time>
      </trkpt>
      <trkpt lat="43.95483" lon="0.07971">
        <ele>118.3</ele>
        <time>2025-03-30T07:49:43Z</time>
      </trkpt>
      <trkpt lat="43.95484" lon="0.07972">
        <ele>118.3</ele>
        <time>2025-03-30T07:49:44Z</time>
      </trkpt>
      <trkpt lat="43.95485" lon="0.07973">
        <ele>118.3</ele>
        <time>2025-03-30T07:49:45Z</time>
      </trkpt>
      <trkpt lat="43.95486" lon="0.07973">
        <ele>118.3</ele>
        <time>2025-03-30T07:49:46Z</time>
      </trkpt>
      <trkpt lat="43.95488" lon="0.07973">
        <ele>118.2</ele>
        <time>2025-03-30T07:49:47Z</time>
      </trkpt>
      <trkpt lat="43.95489" lon="0.07973">
        <ele>118.2</ele>
        <time>2025-03-30T07:49:48Z</time>
      </trkpt>
      <trkpt lat="43.9549" lon="0.07973">
        <ele>118.2</ele>
        <time>2025-03-30T07:49:49Z</time>
      </trkpt>
      <trkpt lat="43.95491" lon="0.07972">
        <ele>118.2</ele>
        <time>2025-03-30T07:49:50Z</time>
      </trkpt>
      <trkpt lat="43.95492" lon="0.07972">
        <ele>118.1</ele>
        <time>2025-03-30T07:49:51Z</time>
      </trkpt>
      <trkpt lat="43.95493" lon="0.07971">
        <ele>118.1</ele>
        <time>2025-03-30T07:49:52Z</time>
      </trkpt>
      <trkpt lat="43.95495" lon="0.07971">
        <ele>118</ele>
        <time>2025-03-30T07:49:53Z</time>
      </trkpt>
      <trkpt lat="43.95498" lon="0.07969">
        <ele>117.9</ele>
        <time>2025-03-30T07:49:55Z</time>
      </trkpt>
      <trkpt lat="43.955" lon="0.07968">
        <ele>117.9</ele>
        <time>2025-03-30T07:49:56Z</time>
      </trkpt>
      <trkpt lat="43.95501" lon="0.07967">
        <ele>117.8</ele>
        <time>2025-03-30T07:49:57Z</time>
      </trkpt>
      <trkpt lat="43.95503" lon="0.07966">
        <ele>117.8</ele>
        <time>2025-03-30T07:49:58Z</time>
      </trkpt>
      <trkpt lat="43.95504" lon="0.07965">
        <ele>117.7</ele>
        <time>2025-03-30T07:49:59Z</time>
      </trkpt>
      <trkpt lat="43.95506" lon="0.07965">
        <ele>117.7</ele>
        <time>2025-03-30T07:50:00Z</time>
      </trkpt>
      <trkpt lat="43.95508" lon="0.07964">
        <ele>117.6</ele>
        <time>2025-03-30T07:50:01Z</time>
      </trkpt>
      <trkpt lat="43.95509" lon="0.07964">
        <ele>117.6</ele>
        <time>2025-03-30T07:50:02Z</time>
      </trkpt>
      <trkpt lat="43.95509" lon="0.07963">
        <ele>117.6</ele>
        <time>2025-03-30T07:50:03Z</time>
      </trkpt>
      <trkpt lat="43.95511" lon="0.07963">
        <ele>117.6</ele>
        <time>2025-03-30T07:50:04Z</time>
      </trkpt>
      <trkpt lat="43.95512" lon="0.07962">
        <ele>117.5</ele>
        <time>2025-03-30T07:50:05Z</time>
      </trkpt>
      <trkpt lat="43.95513" lon="0.07962">
        <ele>117.5</ele>
        <time>2025-03-30T07:50:06Z</time>
      </trkpt>
      <trkpt lat="43.95515" lon="0.07961">
        <ele>117.5</ele>
        <time>2025-03-30T07:50:07Z</time>
      </trkpt>
      <trkpt lat="43.95516" lon="0.0796">
        <ele>117.4</ele>
        <time>2025-03-30T07:50:08Z</time>
      </trkpt>
      <trkpt lat="43.95517" lon="0.07959">
        <ele>117.4</ele>
        <time>2025-03-30T07:50:09Z</time>
      </trkpt>
      <trkpt lat="43.95519" lon="0.07959">
        <ele>117.4</ele>
        <time>2025-03-30T07:50:10Z</time>
      </trkpt>
      <trkpt lat="43.9552" lon="0.07958">
        <ele>117.3</ele>
        <time>2025-03-30T07:50:11Z</time>
      </trkpt>
      <trkpt lat="43.95521" lon="0.07958">
        <ele>117.3</ele>
        <time>2025-03-30T07:50:12Z</time>
      </trkpt>
      <trkpt lat="43.95523" lon="0.07957">
        <ele>117.3</ele>
        <time>2025-03-30T07:50:13Z</time>
      </trkpt>
      <trkpt lat="43.95524" lon="0.07957">
        <ele>117.2</ele>
        <time>2025-03-30T07:50:14Z</time>
      </trkpt>
      <trkpt lat="43.95525" lon="0.07956">
        <ele>117.2</ele>
        <time>2025-03-30T07:50:15Z</time>
      </trkpt>
      <trkpt lat="43.95526" lon="0.07955">
        <ele>117.2</ele>
        <time>2025-03-30T07:50:16Z</time>
      </trkpt>
      <trkpt lat="43.95528" lon="0.07954">
        <ele>117.2</ele>
        <time>2025-03-30T07:50:17Z</time>
      </trkpt>
      <trkpt lat="43.95529" lon="0.07954">
        <ele>117.1</ele>
        <time>2025-03-30T07:50:18Z</time>
      </trkpt>
      <trkpt lat="43.95531" lon="0.07952">
        <ele>117.1</ele>
        <time>2025-03-30T07:50:19Z</time>
      </trkpt>
      <trkpt lat="43.95532" lon="0.07952">
        <ele>117.1</ele>
        <time>2025-03-30T07:50:20Z</time>
      </trkpt>
      <trkpt lat="43.95533" lon="0.0795">
        <ele>117.1</ele>
        <time>2025-03-30T07:50:21Z</time>
      </trkpt>
      <trkpt lat="43.95534" lon="0.07949">
        <ele>117</ele>
        <time>2025-03-30T07:50:22Z</time>
      </trkpt>
      <trkpt lat="43.95535" lon="0.07948">
        <ele>117</ele>
        <time>2025-03-30T07:50:23Z</time>
      </trkpt>
      <trkpt lat="43.95537" lon="0.07947">
        <ele>117</ele>
        <time>2025-03-30T07:50:24Z</time>
      </trkpt>
      <trkpt lat="43.95538" lon="0.07946">
        <ele>116.9</ele>
        <time>2025-03-30T07:50:25Z</time>
      </trkpt>
      <trkpt lat="43.9554" lon="0.07945">
        <ele>116.9</ele>
        <time>2025-03-30T07:50:26Z</time>
      </trkpt>
      <trkpt lat="43.95541" lon="0.07945">
        <ele>116.9</ele>
        <time>2025-03-30T07:50:27Z</time>
      </trkpt>
      <trkpt lat="43.95542" lon="0.07945">
        <ele>116.9</ele>
        <time>2025-03-30T07:50:28Z</time>
      </trkpt>
      <trkpt lat="43.95544" lon="0.07944">
        <ele>116.8</ele>
        <time>2025-03-30T07:50:29Z</time>
      </trkpt>
      <trkpt lat="43.95545" lon="0.07943">
        <ele>116.8</ele>
        <time>2025-03-30T07:50:30Z</time>
      </trkpt>
      <trkpt lat="43.95546" lon="0.07943">
        <ele>116.8</ele>
        <time>2025-03-30T07:50:31Z</time>
      </trkpt>
      <trkpt lat="43.95547" lon="0.07943">
        <ele>116.8</ele>
        <time>2025-03-30T07:50:32Z</time>
      </trkpt>
      <trkpt lat="43.95549" lon="0.07942">
        <ele>116.8</ele>
        <time>2025-03-30T07:50:33Z</time>
      </trkpt>
      <trkpt lat="43.9555" lon="0.07941">
        <ele>116.7</ele>
        <time>2025-03-30T07:50:34Z</time>
      </trkpt>
      <trkpt lat="43.95551" lon="0.0794">
        <ele>116.7</ele>
        <time>2025-03-30T07:50:35Z</time>
      </trkpt>
      <trkpt lat="43.95552" lon="0.0794">
        <ele>116.7</ele>
        <time>2025-03-30T07:50:36Z</time>
      </trkpt>
      <trkpt lat="43.95554" lon="0.07939">
        <ele>116.7</ele>
        <time>2025-03-30T07:50:37Z</time>
      </trkpt>
      <trkpt lat="43.95555" lon="0.07938">
        <ele>116.7</ele>
        <time>2025-03-30T07:50:38Z</time>
      </trkpt>
      <trkpt lat="43.95557" lon="0.07937">
        <ele>116.6</ele>
        <time>2025-03-30T07:50:39Z</time>
      </trkpt>
      <trkpt lat="43.95558" lon="0.07936">
        <ele>116.6</ele>
        <time>2025-03-30T07:50:40Z</time>
      </trkpt>
      <trkpt lat="43.9556" lon="0.07935">
        <ele>116.6</ele>
        <time>2025-03-30T07:50:41Z</time>
      </trkpt>
      <trkpt lat="43.95562" lon="0.07934">
        <ele>116.5</ele>
        <time>2025-03-30T07:50:42Z</time>
      </trkpt>
      <trkpt lat="43.95563" lon="0.07934">
        <ele>116.5</ele>
        <time>2025-03-30T07:50:43Z</time>
      </trkpt>
      <trkpt lat="43.95565" lon="0.07933">
        <ele>116.5</ele>
        <time>2025-03-30T07:50:44Z</time>
      </trkpt>
      <trkpt lat="43.95567" lon="0.07931">
        <ele>116.4</ele>
        <time>2025-03-30T07:50:45Z</time>
      </trkpt>
      <trkpt lat="43.95568" lon="0.0793">
        <ele>116.4</ele>
        <time>2025-03-30T07:50:46Z</time>
      </trkpt>
      <trkpt lat="43.9557" lon="0.07929">
        <ele>116.4</ele>
        <time>2025-03-30T07:50:47Z</time>
      </trkpt>
      <trkpt lat="43.95571" lon="0.07928">
        <ele>116.3</ele>
        <time>2025-03-30T07:50:48Z</time>
      </trkpt>
      <trkpt lat="43.95572" lon="0.07926">
        <ele>116.3</ele>
        <time>2025-03-30T07:50:49Z</time>
      </trkpt>
      <trkpt lat="43.95573" lon="0.07925">
        <ele>116.3</ele>
        <time>2025-03-30T07:50:50Z</time>
      </trkpt>
      <trkpt lat="43.95575" lon="0.07925">
        <ele>116.2</ele>
        <time>2025-03-30T07:50:51Z</time>
      </trkpt>
      <trkpt lat="43.95576" lon="0.07924">
        <ele>116.2</ele>
        <time>2025-03-30T07:50:52Z</time>
      </trkpt>
      <trkpt lat="43.95577" lon="0.07923">
        <ele>116.2</ele>
        <time>2025-03-30T07:50:53Z</time>
      </trkpt>
      <trkpt lat="43.95579" lon="0.07923">
        <ele>116.1</ele>
        <time>2025-03-30T07:50:54Z</time>
      </trkpt>
      <trkpt lat="43.95582" lon="0.07921">
        <ele>116.1</ele>
        <time>2025-03-30T07:50:56Z</time>
      </trkpt>
      <trkpt lat="43.95583" lon="0.07921">
        <ele>116</ele>
        <time>2025-03-30T07:50:57Z</time>
      </trkpt>
      <trkpt lat="43.95584" lon="0.07919">
        <ele>116</ele>
        <time>2025-03-30T07:50:58Z</time>
      </trkpt>
      <trkpt lat="43.95586" lon="0.07919">
        <ele>115.9</ele>
        <time>2025-03-30T07:50:59Z</time>
      </trkpt>
      <trkpt lat="43.95587" lon="0.07918">
        <ele>115.9</ele>
        <time>2025-03-30T07:51:00Z</time>
      </trkpt>
      <trkpt lat="43.95589" lon="0.07917">
        <ele>115.9</ele>
        <time>2025-03-30T07:51:01Z</time>
      </trkpt>
      <trkpt lat="43.9559" lon="0.07917">
        <ele>115.9</ele>
        <time>2025-03-30T07:51:02Z</time>
      </trkpt>
      <trkpt lat="43.95591" lon="0.07917">
        <ele>115.8</ele>
        <time>2025-03-30T07:51:03Z</time>
      </trkpt>
      <trkpt lat="43.95593" lon="0.07916">
        <ele>115.8</ele>
        <time>2025-03-30T07:51:04Z</time>
      </trkpt>
      <trkpt lat="43.95594" lon="0.07916">
        <ele>115.8</ele>
        <time>2025-03-30T07:51:05Z</time>
      </trkpt>
      <trkpt lat="43.95596" lon="0.07915">
        <ele>115.8</ele>
        <time>2025-03-30T07:51:06Z</time>
      </trkpt>
      <trkpt lat="43.95598" lon="0.07913">
        <ele>115.7</ele>
        <time>2025-03-30T07:51:07Z</time>
      </trkpt>
      <trkpt lat="43.95599" lon="0.07912">
        <ele>115.7</ele>
        <time>2025-03-30T07:51:09Z</time>
      </trkpt>
      <trkpt lat="43.956" lon="0.07911">
        <ele>115.7</ele>
        <time>2025-03-30T07:51:10Z</time>
      </trkpt>
      <trkpt lat="43.95601" lon="0.07909">
        <ele>115.6</ele>
        <time>2025-03-30T07:51:11Z</time>
      </trkpt>
      <trkpt lat="43.95603" lon="0.07907">
        <ele>115.6</ele>
        <time>2025-03-30T07:51:12Z</time>
      </trkpt>
      <trkpt lat="43.95603" lon="0.07906">
        <ele>115.6</ele>
        <time>2025-03-30T07:51:13Z</time>
      </trkpt>
      <trkpt lat="43.95604" lon="0.07905">
        <ele>115.6</ele>
        <time>2025-03-30T07:51:14Z</time>
      </trkpt>
      <trkpt lat="43.95605" lon="0.07904">
        <ele>115.5</ele>
        <time>2025-03-30T07:51:15Z</time>
      </trkpt>
      <trkpt lat="43.95606" lon="0.07902">
        <ele>115.5</ele>
        <time>2025-03-30T07:51:16Z</time>
      </trkpt>
      <trkpt lat="43.95607" lon="0.079">
        <ele>115.4</ele>
        <time>2025-03-30T07:51:17Z</time>
      </trkpt>
      <trkpt lat="43.95608" lon="0.07899">
        <ele>115.4</ele>
        <time>2025-03-30T07:51:18Z</time>
      </trkpt>
      <trkpt lat="43.95608" lon="0.07898">
        <ele>115.4</ele>
        <time>2025-03-30T07:51:19Z</time>
      </trkpt>
      <trkpt lat="43.95609" lon="0.07898">
        <ele>115.4</ele>
        <time>2025-03-30T07:51:20Z</time>
      </trkpt>
      <trkpt lat="43.9561" lon="0.07897">
        <ele>115.3</ele>
        <time>2025-03-30T07:51:21Z</time>
      </trkpt>
      <trkpt lat="43.95611" lon="0.07896">
        <ele>115.3</ele>
        <time>2025-03-30T07:51:22Z</time>
      </trkpt>
      <trkpt lat="43.95613" lon="0.07894">
        <ele>115.2</ele>
        <time>2025-03-30T07:51:24Z</time>
      </trkpt>
      <trkpt lat="43.95614" lon="0.07892">
        <ele>115.2</ele>
        <time>2025-03-30T07:51:26Z</time>
      </trkpt>
      <trkpt lat="43.95615" lon="0.07891">
        <ele>115.2</ele>
        <time>2025-03-30T07:51:27Z</time>
      </trkpt>
      <trkpt lat="43.95617" lon="0.07889">
        <ele>115.1</ele>
        <time>2025-03-30T07:51:29Z</time>
      </trkpt>
      <trkpt lat="43.95619" lon="0.07887">
        <ele>115.1</ele>
        <time>2025-03-30T07:51:30Z</time>
      </trkpt>
      <trkpt lat="43.9562" lon="0.07885">
        <ele>115</ele>
        <time>2025-03-30T07:51:31Z</time>
      </trkpt>
      <trkpt lat="43.95622" lon="0.07882">
        <ele>115</ele>
        <time>2025-03-30T07:51:33Z</time>
      </trkpt>
      <trkpt lat="43.95624" lon="0.07881">
        <ele>115</ele>
        <time>2025-03-30T07:51:34Z</time>
      </trkpt>
      <trkpt lat="43.95625" lon="0.07879">
        <ele>115</ele>
        <time>2025-03-30T07:51:35Z</time>
      </trkpt>
      <trkpt lat="43.95626" lon="0.07878">
        <ele>114.9</ele>
        <time>2025-03-30T07:51:36Z</time>
      </trkpt>
      <trkpt lat="43.95627" lon="0.07877">
        <ele>114.9</ele>
        <time>2025-03-30T07:51:38Z</time>
      </trkpt>
      <trkpt lat="43.9563" lon="0.07874">
        <ele>114.9</ele>
        <time>2025-03-30T07:51:39Z</time>
      </trkpt>
      <trkpt lat="43.95631" lon="0.07873">
        <ele>114.8</ele>
        <time>2025-03-30T07:51:40Z</time>
      </trkpt>
      <trkpt lat="43.95633" lon="0.0787">
        <ele>114.8</ele>
        <time>2025-03-30T07:51:41Z</time>
      </trkpt>
      <trkpt lat="43.95633" lon="0.07869">
        <ele>114.8</ele>
        <time>2025-03-30T07:51:42Z</time>
      </trkpt>
      <trkpt lat="43.95634" lon="0.07869">
        <ele>114.8</ele>
        <time>2025-03-30T07:51:43Z</time>
      </trkpt>
      <trkpt lat="43.95635" lon="0.07866">
        <ele>114.7</ele>
        <time>2025-03-30T07:51:44Z</time>
      </trkpt>
      <trkpt lat="43.95636" lon="0.07866">
        <ele>114.7</ele>
        <time>2025-03-30T07:51:45Z</time>
      </trkpt>
      <trkpt lat="43.95637" lon="0.07864">
        <ele>114.7</ele>
        <time>2025-03-30T07:51:46Z</time>
      </trkpt>
      <trkpt lat="43.95638" lon="0.07862">
        <ele>114.6</ele>
        <time>2025-03-30T07:51:47Z</time>
      </trkpt>
      <trkpt lat="43.95639" lon="0.07861">
        <ele>114.6</ele>
        <time>2025-03-30T07:51:48Z</time>
      </trkpt>
      <trkpt lat="43.9564" lon="0.0786">
        <ele>114.6</ele>
        <time>2025-03-30T07:51:50Z</time>
      </trkpt>
      <trkpt lat="43.95641" lon="0.0786">
        <ele>114.6</ele>
        <time>2025-03-30T07:51:51Z</time>
      </trkpt>
      <trkpt lat="43.95642" lon="0.07859">
        <ele>114.5</ele>
        <time>2025-03-30T07:51:52Z</time>
      </trkpt>
      <trkpt lat="43.95645" lon="0.07858">
        <ele>114.5</ele>
        <time>2025-03-30T07:51:53Z</time>
      </trkpt>
      <trkpt lat="43.95647" lon="0.07856">
        <ele>114.4</ele>
        <time>2025-03-30T07:51:54Z</time>
      </trkpt>
      <trkpt lat="43.95648" lon="0.07856">
        <ele>114.4</ele>
        <time>2025-03-30T07:51:55Z</time>
      </trkpt>
      <trkpt lat="43.95649" lon="0.07855">
        <ele>114.4</ele>
        <time>2025-03-30T07:51:56Z</time>
      </trkpt>
      <trkpt lat="43.9565" lon="0.07853">
        <ele>114.3</ele>
        <time>2025-03-30T07:51:57Z</time>
      </trkpt>
      <trkpt lat="43.95651" lon="0.07852">
        <ele>114.3</ele>
        <time>2025-03-30T07:51:58Z</time>
      </trkpt>
      <trkpt lat="43.95652" lon="0.07851">
        <ele>114.3</ele>
        <time>2025-03-30T07:51:59Z</time>
      </trkpt>
      <trkpt lat="43.95654" lon="0.07849">
        <ele>114.2</ele>
        <time>2025-03-30T07:52:01Z</time>
      </trkpt>
      <trkpt lat="43.95655" lon="0.07847">
        <ele>114.2</ele>
        <time>2025-03-30T07:52:03Z</time>
      </trkpt>
      <trkpt lat="43.95657" lon="0.07845">
        <ele>114.1</ele>
        <time>2025-03-30T07:52:04Z</time>
      </trkpt>
      <trkpt lat="43.95659" lon="0.07844">
        <ele>114.1</ele>
        <time>2025-03-30T07:52:06Z</time>
      </trkpt>
      <trkpt lat="43.95661" lon="0.07842">
        <ele>114</ele>
        <time>2025-03-30T07:52:07Z</time>
      </trkpt>
      <trkpt lat="43.95664" lon="0.0784">
        <ele>114</ele>
        <time>2025-03-30T07:52:09Z</time>
      </trkpt>
      <trkpt lat="43.95665" lon="0.07839">
        <ele>113.9</ele>
        <time>2025-03-30T07:52:10Z</time>
      </trkpt>
      <trkpt lat="43.95667" lon="0.07837">
        <ele>113.9</ele>
        <time>2025-03-30T07:52:12Z</time>
      </trkpt>
      <trkpt lat="43.95669" lon="0.07837">
        <ele>113.8</ele>
        <time>2025-03-30T07:52:14Z</time>
      </trkpt>
      <trkpt lat="43.95671" lon="0.07835">
        <ele>113.7</ele>
        <time>2025-03-30T07:52:15Z</time>
      </trkpt>
      <trkpt lat="43.95672" lon="0.07834">
        <ele>113.7</ele>
        <time>2025-03-30T07:52:16Z</time>
      </trkpt>
      <trkpt lat="43.95673" lon="0.07833">
        <ele>113.6</ele>
        <time>2025-03-30T07:52:17Z</time>
      </trkpt>
      <trkpt lat="43.95674" lon="0.07832">
        <ele>113.6</ele>
        <time>2025-03-30T07:52:18Z</time>
      </trkpt>
      <trkpt lat="43.95675" lon="0.07831">
        <ele>113.5</ele>
        <time>2025-03-30T07:52:19Z</time>
      </trkpt>
      <trkpt lat="43.95675" lon="0.0783">
        <ele>113.5</ele>
        <time>2025-03-30T07:52:20Z</time>
      </trkpt>
      <trkpt lat="43.95676" lon="0.07828">
        <ele>113.5</ele>
        <time>2025-03-30T07:52:21Z</time>
      </trkpt>
      <trkpt lat="43.95677" lon="0.07827">
        <ele>113.4</ele>
        <time>2025-03-30T07:52:22Z</time>
      </trkpt>
      <trkpt lat="43.95678" lon="0.07828">
        <ele>113.4</ele>
        <time>2025-03-30T07:52:23Z</time>
      </trkpt>
      <trkpt lat="43.95677" lon="0.07829">
        <ele>113.4</ele>
        <time>2025-03-30T07:52:24Z</time>
      </trkpt>
      <trkpt lat="43.95678" lon="0.07829">
        <ele>113.3</ele>
        <time>2025-03-30T07:52:26Z</time>
      </trkpt>
      <trkpt lat="43.95678" lon="0.07828">
        <ele>113.3</ele>
        <time>2025-03-30T07:52:28Z</time>
      </trkpt>
      <trkpt lat="43.9568" lon="0.07826">
        <ele>113.3</ele>
        <time>2025-03-30T07:52:29Z</time>
      </trkpt>
      <trkpt lat="43.95681" lon="0.07825">
        <ele>113.2</ele>
        <time>2025-03-30T07:52:31Z</time>
      </trkpt>
      <trkpt lat="43.95683" lon="0.07823">
        <ele>113.2</ele>
        <time>2025-03-30T07:52:32Z</time>
      </trkpt>
      <trkpt lat="43.95684" lon="0.07822">
        <ele>113.1</ele>
        <time>2025-03-30T07:52:34Z</time>
      </trkpt>
      <trkpt lat="43.95688" lon="0.07819">
        <ele>113</ele>
        <time>2025-03-30T07:52:35Z</time>
      </trkpt>
      <trkpt lat="43.95689" lon="0.07818">
        <ele>113</ele>
        <time>2025-03-30T07:52:37Z</time>
      </trkpt>
      <trkpt lat="43.95691" lon="0.07818">
        <ele>113</ele>
        <time>2025-03-30T07:52:39Z</time>
      </trkpt>
      <trkpt lat="43.95692" lon="0.07817">
        <ele>113</ele>
        <time>2025-03-30T07:52:40Z</time>
      </trkpt>
      <trkpt lat="43.95693" lon="0.07816">
        <ele>112.9</ele>
        <time>2025-03-30T07:52:41Z</time>
      </trkpt>
      <trkpt lat="43.95696" lon="0.07815">
        <ele>112.9</ele>
        <time>2025-03-30T07:52:43Z</time>
      </trkpt>
      <trkpt lat="43.95697" lon="0.07814">
        <ele>112.9</ele>
        <time>2025-03-30T07:52:45Z</time>
      </trkpt>
      <trkpt lat="43.95698" lon="0.07813">
        <ele>112.8</ele>
        <time>2025-03-30T07:52:46Z</time>
      </trkpt>
      <trkpt lat="43.957" lon="0.07812">
        <ele>112.8</ele>
        <time>2025-03-30T07:52:47Z</time>
      </trkpt>
      <trkpt lat="43.95701" lon="0.07812">
        <ele>112.7</ele>
        <time>2025-03-30T07:52:48Z</time>
      </trkpt>
      <trkpt lat="43.95704" lon="0.07811">
        <ele>112.7</ele>
        <time>2025-03-30T07:52:49Z</time>
      </trkpt>
      <trkpt lat="43.95704" lon="0.0781">
        <ele>112.7</ele>
        <time>2025-03-30T07:52:50Z</time>
      </trkpt>
      <trkpt lat="43.95705" lon="0.0781">
        <ele>112.7</ele>
        <time>2025-03-30T07:52:51Z</time>
      </trkpt>
      <trkpt lat="43.95707" lon="0.07809">
        <ele>112.6</ele>
        <time>2025-03-30T07:52:52Z</time>
      </trkpt>
      <trkpt lat="43.95708" lon="0.07808">
        <ele>112.6</ele>
        <time>2025-03-30T07:52:53Z</time>
      </trkpt>
      <trkpt lat="43.95709" lon="0.07807">
        <ele>112.6</ele>
        <time>2025-03-30T07:52:54Z</time>
      </trkpt>
      <trkpt lat="43.95711" lon="0.07805">
        <ele>112.5</ele>
        <time>2025-03-30T07:52:56Z</time>
      </trkpt>
      <trkpt lat="43.95713" lon="0.07802">
        <ele>112.4</ele>
        <time>2025-03-30T07:52:57Z</time>
      </trkpt>
      <trkpt lat="43.95713" lon="0.07801">
        <ele>112.4</ele>
        <time>2025-03-30T07:52:59Z</time>
      </trkpt>
      <trkpt lat="43.95714" lon="0.07799">
        <ele>112.4</ele>
        <time>2025-03-30T07:53:00Z</time>
      </trkpt>
      <trkpt lat="43.95717" lon="0.07797">
        <ele>112.3</ele>
        <time>2025-03-30T07:53:02Z</time>
      </trkpt>
      <trkpt lat="43.95719" lon="0.07796">
        <ele>112.3</ele>
        <time>2025-03-30T07:53:04Z</time>
      </trkpt>
      <trkpt lat="43.95721" lon="0.07794">
        <ele>112.2</ele>
        <time>2025-03-30T07:53:05Z</time>
      </trkpt>
      <trkpt lat="43.95724" lon="0.07792">
        <ele>112.2</ele>
        <time>2025-03-30T07:53:06Z</time>
      </trkpt>
      <trkpt lat="43.95726" lon="0.07791">
        <ele>112.1</ele>
        <time>2025-03-30T07:53:08Z</time>
      </trkpt>
      <trkpt lat="43.95727" lon="0.07791">
        <ele>112.1</ele>
        <time>2025-03-30T07:53:10Z</time>
      </trkpt>
      <trkpt lat="43.95729" lon="0.0779">
        <ele>112</ele>
        <time>2025-03-30T07:53:11Z</time>
      </trkpt>
      <trkpt lat="43.9573" lon="0.07789">
        <ele>112</ele>
        <time>2025-03-30T07:53:12Z</time>
      </trkpt>
      <trkpt lat="43.95731" lon="0.07788">
        <ele>111.9</ele>
        <time>2025-03-30T07:53:13Z</time>
      </trkpt>
      <trkpt lat="43.95733" lon="0.07787">
        <ele>111.9</ele>
        <time>2025-03-30T07:53:14Z</time>
      </trkpt>
      <trkpt lat="43.95735" lon="0.07787">
        <ele>111.8</ele>
        <time>2025-03-30T07:53:15Z</time>
      </trkpt>
      <trkpt lat="43.95736" lon="0.07787">
        <ele>111.8</ele>
        <time>2025-03-30T07:53:16Z</time>
      </trkpt>
      <trkpt lat="43.95737" lon="0.07787">
        <ele>111.8</ele>
        <time>2025-03-30T07:53:17Z</time>
      </trkpt>
      <trkpt lat="43.95739" lon="0.07786">
        <ele>111.7</ele>
        <time>2025-03-30T07:53:18Z</time>
      </trkpt>
      <trkpt lat="43.9574" lon="0.07786">
        <ele>111.7</ele>
        <time>2025-03-30T07:53:19Z</time>
      </trkpt>
      <trkpt lat="43.95741" lon="0.07786">
        <ele>111.7</ele>
        <time>2025-03-30T07:53:20Z</time>
      </trkpt>
      <trkpt lat="43.95743" lon="0.07785">
        <ele>111.6</ele>
        <time>2025-03-30T07:53:21Z</time>
      </trkpt>
      <trkpt lat="43.95744" lon="0.07784">
        <ele>111.6</ele>
        <time>2025-03-30T07:53:22Z</time>
      </trkpt>
      <trkpt lat="43.95745" lon="0.07784">
        <ele>111.6</ele>
        <time>2025-03-30T07:53:23Z</time>
      </trkpt>
      <trkpt lat="43.95746" lon="0.07783">
        <ele>111.6</ele>
        <time>2025-03-30T07:53:24Z</time>
      </trkpt>
      <trkpt lat="43.95748" lon="0.07781">
        <ele>111.6</ele>
        <time>2025-03-30T07:53:25Z</time>
      </trkpt>
      <trkpt lat="43.95749" lon="0.0778">
        <ele>111.5</ele>
        <time>2025-03-30T07:53:26Z</time>
      </trkpt>
      <trkpt lat="43.9575" lon="0.07779">
        <ele>111.5</ele>
        <time>2025-03-30T07:53:27Z</time>
      </trkpt>
      <trkpt lat="43.95751" lon="0.07778">
        <ele>111.5</ele>
        <time>2025-03-30T07:53:28Z</time>
      </trkpt>
      <trkpt lat="43.95753" lon="0.07776">
        <ele>111.4</ele>
        <time>2025-03-30T07:53:30Z</time>
      </trkpt>
      <trkpt lat="43.95755" lon="0.07775">
        <ele>111.4</ele>
        <time>2025-03-30T07:53:32Z</time>
      </trkpt>
      <trkpt lat="43.95757" lon="0.07774">
        <ele>111.4</ele>
        <time>2025-03-30T07:53:33Z</time>
      </trkpt>
      <trkpt lat="43.95758" lon="0.07774">
        <ele>111.4</ele>
        <time>2025-03-30T07:53:34Z</time>
      </trkpt>
      <trkpt lat="43.9576" lon="0.07773">
        <ele>111.3</ele>
        <time>2025-03-30T07:53:36Z</time>
      </trkpt>
      <trkpt lat="43.95762" lon="0.07772">
        <ele>111.3</ele>
        <time>2025-03-30T07:53:37Z</time>
      </trkpt>
      <trkpt lat="43.95764" lon="0.07772">
        <ele>111.3</ele>
        <time>2025-03-30T07:53:39Z</time>
      </trkpt>
      <trkpt lat="43.95765" lon="0.07771">
        <ele>111.3</ele>
        <time>2025-03-30T07:53:40Z</time>
      </trkpt>
      <trkpt lat="43.95766" lon="0.0777">
        <ele>111.2</ele>
        <time>2025-03-30T07:53:41Z</time>
      </trkpt>
      <trkpt lat="43.95768" lon="0.0777">
        <ele>111.2</ele>
        <time>2025-03-30T07:53:42Z</time>
      </trkpt>
      <trkpt lat="43.95771" lon="0.07769">
        <ele>111.2</ele>
        <time>2025-03-30T07:53:44Z</time>
      </trkpt>
      <trkpt lat="43.95772" lon="0.07768">
        <ele>111.2</ele>
        <time>2025-03-30T07:53:45Z</time>
      </trkpt>
      <trkpt lat="43.95776" lon="0.07767">
        <ele>111.1</ele>
        <time>2025-03-30T07:53:47Z</time>
      </trkpt>
      <trkpt lat="43.95776" lon="0.07767">
        <ele>111.1</ele>
        <time>2025-03-30T07:53:48Z</time>
      </trkpt>
      <trkpt lat="43.9578" lon="0.07766">
        <ele>111.1</ele>
        <time>2025-03-30T07:53:50Z</time>
      </trkpt>
      <trkpt lat="43.9578" lon="0.07766">
        <ele>111</ele>
        <time>2025-03-30T07:53:51Z</time>
      </trkpt>
      <trkpt lat="43.95782" lon="0.07765">
        <ele>111</ele>
        <time>2025-03-30T07:53:52Z</time>
      </trkpt>
      <trkpt lat="43.95783" lon="0.07764">
        <ele>111</ele>
        <time>2025-03-30T07:53:53Z</time>
      </trkpt>
      <trkpt lat="43.95784" lon="0.07764">
        <ele>111</ele>
        <time>2025-03-30T07:53:54Z</time>
      </trkpt>
      <trkpt lat="43.95786" lon="0.07763">
        <ele>110.9</ele>
        <time>2025-03-30T07:53:55Z</time>
      </trkpt>
      <trkpt lat="43.95788" lon="0.07762">
        <ele>110.9</ele>
        <time>2025-03-30T07:53:57Z</time>
      </trkpt>
      <trkpt lat="43.95789" lon="0.07761">
        <ele>110.9</ele>
        <time>2025-03-30T07:53:58Z</time>
      </trkpt>
      <trkpt lat="43.9579" lon="0.07761">
        <ele>110.9</ele>
        <time>2025-03-30T07:53:59Z</time>
      </trkpt>
      <trkpt lat="43.95791" lon="0.0776">
        <ele>110.8</ele>
        <time>2025-03-30T07:54:00Z</time>
      </trkpt>
      <trkpt lat="43.95792" lon="0.0776">
        <ele>110.8</ele>
        <time>2025-03-30T07:54:01Z</time>
      </trkpt>
      <trkpt lat="43.95793" lon="0.0776">
        <ele>110.8</ele>
        <time>2025-03-30T07:54:02Z</time>
      </trkpt>
      <trkpt lat="43.95796" lon="0.07758">
        <ele>110.8</ele>
        <time>2025-03-30T07:54:04Z</time>
      </trkpt>
      <trkpt lat="43.95797" lon="0.07757">
        <ele>110.7</ele>
        <time>2025-03-30T07:54:05Z</time>
      </trkpt>
      <trkpt lat="43.95798" lon="0.07756">
        <ele>110.7</ele>
        <time>2025-03-30T07:54:06Z</time>
      </trkpt>
      <trkpt lat="43.958" lon="0.07754">
        <ele>110.7</ele>
        <time>2025-03-30T07:54:07Z</time>
      </trkpt>
      <trkpt lat="43.95801" lon="0.07754">
        <ele>110.7</ele>
        <time>2025-03-30T07:54:09Z</time>
      </trkpt>
      <trkpt lat="43.95803" lon="0.07754">
        <ele>110.6</ele>
        <time>2025-03-30T07:54:10Z</time>
      </trkpt>
      <trkpt lat="43.95804" lon="0.07753">
        <ele>110.6</ele>
        <time>2025-03-30T07:54:12Z</time>
      </trkpt>
      <trkpt lat="43.95805" lon="0.07753">
        <ele>110.6</ele>
        <time>2025-03-30T07:54:14Z</time>
      </trkpt>
      <trkpt lat="43.95807" lon="0.07753">
        <ele>110.6</ele>
        <time>2025-03-30T07:54:15Z</time>
      </trkpt>
      <trkpt lat="43.95808" lon="0.07752">
        <ele>110.6</ele>
        <time>2025-03-30T07:54:16Z</time>
      </trkpt>
      <trkpt lat="43.9581" lon="0.07752">
        <ele>110.6</ele>
        <time>2025-03-30T07:54:17Z</time>
      </trkpt>
      <trkpt lat="43.95811" lon="0.07753">
        <ele>110.5</ele>
        <time>2025-03-30T07:54:18Z</time>
      </trkpt>
      <trkpt lat="43.95813" lon="0.07753">
        <ele>110.5</ele>
        <time>2025-03-30T07:54:19Z</time>
      </trkpt>
      <trkpt lat="43.95815" lon="0.07752">
        <ele>110.5</ele>
        <time>2025-03-30T07:54:21Z</time>
      </trkpt>
      <trkpt lat="43.95818" lon="0.07752">
        <ele>110.4</ele>
        <time>2025-03-30T07:54:22Z</time>
      </trkpt>
      <trkpt lat="43.95819" lon="0.07752">
        <ele>110.4</ele>
        <time>2025-03-30T07:54:24Z</time>
      </trkpt>
      <trkpt lat="43.9582" lon="0.07753">
        <ele>110.4</ele>
        <time>2025-03-30T07:54:25Z</time>
      </trkpt>
      <trkpt lat="43.95822" lon="0.07753">
        <ele>110.4</ele>
        <time>2025-03-30T07:54:26Z</time>
      </trkpt>
      <trkpt lat="43.95823" lon="0.07753">
        <ele>110.4</ele>
        <time>2025-03-30T07:54:27Z</time>
      </trkpt>
      <trkpt lat="43.95824" lon="0.07753">
        <ele>110.3</ele>
        <time>2025-03-30T07:54:28Z</time>
      </trkpt>
      <trkpt lat="43.95827" lon="0.07755">
        <ele>110.3</ele>
        <time>2025-03-30T07:54:29Z</time>
      </trkpt>
      <trkpt lat="43.95828" lon="0.07755">
        <ele>110.2</ele>
        <time>2025-03-30T07:54:30Z</time>
      </trkpt>
      <trkpt lat="43.95831" lon="0.07757">
        <ele>110.2</ele>
        <time>2025-03-30T07:54:32Z</time>
      </trkpt>
      <trkpt lat="43.95832" lon="0.07758">
        <ele>110.1</ele>
        <time>2025-03-30T07:54:33Z</time>
      </trkpt>
      <trkpt lat="43.95834" lon="0.07759">
        <ele>110.1</ele>
        <time>2025-03-30T07:54:34Z</time>
      </trkpt>
      <trkpt lat="43.95835" lon="0.07759">
        <ele>110</ele>
        <time>2025-03-30T07:54:35Z</time>
      </trkpt>
      <trkpt lat="43.95837" lon="0.0776">
        <ele>110</ele>
        <time>2025-03-30T07:54:36Z</time>
      </trkpt>
      <trkpt lat="43.95838" lon="0.07761">
        <ele>109.9</ele>
        <time>2025-03-30T07:54:37Z</time>
      </trkpt>
      <trkpt lat="43.9584" lon="0.07761">
        <ele>109.9</ele>
        <time>2025-03-30T07:54:38Z</time>
      </trkpt>
      <trkpt lat="43.95842" lon="0.07761">
        <ele>109.8</ele>
        <time>2025-03-30T07:54:39Z</time>
      </trkpt>
      <trkpt lat="43.95843" lon="0.0776">
        <ele>109.8</ele>
        <time>2025-03-30T07:54:40Z</time>
      </trkpt>
      <trkpt lat="43.95846" lon="0.07759">
        <ele>109.8</ele>
        <time>2025-03-30T07:54:41Z</time>
      </trkpt>
      <trkpt lat="43.95847" lon="0.07759">
        <ele>109.7</ele>
        <time>2025-03-30T07:54:43Z</time>
      </trkpt>
      <trkpt lat="43.95849" lon="0.07759">
        <ele>109.7</ele>
        <time>2025-03-30T07:54:45Z</time>
      </trkpt>
      <trkpt lat="43.95851" lon="0.07759">
        <ele>109.6</ele>
        <time>2025-03-30T07:54:46Z</time>
      </trkpt>
      <trkpt lat="43.95853" lon="0.0776">
        <ele>109.6</ele>
        <time>2025-03-30T07:54:48Z</time>
      </trkpt>
      <trkpt lat="43.95854" lon="0.0776">
        <ele>109.6</ele>
        <time>2025-03-30T07:54:49Z</time>
      </trkpt>
      <trkpt lat="43.95856" lon="0.0776">
        <ele>109.5</ele>
        <time>2025-03-30T07:54:50Z</time>
      </trkpt>
      <trkpt lat="43.95859" lon="0.0776">
        <ele>109.5</ele>
        <time>2025-03-30T07:54:52Z</time>
      </trkpt>
      <trkpt lat="43.95861" lon="0.0776">
        <ele>109.4</ele>
        <time>2025-03-30T07:54:53Z</time>
      </trkpt>
      <trkpt lat="43.95861" lon="0.0776">
        <ele>109.4</ele>
        <time>2025-03-30T07:54:54Z</time>
      </trkpt>
      <trkpt lat="43.95863" lon="0.0776">
        <ele>109.4</ele>
        <time>2025-03-30T07:54:55Z</time>
      </trkpt>
      <trkpt lat="43.95865" lon="0.0776">
        <ele>109.3</ele>
        <time>2025-03-30T07:54:57Z</time>
      </trkpt>
      <trkpt lat="43.95866" lon="0.0776">
        <ele>109.3</ele>
        <time>2025-03-30T07:54:58Z</time>
      </trkpt>
      <trkpt lat="43.95869" lon="0.0776">
        <ele>109.3</ele>
        <time>2025-03-30T07:55:00Z</time>
      </trkpt>
      <trkpt lat="43.95871" lon="0.07761">
        <ele>109.2</ele>
        <time>2025-03-30T07:55:02Z</time>
      </trkpt>
      <trkpt lat="43.95874" lon="0.07762">
        <ele>109.2</ele>
        <time>2025-03-30T07:55:04Z</time>
      </trkpt>
      <trkpt lat="43.95875" lon="0.07762">
        <ele>109.2</ele>
        <time>2025-03-30T07:55:05Z</time>
      </trkpt>
      <trkpt lat="43.95877" lon="0.07763">
        <ele>109.1</ele>
        <time>2025-03-30T07:55:06Z</time>
      </trkpt>
      <trkpt lat="43.95878" lon="0.07763">
        <ele>109.1</ele>
        <time>2025-03-30T07:55:07Z</time>
      </trkpt>
      <trkpt lat="43.95879" lon="0.07763">
        <ele>109.1</ele>
        <time>2025-03-30T07:55:08Z</time>
      </trkpt>
      <trkpt lat="43.9588" lon="0.07764">
        <ele>109.1</ele>
        <time>2025-03-30T07:55:09Z</time>
      </trkpt>
      <trkpt lat="43.95881" lon="0.07764">
        <ele>109.1</ele>
        <time>2025-03-30T07:55:10Z</time>
      </trkpt>
      <trkpt lat="43.95882" lon="0.07763">
        <ele>109.1</ele>
        <time>2025-03-30T07:55:11Z</time>
      </trkpt>
      <trkpt lat="43.95883" lon="0.07763">
        <ele>109</ele>
        <time>2025-03-30T07:55:12Z</time>
      </trkpt>
      <trkpt lat="43.95885" lon="0.07764">
        <ele>109</ele>
        <time>2025-03-30T07:55:13Z</time>
      </trkpt>
      <trkpt lat="43.95886" lon="0.07764">
        <ele>109</ele>
        <time>2025-03-30T07:55:14Z</time>
      </trkpt>
      <trkpt lat="43.95888" lon="0.07763">
        <ele>109</ele>
        <time>2025-03-30T07:55:16Z</time>
      </trkpt>
      <trkpt lat="43.95889" lon="0.07763">
        <ele>108.9</ele>
        <time>2025-03-30T07:55:17Z</time>
      </trkpt>
      <trkpt lat="43.95892" lon="0.07762">
        <ele>108.9</ele>
        <time>2025-03-30T07:55:18Z</time>
      </trkpt>
      <trkpt lat="43.95893" lon="0.07761">
        <ele>108.9</ele>
        <time>2025-03-30T07:55:19Z</time>
      </trkpt>
      <trkpt lat="43.95894" lon="0.07761">
        <ele>108.8</ele>
        <time>2025-03-30T07:55:20Z</time>
      </trkpt>
      <trkpt lat="43.95895" lon="0.07761">
        <ele>108.8</ele>
        <time>2025-03-30T07:55:22Z</time>
      </trkpt>
      <trkpt lat="43.95898" lon="0.07762">
        <ele>108.8</ele>
        <time>2025-03-30T07:55:23Z</time>
      </trkpt>
      <trkpt lat="43.959" lon="0.07762">
        <ele>108.7</ele>
        <time>2025-03-30T07:55:24Z</time>
      </trkpt>
      <trkpt lat="43.95902" lon="0.07762">
        <ele>108.7</ele>
        <time>2025-03-30T07:55:25Z</time>
      </trkpt>
      <trkpt lat="43.95903" lon="0.07762">
        <ele>108.7</ele>
        <time>2025-03-30T07:55:26Z</time>
      </trkpt>
      <trkpt lat="43.95905" lon="0.07762">
        <ele>108.7</ele>
        <time>2025-03-30T07:55:27Z</time>
      </trkpt>
      <trkpt lat="43.95906" lon="0.07762">
        <ele>108.7</ele>
        <time>2025-03-30T07:55:28Z</time>
      </trkpt>
      <trkpt lat="43.95908" lon="0.07761">
        <ele>108.6</ele>
        <time>2025-03-30T07:55:29Z</time>
      </trkpt>
      <trkpt lat="43.95909" lon="0.07761">
        <ele>108.6</ele>
        <time>2025-03-30T07:55:30Z</time>
      </trkpt>
      <trkpt lat="43.95912" lon="0.0776">
        <ele>108.6</ele>
        <time>2025-03-30T07:55:31Z</time>
      </trkpt>
      <trkpt lat="43.95913" lon="0.07759">
        <ele>108.6</ele>
        <time>2025-03-30T07:55:32Z</time>
      </trkpt>
      <trkpt lat="43.95914" lon="0.07759">
        <ele>108.6</ele>
        <time>2025-03-30T07:55:33Z</time>
      </trkpt>
      <trkpt lat="43.95915" lon="0.07759">
        <ele>108.7</ele>
        <time>2025-03-30T07:55:34Z</time>
      </trkpt>
      <trkpt lat="43.95916" lon="0.07758">
        <ele>108.7</ele>
        <time>2025-03-30T07:55:35Z</time>
      </trkpt>
      <trkpt lat="43.95917" lon="0.07758">
        <ele>108.7</ele>
        <time>2025-03-30T07:55:36Z</time>
      </trkpt>
      <trkpt lat="43.95919" lon="0.07758">
        <ele>108.7</ele>
        <time>2025-03-30T07:55:37Z</time>
      </trkpt>
      <trkpt lat="43.95921" lon="0.07758">
        <ele>108.7</ele>
        <time>2025-03-30T07:55:39Z</time>
      </trkpt>
      <trkpt lat="43.95922" lon="0.07758">
        <ele>108.7</ele>
        <time>2025-03-30T07:55:40Z</time>
      </trkpt>
      <trkpt lat="43.95923" lon="0.07758">
        <ele>108.7</ele>
        <time>2025-03-30T07:55:41Z</time>
      </trkpt>
      <trkpt lat="43.95925" lon="0.07759">
        <ele>108.7</ele>
        <time>2025-03-30T07:55:42Z</time>
      </trkpt>
      <trkpt lat="43.95927" lon="0.07759">
        <ele>108.7</ele>
        <time>2025-03-30T07:55:44Z</time>
      </trkpt>
      <trkpt lat="43.95928" lon="0.07758">
        <ele>108.7</ele>
        <time>2025-03-30T07:55:45Z</time>
      </trkpt>
      <trkpt lat="43.9593" lon="0.07758">
        <ele>108.7</ele>
        <time>2025-03-30T07:55:46Z</time>
      </trkpt>
      <trkpt lat="43.95932" lon="0.07758">
        <ele>108.7</ele>
        <time>2025-03-30T07:55:47Z</time>
      </trkpt>
      <trkpt lat="43.95933" lon="0.07758">
        <ele>108.6</ele>
        <time>2025-03-30T07:55:48Z</time>
      </trkpt>
      <trkpt lat="43.95934" lon="0.07758">
        <ele>108.6</ele>
        <time>2025-03-30T07:55:49Z</time>
      </trkpt>
      <trkpt lat="43.95935" lon="0.07757">
        <ele>108.6</ele>
        <time>2025-03-30T07:55:50Z</time>
      </trkpt>
      <trkpt lat="43.95937" lon="0.07756">
        <ele>108.6</ele>
        <time>2025-03-30T07:55:51Z</time>
      </trkpt>
      <trkpt lat="43.95938" lon="0.07756">
        <ele>108.5</ele>
        <time>2025-03-30T07:55:52Z</time>
      </trkpt>
      <trkpt lat="43.9594" lon="0.07755">
        <ele>108.5</ele>
        <time>2025-03-30T07:55:53Z</time>
      </trkpt>
      <trkpt lat="43.95941" lon="0.07755">
        <ele>108.5</ele>
        <time>2025-03-30T07:55:55Z</time>
      </trkpt>
      <trkpt lat="43.95944" lon="0.07755">
        <ele>108.4</ele>
        <time>2025-03-30T07:55:56Z</time>
      </trkpt>
      <trkpt lat="43.95945" lon="0.07755">
        <ele>108.4</ele>
        <time>2025-03-30T07:55:57Z</time>
      </trkpt>
      <trkpt lat="43.95947" lon="0.07755">
        <ele>108.4</ele>
        <time>2025-03-30T07:55:58Z</time>
      </trkpt>
      <trkpt lat="43.95948" lon="0.07755">
        <ele>108.3</ele>
        <time>2025-03-30T07:55:59Z</time>
      </trkpt>
      <trkpt lat="43.95951" lon="0.07755">
        <ele>108.3</ele>
        <time>2025-03-30T07:56:00Z</time>
      </trkpt>
      <trkpt lat="43.95953" lon="0.07755">
        <ele>108.2</ele>
        <time>2025-03-30T07:56:02Z</time>
      </trkpt>
      <trkpt lat="43.95955" lon="0.07754">
        <ele>108.2</ele>
        <time>2025-03-30T07:56:04Z</time>
      </trkpt>
      <trkpt lat="43.95956" lon="0.07754">
        <ele>108.2</ele>
        <time>2025-03-30T07:56:05Z</time>
      </trkpt>
      <trkpt lat="43.95958" lon="0.07754">
        <ele>108.1</ele>
        <time>2025-03-30T07:56:06Z</time>
      </trkpt>
      <trkpt lat="43.9596" lon="0.07753">
        <ele>108</ele>
        <time>2025-03-30T07:56:08Z</time>
      </trkpt>
      <trkpt lat="43.95961" lon="0.07753">
        <ele>108</ele>
        <time>2025-03-30T07:56:09Z</time>
      </trkpt>
      <trkpt lat="43.95963" lon="0.07753">
        <ele>108</ele>
        <time>2025-03-30T07:56:10Z</time>
      </trkpt>
      <trkpt lat="43.95964" lon="0.07753">
        <ele>107.9</ele>
        <time>2025-03-30T07:56:11Z</time>
      </trkpt>
      <trkpt lat="43.95965" lon="0.07752">
        <ele>107.9</ele>
        <time>2025-03-30T07:56:12Z</time>
      </trkpt>
      <trkpt lat="43.95966" lon="0.07752">
        <ele>107.9</ele>
        <time>2025-03-30T07:56:13Z</time>
      </trkpt>
      <trkpt lat="43.95967" lon="0.07751">
        <ele>107.8</ele>
        <time>2025-03-30T07:56:14Z</time>
      </trkpt>
      <trkpt lat="43.95968" lon="0.0775">
        <ele>107.8</ele>
        <time>2025-03-30T07:56:15Z</time>
      </trkpt>
      <trkpt lat="43.95969" lon="0.07749">
        <ele>107.8</ele>
        <time>2025-03-30T07:56:16Z</time>
      </trkpt>
      <trkpt lat="43.9597" lon="0.07748">
        <ele>107.7</ele>
        <time>2025-03-30T07:56:17Z</time>
      </trkpt>
      <trkpt lat="43.95972" lon="0.07747">
        <ele>107.7</ele>
        <time>2025-03-30T07:56:18Z</time>
      </trkpt>
      <trkpt lat="43.95973" lon="0.07745">
        <ele>107.6</ele>
        <time>2025-03-30T07:56:19Z</time>
      </trkpt>
      <trkpt lat="43.95974" lon="0.07744">
        <ele>107.6</ele>
        <time>2025-03-30T07:56:21Z</time>
      </trkpt>
      <trkpt lat="43.95976" lon="0.07741">
        <ele>107.5</ele>
        <time>2025-03-30T07:56:22Z</time>
      </trkpt>
      <trkpt lat="43.95977" lon="0.07741">
        <ele>107.5</ele>
        <time>2025-03-30T07:56:23Z</time>
      </trkpt>
      <trkpt lat="43.95979" lon="0.0774">
        <ele>107.5</ele>
        <time>2025-03-30T07:56:24Z</time>
      </trkpt>
      <trkpt lat="43.9598" lon="0.0774">
        <ele>107.5</ele>
        <time>2025-03-30T07:56:25Z</time>
      </trkpt>
      <trkpt lat="43.95982" lon="0.07739">
        <ele>107.4</ele>
        <time>2025-03-30T07:56:26Z</time>
      </trkpt>
      <trkpt lat="43.95983" lon="0.07739">
        <ele>107.4</ele>
        <time>2025-03-30T07:56:27Z</time>
      </trkpt>
      <trkpt lat="43.95985" lon="0.07739">
        <ele>107.4</ele>
        <time>2025-03-30T07:56:28Z</time>
      </trkpt>
      <trkpt lat="43.95986" lon="0.07739">
        <ele>107.4</ele>
        <time>2025-03-30T07:56:29Z</time>
      </trkpt>
      <trkpt lat="43.95988" lon="0.07739">
        <ele>107.4</ele>
        <time>2025-03-30T07:56:30Z</time>
      </trkpt>
      <trkpt lat="43.9599" lon="0.07739">
        <ele>107.4</ele>
        <time>2025-03-30T07:56:31Z</time>
      </trkpt>
      <trkpt lat="43.95991" lon="0.07738">
        <ele>107.4</ele>
        <time>2025-03-30T07:56:32Z</time>
      </trkpt>
      <trkpt lat="43.95991" lon="0.07738">
        <ele>107.4</ele>
        <time>2025-03-30T07:56:33Z</time>
      </trkpt>
      <trkpt lat="43.95993" lon="0.07737">
        <ele>107.3</ele>
        <time>2025-03-30T07:56:34Z</time>
      </trkpt>
      <trkpt lat="43.95994" lon="0.07737">
        <ele>107.3</ele>
        <time>2025-03-30T07:56:35Z</time>
      </trkpt>
      <trkpt lat="43.95995" lon="0.07737">
        <ele>107.3</ele>
        <time>2025-03-30T07:56:36Z</time>
      </trkpt>
      <trkpt lat="43.95997" lon="0.07735">
        <ele>107.3</ele>
        <time>2025-03-30T07:56:37Z</time>
      </trkpt>
      <trkpt lat="43.95997" lon="0.07735">
        <ele>107.3</ele>
        <time>2025-03-30T07:56:38Z</time>
      </trkpt>
      <trkpt lat="43.95998" lon="0.07734">
        <ele>107.3</ele>
        <time>2025-03-30T07:56:39Z</time>
      </trkpt>
      <trkpt lat="43.96" lon="0.07732">
        <ele>107.2</ele>
        <time>2025-03-30T07:56:40Z</time>
      </trkpt>
      <trkpt lat="43.96001" lon="0.07732">
        <ele>107.2</ele>
        <time>2025-03-30T07:56:41Z</time>
      </trkpt>
      <trkpt lat="43.96001" lon="0.07731">
        <ele>107.2</ele>
        <time>2025-03-30T07:56:42Z</time>
      </trkpt>
      <trkpt lat="43.96003" lon="0.0773">
        <ele>107.2</ele>
        <time>2025-03-30T07:56:43Z</time>
      </trkpt>
      <trkpt lat="43.96004" lon="0.07729">
        <ele>107.1</ele>
        <time>2025-03-30T07:56:44Z</time>
      </trkpt>
      <trkpt lat="43.96005" lon="0.07729">
        <ele>107.1</ele>
        <time>2025-03-30T07:56:45Z</time>
      </trkpt>
      <trkpt lat="43.96007" lon="0.07729">
        <ele>107.1</ele>
        <time>2025-03-30T07:56:46Z</time>
      </trkpt>
      <trkpt lat="43.96008" lon="0.0773">
        <ele>107</ele>
        <time>2025-03-30T07:56:47Z</time>
      </trkpt>
      <trkpt lat="43.9601" lon="0.0773">
        <ele>107</ele>
        <time>2025-03-30T07:56:48Z</time>
      </trkpt>
      <trkpt lat="43.96013" lon="0.07728">
        <ele>106.9</ele>
        <time>2025-03-30T07:56:50Z</time>
      </trkpt>
      <trkpt lat="43.96015" lon="0.07728">
        <ele>106.9</ele>
        <time>2025-03-30T07:56:51Z</time>
      </trkpt>
      <trkpt lat="43.96015" lon="0.07728">
        <ele>106.9</ele>
        <time>2025-03-30T07:56:53Z</time>
      </trkpt>
      <trkpt lat="43.96019" lon="0.07725">
        <ele>106.8</ele>
        <time>2025-03-30T07:56:54Z</time>
      </trkpt>
      <trkpt lat="43.9602" lon="0.07724">
        <ele>106.8</ele>
        <time>2025-03-30T07:56:55Z</time>
      </trkpt>
      <trkpt lat="43.96021" lon="0.07723">
        <ele>106.8</ele>
        <time>2025-03-30T07:56:56Z</time>
      </trkpt>
      <trkpt lat="43.96023" lon="0.07721">
        <ele>106.7</ele>
        <time>2025-03-30T07:56:58Z</time>
      </trkpt>
      <trkpt lat="43.96026" lon="0.07719">
        <ele>106.7</ele>
        <time>2025-03-30T07:57:00Z</time>
      </trkpt>
      <trkpt lat="43.96027" lon="0.07718">
        <ele>106.7</ele>
        <time>2025-03-30T07:57:01Z</time>
      </trkpt>
      <trkpt lat="43.96028" lon="0.07718">
        <ele>106.7</ele>
        <time>2025-03-30T07:57:02Z</time>
      </trkpt>
      <trkpt lat="43.9603" lon="0.07716">
        <ele>106.6</ele>
        <time>2025-03-30T07:57:03Z</time>
      </trkpt>
      <trkpt lat="43.96031" lon="0.07716">
        <ele>106.6</ele>
        <time>2025-03-30T07:57:04Z</time>
      </trkpt>
      <trkpt lat="43.96032" lon="0.07716">
        <ele>106.6</ele>
        <time>2025-03-30T07:57:05Z</time>
      </trkpt>
      <trkpt lat="43.96033" lon="0.07715">
        <ele>106.6</ele>
        <time>2025-03-30T07:57:06Z</time>
      </trkpt>
      <trkpt lat="43.96034" lon="0.07714">
        <ele>106.6</ele>
        <time>2025-03-30T07:57:07Z</time>
      </trkpt>
      <trkpt lat="43.96035" lon="0.07713">
        <ele>106.6</ele>
        <time>2025-03-30T07:57:08Z</time>
      </trkpt>
      <trkpt lat="43.96037" lon="0.07712">
        <ele>106.5</ele>
        <time>2025-03-30T07:57:09Z</time>
      </trkpt>
      <trkpt lat="43.96037" lon="0.0771">
        <ele>106.5</ele>
        <time>2025-03-30T07:57:10Z</time>
      </trkpt>
      <trkpt lat="43.9604" lon="0.07708">
        <ele>106.4</ele>
        <time>2025-03-30T07:57:12Z</time>
      </trkpt>
      <trkpt lat="43.96041" lon="0.07707">
        <ele>106.4</ele>
        <time>2025-03-30T07:57:13Z</time>
      </trkpt>
      <trkpt lat="43.96043" lon="0.07706">
        <ele>106.3</ele>
        <time>2025-03-30T07:57:15Z</time>
      </trkpt>
      <trkpt lat="43.96044" lon="0.07705">
        <ele>106.2</ele>
        <time>2025-03-30T07:57:16Z</time>
      </trkpt>
      <trkpt lat="43.96046" lon="0.07704">
        <ele>106.1</ele>
        <time>2025-03-30T07:57:18Z</time>
      </trkpt>
      <trkpt lat="43.96048" lon="0.07703">
        <ele>106</ele>
        <time>2025-03-30T07:57:19Z</time>
      </trkpt>
      <trkpt lat="43.96049" lon="0.07703">
        <ele>106</ele>
        <time>2025-03-30T07:57:20Z</time>
      </trkpt>
      <trkpt lat="43.9605" lon="0.07703">
        <ele>106</ele>
        <time>2025-03-30T07:57:21Z</time>
      </trkpt>
      <trkpt lat="43.96052" lon="0.07702">
        <ele>105.9</ele>
        <time>2025-03-30T07:57:22Z</time>
      </trkpt>
      <trkpt lat="43.96054" lon="0.07701">
        <ele>105.8</ele>
        <time>2025-03-30T07:57:23Z</time>
      </trkpt>
      <trkpt lat="43.96055" lon="0.077">
        <ele>105.8</ele>
        <time>2025-03-30T07:57:24Z</time>
      </trkpt>
      <trkpt lat="43.96056" lon="0.07699">
        <ele>105.7</ele>
        <time>2025-03-30T07:57:25Z</time>
      </trkpt>
      <trkpt lat="43.96057" lon="0.07698">
        <ele>105.6</ele>
        <time>2025-03-30T07:57:26Z</time>
      </trkpt>
      <trkpt lat="43.96059" lon="0.07697">
        <ele>105.6</ele>
        <time>2025-03-30T07:57:27Z</time>
      </trkpt>
      <trkpt lat="43.9606" lon="0.07695">
        <ele>105.5</ele>
        <time>2025-03-30T07:57:29Z</time>
      </trkpt>
      <trkpt lat="43.96061" lon="0.07693">
        <ele>105.5</ele>
        <time>2025-03-30T07:57:30Z</time>
      </trkpt>
      <trkpt lat="43.96063" lon="0.07688">
        <ele>105.4</ele>
        <time>2025-03-30T07:57:32Z</time>
      </trkpt>
      <trkpt lat="43.96063" lon="0.07686">
        <ele>105.3</ele>
        <time>2025-03-30T07:57:33Z</time>
      </trkpt>
      <trkpt lat="43.96064" lon="0.07684">
        <ele>105.3</ele>
        <time>2025-03-30T07:57:34Z</time>
      </trkpt>
      <trkpt lat="43.96066" lon="0.07683">
        <ele>105.3</ele>
        <time>2025-03-30T07:57:35Z</time>
      </trkpt>
      <trkpt lat="43.96067" lon="0.07683">
        <ele>105.2</ele>
        <time>2025-03-30T07:57:36Z</time>
      </trkpt>
      <trkpt lat="43.96068" lon="0.07682">
        <ele>105.2</ele>
        <time>2025-03-30T07:57:37Z</time>
      </trkpt>
      <trkpt lat="43.96069" lon="0.07683">
        <ele>105.2</ele>
        <time>2025-03-30T07:57:39Z</time>
      </trkpt>
      <trkpt lat="43.9607" lon="0.07682">
        <ele>105.2</ele>
        <time>2025-03-30T07:57:40Z</time>
      </trkpt>
      <trkpt lat="43.96071" lon="0.07679">
        <ele>105.1</ele>
        <time>2025-03-30T07:57:41Z</time>
      </trkpt>
      <trkpt lat="43.96073" lon="0.07678">
        <ele>105.1</ele>
        <time>2025-03-30T07:57:42Z</time>
      </trkpt>
      <trkpt lat="43.96074" lon="0.07676">
        <ele>105.1</ele>
        <time>2025-03-30T07:57:43Z</time>
      </trkpt>
      <trkpt lat="43.96075" lon="0.07674">
        <ele>105.1</ele>
        <time>2025-03-30T07:57:44Z</time>
      </trkpt>
      <trkpt lat="43.96076" lon="0.07673">
        <ele>105.1</ele>
        <time>2025-03-30T07:57:45Z</time>
      </trkpt>
      <trkpt lat="43.96077" lon="0.07672">
        <ele>105.1</ele>
        <time>2025-03-30T07:57:46Z</time>
      </trkpt>
      <trkpt lat="43.96078" lon="0.0767">
        <ele>105.1</ele>
        <time>2025-03-30T07:57:48Z</time>
      </trkpt>
      <trkpt lat="43.96079" lon="0.07669">
        <ele>105.1</ele>
        <time>2025-03-30T07:57:49Z</time>
      </trkpt>
      <trkpt lat="43.96081" lon="0.07667">
        <ele>105.1</ele>
        <time>2025-03-30T07:57:50Z</time>
      </trkpt>
      <trkpt lat="43.96081" lon="0.07667">
        <ele>105.1</ele>
        <time>2025-03-30T07:57:51Z</time>
      </trkpt>
      <trkpt lat="43.96082" lon="0.07666">
        <ele>105.1</ele>
        <time>2025-03-30T07:57:52Z</time>
      </trkpt>
      <trkpt lat="43.96083" lon="0.07666">
        <ele>105.1</ele>
        <time>2025-03-30T07:57:53Z</time>
      </trkpt>
      <trkpt lat="43.96083" lon="0.07666">
        <ele>105.1</ele>
        <time>2025-03-30T07:57:54Z</time>
      </trkpt>
      <trkpt lat="43.96083" lon="0.07665">
        <ele>105.1</ele>
        <time>2025-03-30T07:57:56Z</time>
      </trkpt>
      <trkpt lat="43.96085" lon="0.07663">
        <ele>105.1</ele>
        <time>2025-03-30T07:57:58Z</time>
      </trkpt>
      <trkpt lat="43.96086" lon="0.07662">
        <ele>105.1</ele>
        <time>2025-03-30T07:57:59Z</time>
      </trkpt>
      <trkpt lat="43.96086" lon="0.07661">
        <ele>105.1</ele>
        <time>2025-03-30T07:58:00Z</time>
      </trkpt>
      <trkpt lat="43.96087" lon="0.0766">
        <ele>105.1</ele>
        <time>2025-03-30T07:58:01Z</time>
      </trkpt>
      <trkpt lat="43.96089" lon="0.07658">
        <ele>105.1</ele>
        <time>2025-03-30T07:58:03Z</time>
      </trkpt>
      <trkpt lat="43.9609" lon="0.07657">
        <ele>105.1</ele>
        <time>2025-03-30T07:58:04Z</time>
      </trkpt>
      <trkpt lat="43.9609" lon="0.07657">
        <ele>105.1</ele>
        <time>2025-03-30T07:58:05Z</time>
      </trkpt>
      <trkpt lat="43.96091" lon="0.07656">
        <ele>105.1</ele>
        <time>2025-03-30T07:58:06Z</time>
      </trkpt>
      <trkpt lat="43.96092" lon="0.07655">
        <ele>105.1</ele>
        <time>2025-03-30T07:58:07Z</time>
      </trkpt>
      <trkpt lat="43.96093" lon="0.07654">
        <ele>105.1</ele>
        <time>2025-03-30T07:58:08Z</time>
      </trkpt>
      <trkpt lat="43.96093" lon="0.07653">
        <ele>105.1</ele>
        <time>2025-03-30T07:58:09Z</time>
      </trkpt>
      <trkpt lat="43.96093" lon="0.07651">
        <ele>105.1</ele>
        <time>2025-03-30T07:58:10Z</time>
      </trkpt>
      <trkpt lat="43.96094" lon="0.0765">
        <ele>105.1</ele>
        <time>2025-03-30T07:58:12Z</time>
      </trkpt>
      <trkpt lat="43.96095" lon="0.07648">
        <ele>105.1</ele>
        <time>2025-03-30T07:58:13Z</time>
      </trkpt>
      <trkpt lat="43.96095" lon="0.07646">
        <ele>105.1</ele>
        <time>2025-03-30T07:58:14Z</time>
      </trkpt>
      <trkpt lat="43.96096" lon="0.07644">
        <ele>105.1</ele>
        <time>2025-03-30T07:58:15Z</time>
      </trkpt>
      <trkpt lat="43.96096" lon="0.07643">
        <ele>105.1</ele>
        <time>2025-03-30T07:58:16Z</time>
      </trkpt>
      <trkpt lat="43.96097" lon="0.07641">
        <ele>105.1</ele>
        <time>2025-03-30T07:58:17Z</time>
      </trkpt>
      <trkpt lat="43.96098" lon="0.0764">
        <ele>105.1</ele>
        <time>2025-03-30T07:58:18Z</time>
      </trkpt>
      <trkpt lat="43.96099" lon="0.07639">
        <ele>105.1</ele>
        <time>2025-03-30T07:58:19Z</time>
      </trkpt>
      <trkpt lat="43.961" lon="0.07637">
        <ele>105.1</ele>
        <time>2025-03-30T07:58:20Z</time>
      </trkpt>
      <trkpt lat="43.96102" lon="0.07637">
        <ele>105.1</ele>
        <time>2025-03-30T07:58:21Z</time>
      </trkpt>
      <trkpt lat="43.96103" lon="0.07635">
        <ele>105.1</ele>
        <time>2025-03-30T07:58:22Z</time>
      </trkpt>
      <trkpt lat="43.96105" lon="0.07633">
        <ele>105.1</ele>
        <time>2025-03-30T07:58:24Z</time>
      </trkpt>
      <trkpt lat="43.96106" lon="0.07632">
        <ele>105.1</ele>
        <time>2025-03-30T07:58:25Z</time>
      </trkpt>
      <trkpt lat="43.96107" lon="0.0763">
        <ele>105</ele>
        <time>2025-03-30T07:58:26Z</time>
      </trkpt>
      <trkpt lat="43.96107" lon="0.07631">
        <ele>105</ele>
        <time>2025-03-30T07:58:27Z</time>
      </trkpt>
      <trkpt lat="43.96108" lon="0.07631">
        <ele>105</ele>
        <time>2025-03-30T07:58:28Z</time>
      </trkpt>
      <trkpt lat="43.96108" lon="0.0763">
        <ele>105</ele>
        <time>2025-03-30T07:58:29Z</time>
      </trkpt>
      <trkpt lat="43.96109" lon="0.0763">
        <ele>105</ele>
        <time>2025-03-30T07:58:30Z</time>
      </trkpt>
      <trkpt lat="43.9611" lon="0.07628">
        <ele>105</ele>
        <time>2025-03-30T07:58:31Z</time>
      </trkpt>
      <trkpt lat="43.96111" lon="0.07626">
        <ele>105</ele>
        <time>2025-03-30T07:58:33Z</time>
      </trkpt>
      <trkpt lat="43.96112" lon="0.07625">
        <ele>105</ele>
        <time>2025-03-30T07:58:35Z</time>
      </trkpt>
      <trkpt lat="43.96113" lon="0.07623">
        <ele>105</ele>
        <time>2025-03-30T07:58:36Z</time>
      </trkpt>
      <trkpt lat="43.96113" lon="0.07622">
        <ele>105</ele>
        <time>2025-03-30T07:58:37Z</time>
      </trkpt>
      <trkpt lat="43.96114" lon="0.07621">
        <ele>104.9</ele>
        <time>2025-03-30T07:58:38Z</time>
      </trkpt>
      <trkpt lat="43.96116" lon="0.07618">
        <ele>104.9</ele>
        <time>2025-03-30T07:58:40Z</time>
      </trkpt>
      <trkpt lat="43.96117" lon="0.07616">
        <ele>104.9</ele>
        <time>2025-03-30T07:58:41Z</time>
      </trkpt>
      <trkpt lat="43.96118" lon="0.07614">
        <ele>104.8</ele>
        <time>2025-03-30T07:58:42Z</time>
      </trkpt>
      <trkpt lat="43.96118" lon="0.07613">
        <ele>104.8</ele>
        <time>2025-03-30T07:58:44Z</time>
      </trkpt>
      <trkpt lat="43.96119" lon="0.07611">
        <ele>104.8</ele>
        <time>2025-03-30T07:58:45Z</time>
      </trkpt>
      <trkpt lat="43.96119" lon="0.0761">
        <ele>104.8</ele>
        <time>2025-03-30T07:58:47Z</time>
      </trkpt>
      <trkpt lat="43.9612" lon="0.07608">
        <ele>104.7</ele>
        <time>2025-03-30T07:58:48Z</time>
      </trkpt>
      <trkpt lat="43.9612" lon="0.07607">
        <ele>104.7</ele>
        <time>2025-03-30T07:58:49Z</time>
      </trkpt>
      <trkpt lat="43.96121" lon="0.07605">
        <ele>104.6</ele>
        <time>2025-03-30T07:58:50Z</time>
      </trkpt>
      <trkpt lat="43.96121" lon="0.07604">
        <ele>104.6</ele>
        <time>2025-03-30T07:58:51Z</time>
      </trkpt>
      <trkpt lat="43.96122" lon="0.07602">
        <ele>104.5</ele>
        <time>2025-03-30T07:58:52Z</time>
      </trkpt>
      <trkpt lat="43.96123" lon="0.076">
        <ele>104.5</ele>
        <time>2025-03-30T07:58:53Z</time>
      </trkpt>
      <trkpt lat="43.96124" lon="0.07599">
        <ele>104.4</ele>
        <time>2025-03-30T07:58:54Z</time>
      </trkpt>
      <trkpt lat="43.96125" lon="0.07598">
        <ele>104.4</ele>
        <time>2025-03-30T07:58:55Z</time>
      </trkpt>
      <trkpt lat="43.96126" lon="0.07597">
        <ele>104.3</ele>
        <time>2025-03-30T07:58:57Z</time>
      </trkpt>
      <trkpt lat="43.96127" lon="0.07596">
        <ele>104.3</ele>
        <time>2025-03-30T07:58:58Z</time>
      </trkpt>
      <trkpt lat="43.96129" lon="0.07594">
        <ele>104.2</ele>
        <time>2025-03-30T07:58:59Z</time>
      </trkpt>
      <trkpt lat="43.9613" lon="0.07591">
        <ele>104.1</ele>
        <time>2025-03-30T07:59:01Z</time>
      </trkpt>
      <trkpt lat="43.96131" lon="0.0759">
        <ele>104</ele>
        <time>2025-03-30T07:59:02Z</time>
      </trkpt>
      <trkpt lat="43.96133" lon="0.07588">
        <ele>104</ele>
        <time>2025-03-30T07:59:04Z</time>
      </trkpt>
      <trkpt lat="43.96134" lon="0.07587">
        <ele>103.9</ele>
        <time>2025-03-30T07:59:05Z</time>
      </trkpt>
      <trkpt lat="43.96135" lon="0.07586">
        <ele>103.9</ele>
        <time>2025-03-30T07:59:06Z</time>
      </trkpt>
      <trkpt lat="43.96136" lon="0.07584">
        <ele>103.9</ele>
        <time>2025-03-30T07:59:07Z</time>
      </trkpt>
      <trkpt lat="43.96137" lon="0.07583">
        <ele>103.8</ele>
        <time>2025-03-30T07:59:08Z</time>
      </trkpt>
      <trkpt lat="43.96138" lon="0.0758">
        <ele>103.8</ele>
        <time>2025-03-30T07:59:10Z</time>
      </trkpt>
      <trkpt lat="43.9614" lon="0.07579">
        <ele>103.7</ele>
        <time>2025-03-30T07:59:12Z</time>
      </trkpt>
      <trkpt lat="43.96142" lon="0.07576">
        <ele>103.7</ele>
        <time>2025-03-30T07:59:14Z</time>
      </trkpt>
      <trkpt lat="43.96143" lon="0.07576">
        <ele>103.7</ele>
        <time>2025-03-30T07:59:15Z</time>
      </trkpt>
      <trkpt lat="43.96145" lon="0.07573">
        <ele>103.7</ele>
        <time>2025-03-30T07:59:17Z</time>
      </trkpt>
      <trkpt lat="43.96145" lon="0.07572">
        <ele>103.7</ele>
        <time>2025-03-30T07:59:18Z</time>
      </trkpt>
      <trkpt lat="43.96146" lon="0.07571">
        <ele>103.7</ele>
        <time>2025-03-30T07:59:19Z</time>
      </trkpt>
      <trkpt lat="43.96147" lon="0.0757">
        <ele>103.6</ele>
        <time>2025-03-30T07:59:20Z</time>
      </trkpt>
      <trkpt lat="43.96148" lon="0.07569">
        <ele>103.6</ele>
        <time>2025-03-30T07:59:21Z</time>
      </trkpt>
      <trkpt lat="43.96149" lon="0.07568">
        <ele>103.6</ele>
        <time>2025-03-30T07:59:22Z</time>
      </trkpt>
      <trkpt lat="43.9615" lon="0.07566">
        <ele>103.6</ele>
        <time>2025-03-30T07:59:23Z</time>
      </trkpt>
      <trkpt lat="43.9615" lon="0.07565">
        <ele>103.6</ele>
        <time>2025-03-30T07:59:24Z</time>
      </trkpt>
      <trkpt lat="43.96151" lon="0.07563">
        <ele>103.6</ele>
        <time>2025-03-30T07:59:25Z</time>
      </trkpt>
      <trkpt lat="43.96152" lon="0.07559">
        <ele>103.6</ele>
        <time>2025-03-30T07:59:27Z</time>
      </trkpt>
      <trkpt lat="43.96153" lon="0.07557">
        <ele>103.6</ele>
        <time>2025-03-30T07:59:28Z</time>
      </trkpt>
      <trkpt lat="43.96153" lon="0.07555">
        <ele>103.6</ele>
        <time>2025-03-30T07:59:29Z</time>
      </trkpt>
      <trkpt lat="43.96153" lon="0.07553">
        <ele>103.6</ele>
        <time>2025-03-30T07:59:30Z</time>
      </trkpt>
      <trkpt lat="43.96154" lon="0.07551">
        <ele>103.6</ele>
        <time>2025-03-30T07:59:31Z</time>
      </trkpt>
      <trkpt lat="43.96154" lon="0.07549">
        <ele>103.6</ele>
        <time>2025-03-30T07:59:32Z</time>
      </trkpt>
      <trkpt lat="43.96155" lon="0.07548">
        <ele>103.6</ele>
        <time>2025-03-30T07:59:33Z</time>
      </trkpt>
      <trkpt lat="43.96156" lon="0.07548">
        <ele>103.6</ele>
        <time>2025-03-30T07:59:34Z</time>
      </trkpt>
      <trkpt lat="43.96155" lon="0.07549">
        <ele>103.6</ele>
        <time>2025-03-30T07:59:35Z</time>
      </trkpt>
      <trkpt lat="43.96155" lon="0.07549">
        <ele>103.6</ele>
        <time>2025-03-30T07:59:37Z</time>
      </trkpt>
      <trkpt lat="43.96154" lon="0.07548">
        <ele>103.6</ele>
        <time>2025-03-30T07:59:38Z</time>
      </trkpt>
      <trkpt lat="43.96153" lon="0.07548">
        <ele>103.6</ele>
        <time>2025-03-30T07:59:39Z</time>
      </trkpt>
      <trkpt lat="43.96154" lon="0.07547">
        <ele>103.6</ele>
        <time>2025-03-30T07:59:40Z</time>
      </trkpt>
      <trkpt lat="43.96154" lon="0.07546">
        <ele>103.6</ele>
        <time>2025-03-30T07:59:41Z</time>
      </trkpt>
      <trkpt lat="43.96156" lon="0.07542">
        <ele>103.6</ele>
        <time>2025-03-30T07:59:43Z</time>
      </trkpt>
      <trkpt lat="43.96156" lon="0.0754">
        <ele>103.7</ele>
        <time>2025-03-30T07:59:44Z</time>
      </trkpt>
      <trkpt lat="43.96157" lon="0.07536">
        <ele>103.7</ele>
        <time>2025-03-30T07:59:46Z</time>
      </trkpt>
      <trkpt lat="43.96158" lon="0.07534">
        <ele>103.7</ele>
        <time>2025-03-30T07:59:47Z</time>
      </trkpt>
      <trkpt lat="43.96159" lon="0.07533">
        <ele>103.7</ele>
        <time>2025-03-30T07:59:48Z</time>
      </trkpt>
      <trkpt lat="43.9616" lon="0.07532">
        <ele>103.7</ele>
        <time>2025-03-30T07:59:49Z</time>
      </trkpt>
      <trkpt lat="43.96161" lon="0.0753">
        <ele>103.7</ele>
        <time>2025-03-30T07:59:50Z</time>
      </trkpt>
      <trkpt lat="43.96163" lon="0.07529">
        <ele>103.7</ele>
        <time>2025-03-30T07:59:51Z</time>
      </trkpt>
      <trkpt lat="43.96164" lon="0.07527">
        <ele>103.7</ele>
        <time>2025-03-30T07:59:52Z</time>
      </trkpt>
      <trkpt lat="43.96166" lon="0.07525">
        <ele>103.7</ele>
        <time>2025-03-30T07:59:54Z</time>
      </trkpt>
      <trkpt lat="43.96167" lon="0.07524">
        <ele>103.7</ele>
        <time>2025-03-30T07:59:55Z</time>
      </trkpt>
      <trkpt lat="43.96168" lon="0.07523">
        <ele>103.7</ele>
        <time>2025-03-30T07:59:56Z</time>
      </trkpt>
      <trkpt lat="43.96169" lon="0.07521">
        <ele>103.7</ele>
        <time>2025-03-30T07:59:57Z</time>
      </trkpt>
      <trkpt lat="43.96169" lon="0.07518">
        <ele>103.7</ele>
        <time>2025-03-30T07:59:58Z</time>
      </trkpt>
      <trkpt lat="43.96169" lon="0.07516">
        <ele>103.7</ele>
        <time>2025-03-30T07:59:59Z</time>
      </trkpt>
      <trkpt lat="43.96169" lon="0.07515">
        <ele>103.7</ele>
        <time>2025-03-30T08:00:00Z</time>
      </trkpt>
      <trkpt lat="43.96171" lon="0.07513">
        <ele>103.7</ele>
        <time>2025-03-30T08:00:01Z</time>
      </trkpt>
      <trkpt lat="43.96173" lon="0.07511">
        <ele>103.6</ele>
        <time>2025-03-30T08:00:03Z</time>
      </trkpt>
      <trkpt lat="43.96175" lon="0.0751">
        <ele>103.6</ele>
        <time>2025-03-30T08:00:04Z</time>
      </trkpt>
      <trkpt lat="43.96176" lon="0.07509">
        <ele>103.6</ele>
        <time>2025-03-30T08:00:05Z</time>
      </trkpt>
      <trkpt lat="43.96177" lon="0.07508">
        <ele>103.6</ele>
        <time>2025-03-30T08:00:06Z</time>
      </trkpt>
      <trkpt lat="43.96178" lon="0.07507">
        <ele>103.5</ele>
        <time>2025-03-30T08:00:07Z</time>
      </trkpt>
      <trkpt lat="43.96179" lon="0.07504">
        <ele>103.5</ele>
        <time>2025-03-30T08:00:09Z</time>
      </trkpt>
      <trkpt lat="43.9618" lon="0.07501">
        <ele>103.4</ele>
        <time>2025-03-30T08:00:11Z</time>
      </trkpt>
      <trkpt lat="43.96181" lon="0.075">
        <ele>103.4</ele>
        <time>2025-03-30T08:00:12Z</time>
      </trkpt>
      <trkpt lat="43.96182" lon="0.07499">
        <ele>103.3</ele>
        <time>2025-03-30T08:00:13Z</time>
      </trkpt>
      <trkpt lat="43.96183" lon="0.07497">
        <ele>103.3</ele>
        <time>2025-03-30T08:00:14Z</time>
      </trkpt>
      <trkpt lat="43.96184" lon="0.07495">
        <ele>103.2</ele>
        <time>2025-03-30T08:00:15Z</time>
      </trkpt>
      <trkpt lat="43.96185" lon="0.07494">
        <ele>103.1</ele>
        <time>2025-03-30T08:00:17Z</time>
      </trkpt>
      <trkpt lat="43.96186" lon="0.07493">
        <ele>103.1</ele>
        <time>2025-03-30T08:00:18Z</time>
      </trkpt>
      <trkpt lat="43.96188" lon="0.0749">
        <ele>103</ele>
        <time>2025-03-30T08:00:20Z</time>
      </trkpt>
      <trkpt lat="43.96191" lon="0.07487">
        <ele>103</ele>
        <time>2025-03-30T08:00:22Z</time>
      </trkpt>
      <trkpt lat="43.96192" lon="0.07487">
        <ele>103</ele>
        <time>2025-03-30T08:00:23Z</time>
      </trkpt>
      <trkpt lat="43.96193" lon="0.07486">
        <ele>103</ele>
        <time>2025-03-30T08:00:24Z</time>
      </trkpt>
      <trkpt lat="43.96194" lon="0.07485">
        <ele>103</ele>
        <time>2025-03-30T08:00:25Z</time>
      </trkpt>
      <trkpt lat="43.96194" lon="0.07484">
        <ele>103</ele>
        <time>2025-03-30T08:00:26Z</time>
      </trkpt>
      <trkpt lat="43.96195" lon="0.07482">
        <ele>103</ele>
        <time>2025-03-30T08:00:27Z</time>
      </trkpt>
      <trkpt lat="43.96196" lon="0.0748">
        <ele>103</ele>
        <time>2025-03-30T08:00:28Z</time>
      </trkpt>
      <trkpt lat="43.96197" lon="0.07479">
        <ele>103</ele>
        <time>2025-03-30T08:00:29Z</time>
      </trkpt>
      <trkpt lat="43.96197" lon="0.07477">
        <ele>103</ele>
        <time>2025-03-30T08:00:30Z</time>
      </trkpt>
      <trkpt lat="43.96198" lon="0.07476">
        <ele>103</ele>
        <time>2025-03-30T08:00:31Z</time>
      </trkpt>
      <trkpt lat="43.96198" lon="0.07474">
        <ele>103</ele>
        <time>2025-03-30T08:00:32Z</time>
      </trkpt>
      <trkpt lat="43.96199" lon="0.07472">
        <ele>102.9</ele>
        <time>2025-03-30T08:00:33Z</time>
      </trkpt>
      <trkpt lat="43.96199" lon="0.0747">
        <ele>102.9</ele>
        <time>2025-03-30T08:00:34Z</time>
      </trkpt>
      <trkpt lat="43.96199" lon="0.07468">
        <ele>102.9</ele>
        <time>2025-03-30T08:00:35Z</time>
      </trkpt>
      <trkpt lat="43.962" lon="0.07466">
        <ele>102.9</ele>
        <time>2025-03-30T08:00:36Z</time>
      </trkpt>
      <trkpt lat="43.962" lon="0.07464">
        <ele>102.9</ele>
        <time>2025-03-30T08:00:37Z</time>
      </trkpt>
      <trkpt lat="43.96201" lon="0.07463">
        <ele>102.9</ele>
        <time>2025-03-30T08:00:38Z</time>
      </trkpt>
      <trkpt lat="43.96202" lon="0.07462">
        <ele>102.9</ele>
        <time>2025-03-30T08:00:39Z</time>
      </trkpt>
      <trkpt lat="43.96202" lon="0.0746">
        <ele>102.9</ele>
        <time>2025-03-30T08:00:40Z</time>
      </trkpt>
      <trkpt lat="43.96203" lon="0.07458">
        <ele>102.9</ele>
        <time>2025-03-30T08:00:41Z</time>
      </trkpt>
      <trkpt lat="43.96204" lon="0.07456">
        <ele>102.8</ele>
        <time>2025-03-30T08:00:42Z</time>
      </trkpt>
      <trkpt lat="43.96204" lon="0.07455">
        <ele>102.8</ele>
        <time>2025-03-30T08:00:43Z</time>
      </trkpt>
      <trkpt lat="43.96204" lon="0.07454">
        <ele>102.8</ele>
        <time>2025-03-30T08:00:44Z</time>
      </trkpt>
      <trkpt lat="43.96205" lon="0.07452">
        <ele>102.8</ele>
        <time>2025-03-30T08:00:45Z</time>
      </trkpt>
      <trkpt lat="43.96206" lon="0.07451">
        <ele>102.8</ele>
        <time>2025-03-30T08:00:46Z</time>
      </trkpt>
      <trkpt lat="43.96208" lon="0.07449">
        <ele>102.7</ele>
        <time>2025-03-30T08:00:47Z</time>
      </trkpt>
      <trkpt lat="43.96209" lon="0.07449">
        <ele>102.7</ele>
        <time>2025-03-30T08:00:48Z</time>
      </trkpt>
      <trkpt lat="43.96209" lon="0.07448">
        <ele>102.7</ele>
        <time>2025-03-30T08:00:49Z</time>
      </trkpt>
      <trkpt lat="43.96211" lon="0.07445">
        <ele>102.7</ele>
        <time>2025-03-30T08:00:51Z</time>
      </trkpt>
      <trkpt lat="43.96211" lon="0.07444">
        <ele>102.6</ele>
        <time>2025-03-30T08:00:52Z</time>
      </trkpt>
      <trkpt lat="43.96211" lon="0.07442">
        <ele>102.6</ele>
        <time>2025-03-30T08:00:53Z</time>
      </trkpt>
      <trkpt lat="43.96212" lon="0.07441">
        <ele>102.6</ele>
        <time>2025-03-30T08:00:54Z</time>
      </trkpt>
      <trkpt lat="43.96213" lon="0.07441">
        <ele>102.6</ele>
        <time>2025-03-30T08:00:55Z</time>
      </trkpt>
      <trkpt lat="43.96216" lon="0.07439">
        <ele>102.5</ele>
        <time>2025-03-30T08:00:57Z</time>
      </trkpt>
      <trkpt lat="43.96217" lon="0.07439">
        <ele>102.5</ele>
        <time>2025-03-30T08:00:58Z</time>
      </trkpt>
      <trkpt lat="43.96219" lon="0.07437">
        <ele>102.5</ele>
        <time>2025-03-30T08:00:59Z</time>
      </trkpt>
      <trkpt lat="43.9622" lon="0.07437">
        <ele>102.5</ele>
        <time>2025-03-30T08:01:00Z</time>
      </trkpt>
      <trkpt lat="43.96221" lon="0.07436">
        <ele>102.5</ele>
        <time>2025-03-30T08:01:01Z</time>
      </trkpt>
      <trkpt lat="43.96221" lon="0.07435">
        <ele>102.5</ele>
        <time>2025-03-30T08:01:02Z</time>
      </trkpt>
      <trkpt lat="43.96221" lon="0.07434">
        <ele>102.5</ele>
        <time>2025-03-30T08:01:03Z</time>
      </trkpt>
      <trkpt lat="43.96222" lon="0.0743">
        <ele>102.5</ele>
        <time>2025-03-30T08:01:05Z</time>
      </trkpt>
      <trkpt lat="43.96222" lon="0.07428">
        <ele>102.5</ele>
        <time>2025-03-30T08:01:06Z</time>
      </trkpt>
      <trkpt lat="43.96223" lon="0.07427">
        <ele>102.5</ele>
        <time>2025-03-30T08:01:07Z</time>
      </trkpt>
      <trkpt lat="43.96223" lon="0.07424">
        <ele>102.4</ele>
        <time>2025-03-30T08:01:08Z</time>
      </trkpt>
      <trkpt lat="43.96223" lon="0.07423">
        <ele>102.4</ele>
        <time>2025-03-30T08:01:09Z</time>
      </trkpt>
      <trkpt lat="43.96224" lon="0.07422">
        <ele>102.4</ele>
        <time>2025-03-30T08:01:10Z</time>
      </trkpt>
      <trkpt lat="43.96224" lon="0.07421">
        <ele>102.4</ele>
        <time>2025-03-30T08:01:12Z</time>
      </trkpt>
      <trkpt lat="43.96225" lon="0.07419">
        <ele>102.4</ele>
        <time>2025-03-30T08:01:13Z</time>
      </trkpt>
      <trkpt lat="43.96226" lon="0.07417">
        <ele>102.4</ele>
        <time>2025-03-30T08:01:14Z</time>
      </trkpt>
      <trkpt lat="43.96227" lon="0.07416">
        <ele>102.4</ele>
        <time>2025-03-30T08:01:15Z</time>
      </trkpt>
      <trkpt lat="43.96227" lon="0.07415">
        <ele>102.4</ele>
        <time>2025-03-30T08:01:16Z</time>
      </trkpt>
      <trkpt lat="43.96229" lon="0.07414">
        <ele>102.4</ele>
        <time>2025-03-30T08:01:17Z</time>
      </trkpt>
      <trkpt lat="43.9623" lon="0.07413">
        <ele>102.4</ele>
        <time>2025-03-30T08:01:18Z</time>
      </trkpt>
      <trkpt lat="43.96231" lon="0.07412">
        <ele>102.4</ele>
        <time>2025-03-30T08:01:19Z</time>
      </trkpt>
      <trkpt lat="43.96232" lon="0.07412">
        <ele>102.4</ele>
        <time>2025-03-30T08:01:20Z</time>
      </trkpt>
      <trkpt lat="43.96233" lon="0.07412">
        <ele>102.3</ele>
        <time>2025-03-30T08:01:21Z</time>
      </trkpt>
      <trkpt lat="43.96235" lon="0.0741">
        <ele>102.3</ele>
        <time>2025-03-30T08:01:23Z</time>
      </trkpt>
      <trkpt lat="43.96235" lon="0.07409">
        <ele>102.3</ele>
        <time>2025-03-30T08:01:24Z</time>
      </trkpt>
      <trkpt lat="43.96236" lon="0.07408">
        <ele>102.3</ele>
        <time>2025-03-30T08:01:25Z</time>
      </trkpt>
      <trkpt lat="43.96237" lon="0.07406">
        <ele>102.2</ele>
        <time>2025-03-30T08:01:26Z</time>
      </trkpt>
      <trkpt lat="43.96238" lon="0.07405">
        <ele>102.2</ele>
        <time>2025-03-30T08:01:27Z</time>
      </trkpt>
      <trkpt lat="43.96239" lon="0.07403">
        <ele>102.2</ele>
        <time>2025-03-30T08:01:29Z</time>
      </trkpt>
      <trkpt lat="43.9624" lon="0.07402">
        <ele>102.1</ele>
        <time>2025-03-30T08:01:30Z</time>
      </trkpt>
      <trkpt lat="43.96242" lon="0.07399">
        <ele>102.1</ele>
        <time>2025-03-30T08:01:31Z</time>
      </trkpt>
      <trkpt lat="43.96243" lon="0.07398">
        <ele>102.1</ele>
        <time>2025-03-30T08:01:32Z</time>
      </trkpt>
      <trkpt lat="43.96243" lon="0.07397">
        <ele>102</ele>
        <time>2025-03-30T08:01:33Z</time>
      </trkpt>
      <trkpt lat="43.96244" lon="0.07396">
        <ele>102</ele>
        <time>2025-03-30T08:01:34Z</time>
      </trkpt>
      <trkpt lat="43.96245" lon="0.07394">
        <ele>101.9</ele>
        <time>2025-03-30T08:01:36Z</time>
      </trkpt>
      <trkpt lat="43.96247" lon="0.07391">
        <ele>101.8</ele>
        <time>2025-03-30T08:01:37Z</time>
      </trkpt>
      <trkpt lat="43.96248" lon="0.07391">
        <ele>101.8</ele>
        <time>2025-03-30T08:01:38Z</time>
      </trkpt>
      <trkpt lat="43.96251" lon="0.07389">
        <ele>101.7</ele>
        <time>2025-03-30T08:01:40Z</time>
      </trkpt>
      <trkpt lat="43.96252" lon="0.07388">
        <ele>101.7</ele>
        <time>2025-03-30T08:01:41Z</time>
      </trkpt>
      <trkpt lat="43.96253" lon="0.07386">
        <ele>101.6</ele>
        <time>2025-03-30T08:01:43Z</time>
      </trkpt>
      <trkpt lat="43.96254" lon="0.07386">
        <ele>101.6</ele>
        <time>2025-03-30T08:01:44Z</time>
      </trkpt>
      <trkpt lat="43.96254" lon="0.07384">
        <ele>101.5</ele>
        <time>2025-03-30T08:01:45Z</time>
      </trkpt>
      <trkpt lat="43.96254" lon="0.07383">
        <ele>101.5</ele>
        <time>2025-03-30T08:01:46Z</time>
      </trkpt>
      <trkpt lat="43.96254" lon="0.07382">
        <ele>101.5</ele>
        <time>2025-03-30T08:01:47Z</time>
      </trkpt>
      <trkpt lat="43.96255" lon="0.07381">
        <ele>101.4</ele>
        <time>2025-03-30T08:01:48Z</time>
      </trkpt>
      <trkpt lat="43.96256" lon="0.0738">
        <ele>101.3</ele>
        <time>2025-03-30T08:01:50Z</time>
      </trkpt>
      <trkpt lat="43.96258" lon="0.07378">
        <ele>101.2</ele>
        <time>2025-03-30T08:01:51Z</time>
      </trkpt>
      <trkpt lat="43.96259" lon="0.07377">
        <ele>101.1</ele>
        <time>2025-03-30T08:01:52Z</time>
      </trkpt>
      <trkpt lat="43.96262" lon="0.07375">
        <ele>100.9</ele>
        <time>2025-03-30T08:01:54Z</time>
      </trkpt>
      <trkpt lat="43.96263" lon="0.07375">
        <ele>100.9</ele>
        <time>2025-03-30T08:01:55Z</time>
      </trkpt>
      <trkpt lat="43.96264" lon="0.07373">
        <ele>100.8</ele>
        <time>2025-03-30T08:01:57Z</time>
      </trkpt>
      <trkpt lat="43.96265" lon="0.07372">
        <ele>100.7</ele>
        <time>2025-03-30T08:01:58Z</time>
      </trkpt>
      <trkpt lat="43.96266" lon="0.07372">
        <ele>100.6</ele>
        <time>2025-03-30T08:01:59Z</time>
      </trkpt>
      <trkpt lat="43.96267" lon="0.07371">
        <ele>100.5</ele>
        <time>2025-03-30T08:02:00Z</time>
      </trkpt>
      <trkpt lat="43.96269" lon="0.0737">
        <ele>100.4</ele>
        <time>2025-03-30T08:02:02Z</time>
      </trkpt>
      <trkpt lat="43.96269" lon="0.07369">
        <ele>100.3</ele>
        <time>2025-03-30T08:02:03Z</time>
      </trkpt>
      <trkpt lat="43.96271" lon="0.07369">
        <ele>100.3</ele>
        <time>2025-03-30T08:02:04Z</time>
      </trkpt>
      <trkpt lat="43.96272" lon="0.07368">
        <ele>100.2</ele>
        <time>2025-03-30T08:02:05Z</time>
      </trkpt>
      <trkpt lat="43.96273" lon="0.07368">
        <ele>100.1</ele>
        <time>2025-03-30T08:02:06Z</time>
      </trkpt>
      <trkpt lat="43.96275" lon="0.07369">
        <ele>100</ele>
        <time>2025-03-30T08:02:07Z</time>
      </trkpt>
      <trkpt lat="43.96276" lon="0.07368">
        <ele>100</ele>
        <time>2025-03-30T08:02:08Z</time>
      </trkpt>
      <trkpt lat="43.96277" lon="0.07368">
        <ele>99.9</ele>
        <time>2025-03-30T08:02:09Z</time>
      </trkpt>
      <trkpt lat="43.96279" lon="0.07368">
        <ele>99.9</ele>
        <time>2025-03-30T08:02:10Z</time>
      </trkpt>
      <trkpt lat="43.9628" lon="0.07367">
        <ele>99.8</ele>
        <time>2025-03-30T08:02:11Z</time>
      </trkpt>
      <trkpt lat="43.96281" lon="0.07368">
        <ele>99.8</ele>
        <time>2025-03-30T08:02:13Z</time>
      </trkpt>
      <trkpt lat="43.96282" lon="0.07366">
        <ele>99.7</ele>
        <time>2025-03-30T08:02:14Z</time>
      </trkpt>
      <trkpt lat="43.96283" lon="0.07365">
        <ele>99.7</ele>
        <time>2025-03-30T08:02:15Z</time>
      </trkpt>
      <trkpt lat="43.96285" lon="0.07363">
        <ele>99.6</ele>
        <time>2025-03-30T08:02:17Z</time>
      </trkpt>
      <trkpt lat="43.96286" lon="0.07361">
        <ele>99.6</ele>
        <time>2025-03-30T08:02:18Z</time>
      </trkpt>
      <trkpt lat="43.96287" lon="0.0736">
        <ele>99.6</ele>
        <time>2025-03-30T08:02:19Z</time>
      </trkpt>
      <trkpt lat="43.96287" lon="0.07359">
        <ele>99.6</ele>
        <time>2025-03-30T08:02:20Z</time>
      </trkpt>
      <trkpt lat="43.96289" lon="0.07357">
        <ele>99.5</ele>
        <time>2025-03-30T08:02:21Z</time>
      </trkpt>
      <trkpt lat="43.9629" lon="0.07356">
        <ele>99.5</ele>
        <time>2025-03-30T08:02:22Z</time>
      </trkpt>
      <trkpt lat="43.96291" lon="0.07354">
        <ele>99.5</ele>
        <time>2025-03-30T08:02:23Z</time>
      </trkpt>
      <trkpt lat="43.96292" lon="0.07353">
        <ele>99.5</ele>
        <time>2025-03-30T08:02:24Z</time>
      </trkpt>
      <trkpt lat="43.96292" lon="0.07351">
        <ele>99.5</ele>
        <time>2025-03-30T08:02:25Z</time>
      </trkpt>
      <trkpt lat="43.96293" lon="0.07349">
        <ele>99.5</ele>
        <time>2025-03-30T08:02:26Z</time>
      </trkpt>
      <trkpt lat="43.96294" lon="0.07348">
        <ele>99.5</ele>
        <time>2025-03-30T08:02:27Z</time>
      </trkpt>
      <trkpt lat="43.96295" lon="0.07347">
        <ele>99.5</ele>
        <time>2025-03-30T08:02:28Z</time>
      </trkpt>
      <trkpt lat="43.96297" lon="0.07345">
        <ele>99.6</ele>
        <time>2025-03-30T08:02:29Z</time>
      </trkpt>
      <trkpt lat="43.96298" lon="0.07344">
        <ele>99.6</ele>
        <time>2025-03-30T08:02:30Z</time>
      </trkpt>
      <trkpt lat="43.96299" lon="0.07343">
        <ele>99.6</ele>
        <time>2025-03-30T08:02:31Z</time>
      </trkpt>
      <trkpt lat="43.963" lon="0.07342">
        <ele>99.6</ele>
        <time>2025-03-30T08:02:33Z</time>
      </trkpt>
      <trkpt lat="43.96303" lon="0.0734">
        <ele>99.7</ele>
        <time>2025-03-30T08:02:34Z</time>
      </trkpt>
      <trkpt lat="43.96307" lon="0.07337">
        <ele>99.8</ele>
        <time>2025-03-30T08:02:36Z</time>
      </trkpt>
      <trkpt lat="43.96309" lon="0.07337">
        <ele>99.8</ele>
        <time>2025-03-30T08:02:37Z</time>
      </trkpt>
      <trkpt lat="43.9631" lon="0.07336">
        <ele>99.8</ele>
        <time>2025-03-30T08:02:39Z</time>
      </trkpt>
      <trkpt lat="43.96311" lon="0.07335">
        <ele>99.9</ele>
        <time>2025-03-30T08:02:40Z</time>
      </trkpt>
      <trkpt lat="43.96313" lon="0.07334">
        <ele>99.9</ele>
        <time>2025-03-30T08:02:41Z</time>
      </trkpt>
      <trkpt lat="43.96315" lon="0.07332">
        <ele>99.9</ele>
        <time>2025-03-30T08:02:42Z</time>
      </trkpt>
      <trkpt lat="43.96316" lon="0.07331">
        <ele>99.9</ele>
        <time>2025-03-30T08:02:44Z</time>
      </trkpt>
      <trkpt lat="43.96317" lon="0.0733">
        <ele>99.9</ele>
        <time>2025-03-30T08:02:45Z</time>
      </trkpt>
      <trkpt lat="43.96318" lon="0.07328">
        <ele>100</ele>
        <time>2025-03-30T08:02:46Z</time>
      </trkpt>
      <trkpt lat="43.96319" lon="0.07327">
        <ele>100</ele>
        <time>2025-03-30T08:02:47Z</time>
      </trkpt>
      <trkpt lat="43.9632" lon="0.07326">
        <ele>100</ele>
        <time>2025-03-30T08:02:48Z</time>
      </trkpt>
      <trkpt lat="43.96321" lon="0.07325">
        <ele>100</ele>
        <time>2025-03-30T08:02:50Z</time>
      </trkpt>
      <trkpt lat="43.96323" lon="0.07323">
        <ele>100</ele>
        <time>2025-03-30T08:02:51Z</time>
      </trkpt>
      <trkpt lat="43.96324" lon="0.07322">
        <ele>100</ele>
        <time>2025-03-30T08:02:52Z</time>
      </trkpt>
      <trkpt lat="43.96325" lon="0.07321">
        <ele>100</ele>
        <time>2025-03-30T08:02:53Z</time>
      </trkpt>
      <trkpt lat="43.96326" lon="0.0732">
        <ele>100</ele>
        <time>2025-03-30T08:02:54Z</time>
      </trkpt>
      <trkpt lat="43.96327" lon="0.07319">
        <ele>100</ele>
        <time>2025-03-30T08:02:55Z</time>
      </trkpt>
      <trkpt lat="43.96329" lon="0.07317">
        <ele>100</ele>
        <time>2025-03-30T08:02:56Z</time>
      </trkpt>
      <trkpt lat="43.96329" lon="0.07316">
        <ele>100</ele>
        <time>2025-03-30T08:02:57Z</time>
      </trkpt>
      <trkpt lat="43.9633" lon="0.07316">
        <ele>100</ele>
        <time>2025-03-30T08:02:58Z</time>
      </trkpt>
      <trkpt lat="43.96331" lon="0.07315">
        <ele>100</ele>
        <time>2025-03-30T08:02:59Z</time>
      </trkpt>
      <trkpt lat="43.96332" lon="0.07315">
        <ele>100</ele>
        <time>2025-03-30T08:03:00Z</time>
      </trkpt>
      <trkpt lat="43.96335" lon="0.07314">
        <ele>100</ele>
        <time>2025-03-30T08:03:02Z</time>
      </trkpt>
      <trkpt lat="43.96336" lon="0.07314">
        <ele>100</ele>
        <time>2025-03-30T08:03:03Z</time>
      </trkpt>
      <trkpt lat="43.96337" lon="0.07314">
        <ele>100</ele>
        <time>2025-03-30T08:03:04Z</time>
      </trkpt>
      <trkpt lat="43.96338" lon="0.07315">
        <ele>100</ele>
        <time>2025-03-30T08:03:05Z</time>
      </trkpt>
      <trkpt lat="43.96339" lon="0.07315">
        <ele>100</ele>
        <time>2025-03-30T08:03:07Z</time>
      </trkpt>
      <trkpt lat="43.96341" lon="0.07314">
        <ele>100</ele>
        <time>2025-03-30T08:03:08Z</time>
      </trkpt>
      <trkpt lat="43.96342" lon="0.07311">
        <ele>99.9</ele>
        <time>2025-03-30T08:03:10Z</time>
      </trkpt>
      <trkpt lat="43.96342" lon="0.07309">
        <ele>99.9</ele>
        <time>2025-03-30T08:03:11Z</time>
      </trkpt>
      <trkpt lat="43.96343" lon="0.07307">
        <ele>99.9</ele>
        <time>2025-03-30T08:03:12Z</time>
      </trkpt>
      <trkpt lat="43.96344" lon="0.07305">
        <ele>99.9</ele>
        <time>2025-03-30T08:03:13Z</time>
      </trkpt>
      <trkpt lat="43.96345" lon="0.07304">
        <ele>99.9</ele>
        <time>2025-03-30T08:03:14Z</time>
      </trkpt>
      <trkpt lat="43.96346" lon="0.07303">
        <ele>99.8</ele>
        <time>2025-03-30T08:03:16Z</time>
      </trkpt>
      <trkpt lat="43.96348" lon="0.07301">
        <ele>99.8</ele>
        <time>2025-03-30T08:03:17Z</time>
      </trkpt>
      <trkpt lat="43.9635" lon="0.073">
        <ele>99.8</ele>
        <time>2025-03-30T08:03:19Z</time>
      </trkpt>
      <trkpt lat="43.96351" lon="0.07299">
        <ele>99.8</ele>
        <time>2025-03-30T08:03:20Z</time>
      </trkpt>
      <trkpt lat="43.96351" lon="0.07299">
        <ele>99.8</ele>
        <time>2025-03-30T08:03:21Z</time>
      </trkpt>
      <trkpt lat="43.96353" lon="0.07298">
        <ele>99.7</ele>
        <time>2025-03-30T08:03:22Z</time>
      </trkpt>
      <trkpt lat="43.96354" lon="0.07297">
        <ele>99.7</ele>
        <time>2025-03-30T08:03:23Z</time>
      </trkpt>
      <trkpt lat="43.96356" lon="0.07295">
        <ele>99.7</ele>
        <time>2025-03-30T08:03:24Z</time>
      </trkpt>
      <trkpt lat="43.96357" lon="0.07295">
        <ele>99.7</ele>
        <time>2025-03-30T08:03:25Z</time>
      </trkpt>
      <trkpt lat="43.96357" lon="0.07295">
        <ele>99.7</ele>
        <time>2025-03-30T08:03:26Z</time>
      </trkpt>
      <trkpt lat="43.96359" lon="0.07293">
        <ele>99.6</ele>
        <time>2025-03-30T08:03:28Z</time>
      </trkpt>
      <trkpt lat="43.96361" lon="0.07292">
        <ele>99.6</ele>
        <time>2025-03-30T08:03:30Z</time>
      </trkpt>
      <trkpt lat="43.96362" lon="0.07291">
        <ele>99.6</ele>
        <time>2025-03-30T08:03:31Z</time>
      </trkpt>
      <trkpt lat="43.96364" lon="0.07289">
        <ele>99.5</ele>
        <time>2025-03-30T08:03:32Z</time>
      </trkpt>
      <trkpt lat="43.96365" lon="0.07288">
        <ele>99.5</ele>
        <time>2025-03-30T08:03:33Z</time>
      </trkpt>
      <trkpt lat="43.96365" lon="0.07287">
        <ele>99.5</ele>
        <time>2025-03-30T08:03:34Z</time>
      </trkpt>
      <trkpt lat="43.96366" lon="0.07286">
        <ele>99.5</ele>
        <time>2025-03-30T08:03:35Z</time>
      </trkpt>
      <trkpt lat="43.96368" lon="0.07284">
        <ele>99.5</ele>
        <time>2025-03-30T08:03:36Z</time>
      </trkpt>
      <trkpt lat="43.96368" lon="0.07283">
        <ele>99.5</ele>
        <time>2025-03-30T08:03:37Z</time>
      </trkpt>
      <trkpt lat="43.9637" lon="0.07281">
        <ele>99.4</ele>
        <time>2025-03-30T08:03:39Z</time>
      </trkpt>
      <trkpt lat="43.96371" lon="0.0728">
        <ele>99.4</ele>
        <time>2025-03-30T08:03:40Z</time>
      </trkpt>
      <trkpt lat="43.96373" lon="0.07279">
        <ele>99.4</ele>
        <time>2025-03-30T08:03:41Z</time>
      </trkpt>
      <trkpt lat="43.96374" lon="0.07278">
        <ele>99.4</ele>
        <time>2025-03-30T08:03:42Z</time>
      </trkpt>
      <trkpt lat="43.96374" lon="0.07277">
        <ele>99.3</ele>
        <time>2025-03-30T08:03:43Z</time>
      </trkpt>
      <trkpt lat="43.96376" lon="0.07276">
        <ele>99.3</ele>
        <time>2025-03-30T08:03:44Z</time>
      </trkpt>
      <trkpt lat="43.96376" lon="0.07276">
        <ele>99.3</ele>
        <time>2025-03-30T08:03:45Z</time>
      </trkpt>
      <trkpt lat="43.96377" lon="0.07275">
        <ele>99.3</ele>
        <time>2025-03-30T08:03:46Z</time>
      </trkpt>
      <trkpt lat="43.9638" lon="0.07273">
        <ele>99.2</ele>
        <time>2025-03-30T08:03:48Z</time>
      </trkpt>
      <trkpt lat="43.96381" lon="0.07272">
        <ele>99.2</ele>
        <time>2025-03-30T08:03:49Z</time>
      </trkpt>
      <trkpt lat="43.96384" lon="0.0727">
        <ele>99.2</ele>
        <time>2025-03-30T08:03:51Z</time>
      </trkpt>
      <trkpt lat="43.96385" lon="0.0727">
        <ele>99.1</ele>
        <time>2025-03-30T08:03:52Z</time>
      </trkpt>
      <trkpt lat="43.96387" lon="0.07269">
        <ele>99.1</ele>
        <time>2025-03-30T08:03:53Z</time>
      </trkpt>
      <trkpt lat="43.96388" lon="0.07268">
        <ele>99.1</ele>
        <time>2025-03-30T08:03:54Z</time>
      </trkpt>
      <trkpt lat="43.96389" lon="0.07267">
        <ele>99</ele>
        <time>2025-03-30T08:03:55Z</time>
      </trkpt>
      <trkpt lat="43.96391" lon="0.07267">
        <ele>99</ele>
        <time>2025-03-30T08:03:56Z</time>
      </trkpt>
      <trkpt lat="43.96392" lon="0.07267">
        <ele>99</ele>
        <time>2025-03-30T08:03:57Z</time>
      </trkpt>
      <trkpt lat="43.96393" lon="0.07267">
        <ele>98.9</ele>
        <time>2025-03-30T08:03:58Z</time>
      </trkpt>
      <trkpt lat="43.96394" lon="0.07267">
        <ele>98.9</ele>
        <time>2025-03-30T08:03:59Z</time>
      </trkpt>
      <trkpt lat="43.96395" lon="0.07267">
        <ele>98.9</ele>
        <time>2025-03-30T08:04:00Z</time>
      </trkpt>
      <trkpt lat="43.96396" lon="0.07266">
        <ele>98.9</ele>
        <time>2025-03-30T08:04:01Z</time>
      </trkpt>
      <trkpt lat="43.96397" lon="0.07266">
        <ele>98.9</ele>
        <time>2025-03-30T08:04:02Z</time>
      </trkpt>
      <trkpt lat="43.96398" lon="0.07265">
        <ele>98.8</ele>
        <time>2025-03-30T08:04:03Z</time>
      </trkpt>
      <trkpt lat="43.96399" lon="0.07263">
        <ele>98.8</ele>
        <time>2025-03-30T08:04:04Z</time>
      </trkpt>
      <trkpt lat="43.96401" lon="0.07261">
        <ele>98.8</ele>
        <time>2025-03-30T08:04:05Z</time>
      </trkpt>
      <trkpt lat="43.96401" lon="0.0726">
        <ele>98.8</ele>
        <time>2025-03-30T08:04:06Z</time>
      </trkpt>
      <trkpt lat="43.96402" lon="0.07259">
        <ele>98.8</ele>
        <time>2025-03-30T08:04:07Z</time>
      </trkpt>
      <trkpt lat="43.96403" lon="0.07257">
        <ele>98.7</ele>
        <time>2025-03-30T08:04:08Z</time>
      </trkpt>
      <trkpt lat="43.96404" lon="0.07256">
        <ele>98.7</ele>
        <time>2025-03-30T08:04:09Z</time>
      </trkpt>
      <trkpt lat="43.96406" lon="0.07254">
        <ele>98.7</ele>
        <time>2025-03-30T08:04:11Z</time>
      </trkpt>
      <trkpt lat="43.96407" lon="0.07252">
        <ele>98.7</ele>
        <time>2025-03-30T08:04:12Z</time>
      </trkpt>
      <trkpt lat="43.96408" lon="0.07251">
        <ele>98.7</ele>
        <time>2025-03-30T08:04:13Z</time>
      </trkpt>
      <trkpt lat="43.96409" lon="0.07249">
        <ele>98.7</ele>
        <time>2025-03-30T08:04:14Z</time>
      </trkpt>
      <trkpt lat="43.9641" lon="0.07249">
        <ele>98.7</ele>
        <time>2025-03-30T08:04:15Z</time>
      </trkpt>
      <trkpt lat="43.96411" lon="0.07248">
        <ele>98.7</ele>
        <time>2025-03-30T08:04:16Z</time>
      </trkpt>
      <trkpt lat="43.96413" lon="0.07246">
        <ele>98.7</ele>
        <time>2025-03-30T08:04:17Z</time>
      </trkpt>
      <trkpt lat="43.96414" lon="0.07245">
        <ele>98.7</ele>
        <time>2025-03-30T08:04:19Z</time>
      </trkpt>
      <trkpt lat="43.96415" lon="0.07244">
        <ele>98.7</ele>
        <time>2025-03-30T08:04:20Z</time>
      </trkpt>
      <trkpt lat="43.96416" lon="0.07243">
        <ele>98.6</ele>
        <time>2025-03-30T08:04:21Z</time>
      </trkpt>
      <trkpt lat="43.96417" lon="0.07241">
        <ele>98.6</ele>
        <time>2025-03-30T08:04:22Z</time>
      </trkpt>
      <trkpt lat="43.9642" lon="0.07239">
        <ele>98.6</ele>
        <time>2025-03-30T08:04:24Z</time>
      </trkpt>
      <trkpt lat="43.96421" lon="0.07238">
        <ele>98.5</ele>
        <time>2025-03-30T08:04:25Z</time>
      </trkpt>
      <trkpt lat="43.96425" lon="0.07235">
        <ele>98.5</ele>
        <time>2025-03-30T08:04:27Z</time>
      </trkpt>
      <trkpt lat="43.96425" lon="0.07234">
        <ele>98.4</ele>
        <time>2025-03-30T08:04:28Z</time>
      </trkpt>
      <trkpt lat="43.96426" lon="0.07233">
        <ele>98.4</ele>
        <time>2025-03-30T08:04:29Z</time>
      </trkpt>
      <trkpt lat="43.96427" lon="0.07232">
        <ele>98.4</ele>
        <time>2025-03-30T08:04:30Z</time>
      </trkpt>
      <trkpt lat="43.96428" lon="0.07231">
        <ele>98.4</ele>
        <time>2025-03-30T08:04:31Z</time>
      </trkpt>
      <trkpt lat="43.96429" lon="0.0723">
        <ele>98.4</ele>
        <time>2025-03-30T08:04:32Z</time>
      </trkpt>
      <trkpt lat="43.9643" lon="0.07229">
        <ele>98.3</ele>
        <time>2025-03-30T08:04:33Z</time>
      </trkpt>
      <trkpt lat="43.9643" lon="0.07228">
        <ele>98.3</ele>
        <time>2025-03-30T08:04:34Z</time>
      </trkpt>
      <trkpt lat="43.96432" lon="0.07227">
        <ele>98.3</ele>
        <time>2025-03-30T08:04:36Z</time>
      </trkpt>
      <trkpt lat="43.96433" lon="0.07227">
        <ele>98.3</ele>
        <time>2025-03-30T08:04:37Z</time>
      </trkpt>
      <trkpt lat="43.96434" lon="0.07228">
        <ele>98.2</ele>
        <time>2025-03-30T08:04:38Z</time>
      </trkpt>
      <trkpt lat="43.96436" lon="0.07228">
        <ele>98.2</ele>
        <time>2025-03-30T08:04:39Z</time>
      </trkpt>
      <trkpt lat="43.96437" lon="0.07228">
        <ele>98.2</ele>
        <time>2025-03-30T08:04:40Z</time>
      </trkpt>
      <trkpt lat="43.96437" lon="0.07228">
        <ele>98.2</ele>
        <time>2025-03-30T08:04:41Z</time>
      </trkpt>
      <trkpt lat="43.96438" lon="0.07228">
        <ele>98.2</ele>
        <time>2025-03-30T08:04:42Z</time>
      </trkpt>
      <trkpt lat="43.9644" lon="0.07227">
        <ele>98.2</ele>
        <time>2025-03-30T08:04:43Z</time>
      </trkpt>
      <trkpt lat="43.96441" lon="0.07225">
        <ele>98.2</ele>
        <time>2025-03-30T08:04:44Z</time>
      </trkpt>
      <trkpt lat="43.96441" lon="0.07224">
        <ele>98.2</ele>
        <time>2025-03-30T08:04:45Z</time>
      </trkpt>
      <trkpt lat="43.96442" lon="0.07224">
        <ele>98.2</ele>
        <time>2025-03-30T08:04:46Z</time>
      </trkpt>
      <trkpt lat="43.96442" lon="0.07223">
        <ele>98.2</ele>
        <time>2025-03-30T08:04:47Z</time>
      </trkpt>
      <trkpt lat="43.96443" lon="0.07222">
        <ele>98.1</ele>
        <time>2025-03-30T08:04:48Z</time>
      </trkpt>
      <trkpt lat="43.96444" lon="0.07219">
        <ele>98.1</ele>
        <time>2025-03-30T08:04:49Z</time>
      </trkpt>
      <trkpt lat="43.96446" lon="0.07218">
        <ele>98.1</ele>
        <time>2025-03-30T08:04:50Z</time>
      </trkpt>
      <trkpt lat="43.96447" lon="0.07217">
        <ele>98.1</ele>
        <time>2025-03-30T08:04:51Z</time>
      </trkpt>
      <trkpt lat="43.96449" lon="0.07216">
        <ele>98.1</ele>
        <time>2025-03-30T08:04:52Z</time>
      </trkpt>
      <trkpt lat="43.9645" lon="0.07215">
        <ele>98.1</ele>
        <time>2025-03-30T08:04:53Z</time>
      </trkpt>
      <trkpt lat="43.96452" lon="0.07214">
        <ele>98</ele>
        <time>2025-03-30T08:04:54Z</time>
      </trkpt>
      <trkpt lat="43.96453" lon="0.07213">
        <ele>98</ele>
        <time>2025-03-30T08:04:55Z</time>
      </trkpt>
      <trkpt lat="43.96454" lon="0.07212">
        <ele>98</ele>
        <time>2025-03-30T08:04:56Z</time>
      </trkpt>
      <trkpt lat="43.96454" lon="0.07212">
        <ele>98</ele>
        <time>2025-03-30T08:04:57Z</time>
      </trkpt>
      <trkpt lat="43.96455" lon="0.07211">
        <ele>97.9</ele>
        <time>2025-03-30T08:04:58Z</time>
      </trkpt>
      <trkpt lat="43.96457" lon="0.0721">
        <ele>97.9</ele>
        <time>2025-03-30T08:04:59Z</time>
      </trkpt>
      <trkpt lat="43.96459" lon="0.07207">
        <ele>97.8</ele>
        <time>2025-03-30T08:05:01Z</time>
      </trkpt>
      <trkpt lat="43.96461" lon="0.07206">
        <ele>97.8</ele>
        <time>2025-03-30T08:05:02Z</time>
      </trkpt>
      <trkpt lat="43.96461" lon="0.07207">
        <ele>97.8</ele>
        <time>2025-03-30T08:05:03Z</time>
      </trkpt>
      <trkpt lat="43.96462" lon="0.07207">
        <ele>97.7</ele>
        <time>2025-03-30T08:05:04Z</time>
      </trkpt>
      <trkpt lat="43.96464" lon="0.07208">
        <ele>97.6</ele>
        <time>2025-03-30T08:05:05Z</time>
      </trkpt>
      <trkpt lat="43.96465" lon="0.07208">
        <ele>97.6</ele>
        <time>2025-03-30T08:05:07Z</time>
      </trkpt>
      <trkpt lat="43.96467" lon="0.07209">
        <ele>97.5</ele>
        <time>2025-03-30T08:05:08Z</time>
      </trkpt>
      <trkpt lat="43.96468" lon="0.07208">
        <ele>97.4</ele>
        <time>2025-03-30T08:05:09Z</time>
      </trkpt>
      <trkpt lat="43.96471" lon="0.07208">
        <ele>97.3</ele>
        <time>2025-03-30T08:05:10Z</time>
      </trkpt>
      <trkpt lat="43.96472" lon="0.07207">
        <ele>97.2</ele>
        <time>2025-03-30T08:05:11Z</time>
      </trkpt>
      <trkpt lat="43.96473" lon="0.07206">
        <ele>97.2</ele>
        <time>2025-03-30T08:05:12Z</time>
      </trkpt>
      <trkpt lat="43.96474" lon="0.07205">
        <ele>97.1</ele>
        <time>2025-03-30T08:05:13Z</time>
      </trkpt>
      <trkpt lat="43.96476" lon="0.07204">
        <ele>97</ele>
        <time>2025-03-30T08:05:15Z</time>
      </trkpt>
      <trkpt lat="43.96477" lon="0.07203">
        <ele>96.9</ele>
        <time>2025-03-30T08:05:16Z</time>
      </trkpt>
      <trkpt lat="43.96479" lon="0.07202">
        <ele>96.8</ele>
        <time>2025-03-30T08:05:18Z</time>
      </trkpt>
      <trkpt lat="43.9648" lon="0.07201">
        <ele>96.7</ele>
        <time>2025-03-30T08:05:19Z</time>
      </trkpt>
      <trkpt lat="43.96481" lon="0.072">
        <ele>96.7</ele>
        <time>2025-03-30T08:05:20Z</time>
      </trkpt>
      <trkpt lat="43.96482" lon="0.07199">
        <ele>96.6</ele>
        <time>2025-03-30T08:05:21Z</time>
      </trkpt>
      <trkpt lat="43.96483" lon="0.07198">
        <ele>96.6</ele>
        <time>2025-03-30T08:05:22Z</time>
      </trkpt>
      <trkpt lat="43.96484" lon="0.07198">
        <ele>96.6</ele>
        <time>2025-03-30T08:05:23Z</time>
      </trkpt>
      <trkpt lat="43.96486" lon="0.07196">
        <ele>96.5</ele>
        <time>2025-03-30T08:05:24Z</time>
      </trkpt>
      <trkpt lat="43.96487" lon="0.07195">
        <ele>96.5</ele>
        <time>2025-03-30T08:05:25Z</time>
      </trkpt>
      <trkpt lat="43.96487" lon="0.07195">
        <ele>96.4</ele>
        <time>2025-03-30T08:05:26Z</time>
      </trkpt>
      <trkpt lat="43.96488" lon="0.07194">
        <ele>96.4</ele>
        <time>2025-03-30T08:05:27Z</time>
      </trkpt>
      <trkpt lat="43.96491" lon="0.07192">
        <ele>96.3</ele>
        <time>2025-03-30T08:05:29Z</time>
      </trkpt>
      <trkpt lat="43.96492" lon="0.07192">
        <ele>96.3</ele>
        <time>2025-03-30T08:05:30Z</time>
      </trkpt>
      <trkpt lat="43.96494" lon="0.07191">
        <ele>96.3</ele>
        <time>2025-03-30T08:05:31Z</time>
      </trkpt>
      <trkpt lat="43.96495" lon="0.07191">
        <ele>96.3</ele>
        <time>2025-03-30T08:05:32Z</time>
      </trkpt>
      <trkpt lat="43.96497" lon="0.0719">
        <ele>96.3</ele>
        <time>2025-03-30T08:05:33Z</time>
      </trkpt>
      <trkpt lat="43.965" lon="0.07189">
        <ele>96.2</ele>
        <time>2025-03-30T08:05:35Z</time>
      </trkpt>
      <trkpt lat="43.96501" lon="0.07188">
        <ele>96.2</ele>
        <time>2025-03-30T08:05:36Z</time>
      </trkpt>
      <trkpt lat="43.96504" lon="0.07187">
        <ele>96.2</ele>
        <time>2025-03-30T08:05:38Z</time>
      </trkpt>
      <trkpt lat="43.96506" lon="0.07185">
        <ele>96.1</ele>
        <time>2025-03-30T08:05:39Z</time>
      </trkpt>
      <trkpt lat="43.96507" lon="0.07185">
        <ele>96.1</ele>
        <time>2025-03-30T08:05:40Z</time>
      </trkpt>
      <trkpt lat="43.96508" lon="0.07185">
        <ele>96.1</ele>
        <time>2025-03-30T08:05:41Z</time>
      </trkpt>
      <trkpt lat="43.9651" lon="0.07183">
        <ele>96.1</ele>
        <time>2025-03-30T08:05:43Z</time>
      </trkpt>
      <trkpt lat="43.96512" lon="0.07182">
        <ele>96</ele>
        <time>2025-03-30T08:05:44Z</time>
      </trkpt>
      <trkpt lat="43.96512" lon="0.07181">
        <ele>96</ele>
        <time>2025-03-30T08:05:45Z</time>
      </trkpt>
      <trkpt lat="43.96514" lon="0.0718">
        <ele>96</ele>
        <time>2025-03-30T08:05:46Z</time>
      </trkpt>
      <trkpt lat="43.96515" lon="0.07179">
        <ele>96</ele>
        <time>2025-03-30T08:05:47Z</time>
      </trkpt>
      <trkpt lat="43.96516" lon="0.07178">
        <ele>96</ele>
        <time>2025-03-30T08:05:48Z</time>
      </trkpt>
      <trkpt lat="43.96517" lon="0.07178">
        <ele>95.9</ele>
        <time>2025-03-30T08:05:49Z</time>
      </trkpt>
      <trkpt lat="43.96519" lon="0.07175">
        <ele>95.9</ele>
        <time>2025-03-30T08:05:51Z</time>
      </trkpt>
      <trkpt lat="43.9652" lon="0.07174">
        <ele>95.9</ele>
        <time>2025-03-30T08:05:52Z</time>
      </trkpt>
      <trkpt lat="43.96521" lon="0.07173">
        <ele>95.9</ele>
        <time>2025-03-30T08:05:53Z</time>
      </trkpt>
      <trkpt lat="43.96523" lon="0.07172">
        <ele>95.8</ele>
        <time>2025-03-30T08:05:54Z</time>
      </trkpt>
      <trkpt lat="43.96524" lon="0.0717">
        <ele>95.8</ele>
        <time>2025-03-30T08:05:55Z</time>
      </trkpt>
      <trkpt lat="43.96525" lon="0.0717">
        <ele>95.8</ele>
        <time>2025-03-30T08:05:56Z</time>
      </trkpt>
      <trkpt lat="43.96526" lon="0.07169">
        <ele>95.8</ele>
        <time>2025-03-30T08:05:57Z</time>
      </trkpt>
      <trkpt lat="43.96528" lon="0.07168">
        <ele>95.8</ele>
        <time>2025-03-30T08:05:58Z</time>
      </trkpt>
      <trkpt lat="43.96529" lon="0.07166">
        <ele>95.8</ele>
        <time>2025-03-30T08:05:59Z</time>
      </trkpt>
      <trkpt lat="43.9653" lon="0.07165">
        <ele>95.8</ele>
        <time>2025-03-30T08:06:00Z</time>
      </trkpt>
      <trkpt lat="43.96531" lon="0.07164">
        <ele>95.8</ele>
        <time>2025-03-30T08:06:01Z</time>
      </trkpt>
      <trkpt lat="43.96532" lon="0.07162">
        <ele>95.8</ele>
        <time>2025-03-30T08:06:02Z</time>
      </trkpt>
      <trkpt lat="43.96534" lon="0.07161">
        <ele>95.9</ele>
        <time>2025-03-30T08:06:03Z</time>
      </trkpt>
      <trkpt lat="43.96535" lon="0.0716">
        <ele>95.9</ele>
        <time>2025-03-30T08:06:04Z</time>
      </trkpt>
      <trkpt lat="43.96536" lon="0.07158">
        <ele>95.9</ele>
        <time>2025-03-30T08:06:05Z</time>
      </trkpt>
      <trkpt lat="43.96538" lon="0.07157">
        <ele>96</ele>
        <time>2025-03-30T08:06:06Z</time>
      </trkpt>
      <trkpt lat="43.96539" lon="0.07157">
        <ele>96</ele>
        <time>2025-03-30T08:06:07Z</time>
      </trkpt>
      <trkpt lat="43.9654" lon="0.07156">
        <ele>96</ele>
        <time>2025-03-30T08:06:08Z</time>
      </trkpt>
      <trkpt lat="43.96541" lon="0.07156">
        <ele>96</ele>
        <time>2025-03-30T08:06:09Z</time>
      </trkpt>
      <trkpt lat="43.96542" lon="0.07155">
        <ele>96</ele>
        <time>2025-03-30T08:06:10Z</time>
      </trkpt>
      <trkpt lat="43.96543" lon="0.07155">
        <ele>96.1</ele>
        <time>2025-03-30T08:06:11Z</time>
      </trkpt>
      <trkpt lat="43.96546" lon="0.07154">
        <ele>96.1</ele>
        <time>2025-03-30T08:06:12Z</time>
      </trkpt>
      <trkpt lat="43.96547" lon="0.07153">
        <ele>96.1</ele>
        <time>2025-03-30T08:06:14Z</time>
      </trkpt>
      <trkpt lat="43.96548" lon="0.07153">
        <ele>96.2</ele>
        <time>2025-03-30T08:06:15Z</time>
      </trkpt>
      <trkpt lat="43.96551" lon="0.07151">
        <ele>96.2</ele>
        <time>2025-03-30T08:06:17Z</time>
      </trkpt>
      <trkpt lat="43.96551" lon="0.0715">
        <ele>96.2</ele>
        <time>2025-03-30T08:06:18Z</time>
      </trkpt>
      <trkpt lat="43.96552" lon="0.07149">
        <ele>96.2</ele>
        <time>2025-03-30T08:06:19Z</time>
      </trkpt>
      <trkpt lat="43.96553" lon="0.07148">
        <ele>96.2</ele>
        <time>2025-03-30T08:06:20Z</time>
      </trkpt>
      <trkpt lat="43.96554" lon="0.07147">
        <ele>96.2</ele>
        <time>2025-03-30T08:06:21Z</time>
      </trkpt>
      <trkpt lat="43.96555" lon="0.07146">
        <ele>96.1</ele>
        <time>2025-03-30T08:06:22Z</time>
      </trkpt>
      <trkpt lat="43.96556" lon="0.07145">
        <ele>96.1</ele>
        <time>2025-03-30T08:06:23Z</time>
      </trkpt>
      <trkpt lat="43.96557" lon="0.07145">
        <ele>96.1</ele>
        <time>2025-03-30T08:06:24Z</time>
      </trkpt>
      <trkpt lat="43.96558" lon="0.07143">
        <ele>96</ele>
        <time>2025-03-30T08:06:25Z</time>
      </trkpt>
      <trkpt lat="43.9656" lon="0.07142">
        <ele>96</ele>
        <time>2025-03-30T08:06:26Z</time>
      </trkpt>
      <trkpt lat="43.96561" lon="0.07141">
        <ele>96</ele>
        <time>2025-03-30T08:06:27Z</time>
      </trkpt>
      <trkpt lat="43.96562" lon="0.0714">
        <ele>95.9</ele>
        <time>2025-03-30T08:06:28Z</time>
      </trkpt>
      <trkpt lat="43.96563" lon="0.0714">
        <ele>95.9</ele>
        <time>2025-03-30T08:06:29Z</time>
      </trkpt>
      <trkpt lat="43.96565" lon="0.07139">
        <ele>95.8</ele>
        <time>2025-03-30T08:06:30Z</time>
      </trkpt>
      <trkpt lat="43.96566" lon="0.07138">
        <ele>95.7</ele>
        <time>2025-03-30T08:06:31Z</time>
      </trkpt>
      <trkpt lat="43.96568" lon="0.07137">
        <ele>95.7</ele>
        <time>2025-03-30T08:06:32Z</time>
      </trkpt>
      <trkpt lat="43.96569" lon="0.07135">
        <ele>95.6</ele>
        <time>2025-03-30T08:06:33Z</time>
      </trkpt>
      <trkpt lat="43.9657" lon="0.07135">
        <ele>95.6</ele>
        <time>2025-03-30T08:06:34Z</time>
      </trkpt>
      <trkpt lat="43.96572" lon="0.07134">
        <ele>95.5</ele>
        <time>2025-03-30T08:06:35Z</time>
      </trkpt>
      <trkpt lat="43.96573" lon="0.07133">
        <ele>95.4</ele>
        <time>2025-03-30T08:06:36Z</time>
      </trkpt>
      <trkpt lat="43.96576" lon="0.07132">
        <ele>95.3</ele>
        <time>2025-03-30T08:06:38Z</time>
      </trkpt>
      <trkpt lat="43.96578" lon="0.07131">
        <ele>95.2</ele>
        <time>2025-03-30T08:06:39Z</time>
      </trkpt>
      <trkpt lat="43.96579" lon="0.07131">
        <ele>95.2</ele>
        <time>2025-03-30T08:06:40Z</time>
      </trkpt>
      <trkpt lat="43.96579" lon="0.07131">
        <ele>95.1</ele>
        <time>2025-03-30T08:06:41Z</time>
      </trkpt>
      <trkpt lat="43.9658" lon="0.0713">
        <ele>95.1</ele>
        <time>2025-03-30T08:06:42Z</time>
      </trkpt>
      <trkpt lat="43.96582" lon="0.07127">
        <ele>94.9</ele>
        <time>2025-03-30T08:06:44Z</time>
      </trkpt>
      <trkpt lat="43.96584" lon="0.07125">
        <ele>94.8</ele>
        <time>2025-03-30T08:06:46Z</time>
      </trkpt>
      <trkpt lat="43.96585" lon="0.07124">
        <ele>94.7</ele>
        <time>2025-03-30T08:06:47Z</time>
      </trkpt>
      <trkpt lat="43.96586" lon="0.07122">
        <ele>94.7</ele>
        <time>2025-03-30T08:06:49Z</time>
      </trkpt>
      <trkpt lat="43.96587" lon="0.07121">
        <ele>94.6</ele>
        <time>2025-03-30T08:06:50Z</time>
      </trkpt>
      <trkpt lat="43.96588" lon="0.0712">
        <ele>94.5</ele>
        <time>2025-03-30T08:06:51Z</time>
      </trkpt>
      <trkpt lat="43.96589" lon="0.07118">
        <ele>94.4</ele>
        <time>2025-03-30T08:06:52Z</time>
      </trkpt>
      <trkpt lat="43.96591" lon="0.07116">
        <ele>94.3</ele>
        <time>2025-03-30T08:06:54Z</time>
      </trkpt>
      <trkpt lat="43.96593" lon="0.07114">
        <ele>94.2</ele>
        <time>2025-03-30T08:06:55Z</time>
      </trkpt>
      <trkpt lat="43.96595" lon="0.07112">
        <ele>94.1</ele>
        <time>2025-03-30T08:06:56Z</time>
      </trkpt>
      <trkpt lat="43.96595" lon="0.07111">
        <ele>94.1</ele>
        <time>2025-03-30T08:06:57Z</time>
      </trkpt>
      <trkpt lat="43.96596" lon="0.07111">
        <ele>94</ele>
        <time>2025-03-30T08:06:58Z</time>
      </trkpt>
      <trkpt lat="43.96598" lon="0.0711">
        <ele>94</ele>
        <time>2025-03-30T08:06:59Z</time>
      </trkpt>
      <trkpt lat="43.96601" lon="0.07108">
        <ele>93.9</ele>
        <time>2025-03-30T08:07:01Z</time>
      </trkpt>
      <trkpt lat="43.96602" lon="0.07107">
        <ele>93.8</ele>
        <time>2025-03-30T08:07:02Z</time>
      </trkpt>
      <trkpt lat="43.96604" lon="0.07105">
        <ele>93.7</ele>
        <time>2025-03-30T08:07:04Z</time>
      </trkpt>
      <trkpt lat="43.96606" lon="0.07104">
        <ele>93.6</ele>
        <time>2025-03-30T08:07:05Z</time>
      </trkpt>
      <trkpt lat="43.96607" lon="0.07103">
        <ele>93.6</ele>
        <time>2025-03-30T08:07:06Z</time>
      </trkpt>
      <trkpt lat="43.96608" lon="0.07102">
        <ele>93.6</ele>
        <time>2025-03-30T08:07:08Z</time>
      </trkpt>
      <trkpt lat="43.9661" lon="0.071">
        <ele>93.5</ele>
        <time>2025-03-30T08:07:09Z</time>
      </trkpt>
      <trkpt lat="43.96611" lon="0.07099">
        <ele>93.5</ele>
        <time>2025-03-30T08:07:10Z</time>
      </trkpt>
      <trkpt lat="43.96613" lon="0.07098">
        <ele>93.4</ele>
        <time>2025-03-30T08:07:12Z</time>
      </trkpt>
      <trkpt lat="43.96614" lon="0.07097">
        <ele>93.4</ele>
        <time>2025-03-30T08:07:13Z</time>
      </trkpt>
      <trkpt lat="43.96616" lon="0.07094">
        <ele>93.3</ele>
        <time>2025-03-30T08:07:15Z</time>
      </trkpt>
      <trkpt lat="43.96616" lon="0.07093">
        <ele>93.3</ele>
        <time>2025-03-30T08:07:16Z</time>
      </trkpt>
      <trkpt lat="43.96617" lon="0.07092">
        <ele>93.2</ele>
        <time>2025-03-30T08:07:17Z</time>
      </trkpt>
      <trkpt lat="43.96617" lon="0.0709">
        <ele>93.2</ele>
        <time>2025-03-30T08:07:18Z</time>
      </trkpt>
      <trkpt lat="43.96618" lon="0.07088">
        <ele>93.2</ele>
        <time>2025-03-30T08:07:19Z</time>
      </trkpt>
      <trkpt lat="43.96619" lon="0.07085">
        <ele>93.1</ele>
        <time>2025-03-30T08:07:21Z</time>
      </trkpt>
      <trkpt lat="43.9662" lon="0.07083">
        <ele>93.1</ele>
        <time>2025-03-30T08:07:23Z</time>
      </trkpt>
      <trkpt lat="43.96623" lon="0.07081">
        <ele>93</ele>
        <time>2025-03-30T08:07:24Z</time>
      </trkpt>
      <trkpt lat="43.96625" lon="0.07079">
        <ele>93</ele>
        <time>2025-03-30T08:07:25Z</time>
      </trkpt>
      <trkpt lat="43.96625" lon="0.07079">
        <ele>93</ele>
        <time>2025-03-30T08:07:26Z</time>
      </trkpt>
      <trkpt lat="43.96627" lon="0.07076">
        <ele>93</ele>
        <time>2025-03-30T08:07:28Z</time>
      </trkpt>
      <trkpt lat="43.96628" lon="0.07074">
        <ele>92.9</ele>
        <time>2025-03-30T08:07:29Z</time>
      </trkpt>
      <trkpt lat="43.96629" lon="0.07073">
        <ele>92.9</ele>
        <time>2025-03-30T08:07:30Z</time>
      </trkpt>
      <trkpt lat="43.96631" lon="0.0707">
        <ele>92.9</ele>
        <time>2025-03-30T08:07:32Z</time>
      </trkpt>
      <trkpt lat="43.96632" lon="0.07068">
        <ele>92.9</ele>
        <time>2025-03-30T08:07:34Z</time>
      </trkpt>
      <trkpt lat="43.96635" lon="0.07066">
        <ele>92.9</ele>
        <time>2025-03-30T08:07:35Z</time>
      </trkpt>
      <trkpt lat="43.96637" lon="0.07063">
        <ele>92.9</ele>
        <time>2025-03-30T08:07:37Z</time>
      </trkpt>
      <trkpt lat="43.96638" lon="0.07062">
        <ele>92.9</ele>
        <time>2025-03-30T08:07:38Z</time>
      </trkpt>
      <trkpt lat="43.96639" lon="0.07061">
        <ele>92.9</ele>
        <time>2025-03-30T08:07:39Z</time>
      </trkpt>
      <trkpt lat="43.96641" lon="0.07059">
        <ele>92.9</ele>
        <time>2025-03-30T08:07:40Z</time>
      </trkpt>
      <trkpt lat="43.96642" lon="0.07058">
        <ele>92.9</ele>
        <time>2025-03-30T08:07:41Z</time>
      </trkpt>
      <trkpt lat="43.96642" lon="0.07057">
        <ele>92.9</ele>
        <time>2025-03-30T08:07:42Z</time>
      </trkpt>
      <trkpt lat="43.96643" lon="0.07056">
        <ele>92.9</ele>
        <time>2025-03-30T08:07:43Z</time>
      </trkpt>
      <trkpt lat="43.96644" lon="0.07055">
        <ele>92.9</ele>
        <time>2025-03-30T08:07:44Z</time>
      </trkpt>
      <trkpt lat="43.96644" lon="0.07054">
        <ele>93</ele>
        <time>2025-03-30T08:07:45Z</time>
      </trkpt>
      <trkpt lat="43.96646" lon="0.07053">
        <ele>93</ele>
        <time>2025-03-30T08:07:46Z</time>
      </trkpt>
      <trkpt lat="43.96647" lon="0.07052">
        <ele>93</ele>
        <time>2025-03-30T08:07:47Z</time>
      </trkpt>
      <trkpt lat="43.96647" lon="0.07051">
        <ele>93</ele>
        <time>2025-03-30T08:07:48Z</time>
      </trkpt>
      <trkpt lat="43.96649" lon="0.0705">
        <ele>93</ele>
        <time>2025-03-30T08:07:49Z</time>
      </trkpt>
      <trkpt lat="43.9665" lon="0.0705">
        <ele>93</ele>
        <time>2025-03-30T08:07:51Z</time>
      </trkpt>
      <trkpt lat="43.96652" lon="0.07049">
        <ele>93.1</ele>
        <time>2025-03-30T08:07:52Z</time>
      </trkpt>
      <trkpt lat="43.96653" lon="0.07048">
        <ele>93.1</ele>
        <time>2025-03-30T08:07:53Z</time>
      </trkpt>
      <trkpt lat="43.96656" lon="0.07046">
        <ele>93.1</ele>
        <time>2025-03-30T08:07:55Z</time>
      </trkpt>
      <trkpt lat="43.96657" lon="0.07045">
        <ele>93.1</ele>
        <time>2025-03-30T08:07:56Z</time>
      </trkpt>
      <trkpt lat="43.96659" lon="0.07042">
        <ele>93.2</ele>
        <time>2025-03-30T08:07:58Z</time>
      </trkpt>
      <trkpt lat="43.9666" lon="0.07041">
        <ele>93.2</ele>
        <time>2025-03-30T08:07:59Z</time>
      </trkpt>
      <trkpt lat="43.9666" lon="0.07039">
        <ele>93.2</ele>
        <time>2025-03-30T08:08:00Z</time>
      </trkpt>
      <trkpt lat="43.96662" lon="0.07036">
        <ele>93.2</ele>
        <time>2025-03-30T08:08:01Z</time>
      </trkpt>
      <trkpt lat="43.96662" lon="0.07035">
        <ele>93.3</ele>
        <time>2025-03-30T08:08:03Z</time>
      </trkpt>
      <trkpt lat="43.96663" lon="0.07033">
        <ele>93.3</ele>
        <time>2025-03-30T08:08:04Z</time>
      </trkpt>
      <trkpt lat="43.96664" lon="0.07032">
        <ele>93.3</ele>
        <time>2025-03-30T08:08:05Z</time>
      </trkpt>
      <trkpt lat="43.96665" lon="0.07032">
        <ele>93.3</ele>
        <time>2025-03-30T08:08:06Z</time>
      </trkpt>
      <trkpt lat="43.96666" lon="0.07031">
        <ele>93.3</ele>
        <time>2025-03-30T08:08:07Z</time>
      </trkpt>
      <trkpt lat="43.96667" lon="0.0703">
        <ele>93.3</ele>
        <time>2025-03-30T08:08:08Z</time>
      </trkpt>
      <trkpt lat="43.96668" lon="0.07029">
        <ele>93.4</ele>
        <time>2025-03-30T08:08:09Z</time>
      </trkpt>
      <trkpt lat="43.96669" lon="0.07027">
        <ele>93.4</ele>
        <time>2025-03-30T08:08:10Z</time>
      </trkpt>
      <trkpt lat="43.9667" lon="0.07026">
        <ele>93.4</ele>
        <time>2025-03-30T08:08:11Z</time>
      </trkpt>
      <trkpt lat="43.9667" lon="0.07025">
        <ele>93.4</ele>
        <time>2025-03-30T08:08:12Z</time>
      </trkpt>
      <trkpt lat="43.96671" lon="0.07023">
        <ele>93.4</ele>
        <time>2025-03-30T08:08:13Z</time>
      </trkpt>
      <trkpt lat="43.96671" lon="0.07021">
        <ele>93.4</ele>
        <time>2025-03-30T08:08:14Z</time>
      </trkpt>
      <trkpt lat="43.96674" lon="0.07019">
        <ele>93.4</ele>
        <time>2025-03-30T08:08:15Z</time>
      </trkpt>
      <trkpt lat="43.96675" lon="0.07018">
        <ele>93.4</ele>
        <time>2025-03-30T08:08:17Z</time>
      </trkpt>
      <trkpt lat="43.96676" lon="0.07017">
        <ele>93.5</ele>
        <time>2025-03-30T08:08:18Z</time>
      </trkpt>
      <trkpt lat="43.96678" lon="0.07016">
        <ele>93.5</ele>
        <time>2025-03-30T08:08:19Z</time>
      </trkpt>
      <trkpt lat="43.96679" lon="0.07015">
        <ele>93.5</ele>
        <time>2025-03-30T08:08:20Z</time>
      </trkpt>
      <trkpt lat="43.9668" lon="0.07014">
        <ele>93.5</ele>
        <time>2025-03-30T08:08:21Z</time>
      </trkpt>
      <trkpt lat="43.96682" lon="0.07013">
        <ele>93.5</ele>
        <time>2025-03-30T08:08:23Z</time>
      </trkpt>
      <trkpt lat="43.96684" lon="0.0701">
        <ele>93.5</ele>
        <time>2025-03-30T08:08:24Z</time>
      </trkpt>
      <trkpt lat="43.96685" lon="0.07009">
        <ele>93.5</ele>
        <time>2025-03-30T08:08:25Z</time>
      </trkpt>
      <trkpt lat="43.96687" lon="0.07007">
        <ele>93.5</ele>
        <time>2025-03-30T08:08:26Z</time>
      </trkpt>
      <trkpt lat="43.96688" lon="0.07006">
        <ele>93.5</ele>
        <time>2025-03-30T08:08:27Z</time>
      </trkpt>
      <trkpt lat="43.9669" lon="0.07003">
        <ele>93.5</ele>
        <time>2025-03-30T08:08:29Z</time>
      </trkpt>
      <trkpt lat="43.96691" lon="0.07002">
        <ele>93.5</ele>
        <time>2025-03-30T08:08:30Z</time>
      </trkpt>
      <trkpt lat="43.96692" lon="0.07">
        <ele>93.5</ele>
        <time>2025-03-30T08:08:31Z</time>
      </trkpt>
      <trkpt lat="43.96693" lon="0.06999">
        <ele>93.5</ele>
        <time>2025-03-30T08:08:32Z</time>
      </trkpt>
      <trkpt lat="43.96694" lon="0.06997">
        <ele>93.5</ele>
        <time>2025-03-30T08:08:34Z</time>
      </trkpt>
      <trkpt lat="43.96695" lon="0.06995">
        <ele>93.5</ele>
        <time>2025-03-30T08:08:35Z</time>
      </trkpt>
      <trkpt lat="43.96696" lon="0.06994">
        <ele>93.5</ele>
        <time>2025-03-30T08:08:36Z</time>
      </trkpt>
      <trkpt lat="43.96698" lon="0.0699">
        <ele>93.4</ele>
        <time>2025-03-30T08:08:38Z</time>
      </trkpt>
      <trkpt lat="43.96699" lon="0.06989">
        <ele>93.4</ele>
        <time>2025-03-30T08:08:39Z</time>
      </trkpt>
      <trkpt lat="43.96699" lon="0.06988">
        <ele>93.4</ele>
        <time>2025-03-30T08:08:40Z</time>
      </trkpt>
      <trkpt lat="43.967" lon="0.06987">
        <ele>93.4</ele>
        <time>2025-03-30T08:08:41Z</time>
      </trkpt>
      <trkpt lat="43.96701" lon="0.06986">
        <ele>93.4</ele>
        <time>2025-03-30T08:08:42Z</time>
      </trkpt>
      <trkpt lat="43.96702" lon="0.06986">
        <ele>93.4</ele>
        <time>2025-03-30T08:08:43Z</time>
      </trkpt>
      <trkpt lat="43.96705" lon="0.06984">
        <ele>93.4</ele>
        <time>2025-03-30T08:08:44Z</time>
      </trkpt>
      <trkpt lat="43.96706" lon="0.06983">
        <ele>93.4</ele>
        <time>2025-03-30T08:08:46Z</time>
      </trkpt>
      <trkpt lat="43.96707" lon="0.06982">
        <ele>93.4</ele>
        <time>2025-03-30T08:08:47Z</time>
      </trkpt>
      <trkpt lat="43.96709" lon="0.06981">
        <ele>93.4</ele>
        <time>2025-03-30T08:08:48Z</time>
      </trkpt>
      <trkpt lat="43.96709" lon="0.0698">
        <ele>93.4</ele>
        <time>2025-03-30T08:08:49Z</time>
      </trkpt>
      <trkpt lat="43.9671" lon="0.06978">
        <ele>93.4</ele>
        <time>2025-03-30T08:08:50Z</time>
      </trkpt>
      <trkpt lat="43.96711" lon="0.06977">
        <ele>93.5</ele>
        <time>2025-03-30T08:08:51Z</time>
      </trkpt>
      <trkpt lat="43.96712" lon="0.06975">
        <ele>93.5</ele>
        <time>2025-03-30T08:08:52Z</time>
      </trkpt>
      <trkpt lat="43.96713" lon="0.06974">
        <ele>93.5</ele>
        <time>2025-03-30T08:08:53Z</time>
      </trkpt>
      <trkpt lat="43.96714" lon="0.06973">
        <ele>93.5</ele>
        <time>2025-03-30T08:08:54Z</time>
      </trkpt>
      <trkpt lat="43.96715" lon="0.06971">
        <ele>93.5</ele>
        <time>2025-03-30T08:08:55Z</time>
      </trkpt>
      <trkpt lat="43.96716" lon="0.0697">
        <ele>93.5</ele>
        <time>2025-03-30T08:08:56Z</time>
      </trkpt>
      <trkpt lat="43.96717" lon="0.06968">
        <ele>93.5</ele>
        <time>2025-03-30T08:08:58Z</time>
      </trkpt>
      <trkpt lat="43.96718" lon="0.06967">
        <ele>93.5</ele>
        <time>2025-03-30T08:08:59Z</time>
      </trkpt>
      <trkpt lat="43.96719" lon="0.06966">
        <ele>93.5</ele>
        <time>2025-03-30T08:09:00Z</time>
      </trkpt>
      <trkpt lat="43.9672" lon="0.06964">
        <ele>93.5</ele>
        <time>2025-03-30T08:09:01Z</time>
      </trkpt>
      <trkpt lat="43.96721" lon="0.06963">
        <ele>93.6</ele>
        <time>2025-03-30T08:09:02Z</time>
      </trkpt>
      <trkpt lat="43.96723" lon="0.06963">
        <ele>93.6</ele>
        <time>2025-03-30T08:09:03Z</time>
      </trkpt>
      <trkpt lat="43.96724" lon="0.06963">
        <ele>93.6</ele>
        <time>2025-03-30T08:09:04Z</time>
      </trkpt>
      <trkpt lat="43.96724" lon="0.06965">
        <ele>93.6</ele>
        <time>2025-03-30T08:09:06Z</time>
      </trkpt>
      <trkpt lat="43.96727" lon="0.0696">
        <ele>93.6</ele>
        <time>2025-03-30T08:09:08Z</time>
      </trkpt>
      <trkpt lat="43.96727" lon="0.06959">
        <ele>93.6</ele>
        <time>2025-03-30T08:09:09Z</time>
      </trkpt>
      <trkpt lat="43.96727" lon="0.06958">
        <ele>93.6</ele>
        <time>2025-03-30T08:09:10Z</time>
      </trkpt>
      <trkpt lat="43.96728" lon="0.06957">
        <ele>93.6</ele>
        <time>2025-03-30T08:09:11Z</time>
      </trkpt>
      <trkpt lat="43.96729" lon="0.06953">
        <ele>93.6</ele>
        <time>2025-03-30T08:09:12Z</time>
      </trkpt>
      <trkpt lat="43.96731" lon="0.06949">
        <ele>93.7</ele>
        <time>2025-03-30T08:09:13Z</time>
      </trkpt>
      <trkpt lat="43.96731" lon="0.06948">
        <ele>93.7</ele>
        <time>2025-03-30T08:09:14Z</time>
      </trkpt>
      <trkpt lat="43.96732" lon="0.06946">
        <ele>93.7</ele>
        <time>2025-03-30T08:09:15Z</time>
      </trkpt>
      <trkpt lat="43.96733" lon="0.06944">
        <ele>93.7</ele>
        <time>2025-03-30T08:09:16Z</time>
      </trkpt>
      <trkpt lat="43.96735" lon="0.06941">
        <ele>93.8</ele>
        <time>2025-03-30T08:09:18Z</time>
      </trkpt>
      <trkpt lat="43.96736" lon="0.06941">
        <ele>93.8</ele>
        <time>2025-03-30T08:09:19Z</time>
      </trkpt>
      <trkpt lat="43.96737" lon="0.06941">
        <ele>93.8</ele>
        <time>2025-03-30T08:09:20Z</time>
      </trkpt>
      <trkpt lat="43.96738" lon="0.0694">
        <ele>93.8</ele>
        <time>2025-03-30T08:09:21Z</time>
      </trkpt>
      <trkpt lat="43.96739" lon="0.06938">
        <ele>93.8</ele>
        <time>2025-03-30T08:09:22Z</time>
      </trkpt>
      <trkpt lat="43.9674" lon="0.06936">
        <ele>93.8</ele>
        <time>2025-03-30T08:09:23Z</time>
      </trkpt>
      <trkpt lat="43.96741" lon="0.06936">
        <ele>93.8</ele>
        <time>2025-03-30T08:09:24Z</time>
      </trkpt>
      <trkpt lat="43.96741" lon="0.06935">
        <ele>93.9</ele>
        <time>2025-03-30T08:09:25Z</time>
      </trkpt>
      <trkpt lat="43.96742" lon="0.06934">
        <ele>93.9</ele>
        <time>2025-03-30T08:09:26Z</time>
      </trkpt>
      <trkpt lat="43.96744" lon="0.06931">
        <ele>93.9</ele>
        <time>2025-03-30T08:09:28Z</time>
      </trkpt>
      <trkpt lat="43.96744" lon="0.06929">
        <ele>93.9</ele>
        <time>2025-03-30T08:09:30Z</time>
      </trkpt>
      <trkpt lat="43.96747" lon="0.06929">
        <ele>94</ele>
        <time>2025-03-30T08:09:31Z</time>
      </trkpt>
      <trkpt lat="43.9675" lon="0.06929">
        <ele>94</ele>
        <time>2025-03-30T08:09:33Z</time>
      </trkpt>
      <trkpt lat="43.96751" lon="0.06928">
        <ele>94</ele>
        <time>2025-03-30T08:09:34Z</time>
      </trkpt>
      <trkpt lat="43.96752" lon="0.06926">
        <ele>94</ele>
        <time>2025-03-30T08:09:36Z</time>
      </trkpt>
      <trkpt lat="43.96754" lon="0.06925">
        <ele>94.1</ele>
        <time>2025-03-30T08:09:37Z</time>
      </trkpt>
      <trkpt lat="43.96752" lon="0.06923">
        <ele>94.1</ele>
        <time>2025-03-30T08:09:38Z</time>
      </trkpt>
      <trkpt lat="43.96753" lon="0.06917">
        <ele>94.1</ele>
        <time>2025-03-30T08:09:40Z</time>
      </trkpt>
      <trkpt lat="43.96754" lon="0.06915">
        <ele>94.1</ele>
        <time>2025-03-30T08:09:41Z</time>
      </trkpt>
      <trkpt lat="43.96757" lon="0.06915">
        <ele>94.1</ele>
        <time>2025-03-30T08:09:42Z</time>
      </trkpt>
      <trkpt lat="43.96758" lon="0.06914">
        <ele>94.1</ele>
        <time>2025-03-30T08:09:43Z</time>
      </trkpt>
      <trkpt lat="43.96759" lon="0.06913">
        <ele>94.1</ele>
        <time>2025-03-30T08:09:44Z</time>
      </trkpt>
      <trkpt lat="43.9676" lon="0.06913">
        <ele>94.1</ele>
        <time>2025-03-30T08:09:45Z</time>
      </trkpt>
      <trkpt lat="43.96761" lon="0.06912">
        <ele>94.1</ele>
        <time>2025-03-30T08:09:46Z</time>
      </trkpt>
      <trkpt lat="43.96763" lon="0.0691">
        <ele>94.1</ele>
        <time>2025-03-30T08:09:47Z</time>
      </trkpt>
      <trkpt lat="43.96763" lon="0.0691">
        <ele>94.1</ele>
        <time>2025-03-30T08:09:48Z</time>
      </trkpt>
      <trkpt lat="43.96764" lon="0.06909">
        <ele>94.1</ele>
        <time>2025-03-30T08:09:49Z</time>
      </trkpt>
      <trkpt lat="43.96765" lon="0.06907">
        <ele>94.1</ele>
        <time>2025-03-30T08:09:50Z</time>
      </trkpt>
      <trkpt lat="43.96766" lon="0.06906">
        <ele>94.1</ele>
        <time>2025-03-30T08:09:51Z</time>
      </trkpt>
      <trkpt lat="43.96766" lon="0.06905">
        <ele>94.1</ele>
        <time>2025-03-30T08:09:52Z</time>
      </trkpt>
      <trkpt lat="43.96768" lon="0.06903">
        <ele>94.1</ele>
        <time>2025-03-30T08:09:54Z</time>
      </trkpt>
      <trkpt lat="43.96768" lon="0.06901">
        <ele>94.1</ele>
        <time>2025-03-30T08:09:55Z</time>
      </trkpt>
      <trkpt lat="43.96769" lon="0.06898">
        <ele>94.1</ele>
        <time>2025-03-30T08:09:57Z</time>
      </trkpt>
      <trkpt lat="43.96771" lon="0.06897">
        <ele>94.1</ele>
        <time>2025-03-30T08:09:59Z</time>
      </trkpt>
      <trkpt lat="43.96774" lon="0.06896">
        <ele>94.2</ele>
        <time>2025-03-30T08:10:00Z</time>
      </trkpt>
      <trkpt lat="43.96775" lon="0.06895">
        <ele>94.2</ele>
        <time>2025-03-30T08:10:01Z</time>
      </trkpt>
      <trkpt lat="43.96778" lon="0.06892">
        <ele>94.2</ele>
        <time>2025-03-30T08:10:03Z</time>
      </trkpt>
      <trkpt lat="43.96779" lon="0.0689">
        <ele>94.2</ele>
        <time>2025-03-30T08:10:04Z</time>
      </trkpt>
      <trkpt lat="43.9678" lon="0.06889">
        <ele>94.2</ele>
        <time>2025-03-30T08:10:06Z</time>
      </trkpt>
      <trkpt lat="43.96783" lon="0.06887">
        <ele>94.2</ele>
        <time>2025-03-30T08:10:07Z</time>
      </trkpt>
      <trkpt lat="43.96784" lon="0.06886">
        <ele>94.3</ele>
        <time>2025-03-30T08:10:08Z</time>
      </trkpt>
      <trkpt lat="43.96785" lon="0.06884">
        <ele>94.3</ele>
        <time>2025-03-30T08:10:09Z</time>
      </trkpt>
      <trkpt lat="43.96785" lon="0.06882">
        <ele>94.3</ele>
        <time>2025-03-30T08:10:10Z</time>
      </trkpt>
      <trkpt lat="43.96785" lon="0.0688">
        <ele>94.3</ele>
        <time>2025-03-30T08:10:11Z</time>
      </trkpt>
      <trkpt lat="43.96786" lon="0.06879">
        <ele>94.3</ele>
        <time>2025-03-30T08:10:12Z</time>
      </trkpt>
      <trkpt lat="43.96788" lon="0.06878">
        <ele>94.3</ele>
        <time>2025-03-30T08:10:13Z</time>
      </trkpt>
      <trkpt lat="43.96789" lon="0.06876">
        <ele>94.3</ele>
        <time>2025-03-30T08:10:14Z</time>
      </trkpt>
      <trkpt lat="43.9679" lon="0.06875">
        <ele>94.4</ele>
        <time>2025-03-30T08:10:15Z</time>
      </trkpt>
      <trkpt lat="43.96791" lon="0.06874">
        <ele>94.4</ele>
        <time>2025-03-30T08:10:16Z</time>
      </trkpt>
      <trkpt lat="43.96793" lon="0.06871">
        <ele>94.4</ele>
        <time>2025-03-30T08:10:18Z</time>
      </trkpt>
      <trkpt lat="43.96794" lon="0.0687">
        <ele>94.4</ele>
        <time>2025-03-30T08:10:19Z</time>
      </trkpt>
      <trkpt lat="43.96794" lon="0.06869">
        <ele>94.4</ele>
        <time>2025-03-30T08:10:20Z</time>
      </trkpt>
      <trkpt lat="43.96796" lon="0.06868">
        <ele>94.5</ele>
        <time>2025-03-30T08:10:22Z</time>
      </trkpt>
      <trkpt lat="43.96797" lon="0.06866">
        <ele>94.5</ele>
        <time>2025-03-30T08:10:23Z</time>
      </trkpt>
      <trkpt lat="43.96799" lon="0.06865">
        <ele>94.6</ele>
        <time>2025-03-30T08:10:24Z</time>
      </trkpt>
      <trkpt lat="43.968" lon="0.06865">
        <ele>94.6</ele>
        <time>2025-03-30T08:10:25Z</time>
      </trkpt>
      <trkpt lat="43.96801" lon="0.06864">
        <ele>94.6</ele>
        <time>2025-03-30T08:10:26Z</time>
      </trkpt>
      <trkpt lat="43.96804" lon="0.06863">
        <ele>94.7</ele>
        <time>2025-03-30T08:10:27Z</time>
      </trkpt>
      <trkpt lat="43.96805" lon="0.06862">
        <ele>94.7</ele>
        <time>2025-03-30T08:10:29Z</time>
      </trkpt>
      <trkpt lat="43.96807" lon="0.06862">
        <ele>94.8</ele>
        <time>2025-03-30T08:10:30Z</time>
      </trkpt>
      <trkpt lat="43.96808" lon="0.06861">
        <ele>94.8</ele>
        <time>2025-03-30T08:10:31Z</time>
      </trkpt>
      <trkpt lat="43.9681" lon="0.06859">
        <ele>94.9</ele>
        <time>2025-03-30T08:10:32Z</time>
      </trkpt>
      <trkpt lat="43.96812" lon="0.06857">
        <ele>95</ele>
        <time>2025-03-30T08:10:34Z</time>
      </trkpt>
      <trkpt lat="43.96813" lon="0.06855">
        <ele>95</ele>
        <time>2025-03-30T08:10:35Z</time>
      </trkpt>
      <trkpt lat="43.96814" lon="0.06853">
        <ele>95.1</ele>
        <time>2025-03-30T08:10:36Z</time>
      </trkpt>
      <trkpt lat="43.96816" lon="0.06852">
        <ele>95.1</ele>
        <time>2025-03-30T08:10:37Z</time>
      </trkpt>
      <trkpt lat="43.96817" lon="0.0685">
        <ele>95.2</ele>
        <time>2025-03-30T08:10:39Z</time>
      </trkpt>
      <trkpt lat="43.96819" lon="0.06848">
        <ele>95.2</ele>
        <time>2025-03-30T08:10:40Z</time>
      </trkpt>
      <trkpt lat="43.9682" lon="0.06847">
        <ele>95.3</ele>
        <time>2025-03-30T08:10:41Z</time>
      </trkpt>
      <trkpt lat="43.96822" lon="0.06845">
        <ele>95.4</ele>
        <time>2025-03-30T08:10:43Z</time>
      </trkpt>
      <trkpt lat="43.96823" lon="0.06844">
        <ele>95.4</ele>
        <time>2025-03-30T08:10:44Z</time>
      </trkpt>
      <trkpt lat="43.96826" lon="0.06842">
        <ele>95.5</ele>
        <time>2025-03-30T08:10:46Z</time>
      </trkpt>
      <trkpt lat="43.96828" lon="0.0684">
        <ele>95.5</ele>
        <time>2025-03-30T08:10:48Z</time>
      </trkpt>
      <trkpt lat="43.96829" lon="0.06839">
        <ele>95.6</ele>
        <time>2025-03-30T08:10:49Z</time>
      </trkpt>
      <trkpt lat="43.96831" lon="0.06836">
        <ele>95.6</ele>
        <time>2025-03-30T08:10:51Z</time>
      </trkpt>
      <trkpt lat="43.96832" lon="0.06835">
        <ele>95.7</ele>
        <time>2025-03-30T08:10:52Z</time>
      </trkpt>
      <trkpt lat="43.96833" lon="0.06834">
        <ele>95.7</ele>
        <time>2025-03-30T08:10:53Z</time>
      </trkpt>
      <trkpt lat="43.96836" lon="0.0683">
        <ele>95.8</ele>
        <time>2025-03-30T08:10:55Z</time>
      </trkpt>
      <trkpt lat="43.96837" lon="0.0683">
        <ele>95.8</ele>
        <time>2025-03-30T08:10:56Z</time>
      </trkpt>
      <trkpt lat="43.96838" lon="0.06829">
        <ele>95.8</ele>
        <time>2025-03-30T08:10:57Z</time>
      </trkpt>
      <trkpt lat="43.96839" lon="0.06828">
        <ele>95.9</ele>
        <time>2025-03-30T08:10:58Z</time>
      </trkpt>
      <trkpt lat="43.96839" lon="0.06827">
        <ele>95.9</ele>
        <time>2025-03-30T08:10:59Z</time>
      </trkpt>
      <trkpt lat="43.96841" lon="0.06825">
        <ele>95.9</ele>
        <time>2025-03-30T08:11:00Z</time>
      </trkpt>
      <trkpt lat="43.96841" lon="0.06825">
        <ele>95.9</ele>
        <time>2025-03-30T08:11:01Z</time>
      </trkpt>
      <trkpt lat="43.96844" lon="0.06822">
        <ele>96</ele>
        <time>2025-03-30T08:11:03Z</time>
      </trkpt>
      <trkpt lat="43.96845" lon="0.06821">
        <ele>96</ele>
        <time>2025-03-30T08:11:04Z</time>
      </trkpt>
      <trkpt lat="43.96847" lon="0.06818">
        <ele>96</ele>
        <time>2025-03-30T08:11:06Z</time>
      </trkpt>
      <trkpt lat="43.96848" lon="0.06816">
        <ele>96</ele>
        <time>2025-03-30T08:11:07Z</time>
      </trkpt>
      <trkpt lat="43.96849" lon="0.06813">
        <ele>96</ele>
        <time>2025-03-30T08:11:09Z</time>
      </trkpt>
      <trkpt lat="43.9685" lon="0.06811">
        <ele>96</ele>
        <time>2025-03-30T08:11:10Z</time>
      </trkpt>
      <trkpt lat="43.9685" lon="0.06809">
        <ele>96.1</ele>
        <time>2025-03-30T08:11:12Z</time>
      </trkpt>
      <trkpt lat="43.96851" lon="0.06807">
        <ele>96.1</ele>
        <time>2025-03-30T08:11:13Z</time>
      </trkpt>
      <trkpt lat="43.96851" lon="0.06806">
        <ele>96.1</ele>
        <time>2025-03-30T08:11:14Z</time>
      </trkpt>
      <trkpt lat="43.96851" lon="0.06805">
        <ele>96.1</ele>
        <time>2025-03-30T08:11:15Z</time>
      </trkpt>
      <trkpt lat="43.96853" lon="0.068">
        <ele>96.1</ele>
        <time>2025-03-30T08:11:16Z</time>
      </trkpt>
      <trkpt lat="43.96853" lon="0.06799">
        <ele>96.1</ele>
        <time>2025-03-30T08:11:17Z</time>
      </trkpt>
      <trkpt lat="43.96853" lon="0.06798">
        <ele>96.1</ele>
        <time>2025-03-30T08:11:18Z</time>
      </trkpt>
      <trkpt lat="43.96854" lon="0.06797">
        <ele>96.1</ele>
        <time>2025-03-30T08:11:19Z</time>
      </trkpt>
      <trkpt lat="43.96855" lon="0.06796">
        <ele>96.2</ele>
        <time>2025-03-30T08:11:20Z</time>
      </trkpt>
      <trkpt lat="43.96856" lon="0.06795">
        <ele>96.2</ele>
        <time>2025-03-30T08:11:21Z</time>
      </trkpt>
      <trkpt lat="43.96858" lon="0.06793">
        <ele>96.2</ele>
        <time>2025-03-30T08:11:23Z</time>
      </trkpt>
      <trkpt lat="43.96859" lon="0.06793">
        <ele>96.2</ele>
        <time>2025-03-30T08:11:24Z</time>
      </trkpt>
      <trkpt lat="43.9686" lon="0.06791">
        <ele>96.2</ele>
        <time>2025-03-30T08:11:25Z</time>
      </trkpt>
      <trkpt lat="43.96861" lon="0.06791">
        <ele>96.2</ele>
        <time>2025-03-30T08:11:26Z</time>
      </trkpt>
      <trkpt lat="43.96862" lon="0.0679">
        <ele>96.3</ele>
        <time>2025-03-30T08:11:27Z</time>
      </trkpt>
      <trkpt lat="43.96863" lon="0.06789">
        <ele>96.3</ele>
        <time>2025-03-30T08:11:28Z</time>
      </trkpt>
      <trkpt lat="43.96864" lon="0.06789">
        <ele>96.3</ele>
        <time>2025-03-30T08:11:29Z</time>
      </trkpt>
      <trkpt lat="43.96865" lon="0.06787">
        <ele>96.3</ele>
        <time>2025-03-30T08:11:30Z</time>
      </trkpt>
      <trkpt lat="43.96868" lon="0.06786">
        <ele>96.4</ele>
        <time>2025-03-30T08:11:32Z</time>
      </trkpt>
      <trkpt lat="43.96871" lon="0.06784">
        <ele>96.4</ele>
        <time>2025-03-30T08:11:34Z</time>
      </trkpt>
      <trkpt lat="43.96872" lon="0.06784">
        <ele>96.5</ele>
        <time>2025-03-30T08:11:35Z</time>
      </trkpt>
      <trkpt lat="43.96873" lon="0.06784">
        <ele>96.5</ele>
        <time>2025-03-30T08:11:36Z</time>
      </trkpt>
      <trkpt lat="43.96875" lon="0.06782">
        <ele>96.5</ele>
        <time>2025-03-30T08:11:38Z</time>
      </trkpt>
      <trkpt lat="43.96876" lon="0.06782">
        <ele>96.5</ele>
        <time>2025-03-30T08:11:39Z</time>
      </trkpt>
      <trkpt lat="43.96878" lon="0.0678">
        <ele>96.6</ele>
        <time>2025-03-30T08:11:40Z</time>
      </trkpt>
      <trkpt lat="43.96878" lon="0.0678">
        <ele>96.6</ele>
        <time>2025-03-30T08:11:41Z</time>
      </trkpt>
      <trkpt lat="43.96879" lon="0.06779">
        <ele>96.6</ele>
        <time>2025-03-30T08:11:42Z</time>
      </trkpt>
      <trkpt lat="43.9688" lon="0.06779">
        <ele>96.6</ele>
        <time>2025-03-30T08:11:43Z</time>
      </trkpt>
      <trkpt lat="43.96881" lon="0.06778">
        <ele>96.6</ele>
        <time>2025-03-30T08:11:44Z</time>
      </trkpt>
      <trkpt lat="43.96882" lon="0.06776">
        <ele>96.7</ele>
        <time>2025-03-30T08:11:45Z</time>
      </trkpt>
      <trkpt lat="43.96883" lon="0.06775">
        <ele>96.7</ele>
        <time>2025-03-30T08:11:46Z</time>
      </trkpt>
      <trkpt lat="43.96883" lon="0.06772">
        <ele>96.7</ele>
        <time>2025-03-30T08:11:47Z</time>
      </trkpt>
      <trkpt lat="43.96884" lon="0.0677">
        <ele>96.7</ele>
        <time>2025-03-30T08:11:48Z</time>
      </trkpt>
      <trkpt lat="43.96884" lon="0.06769">
        <ele>96.8</ele>
        <time>2025-03-30T08:11:49Z</time>
      </trkpt>
      <trkpt lat="43.96885" lon="0.06768">
        <ele>96.8</ele>
        <time>2025-03-30T08:11:50Z</time>
      </trkpt>
      <trkpt lat="43.96886" lon="0.06766">
        <ele>96.8</ele>
        <time>2025-03-30T08:11:52Z</time>
      </trkpt>
      <trkpt lat="43.96888" lon="0.06765">
        <ele>96.8</ele>
        <time>2025-03-30T08:11:53Z</time>
      </trkpt>
      <trkpt lat="43.96889" lon="0.06765">
        <ele>96.8</ele>
        <time>2025-03-30T08:11:54Z</time>
      </trkpt>
      <trkpt lat="43.9689" lon="0.06764">
        <ele>96.9</ele>
        <time>2025-03-30T08:11:55Z</time>
      </trkpt>
      <trkpt lat="43.96892" lon="0.06762">
        <ele>96.9</ele>
        <time>2025-03-30T08:11:57Z</time>
      </trkpt>
      <trkpt lat="43.96893" lon="0.06762">
        <ele>96.9</ele>
        <time>2025-03-30T08:11:58Z</time>
      </trkpt>
      <trkpt lat="43.96894" lon="0.06761">
        <ele>96.9</ele>
        <time>2025-03-30T08:11:59Z</time>
      </trkpt>
      <trkpt lat="43.96895" lon="0.0676">
        <ele>97</ele>
        <time>2025-03-30T08:12:00Z</time>
      </trkpt>
      <trkpt lat="43.96897" lon="0.06759">
        <ele>97</ele>
        <time>2025-03-30T08:12:01Z</time>
      </trkpt>
      <trkpt lat="43.969" lon="0.06758">
        <ele>97</ele>
        <time>2025-03-30T08:12:03Z</time>
      </trkpt>
      <trkpt lat="43.96901" lon="0.06757">
        <ele>97.1</ele>
        <time>2025-03-30T08:12:04Z</time>
      </trkpt>
      <trkpt lat="43.96905" lon="0.06756">
        <ele>97.1</ele>
        <time>2025-03-30T08:12:06Z</time>
      </trkpt>
      <trkpt lat="43.96908" lon="0.06755">
        <ele>97.2</ele>
        <time>2025-03-30T08:12:08Z</time>
      </trkpt>
      <trkpt lat="43.96909" lon="0.06754">
        <ele>97.2</ele>
        <time>2025-03-30T08:12:09Z</time>
      </trkpt>
      <trkpt lat="43.96911" lon="0.06753">
        <ele>97.2</ele>
        <time>2025-03-30T08:12:10Z</time>
      </trkpt>
      <trkpt lat="43.96912" lon="0.06752">
        <ele>97.3</ele>
        <time>2025-03-30T08:12:11Z</time>
      </trkpt>
      <trkpt lat="43.96914" lon="0.06751">
        <ele>97.3</ele>
        <time>2025-03-30T08:12:12Z</time>
      </trkpt>
      <trkpt lat="43.96915" lon="0.0675">
        <ele>97.3</ele>
        <time>2025-03-30T08:12:13Z</time>
      </trkpt>
      <trkpt lat="43.96917" lon="0.06749">
        <ele>97.4</ele>
        <time>2025-03-30T08:12:14Z</time>
      </trkpt>
      <trkpt lat="43.96918" lon="0.06748">
        <ele>97.4</ele>
        <time>2025-03-30T08:12:15Z</time>
      </trkpt>
      <trkpt lat="43.96919" lon="0.06748">
        <ele>97.4</ele>
        <time>2025-03-30T08:12:16Z</time>
      </trkpt>
      <trkpt lat="43.9692" lon="0.06747">
        <ele>97.5</ele>
        <time>2025-03-30T08:12:17Z</time>
      </trkpt>
      <trkpt lat="43.96921" lon="0.06746">
        <ele>97.5</ele>
        <time>2025-03-30T08:12:18Z</time>
      </trkpt>
      <trkpt lat="43.96923" lon="0.06744">
        <ele>97.5</ele>
        <time>2025-03-30T08:12:19Z</time>
      </trkpt>
      <trkpt lat="43.96923" lon="0.06744">
        <ele>97.5</ele>
        <time>2025-03-30T08:12:20Z</time>
      </trkpt>
      <trkpt lat="43.96924" lon="0.06743">
        <ele>97.6</ele>
        <time>2025-03-30T08:12:21Z</time>
      </trkpt>
      <trkpt lat="43.96926" lon="0.06741">
        <ele>97.6</ele>
        <time>2025-03-30T08:12:22Z</time>
      </trkpt>
      <trkpt lat="43.96926" lon="0.0674">
        <ele>97.7</ele>
        <time>2025-03-30T08:12:23Z</time>
      </trkpt>
      <trkpt lat="43.96927" lon="0.06739">
        <ele>97.7</ele>
        <time>2025-03-30T08:12:24Z</time>
      </trkpt>
      <trkpt lat="43.96929" lon="0.06736">
        <ele>97.8</ele>
        <time>2025-03-30T08:12:26Z</time>
      </trkpt>
      <trkpt lat="43.9693" lon="0.06736">
        <ele>97.8</ele>
        <time>2025-03-30T08:12:27Z</time>
      </trkpt>
      <trkpt lat="43.96931" lon="0.06735">
        <ele>97.8</ele>
        <time>2025-03-30T08:12:28Z</time>
      </trkpt>
      <trkpt lat="43.96932" lon="0.06733">
        <ele>97.9</ele>
        <time>2025-03-30T08:12:29Z</time>
      </trkpt>
      <trkpt lat="43.96934" lon="0.06733">
        <ele>97.9</ele>
        <time>2025-03-30T08:12:30Z</time>
      </trkpt>
      <trkpt lat="43.96936" lon="0.06732">
        <ele>98</ele>
        <time>2025-03-30T08:12:31Z</time>
      </trkpt>
      <trkpt lat="43.96937" lon="0.06732">
        <ele>98</ele>
        <time>2025-03-30T08:12:32Z</time>
      </trkpt>
      <trkpt lat="43.96939" lon="0.06731">
        <ele>98</ele>
        <time>2025-03-30T08:12:33Z</time>
      </trkpt>
      <trkpt lat="43.9694" lon="0.06732">
        <ele>98.1</ele>
        <time>2025-03-30T08:12:34Z</time>
      </trkpt>
      <trkpt lat="43.96942" lon="0.06732">
        <ele>98.1</ele>
        <time>2025-03-30T08:12:35Z</time>
      </trkpt>
      <trkpt lat="43.96943" lon="0.06732">
        <ele>98.2</ele>
        <time>2025-03-30T08:12:36Z</time>
      </trkpt>
      <trkpt lat="43.96945" lon="0.06732">
        <ele>98.2</ele>
        <time>2025-03-30T08:12:37Z</time>
      </trkpt>
      <trkpt lat="43.96946" lon="0.06731">
        <ele>98.2</ele>
        <time>2025-03-30T08:12:38Z</time>
      </trkpt>
      <trkpt lat="43.96947" lon="0.06731">
        <ele>98.3</ele>
        <time>2025-03-30T08:12:39Z</time>
      </trkpt>
      <trkpt lat="43.96948" lon="0.06731">
        <ele>98.3</ele>
        <time>2025-03-30T08:12:40Z</time>
      </trkpt>
      <trkpt lat="43.96949" lon="0.0673">
        <ele>98.3</ele>
        <time>2025-03-30T08:12:41Z</time>
      </trkpt>
      <trkpt lat="43.9695" lon="0.06729">
        <ele>98.3</ele>
        <time>2025-03-30T08:12:42Z</time>
      </trkpt>
      <trkpt lat="43.9695" lon="0.06728">
        <ele>98.3</ele>
        <time>2025-03-30T08:12:43Z</time>
      </trkpt>
      <trkpt lat="43.96951" lon="0.06727">
        <ele>98.3</ele>
        <time>2025-03-30T08:12:44Z</time>
      </trkpt>
      <trkpt lat="43.96951" lon="0.06726">
        <ele>98.3</ele>
        <time>2025-03-30T08:12:45Z</time>
      </trkpt>
      <trkpt lat="43.96952" lon="0.06726">
        <ele>98.3</ele>
        <time>2025-03-30T08:12:46Z</time>
      </trkpt>
      <trkpt lat="43.96953" lon="0.06726">
        <ele>98.4</ele>
        <time>2025-03-30T08:12:47Z</time>
      </trkpt>
      <trkpt lat="43.96953" lon="0.06726">
        <ele>98.4</ele>
        <time>2025-03-30T08:12:48Z</time>
      </trkpt>
      <trkpt lat="43.96954" lon="0.06726">
        <ele>98.4</ele>
        <time>2025-03-30T08:12:49Z</time>
      </trkpt>
      <trkpt lat="43.96955" lon="0.06726">
        <ele>98.4</ele>
        <time>2025-03-30T08:12:50Z</time>
      </trkpt>
      <trkpt lat="43.96955" lon="0.06726">
        <ele>98.4</ele>
        <time>2025-03-30T08:12:51Z</time>
      </trkpt>
      <trkpt lat="43.96956" lon="0.06726">
        <ele>98.4</ele>
        <time>2025-03-30T08:12:52Z</time>
      </trkpt>
      <trkpt lat="43.96957" lon="0.06726">
        <ele>98.4</ele>
        <time>2025-03-30T08:12:53Z</time>
      </trkpt>
      <trkpt lat="43.96957" lon="0.06725">
        <ele>98.5</ele>
        <time>2025-03-30T08:12:54Z</time>
      </trkpt>
      <trkpt lat="43.96958" lon="0.06725">
        <ele>98.5</ele>
        <time>2025-03-30T08:12:55Z</time>
      </trkpt>
      <trkpt lat="43.96959" lon="0.06725">
        <ele>98.5</ele>
        <time>2025-03-30T08:12:56Z</time>
      </trkpt>
      <trkpt lat="43.9696" lon="0.06725">
        <ele>98.5</ele>
        <time>2025-03-30T08:12:57Z</time>
      </trkpt>
      <trkpt lat="43.9696" lon="0.06726">
        <ele>98.5</ele>
        <time>2025-03-30T08:12:58Z</time>
      </trkpt>
      <trkpt lat="43.96961" lon="0.06727">
        <ele>98.6</ele>
        <time>2025-03-30T08:12:59Z</time>
      </trkpt>
      <trkpt lat="43.96961" lon="0.06728">
        <ele>98.6</ele>
        <time>2025-03-30T08:13:00Z</time>
      </trkpt>
      <trkpt lat="43.96961" lon="0.06729">
        <ele>98.6</ele>
        <time>2025-03-30T08:13:01Z</time>
      </trkpt>
      <trkpt lat="43.96962" lon="0.0673">
        <ele>98.6</ele>
        <time>2025-03-30T08:13:02Z</time>
      </trkpt>
      <trkpt lat="43.96962" lon="0.0673">
        <ele>98.7</ele>
        <time>2025-03-30T08:13:03Z</time>
      </trkpt>
      <trkpt lat="43.96962" lon="0.06731">
        <ele>98.7</ele>
        <time>2025-03-30T08:13:04Z</time>
      </trkpt>
      <trkpt lat="43.96963" lon="0.06732">
        <ele>98.7</ele>
        <time>2025-03-30T08:13:05Z</time>
      </trkpt>
      <trkpt lat="43.96964" lon="0.06733">
        <ele>98.8</ele>
        <time>2025-03-30T08:13:06Z</time>
      </trkpt>
      <trkpt lat="43.96964" lon="0.06734">
        <ele>98.8</ele>
        <time>2025-03-30T08:13:07Z</time>
      </trkpt>
      <trkpt lat="43.96965" lon="0.06735">
        <ele>98.9</ele>
        <time>2025-03-30T08:13:08Z</time>
      </trkpt>
      <trkpt lat="43.96966" lon="0.06736">
        <ele>98.9</ele>
        <time>2025-03-30T08:13:09Z</time>
      </trkpt>
      <trkpt lat="43.96966" lon="0.06737">
        <ele>99</ele>
        <time>2025-03-30T08:13:10Z</time>
      </trkpt>
      <trkpt lat="43.96967" lon="0.06738">
        <ele>99</ele>
        <time>2025-03-30T08:13:11Z</time>
      </trkpt>
      <trkpt lat="43.96968" lon="0.06738">
        <ele>99.1</ele>
        <time>2025-03-30T08:13:12Z</time>
      </trkpt>
      <trkpt lat="43.96969" lon="0.06739">
        <ele>99.2</ele>
        <time>2025-03-30T08:13:13Z</time>
      </trkpt>
      <trkpt lat="43.9697" lon="0.0674">
        <ele>99.2</ele>
        <time>2025-03-30T08:13:14Z</time>
      </trkpt>
      <trkpt lat="43.96971" lon="0.06741">
        <ele>99.3</ele>
        <time>2025-03-30T08:13:15Z</time>
      </trkpt>
      <trkpt lat="43.96972" lon="0.06742">
        <ele>99.4</ele>
        <time>2025-03-30T08:13:16Z</time>
      </trkpt>
      <trkpt lat="43.96973" lon="0.06742">
        <ele>99.4</ele>
        <time>2025-03-30T08:13:17Z</time>
      </trkpt>
      <trkpt lat="43.96974" lon="0.06743">
        <ele>99.5</ele>
        <time>2025-03-30T08:13:18Z</time>
      </trkpt>
      <trkpt lat="43.96975" lon="0.06745">
        <ele>99.6</ele>
        <time>2025-03-30T08:13:20Z</time>
      </trkpt>
      <trkpt lat="43.96976" lon="0.06747">
        <ele>99.7</ele>
        <time>2025-03-30T08:13:21Z</time>
      </trkpt>
      <trkpt lat="43.96977" lon="0.06747">
        <ele>99.7</ele>
        <time>2025-03-30T08:13:22Z</time>
      </trkpt>
      <trkpt lat="43.96978" lon="0.06748">
        <ele>99.8</ele>
        <time>2025-03-30T08:13:23Z</time>
      </trkpt>
      <trkpt lat="43.96979" lon="0.06749">
        <ele>99.9</ele>
        <time>2025-03-30T08:13:24Z</time>
      </trkpt>
      <trkpt lat="43.9698" lon="0.0675">
        <ele>99.9</ele>
        <time>2025-03-30T08:13:25Z</time>
      </trkpt>
      <trkpt lat="43.96981" lon="0.0675">
        <ele>100</ele>
        <time>2025-03-30T08:13:26Z</time>
      </trkpt>
      <trkpt lat="43.96982" lon="0.06751">
        <ele>100.1</ele>
        <time>2025-03-30T08:13:27Z</time>
      </trkpt>
      <trkpt lat="43.96983" lon="0.06752">
        <ele>100.1</ele>
        <time>2025-03-30T08:13:28Z</time>
      </trkpt>
      <trkpt lat="43.96984" lon="0.06752">
        <ele>100.2</ele>
        <time>2025-03-30T08:13:29Z</time>
      </trkpt>
      <trkpt lat="43.96985" lon="0.06752">
        <ele>100.3</ele>
        <time>2025-03-30T08:13:30Z</time>
      </trkpt>
      <trkpt lat="43.96986" lon="0.06753">
        <ele>100.3</ele>
        <time>2025-03-30T08:13:31Z</time>
      </trkpt>
      <trkpt lat="43.96987" lon="0.06753">
        <ele>100.4</ele>
        <time>2025-03-30T08:13:32Z</time>
      </trkpt>
      <trkpt lat="43.96987" lon="0.06754">
        <ele>100.4</ele>
        <time>2025-03-30T08:13:33Z</time>
      </trkpt>
      <trkpt lat="43.96988" lon="0.06755">
        <ele>100.5</ele>
        <time>2025-03-30T08:13:34Z</time>
      </trkpt>
      <trkpt lat="43.96989" lon="0.06756">
        <ele>100.6</ele>
        <time>2025-03-30T08:13:35Z</time>
      </trkpt>
      <trkpt lat="43.96991" lon="0.06757">
        <ele>100.6</ele>
        <time>2025-03-30T08:13:36Z</time>
      </trkpt>
      <trkpt lat="43.96992" lon="0.06758">
        <ele>100.7</ele>
        <time>2025-03-30T08:13:37Z</time>
      </trkpt>
      <trkpt lat="43.96993" lon="0.06759">
        <ele>100.8</ele>
        <time>2025-03-30T08:13:38Z</time>
      </trkpt>
      <trkpt lat="43.96994" lon="0.0676">
        <ele>100.9</ele>
        <time>2025-03-30T08:13:39Z</time>
      </trkpt>
      <trkpt lat="43.96995" lon="0.06761">
        <ele>100.9</ele>
        <time>2025-03-30T08:13:40Z</time>
      </trkpt>
      <trkpt lat="43.96996" lon="0.06762">
        <ele>101</ele>
        <time>2025-03-30T08:13:41Z</time>
      </trkpt>
      <trkpt lat="43.96997" lon="0.06763">
        <ele>101</ele>
        <time>2025-03-30T08:13:42Z</time>
      </trkpt>
      <trkpt lat="43.96997" lon="0.06764">
        <ele>101.1</ele>
        <time>2025-03-30T08:13:43Z</time>
      </trkpt>
      <trkpt lat="43.96998" lon="0.06765">
        <ele>101.2</ele>
        <time>2025-03-30T08:13:44Z</time>
      </trkpt>
      <trkpt lat="43.96999" lon="0.06766">
        <ele>101.2</ele>
        <time>2025-03-30T08:13:45Z</time>
      </trkpt>
      <trkpt lat="43.97" lon="0.06767">
        <ele>101.3</ele>
        <time>2025-03-30T08:13:46Z</time>
      </trkpt>
      <trkpt lat="43.97001" lon="0.06768">
        <ele>101.3</ele>
        <time>2025-03-30T08:13:47Z</time>
      </trkpt>
      <trkpt lat="43.97002" lon="0.06768">
        <ele>101.4</ele>
        <time>2025-03-30T08:13:48Z</time>
      </trkpt>
      <trkpt lat="43.97003" lon="0.06769">
        <ele>101.4</ele>
        <time>2025-03-30T08:13:49Z</time>
      </trkpt>
      <trkpt lat="43.97004" lon="0.0677">
        <ele>101.5</ele>
        <time>2025-03-30T08:13:50Z</time>
      </trkpt>
      <trkpt lat="43.97005" lon="0.0677">
        <ele>101.6</ele>
        <time>2025-03-30T08:13:51Z</time>
      </trkpt>
      <trkpt lat="43.97007" lon="0.0677">
        <ele>101.7</ele>
        <time>2025-03-30T08:13:52Z</time>
      </trkpt>
      <trkpt lat="43.97008" lon="0.06771">
        <ele>101.7</ele>
        <time>2025-03-30T08:13:53Z</time>
      </trkpt>
      <trkpt lat="43.97009" lon="0.06772">
        <ele>101.8</ele>
        <time>2025-03-30T08:13:54Z</time>
      </trkpt>
      <trkpt lat="43.97009" lon="0.06772">
        <ele>101.8</ele>
        <time>2025-03-30T08:13:55Z</time>
      </trkpt>
      <trkpt lat="43.9701" lon="0.06772">
        <ele>101.9</ele>
        <time>2025-03-30T08:13:56Z</time>
      </trkpt>
      <trkpt lat="43.97011" lon="0.06772">
        <ele>101.9</ele>
        <time>2025-03-30T08:13:57Z</time>
      </trkpt>
      <trkpt lat="43.97012" lon="0.06772">
        <ele>102</ele>
        <time>2025-03-30T08:13:58Z</time>
      </trkpt>
      <trkpt lat="43.97014" lon="0.06774">
        <ele>102.1</ele>
        <time>2025-03-30T08:13:59Z</time>
      </trkpt>
      <trkpt lat="43.97015" lon="0.06774">
        <ele>102.2</ele>
        <time>2025-03-30T08:14:00Z</time>
      </trkpt>
      <trkpt lat="43.97015" lon="0.06775">
        <ele>102.2</ele>
        <time>2025-03-30T08:14:01Z</time>
      </trkpt>
      <trkpt lat="43.97017" lon="0.06776">
        <ele>102.3</ele>
        <time>2025-03-30T08:14:02Z</time>
      </trkpt>
      <trkpt lat="43.97018" lon="0.06777">
        <ele>102.4</ele>
        <time>2025-03-30T08:14:03Z</time>
      </trkpt>
      <trkpt lat="43.97018" lon="0.06778">
        <ele>102.4</ele>
        <time>2025-03-30T08:14:04Z</time>
      </trkpt>
      <trkpt lat="43.9702" lon="0.0678">
        <ele>102.6</ele>
        <time>2025-03-30T08:14:05Z</time>
      </trkpt>
      <trkpt lat="43.97021" lon="0.06781">
        <ele>102.6</ele>
        <time>2025-03-30T08:14:06Z</time>
      </trkpt>
      <trkpt lat="43.97022" lon="0.06781">
        <ele>102.7</ele>
        <time>2025-03-30T08:14:07Z</time>
      </trkpt>
      <trkpt lat="43.97023" lon="0.06782">
        <ele>102.7</ele>
        <time>2025-03-30T08:14:08Z</time>
      </trkpt>
      <trkpt lat="43.97025" lon="0.06783">
        <ele>102.8</ele>
        <time>2025-03-30T08:14:09Z</time>
      </trkpt>
      <trkpt lat="43.97026" lon="0.06784">
        <ele>102.9</ele>
        <time>2025-03-30T08:14:10Z</time>
      </trkpt>
      <trkpt lat="43.97027" lon="0.06785">
        <ele>103</ele>
        <time>2025-03-30T08:14:11Z</time>
      </trkpt>
      <trkpt lat="43.97028" lon="0.06786">
        <ele>103</ele>
        <time>2025-03-30T08:14:12Z</time>
      </trkpt>
      <trkpt lat="43.9703" lon="0.06787">
        <ele>103.1</ele>
        <time>2025-03-30T08:14:13Z</time>
      </trkpt>
      <trkpt lat="43.97032" lon="0.06788">
        <ele>103.2</ele>
        <time>2025-03-30T08:14:14Z</time>
      </trkpt>
      <trkpt lat="43.97032" lon="0.06789">
        <ele>103.2</ele>
        <time>2025-03-30T08:14:15Z</time>
      </trkpt>
      <trkpt lat="43.97034" lon="0.0679">
        <ele>103.3</ele>
        <time>2025-03-30T08:14:16Z</time>
      </trkpt>
      <trkpt lat="43.97035" lon="0.0679">
        <ele>103.4</ele>
        <time>2025-03-30T08:14:17Z</time>
      </trkpt>
      <trkpt lat="43.97036" lon="0.06789">
        <ele>103.4</ele>
        <time>2025-03-30T08:14:18Z</time>
      </trkpt>
      <trkpt lat="43.97038" lon="0.06788">
        <ele>103.5</ele>
        <time>2025-03-30T08:14:19Z</time>
      </trkpt>
      <trkpt lat="43.97039" lon="0.06788">
        <ele>103.6</ele>
        <time>2025-03-30T08:14:20Z</time>
      </trkpt>
      <trkpt lat="43.97041" lon="0.06788">
        <ele>103.7</ele>
        <time>2025-03-30T08:14:21Z</time>
      </trkpt>
      <trkpt lat="43.97042" lon="0.06788">
        <ele>103.7</ele>
        <time>2025-03-30T08:14:22Z</time>
      </trkpt>
      <trkpt lat="43.97043" lon="0.06788">
        <ele>103.8</ele>
        <time>2025-03-30T08:14:23Z</time>
      </trkpt>
      <trkpt lat="43.97045" lon="0.06788">
        <ele>103.9</ele>
        <time>2025-03-30T08:14:24Z</time>
      </trkpt>
      <trkpt lat="43.97045" lon="0.06789">
        <ele>103.9</ele>
        <time>2025-03-30T08:14:25Z</time>
      </trkpt>
      <trkpt lat="43.97046" lon="0.06789">
        <ele>103.9</ele>
        <time>2025-03-30T08:14:26Z</time>
      </trkpt>
      <trkpt lat="43.97048" lon="0.06791">
        <ele>104.1</ele>
        <time>2025-03-30T08:14:27Z</time>
      </trkpt>
      <trkpt lat="43.97049" lon="0.06792">
        <ele>104.1</ele>
        <time>2025-03-30T08:14:28Z</time>
      </trkpt>
      <trkpt lat="43.9705" lon="0.06793">
        <ele>104.2</ele>
        <time>2025-03-30T08:14:29Z</time>
      </trkpt>
      <trkpt lat="43.97051" lon="0.06794">
        <ele>104.3</ele>
        <time>2025-03-30T08:14:30Z</time>
      </trkpt>
      <trkpt lat="43.97053" lon="0.06794">
        <ele>104.4</ele>
        <time>2025-03-30T08:14:31Z</time>
      </trkpt>
      <trkpt lat="43.97053" lon="0.06794">
        <ele>104.4</ele>
        <time>2025-03-30T08:14:32Z</time>
      </trkpt>
      <trkpt lat="43.97056" lon="0.06794">
        <ele>104.6</ele>
        <time>2025-03-30T08:14:33Z</time>
      </trkpt>
      <trkpt lat="43.97059" lon="0.06795">
        <ele>104.8</ele>
        <time>2025-03-30T08:14:34Z</time>
      </trkpt>
      <trkpt lat="43.9706" lon="0.06795">
        <ele>104.9</ele>
        <time>2025-03-30T08:14:35Z</time>
      </trkpt>
      <trkpt lat="43.97063" lon="0.06796">
        <ele>105.1</ele>
        <time>2025-03-30T08:14:37Z</time>
      </trkpt>
      <trkpt lat="43.97064" lon="0.06796">
        <ele>105.1</ele>
        <time>2025-03-30T08:14:38Z</time>
      </trkpt>
      <trkpt lat="43.97066" lon="0.06797">
        <ele>105.3</ele>
        <time>2025-03-30T08:14:39Z</time>
      </trkpt>
      <trkpt lat="43.97068" lon="0.06799">
        <ele>105.4</ele>
        <time>2025-03-30T08:14:41Z</time>
      </trkpt>
      <trkpt lat="43.97069" lon="0.068">
        <ele>105.5</ele>
        <time>2025-03-30T08:14:42Z</time>
      </trkpt>
      <trkpt lat="43.9707" lon="0.06801">
        <ele>105.6</ele>
        <time>2025-03-30T08:14:43Z</time>
      </trkpt>
      <trkpt lat="43.97071" lon="0.06803">
        <ele>105.7</ele>
        <time>2025-03-30T08:14:44Z</time>
      </trkpt>
      <trkpt lat="43.97074" lon="0.06806">
        <ele>105.9</ele>
        <time>2025-03-30T08:14:46Z</time>
      </trkpt>
      <trkpt lat="43.97074" lon="0.06806">
        <ele>105.9</ele>
        <time>2025-03-30T08:14:47Z</time>
      </trkpt>
      <trkpt lat="43.97075" lon="0.06807">
        <ele>106</ele>
        <time>2025-03-30T08:14:48Z</time>
      </trkpt>
      <trkpt lat="43.97077" lon="0.06808">
        <ele>106.1</ele>
        <time>2025-03-30T08:14:50Z</time>
      </trkpt>
      <trkpt lat="43.9708" lon="0.06809">
        <ele>106.3</ele>
        <time>2025-03-30T08:14:52Z</time>
      </trkpt>
      <trkpt lat="43.97083" lon="0.0681">
        <ele>106.4</ele>
        <time>2025-03-30T08:14:54Z</time>
      </trkpt>
      <trkpt lat="43.97084" lon="0.06811">
        <ele>106.5</ele>
        <time>2025-03-30T08:14:55Z</time>
      </trkpt>
      <trkpt lat="43.97086" lon="0.06812">
        <ele>106.6</ele>
        <time>2025-03-30T08:14:57Z</time>
      </trkpt>
      <trkpt lat="43.97087" lon="0.06813">
        <ele>106.6</ele>
        <time>2025-03-30T08:14:58Z</time>
      </trkpt>
      <trkpt lat="43.97088" lon="0.06814">
        <ele>106.7</ele>
        <time>2025-03-30T08:14:59Z</time>
      </trkpt>
      <trkpt lat="43.97089" lon="0.06815">
        <ele>106.7</ele>
        <time>2025-03-30T08:15:00Z</time>
      </trkpt>
      <trkpt lat="43.9709" lon="0.06816">
        <ele>106.8</ele>
        <time>2025-03-30T08:15:01Z</time>
      </trkpt>
      <trkpt lat="43.97091" lon="0.06817">
        <ele>106.8</ele>
        <time>2025-03-30T08:15:02Z</time>
      </trkpt>
      <trkpt lat="43.97093" lon="0.06819">
        <ele>106.9</ele>
        <time>2025-03-30T08:15:03Z</time>
      </trkpt>
      <trkpt lat="43.97093" lon="0.0682">
        <ele>107</ele>
        <time>2025-03-30T08:15:04Z</time>
      </trkpt>
      <trkpt lat="43.97094" lon="0.06821">
        <ele>107</ele>
        <time>2025-03-30T08:15:05Z</time>
      </trkpt>
      <trkpt lat="43.97095" lon="0.06822">
        <ele>107</ele>
        <time>2025-03-30T08:15:06Z</time>
      </trkpt>
      <trkpt lat="43.97095" lon="0.06823">
        <ele>107.1</ele>
        <time>2025-03-30T08:15:07Z</time>
      </trkpt>
      <trkpt lat="43.97097" lon="0.06825">
        <ele>107.2</ele>
        <time>2025-03-30T08:15:09Z</time>
      </trkpt>
      <trkpt lat="43.97098" lon="0.06827">
        <ele>107.2</ele>
        <time>2025-03-30T08:15:10Z</time>
      </trkpt>
      <trkpt lat="43.97098" lon="0.06828">
        <ele>107.3</ele>
        <time>2025-03-30T08:15:11Z</time>
      </trkpt>
      <trkpt lat="43.97098" lon="0.06829">
        <ele>107.3</ele>
        <time>2025-03-30T08:15:12Z</time>
      </trkpt>
      <trkpt lat="43.97099" lon="0.0683">
        <ele>107.4</ele>
        <time>2025-03-30T08:15:13Z</time>
      </trkpt>
      <trkpt lat="43.97099" lon="0.06831">
        <ele>107.4</ele>
        <time>2025-03-30T08:15:14Z</time>
      </trkpt>
      <trkpt lat="43.971" lon="0.06832">
        <ele>107.4</ele>
        <time>2025-03-30T08:15:15Z</time>
      </trkpt>
      <trkpt lat="43.971" lon="0.06835">
        <ele>107.5</ele>
        <time>2025-03-30T08:15:17Z</time>
      </trkpt>
      <trkpt lat="43.971" lon="0.06837">
        <ele>107.6</ele>
        <time>2025-03-30T08:15:18Z</time>
      </trkpt>
      <trkpt lat="43.971" lon="0.06839">
        <ele>107.6</ele>
        <time>2025-03-30T08:15:19Z</time>
      </trkpt>
      <trkpt lat="43.971" lon="0.0684">
        <ele>107.7</ele>
        <time>2025-03-30T08:15:20Z</time>
      </trkpt>
      <trkpt lat="43.97099" lon="0.06842">
        <ele>107.7</ele>
        <time>2025-03-30T08:15:22Z</time>
      </trkpt>
      <trkpt lat="43.97099" lon="0.06844">
        <ele>107.8</ele>
        <time>2025-03-30T08:15:23Z</time>
      </trkpt>
      <trkpt lat="43.97099" lon="0.06844">
        <ele>107.8</ele>
        <time>2025-03-30T08:15:24Z</time>
      </trkpt>
      <trkpt lat="43.97099" lon="0.06845">
        <ele>107.8</ele>
        <time>2025-03-30T08:15:25Z</time>
      </trkpt>
      <trkpt lat="43.97098" lon="0.06846">
        <ele>107.8</ele>
        <time>2025-03-30T08:15:26Z</time>
      </trkpt>
      <trkpt lat="43.97097" lon="0.06847">
        <ele>107.9</ele>
        <time>2025-03-30T08:15:27Z</time>
      </trkpt>
      <trkpt lat="43.97096" lon="0.06848">
        <ele>108</ele>
        <time>2025-03-30T08:15:28Z</time>
      </trkpt>
      <trkpt lat="43.97096" lon="0.0685">
        <ele>108</ele>
        <time>2025-03-30T08:15:29Z</time>
      </trkpt>
      <trkpt lat="43.97095" lon="0.06851">
        <ele>108.1</ele>
        <time>2025-03-30T08:15:30Z</time>
      </trkpt>
      <trkpt lat="43.97095" lon="0.06853">
        <ele>108.1</ele>
        <time>2025-03-30T08:15:31Z</time>
      </trkpt>
      <trkpt lat="43.97095" lon="0.06853">
        <ele>108.1</ele>
        <time>2025-03-30T08:15:32Z</time>
      </trkpt>
      <trkpt lat="43.97094" lon="0.06854">
        <ele>108.2</ele>
        <time>2025-03-30T08:15:33Z</time>
      </trkpt>
      <trkpt lat="43.97093" lon="0.06855">
        <ele>108.3</ele>
        <time>2025-03-30T08:15:34Z</time>
      </trkpt>
      <trkpt lat="43.97092" lon="0.06856">
        <ele>108.3</ele>
        <time>2025-03-30T08:15:35Z</time>
      </trkpt>
      <trkpt lat="43.97091" lon="0.06856">
        <ele>108.4</ele>
        <time>2025-03-30T08:15:36Z</time>
      </trkpt>
      <trkpt lat="43.97089" lon="0.06856">
        <ele>108.4</ele>
        <time>2025-03-30T08:15:37Z</time>
      </trkpt>
      <trkpt lat="43.97087" lon="0.06856">
        <ele>108.5</ele>
        <time>2025-03-30T08:15:39Z</time>
      </trkpt>
      <trkpt lat="43.97087" lon="0.06855">
        <ele>108.6</ele>
        <time>2025-03-30T08:15:41Z</time>
      </trkpt>
      <trkpt lat="43.97086" lon="0.06855">
        <ele>108.7</ele>
        <time>2025-03-30T08:15:42Z</time>
      </trkpt>
      <trkpt lat="43.97085" lon="0.06855">
        <ele>108.7</ele>
        <time>2025-03-30T08:15:43Z</time>
      </trkpt>
      <trkpt lat="43.97084" lon="0.06855">
        <ele>108.7</ele>
        <time>2025-03-30T08:15:44Z</time>
      </trkpt>
      <trkpt lat="43.97082" lon="0.06854">
        <ele>108.8</ele>
        <time>2025-03-30T08:15:45Z</time>
      </trkpt>
      <trkpt lat="43.9708" lon="0.06854">
        <ele>108.9</ele>
        <time>2025-03-30T08:15:46Z</time>
      </trkpt>
      <trkpt lat="43.97079" lon="0.06854">
        <ele>109</ele>
        <time>2025-03-30T08:15:47Z</time>
      </trkpt>
      <trkpt lat="43.97077" lon="0.06853">
        <ele>109.1</ele>
        <time>2025-03-30T08:15:48Z</time>
      </trkpt>
      <trkpt lat="43.97075" lon="0.06853">
        <ele>109.1</ele>
        <time>2025-03-30T08:15:49Z</time>
      </trkpt>
      <trkpt lat="43.97074" lon="0.06853">
        <ele>109.2</ele>
        <time>2025-03-30T08:15:50Z</time>
      </trkpt>
      <trkpt lat="43.97072" lon="0.06853">
        <ele>109.3</ele>
        <time>2025-03-30T08:15:51Z</time>
      </trkpt>
      <trkpt lat="43.97071" lon="0.06853">
        <ele>109.4</ele>
        <time>2025-03-30T08:15:52Z</time>
      </trkpt>
      <trkpt lat="43.9707" lon="0.06854">
        <ele>109.4</ele>
        <time>2025-03-30T08:15:53Z</time>
      </trkpt>
      <trkpt lat="43.97069" lon="0.06856">
        <ele>109.5</ele>
        <time>2025-03-30T08:15:55Z</time>
      </trkpt>
      <trkpt lat="43.97067" lon="0.0686">
        <ele>110</ele>
        <time>2025-03-30T08:15:56Z</time>
      </trkpt>
      <trkpt lat="43.97066" lon="0.06861">
        <ele>110.2</ele>
        <time>2025-03-30T08:15:57Z</time>
      </trkpt>
      <trkpt lat="43.97065" lon="0.06863">
        <ele>110.5</ele>
        <time>2025-03-30T08:15:59Z</time>
      </trkpt>
      <trkpt lat="43.97064" lon="0.06867">
        <ele>111</ele>
        <time>2025-03-30T08:16:00Z</time>
      </trkpt>
      <trkpt lat="43.97065" lon="0.06868">
        <ele>111.2</ele>
        <time>2025-03-30T08:16:01Z</time>
      </trkpt>
      <trkpt lat="43.97065" lon="0.06872">
        <ele>111.7</ele>
        <time>2025-03-30T08:16:03Z</time>
      </trkpt>
      <trkpt lat="43.97065" lon="0.06874">
        <ele>111.9</ele>
        <time>2025-03-30T08:16:04Z</time>
      </trkpt>
      <trkpt lat="43.97064" lon="0.06876">
        <ele>112.3</ele>
        <time>2025-03-30T08:16:06Z</time>
      </trkpt>
      <trkpt lat="43.97064" lon="0.06876">
        <ele>112.3</ele>
        <time>2025-03-30T08:16:07Z</time>
      </trkpt>
      <trkpt lat="43.97064" lon="0.06875">
        <ele>112.4</ele>
        <time>2025-03-30T08:16:08Z</time>
      </trkpt>
      <trkpt lat="43.97065" lon="0.06876">
        <ele>112.6</ele>
        <time>2025-03-30T08:16:09Z</time>
      </trkpt>
      <trkpt lat="43.97066" lon="0.06876">
        <ele>112.7</ele>
        <time>2025-03-30T08:16:10Z</time>
      </trkpt>
      <trkpt lat="43.97066" lon="0.06876">
        <ele>112.8</ele>
        <time>2025-03-30T08:16:11Z</time>
      </trkpt>
      <trkpt lat="43.97066" lon="0.06876">
        <ele>112.8</ele>
        <time>2025-03-30T08:16:12Z</time>
      </trkpt>
      <trkpt lat="43.97066" lon="0.06876">
        <ele>112.8</ele>
        <time>2025-03-30T08:16:13Z</time>
      </trkpt>
      <trkpt lat="43.97066" lon="0.06876">
        <ele>112.9</ele>
        <time>2025-03-30T08:16:14Z</time>
      </trkpt>
      <trkpt lat="43.97066" lon="0.06876">
        <ele>112.9</ele>
        <time>2025-03-30T08:16:16Z</time>
      </trkpt>
      <trkpt lat="43.97066" lon="0.06876">
        <ele>112.9</ele>
        <time>2025-03-30T08:16:17Z</time>
      </trkpt>
      <trkpt lat="43.97066" lon="0.06876">
        <ele>113</ele>
        <time>2025-03-30T08:16:18Z</time>
      </trkpt>
      <trkpt lat="43.97066" lon="0.06876">
        <ele>113</ele>
        <time>2025-03-30T08:16:19Z</time>
      </trkpt>
      <trkpt lat="43.97067" lon="0.06877">
        <ele>113.1</ele>
        <time>2025-03-30T08:16:20Z</time>
      </trkpt>
      <trkpt lat="43.97067" lon="0.06877">
        <ele>113.1</ele>
        <time>2025-03-30T08:16:21Z</time>
      </trkpt>
      <trkpt lat="43.97067" lon="0.06879">
        <ele>113.4</ele>
        <time>2025-03-30T08:16:22Z</time>
      </trkpt>
      <trkpt lat="43.97068" lon="0.06882">
        <ele>113.7</ele>
        <time>2025-03-30T08:16:23Z</time>
      </trkpt>
      <trkpt lat="43.97068" lon="0.06884">
        <ele>113.8</ele>
        <time>2025-03-30T08:16:24Z</time>
      </trkpt>
      <trkpt lat="43.97067" lon="0.06886">
        <ele>113.8</ele>
        <time>2025-03-30T08:16:25Z</time>
      </trkpt>
      <trkpt lat="43.97067" lon="0.06888">
        <ele>113.8</ele>
        <time>2025-03-30T08:16:26Z</time>
      </trkpt>
      <trkpt lat="43.97067" lon="0.06889">
        <ele>113.8</ele>
        <time>2025-03-30T08:16:27Z</time>
      </trkpt>
      <trkpt lat="43.97068" lon="0.06891">
        <ele>113.8</ele>
        <time>2025-03-30T08:16:28Z</time>
      </trkpt>
      <trkpt lat="43.97069" lon="0.06892">
        <ele>113.8</ele>
        <time>2025-03-30T08:16:29Z</time>
      </trkpt>
      <trkpt lat="43.9707" lon="0.06894">
        <ele>113.9</ele>
        <time>2025-03-30T08:16:30Z</time>
      </trkpt>
      <trkpt lat="43.9707" lon="0.06896">
        <ele>113.9</ele>
        <time>2025-03-30T08:16:31Z</time>
      </trkpt>
      <trkpt lat="43.97071" lon="0.06897">
        <ele>113.9</ele>
        <time>2025-03-30T08:16:32Z</time>
      </trkpt>
      <trkpt lat="43.97071" lon="0.06898">
        <ele>113.9</ele>
        <time>2025-03-30T08:16:33Z</time>
      </trkpt>
      <trkpt lat="43.97071" lon="0.06899">
        <ele>113.9</ele>
        <time>2025-03-30T08:16:34Z</time>
      </trkpt>
      <trkpt lat="43.9707" lon="0.06897">
        <ele>113.9</ele>
        <time>2025-03-30T08:16:35Z</time>
      </trkpt>
      <trkpt lat="43.9707" lon="0.06895">
        <ele>113.9</ele>
        <time>2025-03-30T08:16:36Z</time>
      </trkpt>
      <trkpt lat="43.9707" lon="0.06893">
        <ele>113.9</ele>
        <time>2025-03-30T08:16:37Z</time>
      </trkpt>
      <trkpt lat="43.97069" lon="0.06891">
        <ele>113.9</ele>
        <time>2025-03-30T08:16:38Z</time>
      </trkpt>
      <trkpt lat="43.97068" lon="0.06891">
        <ele>113.9</ele>
        <time>2025-03-30T08:16:39Z</time>
      </trkpt>
      <trkpt lat="43.97066" lon="0.06892">
        <ele>113.8</ele>
        <time>2025-03-30T08:16:40Z</time>
      </trkpt>
      <trkpt lat="43.97066" lon="0.06893">
        <ele>113.8</ele>
        <time>2025-03-30T08:16:41Z</time>
      </trkpt>
      <trkpt lat="43.97065" lon="0.06894">
        <ele>113.8</ele>
        <time>2025-03-30T08:16:42Z</time>
      </trkpt>
      <trkpt lat="43.97064" lon="0.06896">
        <ele>113.8</ele>
        <time>2025-03-30T08:16:43Z</time>
      </trkpt>
      <trkpt lat="43.97064" lon="0.06896">
        <ele>113.8</ele>
        <time>2025-03-30T08:16:44Z</time>
      </trkpt>
      <trkpt lat="43.97063" lon="0.06897">
        <ele>113.8</ele>
        <time>2025-03-30T08:16:45Z</time>
      </trkpt>
      <trkpt lat="43.97063" lon="0.06898">
        <ele>113.9</ele>
        <time>2025-03-30T08:16:46Z</time>
      </trkpt>
      <trkpt lat="43.97063" lon="0.06901">
        <ele>114.1</ele>
        <time>2025-03-30T08:16:48Z</time>
      </trkpt>
      <trkpt lat="43.97063" lon="0.06902">
        <ele>114.2</ele>
        <time>2025-03-30T08:16:49Z</time>
      </trkpt>
      <trkpt lat="43.97063" lon="0.06903">
        <ele>114.2</ele>
        <time>2025-03-30T08:16:50Z</time>
      </trkpt>
      <trkpt lat="43.97062" lon="0.06905">
        <ele>114.3</ele>
        <time>2025-03-30T08:16:51Z</time>
      </trkpt>
      <trkpt lat="43.97063" lon="0.06906">
        <ele>114.4</ele>
        <time>2025-03-30T08:16:52Z</time>
      </trkpt>
      <trkpt lat="43.97063" lon="0.06906">
        <ele>114.4</ele>
        <time>2025-03-30T08:16:53Z</time>
      </trkpt>
      <trkpt lat="43.97063" lon="0.06907">
        <ele>114.5</ele>
        <time>2025-03-30T08:16:54Z</time>
      </trkpt>
      <trkpt lat="43.97063" lon="0.06908">
        <ele>114.6</ele>
        <time>2025-03-30T08:16:55Z</time>
      </trkpt>
      <trkpt lat="43.97064" lon="0.06909">
        <ele>114.6</ele>
        <time>2025-03-30T08:16:56Z</time>
      </trkpt>
      <trkpt lat="43.97064" lon="0.0691">
        <ele>114.6</ele>
        <time>2025-03-30T08:16:57Z</time>
      </trkpt>
      <trkpt lat="43.97064" lon="0.0691">
        <ele>114.7</ele>
        <time>2025-03-30T08:16:58Z</time>
      </trkpt>
      <trkpt lat="43.97063" lon="0.06911">
        <ele>114.7</ele>
        <time>2025-03-30T08:16:59Z</time>
      </trkpt>
      <trkpt lat="43.97063" lon="0.0691">
        <ele>114.8</ele>
        <time>2025-03-30T08:17:00Z</time>
      </trkpt>
      <trkpt lat="43.97063" lon="0.0691">
        <ele>114.8</ele>
        <time>2025-03-30T08:17:01Z</time>
      </trkpt>
      <trkpt lat="43.97063" lon="0.06909">
        <ele>114.8</ele>
        <time>2025-03-30T08:17:02Z</time>
      </trkpt>
      <trkpt lat="43.97063" lon="0.06909">
        <ele>114.9</ele>
        <time>2025-03-30T08:17:03Z</time>
      </trkpt>
      <trkpt lat="43.97063" lon="0.06909">
        <ele>114.9</ele>
        <time>2025-03-30T08:17:04Z</time>
      </trkpt>
      <trkpt lat="43.97063" lon="0.06907">
        <ele>115</ele>
        <time>2025-03-30T08:17:05Z</time>
      </trkpt>
      <trkpt lat="43.97063" lon="0.06906">
        <ele>115.1</ele>
        <time>2025-03-30T08:17:06Z</time>
      </trkpt>
      <trkpt lat="43.97063" lon="0.06906">
        <ele>115.1</ele>
        <time>2025-03-30T08:17:07Z</time>
      </trkpt>
      <trkpt lat="43.97063" lon="0.06907">
        <ele>115.1</ele>
        <time>2025-03-30T08:17:08Z</time>
      </trkpt>
      <trkpt lat="43.97062" lon="0.06907">
        <ele>115.2</ele>
        <time>2025-03-30T08:17:09Z</time>
      </trkpt>
      <trkpt lat="43.97061" lon="0.06908">
        <ele>115.4</ele>
        <time>2025-03-30T08:17:10Z</time>
      </trkpt>
      <trkpt lat="43.9706" lon="0.06908">
        <ele>115.5</ele>
        <time>2025-03-30T08:17:11Z</time>
      </trkpt>
      <trkpt lat="43.97058" lon="0.06908">
        <ele>115.7</ele>
        <time>2025-03-30T08:17:12Z</time>
      </trkpt>
      <trkpt lat="43.97057" lon="0.06908">
        <ele>115.8</ele>
        <time>2025-03-30T08:17:13Z</time>
      </trkpt>
      <trkpt lat="43.97056" lon="0.06908">
        <ele>115.9</ele>
        <time>2025-03-30T08:17:14Z</time>
      </trkpt>
      <trkpt lat="43.97055" lon="0.06907">
        <ele>116</ele>
        <time>2025-03-30T08:17:15Z</time>
      </trkpt>
      <trkpt lat="43.97054" lon="0.06906">
        <ele>116.1</ele>
        <time>2025-03-30T08:17:16Z</time>
      </trkpt>
      <trkpt lat="43.97053" lon="0.06906">
        <ele>116.2</ele>
        <time>2025-03-30T08:17:17Z</time>
      </trkpt>
      <trkpt lat="43.97052" lon="0.06906">
        <ele>116.3</ele>
        <time>2025-03-30T08:17:18Z</time>
      </trkpt>
      <trkpt lat="43.97051" lon="0.06906">
        <ele>116.4</ele>
        <time>2025-03-30T08:17:19Z</time>
      </trkpt>
      <trkpt lat="43.97049" lon="0.06906">
        <ele>116.5</ele>
        <time>2025-03-30T08:17:20Z</time>
      </trkpt>
      <trkpt lat="43.97049" lon="0.06905">
        <ele>116.6</ele>
        <time>2025-03-30T08:17:21Z</time>
      </trkpt>
      <trkpt lat="43.97047" lon="0.06905">
        <ele>116.7</ele>
        <time>2025-03-30T08:17:22Z</time>
      </trkpt>
      <trkpt lat="43.97046" lon="0.06905">
        <ele>116.8</ele>
        <time>2025-03-30T08:17:23Z</time>
      </trkpt>
      <trkpt lat="43.97045" lon="0.06905">
        <ele>116.9</ele>
        <time>2025-03-30T08:17:24Z</time>
      </trkpt>
      <trkpt lat="43.97044" lon="0.06905">
        <ele>117.1</ele>
        <time>2025-03-30T08:17:25Z</time>
      </trkpt>
      <trkpt lat="43.97043" lon="0.06906">
        <ele>117.2</ele>
        <time>2025-03-30T08:17:26Z</time>
      </trkpt>
      <trkpt lat="43.97042" lon="0.06907">
        <ele>117.3</ele>
        <time>2025-03-30T08:17:27Z</time>
      </trkpt>
      <trkpt lat="43.9704" lon="0.06907">
        <ele>117.4</ele>
        <time>2025-03-30T08:17:28Z</time>
      </trkpt>
      <trkpt lat="43.9704" lon="0.06908">
        <ele>117.4</ele>
        <time>2025-03-30T08:17:29Z</time>
      </trkpt>
      <trkpt lat="43.97039" lon="0.06909">
        <ele>117.5</ele>
        <time>2025-03-30T08:17:30Z</time>
      </trkpt>
      <trkpt lat="43.97038" lon="0.0691">
        <ele>117.6</ele>
        <time>2025-03-30T08:17:31Z</time>
      </trkpt>
      <trkpt lat="43.97038" lon="0.06912">
        <ele>117.7</ele>
        <time>2025-03-30T08:17:32Z</time>
      </trkpt>
      <trkpt lat="43.97037" lon="0.06914">
        <ele>117.8</ele>
        <time>2025-03-30T08:17:33Z</time>
      </trkpt>
      <trkpt lat="43.97037" lon="0.06916">
        <ele>117.9</ele>
        <time>2025-03-30T08:17:34Z</time>
      </trkpt>
      <trkpt lat="43.97037" lon="0.06918">
        <ele>118.1</ele>
        <time>2025-03-30T08:17:35Z</time>
      </trkpt>
      <trkpt lat="43.97037" lon="0.06919">
        <ele>118.1</ele>
        <time>2025-03-30T08:17:36Z</time>
      </trkpt>
      <trkpt lat="43.97037" lon="0.0692">
        <ele>118.2</ele>
        <time>2025-03-30T08:17:37Z</time>
      </trkpt>
      <trkpt lat="43.97036" lon="0.06921">
        <ele>118.3</ele>
        <time>2025-03-30T08:17:38Z</time>
      </trkpt>
      <trkpt lat="43.97036" lon="0.06922">
        <ele>118.3</ele>
        <time>2025-03-30T08:17:39Z</time>
      </trkpt>
      <trkpt lat="43.97038" lon="0.06924">
        <ele>118.5</ele>
        <time>2025-03-30T08:17:40Z</time>
      </trkpt>
      <trkpt lat="43.97038" lon="0.06925">
        <ele>118.5</ele>
        <time>2025-03-30T08:17:41Z</time>
      </trkpt>
      <trkpt lat="43.97038" lon="0.06926">
        <ele>118.6</ele>
        <time>2025-03-30T08:17:42Z</time>
      </trkpt>
      <trkpt lat="43.97039" lon="0.06928">
        <ele>118.7</ele>
        <time>2025-03-30T08:17:43Z</time>
      </trkpt>
      <trkpt lat="43.97039" lon="0.06929">
        <ele>118.8</ele>
        <time>2025-03-30T08:17:44Z</time>
      </trkpt>
      <trkpt lat="43.97039" lon="0.06931">
        <ele>118.9</ele>
        <time>2025-03-30T08:17:45Z</time>
      </trkpt>
      <trkpt lat="43.9704" lon="0.06932">
        <ele>118.9</ele>
        <time>2025-03-30T08:17:46Z</time>
      </trkpt>
      <trkpt lat="43.9704" lon="0.06933">
        <ele>119</ele>
        <time>2025-03-30T08:17:47Z</time>
      </trkpt>
      <trkpt lat="43.9704" lon="0.06934">
        <ele>119.1</ele>
        <time>2025-03-30T08:17:48Z</time>
      </trkpt>
      <trkpt lat="43.9704" lon="0.06936">
        <ele>119.2</ele>
        <time>2025-03-30T08:17:49Z</time>
      </trkpt>
      <trkpt lat="43.9704" lon="0.06937">
        <ele>119.2</ele>
        <time>2025-03-30T08:17:50Z</time>
      </trkpt>
      <trkpt lat="43.97041" lon="0.06936">
        <ele>119.3</ele>
        <time>2025-03-30T08:17:51Z</time>
      </trkpt>
      <trkpt lat="43.97041" lon="0.06935">
        <ele>119.4</ele>
        <time>2025-03-30T08:17:52Z</time>
      </trkpt>
      <trkpt lat="43.97041" lon="0.06934">
        <ele>119.4</ele>
        <time>2025-03-30T08:17:53Z</time>
      </trkpt>
      <trkpt lat="43.97041" lon="0.06934">
        <ele>119.4</ele>
        <time>2025-03-30T08:17:54Z</time>
      </trkpt>
      <trkpt lat="43.97041" lon="0.06934">
        <ele>119.5</ele>
        <time>2025-03-30T08:17:55Z</time>
      </trkpt>
      <trkpt lat="43.97041" lon="0.06934">
        <ele>119.5</ele>
        <time>2025-03-30T08:17:56Z</time>
      </trkpt>
      <trkpt lat="43.97041" lon="0.06935">
        <ele>119.5</ele>
        <time>2025-03-30T08:17:57Z</time>
      </trkpt>
      <trkpt lat="43.97041" lon="0.06935">
        <ele>119.5</ele>
        <time>2025-03-30T08:17:58Z</time>
      </trkpt>
      <trkpt lat="43.97041" lon="0.06939">
        <ele>119.8</ele>
        <time>2025-03-30T08:17:59Z</time>
      </trkpt>
      <trkpt lat="43.97041" lon="0.06943">
        <ele>120</ele>
        <time>2025-03-30T08:18:01Z</time>
      </trkpt>
      <trkpt lat="43.97042" lon="0.06944">
        <ele>120.1</ele>
        <time>2025-03-30T08:18:02Z</time>
      </trkpt>
      <trkpt lat="43.97042" lon="0.06945">
        <ele>120.1</ele>
        <time>2025-03-30T08:18:03Z</time>
      </trkpt>
      <trkpt lat="43.97042" lon="0.06947">
        <ele>120.3</ele>
        <time>2025-03-30T08:18:04Z</time>
      </trkpt>
      <trkpt lat="43.97042" lon="0.0695">
        <ele>120.4</ele>
        <time>2025-03-30T08:18:05Z</time>
      </trkpt>
      <trkpt lat="43.97043" lon="0.06951">
        <ele>120.5</ele>
        <time>2025-03-30T08:18:06Z</time>
      </trkpt>
      <trkpt lat="43.97042" lon="0.06952">
        <ele>120.6</ele>
        <time>2025-03-30T08:18:07Z</time>
      </trkpt>
      <trkpt lat="43.97042" lon="0.06954">
        <ele>120.7</ele>
        <time>2025-03-30T08:18:08Z</time>
      </trkpt>
      <trkpt lat="43.97043" lon="0.06955">
        <ele>120.7</ele>
        <time>2025-03-30T08:18:09Z</time>
      </trkpt>
      <trkpt lat="43.97044" lon="0.06956">
        <ele>120.7</ele>
        <time>2025-03-30T08:18:10Z</time>
      </trkpt>
      <trkpt lat="43.97045" lon="0.06955">
        <ele>120.6</ele>
        <time>2025-03-30T08:18:11Z</time>
      </trkpt>
      <trkpt lat="43.97046" lon="0.06954">
        <ele>120.6</ele>
        <time>2025-03-30T08:18:12Z</time>
      </trkpt>
      <trkpt lat="43.97047" lon="0.06954">
        <ele>120.6</ele>
        <time>2025-03-30T08:18:13Z</time>
      </trkpt>
      <trkpt lat="43.97049" lon="0.06952">
        <ele>120.5</ele>
        <time>2025-03-30T08:18:14Z</time>
      </trkpt>
      <trkpt lat="43.97051" lon="0.06951">
        <ele>120.5</ele>
        <time>2025-03-30T08:18:15Z</time>
      </trkpt>
      <trkpt lat="43.97052" lon="0.06951">
        <ele>120.4</ele>
        <time>2025-03-30T08:18:16Z</time>
      </trkpt>
      <trkpt lat="43.97054" lon="0.06951">
        <ele>120.4</ele>
        <time>2025-03-30T08:18:17Z</time>
      </trkpt>
      <trkpt lat="43.97055" lon="0.0695">
        <ele>120.4</ele>
        <time>2025-03-30T08:18:18Z</time>
      </trkpt>
      <trkpt lat="43.97056" lon="0.06951">
        <ele>120.4</ele>
        <time>2025-03-30T08:18:19Z</time>
      </trkpt>
      <trkpt lat="43.97057" lon="0.06951">
        <ele>120.4</ele>
        <time>2025-03-30T08:18:20Z</time>
      </trkpt>
      <trkpt lat="43.97058" lon="0.06951">
        <ele>120.4</ele>
        <time>2025-03-30T08:18:21Z</time>
      </trkpt>
      <trkpt lat="43.97059" lon="0.0695">
        <ele>120.4</ele>
        <time>2025-03-30T08:18:22Z</time>
      </trkpt>
      <trkpt lat="43.9706" lon="0.06951">
        <ele>120.4</ele>
        <time>2025-03-30T08:18:23Z</time>
      </trkpt>
      <trkpt lat="43.97061" lon="0.06951">
        <ele>120.4</ele>
        <time>2025-03-30T08:18:24Z</time>
      </trkpt>
      <trkpt lat="43.97062" lon="0.06951">
        <ele>120.4</ele>
        <time>2025-03-30T08:18:25Z</time>
      </trkpt>
      <trkpt lat="43.97062" lon="0.06953">
        <ele>120.4</ele>
        <time>2025-03-30T08:18:26Z</time>
      </trkpt>
      <trkpt lat="43.97062" lon="0.06954">
        <ele>120.4</ele>
        <time>2025-03-30T08:18:27Z</time>
      </trkpt>
      <trkpt lat="43.97062" lon="0.06956">
        <ele>120.4</ele>
        <time>2025-03-30T08:18:28Z</time>
      </trkpt>
      <trkpt lat="43.97063" lon="0.06957">
        <ele>120.4</ele>
        <time>2025-03-30T08:18:29Z</time>
      </trkpt>
      <trkpt lat="43.97063" lon="0.06958">
        <ele>120.4</ele>
        <time>2025-03-30T08:18:30Z</time>
      </trkpt>
      <trkpt lat="43.97062" lon="0.06958">
        <ele>120.4</ele>
        <time>2025-03-30T08:18:31Z</time>
      </trkpt>
      <trkpt lat="43.97062" lon="0.06959">
        <ele>120.4</ele>
        <time>2025-03-30T08:18:32Z</time>
      </trkpt>
      <trkpt lat="43.97061" lon="0.06959">
        <ele>120.4</ele>
        <time>2025-03-30T08:18:33Z</time>
      </trkpt>
      <trkpt lat="43.97061" lon="0.0696">
        <ele>120.4</ele>
        <time>2025-03-30T08:18:34Z</time>
      </trkpt>
      <trkpt lat="43.97061" lon="0.06961">
        <ele>120.4</ele>
        <time>2025-03-30T08:18:35Z</time>
      </trkpt>
      <trkpt lat="43.9706" lon="0.06962">
        <ele>120.4</ele>
        <time>2025-03-30T08:18:36Z</time>
      </trkpt>
      <trkpt lat="43.97059" lon="0.06963">
        <ele>120.4</ele>
        <time>2025-03-30T08:18:37Z</time>
      </trkpt>
      <trkpt lat="43.97058" lon="0.06963">
        <ele>120.4</ele>
        <time>2025-03-30T08:18:38Z</time>
      </trkpt>
      <trkpt lat="43.97057" lon="0.06964">
        <ele>120.4</ele>
        <time>2025-03-30T08:18:39Z</time>
      </trkpt>
      <trkpt lat="43.97056" lon="0.06965">
        <ele>120.4</ele>
        <time>2025-03-30T08:18:40Z</time>
      </trkpt>
      <trkpt lat="43.97056" lon="0.06966">
        <ele>120.4</ele>
        <time>2025-03-30T08:18:41Z</time>
      </trkpt>
      <trkpt lat="43.97056" lon="0.06967">
        <ele>120.4</ele>
        <time>2025-03-30T08:18:42Z</time>
      </trkpt>
      <trkpt lat="43.97058" lon="0.06967">
        <ele>120.4</ele>
        <time>2025-03-30T08:18:43Z</time>
      </trkpt>
      <trkpt lat="43.97059" lon="0.06964">
        <ele>120.4</ele>
        <time>2025-03-30T08:18:45Z</time>
      </trkpt>
      <trkpt lat="43.9706" lon="0.06963">
        <ele>120.4</ele>
        <time>2025-03-30T08:18:46Z</time>
      </trkpt>
      <trkpt lat="43.9706" lon="0.06962">
        <ele>120.4</ele>
        <time>2025-03-30T08:18:47Z</time>
      </trkpt>
      <trkpt lat="43.9706" lon="0.06962">
        <ele>120.4</ele>
        <time>2025-03-30T08:18:48Z</time>
      </trkpt>
      <trkpt lat="43.9706" lon="0.06962">
        <ele>120.4</ele>
        <time>2025-03-30T08:18:49Z</time>
      </trkpt>
      <trkpt lat="43.9706" lon="0.06961">
        <ele>120.4</ele>
        <time>2025-03-30T08:18:50Z</time>
      </trkpt>
      <trkpt lat="43.97061" lon="0.06961">
        <ele>120.4</ele>
        <time>2025-03-30T08:18:51Z</time>
      </trkpt>
      <trkpt lat="43.97062" lon="0.06961">
        <ele>120.4</ele>
        <time>2025-03-30T08:18:52Z</time>
      </trkpt>
      <trkpt lat="43.97063" lon="0.06964">
        <ele>120.4</ele>
        <time>2025-03-30T08:18:53Z</time>
      </trkpt>
      <trkpt lat="43.97063" lon="0.06965">
        <ele>120.4</ele>
        <time>2025-03-30T08:18:54Z</time>
      </trkpt>
      <trkpt lat="43.97063" lon="0.06966">
        <ele>120.4</ele>
        <time>2025-03-30T08:18:55Z</time>
      </trkpt>
      <trkpt lat="43.97063" lon="0.06967">
        <ele>120.4</ele>
        <time>2025-03-30T08:18:56Z</time>
      </trkpt>
      <trkpt lat="43.97063" lon="0.06968">
        <ele>120.4</ele>
        <time>2025-03-30T08:18:57Z</time>
      </trkpt>
      <trkpt lat="43.97063" lon="0.06969">
        <ele>120.4</ele>
        <time>2025-03-30T08:18:59Z</time>
      </trkpt>
      <trkpt lat="43.97064" lon="0.06971">
        <ele>120.4</ele>
        <time>2025-03-30T08:19:00Z</time>
      </trkpt>
      <trkpt lat="43.97065" lon="0.06974">
        <ele>120.5</ele>
        <time>2025-03-30T08:19:01Z</time>
      </trkpt>
      <trkpt lat="43.97066" lon="0.06975">
        <ele>120.5</ele>
        <time>2025-03-30T08:19:02Z</time>
      </trkpt>
      <trkpt lat="43.97068" lon="0.06976">
        <ele>120.5</ele>
        <time>2025-03-30T08:19:03Z</time>
      </trkpt>
      <trkpt lat="43.97069" lon="0.06976">
        <ele>120.5</ele>
        <time>2025-03-30T08:19:04Z</time>
      </trkpt>
      <trkpt lat="43.9707" lon="0.06976">
        <ele>120.5</ele>
        <time>2025-03-30T08:19:05Z</time>
      </trkpt>
      <trkpt lat="43.9707" lon="0.06976">
        <ele>120.5</ele>
        <time>2025-03-30T08:19:06Z</time>
      </trkpt>
      <trkpt lat="43.97071" lon="0.06975">
        <ele>120.5</ele>
        <time>2025-03-30T08:19:07Z</time>
      </trkpt>
      <trkpt lat="43.97071" lon="0.06975">
        <ele>120.5</ele>
        <time>2025-03-30T08:19:08Z</time>
      </trkpt>
      <trkpt lat="43.97071" lon="0.06975">
        <ele>120.5</ele>
        <time>2025-03-30T08:19:09Z</time>
      </trkpt>
      <trkpt lat="43.97071" lon="0.06975">
        <ele>120.5</ele>
        <time>2025-03-30T08:19:10Z</time>
      </trkpt>
      <trkpt lat="43.97074" lon="0.06973">
        <ele>120</ele>
        <time>2025-03-30T08:19:12Z</time>
      </trkpt>
      <trkpt lat="43.97075" lon="0.06972">
        <ele>120</ele>
        <time>2025-03-30T08:19:13Z</time>
      </trkpt>
      <trkpt lat="43.97076" lon="0.0697">
        <ele>120</ele>
        <time>2025-03-30T08:19:14Z</time>
      </trkpt>
      <trkpt lat="43.97076" lon="0.0697">
        <ele>120</ele>
        <time>2025-03-30T08:19:15Z</time>
      </trkpt>
      <trkpt lat="43.97077" lon="0.0697">
        <ele>120</ele>
        <time>2025-03-30T08:19:16Z</time>
      </trkpt>
      <trkpt lat="43.97079" lon="0.06967">
        <ele>119.5</ele>
        <time>2025-03-30T08:19:18Z</time>
      </trkpt>
      <trkpt lat="43.97079" lon="0.06966">
        <ele>119.5</ele>
        <time>2025-03-30T08:19:19Z</time>
      </trkpt>
      <trkpt lat="43.9708" lon="0.06965">
        <ele>118.9</ele>
        <time>2025-03-30T08:19:20Z</time>
      </trkpt>
      <trkpt lat="43.97081" lon="0.06963">
        <ele>118.9</ele>
        <time>2025-03-30T08:19:22Z</time>
      </trkpt>
      <trkpt lat="43.97082" lon="0.06962">
        <ele>118.9</ele>
        <time>2025-03-30T08:19:23Z</time>
      </trkpt>
      <trkpt lat="43.97083" lon="0.06961">
        <ele>118.9</ele>
        <time>2025-03-30T08:19:24Z</time>
      </trkpt>
      <trkpt lat="43.97084" lon="0.06961">
        <ele>118.9</ele>
        <time>2025-03-30T08:19:25Z</time>
      </trkpt>
      <trkpt lat="43.97085" lon="0.06961">
        <ele>118.4</ele>
        <time>2025-03-30T08:19:26Z</time>
      </trkpt>
      <trkpt lat="43.97086" lon="0.0696">
        <ele>118.4</ele>
        <time>2025-03-30T08:19:27Z</time>
      </trkpt>
      <trkpt lat="43.97087" lon="0.06961">
        <ele>118.4</ele>
        <time>2025-03-30T08:19:28Z</time>
      </trkpt>
      <trkpt lat="43.97088" lon="0.06961">
        <ele>118.4</ele>
        <time>2025-03-30T08:19:29Z</time>
      </trkpt>
      <trkpt lat="43.97089" lon="0.06961">
        <ele>118.3</ele>
        <time>2025-03-30T08:19:30Z</time>
      </trkpt>
      <trkpt lat="43.97091" lon="0.06961">
        <ele>118.8</ele>
        <time>2025-03-30T08:19:31Z</time>
      </trkpt>
      <trkpt lat="43.97093" lon="0.06963">
        <ele>118.7</ele>
        <time>2025-03-30T08:19:33Z</time>
      </trkpt>
      <trkpt lat="43.97094" lon="0.06965">
        <ele>118.7</ele>
        <time>2025-03-30T08:19:34Z</time>
      </trkpt>
      <trkpt lat="43.97094" lon="0.06966">
        <ele>119.2</ele>
        <time>2025-03-30T08:19:35Z</time>
      </trkpt>
      <trkpt lat="43.97096" lon="0.06967">
        <ele>119.2</ele>
        <time>2025-03-30T08:19:37Z</time>
      </trkpt>
      <trkpt lat="43.97097" lon="0.06968">
        <ele>119.2</ele>
        <time>2025-03-30T08:19:38Z</time>
      </trkpt>
      <trkpt lat="43.97098" lon="0.06968">
        <ele>119.1</ele>
        <time>2025-03-30T08:19:40Z</time>
      </trkpt>
      <trkpt lat="43.97099" lon="0.06969">
        <ele>119.1</ele>
        <time>2025-03-30T08:19:41Z</time>
      </trkpt>
      <trkpt lat="43.971" lon="0.06969">
        <ele>119.1</ele>
        <time>2025-03-30T08:19:42Z</time>
      </trkpt>
      <trkpt lat="43.97101" lon="0.0697">
        <ele>119.7</ele>
        <time>2025-03-30T08:19:43Z</time>
      </trkpt>
      <trkpt lat="43.97102" lon="0.06971">
        <ele>119.6</ele>
        <time>2025-03-30T08:19:44Z</time>
      </trkpt>
      <trkpt lat="43.97103" lon="0.06971">
        <ele>119.6</ele>
        <time>2025-03-30T08:19:45Z</time>
      </trkpt>
      <trkpt lat="43.97104" lon="0.0697">
        <ele>119.6</ele>
        <time>2025-03-30T08:19:46Z</time>
      </trkpt>
      <trkpt lat="43.97105" lon="0.06971">
        <ele>119.5</ele>
        <time>2025-03-30T08:19:47Z</time>
      </trkpt>
      <trkpt lat="43.97106" lon="0.06971">
        <ele>119.5</ele>
        <time>2025-03-30T08:19:48Z</time>
      </trkpt>
      <trkpt lat="43.97107" lon="0.06971">
        <ele>119.5</ele>
        <time>2025-03-30T08:19:49Z</time>
      </trkpt>
      <trkpt lat="43.97108" lon="0.06971">
        <ele>119.4</ele>
        <time>2025-03-30T08:19:50Z</time>
      </trkpt>
      <trkpt lat="43.97109" lon="0.06971">
        <ele>119.4</ele>
        <time>2025-03-30T08:19:51Z</time>
      </trkpt>
      <trkpt lat="43.9711" lon="0.06972">
        <ele>119.4</ele>
        <time>2025-03-30T08:19:52Z</time>
      </trkpt>
      <trkpt lat="43.97113" lon="0.06972">
        <ele>119.3</ele>
        <time>2025-03-30T08:19:54Z</time>
      </trkpt>
      <trkpt lat="43.97113" lon="0.06971">
        <ele>119.3</ele>
        <time>2025-03-30T08:19:55Z</time>
      </trkpt>
      <trkpt lat="43.97114" lon="0.06971">
        <ele>119.2</ele>
        <time>2025-03-30T08:19:56Z</time>
      </trkpt>
      <trkpt lat="43.97115" lon="0.06971">
        <ele>119.2</ele>
        <time>2025-03-30T08:19:57Z</time>
      </trkpt>
      <trkpt lat="43.97117" lon="0.06971">
        <ele>119.2</ele>
        <time>2025-03-30T08:19:58Z</time>
      </trkpt>
      <trkpt lat="43.97117" lon="0.06971">
        <ele>119</ele>
        <time>2025-03-30T08:19:59Z</time>
      </trkpt>
      <trkpt lat="43.9712" lon="0.06971">
        <ele>118.9</ele>
        <time>2025-03-30T08:20:01Z</time>
      </trkpt>
      <trkpt lat="43.97122" lon="0.06971">
        <ele>118.9</ele>
        <time>2025-03-30T08:20:02Z</time>
      </trkpt>
      <trkpt lat="43.97124" lon="0.06971">
        <ele>118.7</ele>
        <time>2025-03-30T08:20:04Z</time>
      </trkpt>
      <trkpt lat="43.97125" lon="0.0697">
        <ele>118.7</ele>
        <time>2025-03-30T08:20:05Z</time>
      </trkpt>
      <trkpt lat="43.97127" lon="0.0697">
        <ele>118.5</ele>
        <time>2025-03-30T08:20:07Z</time>
      </trkpt>
      <trkpt lat="43.97127" lon="0.06972">
        <ele>118.5</ele>
        <time>2025-03-30T08:20:09Z</time>
      </trkpt>
      <trkpt lat="43.97126" lon="0.06973">
        <ele>118.7</ele>
        <time>2025-03-30T08:20:10Z</time>
      </trkpt>
      <trkpt lat="43.97125" lon="0.06973">
        <ele>118.7</ele>
        <time>2025-03-30T08:20:12Z</time>
      </trkpt>
      <trkpt lat="43.97125" lon="0.06973">
        <ele>118.7</ele>
        <time>2025-03-30T08:20:13Z</time>
      </trkpt>
      <trkpt lat="43.97125" lon="0.06973">
        <ele>118.7</ele>
        <time>2025-03-30T08:20:14Z</time>
      </trkpt>
      <trkpt lat="43.97125" lon="0.06973">
        <ele>118.7</ele>
        <time>2025-03-30T08:20:15Z</time>
      </trkpt>
      <trkpt lat="43.97126" lon="0.06973">
        <ele>118.5</ele>
        <time>2025-03-30T08:20:16Z</time>
      </trkpt>
      <trkpt lat="43.97129" lon="0.06974">
        <ele>119.1</ele>
        <time>2025-03-30T08:20:18Z</time>
      </trkpt>
      <trkpt lat="43.9713" lon="0.06974">
        <ele>118.9</ele>
        <time>2025-03-30T08:20:19Z</time>
      </trkpt>
      <trkpt lat="43.97133" lon="0.06975">
        <ele>118.7</ele>
        <time>2025-03-30T08:20:21Z</time>
      </trkpt>
      <trkpt lat="43.97134" lon="0.06975">
        <ele>118.7</ele>
        <time>2025-03-30T08:20:22Z</time>
      </trkpt>
      <trkpt lat="43.97138" lon="0.06974">
        <ele>118.4</ele>
        <time>2025-03-30T08:20:24Z</time>
      </trkpt>
      <trkpt lat="43.9714" lon="0.06974">
        <ele>118.2</ele>
        <time>2025-03-30T08:20:25Z</time>
      </trkpt>
      <trkpt lat="43.97143" lon="0.06974">
        <ele>118</ele>
        <time>2025-03-30T08:20:27Z</time>
      </trkpt>
      <trkpt lat="43.97145" lon="0.06974">
        <ele>117.7</ele>
        <time>2025-03-30T08:20:28Z</time>
      </trkpt>
      <trkpt lat="43.97148" lon="0.06974">
        <ele>117.5</ele>
        <time>2025-03-30T08:20:30Z</time>
      </trkpt>
      <trkpt lat="43.97149" lon="0.06974">
        <ele>117.5</ele>
        <time>2025-03-30T08:20:31Z</time>
      </trkpt>
      <trkpt lat="43.9715" lon="0.06974">
        <ele>116.9</ele>
        <time>2025-03-30T08:20:32Z</time>
      </trkpt>
      <trkpt lat="43.97152" lon="0.06973">
        <ele>116.7</ele>
        <time>2025-03-30T08:20:34Z</time>
      </trkpt>
      <trkpt lat="43.97155" lon="0.06974">
        <ele>117.1</ele>
        <time>2025-03-30T08:20:35Z</time>
      </trkpt>
      <trkpt lat="43.97156" lon="0.06974">
        <ele>117.1</ele>
        <time>2025-03-30T08:20:36Z</time>
      </trkpt>
      <trkpt lat="43.97157" lon="0.06974">
        <ele>116.9</ele>
        <time>2025-03-30T08:20:37Z</time>
      </trkpt>
      <trkpt lat="43.97159" lon="0.06974">
        <ele>116.9</ele>
        <time>2025-03-30T08:20:38Z</time>
      </trkpt>
      <trkpt lat="43.9716" lon="0.06974">
        <ele>116.2</ele>
        <time>2025-03-30T08:20:39Z</time>
      </trkpt>
      <trkpt lat="43.97162" lon="0.06974">
        <ele>116.1</ele>
        <time>2025-03-30T08:20:41Z</time>
      </trkpt>
      <trkpt lat="43.97163" lon="0.06974">
        <ele>115.9</ele>
        <time>2025-03-30T08:20:42Z</time>
      </trkpt>
      <trkpt lat="43.97165" lon="0.06974">
        <ele>115.9</ele>
        <time>2025-03-30T08:20:43Z</time>
      </trkpt>
      <trkpt lat="43.97166" lon="0.06974">
        <ele>116.6</ele>
        <time>2025-03-30T08:20:44Z</time>
      </trkpt>
      <trkpt lat="43.97167" lon="0.06975">
        <ele>116.5</ele>
        <time>2025-03-30T08:20:45Z</time>
      </trkpt>
      <trkpt lat="43.97168" lon="0.06976">
        <ele>116.5</ele>
        <time>2025-03-30T08:20:46Z</time>
      </trkpt>
      <trkpt lat="43.97168" lon="0.06978">
        <ele>116.5</ele>
        <time>2025-03-30T08:20:47Z</time>
      </trkpt>
      <trkpt lat="43.97168" lon="0.06978">
        <ele>117.2</ele>
        <time>2025-03-30T08:20:48Z</time>
      </trkpt>
      <trkpt lat="43.97169" lon="0.06978">
        <ele>116.5</ele>
        <time>2025-03-30T08:20:49Z</time>
      </trkpt>
      <trkpt lat="43.97169" lon="0.06978">
        <ele>116.5</ele>
        <time>2025-03-30T08:20:50Z</time>
      </trkpt>
      <trkpt lat="43.97169" lon="0.06977">
        <ele>116.5</ele>
        <time>2025-03-30T08:20:51Z</time>
      </trkpt>
      <trkpt lat="43.97169" lon="0.06977">
        <ele>116.5</ele>
        <time>2025-03-30T08:20:52Z</time>
      </trkpt>
      <trkpt lat="43.97169" lon="0.06977">
        <ele>116.5</ele>
        <time>2025-03-30T08:20:53Z</time>
      </trkpt>
      <trkpt lat="43.97169" lon="0.06977">
        <ele>116.5</ele>
        <time>2025-03-30T08:20:54Z</time>
      </trkpt>
      <trkpt lat="43.97169" lon="0.06977">
        <ele>116.5</ele>
        <time>2025-03-30T08:20:55Z</time>
      </trkpt>
      <trkpt lat="43.97169" lon="0.06977">
        <ele>116.5</ele>
        <time>2025-03-30T08:20:56Z</time>
      </trkpt>
      <trkpt lat="43.97169" lon="0.06977">
        <ele>116.4</ele>
        <time>2025-03-30T08:20:57Z</time>
      </trkpt>
      <trkpt lat="43.97171" lon="0.06977">
        <ele>116.4</ele>
        <time>2025-03-30T08:20:58Z</time>
      </trkpt>
      <trkpt lat="43.97174" lon="0.06977">
        <ele>116.3</ele>
        <time>2025-03-30T08:20:59Z</time>
      </trkpt>
      <trkpt lat="43.97175" lon="0.06978">
        <ele>116.3</ele>
        <time>2025-03-30T08:21:00Z</time>
      </trkpt>
      <trkpt lat="43.97176" lon="0.06978">
        <ele>116.3</ele>
        <time>2025-03-30T08:21:01Z</time>
      </trkpt>
      <trkpt lat="43.97179" lon="0.06977">
        <ele>116.3</ele>
        <time>2025-03-30T08:21:02Z</time>
      </trkpt>
      <trkpt lat="43.9718" lon="0.06977">
        <ele>116.2</ele>
        <time>2025-03-30T08:21:03Z</time>
      </trkpt>
      <trkpt lat="43.97182" lon="0.06978">
        <ele>116.2</ele>
        <time>2025-03-30T08:21:04Z</time>
      </trkpt>
      <trkpt lat="43.97184" lon="0.06977">
        <ele>116.2</ele>
        <time>2025-03-30T08:21:05Z</time>
      </trkpt>
      <trkpt lat="43.97185" lon="0.06977">
        <ele>116.2</ele>
        <time>2025-03-30T08:21:06Z</time>
      </trkpt>
      <trkpt lat="43.97186" lon="0.06976">
        <ele>116.2</ele>
        <time>2025-03-30T08:21:07Z</time>
      </trkpt>
      <trkpt lat="43.97187" lon="0.06976">
        <ele>116.2</ele>
        <time>2025-03-30T08:21:09Z</time>
      </trkpt>
      <trkpt lat="43.97189" lon="0.06975">
        <ele>116.3</ele>
        <time>2025-03-30T08:21:11Z</time>
      </trkpt>
      <trkpt lat="43.97191" lon="0.06975">
        <ele>116.3</ele>
        <time>2025-03-30T08:21:12Z</time>
      </trkpt>
      <trkpt lat="43.97191" lon="0.06975">
        <ele>116.3</ele>
        <time>2025-03-30T08:21:13Z</time>
      </trkpt>
      <trkpt lat="43.97191" lon="0.06975">
        <ele>116.3</ele>
        <time>2025-03-30T08:21:14Z</time>
      </trkpt>
      <trkpt lat="43.97191" lon="0.06975">
        <ele>116.3</ele>
        <time>2025-03-30T08:21:15Z</time>
      </trkpt>
      <trkpt lat="43.97191" lon="0.06975">
        <ele>116.3</ele>
        <time>2025-03-30T08:21:16Z</time>
      </trkpt>
      <trkpt lat="43.97191" lon="0.06975">
        <ele>116.3</ele>
        <time>2025-03-30T08:21:17Z</time>
      </trkpt>
      <trkpt lat="43.97191" lon="0.06975">
        <ele>116.3</ele>
        <time>2025-03-30T08:21:18Z</time>
      </trkpt>
      <trkpt lat="43.97191" lon="0.06975">
        <ele>116.3</ele>
        <time>2025-03-30T08:21:20Z</time>
      </trkpt>
      <trkpt lat="43.97191" lon="0.06975">
        <ele>116.3</ele>
        <time>2025-03-30T08:21:21Z</time>
      </trkpt>
      <trkpt lat="43.97192" lon="0.06975">
        <ele>116.3</ele>
        <time>2025-03-30T08:21:22Z</time>
      </trkpt>
      <trkpt lat="43.97192" lon="0.06976">
        <ele>116.3</ele>
        <time>2025-03-30T08:21:23Z</time>
      </trkpt>
      <trkpt lat="43.97192" lon="0.06976">
        <ele>116.3</ele>
        <time>2025-03-30T08:21:24Z</time>
      </trkpt>
      <trkpt lat="43.97192" lon="0.06976">
        <ele>116.3</ele>
        <time>2025-03-30T08:21:25Z</time>
      </trkpt>
      <trkpt lat="43.97192" lon="0.06976">
        <ele>116.3</ele>
        <time>2025-03-30T08:21:26Z</time>
      </trkpt>
      <trkpt lat="43.97192" lon="0.06976">
        <ele>116.3</ele>
        <time>2025-03-30T08:21:27Z</time>
      </trkpt>
      <trkpt lat="43.97192" lon="0.06976">
        <ele>116.3</ele>
        <time>2025-03-30T08:21:28Z</time>
      </trkpt>
      <trkpt lat="43.97192" lon="0.06976">
        <ele>116.3</ele>
        <time>2025-03-30T08:21:29Z</time>
      </trkpt>
      <trkpt lat="43.97192" lon="0.06976">
        <ele>116.3</ele>
        <time>2025-03-30T08:21:30Z</time>
      </trkpt>
      <trkpt lat="43.97193" lon="0.06976">
        <ele>116.3</ele>
        <time>2025-03-30T08:21:31Z</time>
      </trkpt>
      <trkpt lat="43.97193" lon="0.06976">
        <ele>116.3</ele>
        <time>2025-03-30T08:21:33Z</time>
      </trkpt>
      <trkpt lat="43.97193" lon="0.06976">
        <ele>116.3</ele>
        <time>2025-03-30T08:21:34Z</time>
      </trkpt>
      <trkpt lat="43.97193" lon="0.06976">
        <ele>116.3</ele>
        <time>2025-03-30T08:21:35Z</time>
      </trkpt>
      <trkpt lat="43.97193" lon="0.06976">
        <ele>116.3</ele>
        <time>2025-03-30T08:21:36Z</time>
      </trkpt>
      <trkpt lat="43.97193" lon="0.06977">
        <ele>116.3</ele>
        <time>2025-03-30T08:21:37Z</time>
      </trkpt>
      <trkpt lat="43.97193" lon="0.06977">
        <ele>116.3</ele>
        <time>2025-03-30T08:21:38Z</time>
      </trkpt>
      <trkpt lat="43.97193" lon="0.06977">
        <ele>116.3</ele>
        <time>2025-03-30T08:21:39Z</time>
      </trkpt>
      <trkpt lat="43.97193" lon="0.06977">
        <ele>116.3</ele>
        <time>2025-03-30T08:21:40Z</time>
      </trkpt>
      <trkpt lat="43.97194" lon="0.06977">
        <ele>116.3</ele>
        <time>2025-03-30T08:21:41Z</time>
      </trkpt>
      <trkpt lat="43.97194" lon="0.06977">
        <ele>116.3</ele>
        <time>2025-03-30T08:21:42Z</time>
      </trkpt>
      <trkpt lat="43.97194" lon="0.06977">
        <ele>116.3</ele>
        <time>2025-03-30T08:21:43Z</time>
      </trkpt>
      <trkpt lat="43.97194" lon="0.06977">
        <ele>116.4</ele>
        <time>2025-03-30T08:21:44Z</time>
      </trkpt>
      <trkpt lat="43.97194" lon="0.06977">
        <ele>116.4</ele>
        <time>2025-03-30T08:21:45Z</time>
      </trkpt>
      <trkpt lat="43.97194" lon="0.06977">
        <ele>116.5</ele>
        <time>2025-03-30T08:21:46Z</time>
      </trkpt>
      <trkpt lat="43.97194" lon="0.06977">
        <ele>116.5</ele>
        <time>2025-03-30T08:21:47Z</time>
      </trkpt>
      <trkpt lat="43.97194" lon="0.06977">
        <ele>116.5</ele>
        <time>2025-03-30T08:21:48Z</time>
      </trkpt>
      <trkpt lat="43.97194" lon="0.06977">
        <ele>116.5</ele>
        <time>2025-03-30T08:21:49Z</time>
      </trkpt>
      <trkpt lat="43.97195" lon="0.06977">
        <ele>116.5</ele>
        <time>2025-03-30T08:21:50Z</time>
      </trkpt>
      <trkpt lat="43.97195" lon="0.06978">
        <ele>116.5</ele>
        <time>2025-03-30T08:21:51Z</time>
      </trkpt>
      <trkpt lat="43.97195" lon="0.06978">
        <ele>116.5</ele>
        <time>2025-03-30T08:21:52Z</time>
      </trkpt>
      <trkpt lat="43.97195" lon="0.06978">
        <ele>116.5</ele>
        <time>2025-03-30T08:21:53Z</time>
      </trkpt>
      <trkpt lat="43.97195" lon="0.06978">
        <ele>116.5</ele>
        <time>2025-03-30T08:21:54Z</time>
      </trkpt>
      <trkpt lat="43.97195" lon="0.06978">
        <ele>116.5</ele>
        <time>2025-03-30T08:21:55Z</time>
      </trkpt>
      <trkpt lat="43.97195" lon="0.06978">
        <ele>116.5</ele>
        <time>2025-03-30T08:21:56Z</time>
      </trkpt>
      <trkpt lat="43.97195" lon="0.06978">
        <ele>116.5</ele>
        <time>2025-03-30T08:21:57Z</time>
      </trkpt>
      <trkpt lat="43.97195" lon="0.06978">
        <ele>116.5</ele>
        <time>2025-03-30T08:21:58Z</time>
      </trkpt>
      <trkpt lat="43.97196" lon="0.06978">
        <ele>117</ele>
        <time>2025-03-30T08:21:59Z</time>
      </trkpt>
      <trkpt lat="43.97196" lon="0.06978">
        <ele>117</ele>
        <time>2025-03-30T08:22:01Z</time>
      </trkpt>
      <trkpt lat="43.97196" lon="0.06978">
        <ele>117</ele>
        <time>2025-03-30T08:22:02Z</time>
      </trkpt>
      <trkpt lat="43.97196" lon="0.06978">
        <ele>117</ele>
        <time>2025-03-30T08:22:03Z</time>
      </trkpt>
      <trkpt lat="43.97196" lon="0.06978">
        <ele>117</ele>
        <time>2025-03-30T08:22:04Z</time>
      </trkpt>
      <trkpt lat="43.97198" lon="0.06978">
        <ele>117.1</ele>
        <time>2025-03-30T08:22:05Z</time>
      </trkpt>
      <trkpt lat="43.97199" lon="0.06978">
        <ele>117.1</ele>
        <time>2025-03-30T08:22:06Z</time>
      </trkpt>
      <trkpt lat="43.972" lon="0.06978">
        <ele>116.6</ele>
        <time>2025-03-30T08:22:07Z</time>
      </trkpt>
      <trkpt lat="43.97202" lon="0.06978">
        <ele>116.8</ele>
        <time>2025-03-30T08:22:08Z</time>
      </trkpt>
      <trkpt lat="43.97204" lon="0.06977">
        <ele>117</ele>
        <time>2025-03-30T08:22:09Z</time>
      </trkpt>
      <trkpt lat="43.97204" lon="0.06976">
        <ele>117</ele>
        <time>2025-03-30T08:22:10Z</time>
      </trkpt>
      <trkpt lat="43.97207" lon="0.06977">
        <ele>117.3</ele>
        <time>2025-03-30T08:22:12Z</time>
      </trkpt>
      <trkpt lat="43.97209" lon="0.06978">
        <ele>117.3</ele>
        <time>2025-03-30T08:22:13Z</time>
      </trkpt>
      <trkpt lat="43.97212" lon="0.06978">
        <ele>117.9</ele>
        <time>2025-03-30T08:22:15Z</time>
      </trkpt>
      <trkpt lat="43.97213" lon="0.06978">
        <ele>118.2</ele>
        <time>2025-03-30T08:22:16Z</time>
      </trkpt>
      <trkpt lat="43.97214" lon="0.06978">
        <ele>118.2</ele>
        <time>2025-03-30T08:22:17Z</time>
      </trkpt>
      <trkpt lat="43.97215" lon="0.06978">
        <ele>117.9</ele>
        <time>2025-03-30T08:22:18Z</time>
      </trkpt>
      <trkpt lat="43.97216" lon="0.06978">
        <ele>118.2</ele>
        <time>2025-03-30T08:22:19Z</time>
      </trkpt>
      <trkpt lat="43.97217" lon="0.06978">
        <ele>118.2</ele>
        <time>2025-03-30T08:22:20Z</time>
      </trkpt>
      <trkpt lat="43.97218" lon="0.06977">
        <ele>118.2</ele>
        <time>2025-03-30T08:22:21Z</time>
      </trkpt>
      <trkpt lat="43.97219" lon="0.06976">
        <ele>118.6</ele>
        <time>2025-03-30T08:22:22Z</time>
      </trkpt>
      <trkpt lat="43.9722" lon="0.06976">
        <ele>118.6</ele>
        <time>2025-03-30T08:22:23Z</time>
      </trkpt>
      <trkpt lat="43.9722" lon="0.06975">
        <ele>118.6</ele>
        <time>2025-03-30T08:22:24Z</time>
      </trkpt>
      <trkpt lat="43.97222" lon="0.06974">
        <ele>118.7</ele>
        <time>2025-03-30T08:22:25Z</time>
      </trkpt>
      <trkpt lat="43.97223" lon="0.06973">
        <ele>118.7</ele>
        <time>2025-03-30T08:22:26Z</time>
      </trkpt>
      <trkpt lat="43.97224" lon="0.06973">
        <ele>118.7</ele>
        <time>2025-03-30T08:22:27Z</time>
      </trkpt>
      <trkpt lat="43.97225" lon="0.06972">
        <ele>119.1</ele>
        <time>2025-03-30T08:22:28Z</time>
      </trkpt>
      <trkpt lat="43.97226" lon="0.06972">
        <ele>119.1</ele>
        <time>2025-03-30T08:22:29Z</time>
      </trkpt>
      <trkpt lat="43.97227" lon="0.06972">
        <ele>119.1</ele>
        <time>2025-03-30T08:22:30Z</time>
      </trkpt>
      <trkpt lat="43.9723" lon="0.06972">
        <ele>119.5</ele>
        <time>2025-03-30T08:22:31Z</time>
      </trkpt>
      <trkpt lat="43.9723" lon="0.06972">
        <ele>119.5</ele>
        <time>2025-03-30T08:22:32Z</time>
      </trkpt>
      <trkpt lat="43.97231" lon="0.06972">
        <ele>119.9</ele>
        <time>2025-03-30T08:22:33Z</time>
      </trkpt>
      <trkpt lat="43.97233" lon="0.06972">
        <ele>119.9</ele>
        <time>2025-03-30T08:22:35Z</time>
      </trkpt>
      <trkpt lat="43.97234" lon="0.06972">
        <ele>119.9</ele>
        <time>2025-03-30T08:22:36Z</time>
      </trkpt>
      <trkpt lat="43.97235" lon="0.06972">
        <ele>120.4</ele>
        <time>2025-03-30T08:22:37Z</time>
      </trkpt>
      <trkpt lat="43.97237" lon="0.06972">
        <ele>120.4</ele>
        <time>2025-03-30T08:22:38Z</time>
      </trkpt>
      <trkpt lat="43.97238" lon="0.06972">
        <ele>120.8</ele>
        <time>2025-03-30T08:22:40Z</time>
      </trkpt>
      <trkpt lat="43.9724" lon="0.06972">
        <ele>120.8</ele>
        <time>2025-03-30T08:22:41Z</time>
      </trkpt>
      <trkpt lat="43.97241" lon="0.06972">
        <ele>121.2</ele>
        <time>2025-03-30T08:22:42Z</time>
      </trkpt>
      <trkpt lat="43.97244" lon="0.06972">
        <ele>121.6</ele>
        <time>2025-03-30T08:22:44Z</time>
      </trkpt>
      <trkpt lat="43.97244" lon="0.06973">
        <ele>121.6</ele>
        <time>2025-03-30T08:22:45Z</time>
      </trkpt>
      <trkpt lat="43.97247" lon="0.06974">
        <ele>122.5</ele>
        <time>2025-03-30T08:22:47Z</time>
      </trkpt>
      <trkpt lat="43.97248" lon="0.06974">
        <ele>122.5</ele>
        <time>2025-03-30T08:22:48Z</time>
      </trkpt>
      <trkpt lat="43.9725" lon="0.06975">
        <ele>122.5</ele>
        <time>2025-03-30T08:22:49Z</time>
      </trkpt>
      <trkpt lat="43.9725" lon="0.06975">
        <ele>122.9</ele>
        <time>2025-03-30T08:22:50Z</time>
      </trkpt>
      <trkpt lat="43.97252" lon="0.06975">
        <ele>122.9</ele>
        <time>2025-03-30T08:22:51Z</time>
      </trkpt>
      <trkpt lat="43.97253" lon="0.06976">
        <ele>122.9</ele>
        <time>2025-03-30T08:22:52Z</time>
      </trkpt>
      <trkpt lat="43.97254" lon="0.06976">
        <ele>123.3</ele>
        <time>2025-03-30T08:22:53Z</time>
      </trkpt>
      <trkpt lat="43.97255" lon="0.06977">
        <ele>123.3</ele>
        <time>2025-03-30T08:22:54Z</time>
      </trkpt>
      <trkpt lat="43.97256" lon="0.06977">
        <ele>123.7</ele>
        <time>2025-03-30T08:22:55Z</time>
      </trkpt>
      <trkpt lat="43.97258" lon="0.06978">
        <ele>124.2</ele>
        <time>2025-03-30T08:22:57Z</time>
      </trkpt>
      <trkpt lat="43.97261" lon="0.06979">
        <ele>124.6</ele>
        <time>2025-03-30T08:22:59Z</time>
      </trkpt>
      <trkpt lat="43.97262" lon="0.06979">
        <ele>124.6</ele>
        <time>2025-03-30T08:23:00Z</time>
      </trkpt>
      <trkpt lat="43.97264" lon="0.06979">
        <ele>125</ele>
        <time>2025-03-30T08:23:01Z</time>
      </trkpt>
      <trkpt lat="43.97265" lon="0.06978">
        <ele>125</ele>
        <time>2025-03-30T08:23:02Z</time>
      </trkpt>
      <trkpt lat="43.97265" lon="0.06978">
        <ele>125.4</ele>
        <time>2025-03-30T08:23:03Z</time>
      </trkpt>
      <trkpt lat="43.97267" lon="0.06979">
        <ele>125.4</ele>
        <time>2025-03-30T08:23:05Z</time>
      </trkpt>
      <trkpt lat="43.97268" lon="0.06979">
        <ele>125.8</ele>
        <time>2025-03-30T08:23:06Z</time>
      </trkpt>
      <trkpt lat="43.9727" lon="0.06979">
        <ele>125.8</ele>
        <time>2025-03-30T08:23:08Z</time>
      </trkpt>
      <trkpt lat="43.97271" lon="0.0698">
        <ele>126.1</ele>
        <time>2025-03-30T08:23:09Z</time>
      </trkpt>
      <trkpt lat="43.97272" lon="0.0698">
        <ele>126.1</ele>
        <time>2025-03-30T08:23:10Z</time>
      </trkpt>
      <trkpt lat="43.97273" lon="0.06981">
        <ele>126.1</ele>
        <time>2025-03-30T08:23:12Z</time>
      </trkpt>
      <trkpt lat="43.97276" lon="0.06982">
        <ele>126.4</ele>
        <time>2025-03-30T08:23:13Z</time>
      </trkpt>
      <trkpt lat="43.97277" lon="0.06982">
        <ele>126.4</ele>
        <time>2025-03-30T08:23:14Z</time>
      </trkpt>
      <trkpt lat="43.97278" lon="0.06983">
        <ele>127.3</ele>
        <time>2025-03-30T08:23:15Z</time>
      </trkpt>
      <trkpt lat="43.97279" lon="0.06984">
        <ele>127.3</ele>
        <time>2025-03-30T08:23:17Z</time>
      </trkpt>
      <trkpt lat="43.97279" lon="0.06985">
        <ele>127.3</ele>
        <time>2025-03-30T08:23:18Z</time>
      </trkpt>
      <trkpt lat="43.97279" lon="0.06984">
        <ele>127.3</ele>
        <time>2025-03-30T08:23:19Z</time>
      </trkpt>
      <trkpt lat="43.97279" lon="0.06984">
        <ele>127.3</ele>
        <time>2025-03-30T08:23:20Z</time>
      </trkpt>
      <trkpt lat="43.97278" lon="0.06984">
        <ele>127.3</ele>
        <time>2025-03-30T08:23:21Z</time>
      </trkpt>
      <trkpt lat="43.97278" lon="0.06984">
        <ele>127.3</ele>
        <time>2025-03-30T08:23:22Z</time>
      </trkpt>
      <trkpt lat="43.97278" lon="0.06984">
        <ele>127.3</ele>
        <time>2025-03-30T08:23:23Z</time>
      </trkpt>
      <trkpt lat="43.97278" lon="0.06984">
        <ele>127.3</ele>
        <time>2025-03-30T08:23:24Z</time>
      </trkpt>
      <trkpt lat="43.97278" lon="0.06984">
        <ele>127.3</ele>
        <time>2025-03-30T08:23:25Z</time>
      </trkpt>
      <trkpt lat="43.97278" lon="0.06984">
        <ele>127.3</ele>
        <time>2025-03-30T08:23:26Z</time>
      </trkpt>
      <trkpt lat="43.97278" lon="0.06984">
        <ele>127.3</ele>
        <time>2025-03-30T08:23:27Z</time>
      </trkpt>
      <trkpt lat="43.97278" lon="0.06984">
        <ele>127.3</ele>
        <time>2025-03-30T08:23:28Z</time>
      </trkpt>
      <trkpt lat="43.97278" lon="0.06984">
        <ele>127.3</ele>
        <time>2025-03-30T08:23:29Z</time>
      </trkpt>
      <trkpt lat="43.97278" lon="0.06984">
        <ele>127.3</ele>
        <time>2025-03-30T08:23:30Z</time>
      </trkpt>
      <trkpt lat="43.97278" lon="0.06984">
        <ele>127.3</ele>
        <time>2025-03-30T08:23:31Z</time>
      </trkpt>
      <trkpt lat="43.97279" lon="0.06985">
        <ele>127.3</ele>
        <time>2025-03-30T08:23:32Z</time>
      </trkpt>
      <trkpt lat="43.9728" lon="0.06986">
        <ele>127.3</ele>
        <time>2025-03-30T08:23:33Z</time>
      </trkpt>
      <trkpt lat="43.97282" lon="0.06988">
        <ele>128</ele>
        <time>2025-03-30T08:23:35Z</time>
      </trkpt>
      <trkpt lat="43.97283" lon="0.0699">
        <ele>128</ele>
        <time>2025-03-30T08:23:36Z</time>
      </trkpt>
      <trkpt lat="43.97285" lon="0.06991">
        <ele>128.7</ele>
        <time>2025-03-30T08:23:37Z</time>
      </trkpt>
      <trkpt lat="43.97286" lon="0.06992">
        <ele>128.7</ele>
        <time>2025-03-30T08:23:39Z</time>
      </trkpt>
      <trkpt lat="43.97287" lon="0.06993">
        <ele>128.8</ele>
        <time>2025-03-30T08:23:40Z</time>
      </trkpt>
      <trkpt lat="43.97289" lon="0.06994">
        <ele>128.8</ele>
        <time>2025-03-30T08:23:41Z</time>
      </trkpt>
      <trkpt lat="43.97292" lon="0.06997">
        <ele>129.4</ele>
        <time>2025-03-30T08:23:43Z</time>
      </trkpt>
      <trkpt lat="43.97293" lon="0.06998">
        <ele>129.5</ele>
        <time>2025-03-30T08:23:45Z</time>
      </trkpt>
      <trkpt lat="43.97294" lon="0.07">
        <ele>130</ele>
        <time>2025-03-30T08:23:46Z</time>
      </trkpt>
      <trkpt lat="43.97295" lon="0.07">
        <ele>130</ele>
        <time>2025-03-30T08:23:47Z</time>
      </trkpt>
      <trkpt lat="43.97298" lon="0.07002">
        <ele>130.1</ele>
        <time>2025-03-30T08:23:49Z</time>
      </trkpt>
      <trkpt lat="43.97298" lon="0.07003">
        <ele>130.1</ele>
        <time>2025-03-30T08:23:50Z</time>
      </trkpt>
      <trkpt lat="43.973" lon="0.07003">
        <ele>130.1</ele>
        <time>2025-03-30T08:23:51Z</time>
      </trkpt>
      <trkpt lat="43.97301" lon="0.07003">
        <ele>130.1</ele>
        <time>2025-03-30T08:23:52Z</time>
      </trkpt>
      <trkpt lat="43.97302" lon="0.07004">
        <ele>130.6</ele>
        <time>2025-03-30T08:23:53Z</time>
      </trkpt>
      <trkpt lat="43.97303" lon="0.07006">
        <ele>130.6</ele>
        <time>2025-03-30T08:23:54Z</time>
      </trkpt>
      <trkpt lat="43.97304" lon="0.07006">
        <ele>130.6</ele>
        <time>2025-03-30T08:23:55Z</time>
      </trkpt>
      <trkpt lat="43.97305" lon="0.07007">
        <ele>130.6</ele>
        <time>2025-03-30T08:23:56Z</time>
      </trkpt>
      <trkpt lat="43.97307" lon="0.07008">
        <ele>131.2</ele>
        <time>2025-03-30T08:23:58Z</time>
      </trkpt>
      <trkpt lat="43.97309" lon="0.07009">
        <ele>131.2</ele>
        <time>2025-03-30T08:23:59Z</time>
      </trkpt>
      <trkpt lat="43.9731" lon="0.0701">
        <ele>131.2</ele>
        <time>2025-03-30T08:24:00Z</time>
      </trkpt>
      <trkpt lat="43.97311" lon="0.0701">
        <ele>131.2</ele>
        <time>2025-03-30T08:24:01Z</time>
      </trkpt>
      <trkpt lat="43.97311" lon="0.0701">
        <ele>131.2</ele>
        <time>2025-03-30T08:24:02Z</time>
      </trkpt>
      <trkpt lat="43.97312" lon="0.07011">
        <ele>131.1</ele>
        <time>2025-03-30T08:24:03Z</time>
      </trkpt>
      <trkpt lat="43.97313" lon="0.07011">
        <ele>131.1</ele>
        <time>2025-03-30T08:24:04Z</time>
      </trkpt>
      <trkpt lat="43.97314" lon="0.07012">
        <ele>131.1</ele>
        <time>2025-03-30T08:24:05Z</time>
      </trkpt>
      <trkpt lat="43.97316" lon="0.07013">
        <ele>131.5</ele>
        <time>2025-03-30T08:24:06Z</time>
      </trkpt>
      <trkpt lat="43.97317" lon="0.07013">
        <ele>131.5</ele>
        <time>2025-03-30T08:24:07Z</time>
      </trkpt>
      <trkpt lat="43.97317" lon="0.07014">
        <ele>131.5</ele>
        <time>2025-03-30T08:24:08Z</time>
      </trkpt>
      <trkpt lat="43.9732" lon="0.07015">
        <ele>131.3</ele>
        <time>2025-03-30T08:24:09Z</time>
      </trkpt>
      <trkpt lat="43.97321" lon="0.07015">
        <ele>131</ele>
        <time>2025-03-30T08:24:11Z</time>
      </trkpt>
      <trkpt lat="43.97322" lon="0.07016">
        <ele>131</ele>
        <time>2025-03-30T08:24:12Z</time>
      </trkpt>
      <trkpt lat="43.97323" lon="0.07017">
        <ele>131.6</ele>
        <time>2025-03-30T08:24:13Z</time>
      </trkpt>
      <trkpt lat="43.97325" lon="0.07019">
        <ele>131.3</ele>
        <time>2025-03-30T08:24:15Z</time>
      </trkpt>
      <trkpt lat="43.97326" lon="0.0702">
        <ele>131.3</ele>
        <time>2025-03-30T08:24:16Z</time>
      </trkpt>
      <trkpt lat="43.97327" lon="0.07021">
        <ele>131.8</ele>
        <time>2025-03-30T08:24:17Z</time>
      </trkpt>
      <trkpt lat="43.97328" lon="0.07022">
        <ele>131.4</ele>
        <time>2025-03-30T08:24:18Z</time>
      </trkpt>
      <trkpt lat="43.97329" lon="0.07023">
        <ele>131.4</ele>
        <time>2025-03-30T08:24:20Z</time>
      </trkpt>
      <trkpt lat="43.97332" lon="0.07026">
        <ele>131.5</ele>
        <time>2025-03-30T08:24:21Z</time>
      </trkpt>
      <trkpt lat="43.97332" lon="0.07027">
        <ele>131.5</ele>
        <time>2025-03-30T08:24:22Z</time>
      </trkpt>
      <trkpt lat="43.97333" lon="0.07028">
        <ele>131.1</ele>
        <time>2025-03-30T08:24:23Z</time>
      </trkpt>
      <trkpt lat="43.97334" lon="0.07029">
        <ele>131.1</ele>
        <time>2025-03-30T08:24:24Z</time>
      </trkpt>
      <trkpt lat="43.97335" lon="0.0703">
        <ele>131.5</ele>
        <time>2025-03-30T08:24:25Z</time>
      </trkpt>
      <trkpt lat="43.97337" lon="0.07032">
        <ele>131.1</ele>
        <time>2025-03-30T08:24:26Z</time>
      </trkpt>
      <trkpt lat="43.97338" lon="0.07033">
        <ele>131.1</ele>
        <time>2025-03-30T08:24:27Z</time>
      </trkpt>
      <trkpt lat="43.9734" lon="0.07035">
        <ele>131.1</ele>
        <time>2025-03-30T08:24:29Z</time>
      </trkpt>
      <trkpt lat="43.97342" lon="0.07035">
        <ele>130.7</ele>
        <time>2025-03-30T08:24:30Z</time>
      </trkpt>
      <trkpt lat="43.97343" lon="0.07035">
        <ele>130.7</ele>
        <time>2025-03-30T08:24:31Z</time>
      </trkpt>
      <trkpt lat="43.97344" lon="0.07035">
        <ele>130.7</ele>
        <time>2025-03-30T08:24:32Z</time>
      </trkpt>
      <trkpt lat="43.97345" lon="0.07036">
        <ele>130.3</ele>
        <time>2025-03-30T08:24:33Z</time>
      </trkpt>
      <trkpt lat="43.97347" lon="0.07037">
        <ele>130.3</ele>
        <time>2025-03-30T08:24:34Z</time>
      </trkpt>
      <trkpt lat="43.97347" lon="0.07038">
        <ele>130.3</ele>
        <time>2025-03-30T08:24:35Z</time>
      </trkpt>
      <trkpt lat="43.97349" lon="0.0704">
        <ele>130.2</ele>
        <time>2025-03-30T08:24:37Z</time>
      </trkpt>
      <trkpt lat="43.9735" lon="0.07041">
        <ele>130.2</ele>
        <time>2025-03-30T08:24:38Z</time>
      </trkpt>
      <trkpt lat="43.97351" lon="0.07042">
        <ele>130.2</ele>
        <time>2025-03-30T08:24:39Z</time>
      </trkpt>
      <trkpt lat="43.97352" lon="0.07043">
        <ele>130.2</ele>
        <time>2025-03-30T08:24:40Z</time>
      </trkpt>
      <trkpt lat="43.97352" lon="0.07044">
        <ele>130.2</ele>
        <time>2025-03-30T08:24:41Z</time>
      </trkpt>
      <trkpt lat="43.97354" lon="0.07046">
        <ele>130.2</ele>
        <time>2025-03-30T08:24:42Z</time>
      </trkpt>
      <trkpt lat="43.97355" lon="0.07047">
        <ele>129.7</ele>
        <time>2025-03-30T08:24:43Z</time>
      </trkpt>
      <trkpt lat="43.97355" lon="0.07048">
        <ele>130.1</ele>
        <time>2025-03-30T08:24:44Z</time>
      </trkpt>
      <trkpt lat="43.97355" lon="0.0705">
        <ele>130.1</ele>
        <time>2025-03-30T08:24:45Z</time>
      </trkpt>
      <trkpt lat="43.97355" lon="0.07052">
        <ele>130.1</ele>
        <time>2025-03-30T08:24:46Z</time>
      </trkpt>
      <trkpt lat="43.97354" lon="0.07056">
        <ele>130.1</ele>
        <time>2025-03-30T08:24:47Z</time>
      </trkpt>
      <trkpt lat="43.97354" lon="0.07057">
        <ele>130.1</ele>
        <time>2025-03-30T08:24:48Z</time>
      </trkpt>
      <trkpt lat="43.97352" lon="0.07061">
        <ele>130.2</ele>
        <time>2025-03-30T08:24:50Z</time>
      </trkpt>
      <trkpt lat="43.97351" lon="0.07063">
        <ele>130.2</ele>
        <time>2025-03-30T08:24:51Z</time>
      </trkpt>
      <trkpt lat="43.9735" lon="0.07066">
        <ele>130.3</ele>
        <time>2025-03-30T08:24:53Z</time>
      </trkpt>
      <trkpt lat="43.97348" lon="0.0707">
        <ele>130.4</ele>
        <time>2025-03-30T08:24:55Z</time>
      </trkpt>
      <trkpt lat="43.97348" lon="0.07071">
        <ele>130.5</ele>
        <time>2025-03-30T08:24:56Z</time>
      </trkpt>
      <trkpt lat="43.97347" lon="0.07074">
        <ele>130.6</ele>
        <time>2025-03-30T08:24:58Z</time>
      </trkpt>
      <trkpt lat="43.97347" lon="0.07076">
        <ele>130.6</ele>
        <time>2025-03-30T08:24:59Z</time>
      </trkpt>
      <trkpt lat="43.97347" lon="0.0708">
        <ele>130.7</ele>
        <time>2025-03-30T08:25:01Z</time>
      </trkpt>
      <trkpt lat="43.97347" lon="0.07082">
        <ele>130.8</ele>
        <time>2025-03-30T08:25:02Z</time>
      </trkpt>
      <trkpt lat="43.97347" lon="0.07083">
        <ele>130.8</ele>
        <time>2025-03-30T08:25:03Z</time>
      </trkpt>
      <trkpt lat="43.97345" lon="0.07086">
        <ele>130.9</ele>
        <time>2025-03-30T08:25:04Z</time>
      </trkpt>
      <trkpt lat="43.97345" lon="0.07087">
        <ele>131</ele>
        <time>2025-03-30T08:25:05Z</time>
      </trkpt>
      <trkpt lat="43.97345" lon="0.07088">
        <ele>131</ele>
        <time>2025-03-30T08:25:06Z</time>
      </trkpt>
      <trkpt lat="43.97343" lon="0.0709">
        <ele>131.1</ele>
        <time>2025-03-30T08:25:07Z</time>
      </trkpt>
      <trkpt lat="43.97343" lon="0.07091">
        <ele>131.1</ele>
        <time>2025-03-30T08:25:08Z</time>
      </trkpt>
      <trkpt lat="43.97343" lon="0.07092">
        <ele>131.2</ele>
        <time>2025-03-30T08:25:09Z</time>
      </trkpt>
      <trkpt lat="43.97342" lon="0.07094">
        <ele>131.2</ele>
        <time>2025-03-30T08:25:10Z</time>
      </trkpt>
      <trkpt lat="43.9734" lon="0.07097">
        <ele>131.3</ele>
        <time>2025-03-30T08:25:12Z</time>
      </trkpt>
      <trkpt lat="43.97339" lon="0.07099">
        <ele>131.4</ele>
        <time>2025-03-30T08:25:13Z</time>
      </trkpt>
      <trkpt lat="43.97338" lon="0.071">
        <ele>131.4</ele>
        <time>2025-03-30T08:25:14Z</time>
      </trkpt>
      <trkpt lat="43.97338" lon="0.07101">
        <ele>131.5</ele>
        <time>2025-03-30T08:25:15Z</time>
      </trkpt>
      <trkpt lat="43.97337" lon="0.07102">
        <ele>131.5</ele>
        <time>2025-03-30T08:25:16Z</time>
      </trkpt>
      <trkpt lat="43.97336" lon="0.07105">
        <ele>131.6</ele>
        <time>2025-03-30T08:25:18Z</time>
      </trkpt>
      <trkpt lat="43.97334" lon="0.07108">
        <ele>131.7</ele>
        <time>2025-03-30T08:25:20Z</time>
      </trkpt>
      <trkpt lat="43.97333" lon="0.07109">
        <ele>131.7</ele>
        <time>2025-03-30T08:25:21Z</time>
      </trkpt>
      <trkpt lat="43.97332" lon="0.07111">
        <ele>131.8</ele>
        <time>2025-03-30T08:25:22Z</time>
      </trkpt>
      <trkpt lat="43.97329" lon="0.07113">
        <ele>131.9</ele>
        <time>2025-03-30T08:25:24Z</time>
      </trkpt>
      <trkpt lat="43.97328" lon="0.07114">
        <ele>131.9</ele>
        <time>2025-03-30T08:25:26Z</time>
      </trkpt>
      <trkpt lat="43.97327" lon="0.07116">
        <ele>131.9</ele>
        <time>2025-03-30T08:25:27Z</time>
      </trkpt>
      <trkpt lat="43.97325" lon="0.07117">
        <ele>132</ele>
        <time>2025-03-30T08:25:28Z</time>
      </trkpt>
      <trkpt lat="43.97324" lon="0.07118">
        <ele>132</ele>
        <time>2025-03-30T08:25:29Z</time>
      </trkpt>
      <trkpt lat="43.97322" lon="0.0712">
        <ele>132</ele>
        <time>2025-03-30T08:25:30Z</time>
      </trkpt>
      <trkpt lat="43.97322" lon="0.07121">
        <ele>132</ele>
        <time>2025-03-30T08:25:31Z</time>
      </trkpt>
      <trkpt lat="43.97321" lon="0.07123">
        <ele>132.1</ele>
        <time>2025-03-30T08:25:32Z</time>
      </trkpt>
      <trkpt lat="43.9732" lon="0.07124">
        <ele>132.1</ele>
        <time>2025-03-30T08:25:33Z</time>
      </trkpt>
      <trkpt lat="43.9732" lon="0.07125">
        <ele>132.1</ele>
        <time>2025-03-30T08:25:34Z</time>
      </trkpt>
      <trkpt lat="43.97319" lon="0.07128">
        <ele>132.1</ele>
        <time>2025-03-30T08:25:36Z</time>
      </trkpt>
      <trkpt lat="43.97318" lon="0.0713">
        <ele>132.1</ele>
        <time>2025-03-30T08:25:37Z</time>
      </trkpt>
      <trkpt lat="43.97317" lon="0.07133">
        <ele>132.1</ele>
        <time>2025-03-30T08:25:38Z</time>
      </trkpt>
      <trkpt lat="43.97317" lon="0.07135">
        <ele>132.1</ele>
        <time>2025-03-30T08:25:40Z</time>
      </trkpt>
      <trkpt lat="43.97316" lon="0.07136">
        <ele>132.1</ele>
        <time>2025-03-30T08:25:41Z</time>
      </trkpt>
      <trkpt lat="43.97315" lon="0.07137">
        <ele>132.1</ele>
        <time>2025-03-30T08:25:42Z</time>
      </trkpt>
      <trkpt lat="43.97313" lon="0.07142">
        <ele>132.1</ele>
        <time>2025-03-30T08:25:44Z</time>
      </trkpt>
      <trkpt lat="43.97313" lon="0.07144">
        <ele>132.1</ele>
        <time>2025-03-30T08:25:45Z</time>
      </trkpt>
      <trkpt lat="43.97313" lon="0.07145">
        <ele>132.1</ele>
        <time>2025-03-30T08:25:46Z</time>
      </trkpt>
      <trkpt lat="43.97313" lon="0.07146">
        <ele>132.1</ele>
        <time>2025-03-30T08:25:47Z</time>
      </trkpt>
      <trkpt lat="43.97314" lon="0.0715">
        <ele>132</ele>
        <time>2025-03-30T08:25:48Z</time>
      </trkpt>
      <trkpt lat="43.97315" lon="0.07151">
        <ele>132</ele>
        <time>2025-03-30T08:25:50Z</time>
      </trkpt>
      <trkpt lat="43.97315" lon="0.07153">
        <ele>132</ele>
        <time>2025-03-30T08:25:51Z</time>
      </trkpt>
      <trkpt lat="43.97316" lon="0.07155">
        <ele>132</ele>
        <time>2025-03-30T08:25:52Z</time>
      </trkpt>
      <trkpt lat="43.97317" lon="0.07156">
        <ele>132</ele>
        <time>2025-03-30T08:25:53Z</time>
      </trkpt>
      <trkpt lat="43.97318" lon="0.07157">
        <ele>131.9</ele>
        <time>2025-03-30T08:25:54Z</time>
      </trkpt>
      <trkpt lat="43.9732" lon="0.07159">
        <ele>131.9</ele>
        <time>2025-03-30T08:25:56Z</time>
      </trkpt>
      <trkpt lat="43.9732" lon="0.0716">
        <ele>131.9</ele>
        <time>2025-03-30T08:25:57Z</time>
      </trkpt>
      <trkpt lat="43.97321" lon="0.0716">
        <ele>131.8</ele>
        <time>2025-03-30T08:25:59Z</time>
      </trkpt>
      <trkpt lat="43.97323" lon="0.07162">
        <ele>131.8</ele>
        <time>2025-03-30T08:26:00Z</time>
      </trkpt>
      <trkpt lat="43.97324" lon="0.07163">
        <ele>131.7</ele>
        <time>2025-03-30T08:26:02Z</time>
      </trkpt>
      <trkpt lat="43.97325" lon="0.07163">
        <ele>131.7</ele>
        <time>2025-03-30T08:26:03Z</time>
      </trkpt>
      <trkpt lat="43.97326" lon="0.07164">
        <ele>131.7</ele>
        <time>2025-03-30T08:26:04Z</time>
      </trkpt>
      <trkpt lat="43.97327" lon="0.07165">
        <ele>131.6</ele>
        <time>2025-03-30T08:26:05Z</time>
      </trkpt>
      <trkpt lat="43.97328" lon="0.07166">
        <ele>131.5</ele>
        <time>2025-03-30T08:26:06Z</time>
      </trkpt>
      <trkpt lat="43.97329" lon="0.07167">
        <ele>131.5</ele>
        <time>2025-03-30T08:26:07Z</time>
      </trkpt>
      <trkpt lat="43.9733" lon="0.07169">
        <ele>131.4</ele>
        <time>2025-03-30T08:26:08Z</time>
      </trkpt>
      <trkpt lat="43.97331" lon="0.0717">
        <ele>131.4</ele>
        <time>2025-03-30T08:26:09Z</time>
      </trkpt>
      <trkpt lat="43.97331" lon="0.07171">
        <ele>131.4</ele>
        <time>2025-03-30T08:26:10Z</time>
      </trkpt>
      <trkpt lat="43.97332" lon="0.07173">
        <ele>131.3</ele>
        <time>2025-03-30T08:26:11Z</time>
      </trkpt>
      <trkpt lat="43.97333" lon="0.07174">
        <ele>131.2</ele>
        <time>2025-03-30T08:26:12Z</time>
      </trkpt>
      <trkpt lat="43.97334" lon="0.07176">
        <ele>131.2</ele>
        <time>2025-03-30T08:26:13Z</time>
      </trkpt>
      <trkpt lat="43.97335" lon="0.07178">
        <ele>131.1</ele>
        <time>2025-03-30T08:26:14Z</time>
      </trkpt>
      <trkpt lat="43.97336" lon="0.07179">
        <ele>131</ele>
        <time>2025-03-30T08:26:16Z</time>
      </trkpt>
      <trkpt lat="43.97337" lon="0.07182">
        <ele>130.9</ele>
        <time>2025-03-30T08:26:17Z</time>
      </trkpt>
      <trkpt lat="43.97337" lon="0.07183">
        <ele>130.9</ele>
        <time>2025-03-30T08:26:19Z</time>
      </trkpt>
      <trkpt lat="43.97337" lon="0.07184">
        <ele>130.9</ele>
        <time>2025-03-30T08:26:20Z</time>
      </trkpt>
      <trkpt lat="43.97337" lon="0.07184">
        <ele>130.8</ele>
        <time>2025-03-30T08:26:21Z</time>
      </trkpt>
      <trkpt lat="43.97337" lon="0.07186">
        <ele>130.8</ele>
        <time>2025-03-30T08:26:22Z</time>
      </trkpt>
      <trkpt lat="43.97337" lon="0.07187">
        <ele>130.7</ele>
        <time>2025-03-30T08:26:23Z</time>
      </trkpt>
      <trkpt lat="43.97339" lon="0.07189">
        <ele>130.6</ele>
        <time>2025-03-30T08:26:25Z</time>
      </trkpt>
      <trkpt lat="43.97339" lon="0.07191">
        <ele>130.6</ele>
        <time>2025-03-30T08:26:26Z</time>
      </trkpt>
      <trkpt lat="43.97339" lon="0.07194">
        <ele>130.4</ele>
        <time>2025-03-30T08:26:28Z</time>
      </trkpt>
      <trkpt lat="43.9734" lon="0.07196">
        <ele>130.4</ele>
        <time>2025-03-30T08:26:29Z</time>
      </trkpt>
      <trkpt lat="43.9734" lon="0.07198">
        <ele>130.3</ele>
        <time>2025-03-30T08:26:30Z</time>
      </trkpt>
      <trkpt lat="43.97341" lon="0.07202">
        <ele>130.1</ele>
        <time>2025-03-30T08:26:32Z</time>
      </trkpt>
      <trkpt lat="43.97342" lon="0.07204">
        <ele>130</ele>
        <time>2025-03-30T08:26:33Z</time>
      </trkpt>
      <trkpt lat="43.97343" lon="0.07205">
        <ele>130</ele>
        <time>2025-03-30T08:26:34Z</time>
      </trkpt>
      <trkpt lat="43.97344" lon="0.07206">
        <ele>129.9</ele>
        <time>2025-03-30T08:26:35Z</time>
      </trkpt>
      <trkpt lat="43.97345" lon="0.07208">
        <ele>129.8</ele>
        <time>2025-03-30T08:26:36Z</time>
      </trkpt>
      <trkpt lat="43.97346" lon="0.0721">
        <ele>129.7</ele>
        <time>2025-03-30T08:26:38Z</time>
      </trkpt>
      <trkpt lat="43.97347" lon="0.07212">
        <ele>129.6</ele>
        <time>2025-03-30T08:26:39Z</time>
      </trkpt>
      <trkpt lat="43.97348" lon="0.07213">
        <ele>129.6</ele>
        <time>2025-03-30T08:26:40Z</time>
      </trkpt>
      <trkpt lat="43.97348" lon="0.07214">
        <ele>129.5</ele>
        <time>2025-03-30T08:26:41Z</time>
      </trkpt>
      <trkpt lat="43.97349" lon="0.07215">
        <ele>129.5</ele>
        <time>2025-03-30T08:26:42Z</time>
      </trkpt>
      <trkpt lat="43.97349" lon="0.07216">
        <ele>129.4</ele>
        <time>2025-03-30T08:26:43Z</time>
      </trkpt>
      <trkpt lat="43.9735" lon="0.07219">
        <ele>129.3</ele>
        <time>2025-03-30T08:26:45Z</time>
      </trkpt>
      <trkpt lat="43.9735" lon="0.0722">
        <ele>129.3</ele>
        <time>2025-03-30T08:26:46Z</time>
      </trkpt>
      <trkpt lat="43.9735" lon="0.07222">
        <ele>129.2</ele>
        <time>2025-03-30T08:26:47Z</time>
      </trkpt>
      <trkpt lat="43.97351" lon="0.07222">
        <ele>129.2</ele>
        <time>2025-03-30T08:26:48Z</time>
      </trkpt>
      <trkpt lat="43.97352" lon="0.07222">
        <ele>129.2</ele>
        <time>2025-03-30T08:26:49Z</time>
      </trkpt>
      <trkpt lat="43.97353" lon="0.07223">
        <ele>129.1</ele>
        <time>2025-03-30T08:26:50Z</time>
      </trkpt>
      <trkpt lat="43.97354" lon="0.07225">
        <ele>129</ele>
        <time>2025-03-30T08:26:51Z</time>
      </trkpt>
      <trkpt lat="43.97355" lon="0.07227">
        <ele>128.9</ele>
        <time>2025-03-30T08:26:52Z</time>
      </trkpt>
      <trkpt lat="43.97356" lon="0.07228">
        <ele>128.9</ele>
        <time>2025-03-30T08:26:53Z</time>
      </trkpt>
      <trkpt lat="43.97358" lon="0.0723">
        <ele>128.7</ele>
        <time>2025-03-30T08:26:55Z</time>
      </trkpt>
      <trkpt lat="43.97359" lon="0.07231">
        <ele>128.7</ele>
        <time>2025-03-30T08:26:56Z</time>
      </trkpt>
      <trkpt lat="43.9736" lon="0.07232">
        <ele>128.6</ele>
        <time>2025-03-30T08:26:57Z</time>
      </trkpt>
      <trkpt lat="43.9736" lon="0.07233">
        <ele>128.5</ele>
        <time>2025-03-30T08:26:58Z</time>
      </trkpt>
      <trkpt lat="43.97361" lon="0.07235">
        <ele>128.4</ele>
        <time>2025-03-30T08:26:59Z</time>
      </trkpt>
      <trkpt lat="43.97362" lon="0.07238">
        <ele>128.2</ele>
        <time>2025-03-30T08:27:01Z</time>
      </trkpt>
      <trkpt lat="43.97363" lon="0.07239">
        <ele>128.1</ele>
        <time>2025-03-30T08:27:02Z</time>
      </trkpt>
      <trkpt lat="43.97364" lon="0.07241">
        <ele>128</ele>
        <time>2025-03-30T08:27:03Z</time>
      </trkpt>
      <trkpt lat="43.97364" lon="0.07242">
        <ele>127.9</ele>
        <time>2025-03-30T08:27:04Z</time>
      </trkpt>
      <trkpt lat="43.97364" lon="0.07245">
        <ele>127</ele>
        <time>2025-03-30T08:27:06Z</time>
      </trkpt>
      <trkpt lat="43.97363" lon="0.07249">
        <ele>127</ele>
        <time>2025-03-30T08:27:08Z</time>
      </trkpt>
      <trkpt lat="43.97362" lon="0.0725">
        <ele>127</ele>
        <time>2025-03-30T08:27:09Z</time>
      </trkpt>
      <trkpt lat="43.97361" lon="0.07251">
        <ele>127</ele>
        <time>2025-03-30T08:27:10Z</time>
      </trkpt>
      <trkpt lat="43.97359" lon="0.07252">
        <ele>127</ele>
        <time>2025-03-30T08:27:11Z</time>
      </trkpt>
      <trkpt lat="43.97359" lon="0.07253">
        <ele>127</ele>
        <time>2025-03-30T08:27:12Z</time>
      </trkpt>
      <trkpt lat="43.97358" lon="0.07253">
        <ele>127</ele>
        <time>2025-03-30T08:27:13Z</time>
      </trkpt>
      <trkpt lat="43.97356" lon="0.07255">
        <ele>127</ele>
        <time>2025-03-30T08:27:14Z</time>
      </trkpt>
      <trkpt lat="43.97355" lon="0.07255">
        <ele>127</ele>
        <time>2025-03-30T08:27:15Z</time>
      </trkpt>
      <trkpt lat="43.97355" lon="0.07256">
        <ele>127</ele>
        <time>2025-03-30T08:27:17Z</time>
      </trkpt>
      <trkpt lat="43.97354" lon="0.07256">
        <ele>127.1</ele>
        <time>2025-03-30T08:27:18Z</time>
      </trkpt>
      <trkpt lat="43.97353" lon="0.07257">
        <ele>127.1</ele>
        <time>2025-03-30T08:27:19Z</time>
      </trkpt>
      <trkpt lat="43.9735" lon="0.0726">
        <ele>127.1</ele>
        <time>2025-03-30T08:27:21Z</time>
      </trkpt>
      <trkpt lat="43.9735" lon="0.07262">
        <ele>127.1</ele>
        <time>2025-03-30T08:27:22Z</time>
      </trkpt>
      <trkpt lat="43.97348" lon="0.07266">
        <ele>127.1</ele>
        <time>2025-03-30T08:27:24Z</time>
      </trkpt>
      <trkpt lat="43.97347" lon="0.07267">
        <ele>127.1</ele>
        <time>2025-03-30T08:27:26Z</time>
      </trkpt>
      <trkpt lat="43.97346" lon="0.07268">
        <ele>127.1</ele>
        <time>2025-03-30T08:27:27Z</time>
      </trkpt>
      <trkpt lat="43.97345" lon="0.0727">
        <ele>127.2</ele>
        <time>2025-03-30T08:27:28Z</time>
      </trkpt>
      <trkpt lat="43.97344" lon="0.07271">
        <ele>127.2</ele>
        <time>2025-03-30T08:27:29Z</time>
      </trkpt>
      <trkpt lat="43.97342" lon="0.07274">
        <ele>127.2</ele>
        <time>2025-03-30T08:27:30Z</time>
      </trkpt>
      <trkpt lat="43.97341" lon="0.07274">
        <ele>127.3</ele>
        <time>2025-03-30T08:27:31Z</time>
      </trkpt>
      <trkpt lat="43.97339" lon="0.07277">
        <ele>127.3</ele>
        <time>2025-03-30T08:27:33Z</time>
      </trkpt>
      <trkpt lat="43.97337" lon="0.07279">
        <ele>127.4</ele>
        <time>2025-03-30T08:27:34Z</time>
      </trkpt>
      <trkpt lat="43.97336" lon="0.07279">
        <ele>127.4</ele>
        <time>2025-03-30T08:27:35Z</time>
      </trkpt>
      <trkpt lat="43.97335" lon="0.07281">
        <ele>127.4</ele>
        <time>2025-03-30T08:27:36Z</time>
      </trkpt>
      <trkpt lat="43.97332" lon="0.07283">
        <ele>127.5</ele>
        <time>2025-03-30T08:27:38Z</time>
      </trkpt>
      <trkpt lat="43.9733" lon="0.07284">
        <ele>127.6</ele>
        <time>2025-03-30T08:27:39Z</time>
      </trkpt>
      <trkpt lat="43.97328" lon="0.07287">
        <ele>127.7</ele>
        <time>2025-03-30T08:27:41Z</time>
      </trkpt>
      <trkpt lat="43.97327" lon="0.07288">
        <ele>127.7</ele>
        <time>2025-03-30T08:27:42Z</time>
      </trkpt>
      <trkpt lat="43.97324" lon="0.07291">
        <ele>127.8</ele>
        <time>2025-03-30T08:27:44Z</time>
      </trkpt>
      <trkpt lat="43.97323" lon="0.07293">
        <ele>127.9</ele>
        <time>2025-03-30T08:27:46Z</time>
      </trkpt>
      <trkpt lat="43.97321" lon="0.07295">
        <ele>128</ele>
        <time>2025-03-30T08:27:47Z</time>
      </trkpt>
      <trkpt lat="43.97318" lon="0.07298">
        <ele>128.1</ele>
        <time>2025-03-30T08:27:49Z</time>
      </trkpt>
      <trkpt lat="43.97318" lon="0.07299">
        <ele>128.1</ele>
        <time>2025-03-30T08:27:50Z</time>
      </trkpt>
      <trkpt lat="43.97316" lon="0.07301">
        <ele>128.2</ele>
        <time>2025-03-30T08:27:51Z</time>
      </trkpt>
      <trkpt lat="43.97316" lon="0.07302">
        <ele>128.2</ele>
        <time>2025-03-30T08:27:52Z</time>
      </trkpt>
      <trkpt lat="43.97315" lon="0.07303">
        <ele>128.3</ele>
        <time>2025-03-30T08:27:53Z</time>
      </trkpt>
      <trkpt lat="43.97313" lon="0.07305">
        <ele>128.4</ele>
        <time>2025-03-30T08:27:54Z</time>
      </trkpt>
      <trkpt lat="43.97313" lon="0.07306">
        <ele>128.4</ele>
        <time>2025-03-30T08:27:55Z</time>
      </trkpt>
      <trkpt lat="43.97312" lon="0.07306">
        <ele>128.4</ele>
        <time>2025-03-30T08:27:56Z</time>
      </trkpt>
      <trkpt lat="43.97311" lon="0.07308">
        <ele>128.5</ele>
        <time>2025-03-30T08:27:57Z</time>
      </trkpt>
      <trkpt lat="43.9731" lon="0.07309">
        <ele>128.5</ele>
        <time>2025-03-30T08:27:58Z</time>
      </trkpt>
      <trkpt lat="43.9731" lon="0.0731">
        <ele>128.5</ele>
        <time>2025-03-30T08:27:59Z</time>
      </trkpt>
      <trkpt lat="43.97309" lon="0.07311">
        <ele>128.6</ele>
        <time>2025-03-30T08:28:00Z</time>
      </trkpt>
      <trkpt lat="43.97308" lon="0.07312">
        <ele>128.6</ele>
        <time>2025-03-30T08:28:01Z</time>
      </trkpt>
      <trkpt lat="43.97307" lon="0.07314">
        <ele>128.7</ele>
        <time>2025-03-30T08:28:02Z</time>
      </trkpt>
      <trkpt lat="43.97306" lon="0.07315">
        <ele>128.7</ele>
        <time>2025-03-30T08:28:03Z</time>
      </trkpt>
      <trkpt lat="43.97305" lon="0.07316">
        <ele>128.8</ele>
        <time>2025-03-30T08:28:04Z</time>
      </trkpt>
      <trkpt lat="43.97304" lon="0.07316">
        <ele>128.8</ele>
        <time>2025-03-30T08:28:05Z</time>
      </trkpt>
      <trkpt lat="43.97303" lon="0.07318">
        <ele>128.8</ele>
        <time>2025-03-30T08:28:06Z</time>
      </trkpt>
      <trkpt lat="43.97302" lon="0.07319">
        <ele>128.9</ele>
        <time>2025-03-30T08:28:08Z</time>
      </trkpt>
      <trkpt lat="43.973" lon="0.07321">
        <ele>129</ele>
        <time>2025-03-30T08:28:10Z</time>
      </trkpt>
      <trkpt lat="43.97298" lon="0.07322">
        <ele>129</ele>
        <time>2025-03-30T08:28:11Z</time>
      </trkpt>
      <trkpt lat="43.97297" lon="0.07324">
        <ele>129.1</ele>
        <time>2025-03-30T08:28:12Z</time>
      </trkpt>
      <trkpt lat="43.97296" lon="0.07325">
        <ele>129.1</ele>
        <time>2025-03-30T08:28:13Z</time>
      </trkpt>
      <trkpt lat="43.97295" lon="0.07327">
        <ele>129.2</ele>
        <time>2025-03-30T08:28:14Z</time>
      </trkpt>
      <trkpt lat="43.97293" lon="0.0733">
        <ele>129.3</ele>
        <time>2025-03-30T08:28:16Z</time>
      </trkpt>
      <trkpt lat="43.97293" lon="0.07331">
        <ele>129.3</ele>
        <time>2025-03-30T08:28:17Z</time>
      </trkpt>
      <trkpt lat="43.97293" lon="0.07332">
        <ele>129.3</ele>
        <time>2025-03-30T08:28:18Z</time>
      </trkpt>
      <trkpt lat="43.97291" lon="0.07334">
        <ele>129.3</ele>
        <time>2025-03-30T08:28:19Z</time>
      </trkpt>
      <trkpt lat="43.9729" lon="0.07335">
        <ele>129.4</ele>
        <time>2025-03-30T08:28:20Z</time>
      </trkpt>
      <trkpt lat="43.97289" lon="0.07337">
        <ele>129.4</ele>
        <time>2025-03-30T08:28:21Z</time>
      </trkpt>
      <trkpt lat="43.97286" lon="0.07341">
        <ele>129.5</ele>
        <time>2025-03-30T08:28:23Z</time>
      </trkpt>
      <trkpt lat="43.97285" lon="0.07341">
        <ele>129.5</ele>
        <time>2025-03-30T08:28:24Z</time>
      </trkpt>
      <trkpt lat="43.97284" lon="0.07342">
        <ele>129.5</ele>
        <time>2025-03-30T08:28:26Z</time>
      </trkpt>
      <trkpt lat="43.97283" lon="0.07343">
        <ele>129.6</ele>
        <time>2025-03-30T08:28:27Z</time>
      </trkpt>
      <trkpt lat="43.97281" lon="0.07346">
        <ele>129.6</ele>
        <time>2025-03-30T08:28:29Z</time>
      </trkpt>
      <trkpt lat="43.9728" lon="0.07347">
        <ele>129.6</ele>
        <time>2025-03-30T08:28:30Z</time>
      </trkpt>
      <trkpt lat="43.97279" lon="0.07349">
        <ele>129.6</ele>
        <time>2025-03-30T08:28:31Z</time>
      </trkpt>
      <trkpt lat="43.97278" lon="0.0735">
        <ele>129.7</ele>
        <time>2025-03-30T08:28:32Z</time>
      </trkpt>
      <trkpt lat="43.97278" lon="0.07352">
        <ele>129.7</ele>
        <time>2025-03-30T08:28:33Z</time>
      </trkpt>
      <trkpt lat="43.97276" lon="0.07356">
        <ele>129.7</ele>
        <time>2025-03-30T08:28:34Z</time>
      </trkpt>
      <trkpt lat="43.97276" lon="0.07357">
        <ele>129.7</ele>
        <time>2025-03-30T08:28:36Z</time>
      </trkpt>
      <trkpt lat="43.97275" lon="0.07359">
        <ele>129.7</ele>
        <time>2025-03-30T08:28:37Z</time>
      </trkpt>
      <trkpt lat="43.97274" lon="0.0736">
        <ele>129.7</ele>
        <time>2025-03-30T08:28:38Z</time>
      </trkpt>
      <trkpt lat="43.97273" lon="0.07362">
        <ele>129.7</ele>
        <time>2025-03-30T08:28:39Z</time>
      </trkpt>
      <trkpt lat="43.97273" lon="0.07363">
        <ele>129.7</ele>
        <time>2025-03-30T08:28:40Z</time>
      </trkpt>
      <trkpt lat="43.97272" lon="0.07365">
        <ele>129.7</ele>
        <time>2025-03-30T08:28:41Z</time>
      </trkpt>
      <trkpt lat="43.97271" lon="0.07367">
        <ele>129.8</ele>
        <time>2025-03-30T08:28:42Z</time>
      </trkpt>
      <trkpt lat="43.97269" lon="0.07368">
        <ele>129.8</ele>
        <time>2025-03-30T08:28:43Z</time>
      </trkpt>
      <trkpt lat="43.97269" lon="0.07369">
        <ele>129.8</ele>
        <time>2025-03-30T08:28:44Z</time>
      </trkpt>
      <trkpt lat="43.97266" lon="0.07371">
        <ele>129.8</ele>
        <time>2025-03-30T08:28:46Z</time>
      </trkpt>
      <trkpt lat="43.97264" lon="0.07371">
        <ele>129.8</ele>
        <time>2025-03-30T08:28:47Z</time>
      </trkpt>
      <trkpt lat="43.97264" lon="0.07372">
        <ele>129.8</ele>
        <time>2025-03-30T08:28:48Z</time>
      </trkpt>
      <trkpt lat="43.97262" lon="0.07372">
        <ele>129.8</ele>
        <time>2025-03-30T08:28:49Z</time>
      </trkpt>
      <trkpt lat="43.97261" lon="0.07373">
        <ele>129.8</ele>
        <time>2025-03-30T08:28:50Z</time>
      </trkpt>
      <trkpt lat="43.97259" lon="0.07375">
        <ele>129.8</ele>
        <time>2025-03-30T08:28:51Z</time>
      </trkpt>
      <trkpt lat="43.97259" lon="0.07376">
        <ele>129.9</ele>
        <time>2025-03-30T08:28:52Z</time>
      </trkpt>
      <trkpt lat="43.97258" lon="0.07376">
        <ele>129.9</ele>
        <time>2025-03-30T08:28:53Z</time>
      </trkpt>
      <trkpt lat="43.97257" lon="0.07378">
        <ele>129.9</ele>
        <time>2025-03-30T08:28:54Z</time>
      </trkpt>
      <trkpt lat="43.97256" lon="0.07379">
        <ele>129.9</ele>
        <time>2025-03-30T08:28:55Z</time>
      </trkpt>
      <trkpt lat="43.97254" lon="0.07381">
        <ele>129.9</ele>
        <time>2025-03-30T08:28:56Z</time>
      </trkpt>
      <trkpt lat="43.97254" lon="0.07382">
        <ele>130</ele>
        <time>2025-03-30T08:28:57Z</time>
      </trkpt>
      <trkpt lat="43.97253" lon="0.07384">
        <ele>130</ele>
        <time>2025-03-30T08:28:58Z</time>
      </trkpt>
      <trkpt lat="43.97252" lon="0.07385">
        <ele>130</ele>
        <time>2025-03-30T08:28:59Z</time>
      </trkpt>
      <trkpt lat="43.97251" lon="0.07386">
        <ele>130</ele>
        <time>2025-03-30T08:29:00Z</time>
      </trkpt>
      <trkpt lat="43.9725" lon="0.07387">
        <ele>130</ele>
        <time>2025-03-30T08:29:01Z</time>
      </trkpt>
      <trkpt lat="43.97249" lon="0.07388">
        <ele>130.1</ele>
        <time>2025-03-30T08:29:02Z</time>
      </trkpt>
      <trkpt lat="43.97248" lon="0.07389">
        <ele>130.1</ele>
        <time>2025-03-30T08:29:03Z</time>
      </trkpt>
      <trkpt lat="43.97247" lon="0.0739">
        <ele>130.1</ele>
        <time>2025-03-30T08:29:04Z</time>
      </trkpt>
      <trkpt lat="43.97246" lon="0.07391">
        <ele>130.2</ele>
        <time>2025-03-30T08:29:05Z</time>
      </trkpt>
      <trkpt lat="43.97244" lon="0.07392">
        <ele>130.2</ele>
        <time>2025-03-30T08:29:06Z</time>
      </trkpt>
      <trkpt lat="43.97243" lon="0.07393">
        <ele>130.2</ele>
        <time>2025-03-30T08:29:07Z</time>
      </trkpt>
      <trkpt lat="43.97241" lon="0.07395">
        <ele>130.3</ele>
        <time>2025-03-30T08:29:09Z</time>
      </trkpt>
      <trkpt lat="43.9724" lon="0.07396">
        <ele>130.3</ele>
        <time>2025-03-30T08:29:10Z</time>
      </trkpt>
      <trkpt lat="43.97239" lon="0.07397">
        <ele>130.4</ele>
        <time>2025-03-30T08:29:11Z</time>
      </trkpt>
      <trkpt lat="43.97238" lon="0.07398">
        <ele>130.4</ele>
        <time>2025-03-30T08:29:12Z</time>
      </trkpt>
      <trkpt lat="43.97237" lon="0.07399">
        <ele>130.4</ele>
        <time>2025-03-30T08:29:13Z</time>
      </trkpt>
      <trkpt lat="43.97235" lon="0.07401">
        <ele>130.5</ele>
        <time>2025-03-30T08:29:15Z</time>
      </trkpt>
      <trkpt lat="43.97235" lon="0.07402">
        <ele>130.5</ele>
        <time>2025-03-30T08:29:16Z</time>
      </trkpt>
      <trkpt lat="43.97234" lon="0.07403">
        <ele>130.6</ele>
        <time>2025-03-30T08:29:17Z</time>
      </trkpt>
      <trkpt lat="43.97232" lon="0.07405">
        <ele>130.6</ele>
        <time>2025-03-30T08:29:18Z</time>
      </trkpt>
      <trkpt lat="43.97231" lon="0.07406">
        <ele>130.7</ele>
        <time>2025-03-30T08:29:20Z</time>
      </trkpt>
      <trkpt lat="43.9723" lon="0.07407">
        <ele>130.7</ele>
        <time>2025-03-30T08:29:21Z</time>
      </trkpt>
      <trkpt lat="43.97229" lon="0.07409">
        <ele>130.8</ele>
        <time>2025-03-30T08:29:22Z</time>
      </trkpt>
      <trkpt lat="43.97229" lon="0.0741">
        <ele>130.8</ele>
        <time>2025-03-30T08:29:23Z</time>
      </trkpt>
      <trkpt lat="43.97228" lon="0.07412">
        <ele>130.8</ele>
        <time>2025-03-30T08:29:24Z</time>
      </trkpt>
      <trkpt lat="43.97227" lon="0.07413">
        <ele>130.9</ele>
        <time>2025-03-30T08:29:25Z</time>
      </trkpt>
      <trkpt lat="43.97226" lon="0.07415">
        <ele>130.9</ele>
        <time>2025-03-30T08:29:26Z</time>
      </trkpt>
      <trkpt lat="43.97225" lon="0.07417">
        <ele>131</ele>
        <time>2025-03-30T08:29:27Z</time>
      </trkpt>
      <trkpt lat="43.97222" lon="0.0742">
        <ele>131</ele>
        <time>2025-03-30T08:29:29Z</time>
      </trkpt>
      <trkpt lat="43.97222" lon="0.07421">
        <ele>131.1</ele>
        <time>2025-03-30T08:29:30Z</time>
      </trkpt>
      <trkpt lat="43.97221" lon="0.07423">
        <ele>131.1</ele>
        <time>2025-03-30T08:29:31Z</time>
      </trkpt>
      <trkpt lat="43.9722" lon="0.07424">
        <ele>131.1</ele>
        <time>2025-03-30T08:29:32Z</time>
      </trkpt>
      <trkpt lat="43.97217" lon="0.07426">
        <ele>131.2</ele>
        <time>2025-03-30T08:29:34Z</time>
      </trkpt>
      <trkpt lat="43.97216" lon="0.07427">
        <ele>131.2</ele>
        <time>2025-03-30T08:29:35Z</time>
      </trkpt>
      <trkpt lat="43.97215" lon="0.07428">
        <ele>131.2</ele>
        <time>2025-03-30T08:29:36Z</time>
      </trkpt>
      <trkpt lat="43.97214" lon="0.07429">
        <ele>131.3</ele>
        <time>2025-03-30T08:29:37Z</time>
      </trkpt>
      <trkpt lat="43.97213" lon="0.07429">
        <ele>131.3</ele>
        <time>2025-03-30T08:29:38Z</time>
      </trkpt>
      <trkpt lat="43.97212" lon="0.07431">
        <ele>131.3</ele>
        <time>2025-03-30T08:29:39Z</time>
      </trkpt>
      <trkpt lat="43.97211" lon="0.07432">
        <ele>131.3</ele>
        <time>2025-03-30T08:29:40Z</time>
      </trkpt>
      <trkpt lat="43.9721" lon="0.07434">
        <ele>131.4</ele>
        <time>2025-03-30T08:29:41Z</time>
      </trkpt>
      <trkpt lat="43.97209" lon="0.07435">
        <ele>131.4</ele>
        <time>2025-03-30T08:29:42Z</time>
      </trkpt>
      <trkpt lat="43.97209" lon="0.07435">
        <ele>131.4</ele>
        <time>2025-03-30T08:29:43Z</time>
      </trkpt>
      <trkpt lat="43.97207" lon="0.07438">
        <ele>131.5</ele>
        <time>2025-03-30T08:29:44Z</time>
      </trkpt>
      <trkpt lat="43.97207" lon="0.07439">
        <ele>131.5</ele>
        <time>2025-03-30T08:29:45Z</time>
      </trkpt>
      <trkpt lat="43.97206" lon="0.0744">
        <ele>131.5</ele>
        <time>2025-03-30T08:29:46Z</time>
      </trkpt>
      <trkpt lat="43.97205" lon="0.07441">
        <ele>131.5</ele>
        <time>2025-03-30T08:29:47Z</time>
      </trkpt>
      <trkpt lat="43.97204" lon="0.07442">
        <ele>131.5</ele>
        <time>2025-03-30T08:29:48Z</time>
      </trkpt>
      <trkpt lat="43.97204" lon="0.07443">
        <ele>131.6</ele>
        <time>2025-03-30T08:29:49Z</time>
      </trkpt>
      <trkpt lat="43.97202" lon="0.07445">
        <ele>131.6</ele>
        <time>2025-03-30T08:29:50Z</time>
      </trkpt>
      <trkpt lat="43.97201" lon="0.07446">
        <ele>131.6</ele>
        <time>2025-03-30T08:29:52Z</time>
      </trkpt>
      <trkpt lat="43.97201" lon="0.07447">
        <ele>131.7</ele>
        <time>2025-03-30T08:29:53Z</time>
      </trkpt>
      <trkpt lat="43.97198" lon="0.0745">
        <ele>131.7</ele>
        <time>2025-03-30T08:29:54Z</time>
      </trkpt>
      <trkpt lat="43.97197" lon="0.07452">
        <ele>131.8</ele>
        <time>2025-03-30T08:29:55Z</time>
      </trkpt>
      <trkpt lat="43.97195" lon="0.07455">
        <ele>131.9</ele>
        <time>2025-03-30T08:29:57Z</time>
      </trkpt>
      <trkpt lat="43.97194" lon="0.07456">
        <ele>131.9</ele>
        <time>2025-03-30T08:29:58Z</time>
      </trkpt>
      <trkpt lat="43.97193" lon="0.07458">
        <ele>132</ele>
        <time>2025-03-30T08:29:59Z</time>
      </trkpt>
      <trkpt lat="43.97191" lon="0.07459">
        <ele>132</ele>
        <time>2025-03-30T08:30:00Z</time>
      </trkpt>
      <trkpt lat="43.97191" lon="0.07459">
        <ele>132</ele>
        <time>2025-03-30T08:30:01Z</time>
      </trkpt>
      <trkpt lat="43.9719" lon="0.0746">
        <ele>132.1</ele>
        <time>2025-03-30T08:30:02Z</time>
      </trkpt>
      <trkpt lat="43.97189" lon="0.0746">
        <ele>132.1</ele>
        <time>2025-03-30T08:30:03Z</time>
      </trkpt>
      <trkpt lat="43.97188" lon="0.07461">
        <ele>132.1</ele>
        <time>2025-03-30T08:30:04Z</time>
      </trkpt>
      <trkpt lat="43.97187" lon="0.07462">
        <ele>132.2</ele>
        <time>2025-03-30T08:30:05Z</time>
      </trkpt>
      <trkpt lat="43.97184" lon="0.07464">
        <ele>132.3</ele>
        <time>2025-03-30T08:30:07Z</time>
      </trkpt>
      <trkpt lat="43.97183" lon="0.07465">
        <ele>132.3</ele>
        <time>2025-03-30T08:30:08Z</time>
      </trkpt>
      <trkpt lat="43.97182" lon="0.07466">
        <ele>132.3</ele>
        <time>2025-03-30T08:30:09Z</time>
      </trkpt>
      <trkpt lat="43.97181" lon="0.07467">
        <ele>132.3</ele>
        <time>2025-03-30T08:30:10Z</time>
      </trkpt>
      <trkpt lat="43.9718" lon="0.07469">
        <ele>132.4</ele>
        <time>2025-03-30T08:30:12Z</time>
      </trkpt>
      <trkpt lat="43.97179" lon="0.0747">
        <ele>132.4</ele>
        <time>2025-03-30T08:30:13Z</time>
      </trkpt>
      <trkpt lat="43.97178" lon="0.07472">
        <ele>132.4</ele>
        <time>2025-03-30T08:30:14Z</time>
      </trkpt>
      <trkpt lat="43.97176" lon="0.07474">
        <ele>132.4</ele>
        <time>2025-03-30T08:30:15Z</time>
      </trkpt>
      <trkpt lat="43.97175" lon="0.07475">
        <ele>132.5</ele>
        <time>2025-03-30T08:30:16Z</time>
      </trkpt>
      <trkpt lat="43.97174" lon="0.07477">
        <ele>132.5</ele>
        <time>2025-03-30T08:30:17Z</time>
      </trkpt>
      <trkpt lat="43.97174" lon="0.0748">
        <ele>132.5</ele>
        <time>2025-03-30T08:30:18Z</time>
      </trkpt>
      <trkpt lat="43.97173" lon="0.07481">
        <ele>132.5</ele>
        <time>2025-03-30T08:30:19Z</time>
      </trkpt>
      <trkpt lat="43.97173" lon="0.07482">
        <ele>132.5</ele>
        <time>2025-03-30T08:30:20Z</time>
      </trkpt>
      <trkpt lat="43.97172" lon="0.07484">
        <ele>132.6</ele>
        <time>2025-03-30T08:30:21Z</time>
      </trkpt>
      <trkpt lat="43.97172" lon="0.07485">
        <ele>132.6</ele>
        <time>2025-03-30T08:30:22Z</time>
      </trkpt>
      <trkpt lat="43.9717" lon="0.07488">
        <ele>132.6</ele>
        <time>2025-03-30T08:30:24Z</time>
      </trkpt>
      <trkpt lat="43.97168" lon="0.07489">
        <ele>132.7</ele>
        <time>2025-03-30T08:30:25Z</time>
      </trkpt>
      <trkpt lat="43.97168" lon="0.07489">
        <ele>132.7</ele>
        <time>2025-03-30T08:30:26Z</time>
      </trkpt>
      <trkpt lat="43.97165" lon="0.07492">
        <ele>132.8</ele>
        <time>2025-03-30T08:30:27Z</time>
      </trkpt>
      <trkpt lat="43.97165" lon="0.07493">
        <ele>132.8</ele>
        <time>2025-03-30T08:30:29Z</time>
      </trkpt>
      <trkpt lat="43.97164" lon="0.07494">
        <ele>132.8</ele>
        <time>2025-03-30T08:30:30Z</time>
      </trkpt>
      <trkpt lat="43.97163" lon="0.07496">
        <ele>132.9</ele>
        <time>2025-03-30T08:30:31Z</time>
      </trkpt>
      <trkpt lat="43.97162" lon="0.07497">
        <ele>132.9</ele>
        <time>2025-03-30T08:30:32Z</time>
      </trkpt>
      <trkpt lat="43.97162" lon="0.07499">
        <ele>132.9</ele>
        <time>2025-03-30T08:30:33Z</time>
      </trkpt>
      <trkpt lat="43.9716" lon="0.07503">
        <ele>133</ele>
        <time>2025-03-30T08:30:35Z</time>
      </trkpt>
      <trkpt lat="43.9716" lon="0.07504">
        <ele>133.1</ele>
        <time>2025-03-30T08:30:36Z</time>
      </trkpt>
      <trkpt lat="43.97159" lon="0.07507">
        <ele>133.1</ele>
        <time>2025-03-30T08:30:37Z</time>
      </trkpt>
      <trkpt lat="43.97159" lon="0.07508">
        <ele>133.2</ele>
        <time>2025-03-30T08:30:38Z</time>
      </trkpt>
      <trkpt lat="43.97159" lon="0.07509">
        <ele>133.2</ele>
        <time>2025-03-30T08:30:39Z</time>
      </trkpt>
      <trkpt lat="43.97158" lon="0.07514">
        <ele>133.3</ele>
        <time>2025-03-30T08:30:41Z</time>
      </trkpt>
      <trkpt lat="43.97158" lon="0.07515">
        <ele>133.4</ele>
        <time>2025-03-30T08:30:42Z</time>
      </trkpt>
      <trkpt lat="43.97158" lon="0.07517">
        <ele>133.5</ele>
        <time>2025-03-30T08:30:43Z</time>
      </trkpt>
      <trkpt lat="43.97157" lon="0.07519">
        <ele>133.6</ele>
        <time>2025-03-30T08:30:44Z</time>
      </trkpt>
      <trkpt lat="43.97156" lon="0.07521">
        <ele>133.7</ele>
        <time>2025-03-30T08:30:45Z</time>
      </trkpt>
      <trkpt lat="43.97155" lon="0.07522">
        <ele>133.8</ele>
        <time>2025-03-30T08:30:46Z</time>
      </trkpt>
      <trkpt lat="43.97154" lon="0.07523">
        <ele>133.9</ele>
        <time>2025-03-30T08:30:47Z</time>
      </trkpt>
      <trkpt lat="43.97154" lon="0.07524">
        <ele>134</ele>
        <time>2025-03-30T08:30:48Z</time>
      </trkpt>
      <trkpt lat="43.97154" lon="0.07526">
        <ele>134.1</ele>
        <time>2025-03-30T08:30:49Z</time>
      </trkpt>
      <trkpt lat="43.97153" lon="0.07527">
        <ele>134.2</ele>
        <time>2025-03-30T08:30:50Z</time>
      </trkpt>
      <trkpt lat="43.97152" lon="0.07531">
        <ele>134.2</ele>
        <time>2025-03-30T08:30:52Z</time>
      </trkpt>
      <trkpt lat="43.97151" lon="0.07533">
        <ele>134.2</ele>
        <time>2025-03-30T08:30:53Z</time>
      </trkpt>
      <trkpt lat="43.97151" lon="0.07535">
        <ele>134.2</ele>
        <time>2025-03-30T08:30:54Z</time>
      </trkpt>
      <trkpt lat="43.9715" lon="0.07536">
        <ele>134.2</ele>
        <time>2025-03-30T08:30:55Z</time>
      </trkpt>
      <trkpt lat="43.9715" lon="0.07539">
        <ele>134.3</ele>
        <time>2025-03-30T08:30:56Z</time>
      </trkpt>
      <trkpt lat="43.9715" lon="0.0754">
        <ele>134.3</ele>
        <time>2025-03-30T08:30:57Z</time>
      </trkpt>
      <trkpt lat="43.9715" lon="0.07541">
        <ele>134.3</ele>
        <time>2025-03-30T08:30:58Z</time>
      </trkpt>
      <trkpt lat="43.9715" lon="0.07542">
        <ele>134.3</ele>
        <time>2025-03-30T08:31:00Z</time>
      </trkpt>
      <trkpt lat="43.9715" lon="0.07543">
        <ele>134.3</ele>
        <time>2025-03-30T08:31:01Z</time>
      </trkpt>
      <trkpt lat="43.9715" lon="0.07545">
        <ele>134.3</ele>
        <time>2025-03-30T08:31:02Z</time>
      </trkpt>
      <trkpt lat="43.97148" lon="0.07549">
        <ele>134.3</ele>
        <time>2025-03-30T08:31:04Z</time>
      </trkpt>
      <trkpt lat="43.97147" lon="0.07552">
        <ele>134.3</ele>
        <time>2025-03-30T08:31:05Z</time>
      </trkpt>
      <trkpt lat="43.97147" lon="0.07553">
        <ele>134.4</ele>
        <time>2025-03-30T08:31:06Z</time>
      </trkpt>
      <trkpt lat="43.97146" lon="0.07554">
        <ele>134.4</ele>
        <time>2025-03-30T08:31:07Z</time>
      </trkpt>
      <trkpt lat="43.97145" lon="0.07556">
        <ele>134.4</ele>
        <time>2025-03-30T08:31:08Z</time>
      </trkpt>
      <trkpt lat="43.97143" lon="0.07557">
        <ele>134.4</ele>
        <time>2025-03-30T08:31:09Z</time>
      </trkpt>
      <trkpt lat="43.97141" lon="0.07559">
        <ele>134.5</ele>
        <time>2025-03-30T08:31:10Z</time>
      </trkpt>
      <trkpt lat="43.9714" lon="0.0756">
        <ele>134.5</ele>
        <time>2025-03-30T08:31:12Z</time>
      </trkpt>
      <trkpt lat="43.97139" lon="0.07561">
        <ele>134.5</ele>
        <time>2025-03-30T08:31:13Z</time>
      </trkpt>
      <trkpt lat="43.97138" lon="0.07562">
        <ele>134.5</ele>
        <time>2025-03-30T08:31:14Z</time>
      </trkpt>
      <trkpt lat="43.97137" lon="0.07563">
        <ele>134.6</ele>
        <time>2025-03-30T08:31:15Z</time>
      </trkpt>
      <trkpt lat="43.97136" lon="0.07566">
        <ele>134.6</ele>
        <time>2025-03-30T08:31:17Z</time>
      </trkpt>
      <trkpt lat="43.97135" lon="0.07566">
        <ele>134.6</ele>
        <time>2025-03-30T08:31:18Z</time>
      </trkpt>
      <trkpt lat="43.97134" lon="0.07567">
        <ele>134.7</ele>
        <time>2025-03-30T08:31:19Z</time>
      </trkpt>
      <trkpt lat="43.97133" lon="0.07569">
        <ele>134.8</ele>
        <time>2025-03-30T08:31:20Z</time>
      </trkpt>
      <trkpt lat="43.97131" lon="0.07572">
        <ele>134.9</ele>
        <time>2025-03-30T08:31:22Z</time>
      </trkpt>
      <trkpt lat="43.9713" lon="0.07574">
        <ele>134.9</ele>
        <time>2025-03-30T08:31:23Z</time>
      </trkpt>
      <trkpt lat="43.97128" lon="0.07577">
        <ele>135.1</ele>
        <time>2025-03-30T08:31:25Z</time>
      </trkpt>
      <trkpt lat="43.97127" lon="0.0758">
        <ele>135.2</ele>
        <time>2025-03-30T08:31:27Z</time>
      </trkpt>
      <trkpt lat="43.97126" lon="0.07582">
        <ele>135.3</ele>
        <time>2025-03-30T08:31:28Z</time>
      </trkpt>
      <trkpt lat="43.97125" lon="0.07584">
        <ele>135.3</ele>
        <time>2025-03-30T08:31:29Z</time>
      </trkpt>
      <trkpt lat="43.97124" lon="0.07587">
        <ele>135.5</ele>
        <time>2025-03-30T08:31:31Z</time>
      </trkpt>
      <trkpt lat="43.97123" lon="0.07588">
        <ele>135.5</ele>
        <time>2025-03-30T08:31:33Z</time>
      </trkpt>
      <trkpt lat="43.97122" lon="0.07591">
        <ele>135.6</ele>
        <time>2025-03-30T08:31:34Z</time>
      </trkpt>
      <trkpt lat="43.97121" lon="0.07593">
        <ele>135.7</ele>
        <time>2025-03-30T08:31:35Z</time>
      </trkpt>
      <trkpt lat="43.9712" lon="0.07594">
        <ele>135.7</ele>
        <time>2025-03-30T08:31:36Z</time>
      </trkpt>
      <trkpt lat="43.9712" lon="0.07596">
        <ele>135.7</ele>
        <time>2025-03-30T08:31:37Z</time>
      </trkpt>
      <trkpt lat="43.97118" lon="0.07599">
        <ele>135.8</ele>
        <time>2025-03-30T08:31:39Z</time>
      </trkpt>
      <trkpt lat="43.97117" lon="0.07601">
        <ele>135.8</ele>
        <time>2025-03-30T08:31:40Z</time>
      </trkpt>
      <trkpt lat="43.97117" lon="0.07604">
        <ele>135.9</ele>
        <time>2025-03-30T08:31:42Z</time>
      </trkpt>
      <trkpt lat="43.97117" lon="0.07606">
        <ele>135.9</ele>
        <time>2025-03-30T08:31:43Z</time>
      </trkpt>
      <trkpt lat="43.97117" lon="0.0761">
        <ele>135.9</ele>
        <time>2025-03-30T08:31:45Z</time>
      </trkpt>
      <trkpt lat="43.97117" lon="0.07612">
        <ele>135.9</ele>
        <time>2025-03-30T08:31:46Z</time>
      </trkpt>
      <trkpt lat="43.97117" lon="0.07615">
        <ele>135.9</ele>
        <time>2025-03-30T08:31:48Z</time>
      </trkpt>
      <trkpt lat="43.97116" lon="0.07617">
        <ele>136</ele>
        <time>2025-03-30T08:31:49Z</time>
      </trkpt>
      <trkpt lat="43.97115" lon="0.0762">
        <ele>136</ele>
        <time>2025-03-30T08:31:51Z</time>
      </trkpt>
      <trkpt lat="43.97115" lon="0.07622">
        <ele>136</ele>
        <time>2025-03-30T08:31:52Z</time>
      </trkpt>
      <trkpt lat="43.97115" lon="0.07623">
        <ele>136</ele>
        <time>2025-03-30T08:31:53Z</time>
      </trkpt>
      <trkpt lat="43.97115" lon="0.07625">
        <ele>136.1</ele>
        <time>2025-03-30T08:31:54Z</time>
      </trkpt>
      <trkpt lat="43.97115" lon="0.07626">
        <ele>136.1</ele>
        <time>2025-03-30T08:31:55Z</time>
      </trkpt>
      <trkpt lat="43.97114" lon="0.07628">
        <ele>136.1</ele>
        <time>2025-03-30T08:31:56Z</time>
      </trkpt>
      <trkpt lat="43.97114" lon="0.07629">
        <ele>136.1</ele>
        <time>2025-03-30T08:31:57Z</time>
      </trkpt>
      <trkpt lat="43.97114" lon="0.07631">
        <ele>136.2</ele>
        <time>2025-03-30T08:31:58Z</time>
      </trkpt>
      <trkpt lat="43.97114" lon="0.07632">
        <ele>136.2</ele>
        <time>2025-03-30T08:31:59Z</time>
      </trkpt>
      <trkpt lat="43.97114" lon="0.07634">
        <ele>136.2</ele>
        <time>2025-03-30T08:32:00Z</time>
      </trkpt>
      <trkpt lat="43.97114" lon="0.07635">
        <ele>136.3</ele>
        <time>2025-03-30T08:32:01Z</time>
      </trkpt>
      <trkpt lat="43.97114" lon="0.07637">
        <ele>136.3</ele>
        <time>2025-03-30T08:32:02Z</time>
      </trkpt>
      <trkpt lat="43.97114" lon="0.07638">
        <ele>136.3</ele>
        <time>2025-03-30T08:32:03Z</time>
      </trkpt>
      <trkpt lat="43.97112" lon="0.0764">
        <ele>136.4</ele>
        <time>2025-03-30T08:32:04Z</time>
      </trkpt>
      <trkpt lat="43.97112" lon="0.07643">
        <ele>136.4</ele>
        <time>2025-03-30T08:32:05Z</time>
      </trkpt>
      <trkpt lat="43.97112" lon="0.07644">
        <ele>136.5</ele>
        <time>2025-03-30T08:32:06Z</time>
      </trkpt>
      <trkpt lat="43.97111" lon="0.07646">
        <ele>136.5</ele>
        <time>2025-03-30T08:32:07Z</time>
      </trkpt>
      <trkpt lat="43.97112" lon="0.07647">
        <ele>136.5</ele>
        <time>2025-03-30T08:32:08Z</time>
      </trkpt>
      <trkpt lat="43.97112" lon="0.07649">
        <ele>136.6</ele>
        <time>2025-03-30T08:32:09Z</time>
      </trkpt>
      <trkpt lat="43.97113" lon="0.07652">
        <ele>136.6</ele>
        <time>2025-03-30T08:32:11Z</time>
      </trkpt>
      <trkpt lat="43.97114" lon="0.07654">
        <ele>136.7</ele>
        <time>2025-03-30T08:32:12Z</time>
      </trkpt>
      <trkpt lat="43.97114" lon="0.07657">
        <ele>136.8</ele>
        <time>2025-03-30T08:32:14Z</time>
      </trkpt>
      <trkpt lat="43.97114" lon="0.07659">
        <ele>136.8</ele>
        <time>2025-03-30T08:32:16Z</time>
      </trkpt>
      <trkpt lat="43.97114" lon="0.07662">
        <ele>136.8</ele>
        <time>2025-03-30T08:32:17Z</time>
      </trkpt>
      <trkpt lat="43.97115" lon="0.07665">
        <ele>136.9</ele>
        <time>2025-03-30T08:32:19Z</time>
      </trkpt>
      <trkpt lat="43.97115" lon="0.07667">
        <ele>136.9</ele>
        <time>2025-03-30T08:32:20Z</time>
      </trkpt>
      <trkpt lat="43.97114" lon="0.07671">
        <ele>137</ele>
        <time>2025-03-30T08:32:22Z</time>
      </trkpt>
      <trkpt lat="43.97114" lon="0.07673">
        <ele>137</ele>
        <time>2025-03-30T08:32:23Z</time>
      </trkpt>
      <trkpt lat="43.97113" lon="0.07675">
        <ele>137.1</ele>
        <time>2025-03-30T08:32:24Z</time>
      </trkpt>
      <trkpt lat="43.97113" lon="0.07678">
        <ele>137.1</ele>
        <time>2025-03-30T08:32:25Z</time>
      </trkpt>
      <trkpt lat="43.97113" lon="0.07679">
        <ele>137.1</ele>
        <time>2025-03-30T08:32:26Z</time>
      </trkpt>
      <trkpt lat="43.97112" lon="0.07681">
        <ele>137.1</ele>
        <time>2025-03-30T08:32:27Z</time>
      </trkpt>
      <trkpt lat="43.97113" lon="0.07683">
        <ele>137.1</ele>
        <time>2025-03-30T08:32:28Z</time>
      </trkpt>
      <trkpt lat="43.97114" lon="0.07685">
        <ele>137.1</ele>
        <time>2025-03-30T08:32:29Z</time>
      </trkpt>
      <trkpt lat="43.97114" lon="0.07686">
        <ele>137.1</ele>
        <time>2025-03-30T08:32:31Z</time>
      </trkpt>
      <trkpt lat="43.97115" lon="0.07688">
        <ele>137.1</ele>
        <time>2025-03-30T08:32:32Z</time>
      </trkpt>
      <trkpt lat="43.97116" lon="0.07689">
        <ele>137.1</ele>
        <time>2025-03-30T08:32:33Z</time>
      </trkpt>
      <trkpt lat="43.97117" lon="0.07691">
        <ele>137.1</ele>
        <time>2025-03-30T08:32:34Z</time>
      </trkpt>
      <trkpt lat="43.97117" lon="0.07692">
        <ele>137.1</ele>
        <time>2025-03-30T08:32:35Z</time>
      </trkpt>
      <trkpt lat="43.97117" lon="0.07694">
        <ele>137.1</ele>
        <time>2025-03-30T08:32:36Z</time>
      </trkpt>
      <trkpt lat="43.97117" lon="0.07696">
        <ele>137.1</ele>
        <time>2025-03-30T08:32:37Z</time>
      </trkpt>
      <trkpt lat="43.97117" lon="0.07699">
        <ele>137.1</ele>
        <time>2025-03-30T08:32:39Z</time>
      </trkpt>
      <trkpt lat="43.97116" lon="0.07701">
        <ele>137.1</ele>
        <time>2025-03-30T08:32:40Z</time>
      </trkpt>
      <trkpt lat="43.97115" lon="0.07702">
        <ele>137.1</ele>
        <time>2025-03-30T08:32:41Z</time>
      </trkpt>
      <trkpt lat="43.97115" lon="0.07703">
        <ele>137.1</ele>
        <time>2025-03-30T08:32:42Z</time>
      </trkpt>
      <trkpt lat="43.97115" lon="0.07705">
        <ele>137.1</ele>
        <time>2025-03-30T08:32:43Z</time>
      </trkpt>
      <trkpt lat="43.97114" lon="0.07707">
        <ele>137.1</ele>
        <time>2025-03-30T08:32:44Z</time>
      </trkpt>
      <trkpt lat="43.97114" lon="0.07708">
        <ele>137.2</ele>
        <time>2025-03-30T08:32:45Z</time>
      </trkpt>
      <trkpt lat="43.97113" lon="0.0771">
        <ele>137.2</ele>
        <time>2025-03-30T08:32:46Z</time>
      </trkpt>
      <trkpt lat="43.97113" lon="0.07711">
        <ele>137.2</ele>
        <time>2025-03-30T08:32:47Z</time>
      </trkpt>
      <trkpt lat="43.97112" lon="0.07713">
        <ele>137.2</ele>
        <time>2025-03-30T08:32:48Z</time>
      </trkpt>
      <trkpt lat="43.97113" lon="0.07717">
        <ele>137.2</ele>
        <time>2025-03-30T08:32:50Z</time>
      </trkpt>
      <trkpt lat="43.97114" lon="0.07718">
        <ele>137.2</ele>
        <time>2025-03-30T08:32:51Z</time>
      </trkpt>
      <trkpt lat="43.97114" lon="0.07721">
        <ele>137.2</ele>
        <time>2025-03-30T08:32:53Z</time>
      </trkpt>
      <trkpt lat="43.97114" lon="0.07723">
        <ele>137.2</ele>
        <time>2025-03-30T08:32:54Z</time>
      </trkpt>
      <trkpt lat="43.97115" lon="0.07725">
        <ele>137.2</ele>
        <time>2025-03-30T08:32:55Z</time>
      </trkpt>
      <trkpt lat="43.97115" lon="0.07727">
        <ele>137.2</ele>
        <time>2025-03-30T08:32:56Z</time>
      </trkpt>
      <trkpt lat="43.97116" lon="0.07728">
        <ele>137.3</ele>
        <time>2025-03-30T08:32:57Z</time>
      </trkpt>
      <trkpt lat="43.97116" lon="0.0773">
        <ele>137.3</ele>
        <time>2025-03-30T08:32:58Z</time>
      </trkpt>
      <trkpt lat="43.97116" lon="0.07732">
        <ele>137.3</ele>
        <time>2025-03-30T08:32:59Z</time>
      </trkpt>
      <trkpt lat="43.97117" lon="0.07733">
        <ele>137.3</ele>
        <time>2025-03-30T08:33:00Z</time>
      </trkpt>
      <trkpt lat="43.97117" lon="0.07735">
        <ele>137.3</ele>
        <time>2025-03-30T08:33:01Z</time>
      </trkpt>
      <trkpt lat="43.97117" lon="0.07738">
        <ele>137.3</ele>
        <time>2025-03-30T08:33:02Z</time>
      </trkpt>
      <trkpt lat="43.97117" lon="0.07739">
        <ele>137.3</ele>
        <time>2025-03-30T08:33:03Z</time>
      </trkpt>
      <trkpt lat="43.97117" lon="0.07741">
        <ele>137.3</ele>
        <time>2025-03-30T08:33:04Z</time>
      </trkpt>
      <trkpt lat="43.97117" lon="0.07742">
        <ele>137.3</ele>
        <time>2025-03-30T08:33:05Z</time>
      </trkpt>
      <trkpt lat="43.97117" lon="0.07744">
        <ele>137.3</ele>
        <time>2025-03-30T08:33:06Z</time>
      </trkpt>
      <trkpt lat="43.97118" lon="0.07748">
        <ele>137.4</ele>
        <time>2025-03-30T08:33:08Z</time>
      </trkpt>
      <trkpt lat="43.97117" lon="0.0775">
        <ele>137.4</ele>
        <time>2025-03-30T08:33:09Z</time>
      </trkpt>
      <trkpt lat="43.97117" lon="0.07754">
        <ele>137.4</ele>
        <time>2025-03-30T08:33:11Z</time>
      </trkpt>
      <trkpt lat="43.97117" lon="0.07756">
        <ele>137.4</ele>
        <time>2025-03-30T08:33:12Z</time>
      </trkpt>
      <trkpt lat="43.97116" lon="0.07758">
        <ele>137.4</ele>
        <time>2025-03-30T08:33:13Z</time>
      </trkpt>
      <trkpt lat="43.97116" lon="0.07761">
        <ele>137.4</ele>
        <time>2025-03-30T08:33:14Z</time>
      </trkpt>
      <trkpt lat="43.97116" lon="0.07763">
        <ele>137.5</ele>
        <time>2025-03-30T08:33:16Z</time>
      </trkpt>
      <trkpt lat="43.97116" lon="0.07764">
        <ele>137.5</ele>
        <time>2025-03-30T08:33:17Z</time>
      </trkpt>
      <trkpt lat="43.97116" lon="0.07766">
        <ele>137.5</ele>
        <time>2025-03-30T08:33:18Z</time>
      </trkpt>
      <trkpt lat="43.97116" lon="0.07767">
        <ele>137.5</ele>
        <time>2025-03-30T08:33:19Z</time>
      </trkpt>
      <trkpt lat="43.97115" lon="0.07769">
        <ele>137.5</ele>
        <time>2025-03-30T08:33:20Z</time>
      </trkpt>
      <trkpt lat="43.97115" lon="0.0777">
        <ele>137.5</ele>
        <time>2025-03-30T08:33:21Z</time>
      </trkpt>
      <trkpt lat="43.97115" lon="0.07771">
        <ele>137.5</ele>
        <time>2025-03-30T08:33:22Z</time>
      </trkpt>
      <trkpt lat="43.97114" lon="0.07774">
        <ele>137.5</ele>
        <time>2025-03-30T08:33:23Z</time>
      </trkpt>
      <trkpt lat="43.97114" lon="0.07775">
        <ele>137.5</ele>
        <time>2025-03-30T08:33:24Z</time>
      </trkpt>
      <trkpt lat="43.97114" lon="0.07776">
        <ele>137.5</ele>
        <time>2025-03-30T08:33:25Z</time>
      </trkpt>
      <trkpt lat="43.97114" lon="0.07778">
        <ele>137.5</ele>
        <time>2025-03-30T08:33:26Z</time>
      </trkpt>
      <trkpt lat="43.97114" lon="0.0778">
        <ele>137.5</ele>
        <time>2025-03-30T08:33:27Z</time>
      </trkpt>
      <trkpt lat="43.97113" lon="0.07782">
        <ele>137.5</ele>
        <time>2025-03-30T08:33:28Z</time>
      </trkpt>
      <trkpt lat="43.97113" lon="0.07784">
        <ele>137.5</ele>
        <time>2025-03-30T08:33:29Z</time>
      </trkpt>
      <trkpt lat="43.97113" lon="0.07787">
        <ele>137.6</ele>
        <time>2025-03-30T08:33:31Z</time>
      </trkpt>
      <trkpt lat="43.97112" lon="0.07791">
        <ele>137.6</ele>
        <time>2025-03-30T08:33:33Z</time>
      </trkpt>
      <trkpt lat="43.97112" lon="0.07793">
        <ele>137.5</ele>
        <time>2025-03-30T08:33:34Z</time>
      </trkpt>
      <trkpt lat="43.97112" lon="0.07794">
        <ele>137.5</ele>
        <time>2025-03-30T08:33:35Z</time>
      </trkpt>
      <trkpt lat="43.97112" lon="0.07795">
        <ele>137.5</ele>
        <time>2025-03-30T08:33:36Z</time>
      </trkpt>
      <trkpt lat="43.97112" lon="0.07797">
        <ele>137.5</ele>
        <time>2025-03-30T08:33:37Z</time>
      </trkpt>
      <trkpt lat="43.97112" lon="0.07798">
        <ele>137.5</ele>
        <time>2025-03-30T08:33:38Z</time>
      </trkpt>
      <trkpt lat="43.97111" lon="0.078">
        <ele>137.5</ele>
        <time>2025-03-30T08:33:39Z</time>
      </trkpt>
      <trkpt lat="43.97111" lon="0.07801">
        <ele>137.5</ele>
        <time>2025-03-30T08:33:40Z</time>
      </trkpt>
      <trkpt lat="43.9711" lon="0.07805">
        <ele>137.5</ele>
        <time>2025-03-30T08:33:42Z</time>
      </trkpt>
      <trkpt lat="43.97109" lon="0.07807">
        <ele>137.5</ele>
        <time>2025-03-30T08:33:43Z</time>
      </trkpt>
      <trkpt lat="43.97109" lon="0.07809">
        <ele>137.5</ele>
        <time>2025-03-30T08:33:44Z</time>
      </trkpt>
      <trkpt lat="43.97108" lon="0.07811">
        <ele>137.5</ele>
        <time>2025-03-30T08:33:45Z</time>
      </trkpt>
      <trkpt lat="43.97108" lon="0.07813">
        <ele>137.4</ele>
        <time>2025-03-30T08:33:46Z</time>
      </trkpt>
      <trkpt lat="43.97108" lon="0.07815">
        <ele>137.4</ele>
        <time>2025-03-30T08:33:47Z</time>
      </trkpt>
      <trkpt lat="43.97107" lon="0.07817">
        <ele>137.4</ele>
        <time>2025-03-30T08:33:48Z</time>
      </trkpt>
      <trkpt lat="43.97107" lon="0.07819">
        <ele>137.4</ele>
        <time>2025-03-30T08:33:49Z</time>
      </trkpt>
      <trkpt lat="43.97108" lon="0.0782">
        <ele>137.4</ele>
        <time>2025-03-30T08:33:50Z</time>
      </trkpt>
      <trkpt lat="43.97109" lon="0.0782">
        <ele>137.4</ele>
        <time>2025-03-30T08:33:52Z</time>
      </trkpt>
      <trkpt lat="43.97108" lon="0.0782">
        <ele>137.4</ele>
        <time>2025-03-30T08:33:53Z</time>
      </trkpt>
      <trkpt lat="43.97108" lon="0.07819">
        <ele>137.4</ele>
        <time>2025-03-30T08:33:54Z</time>
      </trkpt>
      <trkpt lat="43.97108" lon="0.07819">
        <ele>137.4</ele>
        <time>2025-03-30T08:33:55Z</time>
      </trkpt>
      <trkpt lat="43.97108" lon="0.07819">
        <ele>137.4</ele>
        <time>2025-03-30T08:33:56Z</time>
      </trkpt>
      <trkpt lat="43.97108" lon="0.07819">
        <ele>137.4</ele>
        <time>2025-03-30T08:33:57Z</time>
      </trkpt>
      <trkpt lat="43.97108" lon="0.07819">
        <ele>137.4</ele>
        <time>2025-03-30T08:33:58Z</time>
      </trkpt>
      <trkpt lat="43.97108" lon="0.07819">
        <ele>137.4</ele>
        <time>2025-03-30T08:33:59Z</time>
      </trkpt>
      <trkpt lat="43.97108" lon="0.07819">
        <ele>137.4</ele>
        <time>2025-03-30T08:34:00Z</time>
      </trkpt>
      <trkpt lat="43.97108" lon="0.07819">
        <ele>137.4</ele>
        <time>2025-03-30T08:34:01Z</time>
      </trkpt>
      <trkpt lat="43.97108" lon="0.07819">
        <ele>137.4</ele>
        <time>2025-03-30T08:34:02Z</time>
      </trkpt>
      <trkpt lat="43.97108" lon="0.07819">
        <ele>137.4</ele>
        <time>2025-03-30T08:34:04Z</time>
      </trkpt>
      <trkpt lat="43.97108" lon="0.0782">
        <ele>137.3</ele>
        <time>2025-03-30T08:34:05Z</time>
      </trkpt>
      <trkpt lat="43.97108" lon="0.0782">
        <ele>137.3</ele>
        <time>2025-03-30T08:34:06Z</time>
      </trkpt>
      <trkpt lat="43.97108" lon="0.0782">
        <ele>137.3</ele>
        <time>2025-03-30T08:34:07Z</time>
      </trkpt>
      <trkpt lat="43.97107" lon="0.07823">
        <ele>137.3</ele>
        <time>2025-03-30T08:34:08Z</time>
      </trkpt>
      <trkpt lat="43.97105" lon="0.07825">
        <ele>137.3</ele>
        <time>2025-03-30T08:34:09Z</time>
      </trkpt>
      <trkpt lat="43.97106" lon="0.07826">
        <ele>137.3</ele>
        <time>2025-03-30T08:34:10Z</time>
      </trkpt>
      <trkpt lat="43.97106" lon="0.07827">
        <ele>137.3</ele>
        <time>2025-03-30T08:34:11Z</time>
      </trkpt>
      <trkpt lat="43.97106" lon="0.07828">
        <ele>137.3</ele>
        <time>2025-03-30T08:34:12Z</time>
      </trkpt>
      <trkpt lat="43.97107" lon="0.07832">
        <ele>137.3</ele>
        <time>2025-03-30T08:34:13Z</time>
      </trkpt>
      <trkpt lat="43.97107" lon="0.07834">
        <ele>137.2</ele>
        <time>2025-03-30T08:34:14Z</time>
      </trkpt>
      <trkpt lat="43.97106" lon="0.07836">
        <ele>137.2</ele>
        <time>2025-03-30T08:34:15Z</time>
      </trkpt>
      <trkpt lat="43.97105" lon="0.0784">
        <ele>137.2</ele>
        <time>2025-03-30T08:34:16Z</time>
      </trkpt>
      <trkpt lat="43.97105" lon="0.07842">
        <ele>137.2</ele>
        <time>2025-03-30T08:34:17Z</time>
      </trkpt>
      <trkpt lat="43.97105" lon="0.07844">
        <ele>137.2</ele>
        <time>2025-03-30T08:34:18Z</time>
      </trkpt>
      <trkpt lat="43.97104" lon="0.07846">
        <ele>137.2</ele>
        <time>2025-03-30T08:34:19Z</time>
      </trkpt>
      <trkpt lat="43.97104" lon="0.07847">
        <ele>137.2</ele>
        <time>2025-03-30T08:34:20Z</time>
      </trkpt>
      <trkpt lat="43.97104" lon="0.07848">
        <ele>137.2</ele>
        <time>2025-03-30T08:34:21Z</time>
      </trkpt>
      <trkpt lat="43.97104" lon="0.07849">
        <ele>137.2</ele>
        <time>2025-03-30T08:34:22Z</time>
      </trkpt>
      <trkpt lat="43.97104" lon="0.07851">
        <ele>137.2</ele>
        <time>2025-03-30T08:34:23Z</time>
      </trkpt>
      <trkpt lat="43.97104" lon="0.07852">
        <ele>137.2</ele>
        <time>2025-03-30T08:34:24Z</time>
      </trkpt>
      <trkpt lat="43.97104" lon="0.07853">
        <ele>137.2</ele>
        <time>2025-03-30T08:34:25Z</time>
      </trkpt>
      <trkpt lat="43.97103" lon="0.07854">
        <ele>137.2</ele>
        <time>2025-03-30T08:34:26Z</time>
      </trkpt>
      <trkpt lat="43.97103" lon="0.07856">
        <ele>137.3</ele>
        <time>2025-03-30T08:34:27Z</time>
      </trkpt>
      <trkpt lat="43.97102" lon="0.07856">
        <ele>137.3</ele>
        <time>2025-03-30T08:34:28Z</time>
      </trkpt>
      <trkpt lat="43.97102" lon="0.07857">
        <ele>137.3</ele>
        <time>2025-03-30T08:34:29Z</time>
      </trkpt>
      <trkpt lat="43.97101" lon="0.07858">
        <ele>137.3</ele>
        <time>2025-03-30T08:34:30Z</time>
      </trkpt>
      <trkpt lat="43.97101" lon="0.07859">
        <ele>137.3</ele>
        <time>2025-03-30T08:34:31Z</time>
      </trkpt>
      <trkpt lat="43.971" lon="0.0786">
        <ele>137.3</ele>
        <time>2025-03-30T08:34:32Z</time>
      </trkpt>
      <trkpt lat="43.971" lon="0.0786">
        <ele>137.3</ele>
        <time>2025-03-30T08:34:33Z</time>
      </trkpt>
      <trkpt lat="43.97099" lon="0.07862">
        <ele>137.3</ele>
        <time>2025-03-30T08:34:34Z</time>
      </trkpt>
      <trkpt lat="43.97099" lon="0.07863">
        <ele>137.3</ele>
        <time>2025-03-30T08:34:35Z</time>
      </trkpt>
      <trkpt lat="43.97098" lon="0.07864">
        <ele>137.3</ele>
        <time>2025-03-30T08:34:36Z</time>
      </trkpt>
      <trkpt lat="43.97098" lon="0.07865">
        <ele>137.3</ele>
        <time>2025-03-30T08:34:37Z</time>
      </trkpt>
      <trkpt lat="43.97097" lon="0.07866">
        <ele>137.3</ele>
        <time>2025-03-30T08:34:38Z</time>
      </trkpt>
      <trkpt lat="43.97096" lon="0.07868">
        <ele>137.3</ele>
        <time>2025-03-30T08:34:39Z</time>
      </trkpt>
      <trkpt lat="43.97096" lon="0.07869">
        <ele>137.3</ele>
        <time>2025-03-30T08:34:40Z</time>
      </trkpt>
      <trkpt lat="43.97096" lon="0.0787">
        <ele>137.3</ele>
        <time>2025-03-30T08:34:41Z</time>
      </trkpt>
      <trkpt lat="43.97096" lon="0.07872">
        <ele>137.3</ele>
        <time>2025-03-30T08:34:42Z</time>
      </trkpt>
      <trkpt lat="43.97096" lon="0.07874">
        <ele>137.3</ele>
        <time>2025-03-30T08:34:43Z</time>
      </trkpt>
      <trkpt lat="43.97096" lon="0.07876">
        <ele>137.2</ele>
        <time>2025-03-30T08:34:44Z</time>
      </trkpt>
      <trkpt lat="43.97096" lon="0.07877">
        <ele>137.2</ele>
        <time>2025-03-30T08:34:45Z</time>
      </trkpt>
      <trkpt lat="43.97096" lon="0.07879">
        <ele>137.2</ele>
        <time>2025-03-30T08:34:46Z</time>
      </trkpt>
      <trkpt lat="43.97096" lon="0.0788">
        <ele>137.2</ele>
        <time>2025-03-30T08:34:47Z</time>
      </trkpt>
      <trkpt lat="43.97096" lon="0.07882">
        <ele>137.2</ele>
        <time>2025-03-30T08:34:48Z</time>
      </trkpt>
      <trkpt lat="43.97097" lon="0.07884">
        <ele>137.2</ele>
        <time>2025-03-30T08:34:49Z</time>
      </trkpt>
      <trkpt lat="43.97097" lon="0.07886">
        <ele>137.2</ele>
        <time>2025-03-30T08:34:50Z</time>
      </trkpt>
      <trkpt lat="43.97097" lon="0.07888">
        <ele>137.2</ele>
        <time>2025-03-30T08:34:51Z</time>
      </trkpt>
      <trkpt lat="43.97098" lon="0.0789">
        <ele>137.2</ele>
        <time>2025-03-30T08:34:52Z</time>
      </trkpt>
      <trkpt lat="43.97098" lon="0.07891">
        <ele>137.1</ele>
        <time>2025-03-30T08:34:53Z</time>
      </trkpt>
      <trkpt lat="43.97098" lon="0.07893">
        <ele>137.1</ele>
        <time>2025-03-30T08:34:54Z</time>
      </trkpt>
      <trkpt lat="43.97098" lon="0.07894">
        <ele>137.1</ele>
        <time>2025-03-30T08:34:55Z</time>
      </trkpt>
      <trkpt lat="43.97097" lon="0.07896">
        <ele>137.1</ele>
        <time>2025-03-30T08:34:56Z</time>
      </trkpt>
      <trkpt lat="43.97097" lon="0.07898">
        <ele>137.1</ele>
        <time>2025-03-30T08:34:57Z</time>
      </trkpt>
      <trkpt lat="43.97097" lon="0.079">
        <ele>137.1</ele>
        <time>2025-03-30T08:34:58Z</time>
      </trkpt>
      <trkpt lat="43.97097" lon="0.07902">
        <ele>137.1</ele>
        <time>2025-03-30T08:34:59Z</time>
      </trkpt>
      <trkpt lat="43.97097" lon="0.07904">
        <ele>137.2</ele>
        <time>2025-03-30T08:35:00Z</time>
      </trkpt>
      <trkpt lat="43.97097" lon="0.07906">
        <ele>137.2</ele>
        <time>2025-03-30T08:35:01Z</time>
      </trkpt>
      <trkpt lat="43.97098" lon="0.07908">
        <ele>137.2</ele>
        <time>2025-03-30T08:35:02Z</time>
      </trkpt>
      <trkpt lat="43.97098" lon="0.07911">
        <ele>137.2</ele>
        <time>2025-03-30T08:35:03Z</time>
      </trkpt>
      <trkpt lat="43.97098" lon="0.07913">
        <ele>137.2</ele>
        <time>2025-03-30T08:35:04Z</time>
      </trkpt>
      <trkpt lat="43.97097" lon="0.07914">
        <ele>137.2</ele>
        <time>2025-03-30T08:35:05Z</time>
      </trkpt>
      <trkpt lat="43.97098" lon="0.07916">
        <ele>137.2</ele>
        <time>2025-03-30T08:35:06Z</time>
      </trkpt>
      <trkpt lat="43.97099" lon="0.07917">
        <ele>137.2</ele>
        <time>2025-03-30T08:35:07Z</time>
      </trkpt>
      <trkpt lat="43.97098" lon="0.0792">
        <ele>137.3</ele>
        <time>2025-03-30T08:35:08Z</time>
      </trkpt>
      <trkpt lat="43.97098" lon="0.07921">
        <ele>137.3</ele>
        <time>2025-03-30T08:35:09Z</time>
      </trkpt>
      <trkpt lat="43.97098" lon="0.07922">
        <ele>137.3</ele>
        <time>2025-03-30T08:35:10Z</time>
      </trkpt>
      <trkpt lat="43.97097" lon="0.07925">
        <ele>137.3</ele>
        <time>2025-03-30T08:35:11Z</time>
      </trkpt>
      <trkpt lat="43.97096" lon="0.07926">
        <ele>137.3</ele>
        <time>2025-03-30T08:35:12Z</time>
      </trkpt>
      <trkpt lat="43.97096" lon="0.07927">
        <ele>137.3</ele>
        <time>2025-03-30T08:35:13Z</time>
      </trkpt>
      <trkpt lat="43.97095" lon="0.0793">
        <ele>137.3</ele>
        <time>2025-03-30T08:35:14Z</time>
      </trkpt>
      <trkpt lat="43.97095" lon="0.07931">
        <ele>137.3</ele>
        <time>2025-03-30T08:35:15Z</time>
      </trkpt>
      <trkpt lat="43.97095" lon="0.07932">
        <ele>137.3</ele>
        <time>2025-03-30T08:35:16Z</time>
      </trkpt>
      <trkpt lat="43.97095" lon="0.07934">
        <ele>137.3</ele>
        <time>2025-03-30T08:35:17Z</time>
      </trkpt>
      <trkpt lat="43.97094" lon="0.07936">
        <ele>137.3</ele>
        <time>2025-03-30T08:35:18Z</time>
      </trkpt>
      <trkpt lat="43.97094" lon="0.07938">
        <ele>137.3</ele>
        <time>2025-03-30T08:35:19Z</time>
      </trkpt>
      <trkpt lat="43.97094" lon="0.0794">
        <ele>137.3</ele>
        <time>2025-03-30T08:35:20Z</time>
      </trkpt>
      <trkpt lat="43.97094" lon="0.07942">
        <ele>137.3</ele>
        <time>2025-03-30T08:35:21Z</time>
      </trkpt>
      <trkpt lat="43.97093" lon="0.07945">
        <ele>137.3</ele>
        <time>2025-03-30T08:35:22Z</time>
      </trkpt>
      <trkpt lat="43.97093" lon="0.07949">
        <ele>137.3</ele>
        <time>2025-03-30T08:35:23Z</time>
      </trkpt>
      <trkpt lat="43.97093" lon="0.0795">
        <ele>137.3</ele>
        <time>2025-03-30T08:35:24Z</time>
      </trkpt>
      <trkpt lat="43.97092" lon="0.07953">
        <ele>137.3</ele>
        <time>2025-03-30T08:35:25Z</time>
      </trkpt>
      <trkpt lat="43.97091" lon="0.07954">
        <ele>137.3</ele>
        <time>2025-03-30T08:35:26Z</time>
      </trkpt>
      <trkpt lat="43.97091" lon="0.07956">
        <ele>137.3</ele>
        <time>2025-03-30T08:35:27Z</time>
      </trkpt>
      <trkpt lat="43.9709" lon="0.07957">
        <ele>137.3</ele>
        <time>2025-03-30T08:35:28Z</time>
      </trkpt>
      <trkpt lat="43.9709" lon="0.07959">
        <ele>137.3</ele>
        <time>2025-03-30T08:35:29Z</time>
      </trkpt>
      <trkpt lat="43.9709" lon="0.07962">
        <ele>137.3</ele>
        <time>2025-03-30T08:35:30Z</time>
      </trkpt>
      <trkpt lat="43.9709" lon="0.07964">
        <ele>137.3</ele>
        <time>2025-03-30T08:35:31Z</time>
      </trkpt>
      <trkpt lat="43.9709" lon="0.07966">
        <ele>137.3</ele>
        <time>2025-03-30T08:35:32Z</time>
      </trkpt>
      <trkpt lat="43.9709" lon="0.07968">
        <ele>137.3</ele>
        <time>2025-03-30T08:35:33Z</time>
      </trkpt>
      <trkpt lat="43.9709" lon="0.07969">
        <ele>137.3</ele>
        <time>2025-03-30T08:35:34Z</time>
      </trkpt>
      <trkpt lat="43.97089" lon="0.07971">
        <ele>137.3</ele>
        <time>2025-03-30T08:35:35Z</time>
      </trkpt>
      <trkpt lat="43.97089" lon="0.07972">
        <ele>137.3</ele>
        <time>2025-03-30T08:35:36Z</time>
      </trkpt>
      <trkpt lat="43.97089" lon="0.07973">
        <ele>137.3</ele>
        <time>2025-03-30T08:35:37Z</time>
      </trkpt>
      <trkpt lat="43.97088" lon="0.07974">
        <ele>137.3</ele>
        <time>2025-03-30T08:35:38Z</time>
      </trkpt>
      <trkpt lat="43.97087" lon="0.07976">
        <ele>137.4</ele>
        <time>2025-03-30T08:35:39Z</time>
      </trkpt>
      <trkpt lat="43.97086" lon="0.07977">
        <ele>137.4</ele>
        <time>2025-03-30T08:35:40Z</time>
      </trkpt>
      <trkpt lat="43.97086" lon="0.07979">
        <ele>137.4</ele>
        <time>2025-03-30T08:35:41Z</time>
      </trkpt>
      <trkpt lat="43.97085" lon="0.07982">
        <ele>137.4</ele>
        <time>2025-03-30T08:35:42Z</time>
      </trkpt>
      <trkpt lat="43.97084" lon="0.07983">
        <ele>137.4</ele>
        <time>2025-03-30T08:35:43Z</time>
      </trkpt>
      <trkpt lat="43.97084" lon="0.07984">
        <ele>137.5</ele>
        <time>2025-03-30T08:35:44Z</time>
      </trkpt>
      <trkpt lat="43.97084" lon="0.07986">
        <ele>137.5</ele>
        <time>2025-03-30T08:35:45Z</time>
      </trkpt>
      <trkpt lat="43.97083" lon="0.07988">
        <ele>137.5</ele>
        <time>2025-03-30T08:35:46Z</time>
      </trkpt>
      <trkpt lat="43.97083" lon="0.0799">
        <ele>137.5</ele>
        <time>2025-03-30T08:35:47Z</time>
      </trkpt>
      <trkpt lat="43.97083" lon="0.07992">
        <ele>137.6</ele>
        <time>2025-03-30T08:35:48Z</time>
      </trkpt>
      <trkpt lat="43.97083" lon="0.07994">
        <ele>137.6</ele>
        <time>2025-03-30T08:35:49Z</time>
      </trkpt>
      <trkpt lat="43.97083" lon="0.07996">
        <ele>137.6</ele>
        <time>2025-03-30T08:35:50Z</time>
      </trkpt>
      <trkpt lat="43.97084" lon="0.07999">
        <ele>137.6</ele>
        <time>2025-03-30T08:35:51Z</time>
      </trkpt>
      <trkpt lat="43.97084" lon="0.08">
        <ele>137.7</ele>
        <time>2025-03-30T08:35:52Z</time>
      </trkpt>
      <trkpt lat="43.97085" lon="0.08001">
        <ele>137.7</ele>
        <time>2025-03-30T08:35:53Z</time>
      </trkpt>
      <trkpt lat="43.97085" lon="0.08002">
        <ele>137.7</ele>
        <time>2025-03-30T08:35:54Z</time>
      </trkpt>
      <trkpt lat="43.97085" lon="0.08004">
        <ele>137.7</ele>
        <time>2025-03-30T08:35:55Z</time>
      </trkpt>
      <trkpt lat="43.97085" lon="0.08005">
        <ele>137.7</ele>
        <time>2025-03-30T08:35:56Z</time>
      </trkpt>
      <trkpt lat="43.97085" lon="0.08007">
        <ele>137.7</ele>
        <time>2025-03-30T08:35:57Z</time>
      </trkpt>
      <trkpt lat="43.97085" lon="0.08009">
        <ele>137.8</ele>
        <time>2025-03-30T08:35:58Z</time>
      </trkpt>
      <trkpt lat="43.97085" lon="0.0801">
        <ele>137.8</ele>
        <time>2025-03-30T08:35:59Z</time>
      </trkpt>
      <trkpt lat="43.97085" lon="0.08013">
        <ele>137.8</ele>
        <time>2025-03-30T08:36:00Z</time>
      </trkpt>
      <trkpt lat="43.97085" lon="0.08014">
        <ele>137.8</ele>
        <time>2025-03-30T08:36:01Z</time>
      </trkpt>
      <trkpt lat="43.97085" lon="0.08015">
        <ele>137.8</ele>
        <time>2025-03-30T08:36:02Z</time>
      </trkpt>
      <trkpt lat="43.97085" lon="0.08019">
        <ele>137.9</ele>
        <time>2025-03-30T08:36:03Z</time>
      </trkpt>
      <trkpt lat="43.97085" lon="0.0802">
        <ele>137.9</ele>
        <time>2025-03-30T08:36:04Z</time>
      </trkpt>
      <trkpt lat="43.97085" lon="0.08021">
        <ele>137.9</ele>
        <time>2025-03-30T08:36:05Z</time>
      </trkpt>
      <trkpt lat="43.97085" lon="0.08023">
        <ele>137.9</ele>
        <time>2025-03-30T08:36:06Z</time>
      </trkpt>
      <trkpt lat="43.97085" lon="0.08025">
        <ele>137.9</ele>
        <time>2025-03-30T08:36:07Z</time>
      </trkpt>
      <trkpt lat="43.97086" lon="0.08027">
        <ele>138</ele>
        <time>2025-03-30T08:36:08Z</time>
      </trkpt>
      <trkpt lat="43.97086" lon="0.08029">
        <ele>138</ele>
        <time>2025-03-30T08:36:09Z</time>
      </trkpt>
      <trkpt lat="43.97086" lon="0.08031">
        <ele>138</ele>
        <time>2025-03-30T08:36:10Z</time>
      </trkpt>
      <trkpt lat="43.97086" lon="0.08033">
        <ele>138</ele>
        <time>2025-03-30T08:36:11Z</time>
      </trkpt>
      <trkpt lat="43.97086" lon="0.08035">
        <ele>138.1</ele>
        <time>2025-03-30T08:36:12Z</time>
      </trkpt>
      <trkpt lat="43.97086" lon="0.08037">
        <ele>138.1</ele>
        <time>2025-03-30T08:36:13Z</time>
      </trkpt>
      <trkpt lat="43.97086" lon="0.0804">
        <ele>138.1</ele>
        <time>2025-03-30T08:36:14Z</time>
      </trkpt>
      <trkpt lat="43.97086" lon="0.08041">
        <ele>138.1</ele>
        <time>2025-03-30T08:36:15Z</time>
      </trkpt>
      <trkpt lat="43.97085" lon="0.08042">
        <ele>138.2</ele>
        <time>2025-03-30T08:36:16Z</time>
      </trkpt>
      <trkpt lat="43.97085" lon="0.08044">
        <ele>138.2</ele>
        <time>2025-03-30T08:36:17Z</time>
      </trkpt>
      <trkpt lat="43.97085" lon="0.08045">
        <ele>138.2</ele>
        <time>2025-03-30T08:36:18Z</time>
      </trkpt>
      <trkpt lat="43.97084" lon="0.08047">
        <ele>138.2</ele>
        <time>2025-03-30T08:36:19Z</time>
      </trkpt>
      <trkpt lat="43.97083" lon="0.0805">
        <ele>138.2</ele>
        <time>2025-03-30T08:36:20Z</time>
      </trkpt>
      <trkpt lat="43.97083" lon="0.08051">
        <ele>138.3</ele>
        <time>2025-03-30T08:36:21Z</time>
      </trkpt>
      <trkpt lat="43.97083" lon="0.08052">
        <ele>138.3</ele>
        <time>2025-03-30T08:36:22Z</time>
      </trkpt>
      <trkpt lat="43.97082" lon="0.08053">
        <ele>138.3</ele>
        <time>2025-03-30T08:36:23Z</time>
      </trkpt>
      <trkpt lat="43.97082" lon="0.08055">
        <ele>138.3</ele>
        <time>2025-03-30T08:36:24Z</time>
      </trkpt>
      <trkpt lat="43.97081" lon="0.08057">
        <ele>138.3</ele>
        <time>2025-03-30T08:36:25Z</time>
      </trkpt>
      <trkpt lat="43.97081" lon="0.08058">
        <ele>138.4</ele>
        <time>2025-03-30T08:36:26Z</time>
      </trkpt>
      <trkpt lat="43.97081" lon="0.0806">
        <ele>138.4</ele>
        <time>2025-03-30T08:36:27Z</time>
      </trkpt>
      <trkpt lat="43.9708" lon="0.08061">
        <ele>138.4</ele>
        <time>2025-03-30T08:36:28Z</time>
      </trkpt>
      <trkpt lat="43.97079" lon="0.08063">
        <ele>138.4</ele>
        <time>2025-03-30T08:36:29Z</time>
      </trkpt>
      <trkpt lat="43.97078" lon="0.08064">
        <ele>138.5</ele>
        <time>2025-03-30T08:36:30Z</time>
      </trkpt>
      <trkpt lat="43.97076" lon="0.08066">
        <ele>138.5</ele>
        <time>2025-03-30T08:36:31Z</time>
      </trkpt>
      <trkpt lat="43.97075" lon="0.08066">
        <ele>138.5</ele>
        <time>2025-03-30T08:36:32Z</time>
      </trkpt>
      <trkpt lat="43.97074" lon="0.08067">
        <ele>138.5</ele>
        <time>2025-03-30T08:36:33Z</time>
      </trkpt>
      <trkpt lat="43.97073" lon="0.08068">
        <ele>138.6</ele>
        <time>2025-03-30T08:36:34Z</time>
      </trkpt>
      <trkpt lat="43.97072" lon="0.08069">
        <ele>138.6</ele>
        <time>2025-03-30T08:36:35Z</time>
      </trkpt>
      <trkpt lat="43.9707" lon="0.08069">
        <ele>138.6</ele>
        <time>2025-03-30T08:36:36Z</time>
      </trkpt>
      <trkpt lat="43.97069" lon="0.0807">
        <ele>138.7</ele>
        <time>2025-03-30T08:36:37Z</time>
      </trkpt>
      <trkpt lat="43.97067" lon="0.0807">
        <ele>138.7</ele>
        <time>2025-03-30T08:36:38Z</time>
      </trkpt>
      <trkpt lat="43.97066" lon="0.08071">
        <ele>138.7</ele>
        <time>2025-03-30T08:36:39Z</time>
      </trkpt>
      <trkpt lat="43.97064" lon="0.08071">
        <ele>138.7</ele>
        <time>2025-03-30T08:36:40Z</time>
      </trkpt>
      <trkpt lat="43.97063" lon="0.08072">
        <ele>138.8</ele>
        <time>2025-03-30T08:36:41Z</time>
      </trkpt>
      <trkpt lat="43.9706" lon="0.08073">
        <ele>138.8</ele>
        <time>2025-03-30T08:36:42Z</time>
      </trkpt>
      <trkpt lat="43.97059" lon="0.08073">
        <ele>138.8</ele>
        <time>2025-03-30T08:36:43Z</time>
      </trkpt>
      <trkpt lat="43.97057" lon="0.08074">
        <ele>138.9</ele>
        <time>2025-03-30T08:36:44Z</time>
      </trkpt>
      <trkpt lat="43.97056" lon="0.08075">
        <ele>138.9</ele>
        <time>2025-03-30T08:36:45Z</time>
      </trkpt>
      <trkpt lat="43.97053" lon="0.08075">
        <ele>138.9</ele>
        <time>2025-03-30T08:36:46Z</time>
      </trkpt>
      <trkpt lat="43.97052" lon="0.08075">
        <ele>138.9</ele>
        <time>2025-03-30T08:36:47Z</time>
      </trkpt>
      <trkpt lat="43.9705" lon="0.08075">
        <ele>139</ele>
        <time>2025-03-30T08:36:48Z</time>
      </trkpt>
      <trkpt lat="43.97049" lon="0.08075">
        <ele>139</ele>
        <time>2025-03-30T08:36:49Z</time>
      </trkpt>
      <trkpt lat="43.97048" lon="0.08075">
        <ele>139</ele>
        <time>2025-03-30T08:36:50Z</time>
      </trkpt>
      <trkpt lat="43.97046" lon="0.08075">
        <ele>139</ele>
        <time>2025-03-30T08:36:51Z</time>
      </trkpt>
      <trkpt lat="43.97044" lon="0.08076">
        <ele>139.1</ele>
        <time>2025-03-30T08:36:52Z</time>
      </trkpt>
      <trkpt lat="43.97043" lon="0.08076">
        <ele>139.1</ele>
        <time>2025-03-30T08:36:53Z</time>
      </trkpt>
      <trkpt lat="43.97041" lon="0.08076">
        <ele>139.1</ele>
        <time>2025-03-30T08:36:54Z</time>
      </trkpt>
      <trkpt lat="43.9704" lon="0.08076">
        <ele>139.2</ele>
        <time>2025-03-30T08:36:55Z</time>
      </trkpt>
      <trkpt lat="43.97039" lon="0.08076">
        <ele>139.2</ele>
        <time>2025-03-30T08:36:56Z</time>
      </trkpt>
      <trkpt lat="43.97037" lon="0.08077">
        <ele>139.2</ele>
        <time>2025-03-30T08:36:57Z</time>
      </trkpt>
      <trkpt lat="43.97036" lon="0.08077">
        <ele>139.3</ele>
        <time>2025-03-30T08:36:58Z</time>
      </trkpt>
      <trkpt lat="43.97034" lon="0.08078">
        <ele>139.3</ele>
        <time>2025-03-30T08:36:59Z</time>
      </trkpt>
      <trkpt lat="43.97033" lon="0.08078">
        <ele>139.3</ele>
        <time>2025-03-30T08:37:00Z</time>
      </trkpt>
      <trkpt lat="43.97032" lon="0.08079">
        <ele>139.4</ele>
        <time>2025-03-30T08:37:01Z</time>
      </trkpt>
      <trkpt lat="43.97031" lon="0.08079">
        <ele>139.4</ele>
        <time>2025-03-30T08:37:02Z</time>
      </trkpt>
      <trkpt lat="43.9703" lon="0.08079">
        <ele>139.4</ele>
        <time>2025-03-30T08:37:03Z</time>
      </trkpt>
      <trkpt lat="43.97029" lon="0.0808">
        <ele>139.4</ele>
        <time>2025-03-30T08:37:04Z</time>
      </trkpt>
      <trkpt lat="43.97027" lon="0.0808">
        <ele>139.5</ele>
        <time>2025-03-30T08:37:05Z</time>
      </trkpt>
      <trkpt lat="43.97026" lon="0.0808">
        <ele>139.5</ele>
        <time>2025-03-30T08:37:06Z</time>
      </trkpt>
      <trkpt lat="43.97024" lon="0.0808">
        <ele>139.5</ele>
        <time>2025-03-30T08:37:07Z</time>
      </trkpt>
      <trkpt lat="43.97021" lon="0.08081">
        <ele>139.6</ele>
        <time>2025-03-30T08:37:09Z</time>
      </trkpt>
      <trkpt lat="43.9702" lon="0.08081">
        <ele>139.6</ele>
        <time>2025-03-30T08:37:10Z</time>
      </trkpt>
      <trkpt lat="43.97019" lon="0.08081">
        <ele>139.6</ele>
        <time>2025-03-30T08:37:11Z</time>
      </trkpt>
      <trkpt lat="43.97017" lon="0.08081">
        <ele>139.6</ele>
        <time>2025-03-30T08:37:12Z</time>
      </trkpt>
      <trkpt lat="43.97016" lon="0.08081">
        <ele>139.6</ele>
        <time>2025-03-30T08:37:13Z</time>
      </trkpt>
      <trkpt lat="43.97014" lon="0.08081">
        <ele>139.7</ele>
        <time>2025-03-30T08:37:15Z</time>
      </trkpt>
      <trkpt lat="43.97013" lon="0.08081">
        <ele>139.7</ele>
        <time>2025-03-30T08:37:16Z</time>
      </trkpt>
      <trkpt lat="43.97012" lon="0.08081">
        <ele>139.7</ele>
        <time>2025-03-30T08:37:18Z</time>
      </trkpt>
      <trkpt lat="43.9701" lon="0.08083">
        <ele>139.8</ele>
        <time>2025-03-30T08:37:19Z</time>
      </trkpt>
      <trkpt lat="43.97009" lon="0.08083">
        <ele>139.8</ele>
        <time>2025-03-30T08:37:20Z</time>
      </trkpt>
      <trkpt lat="43.97008" lon="0.08083">
        <ele>139.8</ele>
        <time>2025-03-30T08:37:21Z</time>
      </trkpt>
      <trkpt lat="43.97007" lon="0.08084">
        <ele>139.8</ele>
        <time>2025-03-30T08:37:22Z</time>
      </trkpt>
      <trkpt lat="43.97006" lon="0.08084">
        <ele>139.8</ele>
        <time>2025-03-30T08:37:23Z</time>
      </trkpt>
      <trkpt lat="43.97004" lon="0.08084">
        <ele>139.9</ele>
        <time>2025-03-30T08:37:25Z</time>
      </trkpt>
      <trkpt lat="43.97004" lon="0.08084">
        <ele>139.9</ele>
        <time>2025-03-30T08:37:26Z</time>
      </trkpt>
      <trkpt lat="43.97002" lon="0.08084">
        <ele>139.9</ele>
        <time>2025-03-30T08:37:27Z</time>
      </trkpt>
      <trkpt lat="43.97001" lon="0.08085">
        <ele>139.9</ele>
        <time>2025-03-30T08:37:28Z</time>
      </trkpt>
      <trkpt lat="43.96999" lon="0.08085">
        <ele>140</ele>
        <time>2025-03-30T08:37:29Z</time>
      </trkpt>
      <trkpt lat="43.96998" lon="0.08086">
        <ele>140</ele>
        <time>2025-03-30T08:37:31Z</time>
      </trkpt>
      <trkpt lat="43.96997" lon="0.08087">
        <ele>140</ele>
        <time>2025-03-30T08:37:32Z</time>
      </trkpt>
      <trkpt lat="43.96996" lon="0.08089">
        <ele>140</ele>
        <time>2025-03-30T08:37:33Z</time>
      </trkpt>
      <trkpt lat="43.96995" lon="0.0809">
        <ele>140.1</ele>
        <time>2025-03-30T08:37:34Z</time>
      </trkpt>
      <trkpt lat="43.96994" lon="0.08092">
        <ele>140.1</ele>
        <time>2025-03-30T08:37:35Z</time>
      </trkpt>
      <trkpt lat="43.96994" lon="0.08093">
        <ele>140.1</ele>
        <time>2025-03-30T08:37:36Z</time>
      </trkpt>
      <trkpt lat="43.96993" lon="0.08095">
        <ele>140.1</ele>
        <time>2025-03-30T08:37:37Z</time>
      </trkpt>
      <trkpt lat="43.96993" lon="0.08097">
        <ele>140.1</ele>
        <time>2025-03-30T08:37:38Z</time>
      </trkpt>
      <trkpt lat="43.96992" lon="0.08099">
        <ele>140.2</ele>
        <time>2025-03-30T08:37:39Z</time>
      </trkpt>
      <trkpt lat="43.96991" lon="0.08102">
        <ele>140.2</ele>
        <time>2025-03-30T08:37:41Z</time>
      </trkpt>
      <trkpt lat="43.96991" lon="0.08106">
        <ele>140.3</ele>
        <time>2025-03-30T08:37:43Z</time>
      </trkpt>
      <trkpt lat="43.96991" lon="0.08108">
        <ele>140.3</ele>
        <time>2025-03-30T08:37:44Z</time>
      </trkpt>
      <trkpt lat="43.96991" lon="0.08109">
        <ele>140.3</ele>
        <time>2025-03-30T08:37:45Z</time>
      </trkpt>
      <trkpt lat="43.96991" lon="0.0811">
        <ele>140.3</ele>
        <time>2025-03-30T08:37:46Z</time>
      </trkpt>
      <trkpt lat="43.96991" lon="0.08112">
        <ele>140.4</ele>
        <time>2025-03-30T08:37:48Z</time>
      </trkpt>
      <trkpt lat="43.9699" lon="0.08115">
        <ele>140.4</ele>
        <time>2025-03-30T08:37:49Z</time>
      </trkpt>
      <trkpt lat="43.9699" lon="0.08117">
        <ele>140.4</ele>
        <time>2025-03-30T08:37:50Z</time>
      </trkpt>
      <trkpt lat="43.96989" lon="0.0812">
        <ele>140.5</ele>
        <time>2025-03-30T08:37:52Z</time>
      </trkpt>
      <trkpt lat="43.96989" lon="0.08122">
        <ele>140.5</ele>
        <time>2025-03-30T08:37:53Z</time>
      </trkpt>
      <trkpt lat="43.96988" lon="0.08123">
        <ele>140.5</ele>
        <time>2025-03-30T08:37:54Z</time>
      </trkpt>
      <trkpt lat="43.96988" lon="0.08125">
        <ele>140.6</ele>
        <time>2025-03-30T08:37:55Z</time>
      </trkpt>
      <trkpt lat="43.96988" lon="0.08126">
        <ele>140.6</ele>
        <time>2025-03-30T08:37:56Z</time>
      </trkpt>
      <trkpt lat="43.96988" lon="0.08128">
        <ele>140.6</ele>
        <time>2025-03-30T08:37:57Z</time>
      </trkpt>
      <trkpt lat="43.96988" lon="0.0813">
        <ele>140.6</ele>
        <time>2025-03-30T08:37:58Z</time>
      </trkpt>
      <trkpt lat="43.96987" lon="0.08131">
        <ele>140.7</ele>
        <time>2025-03-30T08:37:59Z</time>
      </trkpt>
      <trkpt lat="43.96987" lon="0.08133">
        <ele>140.7</ele>
        <time>2025-03-30T08:38:00Z</time>
      </trkpt>
      <trkpt lat="43.96987" lon="0.08136">
        <ele>140.7</ele>
        <time>2025-03-30T08:38:01Z</time>
      </trkpt>
      <trkpt lat="43.96987" lon="0.08137">
        <ele>140.8</ele>
        <time>2025-03-30T08:38:02Z</time>
      </trkpt>
      <trkpt lat="43.96987" lon="0.08139">
        <ele>140.8</ele>
        <time>2025-03-30T08:38:03Z</time>
      </trkpt>
      <trkpt lat="43.96987" lon="0.08141">
        <ele>140.8</ele>
        <time>2025-03-30T08:38:04Z</time>
      </trkpt>
      <trkpt lat="43.96987" lon="0.08143">
        <ele>140.9</ele>
        <time>2025-03-30T08:38:05Z</time>
      </trkpt>
      <trkpt lat="43.96987" lon="0.08144">
        <ele>140.9</ele>
        <time>2025-03-30T08:38:06Z</time>
      </trkpt>
      <trkpt lat="43.96987" lon="0.08145">
        <ele>140.9</ele>
        <time>2025-03-30T08:38:07Z</time>
      </trkpt>
      <trkpt lat="43.96985" lon="0.08146">
        <ele>141</ele>
        <time>2025-03-30T08:38:08Z</time>
      </trkpt>
      <trkpt lat="43.96984" lon="0.08147">
        <ele>141</ele>
        <time>2025-03-30T08:38:09Z</time>
      </trkpt>
      <trkpt lat="43.96983" lon="0.08149">
        <ele>141</ele>
        <time>2025-03-30T08:38:10Z</time>
      </trkpt>
      <trkpt lat="43.96983" lon="0.08151">
        <ele>141.1</ele>
        <time>2025-03-30T08:38:11Z</time>
      </trkpt>
      <trkpt lat="43.96983" lon="0.08154">
        <ele>141.1</ele>
        <time>2025-03-30T08:38:12Z</time>
      </trkpt>
      <trkpt lat="43.96983" lon="0.08156">
        <ele>141.2</ele>
        <time>2025-03-30T08:38:13Z</time>
      </trkpt>
      <trkpt lat="43.96983" lon="0.08158">
        <ele>141.2</ele>
        <time>2025-03-30T08:38:14Z</time>
      </trkpt>
      <trkpt lat="43.96983" lon="0.08159">
        <ele>141.2</ele>
        <time>2025-03-30T08:38:15Z</time>
      </trkpt>
      <trkpt lat="43.96982" lon="0.08161">
        <ele>141.2</ele>
        <time>2025-03-30T08:38:16Z</time>
      </trkpt>
      <trkpt lat="43.96982" lon="0.08162">
        <ele>141.2</ele>
        <time>2025-03-30T08:38:17Z</time>
      </trkpt>
      <trkpt lat="43.96982" lon="0.08164">
        <ele>141.3</ele>
        <time>2025-03-30T08:38:18Z</time>
      </trkpt>
      <trkpt lat="43.96982" lon="0.08165">
        <ele>141.3</ele>
        <time>2025-03-30T08:38:19Z</time>
      </trkpt>
      <trkpt lat="43.96982" lon="0.08167">
        <ele>141.3</ele>
        <time>2025-03-30T08:38:20Z</time>
      </trkpt>
      <trkpt lat="43.96982" lon="0.08168">
        <ele>141.3</ele>
        <time>2025-03-30T08:38:21Z</time>
      </trkpt>
      <trkpt lat="43.96982" lon="0.0817">
        <ele>141.4</ele>
        <time>2025-03-30T08:38:22Z</time>
      </trkpt>
      <trkpt lat="43.96981" lon="0.08172">
        <ele>141.4</ele>
        <time>2025-03-30T08:38:23Z</time>
      </trkpt>
      <trkpt lat="43.9698" lon="0.08176">
        <ele>141.5</ele>
        <time>2025-03-30T08:38:25Z</time>
      </trkpt>
      <trkpt lat="43.96979" lon="0.08179">
        <ele>141.5</ele>
        <time>2025-03-30T08:38:26Z</time>
      </trkpt>
      <trkpt lat="43.96979" lon="0.0818">
        <ele>141.6</ele>
        <time>2025-03-30T08:38:27Z</time>
      </trkpt>
      <trkpt lat="43.96978" lon="0.08182">
        <ele>141.6</ele>
        <time>2025-03-30T08:38:28Z</time>
      </trkpt>
      <trkpt lat="43.96977" lon="0.08184">
        <ele>141.7</ele>
        <time>2025-03-30T08:38:30Z</time>
      </trkpt>
      <trkpt lat="43.96977" lon="0.08188">
        <ele>141.7</ele>
        <time>2025-03-30T08:38:32Z</time>
      </trkpt>
      <trkpt lat="43.96977" lon="0.08189">
        <ele>141.8</ele>
        <time>2025-03-30T08:38:33Z</time>
      </trkpt>
      <trkpt lat="43.96977" lon="0.08191">
        <ele>141.8</ele>
        <time>2025-03-30T08:38:34Z</time>
      </trkpt>
      <trkpt lat="43.96977" lon="0.08192">
        <ele>141.8</ele>
        <time>2025-03-30T08:38:35Z</time>
      </trkpt>
      <trkpt lat="43.96976" lon="0.08195">
        <ele>141.9</ele>
        <time>2025-03-30T08:38:36Z</time>
      </trkpt>
      <trkpt lat="43.96975" lon="0.08196">
        <ele>142</ele>
        <time>2025-03-30T08:38:37Z</time>
      </trkpt>
      <trkpt lat="43.96974" lon="0.08196">
        <ele>142</ele>
        <time>2025-03-30T08:38:38Z</time>
      </trkpt>
      <trkpt lat="43.96973" lon="0.08198">
        <ele>142.1</ele>
        <time>2025-03-30T08:38:39Z</time>
      </trkpt>
      <trkpt lat="43.96972" lon="0.082">
        <ele>142.1</ele>
        <time>2025-03-30T08:38:40Z</time>
      </trkpt>
      <trkpt lat="43.96971" lon="0.08201">
        <ele>142.2</ele>
        <time>2025-03-30T08:38:41Z</time>
      </trkpt>
      <trkpt lat="43.96971" lon="0.08202">
        <ele>142.2</ele>
        <time>2025-03-30T08:38:42Z</time>
      </trkpt>
      <trkpt lat="43.9697" lon="0.08203">
        <ele>142.3</ele>
        <time>2025-03-30T08:38:43Z</time>
      </trkpt>
      <trkpt lat="43.9697" lon="0.08205">
        <ele>142.4</ele>
        <time>2025-03-30T08:38:44Z</time>
      </trkpt>
      <trkpt lat="43.96969" lon="0.08206">
        <ele>142.4</ele>
        <time>2025-03-30T08:38:45Z</time>
      </trkpt>
      <trkpt lat="43.96968" lon="0.08207">
        <ele>142.5</ele>
        <time>2025-03-30T08:38:46Z</time>
      </trkpt>
      <trkpt lat="43.96968" lon="0.08208">
        <ele>142.6</ele>
        <time>2025-03-30T08:38:47Z</time>
      </trkpt>
      <trkpt lat="43.96966" lon="0.08209">
        <ele>142.6</ele>
        <time>2025-03-30T08:38:48Z</time>
      </trkpt>
      <trkpt lat="43.96965" lon="0.08209">
        <ele>142.6</ele>
        <time>2025-03-30T08:38:49Z</time>
      </trkpt>
      <trkpt lat="43.96964" lon="0.08209">
        <ele>142.6</ele>
        <time>2025-03-30T08:38:50Z</time>
      </trkpt>
      <trkpt lat="43.96963" lon="0.08209">
        <ele>142.6</ele>
        <time>2025-03-30T08:38:51Z</time>
      </trkpt>
      <trkpt lat="43.96961" lon="0.08208">
        <ele>142.7</ele>
        <time>2025-03-30T08:38:52Z</time>
      </trkpt>
      <trkpt lat="43.9696" lon="0.08207">
        <ele>142.7</ele>
        <time>2025-03-30T08:38:53Z</time>
      </trkpt>
      <trkpt lat="43.96958" lon="0.08207">
        <ele>142.7</ele>
        <time>2025-03-30T08:38:54Z</time>
      </trkpt>
      <trkpt lat="43.96957" lon="0.08206">
        <ele>142.7</ele>
        <time>2025-03-30T08:38:55Z</time>
      </trkpt>
      <trkpt lat="43.96955" lon="0.08206">
        <ele>142.8</ele>
        <time>2025-03-30T08:38:56Z</time>
      </trkpt>
      <trkpt lat="43.96953" lon="0.08207">
        <ele>142.8</ele>
        <time>2025-03-30T08:38:57Z</time>
      </trkpt>
      <trkpt lat="43.96952" lon="0.08207">
        <ele>142.8</ele>
        <time>2025-03-30T08:38:58Z</time>
      </trkpt>
      <trkpt lat="43.96951" lon="0.08207">
        <ele>142.8</ele>
        <time>2025-03-30T08:38:59Z</time>
      </trkpt>
      <trkpt lat="43.9695" lon="0.08207">
        <ele>142.8</ele>
        <time>2025-03-30T08:39:00Z</time>
      </trkpt>
      <trkpt lat="43.96948" lon="0.08207">
        <ele>142.9</ele>
        <time>2025-03-30T08:39:01Z</time>
      </trkpt>
      <trkpt lat="43.96947" lon="0.08208">
        <ele>142.9</ele>
        <time>2025-03-30T08:39:02Z</time>
      </trkpt>
      <trkpt lat="43.96945" lon="0.08208">
        <ele>142.9</ele>
        <time>2025-03-30T08:39:03Z</time>
      </trkpt>
      <trkpt lat="43.96944" lon="0.0821">
        <ele>142.9</ele>
        <time>2025-03-30T08:39:05Z</time>
      </trkpt>
      <trkpt lat="43.96941" lon="0.08209">
        <ele>143</ele>
        <time>2025-03-30T08:39:07Z</time>
      </trkpt>
      <trkpt lat="43.96939" lon="0.08209">
        <ele>143</ele>
        <time>2025-03-30T08:39:08Z</time>
      </trkpt>
      <trkpt lat="43.96937" lon="0.08209">
        <ele>143</ele>
        <time>2025-03-30T08:39:09Z</time>
      </trkpt>
      <trkpt lat="43.96936" lon="0.08208">
        <ele>143</ele>
        <time>2025-03-30T08:39:10Z</time>
      </trkpt>
      <trkpt lat="43.96935" lon="0.08208">
        <ele>143</ele>
        <time>2025-03-30T08:39:11Z</time>
      </trkpt>
      <trkpt lat="43.96933" lon="0.08208">
        <ele>143</ele>
        <time>2025-03-30T08:39:12Z</time>
      </trkpt>
      <trkpt lat="43.96932" lon="0.08209">
        <ele>143</ele>
        <time>2025-03-30T08:39:13Z</time>
      </trkpt>
      <trkpt lat="43.9693" lon="0.08209">
        <ele>143</ele>
        <time>2025-03-30T08:39:14Z</time>
      </trkpt>
      <trkpt lat="43.96927" lon="0.08209">
        <ele>142.9</ele>
        <time>2025-03-30T08:39:16Z</time>
      </trkpt>
      <trkpt lat="43.96926" lon="0.08209">
        <ele>142.9</ele>
        <time>2025-03-30T08:39:17Z</time>
      </trkpt>
      <trkpt lat="43.96925" lon="0.08209">
        <ele>142.9</ele>
        <time>2025-03-30T08:39:18Z</time>
      </trkpt>
      <trkpt lat="43.96925" lon="0.0821">
        <ele>142.9</ele>
        <time>2025-03-30T08:39:19Z</time>
      </trkpt>
      <trkpt lat="43.96924" lon="0.08211">
        <ele>142.8</ele>
        <time>2025-03-30T08:39:20Z</time>
      </trkpt>
      <trkpt lat="43.96922" lon="0.08211">
        <ele>142.8</ele>
        <time>2025-03-30T08:39:21Z</time>
      </trkpt>
      <trkpt lat="43.9692" lon="0.08211">
        <ele>142.7</ele>
        <time>2025-03-30T08:39:22Z</time>
      </trkpt>
      <trkpt lat="43.96918" lon="0.08212">
        <ele>142.7</ele>
        <time>2025-03-30T08:39:23Z</time>
      </trkpt>
      <trkpt lat="43.96917" lon="0.08213">
        <ele>142.6</ele>
        <time>2025-03-30T08:39:24Z</time>
      </trkpt>
      <trkpt lat="43.96914" lon="0.08213">
        <ele>142.6</ele>
        <time>2025-03-30T08:39:26Z</time>
      </trkpt>
      <trkpt lat="43.96912" lon="0.08214">
        <ele>142.5</ele>
        <time>2025-03-30T08:39:27Z</time>
      </trkpt>
      <trkpt lat="43.9691" lon="0.08215">
        <ele>142.5</ele>
        <time>2025-03-30T08:39:29Z</time>
      </trkpt>
      <trkpt lat="43.9691" lon="0.08215">
        <ele>142.5</ele>
        <time>2025-03-30T08:39:30Z</time>
      </trkpt>
      <trkpt lat="43.96909" lon="0.08214">
        <ele>142.5</ele>
        <time>2025-03-30T08:39:31Z</time>
      </trkpt>
      <trkpt lat="43.96908" lon="0.08214">
        <ele>142.4</ele>
        <time>2025-03-30T08:39:32Z</time>
      </trkpt>
      <trkpt lat="43.96905" lon="0.08214">
        <ele>142.4</ele>
        <time>2025-03-30T08:39:33Z</time>
      </trkpt>
      <trkpt lat="43.96904" lon="0.08214">
        <ele>142.4</ele>
        <time>2025-03-30T08:39:34Z</time>
      </trkpt>
      <trkpt lat="43.96903" lon="0.08214">
        <ele>142.4</ele>
        <time>2025-03-30T08:39:35Z</time>
      </trkpt>
      <trkpt lat="43.96902" lon="0.08214">
        <ele>142.4</ele>
        <time>2025-03-30T08:39:36Z</time>
      </trkpt>
      <trkpt lat="43.96901" lon="0.08214">
        <ele>142.3</ele>
        <time>2025-03-30T08:39:37Z</time>
      </trkpt>
      <trkpt lat="43.969" lon="0.08214">
        <ele>142.3</ele>
        <time>2025-03-30T08:39:38Z</time>
      </trkpt>
      <trkpt lat="43.969" lon="0.08215">
        <ele>142.3</ele>
        <time>2025-03-30T08:39:39Z</time>
      </trkpt>
      <trkpt lat="43.96898" lon="0.08216">
        <ele>142.3</ele>
        <time>2025-03-30T08:39:41Z</time>
      </trkpt>
      <trkpt lat="43.96896" lon="0.08217">
        <ele>142.3</ele>
        <time>2025-03-30T08:39:42Z</time>
      </trkpt>
      <trkpt lat="43.96895" lon="0.08217">
        <ele>142.3</ele>
        <time>2025-03-30T08:39:43Z</time>
      </trkpt>
      <trkpt lat="43.96894" lon="0.08217">
        <ele>142.2</ele>
        <time>2025-03-30T08:39:44Z</time>
      </trkpt>
      <trkpt lat="43.96892" lon="0.08218">
        <ele>142.2</ele>
        <time>2025-03-30T08:39:45Z</time>
      </trkpt>
      <trkpt lat="43.96892" lon="0.0822">
        <ele>142.2</ele>
        <time>2025-03-30T08:39:46Z</time>
      </trkpt>
      <trkpt lat="43.96891" lon="0.08224">
        <ele>142.2</ele>
        <time>2025-03-30T08:39:48Z</time>
      </trkpt>
      <trkpt lat="43.96891" lon="0.08225">
        <ele>142.2</ele>
        <time>2025-03-30T08:39:49Z</time>
      </trkpt>
      <trkpt lat="43.96891" lon="0.08227">
        <ele>142.2</ele>
        <time>2025-03-30T08:39:50Z</time>
      </trkpt>
      <trkpt lat="43.96891" lon="0.08228">
        <ele>142.1</ele>
        <time>2025-03-30T08:39:51Z</time>
      </trkpt>
      <trkpt lat="43.96891" lon="0.0823">
        <ele>142.1</ele>
        <time>2025-03-30T08:39:52Z</time>
      </trkpt>
      <trkpt lat="43.96892" lon="0.08232">
        <ele>142.1</ele>
        <time>2025-03-30T08:39:53Z</time>
      </trkpt>
      <trkpt lat="43.96892" lon="0.08233">
        <ele>142.1</ele>
        <time>2025-03-30T08:39:54Z</time>
      </trkpt>
      <trkpt lat="43.96892" lon="0.08235">
        <ele>142.1</ele>
        <time>2025-03-30T08:39:55Z</time>
      </trkpt>
      <trkpt lat="43.96892" lon="0.08236">
        <ele>142.1</ele>
        <time>2025-03-30T08:39:56Z</time>
      </trkpt>
      <trkpt lat="43.96892" lon="0.08237">
        <ele>142.1</ele>
        <time>2025-03-30T08:39:57Z</time>
      </trkpt>
      <trkpt lat="43.96892" lon="0.08239">
        <ele>142.1</ele>
        <time>2025-03-30T08:39:58Z</time>
      </trkpt>
      <trkpt lat="43.96892" lon="0.0824">
        <ele>142.1</ele>
        <time>2025-03-30T08:39:59Z</time>
      </trkpt>
      <trkpt lat="43.96892" lon="0.08242">
        <ele>142.1</ele>
        <time>2025-03-30T08:40:00Z</time>
      </trkpt>
      <trkpt lat="43.96892" lon="0.08244">
        <ele>142.2</ele>
        <time>2025-03-30T08:40:01Z</time>
      </trkpt>
      <trkpt lat="43.96892" lon="0.08246">
        <ele>142.2</ele>
        <time>2025-03-30T08:40:02Z</time>
      </trkpt>
      <trkpt lat="43.96892" lon="0.08249">
        <ele>142.2</ele>
        <time>2025-03-30T08:40:03Z</time>
      </trkpt>
      <trkpt lat="43.96892" lon="0.0825">
        <ele>142.2</ele>
        <time>2025-03-30T08:40:04Z</time>
      </trkpt>
      <trkpt lat="43.96891" lon="0.08253">
        <ele>142.2</ele>
        <time>2025-03-30T08:40:05Z</time>
      </trkpt>
      <trkpt lat="43.96891" lon="0.08255">
        <ele>142.3</ele>
        <time>2025-03-30T08:40:06Z</time>
      </trkpt>
      <trkpt lat="43.96891" lon="0.08257">
        <ele>142.3</ele>
        <time>2025-03-30T08:40:07Z</time>
      </trkpt>
      <trkpt lat="43.96891" lon="0.0826">
        <ele>142.3</ele>
        <time>2025-03-30T08:40:08Z</time>
      </trkpt>
      <trkpt lat="43.9689" lon="0.08262">
        <ele>142.3</ele>
        <time>2025-03-30T08:40:09Z</time>
      </trkpt>
      <trkpt lat="43.9689" lon="0.08264">
        <ele>142.3</ele>
        <time>2025-03-30T08:40:10Z</time>
      </trkpt>
      <trkpt lat="43.9689" lon="0.08266">
        <ele>142.3</ele>
        <time>2025-03-30T08:40:11Z</time>
      </trkpt>
      <trkpt lat="43.9689" lon="0.08268">
        <ele>142.3</ele>
        <time>2025-03-30T08:40:12Z</time>
      </trkpt>
      <trkpt lat="43.9689" lon="0.0827">
        <ele>142.3</ele>
        <time>2025-03-30T08:40:13Z</time>
      </trkpt>
      <trkpt lat="43.9689" lon="0.08272">
        <ele>142.3</ele>
        <time>2025-03-30T08:40:14Z</time>
      </trkpt>
      <trkpt lat="43.9689" lon="0.08273">
        <ele>142.3</ele>
        <time>2025-03-30T08:40:15Z</time>
      </trkpt>
      <trkpt lat="43.96891" lon="0.08274">
        <ele>142.2</ele>
        <time>2025-03-30T08:40:16Z</time>
      </trkpt>
      <trkpt lat="43.96891" lon="0.08277">
        <ele>142.2</ele>
        <time>2025-03-30T08:40:17Z</time>
      </trkpt>
      <trkpt lat="43.96891" lon="0.08279">
        <ele>142.2</ele>
        <time>2025-03-30T08:40:18Z</time>
      </trkpt>
      <trkpt lat="43.96891" lon="0.0828">
        <ele>142.2</ele>
        <time>2025-03-30T08:40:19Z</time>
      </trkpt>
      <trkpt lat="43.96891" lon="0.08282">
        <ele>142.2</ele>
        <time>2025-03-30T08:40:20Z</time>
      </trkpt>
      <trkpt lat="43.96891" lon="0.08284">
        <ele>142.2</ele>
        <time>2025-03-30T08:40:21Z</time>
      </trkpt>
      <trkpt lat="43.96891" lon="0.08287">
        <ele>142.2</ele>
        <time>2025-03-30T08:40:22Z</time>
      </trkpt>
      <trkpt lat="43.9689" lon="0.08288">
        <ele>142.2</ele>
        <time>2025-03-30T08:40:23Z</time>
      </trkpt>
      <trkpt lat="43.9689" lon="0.08289">
        <ele>142.2</ele>
        <time>2025-03-30T08:40:24Z</time>
      </trkpt>
      <trkpt lat="43.9689" lon="0.08293">
        <ele>142.2</ele>
        <time>2025-03-30T08:40:26Z</time>
      </trkpt>
      <trkpt lat="43.96891" lon="0.08294">
        <ele>142.2</ele>
        <time>2025-03-30T08:40:27Z</time>
      </trkpt>
      <trkpt lat="43.96891" lon="0.08298">
        <ele>142.2</ele>
        <time>2025-03-30T08:40:29Z</time>
      </trkpt>
      <trkpt lat="43.96891" lon="0.083">
        <ele>142.2</ele>
        <time>2025-03-30T08:40:30Z</time>
      </trkpt>
      <trkpt lat="43.9689" lon="0.08303">
        <ele>142.2</ele>
        <time>2025-03-30T08:40:31Z</time>
      </trkpt>
      <trkpt lat="43.9689" lon="0.08304">
        <ele>142.2</ele>
        <time>2025-03-30T08:40:32Z</time>
      </trkpt>
      <trkpt lat="43.9689" lon="0.08306">
        <ele>142.2</ele>
        <time>2025-03-30T08:40:33Z</time>
      </trkpt>
      <trkpt lat="43.9689" lon="0.08308">
        <ele>142.2</ele>
        <time>2025-03-30T08:40:34Z</time>
      </trkpt>
      <trkpt lat="43.9689" lon="0.0831">
        <ele>142.2</ele>
        <time>2025-03-30T08:40:35Z</time>
      </trkpt>
      <trkpt lat="43.9689" lon="0.08312">
        <ele>142.2</ele>
        <time>2025-03-30T08:40:36Z</time>
      </trkpt>
      <trkpt lat="43.9689" lon="0.08314">
        <ele>142.2</ele>
        <time>2025-03-30T08:40:37Z</time>
      </trkpt>
      <trkpt lat="43.96889" lon="0.08318">
        <ele>142.2</ele>
        <time>2025-03-30T08:40:39Z</time>
      </trkpt>
      <trkpt lat="43.96889" lon="0.0832">
        <ele>142.3</ele>
        <time>2025-03-30T08:40:40Z</time>
      </trkpt>
      <trkpt lat="43.96889" lon="0.08322">
        <ele>142.3</ele>
        <time>2025-03-30T08:40:41Z</time>
      </trkpt>
      <trkpt lat="43.96889" lon="0.08325">
        <ele>142.3</ele>
        <time>2025-03-30T08:40:42Z</time>
      </trkpt>
      <trkpt lat="43.96889" lon="0.08326">
        <ele>142.3</ele>
        <time>2025-03-30T08:40:43Z</time>
      </trkpt>
      <trkpt lat="43.96889" lon="0.08328">
        <ele>142.3</ele>
        <time>2025-03-30T08:40:44Z</time>
      </trkpt>
      <trkpt lat="43.96889" lon="0.08329">
        <ele>142.3</ele>
        <time>2025-03-30T08:40:45Z</time>
      </trkpt>
      <trkpt lat="43.9689" lon="0.08333">
        <ele>142.3</ele>
        <time>2025-03-30T08:40:47Z</time>
      </trkpt>
      <trkpt lat="43.9689" lon="0.08335">
        <ele>142.3</ele>
        <time>2025-03-30T08:40:48Z</time>
      </trkpt>
      <trkpt lat="43.9689" lon="0.08337">
        <ele>142.3</ele>
        <time>2025-03-30T08:40:49Z</time>
      </trkpt>
      <trkpt lat="43.96891" lon="0.08338">
        <ele>142.3</ele>
        <time>2025-03-30T08:40:50Z</time>
      </trkpt>
      <trkpt lat="43.96891" lon="0.08339">
        <ele>142.4</ele>
        <time>2025-03-30T08:40:51Z</time>
      </trkpt>
      <trkpt lat="43.96891" lon="0.08343">
        <ele>142.4</ele>
        <time>2025-03-30T08:40:53Z</time>
      </trkpt>
      <trkpt lat="43.96891" lon="0.08345">
        <ele>142.4</ele>
        <time>2025-03-30T08:40:54Z</time>
      </trkpt>
      <trkpt lat="43.96891" lon="0.08347">
        <ele>142.4</ele>
        <time>2025-03-30T08:40:55Z</time>
      </trkpt>
      <trkpt lat="43.96891" lon="0.08351">
        <ele>142.5</ele>
        <time>2025-03-30T08:40:57Z</time>
      </trkpt>
      <trkpt lat="43.9689" lon="0.08353">
        <ele>142.5</ele>
        <time>2025-03-30T08:40:58Z</time>
      </trkpt>
      <trkpt lat="43.9689" lon="0.08355">
        <ele>142.5</ele>
        <time>2025-03-30T08:40:59Z</time>
      </trkpt>
      <trkpt lat="43.96889" lon="0.08357">
        <ele>142.6</ele>
        <time>2025-03-30T08:41:00Z</time>
      </trkpt>
      <trkpt lat="43.96889" lon="0.08359">
        <ele>142.6</ele>
        <time>2025-03-30T08:41:01Z</time>
      </trkpt>
      <trkpt lat="43.96889" lon="0.08361">
        <ele>142.6</ele>
        <time>2025-03-30T08:41:02Z</time>
      </trkpt>
      <trkpt lat="43.96889" lon="0.08363">
        <ele>142.7</ele>
        <time>2025-03-30T08:41:03Z</time>
      </trkpt>
      <trkpt lat="43.96889" lon="0.08367">
        <ele>142.7</ele>
        <time>2025-03-30T08:41:05Z</time>
      </trkpt>
      <trkpt lat="43.9689" lon="0.08369">
        <ele>142.7</ele>
        <time>2025-03-30T08:41:06Z</time>
      </trkpt>
      <trkpt lat="43.9689" lon="0.08371">
        <ele>142.8</ele>
        <time>2025-03-30T08:41:07Z</time>
      </trkpt>
      <trkpt lat="43.9689" lon="0.08373">
        <ele>142.8</ele>
        <time>2025-03-30T08:41:08Z</time>
      </trkpt>
      <trkpt lat="43.9689" lon="0.08377">
        <ele>142.8</ele>
        <time>2025-03-30T08:41:10Z</time>
      </trkpt>
      <trkpt lat="43.96889" lon="0.08379">
        <ele>142.9</ele>
        <time>2025-03-30T08:41:11Z</time>
      </trkpt>
      <trkpt lat="43.96889" lon="0.08381">
        <ele>142.9</ele>
        <time>2025-03-30T08:41:12Z</time>
      </trkpt>
      <trkpt lat="43.96889" lon="0.08384">
        <ele>143</ele>
        <time>2025-03-30T08:41:13Z</time>
      </trkpt>
      <trkpt lat="43.96889" lon="0.08385">
        <ele>143</ele>
        <time>2025-03-30T08:41:14Z</time>
      </trkpt>
      <trkpt lat="43.96889" lon="0.08386">
        <ele>143</ele>
        <time>2025-03-30T08:41:15Z</time>
      </trkpt>
      <trkpt lat="43.96889" lon="0.08388">
        <ele>143</ele>
        <time>2025-03-30T08:41:16Z</time>
      </trkpt>
      <trkpt lat="43.96889" lon="0.0839">
        <ele>143.1</ele>
        <time>2025-03-30T08:41:17Z</time>
      </trkpt>
      <trkpt lat="43.96889" lon="0.08392">
        <ele>143.1</ele>
        <time>2025-03-30T08:41:18Z</time>
      </trkpt>
      <trkpt lat="43.96889" lon="0.08394">
        <ele>143.1</ele>
        <time>2025-03-30T08:41:19Z</time>
      </trkpt>
      <trkpt lat="43.96889" lon="0.08397">
        <ele>143.2</ele>
        <time>2025-03-30T08:41:20Z</time>
      </trkpt>
      <trkpt lat="43.9689" lon="0.08398">
        <ele>143.2</ele>
        <time>2025-03-30T08:41:21Z</time>
      </trkpt>
      <trkpt lat="43.9689" lon="0.08399">
        <ele>143.2</ele>
        <time>2025-03-30T08:41:22Z</time>
      </trkpt>
      <trkpt lat="43.9689" lon="0.08404">
        <ele>143.3</ele>
        <time>2025-03-30T08:41:24Z</time>
      </trkpt>
      <trkpt lat="43.9689" lon="0.08405">
        <ele>143.3</ele>
        <time>2025-03-30T08:41:25Z</time>
      </trkpt>
      <trkpt lat="43.9689" lon="0.08409">
        <ele>143.4</ele>
        <time>2025-03-30T08:41:27Z</time>
      </trkpt>
      <trkpt lat="43.9689" lon="0.0841">
        <ele>143.4</ele>
        <time>2025-03-30T08:41:28Z</time>
      </trkpt>
      <trkpt lat="43.9689" lon="0.08412">
        <ele>143.5</ele>
        <time>2025-03-30T08:41:29Z</time>
      </trkpt>
      <trkpt lat="43.96889" lon="0.08414">
        <ele>143.5</ele>
        <time>2025-03-30T08:41:30Z</time>
      </trkpt>
      <trkpt lat="43.96889" lon="0.08416">
        <ele>143.5</ele>
        <time>2025-03-30T08:41:31Z</time>
      </trkpt>
      <trkpt lat="43.96889" lon="0.08418">
        <ele>143.6</ele>
        <time>2025-03-30T08:41:32Z</time>
      </trkpt>
      <trkpt lat="43.96889" lon="0.0842">
        <ele>143.6</ele>
        <time>2025-03-30T08:41:33Z</time>
      </trkpt>
      <trkpt lat="43.96889" lon="0.08422">
        <ele>143.6</ele>
        <time>2025-03-30T08:41:34Z</time>
      </trkpt>
      <trkpt lat="43.96889" lon="0.08424">
        <ele>143.7</ele>
        <time>2025-03-30T08:41:35Z</time>
      </trkpt>
      <trkpt lat="43.96889" lon="0.08426">
        <ele>143.7</ele>
        <time>2025-03-30T08:41:36Z</time>
      </trkpt>
      <trkpt lat="43.96889" lon="0.08428">
        <ele>143.7</ele>
        <time>2025-03-30T08:41:37Z</time>
      </trkpt>
      <trkpt lat="43.96889" lon="0.0843">
        <ele>143.8</ele>
        <time>2025-03-30T08:41:38Z</time>
      </trkpt>
      <trkpt lat="43.96888" lon="0.08433">
        <ele>143.8</ele>
        <time>2025-03-30T08:41:39Z</time>
      </trkpt>
      <trkpt lat="43.96888" lon="0.08434">
        <ele>143.8</ele>
        <time>2025-03-30T08:41:40Z</time>
      </trkpt>
      <trkpt lat="43.96888" lon="0.08435">
        <ele>143.9</ele>
        <time>2025-03-30T08:41:41Z</time>
      </trkpt>
      <trkpt lat="43.96888" lon="0.08437">
        <ele>143.9</ele>
        <time>2025-03-30T08:41:42Z</time>
      </trkpt>
      <trkpt lat="43.96889" lon="0.0844">
        <ele>144</ele>
        <time>2025-03-30T08:41:44Z</time>
      </trkpt>
      <trkpt lat="43.96888" lon="0.08442">
        <ele>144</ele>
        <time>2025-03-30T08:41:45Z</time>
      </trkpt>
      <trkpt lat="43.96889" lon="0.08443">
        <ele>144</ele>
        <time>2025-03-30T08:41:46Z</time>
      </trkpt>
      <trkpt lat="43.96888" lon="0.08446">
        <ele>144</ele>
        <time>2025-03-30T08:41:47Z</time>
      </trkpt>
      <trkpt lat="43.96888" lon="0.08447">
        <ele>144.1</ele>
        <time>2025-03-30T08:41:48Z</time>
      </trkpt>
      <trkpt lat="43.96887" lon="0.08449">
        <ele>144.1</ele>
        <time>2025-03-30T08:41:49Z</time>
      </trkpt>
      <trkpt lat="43.96887" lon="0.08452">
        <ele>144.1</ele>
        <time>2025-03-30T08:41:50Z</time>
      </trkpt>
      <trkpt lat="43.96887" lon="0.08453">
        <ele>144.2</ele>
        <time>2025-03-30T08:41:51Z</time>
      </trkpt>
      <trkpt lat="43.96887" lon="0.08454">
        <ele>144.2</ele>
        <time>2025-03-30T08:41:52Z</time>
      </trkpt>
      <trkpt lat="43.96887" lon="0.08457">
        <ele>144.2</ele>
        <time>2025-03-30T08:41:53Z</time>
      </trkpt>
      <trkpt lat="43.96888" lon="0.08458">
        <ele>144.2</ele>
        <time>2025-03-30T08:41:54Z</time>
      </trkpt>
      <trkpt lat="43.96888" lon="0.08459">
        <ele>144.3</ele>
        <time>2025-03-30T08:41:55Z</time>
      </trkpt>
      <trkpt lat="43.96888" lon="0.08462">
        <ele>144.3</ele>
        <time>2025-03-30T08:41:56Z</time>
      </trkpt>
      <trkpt lat="43.96888" lon="0.08463">
        <ele>144.3</ele>
        <time>2025-03-30T08:41:57Z</time>
      </trkpt>
      <trkpt lat="43.96888" lon="0.08465">
        <ele>144.4</ele>
        <time>2025-03-30T08:41:58Z</time>
      </trkpt>
      <trkpt lat="43.96888" lon="0.08466">
        <ele>144.4</ele>
        <time>2025-03-30T08:41:59Z</time>
      </trkpt>
      <trkpt lat="43.96886" lon="0.0847">
        <ele>144.5</ele>
        <time>2025-03-30T08:42:01Z</time>
      </trkpt>
      <trkpt lat="43.96886" lon="0.08472">
        <ele>144.5</ele>
        <time>2025-03-30T08:42:02Z</time>
      </trkpt>
      <trkpt lat="43.96887" lon="0.08473">
        <ele>144.5</ele>
        <time>2025-03-30T08:42:03Z</time>
      </trkpt>
      <trkpt lat="43.96887" lon="0.08474">
        <ele>144.6</ele>
        <time>2025-03-30T08:42:04Z</time>
      </trkpt>
      <trkpt lat="43.96886" lon="0.08475">
        <ele>144.6</ele>
        <time>2025-03-30T08:42:05Z</time>
      </trkpt>
      <trkpt lat="43.96885" lon="0.08477">
        <ele>144.6</ele>
        <time>2025-03-30T08:42:06Z</time>
      </trkpt>
      <trkpt lat="43.96885" lon="0.08482">
        <ele>144.7</ele>
        <time>2025-03-30T08:42:08Z</time>
      </trkpt>
      <trkpt lat="43.96885" lon="0.08484">
        <ele>144.7</ele>
        <time>2025-03-30T08:42:09Z</time>
      </trkpt>
      <trkpt lat="43.96885" lon="0.08486">
        <ele>144.7</ele>
        <time>2025-03-30T08:42:10Z</time>
      </trkpt>
      <trkpt lat="43.96885" lon="0.08488">
        <ele>144.8</ele>
        <time>2025-03-30T08:42:11Z</time>
      </trkpt>
      <trkpt lat="43.96885" lon="0.0849">
        <ele>144.8</ele>
        <time>2025-03-30T08:42:12Z</time>
      </trkpt>
      <trkpt lat="43.96885" lon="0.08493">
        <ele>144.8</ele>
        <time>2025-03-30T08:42:13Z</time>
      </trkpt>
      <trkpt lat="43.96884" lon="0.08494">
        <ele>144.9</ele>
        <time>2025-03-30T08:42:14Z</time>
      </trkpt>
      <trkpt lat="43.96884" lon="0.08496">
        <ele>144.9</ele>
        <time>2025-03-30T08:42:15Z</time>
      </trkpt>
      <trkpt lat="43.96884" lon="0.08499">
        <ele>144.9</ele>
        <time>2025-03-30T08:42:17Z</time>
      </trkpt>
      <trkpt lat="43.96884" lon="0.08501">
        <ele>144.9</ele>
        <time>2025-03-30T08:42:18Z</time>
      </trkpt>
      <trkpt lat="43.96884" lon="0.08503">
        <ele>145</ele>
        <time>2025-03-30T08:42:19Z</time>
      </trkpt>
      <trkpt lat="43.96885" lon="0.08505">
        <ele>145</ele>
        <time>2025-03-30T08:42:20Z</time>
      </trkpt>
      <trkpt lat="43.96885" lon="0.08507">
        <ele>145</ele>
        <time>2025-03-30T08:42:21Z</time>
      </trkpt>
      <trkpt lat="43.96885" lon="0.08509">
        <ele>145.1</ele>
        <time>2025-03-30T08:42:22Z</time>
      </trkpt>
      <trkpt lat="43.96885" lon="0.0851">
        <ele>145.1</ele>
        <time>2025-03-30T08:42:23Z</time>
      </trkpt>
      <trkpt lat="43.96885" lon="0.08512">
        <ele>145.1</ele>
        <time>2025-03-30T08:42:24Z</time>
      </trkpt>
      <trkpt lat="43.96885" lon="0.08515">
        <ele>145.1</ele>
        <time>2025-03-30T08:42:25Z</time>
      </trkpt>
      <trkpt lat="43.96885" lon="0.08517">
        <ele>145.2</ele>
        <time>2025-03-30T08:42:26Z</time>
      </trkpt>
      <trkpt lat="43.96885" lon="0.08518">
        <ele>145.2</ele>
        <time>2025-03-30T08:42:27Z</time>
      </trkpt>
      <trkpt lat="43.96885" lon="0.0852">
        <ele>145.2</ele>
        <time>2025-03-30T08:42:28Z</time>
      </trkpt>
      <trkpt lat="43.96885" lon="0.08521">
        <ele>145.2</ele>
        <time>2025-03-30T08:42:29Z</time>
      </trkpt>
      <trkpt lat="43.96885" lon="0.08523">
        <ele>145.2</ele>
        <time>2025-03-30T08:42:30Z</time>
      </trkpt>
      <trkpt lat="43.96886" lon="0.08525">
        <ele>145.3</ele>
        <time>2025-03-30T08:42:31Z</time>
      </trkpt>
      <trkpt lat="43.96886" lon="0.08527">
        <ele>145.3</ele>
        <time>2025-03-30T08:42:32Z</time>
      </trkpt>
      <trkpt lat="43.96887" lon="0.08527">
        <ele>145.3</ele>
        <time>2025-03-30T08:42:33Z</time>
      </trkpt>
      <trkpt lat="43.96887" lon="0.08529">
        <ele>145.3</ele>
        <time>2025-03-30T08:42:34Z</time>
      </trkpt>
      <trkpt lat="43.96885" lon="0.08531">
        <ele>145.4</ele>
        <time>2025-03-30T08:42:35Z</time>
      </trkpt>
      <trkpt lat="43.96884" lon="0.08532">
        <ele>145.4</ele>
        <time>2025-03-30T08:42:36Z</time>
      </trkpt>
      <trkpt lat="43.96884" lon="0.08535">
        <ele>145.4</ele>
        <time>2025-03-30T08:42:37Z</time>
      </trkpt>
      <trkpt lat="43.96884" lon="0.08536">
        <ele>145.5</ele>
        <time>2025-03-30T08:42:39Z</time>
      </trkpt>
      <trkpt lat="43.96885" lon="0.08541">
        <ele>145.5</ele>
        <time>2025-03-30T08:42:40Z</time>
      </trkpt>
      <trkpt lat="43.96885" lon="0.08543">
        <ele>145.6</ele>
        <time>2025-03-30T08:42:42Z</time>
      </trkpt>
      <trkpt lat="43.96886" lon="0.08545">
        <ele>145.6</ele>
        <time>2025-03-30T08:42:43Z</time>
      </trkpt>
      <trkpt lat="43.96886" lon="0.08549">
        <ele>145.7</ele>
        <time>2025-03-30T08:42:44Z</time>
      </trkpt>
      <trkpt lat="43.96886" lon="0.0855">
        <ele>145.7</ele>
        <time>2025-03-30T08:42:45Z</time>
      </trkpt>
      <trkpt lat="43.96886" lon="0.08553">
        <ele>145.7</ele>
        <time>2025-03-30T08:42:46Z</time>
      </trkpt>
      <trkpt lat="43.96886" lon="0.08555">
        <ele>145.8</ele>
        <time>2025-03-30T08:42:47Z</time>
      </trkpt>
      <trkpt lat="43.96886" lon="0.08556">
        <ele>145.8</ele>
        <time>2025-03-30T08:42:48Z</time>
      </trkpt>
      <trkpt lat="43.96886" lon="0.08559">
        <ele>145.8</ele>
        <time>2025-03-30T08:42:49Z</time>
      </trkpt>
      <trkpt lat="43.96886" lon="0.0856">
        <ele>145.9</ele>
        <time>2025-03-30T08:42:50Z</time>
      </trkpt>
      <trkpt lat="43.96886" lon="0.08561">
        <ele>145.9</ele>
        <time>2025-03-30T08:42:51Z</time>
      </trkpt>
      <trkpt lat="43.96886" lon="0.08563">
        <ele>145.9</ele>
        <time>2025-03-30T08:42:52Z</time>
      </trkpt>
      <trkpt lat="43.96885" lon="0.08564">
        <ele>145.9</ele>
        <time>2025-03-30T08:42:53Z</time>
      </trkpt>
      <trkpt lat="43.96884" lon="0.08565">
        <ele>145.9</ele>
        <time>2025-03-30T08:42:54Z</time>
      </trkpt>
      <trkpt lat="43.96883" lon="0.08568">
        <ele>146</ele>
        <time>2025-03-30T08:42:55Z</time>
      </trkpt>
      <trkpt lat="43.96884" lon="0.0857">
        <ele>146</ele>
        <time>2025-03-30T08:42:56Z</time>
      </trkpt>
      <trkpt lat="43.96884" lon="0.08571">
        <ele>146</ele>
        <time>2025-03-30T08:42:57Z</time>
      </trkpt>
      <trkpt lat="43.96884" lon="0.08573">
        <ele>146</ele>
        <time>2025-03-30T08:42:58Z</time>
      </trkpt>
      <trkpt lat="43.96884" lon="0.08574">
        <ele>146.1</ele>
        <time>2025-03-30T08:42:59Z</time>
      </trkpt>
      <trkpt lat="43.96884" lon="0.08579">
        <ele>146.1</ele>
        <time>2025-03-30T08:43:00Z</time>
      </trkpt>
      <trkpt lat="43.96884" lon="0.08581">
        <ele>146.1</ele>
        <time>2025-03-30T08:43:02Z</time>
      </trkpt>
      <trkpt lat="43.96884" lon="0.08583">
        <ele>146.1</ele>
        <time>2025-03-30T08:43:04Z</time>
      </trkpt>
      <trkpt lat="43.96884" lon="0.08585">
        <ele>146.1</ele>
        <time>2025-03-30T08:43:05Z</time>
      </trkpt>
      <trkpt lat="43.96884" lon="0.08588">
        <ele>146.2</ele>
        <time>2025-03-30T08:43:06Z</time>
      </trkpt>
      <trkpt lat="43.96884" lon="0.08591">
        <ele>146.2</ele>
        <time>2025-03-30T08:43:07Z</time>
      </trkpt>
      <trkpt lat="43.96884" lon="0.08592">
        <ele>146.2</ele>
        <time>2025-03-30T08:43:08Z</time>
      </trkpt>
      <trkpt lat="43.96884" lon="0.08593">
        <ele>146.2</ele>
        <time>2025-03-30T08:43:09Z</time>
      </trkpt>
      <trkpt lat="43.96884" lon="0.08597">
        <ele>146.2</ele>
        <time>2025-03-30T08:43:11Z</time>
      </trkpt>
      <trkpt lat="43.96884" lon="0.08599">
        <ele>146.2</ele>
        <time>2025-03-30T08:43:12Z</time>
      </trkpt>
      <trkpt lat="43.96884" lon="0.08603">
        <ele>146.3</ele>
        <time>2025-03-30T08:43:14Z</time>
      </trkpt>
      <trkpt lat="43.96884" lon="0.08605">
        <ele>146.3</ele>
        <time>2025-03-30T08:43:15Z</time>
      </trkpt>
      <trkpt lat="43.96883" lon="0.0861">
        <ele>146.4</ele>
        <time>2025-03-30T08:43:17Z</time>
      </trkpt>
      <trkpt lat="43.96883" lon="0.08611">
        <ele>146.4</ele>
        <time>2025-03-30T08:43:18Z</time>
      </trkpt>
      <trkpt lat="43.96883" lon="0.08613">
        <ele>146.4</ele>
        <time>2025-03-30T08:43:19Z</time>
      </trkpt>
      <trkpt lat="43.96883" lon="0.08614">
        <ele>146.4</ele>
        <time>2025-03-30T08:43:20Z</time>
      </trkpt>
      <trkpt lat="43.96883" lon="0.08616">
        <ele>146.4</ele>
        <time>2025-03-30T08:43:21Z</time>
      </trkpt>
      <trkpt lat="43.96883" lon="0.08618">
        <ele>146.4</ele>
        <time>2025-03-30T08:43:22Z</time>
      </trkpt>
      <trkpt lat="43.96883" lon="0.08621">
        <ele>146.5</ele>
        <time>2025-03-30T08:43:23Z</time>
      </trkpt>
      <trkpt lat="43.96883" lon="0.08622">
        <ele>146.5</ele>
        <time>2025-03-30T08:43:24Z</time>
      </trkpt>
      <trkpt lat="43.96883" lon="0.08624">
        <ele>146.5</ele>
        <time>2025-03-30T08:43:25Z</time>
      </trkpt>
      <trkpt lat="43.96883" lon="0.08625">
        <ele>146.5</ele>
        <time>2025-03-30T08:43:26Z</time>
      </trkpt>
      <trkpt lat="43.96883" lon="0.08629">
        <ele>146.5</ele>
        <time>2025-03-30T08:43:28Z</time>
      </trkpt>
      <trkpt lat="43.96883" lon="0.08631">
        <ele>146.5</ele>
        <time>2025-03-30T08:43:29Z</time>
      </trkpt>
      <trkpt lat="43.96883" lon="0.08633">
        <ele>146.5</ele>
        <time>2025-03-30T08:43:30Z</time>
      </trkpt>
      <trkpt lat="43.96883" lon="0.08635">
        <ele>146.5</ele>
        <time>2025-03-30T08:43:31Z</time>
      </trkpt>
      <trkpt lat="43.96883" lon="0.08636">
        <ele>146.5</ele>
        <time>2025-03-30T08:43:32Z</time>
      </trkpt>
      <trkpt lat="43.96883" lon="0.0864">
        <ele>146.6</ele>
        <time>2025-03-30T08:43:34Z</time>
      </trkpt>
      <trkpt lat="43.96883" lon="0.08643">
        <ele>146.6</ele>
        <time>2025-03-30T08:43:35Z</time>
      </trkpt>
      <trkpt lat="43.96883" lon="0.08646">
        <ele>146.6</ele>
        <time>2025-03-30T08:43:37Z</time>
      </trkpt>
      <trkpt lat="43.96883" lon="0.0865">
        <ele>146.6</ele>
        <time>2025-03-30T08:43:39Z</time>
      </trkpt>
      <trkpt lat="43.96883" lon="0.08653">
        <ele>146.6</ele>
        <time>2025-03-30T08:43:40Z</time>
      </trkpt>
      <trkpt lat="43.96883" lon="0.08653">
        <ele>146.6</ele>
        <time>2025-03-30T08:43:41Z</time>
      </trkpt>
      <trkpt lat="43.96883" lon="0.08655">
        <ele>146.6</ele>
        <time>2025-03-30T08:43:42Z</time>
      </trkpt>
      <trkpt lat="43.96882" lon="0.08657">
        <ele>146.6</ele>
        <time>2025-03-30T08:43:43Z</time>
      </trkpt>
      <trkpt lat="43.96882" lon="0.08661">
        <ele>146.6</ele>
        <time>2025-03-30T08:43:45Z</time>
      </trkpt>
      <trkpt lat="43.96882" lon="0.08662">
        <ele>146.6</ele>
        <time>2025-03-30T08:43:46Z</time>
      </trkpt>
      <trkpt lat="43.96881" lon="0.08664">
        <ele>146.6</ele>
        <time>2025-03-30T08:43:47Z</time>
      </trkpt>
      <trkpt lat="43.96882" lon="0.08665">
        <ele>146.7</ele>
        <time>2025-03-30T08:43:48Z</time>
      </trkpt>
      <trkpt lat="43.96881" lon="0.08664">
        <ele>146.6</ele>
        <time>2025-03-30T08:43:49Z</time>
      </trkpt>
      <trkpt lat="43.96881" lon="0.08663">
        <ele>146.6</ele>
        <time>2025-03-30T08:43:50Z</time>
      </trkpt>
      <trkpt lat="43.96881" lon="0.08662">
        <ele>146.6</ele>
        <time>2025-03-30T08:43:51Z</time>
      </trkpt>
      <trkpt lat="43.96881" lon="0.08661">
        <ele>146.6</ele>
        <time>2025-03-30T08:43:52Z</time>
      </trkpt>
      <trkpt lat="43.9688" lon="0.0866">
        <ele>146.6</ele>
        <time>2025-03-30T08:43:53Z</time>
      </trkpt>
      <trkpt lat="43.9688" lon="0.08659">
        <ele>146.6</ele>
        <time>2025-03-30T08:43:54Z</time>
      </trkpt>
      <trkpt lat="43.9688" lon="0.08659">
        <ele>146.6</ele>
        <time>2025-03-30T08:43:55Z</time>
      </trkpt>
      <trkpt lat="43.96879" lon="0.08657">
        <ele>146.6</ele>
        <time>2025-03-30T08:43:56Z</time>
      </trkpt>
      <trkpt lat="43.96878" lon="0.08656">
        <ele>146.6</ele>
        <time>2025-03-30T08:43:57Z</time>
      </trkpt>
      <trkpt lat="43.96877" lon="0.08655">
        <ele>146.6</ele>
        <time>2025-03-30T08:43:58Z</time>
      </trkpt>
      <trkpt lat="43.96876" lon="0.08654">
        <ele>146.5</ele>
        <time>2025-03-30T08:43:59Z</time>
      </trkpt>
      <trkpt lat="43.96875" lon="0.08654">
        <ele>146.5</ele>
        <time>2025-03-30T08:44:00Z</time>
      </trkpt>
      <trkpt lat="43.96872" lon="0.08653">
        <ele>146.5</ele>
        <time>2025-03-30T08:44:02Z</time>
      </trkpt>
      <trkpt lat="43.96871" lon="0.08654">
        <ele>146.5</ele>
        <time>2025-03-30T08:44:03Z</time>
      </trkpt>
      <trkpt lat="43.96871" lon="0.08654">
        <ele>146.5</ele>
        <time>2025-03-30T08:44:04Z</time>
      </trkpt>
      <trkpt lat="43.96871" lon="0.08654">
        <ele>146.5</ele>
        <time>2025-03-30T08:44:05Z</time>
      </trkpt>
      <trkpt lat="43.96871" lon="0.08654">
        <ele>146.5</ele>
        <time>2025-03-30T08:44:06Z</time>
      </trkpt>
      <trkpt lat="43.96871" lon="0.08655">
        <ele>146.5</ele>
        <time>2025-03-30T08:44:07Z</time>
      </trkpt>
      <trkpt lat="43.96871" lon="0.08655">
        <ele>146.5</ele>
        <time>2025-03-30T08:44:08Z</time>
      </trkpt>
      <trkpt lat="43.96871" lon="0.08656">
        <ele>146.5</ele>
        <time>2025-03-30T08:44:09Z</time>
      </trkpt>
      <trkpt lat="43.96871" lon="0.08656">
        <ele>146.5</ele>
        <time>2025-03-30T08:44:10Z</time>
      </trkpt>
      <trkpt lat="43.96871" lon="0.08656">
        <ele>146.5</ele>
        <time>2025-03-30T08:44:11Z</time>
      </trkpt>
      <trkpt lat="43.96871" lon="0.08656">
        <ele>146.5</ele>
        <time>2025-03-30T08:44:12Z</time>
      </trkpt>
      <trkpt lat="43.96871" lon="0.08656">
        <ele>146.5</ele>
        <time>2025-03-30T08:44:13Z</time>
      </trkpt>
      <trkpt lat="43.96871" lon="0.08656">
        <ele>146.5</ele>
        <time>2025-03-30T08:44:14Z</time>
      </trkpt>
      <trkpt lat="43.96871" lon="0.08656">
        <ele>146.5</ele>
        <time>2025-03-30T08:44:15Z</time>
      </trkpt>
      <trkpt lat="43.9687" lon="0.08656">
        <ele>146.5</ele>
        <time>2025-03-30T08:44:16Z</time>
      </trkpt>
      <trkpt lat="43.96869" lon="0.08656">
        <ele>146.4</ele>
        <time>2025-03-30T08:44:17Z</time>
      </trkpt>
      <trkpt lat="43.9687" lon="0.08655">
        <ele>146.4</ele>
        <time>2025-03-30T08:44:18Z</time>
      </trkpt>
      <trkpt lat="43.96869" lon="0.08654">
        <ele>146.4</ele>
        <time>2025-03-30T08:44:19Z</time>
      </trkpt>
      <trkpt lat="43.96868" lon="0.08654">
        <ele>146.4</ele>
        <time>2025-03-30T08:44:20Z</time>
      </trkpt>
      <trkpt lat="43.96866" lon="0.08653">
        <ele>146.4</ele>
        <time>2025-03-30T08:44:21Z</time>
      </trkpt>
      <trkpt lat="43.96865" lon="0.08653">
        <ele>146.4</ele>
        <time>2025-03-30T08:44:22Z</time>
      </trkpt>
      <trkpt lat="43.96862" lon="0.08653">
        <ele>146.4</ele>
        <time>2025-03-30T08:44:24Z</time>
      </trkpt>
      <trkpt lat="43.9686" lon="0.08653">
        <ele>146.4</ele>
        <time>2025-03-30T08:44:25Z</time>
      </trkpt>
      <trkpt lat="43.96859" lon="0.08653">
        <ele>146.4</ele>
        <time>2025-03-30T08:44:26Z</time>
      </trkpt>
      <trkpt lat="43.96857" lon="0.08653">
        <ele>146.4</ele>
        <time>2025-03-30T08:44:27Z</time>
      </trkpt>
      <trkpt lat="43.96855" lon="0.08652">
        <ele>146.4</ele>
        <time>2025-03-30T08:44:28Z</time>
      </trkpt>
      <trkpt lat="43.96854" lon="0.08652">
        <ele>146.4</ele>
        <time>2025-03-30T08:44:29Z</time>
      </trkpt>
      <trkpt lat="43.96853" lon="0.08651">
        <ele>146.4</ele>
        <time>2025-03-30T08:44:30Z</time>
      </trkpt>
      <trkpt lat="43.96851" lon="0.08651">
        <ele>146.4</ele>
        <time>2025-03-30T08:44:31Z</time>
      </trkpt>
      <trkpt lat="43.9685" lon="0.0865">
        <ele>146.4</ele>
        <time>2025-03-30T08:44:32Z</time>
      </trkpt>
      <trkpt lat="43.96849" lon="0.0865">
        <ele>146.4</ele>
        <time>2025-03-30T08:44:33Z</time>
      </trkpt>
      <trkpt lat="43.96847" lon="0.08649">
        <ele>146.4</ele>
        <time>2025-03-30T08:44:34Z</time>
      </trkpt>
      <trkpt lat="43.96846" lon="0.08649">
        <ele>146.4</ele>
        <time>2025-03-30T08:44:35Z</time>
      </trkpt>
      <trkpt lat="43.96845" lon="0.08649">
        <ele>146.4</ele>
        <time>2025-03-30T08:44:36Z</time>
      </trkpt>
      <trkpt lat="43.96843" lon="0.08649">
        <ele>146.4</ele>
        <time>2025-03-30T08:44:37Z</time>
      </trkpt>
      <trkpt lat="43.96842" lon="0.08649">
        <ele>146.4</ele>
        <time>2025-03-30T08:44:38Z</time>
      </trkpt>
      <trkpt lat="43.9684" lon="0.08648">
        <ele>146.4</ele>
        <time>2025-03-30T08:44:40Z</time>
      </trkpt>
      <trkpt lat="43.96839" lon="0.08648">
        <ele>146.4</ele>
        <time>2025-03-30T08:44:41Z</time>
      </trkpt>
      <trkpt lat="43.96839" lon="0.08648">
        <ele>146.4</ele>
        <time>2025-03-30T08:44:42Z</time>
      </trkpt>
      <trkpt lat="43.96839" lon="0.08648">
        <ele>146.4</ele>
        <time>2025-03-30T08:44:43Z</time>
      </trkpt>
      <trkpt lat="43.9684" lon="0.08649">
        <ele>146.4</ele>
        <time>2025-03-30T08:44:44Z</time>
      </trkpt>
      <trkpt lat="43.9684" lon="0.08649">
        <ele>146.4</ele>
        <time>2025-03-30T08:44:45Z</time>
      </trkpt>
      <trkpt lat="43.9684" lon="0.08649">
        <ele>146.4</ele>
        <time>2025-03-30T08:44:46Z</time>
      </trkpt>
      <trkpt lat="43.9684" lon="0.08649">
        <ele>146.4</ele>
        <time>2025-03-30T08:44:47Z</time>
      </trkpt>
      <trkpt lat="43.9684" lon="0.08649">
        <ele>146.4</ele>
        <time>2025-03-30T08:44:48Z</time>
      </trkpt>
      <trkpt lat="43.9684" lon="0.08649">
        <ele>146.4</ele>
        <time>2025-03-30T08:44:49Z</time>
      </trkpt>
      <trkpt lat="43.9684" lon="0.08649">
        <ele>146.4</ele>
        <time>2025-03-30T08:44:51Z</time>
      </trkpt>
      <trkpt lat="43.9684" lon="0.08649">
        <ele>146.4</ele>
        <time>2025-03-30T08:44:52Z</time>
      </trkpt>
      <trkpt lat="43.9684" lon="0.08649">
        <ele>146.4</ele>
        <time>2025-03-30T08:44:53Z</time>
      </trkpt>
      <trkpt lat="43.96838" lon="0.08648">
        <ele>146.4</ele>
        <time>2025-03-30T08:44:54Z</time>
      </trkpt>
      <trkpt lat="43.96837" lon="0.08648">
        <ele>146.4</ele>
        <time>2025-03-30T08:44:55Z</time>
      </trkpt>
      <trkpt lat="43.96834" lon="0.08648">
        <ele>146.4</ele>
        <time>2025-03-30T08:44:57Z</time>
      </trkpt>
      <trkpt lat="43.96834" lon="0.08648">
        <ele>146.4</ele>
        <time>2025-03-30T08:44:58Z</time>
      </trkpt>
      <trkpt lat="43.96834" lon="0.08647">
        <ele>146.4</ele>
        <time>2025-03-30T08:44:59Z</time>
      </trkpt>
      <trkpt lat="43.96834" lon="0.08647">
        <ele>146.4</ele>
        <time>2025-03-30T08:45:00Z</time>
      </trkpt>
      <trkpt lat="43.96834" lon="0.08648">
        <ele>146.4</ele>
        <time>2025-03-30T08:45:01Z</time>
      </trkpt>
      <trkpt lat="43.96834" lon="0.08647">
        <ele>146.4</ele>
        <time>2025-03-30T08:45:02Z</time>
      </trkpt>
      <trkpt lat="43.96834" lon="0.08647">
        <ele>146.4</ele>
        <time>2025-03-30T08:45:03Z</time>
      </trkpt>
      <trkpt lat="43.96834" lon="0.08647">
        <ele>146.4</ele>
        <time>2025-03-30T08:45:04Z</time>
      </trkpt>
      <trkpt lat="43.96834" lon="0.08647">
        <ele>146.4</ele>
        <time>2025-03-30T08:45:05Z</time>
      </trkpt>
      <trkpt lat="43.96834" lon="0.08647">
        <ele>146.4</ele>
        <time>2025-03-30T08:45:06Z</time>
      </trkpt>
      <trkpt lat="43.96834" lon="0.08647">
        <ele>146.4</ele>
        <time>2025-03-30T08:45:08Z</time>
      </trkpt>
      <trkpt lat="43.96833" lon="0.08647">
        <ele>146.4</ele>
        <time>2025-03-30T08:45:09Z</time>
      </trkpt>
      <trkpt lat="43.96832" lon="0.08646">
        <ele>146.4</ele>
        <time>2025-03-30T08:45:10Z</time>
      </trkpt>
      <trkpt lat="43.9683" lon="0.08646">
        <ele>146.4</ele>
        <time>2025-03-30T08:45:11Z</time>
      </trkpt>
      <trkpt lat="43.96831" lon="0.08646">
        <ele>146.4</ele>
        <time>2025-03-30T08:45:12Z</time>
      </trkpt>
      <trkpt lat="43.96829" lon="0.08646">
        <ele>146.5</ele>
        <time>2025-03-30T08:45:13Z</time>
      </trkpt>
      <trkpt lat="43.96828" lon="0.08645">
        <ele>146.5</ele>
        <time>2025-03-30T08:45:14Z</time>
      </trkpt>
      <trkpt lat="43.96827" lon="0.08644">
        <ele>146.5</ele>
        <time>2025-03-30T08:45:15Z</time>
      </trkpt>
      <trkpt lat="43.96827" lon="0.08644">
        <ele>146.5</ele>
        <time>2025-03-30T08:45:17Z</time>
      </trkpt>
      <trkpt lat="43.96827" lon="0.08645">
        <ele>146.5</ele>
        <time>2025-03-30T08:45:18Z</time>
      </trkpt>
      <trkpt lat="43.96827" lon="0.08645">
        <ele>146.5</ele>
        <time>2025-03-30T08:45:19Z</time>
      </trkpt>
      <trkpt lat="43.96827" lon="0.08645">
        <ele>146.5</ele>
        <time>2025-03-30T08:45:20Z</time>
      </trkpt>
      <trkpt lat="43.96827" lon="0.08645">
        <ele>146.5</ele>
        <time>2025-03-30T08:45:21Z</time>
      </trkpt>
      <trkpt lat="43.96827" lon="0.08645">
        <ele>146.5</ele>
        <time>2025-03-30T08:45:22Z</time>
      </trkpt>
      <trkpt lat="43.96827" lon="0.08645">
        <ele>146.5</ele>
        <time>2025-03-30T08:45:23Z</time>
      </trkpt>
      <trkpt lat="43.96826" lon="0.08644">
        <ele>146.5</ele>
        <time>2025-03-30T08:45:24Z</time>
      </trkpt>
      <trkpt lat="43.96827" lon="0.08644">
        <ele>146.4</ele>
        <time>2025-03-30T08:45:25Z</time>
      </trkpt>
      <trkpt lat="43.96824" lon="0.08645">
        <ele>146.4</ele>
        <time>2025-03-30T08:45:26Z</time>
      </trkpt>
      <trkpt lat="43.96823" lon="0.08644">
        <ele>146.4</ele>
        <time>2025-03-30T08:45:27Z</time>
      </trkpt>
      <trkpt lat="43.96822" lon="0.08645">
        <ele>146.4</ele>
        <time>2025-03-30T08:45:28Z</time>
      </trkpt>
      <trkpt lat="43.96819" lon="0.08644">
        <ele>146.4</ele>
        <time>2025-03-30T08:45:30Z</time>
      </trkpt>
      <trkpt lat="43.96817" lon="0.08644">
        <ele>146.3</ele>
        <time>2025-03-30T08:45:31Z</time>
      </trkpt>
      <trkpt lat="43.96816" lon="0.08643">
        <ele>146.3</ele>
        <time>2025-03-30T08:45:32Z</time>
      </trkpt>
      <trkpt lat="43.96813" lon="0.08643">
        <ele>146.3</ele>
        <time>2025-03-30T08:45:34Z</time>
      </trkpt>
      <trkpt lat="43.96813" lon="0.08643">
        <ele>146.3</ele>
        <time>2025-03-30T08:45:35Z</time>
      </trkpt>
      <trkpt lat="43.9681" lon="0.08642">
        <ele>146.2</ele>
        <time>2025-03-30T08:45:37Z</time>
      </trkpt>
      <trkpt lat="43.96809" lon="0.08641">
        <ele>146.2</ele>
        <time>2025-03-30T08:45:38Z</time>
      </trkpt>
      <trkpt lat="43.96805" lon="0.0864">
        <ele>146.2</ele>
        <time>2025-03-30T08:45:40Z</time>
      </trkpt>
      <trkpt lat="43.96804" lon="0.08639">
        <ele>146.2</ele>
        <time>2025-03-30T08:45:41Z</time>
      </trkpt>
      <trkpt lat="43.96801" lon="0.08638">
        <ele>146.2</ele>
        <time>2025-03-30T08:45:43Z</time>
      </trkpt>
      <trkpt lat="43.968" lon="0.08638">
        <ele>146.2</ele>
        <time>2025-03-30T08:45:44Z</time>
      </trkpt>
      <trkpt lat="43.96799" lon="0.08638">
        <ele>146.2</ele>
        <time>2025-03-30T08:45:45Z</time>
      </trkpt>
      <trkpt lat="43.96797" lon="0.08637">
        <ele>146.2</ele>
        <time>2025-03-30T08:45:46Z</time>
      </trkpt>
      <trkpt lat="43.96796" lon="0.08637">
        <ele>146.2</ele>
        <time>2025-03-30T08:45:47Z</time>
      </trkpt>
      <trkpt lat="43.96794" lon="0.08637">
        <ele>146.2</ele>
        <time>2025-03-30T08:45:48Z</time>
      </trkpt>
      <trkpt lat="43.96793" lon="0.08637">
        <ele>146.2</ele>
        <time>2025-03-30T08:45:50Z</time>
      </trkpt>
      <trkpt lat="43.9679" lon="0.08637">
        <ele>146.2</ele>
        <time>2025-03-30T08:45:51Z</time>
      </trkpt>
      <trkpt lat="43.96789" lon="0.08637">
        <ele>146.2</ele>
        <time>2025-03-30T08:45:52Z</time>
      </trkpt>
      <trkpt lat="43.96785" lon="0.08636">
        <ele>146.2</ele>
        <time>2025-03-30T08:45:54Z</time>
      </trkpt>
      <trkpt lat="43.96783" lon="0.08636">
        <ele>146.2</ele>
        <time>2025-03-30T08:45:56Z</time>
      </trkpt>
      <trkpt lat="43.96781" lon="0.08636">
        <ele>146.2</ele>
        <time>2025-03-30T08:45:57Z</time>
      </trkpt>
      <trkpt lat="43.9678" lon="0.08636">
        <ele>146.2</ele>
        <time>2025-03-30T08:45:59Z</time>
      </trkpt>
      <trkpt lat="43.96778" lon="0.08636">
        <ele>146.2</ele>
        <time>2025-03-30T08:46:00Z</time>
      </trkpt>
      <trkpt lat="43.96777" lon="0.08636">
        <ele>146.2</ele>
        <time>2025-03-30T08:46:01Z</time>
      </trkpt>
      <trkpt lat="43.96775" lon="0.08637">
        <ele>146.2</ele>
        <time>2025-03-30T08:46:03Z</time>
      </trkpt>
      <trkpt lat="43.96773" lon="0.08637">
        <ele>146.3</ele>
        <time>2025-03-30T08:46:04Z</time>
      </trkpt>
      <trkpt lat="43.96772" lon="0.08637">
        <ele>146.3</ele>
        <time>2025-03-30T08:46:05Z</time>
      </trkpt>
      <trkpt lat="43.96771" lon="0.08638">
        <ele>146.3</ele>
        <time>2025-03-30T08:46:06Z</time>
      </trkpt>
      <trkpt lat="43.96769" lon="0.0864">
        <ele>146.3</ele>
        <time>2025-03-30T08:46:08Z</time>
      </trkpt>
      <trkpt lat="43.96766" lon="0.0864">
        <ele>146.3</ele>
        <time>2025-03-30T08:46:10Z</time>
      </trkpt>
      <trkpt lat="43.96764" lon="0.0864">
        <ele>146.3</ele>
        <time>2025-03-30T08:46:11Z</time>
      </trkpt>
      <trkpt lat="43.96763" lon="0.08639">
        <ele>146.3</ele>
        <time>2025-03-30T08:46:12Z</time>
      </trkpt>
      <trkpt lat="43.9676" lon="0.08639">
        <ele>146.4</ele>
        <time>2025-03-30T08:46:14Z</time>
      </trkpt>
      <trkpt lat="43.96759" lon="0.08639">
        <ele>146.4</ele>
        <time>2025-03-30T08:46:15Z</time>
      </trkpt>
      <trkpt lat="43.96759" lon="0.08641">
        <ele>146.4</ele>
        <time>2025-03-30T08:46:17Z</time>
      </trkpt>
      <trkpt lat="43.96758" lon="0.08641">
        <ele>146.4</ele>
        <time>2025-03-30T08:46:18Z</time>
      </trkpt>
      <trkpt lat="43.96757" lon="0.08641">
        <ele>146.4</ele>
        <time>2025-03-30T08:46:19Z</time>
      </trkpt>
      <trkpt lat="43.96757" lon="0.0864">
        <ele>146.4</ele>
        <time>2025-03-30T08:46:20Z</time>
      </trkpt>
      <trkpt lat="43.96757" lon="0.0864">
        <ele>146.4</ele>
        <time>2025-03-30T08:46:21Z</time>
      </trkpt>
      <trkpt lat="43.96756" lon="0.0864">
        <ele>146.4</ele>
        <time>2025-03-30T08:46:22Z</time>
      </trkpt>
      <trkpt lat="43.96756" lon="0.0864">
        <ele>146.4</ele>
        <time>2025-03-30T08:46:23Z</time>
      </trkpt>
      <trkpt lat="43.96755" lon="0.0864">
        <ele>146.5</ele>
        <time>2025-03-30T08:46:25Z</time>
      </trkpt>
      <trkpt lat="43.96755" lon="0.0864">
        <ele>146.5</ele>
        <time>2025-03-30T08:46:26Z</time>
      </trkpt>
      <trkpt lat="43.96754" lon="0.0864">
        <ele>146.5</ele>
        <time>2025-03-30T08:46:27Z</time>
      </trkpt>
      <trkpt lat="43.96754" lon="0.0864">
        <ele>146.5</ele>
        <time>2025-03-30T08:46:28Z</time>
      </trkpt>
      <trkpt lat="43.96754" lon="0.0864">
        <ele>146.5</ele>
        <time>2025-03-30T08:46:29Z</time>
      </trkpt>
      <trkpt lat="43.96751" lon="0.08639">
        <ele>146.5</ele>
        <time>2025-03-30T08:46:31Z</time>
      </trkpt>
      <trkpt lat="43.96749" lon="0.08638">
        <ele>146.5</ele>
        <time>2025-03-30T08:46:32Z</time>
      </trkpt>
      <trkpt lat="43.96748" lon="0.08637">
        <ele>146.6</ele>
        <time>2025-03-30T08:46:33Z</time>
      </trkpt>
      <trkpt lat="43.96749" lon="0.08636">
        <ele>146.6</ele>
        <time>2025-03-30T08:46:34Z</time>
      </trkpt>
      <trkpt lat="43.96746" lon="0.08636">
        <ele>146.6</ele>
        <time>2025-03-30T08:46:35Z</time>
      </trkpt>
      <trkpt lat="43.96745" lon="0.08637">
        <ele>146.6</ele>
        <time>2025-03-30T08:46:36Z</time>
      </trkpt>
      <trkpt lat="43.96742" lon="0.08637">
        <ele>146.6</ele>
        <time>2025-03-30T08:46:38Z</time>
      </trkpt>
      <trkpt lat="43.9674" lon="0.08637">
        <ele>146.6</ele>
        <time>2025-03-30T08:46:39Z</time>
      </trkpt>
      <trkpt lat="43.96738" lon="0.08638">
        <ele>146.6</ele>
        <time>2025-03-30T08:46:40Z</time>
      </trkpt>
      <trkpt lat="43.96737" lon="0.08638">
        <ele>146.6</ele>
        <time>2025-03-30T08:46:41Z</time>
      </trkpt>
      <trkpt lat="43.96735" lon="0.08638">
        <ele>146.6</ele>
        <time>2025-03-30T08:46:42Z</time>
      </trkpt>
      <trkpt lat="43.96734" lon="0.08638">
        <ele>146.6</ele>
        <time>2025-03-30T08:46:43Z</time>
      </trkpt>
      <trkpt lat="43.96732" lon="0.08638">
        <ele>146.6</ele>
        <time>2025-03-30T08:46:44Z</time>
      </trkpt>
      <trkpt lat="43.9673" lon="0.08637">
        <ele>146.6</ele>
        <time>2025-03-30T08:46:45Z</time>
      </trkpt>
      <trkpt lat="43.96729" lon="0.08637">
        <ele>146.6</ele>
        <time>2025-03-30T08:46:46Z</time>
      </trkpt>
      <trkpt lat="43.96728" lon="0.08637">
        <ele>146.6</ele>
        <time>2025-03-30T08:46:47Z</time>
      </trkpt>
      <trkpt lat="43.96726" lon="0.08636">
        <ele>146.6</ele>
        <time>2025-03-30T08:46:48Z</time>
      </trkpt>
      <trkpt lat="43.96725" lon="0.08636">
        <ele>146.6</ele>
        <time>2025-03-30T08:46:49Z</time>
      </trkpt>
      <trkpt lat="43.96724" lon="0.08636">
        <ele>146.6</ele>
        <time>2025-03-30T08:46:50Z</time>
      </trkpt>
      <trkpt lat="43.96722" lon="0.08635">
        <ele>146.6</ele>
        <time>2025-03-30T08:46:51Z</time>
      </trkpt>
      <trkpt lat="43.96721" lon="0.08635">
        <ele>146.6</ele>
        <time>2025-03-30T08:46:52Z</time>
      </trkpt>
      <trkpt lat="43.9672" lon="0.08635">
        <ele>146.6</ele>
        <time>2025-03-30T08:46:53Z</time>
      </trkpt>
      <trkpt lat="43.96718" lon="0.08634">
        <ele>146.6</ele>
        <time>2025-03-30T08:46:54Z</time>
      </trkpt>
      <trkpt lat="43.96717" lon="0.08634">
        <ele>146.6</ele>
        <time>2025-03-30T08:46:55Z</time>
      </trkpt>
      <trkpt lat="43.96715" lon="0.08634">
        <ele>146.6</ele>
        <time>2025-03-30T08:46:56Z</time>
      </trkpt>
      <trkpt lat="43.96713" lon="0.08634">
        <ele>146.7</ele>
        <time>2025-03-30T08:46:57Z</time>
      </trkpt>
      <trkpt lat="43.96712" lon="0.08633">
        <ele>146.7</ele>
        <time>2025-03-30T08:46:58Z</time>
      </trkpt>
      <trkpt lat="43.9671" lon="0.08633">
        <ele>146.7</ele>
        <time>2025-03-30T08:46:59Z</time>
      </trkpt>
      <trkpt lat="43.96708" lon="0.08633">
        <ele>146.7</ele>
        <time>2025-03-30T08:47:00Z</time>
      </trkpt>
      <trkpt lat="43.96706" lon="0.08633">
        <ele>146.7</ele>
        <time>2025-03-30T08:47:01Z</time>
      </trkpt>
      <trkpt lat="43.96705" lon="0.08633">
        <ele>146.7</ele>
        <time>2025-03-30T08:47:02Z</time>
      </trkpt>
      <trkpt lat="43.96703" lon="0.08634">
        <ele>146.7</ele>
        <time>2025-03-30T08:47:04Z</time>
      </trkpt>
      <trkpt lat="43.967" lon="0.08635">
        <ele>146.7</ele>
        <time>2025-03-30T08:47:05Z</time>
      </trkpt>
      <trkpt lat="43.96699" lon="0.08636">
        <ele>146.7</ele>
        <time>2025-03-30T08:47:06Z</time>
      </trkpt>
      <trkpt lat="43.96698" lon="0.08637">
        <ele>146.7</ele>
        <time>2025-03-30T08:47:07Z</time>
      </trkpt>
      <trkpt lat="43.96696" lon="0.08635">
        <ele>146.8</ele>
        <time>2025-03-30T08:47:09Z</time>
      </trkpt>
      <trkpt lat="43.96694" lon="0.08635">
        <ele>146.8</ele>
        <time>2025-03-30T08:47:10Z</time>
      </trkpt>
      <trkpt lat="43.96692" lon="0.08635">
        <ele>146.8</ele>
        <time>2025-03-30T08:47:11Z</time>
      </trkpt>
      <trkpt lat="43.96691" lon="0.08634">
        <ele>146.8</ele>
        <time>2025-03-30T08:47:12Z</time>
      </trkpt>
      <trkpt lat="43.96689" lon="0.08634">
        <ele>146.8</ele>
        <time>2025-03-30T08:47:13Z</time>
      </trkpt>
      <trkpt lat="43.96688" lon="0.08633">
        <ele>146.8</ele>
        <time>2025-03-30T08:47:14Z</time>
      </trkpt>
      <trkpt lat="43.96687" lon="0.08633">
        <ele>146.8</ele>
        <time>2025-03-30T08:47:15Z</time>
      </trkpt>
      <trkpt lat="43.96684" lon="0.08632">
        <ele>146.8</ele>
        <time>2025-03-30T08:47:17Z</time>
      </trkpt>
      <trkpt lat="43.96682" lon="0.08631">
        <ele>146.8</ele>
        <time>2025-03-30T08:47:18Z</time>
      </trkpt>
      <trkpt lat="43.96681" lon="0.08627">
        <ele>146.9</ele>
        <time>2025-03-30T08:47:20Z</time>
      </trkpt>
      <trkpt lat="43.9668" lon="0.08626">
        <ele>146.9</ele>
        <time>2025-03-30T08:47:21Z</time>
      </trkpt>
      <trkpt lat="43.96679" lon="0.08626">
        <ele>146.9</ele>
        <time>2025-03-30T08:47:22Z</time>
      </trkpt>
      <trkpt lat="43.96677" lon="0.08626">
        <ele>146.9</ele>
        <time>2025-03-30T08:47:23Z</time>
      </trkpt>
      <trkpt lat="43.96676" lon="0.08626">
        <ele>146.9</ele>
        <time>2025-03-30T08:47:24Z</time>
      </trkpt>
      <trkpt lat="43.96673" lon="0.08625">
        <ele>146.9</ele>
        <time>2025-03-30T08:47:26Z</time>
      </trkpt>
      <trkpt lat="43.96672" lon="0.08624">
        <ele>146.9</ele>
        <time>2025-03-30T08:47:27Z</time>
      </trkpt>
      <trkpt lat="43.9667" lon="0.08622">
        <ele>147</ele>
        <time>2025-03-30T08:47:29Z</time>
      </trkpt>
      <trkpt lat="43.96669" lon="0.08621">
        <ele>147</ele>
        <time>2025-03-30T08:47:30Z</time>
      </trkpt>
      <trkpt lat="43.96667" lon="0.0862">
        <ele>147</ele>
        <time>2025-03-30T08:47:31Z</time>
      </trkpt>
      <trkpt lat="43.96667" lon="0.08618">
        <ele>147</ele>
        <time>2025-03-30T08:47:32Z</time>
      </trkpt>
      <trkpt lat="43.96665" lon="0.08616">
        <ele>147.1</ele>
        <time>2025-03-30T08:47:34Z</time>
      </trkpt>
      <trkpt lat="43.96664" lon="0.08614">
        <ele>147.1</ele>
        <time>2025-03-30T08:47:35Z</time>
      </trkpt>
      <trkpt lat="43.96662" lon="0.08612">
        <ele>147.1</ele>
        <time>2025-03-30T08:47:37Z</time>
      </trkpt>
      <trkpt lat="43.96659" lon="0.08612">
        <ele>147.2</ele>
        <time>2025-03-30T08:47:39Z</time>
      </trkpt>
      <trkpt lat="43.96658" lon="0.08612">
        <ele>147.2</ele>
        <time>2025-03-30T08:47:40Z</time>
      </trkpt>
      <trkpt lat="43.96657" lon="0.08613">
        <ele>147.2</ele>
        <time>2025-03-30T08:47:41Z</time>
      </trkpt>
      <trkpt lat="43.96656" lon="0.08613">
        <ele>147.2</ele>
        <time>2025-03-30T08:47:42Z</time>
      </trkpt>
      <trkpt lat="43.96655" lon="0.08612">
        <ele>147.3</ele>
        <time>2025-03-30T08:47:43Z</time>
      </trkpt>
      <trkpt lat="43.96653" lon="0.08611">
        <ele>147.3</ele>
        <time>2025-03-30T08:47:45Z</time>
      </trkpt>
      <trkpt lat="43.96652" lon="0.08608">
        <ele>147.3</ele>
        <time>2025-03-30T08:47:46Z</time>
      </trkpt>
      <trkpt lat="43.9665" lon="0.08607">
        <ele>147.4</ele>
        <time>2025-03-30T08:47:48Z</time>
      </trkpt>
      <trkpt lat="43.96649" lon="0.08606">
        <ele>147.4</ele>
        <time>2025-03-30T08:47:49Z</time>
      </trkpt>
      <trkpt lat="43.96647" lon="0.08605">
        <ele>147.4</ele>
        <time>2025-03-30T08:47:50Z</time>
      </trkpt>
      <trkpt lat="43.96646" lon="0.08604">
        <ele>147.5</ele>
        <time>2025-03-30T08:47:51Z</time>
      </trkpt>
      <trkpt lat="43.96645" lon="0.08604">
        <ele>147.5</ele>
        <time>2025-03-30T08:47:52Z</time>
      </trkpt>
      <trkpt lat="43.96643" lon="0.08602">
        <ele>147.5</ele>
        <time>2025-03-30T08:47:54Z</time>
      </trkpt>
      <trkpt lat="43.96641" lon="0.08601">
        <ele>147.6</ele>
        <time>2025-03-30T08:47:55Z</time>
      </trkpt>
      <trkpt lat="43.96639" lon="0.08599">
        <ele>147.6</ele>
        <time>2025-03-30T08:47:57Z</time>
      </trkpt>
      <trkpt lat="43.96637" lon="0.08598">
        <ele>147.6</ele>
        <time>2025-03-30T08:47:58Z</time>
      </trkpt>
      <trkpt lat="43.96635" lon="0.08596">
        <ele>147.7</ele>
        <time>2025-03-30T08:48:00Z</time>
      </trkpt>
      <trkpt lat="43.96632" lon="0.08595">
        <ele>147.7</ele>
        <time>2025-03-30T08:48:02Z</time>
      </trkpt>
      <trkpt lat="43.96631" lon="0.08594">
        <ele>147.8</ele>
        <time>2025-03-30T08:48:04Z</time>
      </trkpt>
      <trkpt lat="43.96628" lon="0.08594">
        <ele>147.8</ele>
        <time>2025-03-30T08:48:05Z</time>
      </trkpt>
      <trkpt lat="43.96626" lon="0.08593">
        <ele>147.9</ele>
        <time>2025-03-30T08:48:06Z</time>
      </trkpt>
      <trkpt lat="43.96625" lon="0.08593">
        <ele>147.9</ele>
        <time>2025-03-30T08:48:07Z</time>
      </trkpt>
      <trkpt lat="43.96623" lon="0.08592">
        <ele>148</ele>
        <time>2025-03-30T08:48:08Z</time>
      </trkpt>
      <trkpt lat="43.96622" lon="0.08592">
        <ele>148</ele>
        <time>2025-03-30T08:48:10Z</time>
      </trkpt>
      <trkpt lat="43.96621" lon="0.08591">
        <ele>148</ele>
        <time>2025-03-30T08:48:11Z</time>
      </trkpt>
      <trkpt lat="43.9662" lon="0.0859">
        <ele>148.1</ele>
        <time>2025-03-30T08:48:12Z</time>
      </trkpt>
      <trkpt lat="43.96617" lon="0.08589">
        <ele>148.2</ele>
        <time>2025-03-30T08:48:14Z</time>
      </trkpt>
      <trkpt lat="43.96615" lon="0.08588">
        <ele>148.2</ele>
        <time>2025-03-30T08:48:16Z</time>
      </trkpt>
      <trkpt lat="43.96613" lon="0.08588">
        <ele>148.3</ele>
        <time>2025-03-30T08:48:17Z</time>
      </trkpt>
      <trkpt lat="43.96612" lon="0.08587">
        <ele>148.4</ele>
        <time>2025-03-30T08:48:18Z</time>
      </trkpt>
      <trkpt lat="43.9661" lon="0.08587">
        <ele>148.4</ele>
        <time>2025-03-30T08:48:19Z</time>
      </trkpt>
      <trkpt lat="43.96609" lon="0.08587">
        <ele>148.5</ele>
        <time>2025-03-30T08:48:20Z</time>
      </trkpt>
      <trkpt lat="43.96607" lon="0.08586">
        <ele>148.6</ele>
        <time>2025-03-30T08:48:22Z</time>
      </trkpt>
      <trkpt lat="43.96605" lon="0.08585">
        <ele>148.7</ele>
        <time>2025-03-30T08:48:23Z</time>
      </trkpt>
      <trkpt lat="43.96603" lon="0.08585">
        <ele>148.8</ele>
        <time>2025-03-30T08:48:25Z</time>
      </trkpt>
      <trkpt lat="43.96602" lon="0.08585">
        <ele>148.8</ele>
        <time>2025-03-30T08:48:26Z</time>
      </trkpt>
      <trkpt lat="43.96601" lon="0.08584">
        <ele>148.9</ele>
        <time>2025-03-30T08:48:27Z</time>
      </trkpt>
      <trkpt lat="43.966" lon="0.08584">
        <ele>148.9</ele>
        <time>2025-03-30T08:48:28Z</time>
      </trkpt>
      <trkpt lat="43.96599" lon="0.08585">
        <ele>149</ele>
        <time>2025-03-30T08:48:29Z</time>
      </trkpt>
      <trkpt lat="43.96596" lon="0.08586">
        <ele>149.2</ele>
        <time>2025-03-30T08:48:31Z</time>
      </trkpt>
      <trkpt lat="43.96594" lon="0.08587">
        <ele>149.2</ele>
        <time>2025-03-30T08:48:32Z</time>
      </trkpt>
      <trkpt lat="43.96594" lon="0.08587">
        <ele>149.3</ele>
        <time>2025-03-30T08:48:33Z</time>
      </trkpt>
      <trkpt lat="43.96592" lon="0.08587">
        <ele>149.3</ele>
        <time>2025-03-30T08:48:34Z</time>
      </trkpt>
      <trkpt lat="43.96591" lon="0.08587">
        <ele>149.4</ele>
        <time>2025-03-30T08:48:35Z</time>
      </trkpt>
      <trkpt lat="43.9659" lon="0.08587">
        <ele>149.4</ele>
        <time>2025-03-30T08:48:36Z</time>
      </trkpt>
      <trkpt lat="43.96589" lon="0.08588">
        <ele>149.5</ele>
        <time>2025-03-30T08:48:37Z</time>
      </trkpt>
      <trkpt lat="43.96587" lon="0.08588">
        <ele>149.6</ele>
        <time>2025-03-30T08:48:39Z</time>
      </trkpt>
      <trkpt lat="43.96585" lon="0.08588">
        <ele>149.7</ele>
        <time>2025-03-30T08:48:40Z</time>
      </trkpt>
      <trkpt lat="43.96583" lon="0.08588">
        <ele>149.8</ele>
        <time>2025-03-30T08:48:42Z</time>
      </trkpt>
      <trkpt lat="43.96582" lon="0.08588">
        <ele>149.8</ele>
        <time>2025-03-30T08:48:43Z</time>
      </trkpt>
      <trkpt lat="43.96581" lon="0.08588">
        <ele>149.9</ele>
        <time>2025-03-30T08:48:44Z</time>
      </trkpt>
      <trkpt lat="43.96579" lon="0.08588">
        <ele>150</ele>
        <time>2025-03-30T08:48:45Z</time>
      </trkpt>
      <trkpt lat="43.96579" lon="0.08588">
        <ele>150</ele>
        <time>2025-03-30T08:48:46Z</time>
      </trkpt>
      <trkpt lat="43.96578" lon="0.08588">
        <ele>150</ele>
        <time>2025-03-30T08:48:47Z</time>
      </trkpt>
      <trkpt lat="43.96577" lon="0.08587">
        <ele>150.1</ele>
        <time>2025-03-30T08:48:48Z</time>
      </trkpt>
      <trkpt lat="43.96575" lon="0.08584">
        <ele>150.2</ele>
        <time>2025-03-30T08:48:50Z</time>
      </trkpt>
      <trkpt lat="43.96574" lon="0.08582">
        <ele>150.3</ele>
        <time>2025-03-30T08:48:51Z</time>
      </trkpt>
      <trkpt lat="43.96571" lon="0.08579">
        <ele>150.4</ele>
        <time>2025-03-30T08:48:53Z</time>
      </trkpt>
      <trkpt lat="43.9657" lon="0.08578">
        <ele>150.5</ele>
        <time>2025-03-30T08:48:54Z</time>
      </trkpt>
      <trkpt lat="43.96567" lon="0.08575">
        <ele>150.6</ele>
        <time>2025-03-30T08:48:56Z</time>
      </trkpt>
      <trkpt lat="43.96566" lon="0.08574">
        <ele>150.7</ele>
        <time>2025-03-30T08:48:57Z</time>
      </trkpt>
      <trkpt lat="43.96565" lon="0.08573">
        <ele>150.8</ele>
        <time>2025-03-30T08:48:58Z</time>
      </trkpt>
      <trkpt lat="43.96563" lon="0.08571">
        <ele>150.8</ele>
        <time>2025-03-30T08:48:59Z</time>
      </trkpt>
      <trkpt lat="43.96561" lon="0.08569">
        <ele>151</ele>
        <time>2025-03-30T08:49:01Z</time>
      </trkpt>
      <trkpt lat="43.9656" lon="0.08568">
        <ele>151</ele>
        <time>2025-03-30T08:49:02Z</time>
      </trkpt>
      <trkpt lat="43.96557" lon="0.08567">
        <ele>151.1</ele>
        <time>2025-03-30T08:49:04Z</time>
      </trkpt>
      <trkpt lat="43.96556" lon="0.08566">
        <ele>151.2</ele>
        <time>2025-03-30T08:49:06Z</time>
      </trkpt>
      <trkpt lat="43.96554" lon="0.08564">
        <ele>151.3</ele>
        <time>2025-03-30T08:49:07Z</time>
      </trkpt>
      <trkpt lat="43.96552" lon="0.08562">
        <ele>151.3</ele>
        <time>2025-03-30T08:49:08Z</time>
      </trkpt>
      <trkpt lat="43.96552" lon="0.08562">
        <ele>151.3</ele>
        <time>2025-03-30T08:49:09Z</time>
      </trkpt>
      <trkpt lat="43.96551" lon="0.0856">
        <ele>151.4</ele>
        <time>2025-03-30T08:49:10Z</time>
      </trkpt>
      <trkpt lat="43.96549" lon="0.08559">
        <ele>151.4</ele>
        <time>2025-03-30T08:49:11Z</time>
      </trkpt>
      <trkpt lat="43.96547" lon="0.08557">
        <ele>151.4</ele>
        <time>2025-03-30T08:49:13Z</time>
      </trkpt>
      <trkpt lat="43.96546" lon="0.08556">
        <ele>151.4</ele>
        <time>2025-03-30T08:49:15Z</time>
      </trkpt>
      <trkpt lat="43.96544" lon="0.08555">
        <ele>151.4</ele>
        <time>2025-03-30T08:49:16Z</time>
      </trkpt>
      <trkpt lat="43.96543" lon="0.08554">
        <ele>151.4</ele>
        <time>2025-03-30T08:49:17Z</time>
      </trkpt>
      <trkpt lat="43.9654" lon="0.08552">
        <ele>151.3</ele>
        <time>2025-03-30T08:49:18Z</time>
      </trkpt>
      <trkpt lat="43.96537" lon="0.0855">
        <ele>151.3</ele>
        <time>2025-03-30T08:49:20Z</time>
      </trkpt>
      <trkpt lat="43.96536" lon="0.08549">
        <ele>151.2</ele>
        <time>2025-03-30T08:49:21Z</time>
      </trkpt>
      <trkpt lat="43.96535" lon="0.08548">
        <ele>151.2</ele>
        <time>2025-03-30T08:49:22Z</time>
      </trkpt>
      <trkpt lat="43.96532" lon="0.08545">
        <ele>151.1</ele>
        <time>2025-03-30T08:49:24Z</time>
      </trkpt>
      <trkpt lat="43.96531" lon="0.08544">
        <ele>151</ele>
        <time>2025-03-30T08:49:25Z</time>
      </trkpt>
      <trkpt lat="43.9653" lon="0.08544">
        <ele>151</ele>
        <time>2025-03-30T08:49:26Z</time>
      </trkpt>
      <trkpt lat="43.96529" lon="0.08543">
        <ele>150.9</ele>
        <time>2025-03-30T08:49:27Z</time>
      </trkpt>
      <trkpt lat="43.96528" lon="0.08542">
        <ele>150.8</ele>
        <time>2025-03-30T08:49:28Z</time>
      </trkpt>
      <trkpt lat="43.96525" lon="0.08541">
        <ele>150.7</ele>
        <time>2025-03-30T08:49:30Z</time>
      </trkpt>
      <trkpt lat="43.96522" lon="0.0854">
        <ele>150.6</ele>
        <time>2025-03-30T08:49:32Z</time>
      </trkpt>
      <trkpt lat="43.9652" lon="0.08539">
        <ele>150.5</ele>
        <time>2025-03-30T08:49:33Z</time>
      </trkpt>
      <trkpt lat="43.96518" lon="0.08536">
        <ele>150.4</ele>
        <time>2025-03-30T08:49:35Z</time>
      </trkpt>
      <trkpt lat="43.96517" lon="0.08535">
        <ele>150.4</ele>
        <time>2025-03-30T08:49:36Z</time>
      </trkpt>
      <trkpt lat="43.96515" lon="0.08532">
        <ele>150.3</ele>
        <time>2025-03-30T08:49:38Z</time>
      </trkpt>
      <trkpt lat="43.96514" lon="0.08531">
        <ele>150.2</ele>
        <time>2025-03-30T08:49:39Z</time>
      </trkpt>
      <trkpt lat="43.96512" lon="0.08529">
        <ele>150.2</ele>
        <time>2025-03-30T08:49:41Z</time>
      </trkpt>
      <trkpt lat="43.9651" lon="0.08529">
        <ele>150.2</ele>
        <time>2025-03-30T08:49:43Z</time>
      </trkpt>
      <trkpt lat="43.96509" lon="0.08527">
        <ele>150.1</ele>
        <time>2025-03-30T08:49:44Z</time>
      </trkpt>
      <trkpt lat="43.9651" lon="0.08526">
        <ele>150.1</ele>
        <time>2025-03-30T08:49:45Z</time>
      </trkpt>
      <trkpt lat="43.9651" lon="0.08525">
        <ele>150.1</ele>
        <time>2025-03-30T08:49:46Z</time>
      </trkpt>
      <trkpt lat="43.96506" lon="0.08525">
        <ele>150</ele>
        <time>2025-03-30T08:49:48Z</time>
      </trkpt>
      <trkpt lat="43.96505" lon="0.08525">
        <ele>150</ele>
        <time>2025-03-30T08:49:49Z</time>
      </trkpt>
      <trkpt lat="43.96504" lon="0.08524">
        <ele>150</ele>
        <time>2025-03-30T08:49:50Z</time>
      </trkpt>
      <trkpt lat="43.96504" lon="0.08526">
        <ele>150</ele>
        <time>2025-03-30T08:49:52Z</time>
      </trkpt>
      <trkpt lat="43.96505" lon="0.08527">
        <ele>150</ele>
        <time>2025-03-30T08:49:53Z</time>
      </trkpt>
      <trkpt lat="43.96505" lon="0.08527">
        <ele>150</ele>
        <time>2025-03-30T08:49:55Z</time>
      </trkpt>
      <trkpt lat="43.96505" lon="0.08527">
        <ele>150</ele>
        <time>2025-03-30T08:49:56Z</time>
      </trkpt>
      <trkpt lat="43.96505" lon="0.08527">
        <ele>150</ele>
        <time>2025-03-30T08:49:57Z</time>
      </trkpt>
      <trkpt lat="43.96505" lon="0.08527">
        <ele>150</ele>
        <time>2025-03-30T08:49:58Z</time>
      </trkpt>
      <trkpt lat="43.96505" lon="0.08527">
        <ele>150</ele>
        <time>2025-03-30T08:49:59Z</time>
      </trkpt>
      <trkpt lat="43.96505" lon="0.08527">
        <ele>150</ele>
        <time>2025-03-30T08:50:00Z</time>
      </trkpt>
      <trkpt lat="43.96505" lon="0.08527">
        <ele>150</ele>
        <time>2025-03-30T08:50:01Z</time>
      </trkpt>
      <trkpt lat="43.96505" lon="0.08527">
        <ele>150</ele>
        <time>2025-03-30T08:50:02Z</time>
      </trkpt>
      <trkpt lat="43.96506" lon="0.08527">
        <ele>150</ele>
        <time>2025-03-30T08:50:03Z</time>
      </trkpt>
      <trkpt lat="43.96506" lon="0.08527">
        <ele>150</ele>
        <time>2025-03-30T08:50:04Z</time>
      </trkpt>
      <trkpt lat="43.96506" lon="0.08527">
        <ele>150</ele>
        <time>2025-03-30T08:50:05Z</time>
      </trkpt>
      <trkpt lat="43.96506" lon="0.08527">
        <ele>150</ele>
        <time>2025-03-30T08:50:06Z</time>
      </trkpt>
      <trkpt lat="43.96506" lon="0.08527">
        <ele>150</ele>
        <time>2025-03-30T08:50:08Z</time>
      </trkpt>
      <trkpt lat="43.96505" lon="0.08527">
        <ele>150</ele>
        <time>2025-03-30T08:50:09Z</time>
      </trkpt>
      <trkpt lat="43.96504" lon="0.08527">
        <ele>149.9</ele>
        <time>2025-03-30T08:50:10Z</time>
      </trkpt>
      <trkpt lat="43.96504" lon="0.08526">
        <ele>149.9</ele>
        <time>2025-03-30T08:50:12Z</time>
      </trkpt>
      <trkpt lat="43.96503" lon="0.08526">
        <ele>149.9</ele>
        <time>2025-03-30T08:50:13Z</time>
      </trkpt>
      <trkpt lat="43.96503" lon="0.08526">
        <ele>149.9</ele>
        <time>2025-03-30T08:50:14Z</time>
      </trkpt>
      <trkpt lat="43.96503" lon="0.08527">
        <ele>149.9</ele>
        <time>2025-03-30T08:50:16Z</time>
      </trkpt>
      <trkpt lat="43.96502" lon="0.08526">
        <ele>149.9</ele>
        <time>2025-03-30T08:50:17Z</time>
      </trkpt>
      <trkpt lat="43.96501" lon="0.08525">
        <ele>149.9</ele>
        <time>2025-03-30T08:50:19Z</time>
      </trkpt>
      <trkpt lat="43.965" lon="0.08523">
        <ele>149.8</ele>
        <time>2025-03-30T08:50:20Z</time>
      </trkpt>
      <trkpt lat="43.96499" lon="0.08523">
        <ele>149.8</ele>
        <time>2025-03-30T08:50:21Z</time>
      </trkpt>
      <trkpt lat="43.96498" lon="0.08522">
        <ele>149.8</ele>
        <time>2025-03-30T08:50:22Z</time>
      </trkpt>
      <trkpt lat="43.96495" lon="0.08521">
        <ele>149.7</ele>
        <time>2025-03-30T08:50:23Z</time>
      </trkpt>
      <trkpt lat="43.96494" lon="0.0852">
        <ele>149.7</ele>
        <time>2025-03-30T08:50:24Z</time>
      </trkpt>
      <trkpt lat="43.96493" lon="0.08519">
        <ele>149.7</ele>
        <time>2025-03-30T08:50:26Z</time>
      </trkpt>
      <trkpt lat="43.96492" lon="0.08517">
        <ele>149.6</ele>
        <time>2025-03-30T08:50:28Z</time>
      </trkpt>
      <trkpt lat="43.9649" lon="0.08516">
        <ele>149.6</ele>
        <time>2025-03-30T08:50:29Z</time>
      </trkpt>
      <trkpt lat="43.96489" lon="0.08515">
        <ele>149.5</ele>
        <time>2025-03-30T08:50:31Z</time>
      </trkpt>
      <trkpt lat="43.96488" lon="0.08513">
        <ele>149.5</ele>
        <time>2025-03-30T08:50:32Z</time>
      </trkpt>
      <trkpt lat="43.96486" lon="0.0851">
        <ele>149.4</ele>
        <time>2025-03-30T08:50:33Z</time>
      </trkpt>
      <trkpt lat="43.96485" lon="0.08508">
        <ele>149.4</ele>
        <time>2025-03-30T08:50:34Z</time>
      </trkpt>
      <trkpt lat="43.96484" lon="0.08506">
        <ele>149.4</ele>
        <time>2025-03-30T08:50:36Z</time>
      </trkpt>
      <trkpt lat="43.96484" lon="0.08507">
        <ele>149.3</ele>
        <time>2025-03-30T08:50:37Z</time>
      </trkpt>
      <trkpt lat="43.96485" lon="0.08508">
        <ele>149.3</ele>
        <time>2025-03-30T08:50:38Z</time>
      </trkpt>
      <trkpt lat="43.96485" lon="0.08508">
        <ele>149.3</ele>
        <time>2025-03-30T08:50:39Z</time>
      </trkpt>
      <trkpt lat="43.96486" lon="0.08508">
        <ele>149.3</ele>
        <time>2025-03-30T08:50:40Z</time>
      </trkpt>
      <trkpt lat="43.96486" lon="0.08507">
        <ele>149.3</ele>
        <time>2025-03-30T08:50:41Z</time>
      </trkpt>
      <trkpt lat="43.96486" lon="0.08508">
        <ele>149.3</ele>
        <time>2025-03-30T08:50:42Z</time>
      </trkpt>
      <trkpt lat="43.96486" lon="0.08508">
        <ele>149.3</ele>
        <time>2025-03-30T08:50:43Z</time>
      </trkpt>
      <trkpt lat="43.96486" lon="0.08508">
        <ele>149.3</ele>
        <time>2025-03-30T08:50:44Z</time>
      </trkpt>
      <trkpt lat="43.96486" lon="0.08508">
        <ele>149.3</ele>
        <time>2025-03-30T08:50:45Z</time>
      </trkpt>
      <trkpt lat="43.96486" lon="0.08508">
        <ele>149.3</ele>
        <time>2025-03-30T08:50:46Z</time>
      </trkpt>
      <trkpt lat="43.96486" lon="0.08508">
        <ele>149.3</ele>
        <time>2025-03-30T08:50:47Z</time>
      </trkpt>
      <trkpt lat="43.96486" lon="0.08509">
        <ele>149.3</ele>
        <time>2025-03-30T08:50:48Z</time>
      </trkpt>
      <trkpt lat="43.96485" lon="0.08508">
        <ele>149.2</ele>
        <time>2025-03-30T08:50:49Z</time>
      </trkpt>
      <trkpt lat="43.96484" lon="0.08508">
        <ele>149.2</ele>
        <time>2025-03-30T08:50:50Z</time>
      </trkpt>
      <trkpt lat="43.96482" lon="0.08507">
        <ele>149.2</ele>
        <time>2025-03-30T08:50:51Z</time>
      </trkpt>
      <trkpt lat="43.96481" lon="0.08506">
        <ele>149.1</ele>
        <time>2025-03-30T08:50:52Z</time>
      </trkpt>
      <trkpt lat="43.9648" lon="0.08505">
        <ele>149.1</ele>
        <time>2025-03-30T08:50:53Z</time>
      </trkpt>
      <trkpt lat="43.96479" lon="0.08504">
        <ele>149.1</ele>
        <time>2025-03-30T08:50:54Z</time>
      </trkpt>
      <trkpt lat="43.96479" lon="0.08504">
        <ele>149</ele>
        <time>2025-03-30T08:50:55Z</time>
      </trkpt>
      <trkpt lat="43.96478" lon="0.08503">
        <ele>149</ele>
        <time>2025-03-30T08:50:56Z</time>
      </trkpt>
      <trkpt lat="43.96478" lon="0.08503">
        <ele>149</ele>
        <time>2025-03-30T08:50:57Z</time>
      </trkpt>
      <trkpt lat="43.96476" lon="0.08501">
        <ele>148.9</ele>
        <time>2025-03-30T08:50:58Z</time>
      </trkpt>
      <trkpt lat="43.96476" lon="0.085">
        <ele>148.9</ele>
        <time>2025-03-30T08:50:59Z</time>
      </trkpt>
      <trkpt lat="43.96475" lon="0.08499">
        <ele>148.9</ele>
        <time>2025-03-30T08:51:00Z</time>
      </trkpt>
      <trkpt lat="43.96473" lon="0.08499">
        <ele>148.8</ele>
        <time>2025-03-30T08:51:01Z</time>
      </trkpt>
      <trkpt lat="43.96472" lon="0.08498">
        <ele>148.8</ele>
        <time>2025-03-30T08:51:02Z</time>
      </trkpt>
      <trkpt lat="43.96471" lon="0.08497">
        <ele>148.7</ele>
        <time>2025-03-30T08:51:03Z</time>
      </trkpt>
      <trkpt lat="43.96468" lon="0.08494">
        <ele>148.6</ele>
        <time>2025-03-30T08:51:04Z</time>
      </trkpt>
      <trkpt lat="43.96468" lon="0.08493">
        <ele>148.6</ele>
        <time>2025-03-30T08:51:05Z</time>
      </trkpt>
      <trkpt lat="43.96466" lon="0.08491">
        <ele>148.5</ele>
        <time>2025-03-30T08:51:06Z</time>
      </trkpt>
      <trkpt lat="43.96465" lon="0.0849">
        <ele>148.5</ele>
        <time>2025-03-30T08:51:07Z</time>
      </trkpt>
      <trkpt lat="43.96462" lon="0.08488">
        <ele>148.4</ele>
        <time>2025-03-30T08:51:08Z</time>
      </trkpt>
      <trkpt lat="43.96462" lon="0.08487">
        <ele>148.4</ele>
        <time>2025-03-30T08:51:09Z</time>
      </trkpt>
      <trkpt lat="43.9646" lon="0.08486">
        <ele>148.4</ele>
        <time>2025-03-30T08:51:10Z</time>
      </trkpt>
      <trkpt lat="43.96459" lon="0.08485">
        <ele>148.4</ele>
        <time>2025-03-30T08:51:11Z</time>
      </trkpt>
      <trkpt lat="43.96457" lon="0.08484">
        <ele>148.4</ele>
        <time>2025-03-30T08:51:12Z</time>
      </trkpt>
      <trkpt lat="43.96455" lon="0.08483">
        <ele>148.3</ele>
        <time>2025-03-30T08:51:13Z</time>
      </trkpt>
      <trkpt lat="43.96454" lon="0.08482">
        <ele>148.3</ele>
        <time>2025-03-30T08:51:14Z</time>
      </trkpt>
      <trkpt lat="43.96453" lon="0.08481">
        <ele>148.3</ele>
        <time>2025-03-30T08:51:15Z</time>
      </trkpt>
      <trkpt lat="43.96451" lon="0.0848">
        <ele>148.3</ele>
        <time>2025-03-30T08:51:16Z</time>
      </trkpt>
      <trkpt lat="43.96449" lon="0.08479">
        <ele>148.3</ele>
        <time>2025-03-30T08:51:17Z</time>
      </trkpt>
      <trkpt lat="43.96447" lon="0.08479">
        <ele>148.3</ele>
        <time>2025-03-30T08:51:18Z</time>
      </trkpt>
      <trkpt lat="43.96447" lon="0.08479">
        <ele>148.3</ele>
        <time>2025-03-30T08:51:19Z</time>
      </trkpt>
      <trkpt lat="43.96446" lon="0.08478">
        <ele>148.2</ele>
        <time>2025-03-30T08:51:20Z</time>
      </trkpt>
      <trkpt lat="43.96444" lon="0.08478">
        <ele>148.2</ele>
        <time>2025-03-30T08:51:21Z</time>
      </trkpt>
      <trkpt lat="43.96443" lon="0.08477">
        <ele>148.2</ele>
        <time>2025-03-30T08:51:22Z</time>
      </trkpt>
      <trkpt lat="43.96441" lon="0.08476">
        <ele>148.2</ele>
        <time>2025-03-30T08:51:23Z</time>
      </trkpt>
      <trkpt lat="43.9644" lon="0.08475">
        <ele>148.2</ele>
        <time>2025-03-30T08:51:24Z</time>
      </trkpt>
      <trkpt lat="43.96439" lon="0.08475">
        <ele>148.2</ele>
        <time>2025-03-30T08:51:25Z</time>
      </trkpt>
      <trkpt lat="43.96437" lon="0.08474">
        <ele>148.2</ele>
        <time>2025-03-30T08:51:26Z</time>
      </trkpt>
      <trkpt lat="43.96437" lon="0.08474">
        <ele>148.2</ele>
        <time>2025-03-30T08:51:27Z</time>
      </trkpt>
      <trkpt lat="43.96436" lon="0.08474">
        <ele>148.2</ele>
        <time>2025-03-30T08:51:28Z</time>
      </trkpt>
      <trkpt lat="43.96434" lon="0.08473">
        <ele>148.2</ele>
        <time>2025-03-30T08:51:29Z</time>
      </trkpt>
      <trkpt lat="43.96433" lon="0.08473">
        <ele>148.2</ele>
        <time>2025-03-30T08:51:30Z</time>
      </trkpt>
      <trkpt lat="43.96432" lon="0.08472">
        <ele>148.2</ele>
        <time>2025-03-30T08:51:31Z</time>
      </trkpt>
      <trkpt lat="43.96431" lon="0.0847">
        <ele>148.2</ele>
        <time>2025-03-30T08:51:32Z</time>
      </trkpt>
      <trkpt lat="43.9643" lon="0.0847">
        <ele>148.2</ele>
        <time>2025-03-30T08:51:33Z</time>
      </trkpt>
      <trkpt lat="43.96429" lon="0.08469">
        <ele>148.2</ele>
        <time>2025-03-30T08:51:34Z</time>
      </trkpt>
      <trkpt lat="43.96427" lon="0.08468">
        <ele>148.2</ele>
        <time>2025-03-30T08:51:35Z</time>
      </trkpt>
      <trkpt lat="43.96427" lon="0.08467">
        <ele>148.2</ele>
        <time>2025-03-30T08:51:36Z</time>
      </trkpt>
      <trkpt lat="43.96426" lon="0.08466">
        <ele>148.2</ele>
        <time>2025-03-30T08:51:37Z</time>
      </trkpt>
      <trkpt lat="43.96425" lon="0.08465">
        <ele>148.2</ele>
        <time>2025-03-30T08:51:38Z</time>
      </trkpt>
      <trkpt lat="43.96424" lon="0.08464">
        <ele>148.2</ele>
        <time>2025-03-30T08:51:39Z</time>
      </trkpt>
      <trkpt lat="43.96423" lon="0.08465">
        <ele>148.2</ele>
        <time>2025-03-30T08:51:40Z</time>
      </trkpt>
      <trkpt lat="43.96421" lon="0.08465">
        <ele>148.1</ele>
        <time>2025-03-30T08:51:41Z</time>
      </trkpt>
      <trkpt lat="43.9642" lon="0.08465">
        <ele>148.1</ele>
        <time>2025-03-30T08:51:42Z</time>
      </trkpt>
      <trkpt lat="43.9642" lon="0.08464">
        <ele>148.1</ele>
        <time>2025-03-30T08:51:43Z</time>
      </trkpt>
      <trkpt lat="43.96417" lon="0.08464">
        <ele>148.1</ele>
        <time>2025-03-30T08:51:44Z</time>
      </trkpt>
      <trkpt lat="43.96417" lon="0.08463">
        <ele>148.1</ele>
        <time>2025-03-30T08:51:45Z</time>
      </trkpt>
      <trkpt lat="43.96416" lon="0.08463">
        <ele>148.1</ele>
        <time>2025-03-30T08:51:46Z</time>
      </trkpt>
      <trkpt lat="43.96414" lon="0.08462">
        <ele>148.1</ele>
        <time>2025-03-30T08:51:47Z</time>
      </trkpt>
      <trkpt lat="43.96413" lon="0.08461">
        <ele>148.1</ele>
        <time>2025-03-30T08:51:48Z</time>
      </trkpt>
      <trkpt lat="43.96413" lon="0.08461">
        <ele>148.1</ele>
        <time>2025-03-30T08:51:49Z</time>
      </trkpt>
      <trkpt lat="43.96411" lon="0.0846">
        <ele>148.1</ele>
        <time>2025-03-30T08:51:50Z</time>
      </trkpt>
      <trkpt lat="43.9641" lon="0.08459">
        <ele>148.1</ele>
        <time>2025-03-30T08:51:51Z</time>
      </trkpt>
      <trkpt lat="43.96409" lon="0.08459">
        <ele>148</ele>
        <time>2025-03-30T08:51:52Z</time>
      </trkpt>
      <trkpt lat="43.96408" lon="0.08458">
        <ele>148</ele>
        <time>2025-03-30T08:51:53Z</time>
      </trkpt>
      <trkpt lat="43.96407" lon="0.08458">
        <ele>148</ele>
        <time>2025-03-30T08:51:54Z</time>
      </trkpt>
      <trkpt lat="43.96406" lon="0.08458">
        <ele>148</ele>
        <time>2025-03-30T08:51:55Z</time>
      </trkpt>
      <trkpt lat="43.96405" lon="0.08457">
        <ele>148</ele>
        <time>2025-03-30T08:51:56Z</time>
      </trkpt>
      <trkpt lat="43.96404" lon="0.08457">
        <ele>148</ele>
        <time>2025-03-30T08:51:57Z</time>
      </trkpt>
      <trkpt lat="43.96402" lon="0.08457">
        <ele>148</ele>
        <time>2025-03-30T08:51:58Z</time>
      </trkpt>
      <trkpt lat="43.964" lon="0.08456">
        <ele>147.9</ele>
        <time>2025-03-30T08:51:59Z</time>
      </trkpt>
      <trkpt lat="43.96399" lon="0.08455">
        <ele>147.9</ele>
        <time>2025-03-30T08:52:00Z</time>
      </trkpt>
      <trkpt lat="43.96399" lon="0.08455">
        <ele>147.9</ele>
        <time>2025-03-30T08:52:01Z</time>
      </trkpt>
      <trkpt lat="43.96396" lon="0.08453">
        <ele>147.9</ele>
        <time>2025-03-30T08:52:03Z</time>
      </trkpt>
      <trkpt lat="43.96395" lon="0.08453">
        <ele>147.9</ele>
        <time>2025-03-30T08:52:04Z</time>
      </trkpt>
      <trkpt lat="43.96394" lon="0.08452">
        <ele>147.8</ele>
        <time>2025-03-30T08:52:05Z</time>
      </trkpt>
      <trkpt lat="43.96393" lon="0.0845">
        <ele>147.8</ele>
        <time>2025-03-30T08:52:06Z</time>
      </trkpt>
      <trkpt lat="43.96392" lon="0.08449">
        <ele>147.8</ele>
        <time>2025-03-30T08:52:07Z</time>
      </trkpt>
      <trkpt lat="43.9639" lon="0.08448">
        <ele>147.8</ele>
        <time>2025-03-30T08:52:08Z</time>
      </trkpt>
      <trkpt lat="43.96389" lon="0.08448">
        <ele>147.8</ele>
        <time>2025-03-30T08:52:09Z</time>
      </trkpt>
      <trkpt lat="43.96388" lon="0.08447">
        <ele>147.7</ele>
        <time>2025-03-30T08:52:10Z</time>
      </trkpt>
      <trkpt lat="43.96387" lon="0.08446">
        <ele>147.7</ele>
        <time>2025-03-30T08:52:11Z</time>
      </trkpt>
      <trkpt lat="43.96385" lon="0.08446">
        <ele>147.7</ele>
        <time>2025-03-30T08:52:12Z</time>
      </trkpt>
      <trkpt lat="43.96385" lon="0.08446">
        <ele>147.7</ele>
        <time>2025-03-30T08:52:13Z</time>
      </trkpt>
      <trkpt lat="43.96383" lon="0.08444">
        <ele>147.6</ele>
        <time>2025-03-30T08:52:14Z</time>
      </trkpt>
      <trkpt lat="43.96382" lon="0.08444">
        <ele>147.6</ele>
        <time>2025-03-30T08:52:15Z</time>
      </trkpt>
      <trkpt lat="43.96381" lon="0.08443">
        <ele>147.6</ele>
        <time>2025-03-30T08:52:16Z</time>
      </trkpt>
      <trkpt lat="43.9638" lon="0.08443">
        <ele>147.6</ele>
        <time>2025-03-30T08:52:17Z</time>
      </trkpt>
      <trkpt lat="43.96379" lon="0.08442">
        <ele>147.6</ele>
        <time>2025-03-30T08:52:18Z</time>
      </trkpt>
      <trkpt lat="43.96376" lon="0.08441">
        <ele>147.6</ele>
        <time>2025-03-30T08:52:20Z</time>
      </trkpt>
      <trkpt lat="43.96376" lon="0.08441">
        <ele>147.6</ele>
        <time>2025-03-30T08:52:21Z</time>
      </trkpt>
      <trkpt lat="43.96375" lon="0.08441">
        <ele>147.6</ele>
        <time>2025-03-30T08:52:22Z</time>
      </trkpt>
      <trkpt lat="43.96374" lon="0.08441">
        <ele>147.6</ele>
        <time>2025-03-30T08:52:23Z</time>
      </trkpt>
      <trkpt lat="43.96373" lon="0.08441">
        <ele>147.6</ele>
        <time>2025-03-30T08:52:24Z</time>
      </trkpt>
      <trkpt lat="43.96373" lon="0.08441">
        <ele>147.6</ele>
        <time>2025-03-30T08:52:25Z</time>
      </trkpt>
      <trkpt lat="43.96374" lon="0.08441">
        <ele>147.6</ele>
        <time>2025-03-30T08:52:26Z</time>
      </trkpt>
      <trkpt lat="43.96374" lon="0.08441">
        <ele>147.6</ele>
        <time>2025-03-30T08:52:27Z</time>
      </trkpt>
      <trkpt lat="43.96373" lon="0.08441">
        <ele>147.6</ele>
        <time>2025-03-30T08:52:28Z</time>
      </trkpt>
      <trkpt lat="43.96373" lon="0.08441">
        <ele>147.6</ele>
        <time>2025-03-30T08:52:29Z</time>
      </trkpt>
      <trkpt lat="43.96372" lon="0.08441">
        <ele>147.6</ele>
        <time>2025-03-30T08:52:30Z</time>
      </trkpt>
      <trkpt lat="43.96371" lon="0.08439">
        <ele>147.6</ele>
        <time>2025-03-30T08:52:31Z</time>
      </trkpt>
      <trkpt lat="43.9637" lon="0.08438">
        <ele>147.6</ele>
        <time>2025-03-30T08:52:32Z</time>
      </trkpt>
      <trkpt lat="43.96368" lon="0.08438">
        <ele>147.6</ele>
        <time>2025-03-30T08:52:33Z</time>
      </trkpt>
      <trkpt lat="43.96367" lon="0.08438">
        <ele>147.6</ele>
        <time>2025-03-30T08:52:34Z</time>
      </trkpt>
      <trkpt lat="43.96365" lon="0.08439">
        <ele>147.6</ele>
        <time>2025-03-30T08:52:35Z</time>
      </trkpt>
      <trkpt lat="43.96364" lon="0.08439">
        <ele>147.6</ele>
        <time>2025-03-30T08:52:36Z</time>
      </trkpt>
      <trkpt lat="43.96363" lon="0.0844">
        <ele>147.6</ele>
        <time>2025-03-30T08:52:37Z</time>
      </trkpt>
      <trkpt lat="43.96362" lon="0.08442">
        <ele>147.6</ele>
        <time>2025-03-30T08:52:38Z</time>
      </trkpt>
      <trkpt lat="43.96361" lon="0.08442">
        <ele>147.7</ele>
        <time>2025-03-30T08:52:39Z</time>
      </trkpt>
      <trkpt lat="43.96359" lon="0.08442">
        <ele>147.7</ele>
        <time>2025-03-30T08:52:40Z</time>
      </trkpt>
      <trkpt lat="43.96358" lon="0.08442">
        <ele>147.7</ele>
        <time>2025-03-30T08:52:41Z</time>
      </trkpt>
      <trkpt lat="43.96357" lon="0.08441">
        <ele>147.7</ele>
        <time>2025-03-30T08:52:42Z</time>
      </trkpt>
      <trkpt lat="43.96358" lon="0.08438">
        <ele>147.7</ele>
        <time>2025-03-30T08:52:43Z</time>
      </trkpt>
      <trkpt lat="43.96358" lon="0.08437">
        <ele>147.7</ele>
        <time>2025-03-30T08:52:44Z</time>
      </trkpt>
      <trkpt lat="43.96359" lon="0.08436">
        <ele>147.7</ele>
        <time>2025-03-30T08:52:45Z</time>
      </trkpt>
      <trkpt lat="43.96358" lon="0.08436">
        <ele>147.8</ele>
        <time>2025-03-30T08:52:46Z</time>
      </trkpt>
      <trkpt lat="43.96357" lon="0.08437">
        <ele>147.8</ele>
        <time>2025-03-30T08:52:47Z</time>
      </trkpt>
      <trkpt lat="43.96356" lon="0.0844">
        <ele>147.8</ele>
        <time>2025-03-30T08:52:48Z</time>
      </trkpt>
      <trkpt lat="43.96356" lon="0.08442">
        <ele>147.8</ele>
        <time>2025-03-30T08:52:49Z</time>
      </trkpt>
      <trkpt lat="43.96355" lon="0.08444">
        <ele>147.8</ele>
        <time>2025-03-30T08:52:50Z</time>
      </trkpt>
      <trkpt lat="43.96355" lon="0.08445">
        <ele>147.8</ele>
        <time>2025-03-30T08:52:51Z</time>
      </trkpt>
      <trkpt lat="43.96355" lon="0.08449">
        <ele>147.8</ele>
        <time>2025-03-30T08:52:52Z</time>
      </trkpt>
      <trkpt lat="43.96354" lon="0.0845">
        <ele>147.8</ele>
        <time>2025-03-30T08:52:53Z</time>
      </trkpt>
      <trkpt lat="43.96354" lon="0.08452">
        <ele>147.8</ele>
        <time>2025-03-30T08:52:54Z</time>
      </trkpt>
      <trkpt lat="43.96354" lon="0.08454">
        <ele>147.8</ele>
        <time>2025-03-30T08:52:55Z</time>
      </trkpt>
      <trkpt lat="43.96354" lon="0.08456">
        <ele>147.8</ele>
        <time>2025-03-30T08:52:56Z</time>
      </trkpt>
      <trkpt lat="43.96353" lon="0.08459">
        <ele>147.8</ele>
        <time>2025-03-30T08:52:57Z</time>
      </trkpt>
      <trkpt lat="43.96353" lon="0.08461">
        <ele>147.8</ele>
        <time>2025-03-30T08:52:58Z</time>
      </trkpt>
      <trkpt lat="43.96352" lon="0.08463">
        <ele>147.8</ele>
        <time>2025-03-30T08:52:59Z</time>
      </trkpt>
      <trkpt lat="43.96352" lon="0.08464">
        <ele>147.8</ele>
        <time>2025-03-30T08:53:00Z</time>
      </trkpt>
      <trkpt lat="43.96352" lon="0.08466">
        <ele>147.8</ele>
        <time>2025-03-30T08:53:01Z</time>
      </trkpt>
      <trkpt lat="43.96351" lon="0.0847">
        <ele>147.9</ele>
        <time>2025-03-30T08:53:02Z</time>
      </trkpt>
      <trkpt lat="43.9635" lon="0.08471">
        <ele>147.9</ele>
        <time>2025-03-30T08:53:03Z</time>
      </trkpt>
      <trkpt lat="43.9635" lon="0.08474">
        <ele>147.9</ele>
        <time>2025-03-30T08:53:04Z</time>
      </trkpt>
      <trkpt lat="43.96349" lon="0.08475">
        <ele>147.9</ele>
        <time>2025-03-30T08:53:05Z</time>
      </trkpt>
      <trkpt lat="43.96349" lon="0.08476">
        <ele>147.9</ele>
        <time>2025-03-30T08:53:06Z</time>
      </trkpt>
      <trkpt lat="43.96348" lon="0.08478">
        <ele>147.9</ele>
        <time>2025-03-30T08:53:07Z</time>
      </trkpt>
      <trkpt lat="43.96348" lon="0.08481">
        <ele>147.9</ele>
        <time>2025-03-30T08:53:08Z</time>
      </trkpt>
      <trkpt lat="43.96347" lon="0.08483">
        <ele>147.9</ele>
        <time>2025-03-30T08:53:09Z</time>
      </trkpt>
      <trkpt lat="43.96347" lon="0.08485">
        <ele>147.9</ele>
        <time>2025-03-30T08:53:10Z</time>
      </trkpt>
      <trkpt lat="43.96346" lon="0.08486">
        <ele>147.9</ele>
        <time>2025-03-30T08:53:11Z</time>
      </trkpt>
      <trkpt lat="43.96346" lon="0.08488">
        <ele>147.9</ele>
        <time>2025-03-30T08:53:12Z</time>
      </trkpt>
      <trkpt lat="43.96345" lon="0.08491">
        <ele>148</ele>
        <time>2025-03-30T08:53:13Z</time>
      </trkpt>
      <trkpt lat="43.96344" lon="0.08493">
        <ele>148</ele>
        <time>2025-03-30T08:53:14Z</time>
      </trkpt>
      <trkpt lat="43.96344" lon="0.08494">
        <ele>148</ele>
        <time>2025-03-30T08:53:15Z</time>
      </trkpt>
      <trkpt lat="43.96344" lon="0.08495">
        <ele>148</ele>
        <time>2025-03-30T08:53:16Z</time>
      </trkpt>
      <trkpt lat="43.96343" lon="0.08497">
        <ele>148</ele>
        <time>2025-03-30T08:53:17Z</time>
      </trkpt>
      <trkpt lat="43.96343" lon="0.085">
        <ele>148</ele>
        <time>2025-03-30T08:53:18Z</time>
      </trkpt>
      <trkpt lat="43.96342" lon="0.08502">
        <ele>148</ele>
        <time>2025-03-30T08:53:19Z</time>
      </trkpt>
      <trkpt lat="43.96342" lon="0.08504">
        <ele>148</ele>
        <time>2025-03-30T08:53:20Z</time>
      </trkpt>
      <trkpt lat="43.96341" lon="0.08505">
        <ele>148</ele>
        <time>2025-03-30T08:53:21Z</time>
      </trkpt>
      <trkpt lat="43.9634" lon="0.08507">
        <ele>148.1</ele>
        <time>2025-03-30T08:53:22Z</time>
      </trkpt>
      <trkpt lat="43.9634" lon="0.08509">
        <ele>148.1</ele>
        <time>2025-03-30T08:53:23Z</time>
      </trkpt>
      <trkpt lat="43.96339" lon="0.08511">
        <ele>148.1</ele>
        <time>2025-03-30T08:53:24Z</time>
      </trkpt>
      <trkpt lat="43.96338" lon="0.08512">
        <ele>148.1</ele>
        <time>2025-03-30T08:53:25Z</time>
      </trkpt>
      <trkpt lat="43.96337" lon="0.08514">
        <ele>148.1</ele>
        <time>2025-03-30T08:53:26Z</time>
      </trkpt>
      <trkpt lat="43.96337" lon="0.08516">
        <ele>148.1</ele>
        <time>2025-03-30T08:53:27Z</time>
      </trkpt>
      <trkpt lat="43.96336" lon="0.08518">
        <ele>148.1</ele>
        <time>2025-03-30T08:53:28Z</time>
      </trkpt>
      <trkpt lat="43.96336" lon="0.08519">
        <ele>148.1</ele>
        <time>2025-03-30T08:53:29Z</time>
      </trkpt>
      <trkpt lat="43.96335" lon="0.08522">
        <ele>148.1</ele>
        <time>2025-03-30T08:53:30Z</time>
      </trkpt>
      <trkpt lat="43.96334" lon="0.08523">
        <ele>148.2</ele>
        <time>2025-03-30T08:53:31Z</time>
      </trkpt>
      <trkpt lat="43.96334" lon="0.08524">
        <ele>148.2</ele>
        <time>2025-03-30T08:53:32Z</time>
      </trkpt>
      <trkpt lat="43.96333" lon="0.08525">
        <ele>148.2</ele>
        <time>2025-03-30T08:53:33Z</time>
      </trkpt>
      <trkpt lat="43.96333" lon="0.08527">
        <ele>148.2</ele>
        <time>2025-03-30T08:53:34Z</time>
      </trkpt>
      <trkpt lat="43.96332" lon="0.08529">
        <ele>148.2</ele>
        <time>2025-03-30T08:53:35Z</time>
      </trkpt>
      <trkpt lat="43.96332" lon="0.08531">
        <ele>148.2</ele>
        <time>2025-03-30T08:53:36Z</time>
      </trkpt>
      <trkpt lat="43.96331" lon="0.08534">
        <ele>148.2</ele>
        <time>2025-03-30T08:53:37Z</time>
      </trkpt>
      <trkpt lat="43.9633" lon="0.08535">
        <ele>148.2</ele>
        <time>2025-03-30T08:53:38Z</time>
      </trkpt>
      <trkpt lat="43.9633" lon="0.08536">
        <ele>148.2</ele>
        <time>2025-03-30T08:53:39Z</time>
      </trkpt>
      <trkpt lat="43.96329" lon="0.08539">
        <ele>148.3</ele>
        <time>2025-03-30T08:53:40Z</time>
      </trkpt>
      <trkpt lat="43.96328" lon="0.0854">
        <ele>148.3</ele>
        <time>2025-03-30T08:53:41Z</time>
      </trkpt>
      <trkpt lat="43.96328" lon="0.08541">
        <ele>148.3</ele>
        <time>2025-03-30T08:53:42Z</time>
      </trkpt>
      <trkpt lat="43.96327" lon="0.08543">
        <ele>148.3</ele>
        <time>2025-03-30T08:53:43Z</time>
      </trkpt>
      <trkpt lat="43.96326" lon="0.08544">
        <ele>148.3</ele>
        <time>2025-03-30T08:53:44Z</time>
      </trkpt>
      <trkpt lat="43.96325" lon="0.08547">
        <ele>148.3</ele>
        <time>2025-03-30T08:53:45Z</time>
      </trkpt>
      <trkpt lat="43.96325" lon="0.08548">
        <ele>148.3</ele>
        <time>2025-03-30T08:53:46Z</time>
      </trkpt>
      <trkpt lat="43.96324" lon="0.08549">
        <ele>148.3</ele>
        <time>2025-03-30T08:53:47Z</time>
      </trkpt>
      <trkpt lat="43.96323" lon="0.08552">
        <ele>148.3</ele>
        <time>2025-03-30T08:53:48Z</time>
      </trkpt>
      <trkpt lat="43.96323" lon="0.08553">
        <ele>148.3</ele>
        <time>2025-03-30T08:53:49Z</time>
      </trkpt>
      <trkpt lat="43.96322" lon="0.08555">
        <ele>148.4</ele>
        <time>2025-03-30T08:53:50Z</time>
      </trkpt>
      <trkpt lat="43.96322" lon="0.08557">
        <ele>148.4</ele>
        <time>2025-03-30T08:53:51Z</time>
      </trkpt>
      <trkpt lat="43.96321" lon="0.08559">
        <ele>148.4</ele>
        <time>2025-03-30T08:53:52Z</time>
      </trkpt>
      <trkpt lat="43.9632" lon="0.08561">
        <ele>148.4</ele>
        <time>2025-03-30T08:53:53Z</time>
      </trkpt>
      <trkpt lat="43.9632" lon="0.08562">
        <ele>148.4</ele>
        <time>2025-03-30T08:53:54Z</time>
      </trkpt>
      <trkpt lat="43.96319" lon="0.08564">
        <ele>148.4</ele>
        <time>2025-03-30T08:53:55Z</time>
      </trkpt>
      <trkpt lat="43.96319" lon="0.08566">
        <ele>148.4</ele>
        <time>2025-03-30T08:53:56Z</time>
      </trkpt>
      <trkpt lat="43.96318" lon="0.08568">
        <ele>148.4</ele>
        <time>2025-03-30T08:53:57Z</time>
      </trkpt>
      <trkpt lat="43.96318" lon="0.08569">
        <ele>148.4</ele>
        <time>2025-03-30T08:53:58Z</time>
      </trkpt>
      <trkpt lat="43.96317" lon="0.08571">
        <ele>148.5</ele>
        <time>2025-03-30T08:53:59Z</time>
      </trkpt>
      <trkpt lat="43.96316" lon="0.08574">
        <ele>148.5</ele>
        <time>2025-03-30T08:54:00Z</time>
      </trkpt>
      <trkpt lat="43.96316" lon="0.08575">
        <ele>148.5</ele>
        <time>2025-03-30T08:54:01Z</time>
      </trkpt>
      <trkpt lat="43.96316" lon="0.08576">
        <ele>148.5</ele>
        <time>2025-03-30T08:54:02Z</time>
      </trkpt>
      <trkpt lat="43.96315" lon="0.08578">
        <ele>148.5</ele>
        <time>2025-03-30T08:54:03Z</time>
      </trkpt>
      <trkpt lat="43.96315" lon="0.0858">
        <ele>148.5</ele>
        <time>2025-03-30T08:54:04Z</time>
      </trkpt>
      <trkpt lat="43.96314" lon="0.08582">
        <ele>148.5</ele>
        <time>2025-03-30T08:54:05Z</time>
      </trkpt>
      <trkpt lat="43.96313" lon="0.08583">
        <ele>148.5</ele>
        <time>2025-03-30T08:54:06Z</time>
      </trkpt>
      <trkpt lat="43.96313" lon="0.08585">
        <ele>148.5</ele>
        <time>2025-03-30T08:54:07Z</time>
      </trkpt>
      <trkpt lat="43.96311" lon="0.08587">
        <ele>148.5</ele>
        <time>2025-03-30T08:54:08Z</time>
      </trkpt>
      <trkpt lat="43.96311" lon="0.08588">
        <ele>148.6</ele>
        <time>2025-03-30T08:54:09Z</time>
      </trkpt>
      <trkpt lat="43.9631" lon="0.08589">
        <ele>148.6</ele>
        <time>2025-03-30T08:54:10Z</time>
      </trkpt>
      <trkpt lat="43.96309" lon="0.08592">
        <ele>148.6</ele>
        <time>2025-03-30T08:54:11Z</time>
      </trkpt>
      <trkpt lat="43.96309" lon="0.08592">
        <ele>148.6</ele>
        <time>2025-03-30T08:54:12Z</time>
      </trkpt>
      <trkpt lat="43.96308" lon="0.08593">
        <ele>148.6</ele>
        <time>2025-03-30T08:54:13Z</time>
      </trkpt>
      <trkpt lat="43.96307" lon="0.08595">
        <ele>148.6</ele>
        <time>2025-03-30T08:54:14Z</time>
      </trkpt>
      <trkpt lat="43.96307" lon="0.08597">
        <ele>148.6</ele>
        <time>2025-03-30T08:54:15Z</time>
      </trkpt>
      <trkpt lat="43.96306" lon="0.08598">
        <ele>148.6</ele>
        <time>2025-03-30T08:54:16Z</time>
      </trkpt>
      <trkpt lat="43.96305" lon="0.086">
        <ele>148.6</ele>
        <time>2025-03-30T08:54:17Z</time>
      </trkpt>
      <trkpt lat="43.96305" lon="0.08602">
        <ele>148.6</ele>
        <time>2025-03-30T08:54:18Z</time>
      </trkpt>
      <trkpt lat="43.96304" lon="0.08603">
        <ele>148.6</ele>
        <time>2025-03-30T08:54:19Z</time>
      </trkpt>
      <trkpt lat="43.96304" lon="0.08605">
        <ele>148.6</ele>
        <time>2025-03-30T08:54:20Z</time>
      </trkpt>
      <trkpt lat="43.96303" lon="0.08607">
        <ele>148.7</ele>
        <time>2025-03-30T08:54:21Z</time>
      </trkpt>
      <trkpt lat="43.96303" lon="0.08609">
        <ele>148.7</ele>
        <time>2025-03-30T08:54:22Z</time>
      </trkpt>
      <trkpt lat="43.96302" lon="0.0861">
        <ele>148.7</ele>
        <time>2025-03-30T08:54:23Z</time>
      </trkpt>
      <trkpt lat="43.96301" lon="0.08613">
        <ele>148.7</ele>
        <time>2025-03-30T08:54:24Z</time>
      </trkpt>
      <trkpt lat="43.96301" lon="0.08614">
        <ele>148.7</ele>
        <time>2025-03-30T08:54:25Z</time>
      </trkpt>
      <trkpt lat="43.963" lon="0.08615">
        <ele>148.7</ele>
        <time>2025-03-30T08:54:26Z</time>
      </trkpt>
      <trkpt lat="43.96299" lon="0.08616">
        <ele>148.7</ele>
        <time>2025-03-30T08:54:27Z</time>
      </trkpt>
      <trkpt lat="43.96299" lon="0.08619">
        <ele>148.7</ele>
        <time>2025-03-30T08:54:28Z</time>
      </trkpt>
      <trkpt lat="43.96298" lon="0.08622">
        <ele>148.7</ele>
        <time>2025-03-30T08:54:29Z</time>
      </trkpt>
      <trkpt lat="43.96297" lon="0.08623">
        <ele>148.7</ele>
        <time>2025-03-30T08:54:30Z</time>
      </trkpt>
      <trkpt lat="43.96297" lon="0.08625">
        <ele>148.8</ele>
        <time>2025-03-30T08:54:31Z</time>
      </trkpt>
      <trkpt lat="43.96296" lon="0.08626">
        <ele>148.8</ele>
        <time>2025-03-30T08:54:32Z</time>
      </trkpt>
      <trkpt lat="43.96296" lon="0.08628">
        <ele>148.8</ele>
        <time>2025-03-30T08:54:33Z</time>
      </trkpt>
      <trkpt lat="43.96295" lon="0.08629">
        <ele>148.8</ele>
        <time>2025-03-30T08:54:34Z</time>
      </trkpt>
      <trkpt lat="43.96295" lon="0.08631">
        <ele>148.8</ele>
        <time>2025-03-30T08:54:35Z</time>
      </trkpt>
      <trkpt lat="43.96295" lon="0.08633">
        <ele>148.8</ele>
        <time>2025-03-30T08:54:36Z</time>
      </trkpt>
      <trkpt lat="43.96295" lon="0.08635">
        <ele>148.8</ele>
        <time>2025-03-30T08:54:37Z</time>
      </trkpt>
      <trkpt lat="43.96295" lon="0.08637">
        <ele>148.8</ele>
        <time>2025-03-30T08:54:38Z</time>
      </trkpt>
      <trkpt lat="43.96294" lon="0.08639">
        <ele>148.8</ele>
        <time>2025-03-30T08:54:39Z</time>
      </trkpt>
      <trkpt lat="43.96293" lon="0.0864">
        <ele>148.8</ele>
        <time>2025-03-30T08:54:40Z</time>
      </trkpt>
      <trkpt lat="43.96292" lon="0.08641">
        <ele>148.9</ele>
        <time>2025-03-30T08:54:41Z</time>
      </trkpt>
      <trkpt lat="43.96289" lon="0.08646">
        <ele>148.9</ele>
        <time>2025-03-30T08:54:43Z</time>
      </trkpt>
      <trkpt lat="43.96288" lon="0.08648">
        <ele>148.9</ele>
        <time>2025-03-30T08:54:44Z</time>
      </trkpt>
      <trkpt lat="43.96288" lon="0.08649">
        <ele>148.9</ele>
        <time>2025-03-30T08:54:45Z</time>
      </trkpt>
      <trkpt lat="43.96287" lon="0.08653">
        <ele>148.9</ele>
        <time>2025-03-30T08:54:46Z</time>
      </trkpt>
      <trkpt lat="43.96286" lon="0.08654">
        <ele>148.9</ele>
        <time>2025-03-30T08:54:47Z</time>
      </trkpt>
      <trkpt lat="43.96285" lon="0.08658">
        <ele>149</ele>
        <time>2025-03-30T08:54:48Z</time>
      </trkpt>
      <trkpt lat="43.96285" lon="0.08659">
        <ele>149</ele>
        <time>2025-03-30T08:54:49Z</time>
      </trkpt>
      <trkpt lat="43.96284" lon="0.08661">
        <ele>149</ele>
        <time>2025-03-30T08:54:50Z</time>
      </trkpt>
      <trkpt lat="43.96283" lon="0.08663">
        <ele>149</ele>
        <time>2025-03-30T08:54:51Z</time>
      </trkpt>
      <trkpt lat="43.96282" lon="0.08665">
        <ele>149</ele>
        <time>2025-03-30T08:54:52Z</time>
      </trkpt>
      <trkpt lat="43.96281" lon="0.08666">
        <ele>149</ele>
        <time>2025-03-30T08:54:53Z</time>
      </trkpt>
      <trkpt lat="43.96281" lon="0.08667">
        <ele>149</ele>
        <time>2025-03-30T08:54:54Z</time>
      </trkpt>
      <trkpt lat="43.9628" lon="0.08669">
        <ele>149</ele>
        <time>2025-03-30T08:54:55Z</time>
      </trkpt>
      <trkpt lat="43.96279" lon="0.08669">
        <ele>149</ele>
        <time>2025-03-30T08:54:56Z</time>
      </trkpt>
      <trkpt lat="43.96278" lon="0.08669">
        <ele>149</ele>
        <time>2025-03-30T08:54:58Z</time>
      </trkpt>
      <trkpt lat="43.96276" lon="0.08671">
        <ele>149.1</ele>
        <time>2025-03-30T08:55:00Z</time>
      </trkpt>
      <trkpt lat="43.96274" lon="0.0867">
        <ele>149.1</ele>
        <time>2025-03-30T08:55:01Z</time>
      </trkpt>
      <trkpt lat="43.96273" lon="0.08671">
        <ele>149.1</ele>
        <time>2025-03-30T08:55:02Z</time>
      </trkpt>
      <trkpt lat="43.96272" lon="0.08671">
        <ele>149.1</ele>
        <time>2025-03-30T08:55:03Z</time>
      </trkpt>
      <trkpt lat="43.96271" lon="0.08672">
        <ele>149.1</ele>
        <time>2025-03-30T08:55:04Z</time>
      </trkpt>
      <trkpt lat="43.9627" lon="0.08674">
        <ele>149.1</ele>
        <time>2025-03-30T08:55:05Z</time>
      </trkpt>
      <trkpt lat="43.96269" lon="0.08675">
        <ele>149.1</ele>
        <time>2025-03-30T08:55:06Z</time>
      </trkpt>
      <trkpt lat="43.96269" lon="0.08676">
        <ele>149.1</ele>
        <time>2025-03-30T08:55:07Z</time>
      </trkpt>
      <trkpt lat="43.96268" lon="0.08676">
        <ele>149.1</ele>
        <time>2025-03-30T08:55:08Z</time>
      </trkpt>
      <trkpt lat="43.96267" lon="0.08677">
        <ele>149.1</ele>
        <time>2025-03-30T08:55:09Z</time>
      </trkpt>
      <trkpt lat="43.96266" lon="0.08679">
        <ele>149.1</ele>
        <time>2025-03-30T08:55:10Z</time>
      </trkpt>
      <trkpt lat="43.96265" lon="0.08682">
        <ele>149.1</ele>
        <time>2025-03-30T08:55:11Z</time>
      </trkpt>
      <trkpt lat="43.96265" lon="0.08683">
        <ele>149</ele>
        <time>2025-03-30T08:55:12Z</time>
      </trkpt>
      <trkpt lat="43.96264" lon="0.08684">
        <ele>149</ele>
        <time>2025-03-30T08:55:13Z</time>
      </trkpt>
      <trkpt lat="43.96264" lon="0.08685">
        <ele>149</ele>
        <time>2025-03-30T08:55:14Z</time>
      </trkpt>
      <trkpt lat="43.96264" lon="0.08687">
        <ele>149</ele>
        <time>2025-03-30T08:55:15Z</time>
      </trkpt>
      <trkpt lat="43.96262" lon="0.0869">
        <ele>149</ele>
        <time>2025-03-30T08:55:17Z</time>
      </trkpt>
      <trkpt lat="43.96262" lon="0.08691">
        <ele>149</ele>
        <time>2025-03-30T08:55:18Z</time>
      </trkpt>
      <trkpt lat="43.96261" lon="0.08692">
        <ele>149</ele>
        <time>2025-03-30T08:55:19Z</time>
      </trkpt>
      <trkpt lat="43.96261" lon="0.08694">
        <ele>149</ele>
        <time>2025-03-30T08:55:20Z</time>
      </trkpt>
      <trkpt lat="43.9626" lon="0.08695">
        <ele>149</ele>
        <time>2025-03-30T08:55:21Z</time>
      </trkpt>
      <trkpt lat="43.9626" lon="0.08696">
        <ele>149</ele>
        <time>2025-03-30T08:55:22Z</time>
      </trkpt>
      <trkpt lat="43.96259" lon="0.08698">
        <ele>149</ele>
        <time>2025-03-30T08:55:23Z</time>
      </trkpt>
      <trkpt lat="43.96259" lon="0.087">
        <ele>149</ele>
        <time>2025-03-30T08:55:24Z</time>
      </trkpt>
      <trkpt lat="43.96259" lon="0.08701">
        <ele>149</ele>
        <time>2025-03-30T08:55:25Z</time>
      </trkpt>
      <trkpt lat="43.96259" lon="0.08703">
        <ele>149</ele>
        <time>2025-03-30T08:55:26Z</time>
      </trkpt>
      <trkpt lat="43.96258" lon="0.08704">
        <ele>149</ele>
        <time>2025-03-30T08:55:27Z</time>
      </trkpt>
      <trkpt lat="43.96257" lon="0.08708">
        <ele>149</ele>
        <time>2025-03-30T08:55:29Z</time>
      </trkpt>
      <trkpt lat="43.96257" lon="0.08709">
        <ele>149</ele>
        <time>2025-03-30T08:55:30Z</time>
      </trkpt>
      <trkpt lat="43.96256" lon="0.08711">
        <ele>149</ele>
        <time>2025-03-30T08:55:31Z</time>
      </trkpt>
      <trkpt lat="43.96255" lon="0.08712">
        <ele>149</ele>
        <time>2025-03-30T08:55:32Z</time>
      </trkpt>
      <trkpt lat="43.96255" lon="0.08714">
        <ele>149</ele>
        <time>2025-03-30T08:55:33Z</time>
      </trkpt>
      <trkpt lat="43.96254" lon="0.08716">
        <ele>149</ele>
        <time>2025-03-30T08:55:34Z</time>
      </trkpt>
      <trkpt lat="43.96253" lon="0.08719">
        <ele>149</ele>
        <time>2025-03-30T08:55:35Z</time>
      </trkpt>
      <trkpt lat="43.96253" lon="0.0872">
        <ele>149</ele>
        <time>2025-03-30T08:55:36Z</time>
      </trkpt>
      <trkpt lat="43.96253" lon="0.08721">
        <ele>149</ele>
        <time>2025-03-30T08:55:37Z</time>
      </trkpt>
      <trkpt lat="43.96251" lon="0.08725">
        <ele>149</ele>
        <time>2025-03-30T08:55:38Z</time>
      </trkpt>
      <trkpt lat="43.9625" lon="0.08727">
        <ele>149</ele>
        <time>2025-03-30T08:55:40Z</time>
      </trkpt>
      <trkpt lat="43.9625" lon="0.08728">
        <ele>149</ele>
        <time>2025-03-30T08:55:42Z</time>
      </trkpt>
      <trkpt lat="43.96249" lon="0.0873">
        <ele>149</ele>
        <time>2025-03-30T08:55:43Z</time>
      </trkpt>
      <trkpt lat="43.96248" lon="0.08732">
        <ele>149</ele>
        <time>2025-03-30T08:55:44Z</time>
      </trkpt>
      <trkpt lat="43.96246" lon="0.08735">
        <ele>149.1</ele>
        <time>2025-03-30T08:55:46Z</time>
      </trkpt>
      <trkpt lat="43.96245" lon="0.08736">
        <ele>149.1</ele>
        <time>2025-03-30T08:55:47Z</time>
      </trkpt>
      <trkpt lat="43.96243" lon="0.08738">
        <ele>149.1</ele>
        <time>2025-03-30T08:55:48Z</time>
      </trkpt>
      <trkpt lat="43.96243" lon="0.08739">
        <ele>149.1</ele>
        <time>2025-03-30T08:55:49Z</time>
      </trkpt>
      <trkpt lat="43.96242" lon="0.0874">
        <ele>149.1</ele>
        <time>2025-03-30T08:55:50Z</time>
      </trkpt>
      <trkpt lat="43.96241" lon="0.08742">
        <ele>149.2</ele>
        <time>2025-03-30T08:55:51Z</time>
      </trkpt>
      <trkpt lat="43.96241" lon="0.08743">
        <ele>149.2</ele>
        <time>2025-03-30T08:55:52Z</time>
      </trkpt>
      <trkpt lat="43.96241" lon="0.08745">
        <ele>149.2</ele>
        <time>2025-03-30T08:55:53Z</time>
      </trkpt>
      <trkpt lat="43.96241" lon="0.08748">
        <ele>149.2</ele>
        <time>2025-03-30T08:55:54Z</time>
      </trkpt>
      <trkpt lat="43.96241" lon="0.08749">
        <ele>149.2</ele>
        <time>2025-03-30T08:55:55Z</time>
      </trkpt>
      <trkpt lat="43.96241" lon="0.08751">
        <ele>149.3</ele>
        <time>2025-03-30T08:55:56Z</time>
      </trkpt>
      <trkpt lat="43.9624" lon="0.08753">
        <ele>149.3</ele>
        <time>2025-03-30T08:55:57Z</time>
      </trkpt>
      <trkpt lat="43.96239" lon="0.08758">
        <ele>149.4</ele>
        <time>2025-03-30T08:55:59Z</time>
      </trkpt>
      <trkpt lat="43.96238" lon="0.08762">
        <ele>149.5</ele>
        <time>2025-03-30T08:56:01Z</time>
      </trkpt>
      <trkpt lat="43.96238" lon="0.08763">
        <ele>149.5</ele>
        <time>2025-03-30T08:56:02Z</time>
      </trkpt>
      <trkpt lat="43.96237" lon="0.08764">
        <ele>149.5</ele>
        <time>2025-03-30T08:56:03Z</time>
      </trkpt>
      <trkpt lat="43.96236" lon="0.08765">
        <ele>149.6</ele>
        <time>2025-03-30T08:56:04Z</time>
      </trkpt>
      <trkpt lat="43.96235" lon="0.08766">
        <ele>149.6</ele>
        <time>2025-03-30T08:56:05Z</time>
      </trkpt>
      <trkpt lat="43.96235" lon="0.08768">
        <ele>149.6</ele>
        <time>2025-03-30T08:56:06Z</time>
      </trkpt>
      <trkpt lat="43.96234" lon="0.08769">
        <ele>149.6</ele>
        <time>2025-03-30T08:56:07Z</time>
      </trkpt>
      <trkpt lat="43.96233" lon="0.08771">
        <ele>149.7</ele>
        <time>2025-03-30T08:56:08Z</time>
      </trkpt>
      <trkpt lat="43.96232" lon="0.08772">
        <ele>149.8</ele>
        <time>2025-03-30T08:56:09Z</time>
      </trkpt>
      <trkpt lat="43.96231" lon="0.08775">
        <ele>149.8</ele>
        <time>2025-03-30T08:56:10Z</time>
      </trkpt>
      <trkpt lat="43.96231" lon="0.08777">
        <ele>149.9</ele>
        <time>2025-03-30T08:56:11Z</time>
      </trkpt>
      <trkpt lat="43.96231" lon="0.08778">
        <ele>149.9</ele>
        <time>2025-03-30T08:56:12Z</time>
      </trkpt>
      <trkpt lat="43.96231" lon="0.0878">
        <ele>150</ele>
        <time>2025-03-30T08:56:13Z</time>
      </trkpt>
      <trkpt lat="43.96232" lon="0.08782">
        <ele>150.1</ele>
        <time>2025-03-30T08:56:14Z</time>
      </trkpt>
      <trkpt lat="43.96233" lon="0.08784">
        <ele>150.1</ele>
        <time>2025-03-30T08:56:15Z</time>
      </trkpt>
      <trkpt lat="43.96234" lon="0.08786">
        <ele>150.1</ele>
        <time>2025-03-30T08:56:16Z</time>
      </trkpt>
      <trkpt lat="43.96236" lon="0.08787">
        <ele>150.1</ele>
        <time>2025-03-30T08:56:17Z</time>
      </trkpt>
      <trkpt lat="43.96237" lon="0.08787">
        <ele>150.1</ele>
        <time>2025-03-30T08:56:18Z</time>
      </trkpt>
      <trkpt lat="43.96239" lon="0.08787">
        <ele>150.2</ele>
        <time>2025-03-30T08:56:19Z</time>
      </trkpt>
      <trkpt lat="43.9624" lon="0.08787">
        <ele>150.2</ele>
        <time>2025-03-30T08:56:20Z</time>
      </trkpt>
      <trkpt lat="43.96242" lon="0.08787">
        <ele>150.2</ele>
        <time>2025-03-30T08:56:21Z</time>
      </trkpt>
      <trkpt lat="43.96243" lon="0.08788">
        <ele>150.2</ele>
        <time>2025-03-30T08:56:22Z</time>
      </trkpt>
      <trkpt lat="43.96245" lon="0.08789">
        <ele>150.2</ele>
        <time>2025-03-30T08:56:23Z</time>
      </trkpt>
      <trkpt lat="43.96246" lon="0.0879">
        <ele>150.2</ele>
        <time>2025-03-30T08:56:24Z</time>
      </trkpt>
      <trkpt lat="43.96248" lon="0.08791">
        <ele>150.3</ele>
        <time>2025-03-30T08:56:25Z</time>
      </trkpt>
      <trkpt lat="43.96249" lon="0.08792">
        <ele>150.3</ele>
        <time>2025-03-30T08:56:26Z</time>
      </trkpt>
      <trkpt lat="43.96251" lon="0.08793">
        <ele>150.3</ele>
        <time>2025-03-30T08:56:27Z</time>
      </trkpt>
      <trkpt lat="43.96252" lon="0.08794">
        <ele>150.3</ele>
        <time>2025-03-30T08:56:28Z</time>
      </trkpt>
      <trkpt lat="43.96253" lon="0.08795">
        <ele>150.3</ele>
        <time>2025-03-30T08:56:29Z</time>
      </trkpt>
      <trkpt lat="43.96254" lon="0.08796">
        <ele>150.3</ele>
        <time>2025-03-30T08:56:30Z</time>
      </trkpt>
      <trkpt lat="43.96257" lon="0.08796">
        <ele>150.3</ele>
        <time>2025-03-30T08:56:31Z</time>
      </trkpt>
      <trkpt lat="43.96257" lon="0.08796">
        <ele>150.3</ele>
        <time>2025-03-30T08:56:32Z</time>
      </trkpt>
      <trkpt lat="43.96258" lon="0.08797">
        <ele>150.3</ele>
        <time>2025-03-30T08:56:33Z</time>
      </trkpt>
      <trkpt lat="43.96259" lon="0.08799">
        <ele>150.4</ele>
        <time>2025-03-30T08:56:34Z</time>
      </trkpt>
      <trkpt lat="43.96259" lon="0.088">
        <ele>150.4</ele>
        <time>2025-03-30T08:56:35Z</time>
      </trkpt>
      <trkpt lat="43.9626" lon="0.08801">
        <ele>150.4</ele>
        <time>2025-03-30T08:56:36Z</time>
      </trkpt>
      <trkpt lat="43.9626" lon="0.08803">
        <ele>150.4</ele>
        <time>2025-03-30T08:56:37Z</time>
      </trkpt>
      <trkpt lat="43.9626" lon="0.08804">
        <ele>150.4</ele>
        <time>2025-03-30T08:56:38Z</time>
      </trkpt>
      <trkpt lat="43.96261" lon="0.08805">
        <ele>150.4</ele>
        <time>2025-03-30T08:56:39Z</time>
      </trkpt>
      <trkpt lat="43.96262" lon="0.08807">
        <ele>150.4</ele>
        <time>2025-03-30T08:56:40Z</time>
      </trkpt>
      <trkpt lat="43.96262" lon="0.08809">
        <ele>150.4</ele>
        <time>2025-03-30T08:56:41Z</time>
      </trkpt>
      <trkpt lat="43.96262" lon="0.08812">
        <ele>150.4</ele>
        <time>2025-03-30T08:56:42Z</time>
      </trkpt>
      <trkpt lat="43.96262" lon="0.08814">
        <ele>150.4</ele>
        <time>2025-03-30T08:56:43Z</time>
      </trkpt>
      <trkpt lat="43.96262" lon="0.08816">
        <ele>150.4</ele>
        <time>2025-03-30T08:56:44Z</time>
      </trkpt>
      <trkpt lat="43.96261" lon="0.08818">
        <ele>150.4</ele>
        <time>2025-03-30T08:56:45Z</time>
      </trkpt>
      <trkpt lat="43.96261" lon="0.08821">
        <ele>150.4</ele>
        <time>2025-03-30T08:56:47Z</time>
      </trkpt>
      <trkpt lat="43.9626" lon="0.08822">
        <ele>150.4</ele>
        <time>2025-03-30T08:56:48Z</time>
      </trkpt>
      <trkpt lat="43.96259" lon="0.08824">
        <ele>150.4</ele>
        <time>2025-03-30T08:56:49Z</time>
      </trkpt>
      <trkpt lat="43.96258" lon="0.08828">
        <ele>150.4</ele>
        <time>2025-03-30T08:56:51Z</time>
      </trkpt>
      <trkpt lat="43.96257" lon="0.0883">
        <ele>150.4</ele>
        <time>2025-03-30T08:56:52Z</time>
      </trkpt>
      <trkpt lat="43.96256" lon="0.08832">
        <ele>150.4</ele>
        <time>2025-03-30T08:56:53Z</time>
      </trkpt>
      <trkpt lat="43.96256" lon="0.08834">
        <ele>150.4</ele>
        <time>2025-03-30T08:56:54Z</time>
      </trkpt>
      <trkpt lat="43.96256" lon="0.08835">
        <ele>150.4</ele>
        <time>2025-03-30T08:56:55Z</time>
      </trkpt>
      <trkpt lat="43.96256" lon="0.08839">
        <ele>150.4</ele>
        <time>2025-03-30T08:56:57Z</time>
      </trkpt>
      <trkpt lat="43.96257" lon="0.0884">
        <ele>150.4</ele>
        <time>2025-03-30T08:56:58Z</time>
      </trkpt>
      <trkpt lat="43.96257" lon="0.08842">
        <ele>150.4</ele>
        <time>2025-03-30T08:56:59Z</time>
      </trkpt>
      <trkpt lat="43.96257" lon="0.08844">
        <ele>150.3</ele>
        <time>2025-03-30T08:57:00Z</time>
      </trkpt>
      <trkpt lat="43.96257" lon="0.08846">
        <ele>150.3</ele>
        <time>2025-03-30T08:57:02Z</time>
      </trkpt>
      <trkpt lat="43.96257" lon="0.0885">
        <ele>150.3</ele>
        <time>2025-03-30T08:57:03Z</time>
      </trkpt>
      <trkpt lat="43.96256" lon="0.08853">
        <ele>150.3</ele>
        <time>2025-03-30T08:57:04Z</time>
      </trkpt>
      <trkpt lat="43.96256" lon="0.08854">
        <ele>150.3</ele>
        <time>2025-03-30T08:57:05Z</time>
      </trkpt>
      <trkpt lat="43.96256" lon="0.08855">
        <ele>150.3</ele>
        <time>2025-03-30T08:57:06Z</time>
      </trkpt>
      <trkpt lat="43.96256" lon="0.08857">
        <ele>150.3</ele>
        <time>2025-03-30T08:57:07Z</time>
      </trkpt>
      <trkpt lat="43.96255" lon="0.08861">
        <ele>150.3</ele>
        <time>2025-03-30T08:57:09Z</time>
      </trkpt>
      <trkpt lat="43.96255" lon="0.08864">
        <ele>150.3</ele>
        <time>2025-03-30T08:57:10Z</time>
      </trkpt>
      <trkpt lat="43.96254" lon="0.08865">
        <ele>150.3</ele>
        <time>2025-03-30T08:57:11Z</time>
      </trkpt>
      <trkpt lat="43.96254" lon="0.08867">
        <ele>150.3</ele>
        <time>2025-03-30T08:57:12Z</time>
      </trkpt>
      <trkpt lat="43.96254" lon="0.08869">
        <ele>150.3</ele>
        <time>2025-03-30T08:57:13Z</time>
      </trkpt>
      <trkpt lat="43.96254" lon="0.0887">
        <ele>150.4</ele>
        <time>2025-03-30T08:57:14Z</time>
      </trkpt>
      <trkpt lat="43.96254" lon="0.08873">
        <ele>150.4</ele>
        <time>2025-03-30T08:57:15Z</time>
      </trkpt>
      <trkpt lat="43.96254" lon="0.08874">
        <ele>150.4</ele>
        <time>2025-03-30T08:57:16Z</time>
      </trkpt>
      <trkpt lat="43.96253" lon="0.08876">
        <ele>150.4</ele>
        <time>2025-03-30T08:57:17Z</time>
      </trkpt>
      <trkpt lat="43.96253" lon="0.08878">
        <ele>150.4</ele>
        <time>2025-03-30T08:57:18Z</time>
      </trkpt>
      <trkpt lat="43.96253" lon="0.0888">
        <ele>150.4</ele>
        <time>2025-03-30T08:57:19Z</time>
      </trkpt>
      <trkpt lat="43.96253" lon="0.08882">
        <ele>150.4</ele>
        <time>2025-03-30T08:57:20Z</time>
      </trkpt>
      <trkpt lat="43.96252" lon="0.08885">
        <ele>150.5</ele>
        <time>2025-03-30T08:57:21Z</time>
      </trkpt>
      <trkpt lat="43.96252" lon="0.08886">
        <ele>150.5</ele>
        <time>2025-03-30T08:57:22Z</time>
      </trkpt>
      <trkpt lat="43.96252" lon="0.08887">
        <ele>150.5</ele>
        <time>2025-03-30T08:57:23Z</time>
      </trkpt>
      <trkpt lat="43.96252" lon="0.08889">
        <ele>150.5</ele>
        <time>2025-03-30T08:57:24Z</time>
      </trkpt>
      <trkpt lat="43.96251" lon="0.08892">
        <ele>150.6</ele>
        <time>2025-03-30T08:57:25Z</time>
      </trkpt>
      <trkpt lat="43.96251" lon="0.08893">
        <ele>150.6</ele>
        <time>2025-03-30T08:57:26Z</time>
      </trkpt>
      <trkpt lat="43.96251" lon="0.08897">
        <ele>150.6</ele>
        <time>2025-03-30T08:57:28Z</time>
      </trkpt>
      <trkpt lat="43.96251" lon="0.089">
        <ele>150.6</ele>
        <time>2025-03-30T08:57:29Z</time>
      </trkpt>
      <trkpt lat="43.96251" lon="0.08901">
        <ele>150.7</ele>
        <time>2025-03-30T08:57:30Z</time>
      </trkpt>
      <trkpt lat="43.96251" lon="0.08902">
        <ele>150.7</ele>
        <time>2025-03-30T08:57:31Z</time>
      </trkpt>
      <trkpt lat="43.96251" lon="0.08905">
        <ele>150.7</ele>
        <time>2025-03-30T08:57:32Z</time>
      </trkpt>
      <trkpt lat="43.96251" lon="0.08906">
        <ele>150.7</ele>
        <time>2025-03-30T08:57:33Z</time>
      </trkpt>
      <trkpt lat="43.96251" lon="0.08908">
        <ele>150.7</ele>
        <time>2025-03-30T08:57:34Z</time>
      </trkpt>
      <trkpt lat="43.96251" lon="0.08911">
        <ele>150.8</ele>
        <time>2025-03-30T08:57:35Z</time>
      </trkpt>
      <trkpt lat="43.96251" lon="0.08912">
        <ele>150.8</ele>
        <time>2025-03-30T08:57:36Z</time>
      </trkpt>
      <trkpt lat="43.96251" lon="0.08915">
        <ele>150.8</ele>
        <time>2025-03-30T08:57:37Z</time>
      </trkpt>
      <trkpt lat="43.96251" lon="0.08916">
        <ele>150.8</ele>
        <time>2025-03-30T08:57:38Z</time>
      </trkpt>
      <trkpt lat="43.96251" lon="0.08917">
        <ele>150.8</ele>
        <time>2025-03-30T08:57:39Z</time>
      </trkpt>
      <trkpt lat="43.9625" lon="0.0892">
        <ele>150.9</ele>
        <time>2025-03-30T08:57:40Z</time>
      </trkpt>
      <trkpt lat="43.9625" lon="0.08921">
        <ele>150.9</ele>
        <time>2025-03-30T08:57:41Z</time>
      </trkpt>
      <trkpt lat="43.9625" lon="0.08922">
        <ele>150.9</ele>
        <time>2025-03-30T08:57:42Z</time>
      </trkpt>
      <trkpt lat="43.96249" lon="0.08925">
        <ele>151</ele>
        <time>2025-03-30T08:57:43Z</time>
      </trkpt>
      <trkpt lat="43.96248" lon="0.08927">
        <ele>151</ele>
        <time>2025-03-30T08:57:44Z</time>
      </trkpt>
      <trkpt lat="43.96248" lon="0.08928">
        <ele>151</ele>
        <time>2025-03-30T08:57:45Z</time>
      </trkpt>
      <trkpt lat="43.96248" lon="0.08929">
        <ele>151</ele>
        <time>2025-03-30T08:57:46Z</time>
      </trkpt>
      <trkpt lat="43.96247" lon="0.0893">
        <ele>151.1</ele>
        <time>2025-03-30T08:57:47Z</time>
      </trkpt>
      <trkpt lat="43.96246" lon="0.08932">
        <ele>151.1</ele>
        <time>2025-03-30T08:57:48Z</time>
      </trkpt>
      <trkpt lat="43.96245" lon="0.08934">
        <ele>151.1</ele>
        <time>2025-03-30T08:57:49Z</time>
      </trkpt>
      <trkpt lat="43.96244" lon="0.08935">
        <ele>151.1</ele>
        <time>2025-03-30T08:57:50Z</time>
      </trkpt>
      <trkpt lat="43.96244" lon="0.08936">
        <ele>151.1</ele>
        <time>2025-03-30T08:57:51Z</time>
      </trkpt>
      <trkpt lat="43.96243" lon="0.08937">
        <ele>151.2</ele>
        <time>2025-03-30T08:57:52Z</time>
      </trkpt>
      <trkpt lat="43.96242" lon="0.08939">
        <ele>151.2</ele>
        <time>2025-03-30T08:57:53Z</time>
      </trkpt>
      <trkpt lat="43.96241" lon="0.0894">
        <ele>151.2</ele>
        <time>2025-03-30T08:57:54Z</time>
      </trkpt>
      <trkpt lat="43.9624" lon="0.08941">
        <ele>151.2</ele>
        <time>2025-03-30T08:57:55Z</time>
      </trkpt>
      <trkpt lat="43.96239" lon="0.08942">
        <ele>151.2</ele>
        <time>2025-03-30T08:57:56Z</time>
      </trkpt>
      <trkpt lat="43.96237" lon="0.08944">
        <ele>151.2</ele>
        <time>2025-03-30T08:57:58Z</time>
      </trkpt>
      <trkpt lat="43.96235" lon="0.08946">
        <ele>151.2</ele>
        <time>2025-03-30T08:57:59Z</time>
      </trkpt>
      <trkpt lat="43.96234" lon="0.08946">
        <ele>151.2</ele>
        <time>2025-03-30T08:58:00Z</time>
      </trkpt>
      <trkpt lat="43.96234" lon="0.08947">
        <ele>151.2</ele>
        <time>2025-03-30T08:58:01Z</time>
      </trkpt>
      <trkpt lat="43.96233" lon="0.08947">
        <ele>151.2</ele>
        <time>2025-03-30T08:58:02Z</time>
      </trkpt>
      <trkpt lat="43.96232" lon="0.08948">
        <ele>151.2</ele>
        <time>2025-03-30T08:58:03Z</time>
      </trkpt>
      <trkpt lat="43.96231" lon="0.08949">
        <ele>151.2</ele>
        <time>2025-03-30T08:58:04Z</time>
      </trkpt>
      <trkpt lat="43.96229" lon="0.08951">
        <ele>151.2</ele>
        <time>2025-03-30T08:58:05Z</time>
      </trkpt>
      <trkpt lat="43.96228" lon="0.08951">
        <ele>151.2</ele>
        <time>2025-03-30T08:58:06Z</time>
      </trkpt>
      <trkpt lat="43.96228" lon="0.08952">
        <ele>151.2</ele>
        <time>2025-03-30T08:58:07Z</time>
      </trkpt>
      <trkpt lat="43.96225" lon="0.08955">
        <ele>151.2</ele>
        <time>2025-03-30T08:58:09Z</time>
      </trkpt>
      <trkpt lat="43.96225" lon="0.08955">
        <ele>151.2</ele>
        <time>2025-03-30T08:58:10Z</time>
      </trkpt>
      <trkpt lat="43.96223" lon="0.08957">
        <ele>151.2</ele>
        <time>2025-03-30T08:58:11Z</time>
      </trkpt>
      <trkpt lat="43.96222" lon="0.08958">
        <ele>151.2</ele>
        <time>2025-03-30T08:58:12Z</time>
      </trkpt>
      <trkpt lat="43.96221" lon="0.08958">
        <ele>151.2</ele>
        <time>2025-03-30T08:58:13Z</time>
      </trkpt>
      <trkpt lat="43.9622" lon="0.08959">
        <ele>151.2</ele>
        <time>2025-03-30T08:58:14Z</time>
      </trkpt>
      <trkpt lat="43.96219" lon="0.08961">
        <ele>151.2</ele>
        <time>2025-03-30T08:58:15Z</time>
      </trkpt>
      <trkpt lat="43.96218" lon="0.08963">
        <ele>151.2</ele>
        <time>2025-03-30T08:58:16Z</time>
      </trkpt>
      <trkpt lat="43.96217" lon="0.08964">
        <ele>151.2</ele>
        <time>2025-03-30T08:58:17Z</time>
      </trkpt>
      <trkpt lat="43.96217" lon="0.08964">
        <ele>151.2</ele>
        <time>2025-03-30T08:58:18Z</time>
      </trkpt>
      <trkpt lat="43.96215" lon="0.08966">
        <ele>151.2</ele>
        <time>2025-03-30T08:58:19Z</time>
      </trkpt>
      <trkpt lat="43.96214" lon="0.08967">
        <ele>151.2</ele>
        <time>2025-03-30T08:58:20Z</time>
      </trkpt>
      <trkpt lat="43.96214" lon="0.08967">
        <ele>151.2</ele>
        <time>2025-03-30T08:58:21Z</time>
      </trkpt>
      <trkpt lat="43.96213" lon="0.08968">
        <ele>151.2</ele>
        <time>2025-03-30T08:58:22Z</time>
      </trkpt>
      <trkpt lat="43.96212" lon="0.0897">
        <ele>151.2</ele>
        <time>2025-03-30T08:58:23Z</time>
      </trkpt>
      <trkpt lat="43.96211" lon="0.08971">
        <ele>151.2</ele>
        <time>2025-03-30T08:58:24Z</time>
      </trkpt>
      <trkpt lat="43.96209" lon="0.08973">
        <ele>151.2</ele>
        <time>2025-03-30T08:58:25Z</time>
      </trkpt>
      <trkpt lat="43.96208" lon="0.08973">
        <ele>151.2</ele>
        <time>2025-03-30T08:58:26Z</time>
      </trkpt>
      <trkpt lat="43.96208" lon="0.08974">
        <ele>151.2</ele>
        <time>2025-03-30T08:58:27Z</time>
      </trkpt>
      <trkpt lat="43.96205" lon="0.08977">
        <ele>151.2</ele>
        <time>2025-03-30T08:58:29Z</time>
      </trkpt>
      <trkpt lat="43.96204" lon="0.08977">
        <ele>151.3</ele>
        <time>2025-03-30T08:58:30Z</time>
      </trkpt>
      <trkpt lat="43.96203" lon="0.08978">
        <ele>151.3</ele>
        <time>2025-03-30T08:58:31Z</time>
      </trkpt>
      <trkpt lat="43.96202" lon="0.08979">
        <ele>151.3</ele>
        <time>2025-03-30T08:58:32Z</time>
      </trkpt>
      <trkpt lat="43.962" lon="0.0898">
        <ele>151.3</ele>
        <time>2025-03-30T08:58:33Z</time>
      </trkpt>
      <trkpt lat="43.96199" lon="0.08981">
        <ele>151.3</ele>
        <time>2025-03-30T08:58:34Z</time>
      </trkpt>
      <trkpt lat="43.96198" lon="0.08981">
        <ele>151.3</ele>
        <time>2025-03-30T08:58:35Z</time>
      </trkpt>
      <trkpt lat="43.96196" lon="0.08983">
        <ele>151.3</ele>
        <time>2025-03-30T08:58:37Z</time>
      </trkpt>
      <trkpt lat="43.96195" lon="0.08984">
        <ele>151.3</ele>
        <time>2025-03-30T08:58:38Z</time>
      </trkpt>
      <trkpt lat="43.96194" lon="0.08985">
        <ele>151.3</ele>
        <time>2025-03-30T08:58:39Z</time>
      </trkpt>
      <trkpt lat="43.96193" lon="0.08987">
        <ele>151.3</ele>
        <time>2025-03-30T08:58:40Z</time>
      </trkpt>
      <trkpt lat="43.96192" lon="0.08987">
        <ele>151.3</ele>
        <time>2025-03-30T08:58:41Z</time>
      </trkpt>
      <trkpt lat="43.96191" lon="0.08988">
        <ele>151.3</ele>
        <time>2025-03-30T08:58:42Z</time>
      </trkpt>
      <trkpt lat="43.9619" lon="0.08988">
        <ele>151.3</ele>
        <time>2025-03-30T08:58:43Z</time>
      </trkpt>
      <trkpt lat="43.96189" lon="0.08988">
        <ele>151.3</ele>
        <time>2025-03-30T08:58:44Z</time>
      </trkpt>
      <trkpt lat="43.96188" lon="0.08989">
        <ele>151.3</ele>
        <time>2025-03-30T08:58:45Z</time>
      </trkpt>
      <trkpt lat="43.96187" lon="0.08989">
        <ele>151.3</ele>
        <time>2025-03-30T08:58:46Z</time>
      </trkpt>
      <trkpt lat="43.96186" lon="0.0899">
        <ele>151.3</ele>
        <time>2025-03-30T08:58:47Z</time>
      </trkpt>
      <trkpt lat="43.96185" lon="0.08992">
        <ele>151.3</ele>
        <time>2025-03-30T08:58:48Z</time>
      </trkpt>
      <trkpt lat="43.96184" lon="0.08994">
        <ele>151.3</ele>
        <time>2025-03-30T08:58:49Z</time>
      </trkpt>
      <trkpt lat="43.96184" lon="0.08996">
        <ele>151.3</ele>
        <time>2025-03-30T08:58:50Z</time>
      </trkpt>
      <trkpt lat="43.96183" lon="0.08997">
        <ele>151.3</ele>
        <time>2025-03-30T08:58:51Z</time>
      </trkpt>
      <trkpt lat="43.96182" lon="0.08999">
        <ele>151.3</ele>
        <time>2025-03-30T08:58:52Z</time>
      </trkpt>
      <trkpt lat="43.9618" lon="0.09001">
        <ele>151.3</ele>
        <time>2025-03-30T08:58:53Z</time>
      </trkpt>
      <trkpt lat="43.9618" lon="0.09003">
        <ele>151.3</ele>
        <time>2025-03-30T08:58:54Z</time>
      </trkpt>
      <trkpt lat="43.96179" lon="0.09004">
        <ele>151.3</ele>
        <time>2025-03-30T08:58:55Z</time>
      </trkpt>
      <trkpt lat="43.96179" lon="0.09004">
        <ele>151.3</ele>
        <time>2025-03-30T08:58:56Z</time>
      </trkpt>
      <trkpt lat="43.96178" lon="0.09006">
        <ele>151.4</ele>
        <time>2025-03-30T08:58:57Z</time>
      </trkpt>
      <trkpt lat="43.96177" lon="0.09007">
        <ele>151.4</ele>
        <time>2025-03-30T08:58:58Z</time>
      </trkpt>
      <trkpt lat="43.96175" lon="0.09009">
        <ele>151.4</ele>
        <time>2025-03-30T08:58:59Z</time>
      </trkpt>
      <trkpt lat="43.96175" lon="0.0901">
        <ele>151.4</ele>
        <time>2025-03-30T08:59:00Z</time>
      </trkpt>
      <trkpt lat="43.96174" lon="0.0901">
        <ele>151.4</ele>
        <time>2025-03-30T08:59:01Z</time>
      </trkpt>
      <trkpt lat="43.96174" lon="0.09011">
        <ele>151.4</ele>
        <time>2025-03-30T08:59:02Z</time>
      </trkpt>
      <trkpt lat="43.96173" lon="0.09012">
        <ele>151.4</ele>
        <time>2025-03-30T08:59:03Z</time>
      </trkpt>
      <trkpt lat="43.96172" lon="0.09014">
        <ele>151.4</ele>
        <time>2025-03-30T08:59:04Z</time>
      </trkpt>
      <trkpt lat="43.96169" lon="0.09013">
        <ele>151.4</ele>
        <time>2025-03-30T08:59:05Z</time>
      </trkpt>
      <trkpt lat="43.96168" lon="0.09013">
        <ele>151.4</ele>
        <time>2025-03-30T08:59:07Z</time>
      </trkpt>
      <trkpt lat="43.96168" lon="0.09012">
        <ele>151.4</ele>
        <time>2025-03-30T08:59:08Z</time>
      </trkpt>
      <trkpt lat="43.96167" lon="0.09013">
        <ele>151.4</ele>
        <time>2025-03-30T08:59:09Z</time>
      </trkpt>
      <trkpt lat="43.96163" lon="0.09012">
        <ele>151.4</ele>
        <time>2025-03-30T08:59:11Z</time>
      </trkpt>
      <trkpt lat="43.96162" lon="0.09013">
        <ele>151.4</ele>
        <time>2025-03-30T08:59:12Z</time>
      </trkpt>
      <trkpt lat="43.9616" lon="0.09013">
        <ele>151.3</ele>
        <time>2025-03-30T08:59:13Z</time>
      </trkpt>
      <trkpt lat="43.96158" lon="0.09014">
        <ele>151.3</ele>
        <time>2025-03-30T08:59:14Z</time>
      </trkpt>
      <trkpt lat="43.96157" lon="0.09015">
        <ele>151.3</ele>
        <time>2025-03-30T08:59:15Z</time>
      </trkpt>
      <trkpt lat="43.96156" lon="0.09015">
        <ele>151.3</ele>
        <time>2025-03-30T08:59:16Z</time>
      </trkpt>
      <trkpt lat="43.96155" lon="0.09016">
        <ele>151.3</ele>
        <time>2025-03-30T08:59:17Z</time>
      </trkpt>
      <trkpt lat="43.96152" lon="0.09018">
        <ele>151.3</ele>
        <time>2025-03-30T08:59:19Z</time>
      </trkpt>
      <trkpt lat="43.96151" lon="0.09019">
        <ele>151.3</ele>
        <time>2025-03-30T08:59:20Z</time>
      </trkpt>
      <trkpt lat="43.9615" lon="0.09019">
        <ele>151.3</ele>
        <time>2025-03-30T08:59:21Z</time>
      </trkpt>
      <trkpt lat="43.96149" lon="0.0902">
        <ele>151.3</ele>
        <time>2025-03-30T08:59:22Z</time>
      </trkpt>
      <trkpt lat="43.96148" lon="0.09021">
        <ele>151.4</ele>
        <time>2025-03-30T08:59:23Z</time>
      </trkpt>
      <trkpt lat="43.96147" lon="0.09021">
        <ele>151.4</ele>
        <time>2025-03-30T08:59:24Z</time>
      </trkpt>
      <trkpt lat="43.96146" lon="0.09022">
        <ele>151.4</ele>
        <time>2025-03-30T08:59:25Z</time>
      </trkpt>
      <trkpt lat="43.96145" lon="0.09023">
        <ele>151.4</ele>
        <time>2025-03-30T08:59:26Z</time>
      </trkpt>
      <trkpt lat="43.96143" lon="0.09025">
        <ele>151.4</ele>
        <time>2025-03-30T08:59:27Z</time>
      </trkpt>
      <trkpt lat="43.96142" lon="0.09026">
        <ele>151.4</ele>
        <time>2025-03-30T08:59:28Z</time>
      </trkpt>
      <trkpt lat="43.96142" lon="0.09027">
        <ele>151.4</ele>
        <time>2025-03-30T08:59:29Z</time>
      </trkpt>
      <trkpt lat="43.96141" lon="0.09027">
        <ele>151.4</ele>
        <time>2025-03-30T08:59:30Z</time>
      </trkpt>
      <trkpt lat="43.96139" lon="0.09029">
        <ele>151.4</ele>
        <time>2025-03-30T08:59:31Z</time>
      </trkpt>
      <trkpt lat="43.96138" lon="0.09031">
        <ele>151.4</ele>
        <time>2025-03-30T08:59:32Z</time>
      </trkpt>
      <trkpt lat="43.96137" lon="0.09032">
        <ele>151.4</ele>
        <time>2025-03-30T08:59:34Z</time>
      </trkpt>
      <trkpt lat="43.96136" lon="0.09034">
        <ele>151.4</ele>
        <time>2025-03-30T08:59:35Z</time>
      </trkpt>
      <trkpt lat="43.96135" lon="0.09035">
        <ele>151.4</ele>
        <time>2025-03-30T08:59:36Z</time>
      </trkpt>
      <trkpt lat="43.96134" lon="0.09036">
        <ele>151.4</ele>
        <time>2025-03-30T08:59:37Z</time>
      </trkpt>
      <trkpt lat="43.96133" lon="0.09038">
        <ele>151.4</ele>
        <time>2025-03-30T08:59:39Z</time>
      </trkpt>
      <trkpt lat="43.96132" lon="0.09042">
        <ele>151.4</ele>
        <time>2025-03-30T08:59:40Z</time>
      </trkpt>
      <trkpt lat="43.96132" lon="0.09044">
        <ele>151.4</ele>
        <time>2025-03-30T08:59:41Z</time>
      </trkpt>
      <trkpt lat="43.96131" lon="0.09046">
        <ele>151.4</ele>
        <time>2025-03-30T08:59:42Z</time>
      </trkpt>
      <trkpt lat="43.96131" lon="0.09049">
        <ele>151.4</ele>
        <time>2025-03-30T08:59:43Z</time>
      </trkpt>
      <trkpt lat="43.9613" lon="0.09051">
        <ele>151.4</ele>
        <time>2025-03-30T08:59:44Z</time>
      </trkpt>
      <trkpt lat="43.96129" lon="0.09053">
        <ele>151.4</ele>
        <time>2025-03-30T08:59:45Z</time>
      </trkpt>
      <trkpt lat="43.96129" lon="0.09055">
        <ele>151.4</ele>
        <time>2025-03-30T08:59:46Z</time>
      </trkpt>
      <trkpt lat="43.96129" lon="0.09058">
        <ele>151.4</ele>
        <time>2025-03-30T08:59:47Z</time>
      </trkpt>
      <trkpt lat="43.96128" lon="0.0906">
        <ele>151.4</ele>
        <time>2025-03-30T08:59:48Z</time>
      </trkpt>
      <trkpt lat="43.96128" lon="0.09062">
        <ele>151.4</ele>
        <time>2025-03-30T08:59:49Z</time>
      </trkpt>
      <trkpt lat="43.96127" lon="0.09066">
        <ele>151.4</ele>
        <time>2025-03-30T08:59:50Z</time>
      </trkpt>
      <trkpt lat="43.96127" lon="0.09067">
        <ele>151.4</ele>
        <time>2025-03-30T08:59:51Z</time>
      </trkpt>
      <trkpt lat="43.96126" lon="0.09069">
        <ele>151.4</ele>
        <time>2025-03-30T08:59:52Z</time>
      </trkpt>
      <trkpt lat="43.96126" lon="0.09071">
        <ele>151.4</ele>
        <time>2025-03-30T08:59:53Z</time>
      </trkpt>
      <trkpt lat="43.96125" lon="0.09073">
        <ele>151.4</ele>
        <time>2025-03-30T08:59:54Z</time>
      </trkpt>
      <trkpt lat="43.96124" lon="0.09075">
        <ele>151.4</ele>
        <time>2025-03-30T08:59:55Z</time>
      </trkpt>
      <trkpt lat="43.96124" lon="0.09077">
        <ele>151.4</ele>
        <time>2025-03-30T08:59:56Z</time>
      </trkpt>
      <trkpt lat="43.96123" lon="0.09079">
        <ele>151.4</ele>
        <time>2025-03-30T08:59:57Z</time>
      </trkpt>
      <trkpt lat="43.96122" lon="0.09081">
        <ele>151.4</ele>
        <time>2025-03-30T08:59:58Z</time>
      </trkpt>
      <trkpt lat="43.96122" lon="0.09083">
        <ele>151.4</ele>
        <time>2025-03-30T08:59:59Z</time>
      </trkpt>
      <trkpt lat="43.96121" lon="0.09085">
        <ele>151.4</ele>
        <time>2025-03-30T09:00:00Z</time>
      </trkpt>
      <trkpt lat="43.96121" lon="0.09087">
        <ele>151.3</ele>
        <time>2025-03-30T09:00:01Z</time>
      </trkpt>
      <trkpt lat="43.9612" lon="0.09089">
        <ele>151.3</ele>
        <time>2025-03-30T09:00:02Z</time>
      </trkpt>
      <trkpt lat="43.9612" lon="0.09091">
        <ele>151.3</ele>
        <time>2025-03-30T09:00:03Z</time>
      </trkpt>
      <trkpt lat="43.96119" lon="0.09093">
        <ele>151.3</ele>
        <time>2025-03-30T09:00:04Z</time>
      </trkpt>
      <trkpt lat="43.96119" lon="0.09095">
        <ele>151.3</ele>
        <time>2025-03-30T09:00:05Z</time>
      </trkpt>
      <trkpt lat="43.96118" lon="0.09097">
        <ele>151.3</ele>
        <time>2025-03-30T09:00:06Z</time>
      </trkpt>
      <trkpt lat="43.96118" lon="0.09099">
        <ele>151.3</ele>
        <time>2025-03-30T09:00:07Z</time>
      </trkpt>
      <trkpt lat="43.96117" lon="0.09103">
        <ele>151.3</ele>
        <time>2025-03-30T09:00:09Z</time>
      </trkpt>
      <trkpt lat="43.96117" lon="0.09105">
        <ele>151.3</ele>
        <time>2025-03-30T09:00:10Z</time>
      </trkpt>
      <trkpt lat="43.96116" lon="0.09108">
        <ele>151.3</ele>
        <time>2025-03-30T09:00:12Z</time>
      </trkpt>
      <trkpt lat="43.96115" lon="0.09111">
        <ele>151.3</ele>
        <time>2025-03-30T09:00:13Z</time>
      </trkpt>
      <trkpt lat="43.96115" lon="0.09115">
        <ele>151.3</ele>
        <time>2025-03-30T09:00:15Z</time>
      </trkpt>
      <trkpt lat="43.96114" lon="0.09117">
        <ele>151.3</ele>
        <time>2025-03-30T09:00:16Z</time>
      </trkpt>
      <trkpt lat="43.96113" lon="0.09121">
        <ele>151.3</ele>
        <time>2025-03-30T09:00:18Z</time>
      </trkpt>
      <trkpt lat="43.96113" lon="0.09125">
        <ele>151.3</ele>
        <time>2025-03-30T09:00:20Z</time>
      </trkpt>
      <trkpt lat="43.96112" lon="0.09127">
        <ele>151.3</ele>
        <time>2025-03-30T09:00:21Z</time>
      </trkpt>
      <trkpt lat="43.96111" lon="0.09133">
        <ele>151.3</ele>
        <time>2025-03-30T09:00:23Z</time>
      </trkpt>
      <trkpt lat="43.96111" lon="0.09134">
        <ele>151.3</ele>
        <time>2025-03-30T09:00:24Z</time>
      </trkpt>
      <trkpt lat="43.9611" lon="0.09136">
        <ele>151.3</ele>
        <time>2025-03-30T09:00:25Z</time>
      </trkpt>
      <trkpt lat="43.9611" lon="0.09137">
        <ele>151.3</ele>
        <time>2025-03-30T09:00:26Z</time>
      </trkpt>
      <trkpt lat="43.9611" lon="0.09139">
        <ele>151.3</ele>
        <time>2025-03-30T09:00:27Z</time>
      </trkpt>
      <trkpt lat="43.96109" lon="0.09141">
        <ele>151.3</ele>
        <time>2025-03-30T09:00:29Z</time>
      </trkpt>
      <trkpt lat="43.96109" lon="0.09143">
        <ele>151.2</ele>
        <time>2025-03-30T09:00:30Z</time>
      </trkpt>
      <trkpt lat="43.96108" lon="0.09144">
        <ele>151.2</ele>
        <time>2025-03-30T09:00:31Z</time>
      </trkpt>
      <trkpt lat="43.96106" lon="0.09148">
        <ele>151.2</ele>
        <time>2025-03-30T09:00:32Z</time>
      </trkpt>
      <trkpt lat="43.96106" lon="0.09149">
        <ele>151.2</ele>
        <time>2025-03-30T09:00:33Z</time>
      </trkpt>
      <trkpt lat="43.96105" lon="0.09152">
        <ele>151.2</ele>
        <time>2025-03-30T09:00:34Z</time>
      </trkpt>
      <trkpt lat="43.96105" lon="0.09153">
        <ele>151.1</ele>
        <time>2025-03-30T09:00:35Z</time>
      </trkpt>
      <trkpt lat="43.96105" lon="0.09154">
        <ele>151.1</ele>
        <time>2025-03-30T09:00:36Z</time>
      </trkpt>
      <trkpt lat="43.96104" lon="0.09157">
        <ele>151.1</ele>
        <time>2025-03-30T09:00:37Z</time>
      </trkpt>
      <trkpt lat="43.96104" lon="0.09158">
        <ele>151.1</ele>
        <time>2025-03-30T09:00:38Z</time>
      </trkpt>
      <trkpt lat="43.96104" lon="0.09159">
        <ele>151.1</ele>
        <time>2025-03-30T09:00:39Z</time>
      </trkpt>
      <trkpt lat="43.96103" lon="0.09161">
        <ele>151.1</ele>
        <time>2025-03-30T09:00:40Z</time>
      </trkpt>
      <trkpt lat="43.96103" lon="0.09163">
        <ele>151</ele>
        <time>2025-03-30T09:00:41Z</time>
      </trkpt>
      <trkpt lat="43.96103" lon="0.09166">
        <ele>151</ele>
        <time>2025-03-30T09:00:42Z</time>
      </trkpt>
      <trkpt lat="43.96102" lon="0.09167">
        <ele>151</ele>
        <time>2025-03-30T09:00:43Z</time>
      </trkpt>
      <trkpt lat="43.96102" lon="0.09168">
        <ele>151</ele>
        <time>2025-03-30T09:00:44Z</time>
      </trkpt>
      <trkpt lat="43.96102" lon="0.0917">
        <ele>151</ele>
        <time>2025-03-30T09:00:45Z</time>
      </trkpt>
      <trkpt lat="43.96102" lon="0.09171">
        <ele>151</ele>
        <time>2025-03-30T09:00:46Z</time>
      </trkpt>
      <trkpt lat="43.96101" lon="0.09172">
        <ele>151</ele>
        <time>2025-03-30T09:00:47Z</time>
      </trkpt>
      <trkpt lat="43.961" lon="0.09176">
        <ele>151</ele>
        <time>2025-03-30T09:00:48Z</time>
      </trkpt>
      <trkpt lat="43.961" lon="0.09177">
        <ele>151</ele>
        <time>2025-03-30T09:00:49Z</time>
      </trkpt>
      <trkpt lat="43.96099" lon="0.09179">
        <ele>151</ele>
        <time>2025-03-30T09:00:51Z</time>
      </trkpt>
      <trkpt lat="43.96099" lon="0.0918">
        <ele>151</ele>
        <time>2025-03-30T09:00:52Z</time>
      </trkpt>
      <trkpt lat="43.96098" lon="0.09182">
        <ele>151</ele>
        <time>2025-03-30T09:00:53Z</time>
      </trkpt>
      <trkpt lat="43.96098" lon="0.09183">
        <ele>151</ele>
        <time>2025-03-30T09:00:54Z</time>
      </trkpt>
      <trkpt lat="43.96097" lon="0.09185">
        <ele>151</ele>
        <time>2025-03-30T09:00:55Z</time>
      </trkpt>
      <trkpt lat="43.96097" lon="0.09188">
        <ele>151</ele>
        <time>2025-03-30T09:00:56Z</time>
      </trkpt>
      <trkpt lat="43.96096" lon="0.09189">
        <ele>151</ele>
        <time>2025-03-30T09:00:57Z</time>
      </trkpt>
      <trkpt lat="43.96096" lon="0.0919">
        <ele>151</ele>
        <time>2025-03-30T09:00:58Z</time>
      </trkpt>
      <trkpt lat="43.96096" lon="0.09192">
        <ele>151</ele>
        <time>2025-03-30T09:00:59Z</time>
      </trkpt>
      <trkpt lat="43.96095" lon="0.09194">
        <ele>151</ele>
        <time>2025-03-30T09:01:00Z</time>
      </trkpt>
      <trkpt lat="43.96095" lon="0.09196">
        <ele>151</ele>
        <time>2025-03-30T09:01:01Z</time>
      </trkpt>
      <trkpt lat="43.96094" lon="0.09197">
        <ele>151</ele>
        <time>2025-03-30T09:01:02Z</time>
      </trkpt>
      <trkpt lat="43.96094" lon="0.09199">
        <ele>151</ele>
        <time>2025-03-30T09:01:03Z</time>
      </trkpt>
      <trkpt lat="43.96093" lon="0.09202">
        <ele>151</ele>
        <time>2025-03-30T09:01:04Z</time>
      </trkpt>
      <trkpt lat="43.96093" lon="0.09203">
        <ele>151</ele>
        <time>2025-03-30T09:01:05Z</time>
      </trkpt>
      <trkpt lat="43.96092" lon="0.09204">
        <ele>151</ele>
        <time>2025-03-30T09:01:06Z</time>
      </trkpt>
      <trkpt lat="43.96092" lon="0.09205">
        <ele>151</ele>
        <time>2025-03-30T09:01:07Z</time>
      </trkpt>
      <trkpt lat="43.96091" lon="0.09208">
        <ele>151</ele>
        <time>2025-03-30T09:01:08Z</time>
      </trkpt>
      <trkpt lat="43.9609" lon="0.09209">
        <ele>151</ele>
        <time>2025-03-30T09:01:09Z</time>
      </trkpt>
      <trkpt lat="43.96089" lon="0.09212">
        <ele>151</ele>
        <time>2025-03-30T09:01:11Z</time>
      </trkpt>
      <trkpt lat="43.96089" lon="0.09214">
        <ele>151</ele>
        <time>2025-03-30T09:01:12Z</time>
      </trkpt>
      <trkpt lat="43.96088" lon="0.09216">
        <ele>151</ele>
        <time>2025-03-30T09:01:13Z</time>
      </trkpt>
      <trkpt lat="43.96087" lon="0.09219">
        <ele>151</ele>
        <time>2025-03-30T09:01:15Z</time>
      </trkpt>
      <trkpt lat="43.96087" lon="0.09221">
        <ele>151</ele>
        <time>2025-03-30T09:01:16Z</time>
      </trkpt>
      <trkpt lat="43.96085" lon="0.09224">
        <ele>151</ele>
        <time>2025-03-30T09:01:18Z</time>
      </trkpt>
      <trkpt lat="43.96085" lon="0.09225">
        <ele>151</ele>
        <time>2025-03-30T09:01:19Z</time>
      </trkpt>
      <trkpt lat="43.96083" lon="0.09228">
        <ele>150.9</ele>
        <time>2025-03-30T09:01:21Z</time>
      </trkpt>
      <trkpt lat="43.96082" lon="0.09229">
        <ele>150.9</ele>
        <time>2025-03-30T09:01:22Z</time>
      </trkpt>
      <trkpt lat="43.96081" lon="0.0923">
        <ele>150.9</ele>
        <time>2025-03-30T09:01:23Z</time>
      </trkpt>
      <trkpt lat="43.9608" lon="0.09231">
        <ele>150.9</ele>
        <time>2025-03-30T09:01:24Z</time>
      </trkpt>
      <trkpt lat="43.96079" lon="0.09233">
        <ele>150.9</ele>
        <time>2025-03-30T09:01:25Z</time>
      </trkpt>
      <trkpt lat="43.96077" lon="0.09235">
        <ele>150.9</ele>
        <time>2025-03-30T09:01:27Z</time>
      </trkpt>
      <trkpt lat="43.96077" lon="0.09236">
        <ele>150.9</ele>
        <time>2025-03-30T09:01:28Z</time>
      </trkpt>
      <trkpt lat="43.96076" lon="0.09238">
        <ele>150.9</ele>
        <time>2025-03-30T09:01:29Z</time>
      </trkpt>
      <trkpt lat="43.96076" lon="0.09239">
        <ele>150.9</ele>
        <time>2025-03-30T09:01:30Z</time>
      </trkpt>
      <trkpt lat="43.96075" lon="0.09241">
        <ele>150.9</ele>
        <time>2025-03-30T09:01:31Z</time>
      </trkpt>
      <trkpt lat="43.96074" lon="0.09242">
        <ele>150.9</ele>
        <time>2025-03-30T09:01:32Z</time>
      </trkpt>
      <trkpt lat="43.96073" lon="0.09244">
        <ele>150.9</ele>
        <time>2025-03-30T09:01:33Z</time>
      </trkpt>
      <trkpt lat="43.96072" lon="0.09246">
        <ele>150.9</ele>
        <time>2025-03-30T09:01:34Z</time>
      </trkpt>
      <trkpt lat="43.96071" lon="0.09248">
        <ele>150.9</ele>
        <time>2025-03-30T09:01:35Z</time>
      </trkpt>
      <trkpt lat="43.9607" lon="0.09251">
        <ele>150.9</ele>
        <time>2025-03-30T09:01:36Z</time>
      </trkpt>
      <trkpt lat="43.9607" lon="0.09252">
        <ele>150.9</ele>
        <time>2025-03-30T09:01:37Z</time>
      </trkpt>
      <trkpt lat="43.9607" lon="0.09253">
        <ele>150.9</ele>
        <time>2025-03-30T09:01:38Z</time>
      </trkpt>
      <trkpt lat="43.96069" lon="0.09255">
        <ele>150.9</ele>
        <time>2025-03-30T09:01:39Z</time>
      </trkpt>
      <trkpt lat="43.96069" lon="0.09257">
        <ele>150.9</ele>
        <time>2025-03-30T09:01:40Z</time>
      </trkpt>
      <trkpt lat="43.96068" lon="0.09259">
        <ele>150.9</ele>
        <time>2025-03-30T09:01:41Z</time>
      </trkpt>
      <trkpt lat="43.96068" lon="0.0926">
        <ele>150.9</ele>
        <time>2025-03-30T09:01:42Z</time>
      </trkpt>
      <trkpt lat="43.96067" lon="0.09262">
        <ele>150.9</ele>
        <time>2025-03-30T09:01:43Z</time>
      </trkpt>
      <trkpt lat="43.96067" lon="0.09263">
        <ele>150.9</ele>
        <time>2025-03-30T09:01:44Z</time>
      </trkpt>
      <trkpt lat="43.96066" lon="0.09265">
        <ele>150.9</ele>
        <time>2025-03-30T09:01:45Z</time>
      </trkpt>
      <trkpt lat="43.96066" lon="0.09266">
        <ele>150.9</ele>
        <time>2025-03-30T09:01:46Z</time>
      </trkpt>
      <trkpt lat="43.96065" lon="0.09268">
        <ele>150.9</ele>
        <time>2025-03-30T09:01:47Z</time>
      </trkpt>
      <trkpt lat="43.96064" lon="0.09269">
        <ele>150.9</ele>
        <time>2025-03-30T09:01:48Z</time>
      </trkpt>
      <trkpt lat="43.96064" lon="0.0927">
        <ele>150.9</ele>
        <time>2025-03-30T09:01:49Z</time>
      </trkpt>
      <trkpt lat="43.96062" lon="0.09273">
        <ele>150.9</ele>
        <time>2025-03-30T09:01:50Z</time>
      </trkpt>
      <trkpt lat="43.96062" lon="0.09274">
        <ele>150.9</ele>
        <time>2025-03-30T09:01:51Z</time>
      </trkpt>
      <trkpt lat="43.96061" lon="0.09274">
        <ele>150.9</ele>
        <time>2025-03-30T09:01:52Z</time>
      </trkpt>
      <trkpt lat="43.9606" lon="0.09277">
        <ele>150.9</ele>
        <time>2025-03-30T09:01:53Z</time>
      </trkpt>
      <trkpt lat="43.96059" lon="0.09278">
        <ele>150.9</ele>
        <time>2025-03-30T09:01:54Z</time>
      </trkpt>
      <trkpt lat="43.96059" lon="0.09279">
        <ele>150.9</ele>
        <time>2025-03-30T09:01:55Z</time>
      </trkpt>
      <trkpt lat="43.96058" lon="0.0928">
        <ele>150.9</ele>
        <time>2025-03-30T09:01:56Z</time>
      </trkpt>
      <trkpt lat="43.96057" lon="0.09282">
        <ele>150.9</ele>
        <time>2025-03-30T09:01:57Z</time>
      </trkpt>
      <trkpt lat="43.96055" lon="0.09284">
        <ele>150.9</ele>
        <time>2025-03-30T09:01:58Z</time>
      </trkpt>
      <trkpt lat="43.96055" lon="0.09285">
        <ele>150.9</ele>
        <time>2025-03-30T09:01:59Z</time>
      </trkpt>
      <trkpt lat="43.96054" lon="0.09286">
        <ele>150.9</ele>
        <time>2025-03-30T09:02:00Z</time>
      </trkpt>
      <trkpt lat="43.96053" lon="0.09287">
        <ele>150.9</ele>
        <time>2025-03-30T09:02:01Z</time>
      </trkpt>
      <trkpt lat="43.96052" lon="0.09289">
        <ele>150.9</ele>
        <time>2025-03-30T09:02:02Z</time>
      </trkpt>
      <trkpt lat="43.96051" lon="0.0929">
        <ele>150.9</ele>
        <time>2025-03-30T09:02:03Z</time>
      </trkpt>
      <trkpt lat="43.9605" lon="0.09292">
        <ele>150.9</ele>
        <time>2025-03-30T09:02:04Z</time>
      </trkpt>
      <trkpt lat="43.96049" lon="0.09293">
        <ele>150.9</ele>
        <time>2025-03-30T09:02:05Z</time>
      </trkpt>
      <trkpt lat="43.96048" lon="0.09294">
        <ele>150.9</ele>
        <time>2025-03-30T09:02:06Z</time>
      </trkpt>
      <trkpt lat="43.96046" lon="0.09296">
        <ele>150.9</ele>
        <time>2025-03-30T09:02:07Z</time>
      </trkpt>
      <trkpt lat="43.96046" lon="0.09297">
        <ele>150.9</ele>
        <time>2025-03-30T09:02:08Z</time>
      </trkpt>
      <trkpt lat="43.96045" lon="0.09298">
        <ele>150.9</ele>
        <time>2025-03-30T09:02:09Z</time>
      </trkpt>
      <trkpt lat="43.96044" lon="0.09299">
        <ele>150.9</ele>
        <time>2025-03-30T09:02:10Z</time>
      </trkpt>
      <trkpt lat="43.96043" lon="0.09301">
        <ele>150.9</ele>
        <time>2025-03-30T09:02:11Z</time>
      </trkpt>
      <trkpt lat="43.96042" lon="0.09302">
        <ele>150.9</ele>
        <time>2025-03-30T09:02:12Z</time>
      </trkpt>
      <trkpt lat="43.96041" lon="0.09303">
        <ele>150.9</ele>
        <time>2025-03-30T09:02:13Z</time>
      </trkpt>
      <trkpt lat="43.9604" lon="0.09304">
        <ele>151</ele>
        <time>2025-03-30T09:02:14Z</time>
      </trkpt>
      <trkpt lat="43.96038" lon="0.09306">
        <ele>151</ele>
        <time>2025-03-30T09:02:15Z</time>
      </trkpt>
      <trkpt lat="43.96038" lon="0.09306">
        <ele>151</ele>
        <time>2025-03-30T09:02:16Z</time>
      </trkpt>
      <trkpt lat="43.96036" lon="0.09309">
        <ele>151</ele>
        <time>2025-03-30T09:02:18Z</time>
      </trkpt>
      <trkpt lat="43.96035" lon="0.0931">
        <ele>151</ele>
        <time>2025-03-30T09:02:19Z</time>
      </trkpt>
      <trkpt lat="43.96035" lon="0.09312">
        <ele>151</ele>
        <time>2025-03-30T09:02:21Z</time>
      </trkpt>
      <trkpt lat="43.96034" lon="0.09314">
        <ele>151</ele>
        <time>2025-03-30T09:02:22Z</time>
      </trkpt>
      <trkpt lat="43.96034" lon="0.09316">
        <ele>151</ele>
        <time>2025-03-30T09:02:23Z</time>
      </trkpt>
      <trkpt lat="43.96032" lon="0.0932">
        <ele>150.9</ele>
        <time>2025-03-30T09:02:24Z</time>
      </trkpt>
      <trkpt lat="43.96031" lon="0.09321">
        <ele>150.9</ele>
        <time>2025-03-30T09:02:25Z</time>
      </trkpt>
      <trkpt lat="43.9603" lon="0.09323">
        <ele>150.9</ele>
        <time>2025-03-30T09:02:26Z</time>
      </trkpt>
      <trkpt lat="43.9603" lon="0.09325">
        <ele>150.9</ele>
        <time>2025-03-30T09:02:27Z</time>
      </trkpt>
      <trkpt lat="43.96029" lon="0.09326">
        <ele>150.9</ele>
        <time>2025-03-30T09:02:28Z</time>
      </trkpt>
      <trkpt lat="43.96028" lon="0.09328">
        <ele>150.8</ele>
        <time>2025-03-30T09:02:29Z</time>
      </trkpt>
      <trkpt lat="43.96027" lon="0.0933">
        <ele>150.8</ele>
        <time>2025-03-30T09:02:30Z</time>
      </trkpt>
      <trkpt lat="43.96026" lon="0.09332">
        <ele>150.8</ele>
        <time>2025-03-30T09:02:31Z</time>
      </trkpt>
      <trkpt lat="43.96025" lon="0.09334">
        <ele>150.7</ele>
        <time>2025-03-30T09:02:33Z</time>
      </trkpt>
      <trkpt lat="43.96024" lon="0.09335">
        <ele>150.7</ele>
        <time>2025-03-30T09:02:34Z</time>
      </trkpt>
      <trkpt lat="43.96022" lon="0.09338">
        <ele>150.7</ele>
        <time>2025-03-30T09:02:36Z</time>
      </trkpt>
      <trkpt lat="43.96021" lon="0.09339">
        <ele>150.7</ele>
        <time>2025-03-30T09:02:37Z</time>
      </trkpt>
      <trkpt lat="43.96021" lon="0.0934">
        <ele>150.7</ele>
        <time>2025-03-30T09:02:38Z</time>
      </trkpt>
      <trkpt lat="43.9602" lon="0.09341">
        <ele>150.6</ele>
        <time>2025-03-30T09:02:39Z</time>
      </trkpt>
      <trkpt lat="43.96019" lon="0.09342">
        <ele>150.6</ele>
        <time>2025-03-30T09:02:40Z</time>
      </trkpt>
      <trkpt lat="43.96018" lon="0.09344">
        <ele>150.6</ele>
        <time>2025-03-30T09:02:41Z</time>
      </trkpt>
      <trkpt lat="43.96017" lon="0.09346">
        <ele>150.6</ele>
        <time>2025-03-30T09:02:42Z</time>
      </trkpt>
      <trkpt lat="43.96017" lon="0.0935">
        <ele>150.5</ele>
        <time>2025-03-30T09:02:43Z</time>
      </trkpt>
      <trkpt lat="43.96016" lon="0.09351">
        <ele>150.5</ele>
        <time>2025-03-30T09:02:44Z</time>
      </trkpt>
      <trkpt lat="43.96016" lon="0.09355">
        <ele>150.5</ele>
        <time>2025-03-30T09:02:45Z</time>
      </trkpt>
      <trkpt lat="43.96016" lon="0.09356">
        <ele>150.5</ele>
        <time>2025-03-30T09:02:46Z</time>
      </trkpt>
      <trkpt lat="43.96015" lon="0.09358">
        <ele>150.4</ele>
        <time>2025-03-30T09:02:47Z</time>
      </trkpt>
      <trkpt lat="43.96015" lon="0.09361">
        <ele>150.4</ele>
        <time>2025-03-30T09:02:48Z</time>
      </trkpt>
      <trkpt lat="43.96014" lon="0.09363">
        <ele>150.4</ele>
        <time>2025-03-30T09:02:49Z</time>
      </trkpt>
      <trkpt lat="43.96014" lon="0.09364">
        <ele>150.4</ele>
        <time>2025-03-30T09:02:50Z</time>
      </trkpt>
      <trkpt lat="43.96012" lon="0.09366">
        <ele>150.3</ele>
        <time>2025-03-30T09:02:51Z</time>
      </trkpt>
      <trkpt lat="43.96012" lon="0.09368">
        <ele>150.3</ele>
        <time>2025-03-30T09:02:52Z</time>
      </trkpt>
      <trkpt lat="43.96011" lon="0.09369">
        <ele>150.3</ele>
        <time>2025-03-30T09:02:53Z</time>
      </trkpt>
      <trkpt lat="43.96011" lon="0.09371">
        <ele>150.2</ele>
        <time>2025-03-30T09:02:54Z</time>
      </trkpt>
      <trkpt lat="43.9601" lon="0.09375">
        <ele>150.2</ele>
        <time>2025-03-30T09:02:56Z</time>
      </trkpt>
      <trkpt lat="43.96009" lon="0.09377">
        <ele>150.1</ele>
        <time>2025-03-30T09:02:57Z</time>
      </trkpt>
      <trkpt lat="43.96008" lon="0.09379">
        <ele>150.1</ele>
        <time>2025-03-30T09:02:58Z</time>
      </trkpt>
      <trkpt lat="43.96008" lon="0.09381">
        <ele>150</ele>
        <time>2025-03-30T09:02:59Z</time>
      </trkpt>
      <trkpt lat="43.96007" lon="0.09382">
        <ele>150</ele>
        <time>2025-03-30T09:03:00Z</time>
      </trkpt>
      <trkpt lat="43.96006" lon="0.09384">
        <ele>150</ele>
        <time>2025-03-30T09:03:01Z</time>
      </trkpt>
      <trkpt lat="43.96005" lon="0.09386">
        <ele>149.9</ele>
        <time>2025-03-30T09:03:02Z</time>
      </trkpt>
      <trkpt lat="43.96005" lon="0.09387">
        <ele>149.9</ele>
        <time>2025-03-30T09:03:03Z</time>
      </trkpt>
      <trkpt lat="43.96004" lon="0.09388">
        <ele>149.9</ele>
        <time>2025-03-30T09:03:04Z</time>
      </trkpt>
      <trkpt lat="43.96003" lon="0.09389">
        <ele>149.9</ele>
        <time>2025-03-30T09:03:05Z</time>
      </trkpt>
      <trkpt lat="43.96002" lon="0.0939">
        <ele>149.8</ele>
        <time>2025-03-30T09:03:06Z</time>
      </trkpt>
      <trkpt lat="43.96" lon="0.09392">
        <ele>149.8</ele>
        <time>2025-03-30T09:03:07Z</time>
      </trkpt>
      <trkpt lat="43.96" lon="0.09392">
        <ele>149.8</ele>
        <time>2025-03-30T09:03:08Z</time>
      </trkpt>
      <trkpt lat="43.95999" lon="0.09393">
        <ele>149.8</ele>
        <time>2025-03-30T09:03:09Z</time>
      </trkpt>
      <trkpt lat="43.95998" lon="0.09394">
        <ele>149.7</ele>
        <time>2025-03-30T09:03:10Z</time>
      </trkpt>
      <trkpt lat="43.95996" lon="0.09396">
        <ele>149.7</ele>
        <time>2025-03-30T09:03:11Z</time>
      </trkpt>
      <trkpt lat="43.95995" lon="0.09397">
        <ele>149.7</ele>
        <time>2025-03-30T09:03:12Z</time>
      </trkpt>
      <trkpt lat="43.95994" lon="0.09398">
        <ele>149.7</ele>
        <time>2025-03-30T09:03:13Z</time>
      </trkpt>
      <trkpt lat="43.95993" lon="0.094">
        <ele>149.6</ele>
        <time>2025-03-30T09:03:14Z</time>
      </trkpt>
      <trkpt lat="43.95992" lon="0.09402">
        <ele>149.6</ele>
        <time>2025-03-30T09:03:15Z</time>
      </trkpt>
      <trkpt lat="43.95991" lon="0.09404">
        <ele>149.6</ele>
        <time>2025-03-30T09:03:16Z</time>
      </trkpt>
      <trkpt lat="43.9599" lon="0.09405">
        <ele>149.6</ele>
        <time>2025-03-30T09:03:17Z</time>
      </trkpt>
      <trkpt lat="43.95988" lon="0.09408">
        <ele>149.5</ele>
        <time>2025-03-30T09:03:19Z</time>
      </trkpt>
      <trkpt lat="43.95987" lon="0.0941">
        <ele>149.5</ele>
        <time>2025-03-30T09:03:20Z</time>
      </trkpt>
      <trkpt lat="43.95986" lon="0.09411">
        <ele>149.5</ele>
        <time>2025-03-30T09:03:21Z</time>
      </trkpt>
      <trkpt lat="43.95985" lon="0.09413">
        <ele>149.4</ele>
        <time>2025-03-30T09:03:22Z</time>
      </trkpt>
      <trkpt lat="43.95984" lon="0.09414">
        <ele>149.4</ele>
        <time>2025-03-30T09:03:23Z</time>
      </trkpt>
      <trkpt lat="43.95983" lon="0.09416">
        <ele>149.4</ele>
        <time>2025-03-30T09:03:24Z</time>
      </trkpt>
      <trkpt lat="43.95982" lon="0.09417">
        <ele>149.3</ele>
        <time>2025-03-30T09:03:25Z</time>
      </trkpt>
      <trkpt lat="43.95981" lon="0.09419">
        <ele>149.3</ele>
        <time>2025-03-30T09:03:26Z</time>
      </trkpt>
      <trkpt lat="43.9598" lon="0.09421">
        <ele>149.3</ele>
        <time>2025-03-30T09:03:27Z</time>
      </trkpt>
      <trkpt lat="43.95979" lon="0.09422">
        <ele>149.2</ele>
        <time>2025-03-30T09:03:28Z</time>
      </trkpt>
      <trkpt lat="43.95978" lon="0.09424">
        <ele>149.2</ele>
        <time>2025-03-30T09:03:29Z</time>
      </trkpt>
      <trkpt lat="43.95977" lon="0.09426">
        <ele>149.1</ele>
        <time>2025-03-30T09:03:30Z</time>
      </trkpt>
      <trkpt lat="43.95976" lon="0.09427">
        <ele>149.1</ele>
        <time>2025-03-30T09:03:31Z</time>
      </trkpt>
      <trkpt lat="43.95973" lon="0.09429">
        <ele>149</ele>
        <time>2025-03-30T09:03:33Z</time>
      </trkpt>
      <trkpt lat="43.95972" lon="0.09431">
        <ele>149</ele>
        <time>2025-03-30T09:03:34Z</time>
      </trkpt>
      <trkpt lat="43.95971" lon="0.09432">
        <ele>149</ele>
        <time>2025-03-30T09:03:35Z</time>
      </trkpt>
      <trkpt lat="43.9597" lon="0.09433">
        <ele>148.9</ele>
        <time>2025-03-30T09:03:36Z</time>
      </trkpt>
      <trkpt lat="43.95969" lon="0.09434">
        <ele>148.9</ele>
        <time>2025-03-30T09:03:37Z</time>
      </trkpt>
      <trkpt lat="43.95968" lon="0.09437">
        <ele>148.8</ele>
        <time>2025-03-30T09:03:39Z</time>
      </trkpt>
      <trkpt lat="43.95966" lon="0.09438">
        <ele>148.8</ele>
        <time>2025-03-30T09:03:40Z</time>
      </trkpt>
      <trkpt lat="43.95966" lon="0.09439">
        <ele>148.8</ele>
        <time>2025-03-30T09:03:41Z</time>
      </trkpt>
      <trkpt lat="43.95964" lon="0.09441">
        <ele>148.7</ele>
        <time>2025-03-30T09:03:42Z</time>
      </trkpt>
      <trkpt lat="43.95964" lon="0.09443">
        <ele>148.7</ele>
        <time>2025-03-30T09:03:43Z</time>
      </trkpt>
      <trkpt lat="43.95964" lon="0.09444">
        <ele>148.6</ele>
        <time>2025-03-30T09:03:44Z</time>
      </trkpt>
      <trkpt lat="43.95963" lon="0.09446">
        <ele>148.6</ele>
        <time>2025-03-30T09:03:45Z</time>
      </trkpt>
      <trkpt lat="43.95963" lon="0.09449">
        <ele>148.5</ele>
        <time>2025-03-30T09:03:46Z</time>
      </trkpt>
      <trkpt lat="43.95963" lon="0.09451">
        <ele>148.5</ele>
        <time>2025-03-30T09:03:47Z</time>
      </trkpt>
      <trkpt lat="43.95962" lon="0.09453">
        <ele>148.4</ele>
        <time>2025-03-30T09:03:48Z</time>
      </trkpt>
      <trkpt lat="43.95961" lon="0.09457">
        <ele>148.4</ele>
        <time>2025-03-30T09:03:50Z</time>
      </trkpt>
      <trkpt lat="43.9596" lon="0.09459">
        <ele>148.3</ele>
        <time>2025-03-30T09:03:51Z</time>
      </trkpt>
      <trkpt lat="43.95959" lon="0.0946">
        <ele>148.3</ele>
        <time>2025-03-30T09:03:52Z</time>
      </trkpt>
      <trkpt lat="43.95958" lon="0.09462">
        <ele>148.2</ele>
        <time>2025-03-30T09:03:53Z</time>
      </trkpt>
      <trkpt lat="43.95957" lon="0.09464">
        <ele>148.2</ele>
        <time>2025-03-30T09:03:54Z</time>
      </trkpt>
      <trkpt lat="43.95956" lon="0.09466">
        <ele>148.1</ele>
        <time>2025-03-30T09:03:55Z</time>
      </trkpt>
      <trkpt lat="43.95956" lon="0.09468">
        <ele>148.1</ele>
        <time>2025-03-30T09:03:56Z</time>
      </trkpt>
      <trkpt lat="43.95955" lon="0.09469">
        <ele>148</ele>
        <time>2025-03-30T09:03:57Z</time>
      </trkpt>
      <trkpt lat="43.95954" lon="0.09471">
        <ele>148</ele>
        <time>2025-03-30T09:03:58Z</time>
      </trkpt>
      <trkpt lat="43.95954" lon="0.09472">
        <ele>147.9</ele>
        <time>2025-03-30T09:03:59Z</time>
      </trkpt>
      <trkpt lat="43.95953" lon="0.09473">
        <ele>147.9</ele>
        <time>2025-03-30T09:04:00Z</time>
      </trkpt>
      <trkpt lat="43.95953" lon="0.09475">
        <ele>147.9</ele>
        <time>2025-03-30T09:04:01Z</time>
      </trkpt>
      <trkpt lat="43.95952" lon="0.09478">
        <ele>147.8</ele>
        <time>2025-03-30T09:04:03Z</time>
      </trkpt>
      <trkpt lat="43.9595" lon="0.0948">
        <ele>147.7</ele>
        <time>2025-03-30T09:04:04Z</time>
      </trkpt>
      <trkpt lat="43.9595" lon="0.09482">
        <ele>147.7</ele>
        <time>2025-03-30T09:04:05Z</time>
      </trkpt>
      <trkpt lat="43.9595" lon="0.09486">
        <ele>147.6</ele>
        <time>2025-03-30T09:04:07Z</time>
      </trkpt>
      <trkpt lat="43.9595" lon="0.0949">
        <ele>147.5</ele>
        <time>2025-03-30T09:04:09Z</time>
      </trkpt>
      <trkpt lat="43.95951" lon="0.09491">
        <ele>147.5</ele>
        <time>2025-03-30T09:04:10Z</time>
      </trkpt>
      <trkpt lat="43.95951" lon="0.09495">
        <ele>147.3</ele>
        <time>2025-03-30T09:04:12Z</time>
      </trkpt>
      <trkpt lat="43.95951" lon="0.09497">
        <ele>147.3</ele>
        <time>2025-03-30T09:04:13Z</time>
      </trkpt>
      <trkpt lat="43.95952" lon="0.095">
        <ele>147.2</ele>
        <time>2025-03-30T09:04:15Z</time>
      </trkpt>
      <trkpt lat="43.95953" lon="0.09502">
        <ele>147.2</ele>
        <time>2025-03-30T09:04:16Z</time>
      </trkpt>
      <trkpt lat="43.95953" lon="0.09505">
        <ele>147.1</ele>
        <time>2025-03-30T09:04:17Z</time>
      </trkpt>
      <trkpt lat="43.95953" lon="0.09506">
        <ele>147.1</ele>
        <time>2025-03-30T09:04:18Z</time>
      </trkpt>
      <trkpt lat="43.95953" lon="0.09508">
        <ele>147</ele>
        <time>2025-03-30T09:04:20Z</time>
      </trkpt>
      <trkpt lat="43.95953" lon="0.09511">
        <ele>147</ele>
        <time>2025-03-30T09:04:21Z</time>
      </trkpt>
      <trkpt lat="43.95952" lon="0.09514">
        <ele>146.9</ele>
        <time>2025-03-30T09:04:22Z</time>
      </trkpt>
      <trkpt lat="43.95952" lon="0.09515">
        <ele>146.9</ele>
        <time>2025-03-30T09:04:23Z</time>
      </trkpt>
      <trkpt lat="43.95952" lon="0.09516">
        <ele>146.8</ele>
        <time>2025-03-30T09:04:24Z</time>
      </trkpt>
      <trkpt lat="43.95951" lon="0.09519">
        <ele>146.8</ele>
        <time>2025-03-30T09:04:25Z</time>
      </trkpt>
      <trkpt lat="43.95951" lon="0.09521">
        <ele>146.7</ele>
        <time>2025-03-30T09:04:26Z</time>
      </trkpt>
      <trkpt lat="43.9595" lon="0.09523">
        <ele>146.7</ele>
        <time>2025-03-30T09:04:27Z</time>
      </trkpt>
      <trkpt lat="43.95949" lon="0.09524">
        <ele>146.6</ele>
        <time>2025-03-30T09:04:28Z</time>
      </trkpt>
      <trkpt lat="43.95948" lon="0.09525">
        <ele>146.6</ele>
        <time>2025-03-30T09:04:29Z</time>
      </trkpt>
      <trkpt lat="43.95948" lon="0.09527">
        <ele>146.6</ele>
        <time>2025-03-30T09:04:30Z</time>
      </trkpt>
      <trkpt lat="43.95947" lon="0.09529">
        <ele>146.5</ele>
        <time>2025-03-30T09:04:31Z</time>
      </trkpt>
      <trkpt lat="43.95947" lon="0.09531">
        <ele>146.5</ele>
        <time>2025-03-30T09:04:32Z</time>
      </trkpt>
      <trkpt lat="43.95947" lon="0.09533">
        <ele>146.4</ele>
        <time>2025-03-30T09:04:33Z</time>
      </trkpt>
      <trkpt lat="43.95947" lon="0.09535">
        <ele>146.4</ele>
        <time>2025-03-30T09:04:34Z</time>
      </trkpt>
      <trkpt lat="43.95947" lon="0.09537">
        <ele>146.4</ele>
        <time>2025-03-30T09:04:35Z</time>
      </trkpt>
      <trkpt lat="43.95948" lon="0.09539">
        <ele>146.3</ele>
        <time>2025-03-30T09:04:36Z</time>
      </trkpt>
      <trkpt lat="43.95947" lon="0.09541">
        <ele>146.3</ele>
        <time>2025-03-30T09:04:37Z</time>
      </trkpt>
      <trkpt lat="43.95947" lon="0.09543">
        <ele>146.2</ele>
        <time>2025-03-30T09:04:38Z</time>
      </trkpt>
      <trkpt lat="43.95947" lon="0.09545">
        <ele>146.2</ele>
        <time>2025-03-30T09:04:39Z</time>
      </trkpt>
      <trkpt lat="43.95947" lon="0.09547">
        <ele>146.2</ele>
        <time>2025-03-30T09:04:40Z</time>
      </trkpt>
      <trkpt lat="43.95947" lon="0.09549">
        <ele>146.1</ele>
        <time>2025-03-30T09:04:41Z</time>
      </trkpt>
      <trkpt lat="43.95947" lon="0.09551">
        <ele>146.1</ele>
        <time>2025-03-30T09:04:42Z</time>
      </trkpt>
      <trkpt lat="43.95948" lon="0.09553">
        <ele>146</ele>
        <time>2025-03-30T09:04:43Z</time>
      </trkpt>
      <trkpt lat="43.95948" lon="0.09555">
        <ele>146</ele>
        <time>2025-03-30T09:04:44Z</time>
      </trkpt>
      <trkpt lat="43.95948" lon="0.09558">
        <ele>145.9</ele>
        <time>2025-03-30T09:04:45Z</time>
      </trkpt>
      <trkpt lat="43.95948" lon="0.09561">
        <ele>145.9</ele>
        <time>2025-03-30T09:04:46Z</time>
      </trkpt>
      <trkpt lat="43.95948" lon="0.09562">
        <ele>145.9</ele>
        <time>2025-03-30T09:04:47Z</time>
      </trkpt>
      <trkpt lat="43.95948" lon="0.09564">
        <ele>145.8</ele>
        <time>2025-03-30T09:04:48Z</time>
      </trkpt>
      <trkpt lat="43.95948" lon="0.09567">
        <ele>145.8</ele>
        <time>2025-03-30T09:04:49Z</time>
      </trkpt>
      <trkpt lat="43.95948" lon="0.09568">
        <ele>145.8</ele>
        <time>2025-03-30T09:04:50Z</time>
      </trkpt>
      <trkpt lat="43.95947" lon="0.09569">
        <ele>145.7</ele>
        <time>2025-03-30T09:04:51Z</time>
      </trkpt>
      <trkpt lat="43.95947" lon="0.09572">
        <ele>145.7</ele>
        <time>2025-03-30T09:04:52Z</time>
      </trkpt>
      <trkpt lat="43.95946" lon="0.09573">
        <ele>145.6</ele>
        <time>2025-03-30T09:04:53Z</time>
      </trkpt>
      <trkpt lat="43.95946" lon="0.09574">
        <ele>145.6</ele>
        <time>2025-03-30T09:04:54Z</time>
      </trkpt>
      <trkpt lat="43.95946" lon="0.09578">
        <ele>145.6</ele>
        <time>2025-03-30T09:04:55Z</time>
      </trkpt>
      <trkpt lat="43.95946" lon="0.09579">
        <ele>145.6</ele>
        <time>2025-03-30T09:04:56Z</time>
      </trkpt>
      <trkpt lat="43.95946" lon="0.0958">
        <ele>145.5</ele>
        <time>2025-03-30T09:04:57Z</time>
      </trkpt>
      <trkpt lat="43.95945" lon="0.09582">
        <ele>145.5</ele>
        <time>2025-03-30T09:04:58Z</time>
      </trkpt>
      <trkpt lat="43.95945" lon="0.09584">
        <ele>145.5</ele>
        <time>2025-03-30T09:04:59Z</time>
      </trkpt>
      <trkpt lat="43.95945" lon="0.09586">
        <ele>145.4</ele>
        <time>2025-03-30T09:05:00Z</time>
      </trkpt>
      <trkpt lat="43.95945" lon="0.09588">
        <ele>145.4</ele>
        <time>2025-03-30T09:05:01Z</time>
      </trkpt>
      <trkpt lat="43.95945" lon="0.0959">
        <ele>145.4</ele>
        <time>2025-03-30T09:05:02Z</time>
      </trkpt>
      <trkpt lat="43.95945" lon="0.09592">
        <ele>145.3</ele>
        <time>2025-03-30T09:05:03Z</time>
      </trkpt>
      <trkpt lat="43.95945" lon="0.09595">
        <ele>145.3</ele>
        <time>2025-03-30T09:05:04Z</time>
      </trkpt>
      <trkpt lat="43.95945" lon="0.09596">
        <ele>145.3</ele>
        <time>2025-03-30T09:05:05Z</time>
      </trkpt>
      <trkpt lat="43.95945" lon="0.09597">
        <ele>145.2</ele>
        <time>2025-03-30T09:05:06Z</time>
      </trkpt>
      <trkpt lat="43.95945" lon="0.09599">
        <ele>145.2</ele>
        <time>2025-03-30T09:05:07Z</time>
      </trkpt>
      <trkpt lat="43.95945" lon="0.09601">
        <ele>145.2</ele>
        <time>2025-03-30T09:05:08Z</time>
      </trkpt>
      <trkpt lat="43.95945" lon="0.09604">
        <ele>145.1</ele>
        <time>2025-03-30T09:05:09Z</time>
      </trkpt>
      <trkpt lat="43.95945" lon="0.09605">
        <ele>145.1</ele>
        <time>2025-03-30T09:05:10Z</time>
      </trkpt>
      <trkpt lat="43.95945" lon="0.09607">
        <ele>145.1</ele>
        <time>2025-03-30T09:05:11Z</time>
      </trkpt>
      <trkpt lat="43.95945" lon="0.09609">
        <ele>145.1</ele>
        <time>2025-03-30T09:05:12Z</time>
      </trkpt>
      <trkpt lat="43.95945" lon="0.09611">
        <ele>145</ele>
        <time>2025-03-30T09:05:13Z</time>
      </trkpt>
      <trkpt lat="43.95944" lon="0.09613">
        <ele>145</ele>
        <time>2025-03-30T09:05:14Z</time>
      </trkpt>
      <trkpt lat="43.95944" lon="0.09615">
        <ele>145</ele>
        <time>2025-03-30T09:05:15Z</time>
      </trkpt>
      <trkpt lat="43.95944" lon="0.09617">
        <ele>144.9</ele>
        <time>2025-03-30T09:05:16Z</time>
      </trkpt>
      <trkpt lat="43.95944" lon="0.09619">
        <ele>144.9</ele>
        <time>2025-03-30T09:05:17Z</time>
      </trkpt>
      <trkpt lat="43.95944" lon="0.09621">
        <ele>144.9</ele>
        <time>2025-03-30T09:05:18Z</time>
      </trkpt>
      <trkpt lat="43.95944" lon="0.09623">
        <ele>144.8</ele>
        <time>2025-03-30T09:05:19Z</time>
      </trkpt>
      <trkpt lat="43.95945" lon="0.09624">
        <ele>144.8</ele>
        <time>2025-03-30T09:05:20Z</time>
      </trkpt>
      <trkpt lat="43.95945" lon="0.09625">
        <ele>144.8</ele>
        <time>2025-03-30T09:05:21Z</time>
      </trkpt>
      <trkpt lat="43.95945" lon="0.09627">
        <ele>144.8</ele>
        <time>2025-03-30T09:05:22Z</time>
      </trkpt>
      <trkpt lat="43.95944" lon="0.09629">
        <ele>144.7</ele>
        <time>2025-03-30T09:05:23Z</time>
      </trkpt>
      <trkpt lat="43.95944" lon="0.09631">
        <ele>144.7</ele>
        <time>2025-03-30T09:05:24Z</time>
      </trkpt>
      <trkpt lat="43.95944" lon="0.09633">
        <ele>144.7</ele>
        <time>2025-03-30T09:05:25Z</time>
      </trkpt>
      <trkpt lat="43.95944" lon="0.09635">
        <ele>144.6</ele>
        <time>2025-03-30T09:05:26Z</time>
      </trkpt>
      <trkpt lat="43.95944" lon="0.09638">
        <ele>144.6</ele>
        <time>2025-03-30T09:05:27Z</time>
      </trkpt>
      <trkpt lat="43.95944" lon="0.09639">
        <ele>144.6</ele>
        <time>2025-03-30T09:05:28Z</time>
      </trkpt>
      <trkpt lat="43.95944" lon="0.09641">
        <ele>144.5</ele>
        <time>2025-03-30T09:05:29Z</time>
      </trkpt>
      <trkpt lat="43.95944" lon="0.09643">
        <ele>144.5</ele>
        <time>2025-03-30T09:05:30Z</time>
      </trkpt>
      <trkpt lat="43.95944" lon="0.09644">
        <ele>144.5</ele>
        <time>2025-03-30T09:05:31Z</time>
      </trkpt>
      <trkpt lat="43.95944" lon="0.09647">
        <ele>144.4</ele>
        <time>2025-03-30T09:05:33Z</time>
      </trkpt>
      <trkpt lat="43.95944" lon="0.09648">
        <ele>144.4</ele>
        <time>2025-03-30T09:05:34Z</time>
      </trkpt>
      <trkpt lat="43.95944" lon="0.0965">
        <ele>144.3</ele>
        <time>2025-03-30T09:05:35Z</time>
      </trkpt>
      <trkpt lat="43.95944" lon="0.09652">
        <ele>144.3</ele>
        <time>2025-03-30T09:05:36Z</time>
      </trkpt>
      <trkpt lat="43.95943" lon="0.09654">
        <ele>144.2</ele>
        <time>2025-03-30T09:05:37Z</time>
      </trkpt>
      <trkpt lat="43.95943" lon="0.09656">
        <ele>144.2</ele>
        <time>2025-03-30T09:05:38Z</time>
      </trkpt>
      <trkpt lat="43.95942" lon="0.09658">
        <ele>144.1</ele>
        <time>2025-03-30T09:05:39Z</time>
      </trkpt>
      <trkpt lat="43.95942" lon="0.0966">
        <ele>144</ele>
        <time>2025-03-30T09:05:40Z</time>
      </trkpt>
      <trkpt lat="43.95942" lon="0.09663">
        <ele>144</ele>
        <time>2025-03-30T09:05:41Z</time>
      </trkpt>
      <trkpt lat="43.95942" lon="0.09665">
        <ele>143.9</ele>
        <time>2025-03-30T09:05:42Z</time>
      </trkpt>
      <trkpt lat="43.95941" lon="0.09667">
        <ele>143.8</ele>
        <time>2025-03-30T09:05:43Z</time>
      </trkpt>
      <trkpt lat="43.95941" lon="0.09669">
        <ele>143.7</ele>
        <time>2025-03-30T09:05:44Z</time>
      </trkpt>
      <trkpt lat="43.95941" lon="0.09671">
        <ele>143.6</ele>
        <time>2025-03-30T09:05:45Z</time>
      </trkpt>
      <trkpt lat="43.95941" lon="0.09673">
        <ele>143.5</ele>
        <time>2025-03-30T09:05:46Z</time>
      </trkpt>
      <trkpt lat="43.95941" lon="0.09675">
        <ele>143.4</ele>
        <time>2025-03-30T09:05:47Z</time>
      </trkpt>
      <trkpt lat="43.95941" lon="0.09677">
        <ele>143.3</ele>
        <time>2025-03-30T09:05:48Z</time>
      </trkpt>
      <trkpt lat="43.95941" lon="0.09679">
        <ele>143.3</ele>
        <time>2025-03-30T09:05:49Z</time>
      </trkpt>
      <trkpt lat="43.95941" lon="0.09682">
        <ele>143.2</ele>
        <time>2025-03-30T09:05:50Z</time>
      </trkpt>
      <trkpt lat="43.95941" lon="0.09684">
        <ele>143.1</ele>
        <time>2025-03-30T09:05:51Z</time>
      </trkpt>
      <trkpt lat="43.95941" lon="0.09686">
        <ele>143</ele>
        <time>2025-03-30T09:05:52Z</time>
      </trkpt>
      <trkpt lat="43.95941" lon="0.09688">
        <ele>142.9</ele>
        <time>2025-03-30T09:05:53Z</time>
      </trkpt>
      <trkpt lat="43.95941" lon="0.0969">
        <ele>142.8</ele>
        <time>2025-03-30T09:05:54Z</time>
      </trkpt>
      <trkpt lat="43.95941" lon="0.09692">
        <ele>142.7</ele>
        <time>2025-03-30T09:05:55Z</time>
      </trkpt>
      <trkpt lat="43.95941" lon="0.09694">
        <ele>142.6</ele>
        <time>2025-03-30T09:05:56Z</time>
      </trkpt>
      <trkpt lat="43.95941" lon="0.09696">
        <ele>142.6</ele>
        <time>2025-03-30T09:05:57Z</time>
      </trkpt>
      <trkpt lat="43.95941" lon="0.09698">
        <ele>142.5</ele>
        <time>2025-03-30T09:05:58Z</time>
      </trkpt>
      <trkpt lat="43.95941" lon="0.097">
        <ele>142.4</ele>
        <time>2025-03-30T09:05:59Z</time>
      </trkpt>
      <trkpt lat="43.95942" lon="0.09702">
        <ele>142.3</ele>
        <time>2025-03-30T09:06:00Z</time>
      </trkpt>
      <trkpt lat="43.95942" lon="0.09704">
        <ele>142.3</ele>
        <time>2025-03-30T09:06:01Z</time>
      </trkpt>
      <trkpt lat="43.95942" lon="0.09706">
        <ele>142.2</ele>
        <time>2025-03-30T09:06:02Z</time>
      </trkpt>
      <trkpt lat="43.95942" lon="0.09708">
        <ele>142.1</ele>
        <time>2025-03-30T09:06:03Z</time>
      </trkpt>
      <trkpt lat="43.95942" lon="0.0971">
        <ele>142.1</ele>
        <time>2025-03-30T09:06:04Z</time>
      </trkpt>
      <trkpt lat="43.95942" lon="0.09712">
        <ele>142</ele>
        <time>2025-03-30T09:06:05Z</time>
      </trkpt>
      <trkpt lat="43.95941" lon="0.09715">
        <ele>142</ele>
        <time>2025-03-30T09:06:06Z</time>
      </trkpt>
      <trkpt lat="43.95942" lon="0.09717">
        <ele>141.9</ele>
        <time>2025-03-30T09:06:07Z</time>
      </trkpt>
      <trkpt lat="43.95942" lon="0.09719">
        <ele>141.8</ele>
        <time>2025-03-30T09:06:08Z</time>
      </trkpt>
      <trkpt lat="43.95942" lon="0.09721">
        <ele>141.8</ele>
        <time>2025-03-30T09:06:09Z</time>
      </trkpt>
      <trkpt lat="43.95942" lon="0.09723">
        <ele>141.7</ele>
        <time>2025-03-30T09:06:10Z</time>
      </trkpt>
      <trkpt lat="43.95943" lon="0.09725">
        <ele>141.7</ele>
        <time>2025-03-30T09:06:11Z</time>
      </trkpt>
      <trkpt lat="43.95943" lon="0.09726">
        <ele>141.7</ele>
        <time>2025-03-30T09:06:12Z</time>
      </trkpt>
      <trkpt lat="43.95943" lon="0.09728">
        <ele>141.6</ele>
        <time>2025-03-30T09:06:13Z</time>
      </trkpt>
      <trkpt lat="43.95944" lon="0.0973">
        <ele>141.6</ele>
        <time>2025-03-30T09:06:14Z</time>
      </trkpt>
      <trkpt lat="43.95944" lon="0.09732">
        <ele>141.5</ele>
        <time>2025-03-30T09:06:15Z</time>
      </trkpt>
      <trkpt lat="43.95945" lon="0.09734">
        <ele>141.5</ele>
        <time>2025-03-30T09:06:16Z</time>
      </trkpt>
      <trkpt lat="43.95945" lon="0.09737">
        <ele>141.4</ele>
        <time>2025-03-30T09:06:17Z</time>
      </trkpt>
      <trkpt lat="43.95945" lon="0.09738">
        <ele>141.4</ele>
        <time>2025-03-30T09:06:18Z</time>
      </trkpt>
      <trkpt lat="43.95945" lon="0.09739">
        <ele>141.3</ele>
        <time>2025-03-30T09:06:19Z</time>
      </trkpt>
      <trkpt lat="43.95945" lon="0.09742">
        <ele>141.3</ele>
        <time>2025-03-30T09:06:20Z</time>
      </trkpt>
      <trkpt lat="43.95945" lon="0.09743">
        <ele>141.2</ele>
        <time>2025-03-30T09:06:21Z</time>
      </trkpt>
      <trkpt lat="43.95945" lon="0.09745">
        <ele>141.2</ele>
        <time>2025-03-30T09:06:22Z</time>
      </trkpt>
      <trkpt lat="43.95945" lon="0.09748">
        <ele>141.1</ele>
        <time>2025-03-30T09:06:23Z</time>
      </trkpt>
      <trkpt lat="43.95945" lon="0.09749">
        <ele>141.1</ele>
        <time>2025-03-30T09:06:24Z</time>
      </trkpt>
      <trkpt lat="43.95945" lon="0.0975">
        <ele>141.1</ele>
        <time>2025-03-30T09:06:25Z</time>
      </trkpt>
      <trkpt lat="43.95945" lon="0.09752">
        <ele>141</ele>
        <time>2025-03-30T09:06:26Z</time>
      </trkpt>
      <trkpt lat="43.95945" lon="0.09754">
        <ele>141</ele>
        <time>2025-03-30T09:06:27Z</time>
      </trkpt>
      <trkpt lat="43.95945" lon="0.09756">
        <ele>140.9</ele>
        <time>2025-03-30T09:06:28Z</time>
      </trkpt>
      <trkpt lat="43.95946" lon="0.09758">
        <ele>140.9</ele>
        <time>2025-03-30T09:06:29Z</time>
      </trkpt>
      <trkpt lat="43.95946" lon="0.09761">
        <ele>140.8</ele>
        <time>2025-03-30T09:06:30Z</time>
      </trkpt>
      <trkpt lat="43.95946" lon="0.09762">
        <ele>140.8</ele>
        <time>2025-03-30T09:06:31Z</time>
      </trkpt>
      <trkpt lat="43.95946" lon="0.09763">
        <ele>140.8</ele>
        <time>2025-03-30T09:06:32Z</time>
      </trkpt>
      <trkpt lat="43.95946" lon="0.09767">
        <ele>140.7</ele>
        <time>2025-03-30T09:06:33Z</time>
      </trkpt>
      <trkpt lat="43.95946" lon="0.09768">
        <ele>140.7</ele>
        <time>2025-03-30T09:06:34Z</time>
      </trkpt>
      <trkpt lat="43.95946" lon="0.09769">
        <ele>140.7</ele>
        <time>2025-03-30T09:06:35Z</time>
      </trkpt>
      <trkpt lat="43.95946" lon="0.09771">
        <ele>140.6</ele>
        <time>2025-03-30T09:06:36Z</time>
      </trkpt>
      <trkpt lat="43.95946" lon="0.09773">
        <ele>140.6</ele>
        <time>2025-03-30T09:06:37Z</time>
      </trkpt>
      <trkpt lat="43.95947" lon="0.09776">
        <ele>140.5</ele>
        <time>2025-03-30T09:06:38Z</time>
      </trkpt>
      <trkpt lat="43.95947" lon="0.09777">
        <ele>140.5</ele>
        <time>2025-03-30T09:06:39Z</time>
      </trkpt>
      <trkpt lat="43.95947" lon="0.09779">
        <ele>140.4</ele>
        <time>2025-03-30T09:06:40Z</time>
      </trkpt>
      <trkpt lat="43.95947" lon="0.09781">
        <ele>140.4</ele>
        <time>2025-03-30T09:06:41Z</time>
      </trkpt>
      <trkpt lat="43.95947" lon="0.09782">
        <ele>140.3</ele>
        <time>2025-03-30T09:06:42Z</time>
      </trkpt>
      <trkpt lat="43.95948" lon="0.09784">
        <ele>140.3</ele>
        <time>2025-03-30T09:06:43Z</time>
      </trkpt>
      <trkpt lat="43.95948" lon="0.09786">
        <ele>140.2</ele>
        <time>2025-03-30T09:06:44Z</time>
      </trkpt>
      <trkpt lat="43.95948" lon="0.09788">
        <ele>140.2</ele>
        <time>2025-03-30T09:06:45Z</time>
      </trkpt>
      <trkpt lat="43.95948" lon="0.0979">
        <ele>140.1</ele>
        <time>2025-03-30T09:06:46Z</time>
      </trkpt>
      <trkpt lat="43.95948" lon="0.09792">
        <ele>140.1</ele>
        <time>2025-03-30T09:06:47Z</time>
      </trkpt>
      <trkpt lat="43.95948" lon="0.09794">
        <ele>140.1</ele>
        <time>2025-03-30T09:06:48Z</time>
      </trkpt>
      <trkpt lat="43.95948" lon="0.09796">
        <ele>140</ele>
        <time>2025-03-30T09:06:49Z</time>
      </trkpt>
      <trkpt lat="43.95948" lon="0.09798">
        <ele>140</ele>
        <time>2025-03-30T09:06:50Z</time>
      </trkpt>
      <trkpt lat="43.95948" lon="0.098">
        <ele>139.9</ele>
        <time>2025-03-30T09:06:51Z</time>
      </trkpt>
      <trkpt lat="43.95948" lon="0.09802">
        <ele>139.9</ele>
        <time>2025-03-30T09:06:52Z</time>
      </trkpt>
      <trkpt lat="43.95948" lon="0.09803">
        <ele>139.8</ele>
        <time>2025-03-30T09:06:53Z</time>
      </trkpt>
      <trkpt lat="43.95948" lon="0.09805">
        <ele>139.8</ele>
        <time>2025-03-30T09:06:54Z</time>
      </trkpt>
      <trkpt lat="43.95948" lon="0.09808">
        <ele>139.7</ele>
        <time>2025-03-30T09:06:55Z</time>
      </trkpt>
      <trkpt lat="43.95948" lon="0.0981">
        <ele>139.7</ele>
        <time>2025-03-30T09:06:56Z</time>
      </trkpt>
      <trkpt lat="43.95948" lon="0.09811">
        <ele>139.7</ele>
        <time>2025-03-30T09:06:57Z</time>
      </trkpt>
      <trkpt lat="43.95949" lon="0.09812">
        <ele>139.7</ele>
        <time>2025-03-30T09:06:58Z</time>
      </trkpt>
      <trkpt lat="43.95949" lon="0.09814">
        <ele>139.6</ele>
        <time>2025-03-30T09:06:59Z</time>
      </trkpt>
      <trkpt lat="43.9595" lon="0.09817">
        <ele>139.6</ele>
        <time>2025-03-30T09:07:00Z</time>
      </trkpt>
      <trkpt lat="43.9595" lon="0.09819">
        <ele>139.5</ele>
        <time>2025-03-30T09:07:01Z</time>
      </trkpt>
      <trkpt lat="43.9595" lon="0.0982">
        <ele>139.5</ele>
        <time>2025-03-30T09:07:02Z</time>
      </trkpt>
      <trkpt lat="43.9595" lon="0.09823">
        <ele>139.4</ele>
        <time>2025-03-30T09:07:03Z</time>
      </trkpt>
      <trkpt lat="43.9595" lon="0.09824">
        <ele>139.4</ele>
        <time>2025-03-30T09:07:04Z</time>
      </trkpt>
      <trkpt lat="43.9595" lon="0.09825">
        <ele>139.4</ele>
        <time>2025-03-30T09:07:05Z</time>
      </trkpt>
      <trkpt lat="43.9595" lon="0.09827">
        <ele>139.3</ele>
        <time>2025-03-30T09:07:06Z</time>
      </trkpt>
      <trkpt lat="43.9595" lon="0.09829">
        <ele>139.3</ele>
        <time>2025-03-30T09:07:07Z</time>
      </trkpt>
      <trkpt lat="43.9595" lon="0.09832">
        <ele>139.2</ele>
        <time>2025-03-30T09:07:08Z</time>
      </trkpt>
      <trkpt lat="43.9595" lon="0.09833">
        <ele>139.2</ele>
        <time>2025-03-30T09:07:09Z</time>
      </trkpt>
      <trkpt lat="43.9595" lon="0.09835">
        <ele>139.2</ele>
        <time>2025-03-30T09:07:10Z</time>
      </trkpt>
      <trkpt lat="43.9595" lon="0.09836">
        <ele>139.2</ele>
        <time>2025-03-30T09:07:11Z</time>
      </trkpt>
      <trkpt lat="43.9595" lon="0.09838">
        <ele>139.1</ele>
        <time>2025-03-30T09:07:12Z</time>
      </trkpt>
      <trkpt lat="43.95949" lon="0.0984">
        <ele>139.1</ele>
        <time>2025-03-30T09:07:13Z</time>
      </trkpt>
      <trkpt lat="43.95949" lon="0.09842">
        <ele>139</ele>
        <time>2025-03-30T09:07:14Z</time>
      </trkpt>
      <trkpt lat="43.95948" lon="0.09845">
        <ele>139</ele>
        <time>2025-03-30T09:07:15Z</time>
      </trkpt>
      <trkpt lat="43.95948" lon="0.09846">
        <ele>139</ele>
        <time>2025-03-30T09:07:16Z</time>
      </trkpt>
      <trkpt lat="43.95948" lon="0.09847">
        <ele>138.9</ele>
        <time>2025-03-30T09:07:17Z</time>
      </trkpt>
      <trkpt lat="43.95948" lon="0.09849">
        <ele>138.9</ele>
        <time>2025-03-30T09:07:18Z</time>
      </trkpt>
      <trkpt lat="43.95949" lon="0.09851">
        <ele>138.9</ele>
        <time>2025-03-30T09:07:19Z</time>
      </trkpt>
      <trkpt lat="43.95949" lon="0.09853">
        <ele>138.8</ele>
        <time>2025-03-30T09:07:20Z</time>
      </trkpt>
      <trkpt lat="43.95949" lon="0.09855">
        <ele>138.8</ele>
        <time>2025-03-30T09:07:21Z</time>
      </trkpt>
      <trkpt lat="43.9595" lon="0.09858">
        <ele>138.7</ele>
        <time>2025-03-30T09:07:22Z</time>
      </trkpt>
      <trkpt lat="43.9595" lon="0.09859">
        <ele>138.7</ele>
        <time>2025-03-30T09:07:23Z</time>
      </trkpt>
      <trkpt lat="43.9595" lon="0.0986">
        <ele>138.7</ele>
        <time>2025-03-30T09:07:24Z</time>
      </trkpt>
      <trkpt lat="43.9595" lon="0.09862">
        <ele>138.6</ele>
        <time>2025-03-30T09:07:25Z</time>
      </trkpt>
      <trkpt lat="43.9595" lon="0.09864">
        <ele>138.6</ele>
        <time>2025-03-30T09:07:26Z</time>
      </trkpt>
      <trkpt lat="43.9595" lon="0.09866">
        <ele>138.6</ele>
        <time>2025-03-30T09:07:27Z</time>
      </trkpt>
      <trkpt lat="43.9595" lon="0.09868">
        <ele>138.5</ele>
        <time>2025-03-30T09:07:28Z</time>
      </trkpt>
      <trkpt lat="43.9595" lon="0.0987">
        <ele>138.5</ele>
        <time>2025-03-30T09:07:29Z</time>
      </trkpt>
      <trkpt lat="43.95951" lon="0.09872">
        <ele>138.5</ele>
        <time>2025-03-30T09:07:30Z</time>
      </trkpt>
      <trkpt lat="43.95951" lon="0.09873">
        <ele>138.4</ele>
        <time>2025-03-30T09:07:31Z</time>
      </trkpt>
      <trkpt lat="43.95951" lon="0.09876">
        <ele>138.4</ele>
        <time>2025-03-30T09:07:32Z</time>
      </trkpt>
      <trkpt lat="43.95951" lon="0.09878">
        <ele>138.4</ele>
        <time>2025-03-30T09:07:33Z</time>
      </trkpt>
      <trkpt lat="43.95951" lon="0.0988">
        <ele>138.3</ele>
        <time>2025-03-30T09:07:34Z</time>
      </trkpt>
      <trkpt lat="43.95951" lon="0.09881">
        <ele>138.3</ele>
        <time>2025-03-30T09:07:35Z</time>
      </trkpt>
      <trkpt lat="43.95951" lon="0.09884">
        <ele>138.3</ele>
        <time>2025-03-30T09:07:36Z</time>
      </trkpt>
      <trkpt lat="43.95951" lon="0.09885">
        <ele>138.3</ele>
        <time>2025-03-30T09:07:37Z</time>
      </trkpt>
      <trkpt lat="43.95951" lon="0.09886">
        <ele>138.3</ele>
        <time>2025-03-30T09:07:38Z</time>
      </trkpt>
      <trkpt lat="43.95951" lon="0.09888">
        <ele>138.2</ele>
        <time>2025-03-30T09:07:39Z</time>
      </trkpt>
      <trkpt lat="43.95951" lon="0.0989">
        <ele>138.2</ele>
        <time>2025-03-30T09:07:40Z</time>
      </trkpt>
      <trkpt lat="43.95951" lon="0.09892">
        <ele>138.2</ele>
        <time>2025-03-30T09:07:41Z</time>
      </trkpt>
      <trkpt lat="43.95951" lon="0.09894">
        <ele>138.2</ele>
        <time>2025-03-30T09:07:42Z</time>
      </trkpt>
      <trkpt lat="43.95951" lon="0.09896">
        <ele>138.2</ele>
        <time>2025-03-30T09:07:43Z</time>
      </trkpt>
      <trkpt lat="43.95952" lon="0.09898">
        <ele>138.2</ele>
        <time>2025-03-30T09:07:44Z</time>
      </trkpt>
      <trkpt lat="43.95952" lon="0.099">
        <ele>138.2</ele>
        <time>2025-03-30T09:07:45Z</time>
      </trkpt>
      <trkpt lat="43.95952" lon="0.09902">
        <ele>138.2</ele>
        <time>2025-03-30T09:07:46Z</time>
      </trkpt>
      <trkpt lat="43.95953" lon="0.09903">
        <ele>138.2</ele>
        <time>2025-03-30T09:07:47Z</time>
      </trkpt>
      <trkpt lat="43.95953" lon="0.09905">
        <ele>138.3</ele>
        <time>2025-03-30T09:07:48Z</time>
      </trkpt>
      <trkpt lat="43.95953" lon="0.09907">
        <ele>138.3</ele>
        <time>2025-03-30T09:07:49Z</time>
      </trkpt>
      <trkpt lat="43.95953" lon="0.09909">
        <ele>138.3</ele>
        <time>2025-03-30T09:07:50Z</time>
      </trkpt>
      <trkpt lat="43.95952" lon="0.09911">
        <ele>138.3</ele>
        <time>2025-03-30T09:07:51Z</time>
      </trkpt>
      <trkpt lat="43.95952" lon="0.09913">
        <ele>138.3</ele>
        <time>2025-03-30T09:07:52Z</time>
      </trkpt>
      <trkpt lat="43.95952" lon="0.09915">
        <ele>138.3</ele>
        <time>2025-03-30T09:07:53Z</time>
      </trkpt>
      <trkpt lat="43.95951" lon="0.09917">
        <ele>138.3</ele>
        <time>2025-03-30T09:07:54Z</time>
      </trkpt>
      <trkpt lat="43.95949" lon="0.0992">
        <ele>138.3</ele>
        <time>2025-03-30T09:07:56Z</time>
      </trkpt>
      <trkpt lat="43.95948" lon="0.09921">
        <ele>138.4</ele>
        <time>2025-03-30T09:07:57Z</time>
      </trkpt>
      <trkpt lat="43.95945" lon="0.09922">
        <ele>138.3</ele>
        <time>2025-03-30T09:07:59Z</time>
      </trkpt>
      <trkpt lat="43.95943" lon="0.09921">
        <ele>138.3</ele>
        <time>2025-03-30T09:08:00Z</time>
      </trkpt>
      <trkpt lat="43.95942" lon="0.09922">
        <ele>138.3</ele>
        <time>2025-03-30T09:08:01Z</time>
      </trkpt>
      <trkpt lat="43.95941" lon="0.09922">
        <ele>138.3</ele>
        <time>2025-03-30T09:08:02Z</time>
      </trkpt>
      <trkpt lat="43.95938" lon="0.09922">
        <ele>138.3</ele>
        <time>2025-03-30T09:08:03Z</time>
      </trkpt>
      <trkpt lat="43.95938" lon="0.09922">
        <ele>138.3</ele>
        <time>2025-03-30T09:08:04Z</time>
      </trkpt>
      <trkpt lat="43.95937" lon="0.09922">
        <ele>138.3</ele>
        <time>2025-03-30T09:08:05Z</time>
      </trkpt>
      <trkpt lat="43.95934" lon="0.09922">
        <ele>138.3</ele>
        <time>2025-03-30T09:08:06Z</time>
      </trkpt>
      <trkpt lat="43.95933" lon="0.09922">
        <ele>138.2</ele>
        <time>2025-03-30T09:08:07Z</time>
      </trkpt>
      <trkpt lat="43.95932" lon="0.09922">
        <ele>138.2</ele>
        <time>2025-03-30T09:08:08Z</time>
      </trkpt>
      <trkpt lat="43.9593" lon="0.09921">
        <ele>138.2</ele>
        <time>2025-03-30T09:08:09Z</time>
      </trkpt>
      <trkpt lat="43.9593" lon="0.09921">
        <ele>138.2</ele>
        <time>2025-03-30T09:08:10Z</time>
      </trkpt>
      <trkpt lat="43.95929" lon="0.09921">
        <ele>138.2</ele>
        <time>2025-03-30T09:08:11Z</time>
      </trkpt>
      <trkpt lat="43.95926" lon="0.0992">
        <ele>138.2</ele>
        <time>2025-03-30T09:08:12Z</time>
      </trkpt>
      <trkpt lat="43.95925" lon="0.0992">
        <ele>138.2</ele>
        <time>2025-03-30T09:08:13Z</time>
      </trkpt>
      <trkpt lat="43.95924" lon="0.0992">
        <ele>138.2</ele>
        <time>2025-03-30T09:08:14Z</time>
      </trkpt>
      <trkpt lat="43.95923" lon="0.0992">
        <ele>138.2</ele>
        <time>2025-03-30T09:08:15Z</time>
      </trkpt>
      <trkpt lat="43.95922" lon="0.0992">
        <ele>138.1</ele>
        <time>2025-03-30T09:08:16Z</time>
      </trkpt>
      <trkpt lat="43.95921" lon="0.0992">
        <ele>138.1</ele>
        <time>2025-03-30T09:08:17Z</time>
      </trkpt>
      <trkpt lat="43.95919" lon="0.0992">
        <ele>138.1</ele>
        <time>2025-03-30T09:08:18Z</time>
      </trkpt>
      <trkpt lat="43.95918" lon="0.0992">
        <ele>138.1</ele>
        <time>2025-03-30T09:08:19Z</time>
      </trkpt>
      <trkpt lat="43.95916" lon="0.0992">
        <ele>138.1</ele>
        <time>2025-03-30T09:08:20Z</time>
      </trkpt>
      <trkpt lat="43.95915" lon="0.0992">
        <ele>138</ele>
        <time>2025-03-30T09:08:21Z</time>
      </trkpt>
      <trkpt lat="43.95913" lon="0.0992">
        <ele>138</ele>
        <time>2025-03-30T09:08:22Z</time>
      </trkpt>
      <trkpt lat="43.95912" lon="0.0992">
        <ele>138</ele>
        <time>2025-03-30T09:08:23Z</time>
      </trkpt>
      <trkpt lat="43.95911" lon="0.0992">
        <ele>138</ele>
        <time>2025-03-30T09:08:24Z</time>
      </trkpt>
      <trkpt lat="43.95909" lon="0.0992">
        <ele>137.9</ele>
        <time>2025-03-30T09:08:25Z</time>
      </trkpt>
      <trkpt lat="43.95908" lon="0.0992">
        <ele>137.9</ele>
        <time>2025-03-30T09:08:26Z</time>
      </trkpt>
      <trkpt lat="43.95907" lon="0.0992">
        <ele>137.9</ele>
        <time>2025-03-30T09:08:27Z</time>
      </trkpt>
      <trkpt lat="43.95905" lon="0.0992">
        <ele>137.9</ele>
        <time>2025-03-30T09:08:28Z</time>
      </trkpt>
      <trkpt lat="43.95903" lon="0.0992">
        <ele>137.9</ele>
        <time>2025-03-30T09:08:30Z</time>
      </trkpt>
      <trkpt lat="43.95902" lon="0.0992">
        <ele>137.8</ele>
        <time>2025-03-30T09:08:31Z</time>
      </trkpt>
      <trkpt lat="43.95899" lon="0.09919">
        <ele>137.8</ele>
        <time>2025-03-30T09:08:33Z</time>
      </trkpt>
      <trkpt lat="43.95897" lon="0.09919">
        <ele>137.8</ele>
        <time>2025-03-30T09:08:34Z</time>
      </trkpt>
      <trkpt lat="43.95896" lon="0.09919">
        <ele>137.8</ele>
        <time>2025-03-30T09:08:35Z</time>
      </trkpt>
      <trkpt lat="43.95894" lon="0.09918">
        <ele>137.8</ele>
        <time>2025-03-30T09:08:36Z</time>
      </trkpt>
      <trkpt lat="43.95893" lon="0.09918">
        <ele>137.8</ele>
        <time>2025-03-30T09:08:37Z</time>
      </trkpt>
      <trkpt lat="43.95892" lon="0.09918">
        <ele>137.8</ele>
        <time>2025-03-30T09:08:38Z</time>
      </trkpt>
      <trkpt lat="43.95891" lon="0.09918">
        <ele>137.8</ele>
        <time>2025-03-30T09:08:39Z</time>
      </trkpt>
      <trkpt lat="43.95889" lon="0.09918">
        <ele>137.8</ele>
        <time>2025-03-30T09:08:40Z</time>
      </trkpt>
      <trkpt lat="43.95888" lon="0.09918">
        <ele>137.8</ele>
        <time>2025-03-30T09:08:41Z</time>
      </trkpt>
      <trkpt lat="43.95886" lon="0.09918">
        <ele>137.8</ele>
        <time>2025-03-30T09:08:42Z</time>
      </trkpt>
      <trkpt lat="43.95885" lon="0.09918">
        <ele>137.8</ele>
        <time>2025-03-30T09:08:43Z</time>
      </trkpt>
      <trkpt lat="43.95884" lon="0.09918">
        <ele>137.8</ele>
        <time>2025-03-30T09:08:44Z</time>
      </trkpt>
      <trkpt lat="43.95882" lon="0.09918">
        <ele>137.8</ele>
        <time>2025-03-30T09:08:45Z</time>
      </trkpt>
      <trkpt lat="43.9588" lon="0.09919">
        <ele>137.8</ele>
        <time>2025-03-30T09:08:46Z</time>
      </trkpt>
      <trkpt lat="43.95879" lon="0.09919">
        <ele>137.8</ele>
        <time>2025-03-30T09:08:47Z</time>
      </trkpt>
      <trkpt lat="43.95878" lon="0.09919">
        <ele>137.8</ele>
        <time>2025-03-30T09:08:48Z</time>
      </trkpt>
      <trkpt lat="43.95876" lon="0.09919">
        <ele>137.8</ele>
        <time>2025-03-30T09:08:49Z</time>
      </trkpt>
      <trkpt lat="43.95875" lon="0.09919">
        <ele>137.8</ele>
        <time>2025-03-30T09:08:50Z</time>
      </trkpt>
      <trkpt lat="43.95874" lon="0.09919">
        <ele>137.8</ele>
        <time>2025-03-30T09:08:51Z</time>
      </trkpt>
      <trkpt lat="43.95872" lon="0.09919">
        <ele>137.8</ele>
        <time>2025-03-30T09:08:53Z</time>
      </trkpt>
      <trkpt lat="43.9587" lon="0.09919">
        <ele>137.8</ele>
        <time>2025-03-30T09:08:54Z</time>
      </trkpt>
      <trkpt lat="43.95869" lon="0.0992">
        <ele>137.8</ele>
        <time>2025-03-30T09:08:55Z</time>
      </trkpt>
      <trkpt lat="43.95867" lon="0.0992">
        <ele>137.9</ele>
        <time>2025-03-30T09:08:56Z</time>
      </trkpt>
      <trkpt lat="43.95866" lon="0.0992">
        <ele>137.9</ele>
        <time>2025-03-30T09:08:57Z</time>
      </trkpt>
      <trkpt lat="43.95865" lon="0.0992">
        <ele>137.9</ele>
        <time>2025-03-30T09:08:58Z</time>
      </trkpt>
      <trkpt lat="43.95863" lon="0.0992">
        <ele>137.9</ele>
        <time>2025-03-30T09:08:59Z</time>
      </trkpt>
      <trkpt lat="43.9586" lon="0.09919">
        <ele>137.9</ele>
        <time>2025-03-30T09:09:01Z</time>
      </trkpt>
      <trkpt lat="43.95859" lon="0.09919">
        <ele>137.9</ele>
        <time>2025-03-30T09:09:02Z</time>
      </trkpt>
      <trkpt lat="43.95858" lon="0.09919">
        <ele>138</ele>
        <time>2025-03-30T09:09:03Z</time>
      </trkpt>
      <trkpt lat="43.95855" lon="0.09919">
        <ele>138</ele>
        <time>2025-03-30T09:09:05Z</time>
      </trkpt>
      <trkpt lat="43.95854" lon="0.0992">
        <ele>138</ele>
        <time>2025-03-30T09:09:06Z</time>
      </trkpt>
      <trkpt lat="43.95853" lon="0.0992">
        <ele>138</ele>
        <time>2025-03-30T09:09:07Z</time>
      </trkpt>
      <trkpt lat="43.95852" lon="0.0992">
        <ele>138</ele>
        <time>2025-03-30T09:09:08Z</time>
      </trkpt>
      <trkpt lat="43.95851" lon="0.0992">
        <ele>138</ele>
        <time>2025-03-30T09:09:09Z</time>
      </trkpt>
      <trkpt lat="43.95849" lon="0.0992">
        <ele>138.1</ele>
        <time>2025-03-30T09:09:10Z</time>
      </trkpt>
      <trkpt lat="43.95848" lon="0.0992">
        <ele>138.1</ele>
        <time>2025-03-30T09:09:11Z</time>
      </trkpt>
      <trkpt lat="43.95844" lon="0.09919">
        <ele>138.1</ele>
        <time>2025-03-30T09:09:13Z</time>
      </trkpt>
      <trkpt lat="43.95844" lon="0.09918">
        <ele>138.1</ele>
        <time>2025-03-30T09:09:14Z</time>
      </trkpt>
      <trkpt lat="43.95842" lon="0.09918">
        <ele>138.1</ele>
        <time>2025-03-30T09:09:15Z</time>
      </trkpt>
      <trkpt lat="43.95841" lon="0.09918">
        <ele>138.1</ele>
        <time>2025-03-30T09:09:16Z</time>
      </trkpt>
      <trkpt lat="43.95837" lon="0.09918">
        <ele>138.2</ele>
        <time>2025-03-30T09:09:18Z</time>
      </trkpt>
      <trkpt lat="43.95836" lon="0.09918">
        <ele>138.2</ele>
        <time>2025-03-30T09:09:19Z</time>
      </trkpt>
      <trkpt lat="43.95835" lon="0.09918">
        <ele>138.2</ele>
        <time>2025-03-30T09:09:20Z</time>
      </trkpt>
      <trkpt lat="43.95834" lon="0.09918">
        <ele>138.2</ele>
        <time>2025-03-30T09:09:21Z</time>
      </trkpt>
      <trkpt lat="43.95832" lon="0.09919">
        <ele>138.2</ele>
        <time>2025-03-30T09:09:22Z</time>
      </trkpt>
      <trkpt lat="43.95831" lon="0.09919">
        <ele>138.2</ele>
        <time>2025-03-30T09:09:23Z</time>
      </trkpt>
      <trkpt lat="43.9583" lon="0.09919">
        <ele>138.3</ele>
        <time>2025-03-30T09:09:24Z</time>
      </trkpt>
      <trkpt lat="43.95829" lon="0.09919">
        <ele>138.3</ele>
        <time>2025-03-30T09:09:25Z</time>
      </trkpt>
      <trkpt lat="43.95826" lon="0.09918">
        <ele>138.3</ele>
        <time>2025-03-30T09:09:27Z</time>
      </trkpt>
      <trkpt lat="43.95825" lon="0.09918">
        <ele>138.3</ele>
        <time>2025-03-30T09:09:28Z</time>
      </trkpt>
      <trkpt lat="43.95822" lon="0.09918">
        <ele>138.3</ele>
        <time>2025-03-30T09:09:30Z</time>
      </trkpt>
      <trkpt lat="43.9582" lon="0.09917">
        <ele>138.3</ele>
        <time>2025-03-30T09:09:31Z</time>
      </trkpt>
      <trkpt lat="43.9582" lon="0.09917">
        <ele>138.3</ele>
        <time>2025-03-30T09:09:32Z</time>
      </trkpt>
      <trkpt lat="43.95817" lon="0.09917">
        <ele>138.4</ele>
        <time>2025-03-30T09:09:33Z</time>
      </trkpt>
      <trkpt lat="43.95817" lon="0.09916">
        <ele>138.4</ele>
        <time>2025-03-30T09:09:34Z</time>
      </trkpt>
      <trkpt lat="43.95816" lon="0.09916">
        <ele>138.4</ele>
        <time>2025-03-30T09:09:35Z</time>
      </trkpt>
      <trkpt lat="43.95814" lon="0.09916">
        <ele>138.4</ele>
        <time>2025-03-30T09:09:36Z</time>
      </trkpt>
      <trkpt lat="43.95813" lon="0.09916">
        <ele>138.4</ele>
        <time>2025-03-30T09:09:37Z</time>
      </trkpt>
      <trkpt lat="43.9581" lon="0.09915">
        <ele>138.4</ele>
        <time>2025-03-30T09:09:39Z</time>
      </trkpt>
      <trkpt lat="43.95809" lon="0.09915">
        <ele>138.4</ele>
        <time>2025-03-30T09:09:40Z</time>
      </trkpt>
      <trkpt lat="43.95807" lon="0.09915">
        <ele>138.4</ele>
        <time>2025-03-30T09:09:41Z</time>
      </trkpt>
      <trkpt lat="43.95806" lon="0.09915">
        <ele>138.4</ele>
        <time>2025-03-30T09:09:42Z</time>
      </trkpt>
      <trkpt lat="43.95805" lon="0.09915">
        <ele>138.4</ele>
        <time>2025-03-30T09:09:43Z</time>
      </trkpt>
      <trkpt lat="43.95803" lon="0.09915">
        <ele>138.4</ele>
        <time>2025-03-30T09:09:44Z</time>
      </trkpt>
      <trkpt lat="43.95802" lon="0.09914">
        <ele>138.4</ele>
        <time>2025-03-30T09:09:45Z</time>
      </trkpt>
      <trkpt lat="43.958" lon="0.09914">
        <ele>138.4</ele>
        <time>2025-03-30T09:09:46Z</time>
      </trkpt>
      <trkpt lat="43.95799" lon="0.09914">
        <ele>138.4</ele>
        <time>2025-03-30T09:09:47Z</time>
      </trkpt>
      <trkpt lat="43.95798" lon="0.09914">
        <ele>138.4</ele>
        <time>2025-03-30T09:09:48Z</time>
      </trkpt>
      <trkpt lat="43.95795" lon="0.09914">
        <ele>138.4</ele>
        <time>2025-03-30T09:09:50Z</time>
      </trkpt>
      <trkpt lat="43.95793" lon="0.09914">
        <ele>138.4</ele>
        <time>2025-03-30T09:09:51Z</time>
      </trkpt>
      <trkpt lat="43.95793" lon="0.09914">
        <ele>138.4</ele>
        <time>2025-03-30T09:09:52Z</time>
      </trkpt>
      <trkpt lat="43.9579" lon="0.09915">
        <ele>138.4</ele>
        <time>2025-03-30T09:09:53Z</time>
      </trkpt>
      <trkpt lat="43.9579" lon="0.09915">
        <ele>138.4</ele>
        <time>2025-03-30T09:09:54Z</time>
      </trkpt>
      <trkpt lat="43.95789" lon="0.09915">
        <ele>138.4</ele>
        <time>2025-03-30T09:09:55Z</time>
      </trkpt>
      <trkpt lat="43.95787" lon="0.09915">
        <ele>138.5</ele>
        <time>2025-03-30T09:09:56Z</time>
      </trkpt>
      <trkpt lat="43.95786" lon="0.09915">
        <ele>138.5</ele>
        <time>2025-03-30T09:09:57Z</time>
      </trkpt>
      <trkpt lat="43.95784" lon="0.09915">
        <ele>138.5</ele>
        <time>2025-03-30T09:09:58Z</time>
      </trkpt>
      <trkpt lat="43.95783" lon="0.09914">
        <ele>138.5</ele>
        <time>2025-03-30T09:09:59Z</time>
      </trkpt>
      <trkpt lat="43.95781" lon="0.09914">
        <ele>138.5</ele>
        <time>2025-03-30T09:10:00Z</time>
      </trkpt>
      <trkpt lat="43.9578" lon="0.09915">
        <ele>138.5</ele>
        <time>2025-03-30T09:10:01Z</time>
      </trkpt>
      <trkpt lat="43.95779" lon="0.09915">
        <ele>138.5</ele>
        <time>2025-03-30T09:10:02Z</time>
      </trkpt>
      <trkpt lat="43.95778" lon="0.09915">
        <ele>138.5</ele>
        <time>2025-03-30T09:10:03Z</time>
      </trkpt>
      <trkpt lat="43.95776" lon="0.09915">
        <ele>138.5</ele>
        <time>2025-03-30T09:10:04Z</time>
      </trkpt>
      <trkpt lat="43.95774" lon="0.09914">
        <ele>138.5</ele>
        <time>2025-03-30T09:10:05Z</time>
      </trkpt>
      <trkpt lat="43.95773" lon="0.09914">
        <ele>138.5</ele>
        <time>2025-03-30T09:10:06Z</time>
      </trkpt>
      <trkpt lat="43.95772" lon="0.09914">
        <ele>138.5</ele>
        <time>2025-03-30T09:10:07Z</time>
      </trkpt>
      <trkpt lat="43.9577" lon="0.09914">
        <ele>138.5</ele>
        <time>2025-03-30T09:10:08Z</time>
      </trkpt>
      <trkpt lat="43.95769" lon="0.09914">
        <ele>138.6</ele>
        <time>2025-03-30T09:10:09Z</time>
      </trkpt>
      <trkpt lat="43.95768" lon="0.09914">
        <ele>138.6</ele>
        <time>2025-03-30T09:10:10Z</time>
      </trkpt>
      <trkpt lat="43.95766" lon="0.09913">
        <ele>138.6</ele>
        <time>2025-03-30T09:10:11Z</time>
      </trkpt>
      <trkpt lat="43.95765" lon="0.09913">
        <ele>138.6</ele>
        <time>2025-03-30T09:10:12Z</time>
      </trkpt>
      <trkpt lat="43.95764" lon="0.09913">
        <ele>138.6</ele>
        <time>2025-03-30T09:10:13Z</time>
      </trkpt>
      <trkpt lat="43.95763" lon="0.09913">
        <ele>138.6</ele>
        <time>2025-03-30T09:10:14Z</time>
      </trkpt>
      <trkpt lat="43.95762" lon="0.09912">
        <ele>138.6</ele>
        <time>2025-03-30T09:10:15Z</time>
      </trkpt>
      <trkpt lat="43.95759" lon="0.09913">
        <ele>138.6</ele>
        <time>2025-03-30T09:10:16Z</time>
      </trkpt>
      <trkpt lat="43.95759" lon="0.09913">
        <ele>138.6</ele>
        <time>2025-03-30T09:10:17Z</time>
      </trkpt>
      <trkpt lat="43.95758" lon="0.09914">
        <ele>138.6</ele>
        <time>2025-03-30T09:10:18Z</time>
      </trkpt>
      <trkpt lat="43.95756" lon="0.09914">
        <ele>138.6</ele>
        <time>2025-03-30T09:10:19Z</time>
      </trkpt>
      <trkpt lat="43.95755" lon="0.09915">
        <ele>138.6</ele>
        <time>2025-03-30T09:10:20Z</time>
      </trkpt>
      <trkpt lat="43.95754" lon="0.09915">
        <ele>138.7</ele>
        <time>2025-03-30T09:10:21Z</time>
      </trkpt>
      <trkpt lat="43.95754" lon="0.09915">
        <ele>138.7</ele>
        <time>2025-03-30T09:10:22Z</time>
      </trkpt>
      <trkpt lat="43.95754" lon="0.09915">
        <ele>138.7</ele>
        <time>2025-03-30T09:10:23Z</time>
      </trkpt>
      <trkpt lat="43.95754" lon="0.09915">
        <ele>138.7</ele>
        <time>2025-03-30T09:10:24Z</time>
      </trkpt>
      <trkpt lat="43.95753" lon="0.09915">
        <ele>138.7</ele>
        <time>2025-03-30T09:10:25Z</time>
      </trkpt>
      <trkpt lat="43.95752" lon="0.09916">
        <ele>138.7</ele>
        <time>2025-03-30T09:10:26Z</time>
      </trkpt>
      <trkpt lat="43.95751" lon="0.09916">
        <ele>138.7</ele>
        <time>2025-03-30T09:10:27Z</time>
      </trkpt>
      <trkpt lat="43.95749" lon="0.09915">
        <ele>138.7</ele>
        <time>2025-03-30T09:10:28Z</time>
      </trkpt>
      <trkpt lat="43.95748" lon="0.09915">
        <ele>138.7</ele>
        <time>2025-03-30T09:10:29Z</time>
      </trkpt>
      <trkpt lat="43.95747" lon="0.09914">
        <ele>138.7</ele>
        <time>2025-03-30T09:10:30Z</time>
      </trkpt>
      <trkpt lat="43.95745" lon="0.09913">
        <ele>138.7</ele>
        <time>2025-03-30T09:10:31Z</time>
      </trkpt>
      <trkpt lat="43.95744" lon="0.09913">
        <ele>138.7</ele>
        <time>2025-03-30T09:10:32Z</time>
      </trkpt>
      <trkpt lat="43.95743" lon="0.09912">
        <ele>138.8</ele>
        <time>2025-03-30T09:10:33Z</time>
      </trkpt>
      <trkpt lat="43.95742" lon="0.09912">
        <ele>138.8</ele>
        <time>2025-03-30T09:10:34Z</time>
      </trkpt>
      <trkpt lat="43.95741" lon="0.09912">
        <ele>138.8</ele>
        <time>2025-03-30T09:10:35Z</time>
      </trkpt>
      <trkpt lat="43.95739" lon="0.09911">
        <ele>138.8</ele>
        <time>2025-03-30T09:10:36Z</time>
      </trkpt>
      <trkpt lat="43.95738" lon="0.0991">
        <ele>138.8</ele>
        <time>2025-03-30T09:10:37Z</time>
      </trkpt>
      <trkpt lat="43.95737" lon="0.0991">
        <ele>138.8</ele>
        <time>2025-03-30T09:10:38Z</time>
      </trkpt>
      <trkpt lat="43.95735" lon="0.09909">
        <ele>138.8</ele>
        <time>2025-03-30T09:10:39Z</time>
      </trkpt>
      <trkpt lat="43.95734" lon="0.09909">
        <ele>138.8</ele>
        <time>2025-03-30T09:10:41Z</time>
      </trkpt>
      <trkpt lat="43.95733" lon="0.09909">
        <ele>138.9</ele>
        <time>2025-03-30T09:10:42Z</time>
      </trkpt>
      <trkpt lat="43.95732" lon="0.09909">
        <ele>138.9</ele>
        <time>2025-03-30T09:10:43Z</time>
      </trkpt>
      <trkpt lat="43.9573" lon="0.09909">
        <ele>138.9</ele>
        <time>2025-03-30T09:10:44Z</time>
      </trkpt>
      <trkpt lat="43.95729" lon="0.09911">
        <ele>138.9</ele>
        <time>2025-03-30T09:10:46Z</time>
      </trkpt>
      <trkpt lat="43.95728" lon="0.09912">
        <ele>138.9</ele>
        <time>2025-03-30T09:10:47Z</time>
      </trkpt>
      <trkpt lat="43.95727" lon="0.09912">
        <ele>138.9</ele>
        <time>2025-03-30T09:10:48Z</time>
      </trkpt>
      <trkpt lat="43.95726" lon="0.09914">
        <ele>138.9</ele>
        <time>2025-03-30T09:10:49Z</time>
      </trkpt>
      <trkpt lat="43.95725" lon="0.09916">
        <ele>139</ele>
        <time>2025-03-30T09:10:50Z</time>
      </trkpt>
      <trkpt lat="43.95724" lon="0.09918">
        <ele>139</ele>
        <time>2025-03-30T09:10:51Z</time>
      </trkpt>
      <trkpt lat="43.95723" lon="0.09919">
        <ele>139</ele>
        <time>2025-03-30T09:10:52Z</time>
      </trkpt>
      <trkpt lat="43.95722" lon="0.09921">
        <ele>139</ele>
        <time>2025-03-30T09:10:53Z</time>
      </trkpt>
      <trkpt lat="43.95721" lon="0.09922">
        <ele>139</ele>
        <time>2025-03-30T09:10:54Z</time>
      </trkpt>
      <trkpt lat="43.95719" lon="0.09923">
        <ele>139.1</ele>
        <time>2025-03-30T09:10:55Z</time>
      </trkpt>
      <trkpt lat="43.95718" lon="0.09924">
        <ele>139.1</ele>
        <time>2025-03-30T09:10:56Z</time>
      </trkpt>
      <trkpt lat="43.95717" lon="0.09924">
        <ele>139.1</ele>
        <time>2025-03-30T09:10:57Z</time>
      </trkpt>
      <trkpt lat="43.95714" lon="0.09924">
        <ele>139.2</ele>
        <time>2025-03-30T09:10:59Z</time>
      </trkpt>
      <trkpt lat="43.95714" lon="0.09924">
        <ele>139.2</ele>
        <time>2025-03-30T09:11:00Z</time>
      </trkpt>
      <trkpt lat="43.95713" lon="0.09924">
        <ele>139.2</ele>
        <time>2025-03-30T09:11:02Z</time>
      </trkpt>
      <trkpt lat="43.95713" lon="0.09924">
        <ele>139.2</ele>
        <time>2025-03-30T09:11:03Z</time>
      </trkpt>
      <trkpt lat="43.95713" lon="0.09925">
        <ele>139.2</ele>
        <time>2025-03-30T09:11:04Z</time>
      </trkpt>
      <trkpt lat="43.95712" lon="0.09925">
        <ele>139.2</ele>
        <time>2025-03-30T09:11:05Z</time>
      </trkpt>
      <trkpt lat="43.95712" lon="0.09925">
        <ele>139.2</ele>
        <time>2025-03-30T09:11:06Z</time>
      </trkpt>
      <trkpt lat="43.95712" lon="0.09925">
        <ele>139.2</ele>
        <time>2025-03-30T09:11:07Z</time>
      </trkpt>
      <trkpt lat="43.95712" lon="0.09925">
        <ele>139.2</ele>
        <time>2025-03-30T09:11:08Z</time>
      </trkpt>
      <trkpt lat="43.95711" lon="0.09925">
        <ele>139.2</ele>
        <time>2025-03-30T09:11:09Z</time>
      </trkpt>
      <trkpt lat="43.95711" lon="0.09925">
        <ele>139.2</ele>
        <time>2025-03-30T09:11:10Z</time>
      </trkpt>
      <trkpt lat="43.95711" lon="0.09925">
        <ele>139.2</ele>
        <time>2025-03-30T09:11:11Z</time>
      </trkpt>
      <trkpt lat="43.9571" lon="0.09926">
        <ele>139.2</ele>
        <time>2025-03-30T09:11:12Z</time>
      </trkpt>
      <trkpt lat="43.9571" lon="0.09926">
        <ele>139.2</ele>
        <time>2025-03-30T09:11:13Z</time>
      </trkpt>
      <trkpt lat="43.9571" lon="0.09926">
        <ele>139.2</ele>
        <time>2025-03-30T09:11:14Z</time>
      </trkpt>
      <trkpt lat="43.95707" lon="0.09923">
        <ele>139.3</ele>
        <time>2025-03-30T09:11:15Z</time>
      </trkpt>
      <trkpt lat="43.95706" lon="0.09922">
        <ele>139.3</ele>
        <time>2025-03-30T09:11:16Z</time>
      </trkpt>
      <trkpt lat="43.95704" lon="0.0992">
        <ele>139.3</ele>
        <time>2025-03-30T09:11:17Z</time>
      </trkpt>
      <trkpt lat="43.95703" lon="0.0992">
        <ele>139.3</ele>
        <time>2025-03-30T09:11:18Z</time>
      </trkpt>
      <trkpt lat="43.95701" lon="0.09919">
        <ele>139.3</ele>
        <time>2025-03-30T09:11:19Z</time>
      </trkpt>
      <trkpt lat="43.957" lon="0.09919">
        <ele>139.3</ele>
        <time>2025-03-30T09:11:20Z</time>
      </trkpt>
      <trkpt lat="43.95698" lon="0.09918">
        <ele>139.3</ele>
        <time>2025-03-30T09:11:22Z</time>
      </trkpt>
      <trkpt lat="43.95695" lon="0.09917">
        <ele>139.4</ele>
        <time>2025-03-30T09:11:23Z</time>
      </trkpt>
      <trkpt lat="43.95693" lon="0.09916">
        <ele>139.4</ele>
        <time>2025-03-30T09:11:25Z</time>
      </trkpt>
      <trkpt lat="43.95691" lon="0.09915">
        <ele>139.4</ele>
        <time>2025-03-30T09:11:27Z</time>
      </trkpt>
      <trkpt lat="43.95688" lon="0.09914">
        <ele>139.4</ele>
        <time>2025-03-30T09:11:28Z</time>
      </trkpt>
      <trkpt lat="43.95688" lon="0.09913">
        <ele>139.5</ele>
        <time>2025-03-30T09:11:29Z</time>
      </trkpt>
      <trkpt lat="43.95686" lon="0.09912">
        <ele>139.5</ele>
        <time>2025-03-30T09:11:30Z</time>
      </trkpt>
      <trkpt lat="43.95684" lon="0.09911">
        <ele>139.5</ele>
        <time>2025-03-30T09:11:32Z</time>
      </trkpt>
      <trkpt lat="43.95682" lon="0.09909">
        <ele>139.5</ele>
        <time>2025-03-30T09:11:33Z</time>
      </trkpt>
      <trkpt lat="43.95682" lon="0.09909">
        <ele>139.5</ele>
        <time>2025-03-30T09:11:34Z</time>
      </trkpt>
      <trkpt lat="43.95681" lon="0.09908">
        <ele>139.5</ele>
        <time>2025-03-30T09:11:35Z</time>
      </trkpt>
      <trkpt lat="43.95679" lon="0.09907">
        <ele>139.5</ele>
        <time>2025-03-30T09:11:36Z</time>
      </trkpt>
      <trkpt lat="43.95677" lon="0.09906">
        <ele>139.5</ele>
        <time>2025-03-30T09:11:37Z</time>
      </trkpt>
      <trkpt lat="43.95677" lon="0.09905">
        <ele>139.5</ele>
        <time>2025-03-30T09:11:38Z</time>
      </trkpt>
      <trkpt lat="43.95676" lon="0.09905">
        <ele>139.5</ele>
        <time>2025-03-30T09:11:39Z</time>
      </trkpt>
      <trkpt lat="43.95675" lon="0.09904">
        <ele>139.5</ele>
        <time>2025-03-30T09:11:40Z</time>
      </trkpt>
      <trkpt lat="43.95673" lon="0.09903">
        <ele>139.5</ele>
        <time>2025-03-30T09:11:41Z</time>
      </trkpt>
      <trkpt lat="43.95672" lon="0.09903">
        <ele>139.5</ele>
        <time>2025-03-30T09:11:42Z</time>
      </trkpt>
      <trkpt lat="43.95671" lon="0.09903">
        <ele>139.5</ele>
        <time>2025-03-30T09:11:43Z</time>
      </trkpt>
      <trkpt lat="43.9567" lon="0.09902">
        <ele>139.5</ele>
        <time>2025-03-30T09:11:44Z</time>
      </trkpt>
      <trkpt lat="43.95668" lon="0.09901">
        <ele>139.5</ele>
        <time>2025-03-30T09:11:45Z</time>
      </trkpt>
      <trkpt lat="43.95667" lon="0.09901">
        <ele>139.5</ele>
        <time>2025-03-30T09:11:46Z</time>
      </trkpt>
      <trkpt lat="43.95666" lon="0.099">
        <ele>139.5</ele>
        <time>2025-03-30T09:11:47Z</time>
      </trkpt>
      <trkpt lat="43.95665" lon="0.09899">
        <ele>139.5</ele>
        <time>2025-03-30T09:11:48Z</time>
      </trkpt>
      <trkpt lat="43.95664" lon="0.09898">
        <ele>139.5</ele>
        <time>2025-03-30T09:11:49Z</time>
      </trkpt>
      <trkpt lat="43.95662" lon="0.09897">
        <ele>139.5</ele>
        <time>2025-03-30T09:11:50Z</time>
      </trkpt>
      <trkpt lat="43.95661" lon="0.09896">
        <ele>139.5</ele>
        <time>2025-03-30T09:11:51Z</time>
      </trkpt>
      <trkpt lat="43.95661" lon="0.09896">
        <ele>139.5</ele>
        <time>2025-03-30T09:11:52Z</time>
      </trkpt>
      <trkpt lat="43.95659" lon="0.09895">
        <ele>139.5</ele>
        <time>2025-03-30T09:11:53Z</time>
      </trkpt>
      <trkpt lat="43.95658" lon="0.09895">
        <ele>139.5</ele>
        <time>2025-03-30T09:11:54Z</time>
      </trkpt>
      <trkpt lat="43.95657" lon="0.09894">
        <ele>139.5</ele>
        <time>2025-03-30T09:11:55Z</time>
      </trkpt>
      <trkpt lat="43.95655" lon="0.09892">
        <ele>139.6</ele>
        <time>2025-03-30T09:11:56Z</time>
      </trkpt>
      <trkpt lat="43.95654" lon="0.09891">
        <ele>139.6</ele>
        <time>2025-03-30T09:11:57Z</time>
      </trkpt>
      <trkpt lat="43.95653" lon="0.0989">
        <ele>139.6</ele>
        <time>2025-03-30T09:11:58Z</time>
      </trkpt>
      <trkpt lat="43.95652" lon="0.09889">
        <ele>139.6</ele>
        <time>2025-03-30T09:11:59Z</time>
      </trkpt>
      <trkpt lat="43.95651" lon="0.09888">
        <ele>139.7</ele>
        <time>2025-03-30T09:12:00Z</time>
      </trkpt>
      <trkpt lat="43.95649" lon="0.09886">
        <ele>139.7</ele>
        <time>2025-03-30T09:12:02Z</time>
      </trkpt>
      <trkpt lat="43.95647" lon="0.09885">
        <ele>139.8</ele>
        <time>2025-03-30T09:12:03Z</time>
      </trkpt>
      <trkpt lat="43.95645" lon="0.09883">
        <ele>139.8</ele>
        <time>2025-03-30T09:12:05Z</time>
      </trkpt>
      <trkpt lat="43.95644" lon="0.09881">
        <ele>139.8</ele>
        <time>2025-03-30T09:12:06Z</time>
      </trkpt>
      <trkpt lat="43.95643" lon="0.09881">
        <ele>139.8</ele>
        <time>2025-03-30T09:12:07Z</time>
      </trkpt>
      <trkpt lat="43.95641" lon="0.09879">
        <ele>139.9</ele>
        <time>2025-03-30T09:12:08Z</time>
      </trkpt>
      <trkpt lat="43.9564" lon="0.09877">
        <ele>139.9</ele>
        <time>2025-03-30T09:12:10Z</time>
      </trkpt>
      <trkpt lat="43.95639" lon="0.09876">
        <ele>139.9</ele>
        <time>2025-03-30T09:12:11Z</time>
      </trkpt>
      <trkpt lat="43.95638" lon="0.09875">
        <ele>139.9</ele>
        <time>2025-03-30T09:12:12Z</time>
      </trkpt>
      <trkpt lat="43.95637" lon="0.09874">
        <ele>140</ele>
        <time>2025-03-30T09:12:13Z</time>
      </trkpt>
      <trkpt lat="43.95636" lon="0.09873">
        <ele>140</ele>
        <time>2025-03-30T09:12:14Z</time>
      </trkpt>
      <trkpt lat="43.95634" lon="0.0987">
        <ele>140</ele>
        <time>2025-03-30T09:12:16Z</time>
      </trkpt>
      <trkpt lat="43.95633" lon="0.09869">
        <ele>140.1</ele>
        <time>2025-03-30T09:12:17Z</time>
      </trkpt>
      <trkpt lat="43.95632" lon="0.09868">
        <ele>140.1</ele>
        <time>2025-03-30T09:12:18Z</time>
      </trkpt>
      <trkpt lat="43.95631" lon="0.09867">
        <ele>140.1</ele>
        <time>2025-03-30T09:12:19Z</time>
      </trkpt>
      <trkpt lat="43.9563" lon="0.09866">
        <ele>140.2</ele>
        <time>2025-03-30T09:12:20Z</time>
      </trkpt>
      <trkpt lat="43.95629" lon="0.09864">
        <ele>140.2</ele>
        <time>2025-03-30T09:12:21Z</time>
      </trkpt>
      <trkpt lat="43.95628" lon="0.09863">
        <ele>140.2</ele>
        <time>2025-03-30T09:12:22Z</time>
      </trkpt>
      <trkpt lat="43.95627" lon="0.09863">
        <ele>140.3</ele>
        <time>2025-03-30T09:12:23Z</time>
      </trkpt>
      <trkpt lat="43.95623" lon="0.09861">
        <ele>140.4</ele>
        <time>2025-03-30T09:12:25Z</time>
      </trkpt>
      <trkpt lat="43.95622" lon="0.0986">
        <ele>140.4</ele>
        <time>2025-03-30T09:12:27Z</time>
      </trkpt>
      <trkpt lat="43.95621" lon="0.0986">
        <ele>140.5</ele>
        <time>2025-03-30T09:12:28Z</time>
      </trkpt>
      <trkpt lat="43.9562" lon="0.09859">
        <ele>140.5</ele>
        <time>2025-03-30T09:12:29Z</time>
      </trkpt>
      <trkpt lat="43.95619" lon="0.09858">
        <ele>140.5</ele>
        <time>2025-03-30T09:12:30Z</time>
      </trkpt>
      <trkpt lat="43.95618" lon="0.09857">
        <ele>140.6</ele>
        <time>2025-03-30T09:12:31Z</time>
      </trkpt>
      <trkpt lat="43.95617" lon="0.09855">
        <ele>140.6</ele>
        <time>2025-03-30T09:12:32Z</time>
      </trkpt>
      <trkpt lat="43.95617" lon="0.09854">
        <ele>140.6</ele>
        <time>2025-03-30T09:12:33Z</time>
      </trkpt>
      <trkpt lat="43.95616" lon="0.09854">
        <ele>140.6</ele>
        <time>2025-03-30T09:12:34Z</time>
      </trkpt>
      <trkpt lat="43.95616" lon="0.09853">
        <ele>140.6</ele>
        <time>2025-03-30T09:12:35Z</time>
      </trkpt>
      <trkpt lat="43.95614" lon="0.09852">
        <ele>140.7</ele>
        <time>2025-03-30T09:12:36Z</time>
      </trkpt>
      <trkpt lat="43.95611" lon="0.0985">
        <ele>140.7</ele>
        <time>2025-03-30T09:12:37Z</time>
      </trkpt>
      <trkpt lat="43.9561" lon="0.09849">
        <ele>140.7</ele>
        <time>2025-03-30T09:12:38Z</time>
      </trkpt>
      <trkpt lat="43.95609" lon="0.09848">
        <ele>140.7</ele>
        <time>2025-03-30T09:12:39Z</time>
      </trkpt>
      <trkpt lat="43.95608" lon="0.09847">
        <ele>140.7</ele>
        <time>2025-03-30T09:12:40Z</time>
      </trkpt>
      <trkpt lat="43.95606" lon="0.09846">
        <ele>140.7</ele>
        <time>2025-03-30T09:12:41Z</time>
      </trkpt>
      <trkpt lat="43.95606" lon="0.09846">
        <ele>140.7</ele>
        <time>2025-03-30T09:12:42Z</time>
      </trkpt>
      <trkpt lat="43.95605" lon="0.09845">
        <ele>140.7</ele>
        <time>2025-03-30T09:12:43Z</time>
      </trkpt>
      <trkpt lat="43.95604" lon="0.09845">
        <ele>140.7</ele>
        <time>2025-03-30T09:12:44Z</time>
      </trkpt>
      <trkpt lat="43.95602" lon="0.09844">
        <ele>140.6</ele>
        <time>2025-03-30T09:12:45Z</time>
      </trkpt>
      <trkpt lat="43.95601" lon="0.09843">
        <ele>140.6</ele>
        <time>2025-03-30T09:12:46Z</time>
      </trkpt>
      <trkpt lat="43.956" lon="0.09842">
        <ele>140.6</ele>
        <time>2025-03-30T09:12:47Z</time>
      </trkpt>
      <trkpt lat="43.95598" lon="0.09841">
        <ele>140.5</ele>
        <time>2025-03-30T09:12:48Z</time>
      </trkpt>
      <trkpt lat="43.95597" lon="0.09839">
        <ele>140.5</ele>
        <time>2025-03-30T09:12:49Z</time>
      </trkpt>
      <trkpt lat="43.95596" lon="0.09838">
        <ele>140.5</ele>
        <time>2025-03-30T09:12:50Z</time>
      </trkpt>
      <trkpt lat="43.95594" lon="0.09837">
        <ele>140.4</ele>
        <time>2025-03-30T09:12:51Z</time>
      </trkpt>
      <trkpt lat="43.95593" lon="0.09836">
        <ele>140.4</ele>
        <time>2025-03-30T09:12:52Z</time>
      </trkpt>
      <trkpt lat="43.95593" lon="0.09835">
        <ele>140.4</ele>
        <time>2025-03-30T09:12:53Z</time>
      </trkpt>
      <trkpt lat="43.9559" lon="0.09834">
        <ele>140.3</ele>
        <time>2025-03-30T09:12:54Z</time>
      </trkpt>
      <trkpt lat="43.9559" lon="0.09834">
        <ele>140.3</ele>
        <time>2025-03-30T09:12:55Z</time>
      </trkpt>
      <trkpt lat="43.95589" lon="0.09834">
        <ele>140.3</ele>
        <time>2025-03-30T09:12:56Z</time>
      </trkpt>
      <trkpt lat="43.95587" lon="0.09832">
        <ele>140.3</ele>
        <time>2025-03-30T09:12:57Z</time>
      </trkpt>
      <trkpt lat="43.95586" lon="0.09832">
        <ele>140.3</ele>
        <time>2025-03-30T09:12:58Z</time>
      </trkpt>
      <trkpt lat="43.95585" lon="0.09831">
        <ele>140.3</ele>
        <time>2025-03-30T09:12:59Z</time>
      </trkpt>
      <trkpt lat="43.95583" lon="0.0983">
        <ele>140.2</ele>
        <time>2025-03-30T09:13:00Z</time>
      </trkpt>
      <trkpt lat="43.95582" lon="0.0983">
        <ele>140.2</ele>
        <time>2025-03-30T09:13:01Z</time>
      </trkpt>
      <trkpt lat="43.95581" lon="0.09829">
        <ele>140.2</ele>
        <time>2025-03-30T09:13:02Z</time>
      </trkpt>
      <trkpt lat="43.9558" lon="0.09829">
        <ele>140.2</ele>
        <time>2025-03-30T09:13:03Z</time>
      </trkpt>
      <trkpt lat="43.95579" lon="0.09828">
        <ele>140.2</ele>
        <time>2025-03-30T09:13:04Z</time>
      </trkpt>
      <trkpt lat="43.95578" lon="0.09828">
        <ele>140.2</ele>
        <time>2025-03-30T09:13:05Z</time>
      </trkpt>
      <trkpt lat="43.95577" lon="0.09827">
        <ele>140.2</ele>
        <time>2025-03-30T09:13:06Z</time>
      </trkpt>
      <trkpt lat="43.95575" lon="0.09826">
        <ele>140.2</ele>
        <time>2025-03-30T09:13:07Z</time>
      </trkpt>
      <trkpt lat="43.95574" lon="0.09825">
        <ele>140.2</ele>
        <time>2025-03-30T09:13:08Z</time>
      </trkpt>
      <trkpt lat="43.95573" lon="0.09824">
        <ele>140.2</ele>
        <time>2025-03-30T09:13:09Z</time>
      </trkpt>
      <trkpt lat="43.95572" lon="0.09824">
        <ele>140.2</ele>
        <time>2025-03-30T09:13:10Z</time>
      </trkpt>
      <trkpt lat="43.9557" lon="0.09822">
        <ele>140.2</ele>
        <time>2025-03-30T09:13:11Z</time>
      </trkpt>
      <trkpt lat="43.95569" lon="0.09821">
        <ele>140.2</ele>
        <time>2025-03-30T09:13:12Z</time>
      </trkpt>
      <trkpt lat="43.95569" lon="0.09821">
        <ele>140.2</ele>
        <time>2025-03-30T09:13:13Z</time>
      </trkpt>
      <trkpt lat="43.95567" lon="0.0982">
        <ele>140.2</ele>
        <time>2025-03-30T09:13:14Z</time>
      </trkpt>
      <trkpt lat="43.95566" lon="0.09819">
        <ele>140.2</ele>
        <time>2025-03-30T09:13:15Z</time>
      </trkpt>
      <trkpt lat="43.95565" lon="0.09818">
        <ele>140.2</ele>
        <time>2025-03-30T09:13:16Z</time>
      </trkpt>
      <trkpt lat="43.95564" lon="0.09818">
        <ele>140.2</ele>
        <time>2025-03-30T09:13:17Z</time>
      </trkpt>
      <trkpt lat="43.95563" lon="0.09817">
        <ele>140.2</ele>
        <time>2025-03-30T09:13:18Z</time>
      </trkpt>
      <trkpt lat="43.95561" lon="0.09816">
        <ele>140.2</ele>
        <time>2025-03-30T09:13:19Z</time>
      </trkpt>
      <trkpt lat="43.9556" lon="0.09815">
        <ele>140.2</ele>
        <time>2025-03-30T09:13:20Z</time>
      </trkpt>
      <trkpt lat="43.95559" lon="0.09813">
        <ele>140.3</ele>
        <time>2025-03-30T09:13:21Z</time>
      </trkpt>
      <trkpt lat="43.95558" lon="0.09812">
        <ele>140.3</ele>
        <time>2025-03-30T09:13:22Z</time>
      </trkpt>
      <trkpt lat="43.95557" lon="0.09811">
        <ele>140.3</ele>
        <time>2025-03-30T09:13:23Z</time>
      </trkpt>
      <trkpt lat="43.95556" lon="0.0981">
        <ele>140.3</ele>
        <time>2025-03-30T09:13:24Z</time>
      </trkpt>
      <trkpt lat="43.95554" lon="0.09808">
        <ele>140.3</ele>
        <time>2025-03-30T09:13:25Z</time>
      </trkpt>
      <trkpt lat="43.95554" lon="0.09808">
        <ele>140.3</ele>
        <time>2025-03-30T09:13:26Z</time>
      </trkpt>
      <trkpt lat="43.95553" lon="0.09807">
        <ele>140.3</ele>
        <time>2025-03-30T09:13:27Z</time>
      </trkpt>
      <trkpt lat="43.95551" lon="0.09806">
        <ele>140.3</ele>
        <time>2025-03-30T09:13:28Z</time>
      </trkpt>
      <trkpt lat="43.9555" lon="0.09805">
        <ele>140.3</ele>
        <time>2025-03-30T09:13:29Z</time>
      </trkpt>
      <trkpt lat="43.9555" lon="0.09805">
        <ele>140.3</ele>
        <time>2025-03-30T09:13:30Z</time>
      </trkpt>
      <trkpt lat="43.95548" lon="0.09804">
        <ele>140.4</ele>
        <time>2025-03-30T09:13:31Z</time>
      </trkpt>
      <trkpt lat="43.95547" lon="0.09803">
        <ele>140.4</ele>
        <time>2025-03-30T09:13:32Z</time>
      </trkpt>
      <trkpt lat="43.95545" lon="0.09802">
        <ele>140.4</ele>
        <time>2025-03-30T09:13:33Z</time>
      </trkpt>
      <trkpt lat="43.95544" lon="0.09801">
        <ele>140.4</ele>
        <time>2025-03-30T09:13:34Z</time>
      </trkpt>
      <trkpt lat="43.95543" lon="0.09801">
        <ele>140.4</ele>
        <time>2025-03-30T09:13:35Z</time>
      </trkpt>
      <trkpt lat="43.95542" lon="0.098">
        <ele>140.4</ele>
        <time>2025-03-30T09:13:36Z</time>
      </trkpt>
      <trkpt lat="43.95541" lon="0.09799">
        <ele>140.4</ele>
        <time>2025-03-30T09:13:37Z</time>
      </trkpt>
      <trkpt lat="43.9554" lon="0.09799">
        <ele>140.4</ele>
        <time>2025-03-30T09:13:38Z</time>
      </trkpt>
      <trkpt lat="43.95539" lon="0.09801">
        <ele>140.4</ele>
        <time>2025-03-30T09:13:39Z</time>
      </trkpt>
      <trkpt lat="43.95539" lon="0.09802">
        <ele>140.4</ele>
        <time>2025-03-30T09:13:40Z</time>
      </trkpt>
      <trkpt lat="43.95538" lon="0.09802">
        <ele>140.4</ele>
        <time>2025-03-30T09:13:41Z</time>
      </trkpt>
      <trkpt lat="43.95537" lon="0.09799">
        <ele>140.4</ele>
        <time>2025-03-30T09:13:42Z</time>
      </trkpt>
      <trkpt lat="43.95534" lon="0.09796">
        <ele>140.4</ele>
        <time>2025-03-30T09:13:43Z</time>
      </trkpt>
      <trkpt lat="43.95534" lon="0.09795">
        <ele>140.4</ele>
        <time>2025-03-30T09:13:44Z</time>
      </trkpt>
      <trkpt lat="43.95532" lon="0.09793">
        <ele>140.4</ele>
        <time>2025-03-30T09:13:45Z</time>
      </trkpt>
      <trkpt lat="43.95531" lon="0.09792">
        <ele>140.4</ele>
        <time>2025-03-30T09:13:46Z</time>
      </trkpt>
      <trkpt lat="43.9553" lon="0.0979">
        <ele>140.4</ele>
        <time>2025-03-30T09:13:47Z</time>
      </trkpt>
      <trkpt lat="43.95529" lon="0.0979">
        <ele>140.4</ele>
        <time>2025-03-30T09:13:48Z</time>
      </trkpt>
      <trkpt lat="43.95528" lon="0.09789">
        <ele>140.4</ele>
        <time>2025-03-30T09:13:49Z</time>
      </trkpt>
      <trkpt lat="43.95526" lon="0.09789">
        <ele>140.4</ele>
        <time>2025-03-30T09:13:50Z</time>
      </trkpt>
      <trkpt lat="43.95524" lon="0.09788">
        <ele>140.5</ele>
        <time>2025-03-30T09:13:51Z</time>
      </trkpt>
      <trkpt lat="43.95522" lon="0.09787">
        <ele>140.5</ele>
        <time>2025-03-30T09:13:52Z</time>
      </trkpt>
      <trkpt lat="43.95521" lon="0.09787">
        <ele>140.5</ele>
        <time>2025-03-30T09:13:53Z</time>
      </trkpt>
      <trkpt lat="43.9552" lon="0.09786">
        <ele>140.5</ele>
        <time>2025-03-30T09:13:54Z</time>
      </trkpt>
      <trkpt lat="43.95518" lon="0.09785">
        <ele>140.5</ele>
        <time>2025-03-30T09:13:55Z</time>
      </trkpt>
      <trkpt lat="43.95517" lon="0.09784">
        <ele>140.5</ele>
        <time>2025-03-30T09:13:56Z</time>
      </trkpt>
      <trkpt lat="43.95516" lon="0.09784">
        <ele>140.6</ele>
        <time>2025-03-30T09:13:57Z</time>
      </trkpt>
      <trkpt lat="43.95514" lon="0.09782">
        <ele>140.6</ele>
        <time>2025-03-30T09:13:58Z</time>
      </trkpt>
      <trkpt lat="43.95513" lon="0.09781">
        <ele>140.6</ele>
        <time>2025-03-30T09:13:59Z</time>
      </trkpt>
      <trkpt lat="43.95512" lon="0.0978">
        <ele>140.6</ele>
        <time>2025-03-30T09:14:00Z</time>
      </trkpt>
      <trkpt lat="43.95511" lon="0.09779">
        <ele>140.6</ele>
        <time>2025-03-30T09:14:01Z</time>
      </trkpt>
      <trkpt lat="43.95509" lon="0.09778">
        <ele>140.6</ele>
        <time>2025-03-30T09:14:02Z</time>
      </trkpt>
      <trkpt lat="43.95508" lon="0.09777">
        <ele>140.6</ele>
        <time>2025-03-30T09:14:03Z</time>
      </trkpt>
      <trkpt lat="43.95507" lon="0.09776">
        <ele>140.6</ele>
        <time>2025-03-30T09:14:04Z</time>
      </trkpt>
      <trkpt lat="43.95506" lon="0.09775">
        <ele>140.6</ele>
        <time>2025-03-30T09:14:05Z</time>
      </trkpt>
      <trkpt lat="43.95505" lon="0.09774">
        <ele>140.6</ele>
        <time>2025-03-30T09:14:06Z</time>
      </trkpt>
      <trkpt lat="43.95503" lon="0.09774">
        <ele>140.6</ele>
        <time>2025-03-30T09:14:07Z</time>
      </trkpt>
      <trkpt lat="43.95502" lon="0.09773">
        <ele>140.6</ele>
        <time>2025-03-30T09:14:08Z</time>
      </trkpt>
      <trkpt lat="43.95501" lon="0.09772">
        <ele>140.6</ele>
        <time>2025-03-30T09:14:09Z</time>
      </trkpt>
      <trkpt lat="43.955" lon="0.09771">
        <ele>140.6</ele>
        <time>2025-03-30T09:14:10Z</time>
      </trkpt>
      <trkpt lat="43.95498" lon="0.09771">
        <ele>140.6</ele>
        <time>2025-03-30T09:14:11Z</time>
      </trkpt>
      <trkpt lat="43.95496" lon="0.0977">
        <ele>140.6</ele>
        <time>2025-03-30T09:14:12Z</time>
      </trkpt>
      <trkpt lat="43.95495" lon="0.0977">
        <ele>140.7</ele>
        <time>2025-03-30T09:14:13Z</time>
      </trkpt>
      <trkpt lat="43.95494" lon="0.09769">
        <ele>140.7</ele>
        <time>2025-03-30T09:14:14Z</time>
      </trkpt>
      <trkpt lat="43.95492" lon="0.09767">
        <ele>140.7</ele>
        <time>2025-03-30T09:14:15Z</time>
      </trkpt>
      <trkpt lat="43.95491" lon="0.09766">
        <ele>140.7</ele>
        <time>2025-03-30T09:14:17Z</time>
      </trkpt>
      <trkpt lat="43.9549" lon="0.09765">
        <ele>140.7</ele>
        <time>2025-03-30T09:14:18Z</time>
      </trkpt>
      <trkpt lat="43.95489" lon="0.09765">
        <ele>140.7</ele>
        <time>2025-03-30T09:14:19Z</time>
      </trkpt>
      <trkpt lat="43.95487" lon="0.09764">
        <ele>140.7</ele>
        <time>2025-03-30T09:14:20Z</time>
      </trkpt>
      <trkpt lat="43.95486" lon="0.09763">
        <ele>140.8</ele>
        <time>2025-03-30T09:14:21Z</time>
      </trkpt>
      <trkpt lat="43.95484" lon="0.09761">
        <ele>140.8</ele>
        <time>2025-03-30T09:14:23Z</time>
      </trkpt>
      <trkpt lat="43.95483" lon="0.09759">
        <ele>140.8</ele>
        <time>2025-03-30T09:14:24Z</time>
      </trkpt>
      <trkpt lat="43.95482" lon="0.09759">
        <ele>140.8</ele>
        <time>2025-03-30T09:14:25Z</time>
      </trkpt>
      <trkpt lat="43.95481" lon="0.09758">
        <ele>140.8</ele>
        <time>2025-03-30T09:14:26Z</time>
      </trkpt>
      <trkpt lat="43.95479" lon="0.09756">
        <ele>140.8</ele>
        <time>2025-03-30T09:14:28Z</time>
      </trkpt>
      <trkpt lat="43.95476" lon="0.09754">
        <ele>140.8</ele>
        <time>2025-03-30T09:14:30Z</time>
      </trkpt>
      <trkpt lat="43.95475" lon="0.09754">
        <ele>140.8</ele>
        <time>2025-03-30T09:14:31Z</time>
      </trkpt>
      <trkpt lat="43.95474" lon="0.09753">
        <ele>140.8</ele>
        <time>2025-03-30T09:14:32Z</time>
      </trkpt>
      <trkpt lat="43.95471" lon="0.09752">
        <ele>140.8</ele>
        <time>2025-03-30T09:14:34Z</time>
      </trkpt>
      <trkpt lat="43.9547" lon="0.09751">
        <ele>140.8</ele>
        <time>2025-03-30T09:14:35Z</time>
      </trkpt>
      <trkpt lat="43.95469" lon="0.0975">
        <ele>140.9</ele>
        <time>2025-03-30T09:14:36Z</time>
      </trkpt>
      <trkpt lat="43.95468" lon="0.09749">
        <ele>140.9</ele>
        <time>2025-03-30T09:14:37Z</time>
      </trkpt>
      <trkpt lat="43.95466" lon="0.09748">
        <ele>140.9</ele>
        <time>2025-03-30T09:14:38Z</time>
      </trkpt>
      <trkpt lat="43.95465" lon="0.09747">
        <ele>140.9</ele>
        <time>2025-03-30T09:14:39Z</time>
      </trkpt>
      <trkpt lat="43.95464" lon="0.09747">
        <ele>140.9</ele>
        <time>2025-03-30T09:14:40Z</time>
      </trkpt>
      <trkpt lat="43.95463" lon="0.09746">
        <ele>140.8</ele>
        <time>2025-03-30T09:14:41Z</time>
      </trkpt>
      <trkpt lat="43.95461" lon="0.09745">
        <ele>140.8</ele>
        <time>2025-03-30T09:14:42Z</time>
      </trkpt>
      <trkpt lat="43.9546" lon="0.09744">
        <ele>140.8</ele>
        <time>2025-03-30T09:14:43Z</time>
      </trkpt>
      <trkpt lat="43.95458" lon="0.09742">
        <ele>140.8</ele>
        <time>2025-03-30T09:14:44Z</time>
      </trkpt>
      <trkpt lat="43.95457" lon="0.09742">
        <ele>140.8</ele>
        <time>2025-03-30T09:14:45Z</time>
      </trkpt>
      <trkpt lat="43.95455" lon="0.09741">
        <ele>140.7</ele>
        <time>2025-03-30T09:14:46Z</time>
      </trkpt>
      <trkpt lat="43.95454" lon="0.0974">
        <ele>140.7</ele>
        <time>2025-03-30T09:14:47Z</time>
      </trkpt>
      <trkpt lat="43.95453" lon="0.09739">
        <ele>140.7</ele>
        <time>2025-03-30T09:14:48Z</time>
      </trkpt>
      <trkpt lat="43.95451" lon="0.09738">
        <ele>140.7</ele>
        <time>2025-03-30T09:14:49Z</time>
      </trkpt>
      <trkpt lat="43.9545" lon="0.09737">
        <ele>140.7</ele>
        <time>2025-03-30T09:14:50Z</time>
      </trkpt>
      <trkpt lat="43.95449" lon="0.09737">
        <ele>140.7</ele>
        <time>2025-03-30T09:14:51Z</time>
      </trkpt>
      <trkpt lat="43.95448" lon="0.09736">
        <ele>140.6</ele>
        <time>2025-03-30T09:14:52Z</time>
      </trkpt>
      <trkpt lat="43.95446" lon="0.09737">
        <ele>140.6</ele>
        <time>2025-03-30T09:14:53Z</time>
      </trkpt>
      <trkpt lat="43.95445" lon="0.09736">
        <ele>140.6</ele>
        <time>2025-03-30T09:14:54Z</time>
      </trkpt>
      <trkpt lat="43.95444" lon="0.09736">
        <ele>140.6</ele>
        <time>2025-03-30T09:14:55Z</time>
      </trkpt>
      <trkpt lat="43.95442" lon="0.09736">
        <ele>140.6</ele>
        <time>2025-03-30T09:14:56Z</time>
      </trkpt>
      <trkpt lat="43.95441" lon="0.09735">
        <ele>140.6</ele>
        <time>2025-03-30T09:14:57Z</time>
      </trkpt>
      <trkpt lat="43.95439" lon="0.09734">
        <ele>140.6</ele>
        <time>2025-03-30T09:14:58Z</time>
      </trkpt>
      <trkpt lat="43.95438" lon="0.09733">
        <ele>140.5</ele>
        <time>2025-03-30T09:14:59Z</time>
      </trkpt>
      <trkpt lat="43.95437" lon="0.09732">
        <ele>140.5</ele>
        <time>2025-03-30T09:15:00Z</time>
      </trkpt>
      <trkpt lat="43.95436" lon="0.0973">
        <ele>140.5</ele>
        <time>2025-03-30T09:15:01Z</time>
      </trkpt>
      <trkpt lat="43.95435" lon="0.09728">
        <ele>140.5</ele>
        <time>2025-03-30T09:15:02Z</time>
      </trkpt>
      <trkpt lat="43.95434" lon="0.09727">
        <ele>140.5</ele>
        <time>2025-03-30T09:15:03Z</time>
      </trkpt>
      <trkpt lat="43.95433" lon="0.09726">
        <ele>140.5</ele>
        <time>2025-03-30T09:15:04Z</time>
      </trkpt>
      <trkpt lat="43.95431" lon="0.09725">
        <ele>140.4</ele>
        <time>2025-03-30T09:15:05Z</time>
      </trkpt>
      <trkpt lat="43.9543" lon="0.09723">
        <ele>140.4</ele>
        <time>2025-03-30T09:15:06Z</time>
      </trkpt>
      <trkpt lat="43.95429" lon="0.09722">
        <ele>140.4</ele>
        <time>2025-03-30T09:15:07Z</time>
      </trkpt>
      <trkpt lat="43.95429" lon="0.09721">
        <ele>140.4</ele>
        <time>2025-03-30T09:15:08Z</time>
      </trkpt>
      <trkpt lat="43.95427" lon="0.0972">
        <ele>140.4</ele>
        <time>2025-03-30T09:15:09Z</time>
      </trkpt>
      <trkpt lat="43.95426" lon="0.09719">
        <ele>140.4</ele>
        <time>2025-03-30T09:15:10Z</time>
      </trkpt>
      <trkpt lat="43.95425" lon="0.09719">
        <ele>140.3</ele>
        <time>2025-03-30T09:15:12Z</time>
      </trkpt>
      <trkpt lat="43.95424" lon="0.09718">
        <ele>140.3</ele>
        <time>2025-03-30T09:15:13Z</time>
      </trkpt>
      <trkpt lat="43.95423" lon="0.09717">
        <ele>140.3</ele>
        <time>2025-03-30T09:15:14Z</time>
      </trkpt>
      <trkpt lat="43.95421" lon="0.09718">
        <ele>140.3</ele>
        <time>2025-03-30T09:15:15Z</time>
      </trkpt>
      <trkpt lat="43.95419" lon="0.09718">
        <ele>140.3</ele>
        <time>2025-03-30T09:15:17Z</time>
      </trkpt>
      <trkpt lat="43.95416" lon="0.09718">
        <ele>140.2</ele>
        <time>2025-03-30T09:15:19Z</time>
      </trkpt>
      <trkpt lat="43.95415" lon="0.09718">
        <ele>140.2</ele>
        <time>2025-03-30T09:15:20Z</time>
      </trkpt>
      <trkpt lat="43.95414" lon="0.09718">
        <ele>140.2</ele>
        <time>2025-03-30T09:15:21Z</time>
      </trkpt>
      <trkpt lat="43.95412" lon="0.09717">
        <ele>140.2</ele>
        <time>2025-03-30T09:15:23Z</time>
      </trkpt>
      <trkpt lat="43.95411" lon="0.09717">
        <ele>140.1</ele>
        <time>2025-03-30T09:15:24Z</time>
      </trkpt>
      <trkpt lat="43.95409" lon="0.09716">
        <ele>140.1</ele>
        <time>2025-03-30T09:15:26Z</time>
      </trkpt>
      <trkpt lat="43.95408" lon="0.09715">
        <ele>140.1</ele>
        <time>2025-03-30T09:15:27Z</time>
      </trkpt>
      <trkpt lat="43.95405" lon="0.09714">
        <ele>140.1</ele>
        <time>2025-03-30T09:15:29Z</time>
      </trkpt>
      <trkpt lat="43.95403" lon="0.09713">
        <ele>140</ele>
        <time>2025-03-30T09:15:31Z</time>
      </trkpt>
      <trkpt lat="43.95401" lon="0.09713">
        <ele>140</ele>
        <time>2025-03-30T09:15:32Z</time>
      </trkpt>
      <trkpt lat="43.954" lon="0.09712">
        <ele>140</ele>
        <time>2025-03-30T09:15:33Z</time>
      </trkpt>
      <trkpt lat="43.95396" lon="0.0971">
        <ele>140</ele>
        <time>2025-03-30T09:15:35Z</time>
      </trkpt>
      <trkpt lat="43.95395" lon="0.0971">
        <ele>140</ele>
        <time>2025-03-30T09:15:36Z</time>
      </trkpt>
      <trkpt lat="43.95394" lon="0.0971">
        <ele>140.1</ele>
        <time>2025-03-30T09:15:37Z</time>
      </trkpt>
      <trkpt lat="43.95393" lon="0.09709">
        <ele>140.1</ele>
        <time>2025-03-30T09:15:38Z</time>
      </trkpt>
      <trkpt lat="43.95392" lon="0.09708">
        <ele>140.1</ele>
        <time>2025-03-30T09:15:39Z</time>
      </trkpt>
      <trkpt lat="43.95391" lon="0.09708">
        <ele>140.1</ele>
        <time>2025-03-30T09:15:40Z</time>
      </trkpt>
      <trkpt lat="43.95389" lon="0.09707">
        <ele>140.1</ele>
        <time>2025-03-30T09:15:41Z</time>
      </trkpt>
      <trkpt lat="43.95388" lon="0.09707">
        <ele>140.1</ele>
        <time>2025-03-30T09:15:42Z</time>
      </trkpt>
      <trkpt lat="43.95386" lon="0.09706">
        <ele>140.2</ele>
        <time>2025-03-30T09:15:43Z</time>
      </trkpt>
      <trkpt lat="43.95385" lon="0.09705">
        <ele>140.2</ele>
        <time>2025-03-30T09:15:44Z</time>
      </trkpt>
      <trkpt lat="43.95384" lon="0.09705">
        <ele>140.2</ele>
        <time>2025-03-30T09:15:45Z</time>
      </trkpt>
      <trkpt lat="43.95382" lon="0.09705">
        <ele>140.2</ele>
        <time>2025-03-30T09:15:46Z</time>
      </trkpt>
      <trkpt lat="43.95381" lon="0.09705">
        <ele>140.2</ele>
        <time>2025-03-30T09:15:47Z</time>
      </trkpt>
      <trkpt lat="43.95379" lon="0.09704">
        <ele>140.2</ele>
        <time>2025-03-30T09:15:48Z</time>
      </trkpt>
      <trkpt lat="43.95377" lon="0.09704">
        <ele>140.2</ele>
        <time>2025-03-30T09:15:49Z</time>
      </trkpt>
      <trkpt lat="43.95376" lon="0.09704">
        <ele>140.2</ele>
        <time>2025-03-30T09:15:50Z</time>
      </trkpt>
      <trkpt lat="43.95375" lon="0.09704">
        <ele>140.2</ele>
        <time>2025-03-30T09:15:51Z</time>
      </trkpt>
      <trkpt lat="43.95374" lon="0.09704">
        <ele>140.2</ele>
        <time>2025-03-30T09:15:52Z</time>
      </trkpt>
      <trkpt lat="43.95372" lon="0.09704">
        <ele>140.2</ele>
        <time>2025-03-30T09:15:53Z</time>
      </trkpt>
      <trkpt lat="43.9537" lon="0.09702">
        <ele>140.2</ele>
        <time>2025-03-30T09:15:55Z</time>
      </trkpt>
      <trkpt lat="43.95368" lon="0.09701">
        <ele>140.2</ele>
        <time>2025-03-30T09:15:56Z</time>
      </trkpt>
      <trkpt lat="43.95367" lon="0.097">
        <ele>140.2</ele>
        <time>2025-03-30T09:15:57Z</time>
      </trkpt>
      <trkpt lat="43.95365" lon="0.09699">
        <ele>140.2</ele>
        <time>2025-03-30T09:15:58Z</time>
      </trkpt>
      <trkpt lat="43.95364" lon="0.09698">
        <ele>140.1</ele>
        <time>2025-03-30T09:15:59Z</time>
      </trkpt>
      <trkpt lat="43.95362" lon="0.09697">
        <ele>140.1</ele>
        <time>2025-03-30T09:16:00Z</time>
      </trkpt>
      <trkpt lat="43.95361" lon="0.09696">
        <ele>140.1</ele>
        <time>2025-03-30T09:16:01Z</time>
      </trkpt>
      <trkpt lat="43.95359" lon="0.09695">
        <ele>140.1</ele>
        <time>2025-03-30T09:16:02Z</time>
      </trkpt>
      <trkpt lat="43.95358" lon="0.09694">
        <ele>140.1</ele>
        <time>2025-03-30T09:16:03Z</time>
      </trkpt>
      <trkpt lat="43.95357" lon="0.09693">
        <ele>140.1</ele>
        <time>2025-03-30T09:16:04Z</time>
      </trkpt>
      <trkpt lat="43.95356" lon="0.09691">
        <ele>140.1</ele>
        <time>2025-03-30T09:16:05Z</time>
      </trkpt>
      <trkpt lat="43.95355" lon="0.0969">
        <ele>140</ele>
        <time>2025-03-30T09:16:06Z</time>
      </trkpt>
      <trkpt lat="43.95352" lon="0.09688">
        <ele>140</ele>
        <time>2025-03-30T09:16:08Z</time>
      </trkpt>
      <trkpt lat="43.95351" lon="0.09686">
        <ele>140</ele>
        <time>2025-03-30T09:16:09Z</time>
      </trkpt>
      <trkpt lat="43.9535" lon="0.09685">
        <ele>140</ele>
        <time>2025-03-30T09:16:10Z</time>
      </trkpt>
      <trkpt lat="43.95349" lon="0.09684">
        <ele>140</ele>
        <time>2025-03-30T09:16:11Z</time>
      </trkpt>
      <trkpt lat="43.95348" lon="0.09683">
        <ele>140.1</ele>
        <time>2025-03-30T09:16:12Z</time>
      </trkpt>
      <trkpt lat="43.95347" lon="0.09681">
        <ele>140.1</ele>
        <time>2025-03-30T09:16:13Z</time>
      </trkpt>
      <trkpt lat="43.95346" lon="0.0968">
        <ele>140.1</ele>
        <time>2025-03-30T09:16:14Z</time>
      </trkpt>
      <trkpt lat="43.95345" lon="0.09679">
        <ele>140.2</ele>
        <time>2025-03-30T09:16:15Z</time>
      </trkpt>
      <trkpt lat="43.95344" lon="0.09677">
        <ele>140.2</ele>
        <time>2025-03-30T09:16:16Z</time>
      </trkpt>
      <trkpt lat="43.95343" lon="0.09676">
        <ele>140.2</ele>
        <time>2025-03-30T09:16:17Z</time>
      </trkpt>
      <trkpt lat="43.95342" lon="0.09675">
        <ele>140.3</ele>
        <time>2025-03-30T09:16:18Z</time>
      </trkpt>
      <trkpt lat="43.95341" lon="0.09673">
        <ele>140.4</ele>
        <time>2025-03-30T09:16:19Z</time>
      </trkpt>
      <trkpt lat="43.95339" lon="0.09671">
        <ele>140.5</ele>
        <time>2025-03-30T09:16:20Z</time>
      </trkpt>
      <trkpt lat="43.95339" lon="0.0967">
        <ele>140.5</ele>
        <time>2025-03-30T09:16:21Z</time>
      </trkpt>
      <trkpt lat="43.95338" lon="0.09669">
        <ele>140.6</ele>
        <time>2025-03-30T09:16:22Z</time>
      </trkpt>
      <trkpt lat="43.95337" lon="0.09669">
        <ele>140.6</ele>
        <time>2025-03-30T09:16:23Z</time>
      </trkpt>
      <trkpt lat="43.95337" lon="0.09668">
        <ele>140.6</ele>
        <time>2025-03-30T09:16:24Z</time>
      </trkpt>
      <trkpt lat="43.95335" lon="0.09667">
        <ele>140.7</ele>
        <time>2025-03-30T09:16:25Z</time>
      </trkpt>
      <trkpt lat="43.95334" lon="0.09666">
        <ele>140.8</ele>
        <time>2025-03-30T09:16:26Z</time>
      </trkpt>
      <trkpt lat="43.95333" lon="0.09665">
        <ele>140.9</ele>
        <time>2025-03-30T09:16:27Z</time>
      </trkpt>
      <trkpt lat="43.95331" lon="0.09664">
        <ele>141</ele>
        <time>2025-03-30T09:16:29Z</time>
      </trkpt>
      <trkpt lat="43.9533" lon="0.09663">
        <ele>141</ele>
        <time>2025-03-30T09:16:30Z</time>
      </trkpt>
      <trkpt lat="43.95328" lon="0.09661">
        <ele>141.1</ele>
        <time>2025-03-30T09:16:32Z</time>
      </trkpt>
      <trkpt lat="43.95327" lon="0.0966">
        <ele>141.2</ele>
        <time>2025-03-30T09:16:33Z</time>
      </trkpt>
      <trkpt lat="43.95326" lon="0.09658">
        <ele>141.3</ele>
        <time>2025-03-30T09:16:35Z</time>
      </trkpt>
      <trkpt lat="43.95325" lon="0.09656">
        <ele>141.4</ele>
        <time>2025-03-30T09:16:36Z</time>
      </trkpt>
      <trkpt lat="43.95325" lon="0.09655">
        <ele>141.5</ele>
        <time>2025-03-30T09:16:37Z</time>
      </trkpt>
      <trkpt lat="43.95324" lon="0.09654">
        <ele>141.5</ele>
        <time>2025-03-30T09:16:38Z</time>
      </trkpt>
      <trkpt lat="43.95322" lon="0.09652">
        <ele>141.6</ele>
        <time>2025-03-30T09:16:40Z</time>
      </trkpt>
      <trkpt lat="43.95321" lon="0.09651">
        <ele>141.7</ele>
        <time>2025-03-30T09:16:41Z</time>
      </trkpt>
      <trkpt lat="43.95319" lon="0.0965">
        <ele>141.7</ele>
        <time>2025-03-30T09:16:42Z</time>
      </trkpt>
      <trkpt lat="43.95317" lon="0.09649">
        <ele>141.8</ele>
        <time>2025-03-30T09:16:43Z</time>
      </trkpt>
      <trkpt lat="43.95317" lon="0.09648">
        <ele>141.8</ele>
        <time>2025-03-30T09:16:44Z</time>
      </trkpt>
      <trkpt lat="43.95316" lon="0.09647">
        <ele>141.9</ele>
        <time>2025-03-30T09:16:45Z</time>
      </trkpt>
      <trkpt lat="43.95315" lon="0.09646">
        <ele>141.9</ele>
        <time>2025-03-30T09:16:46Z</time>
      </trkpt>
      <trkpt lat="43.95313" lon="0.09645">
        <ele>142</ele>
        <time>2025-03-30T09:16:47Z</time>
      </trkpt>
      <trkpt lat="43.95312" lon="0.09644">
        <ele>142</ele>
        <time>2025-03-30T09:16:48Z</time>
      </trkpt>
      <trkpt lat="43.95311" lon="0.09642">
        <ele>142</ele>
        <time>2025-03-30T09:16:49Z</time>
      </trkpt>
      <trkpt lat="43.95309" lon="0.0964">
        <ele>142.1</ele>
        <time>2025-03-30T09:16:50Z</time>
      </trkpt>
      <trkpt lat="43.95308" lon="0.09639">
        <ele>142.1</ele>
        <time>2025-03-30T09:16:52Z</time>
      </trkpt>
      <trkpt lat="43.95306" lon="0.09638">
        <ele>142.2</ele>
        <time>2025-03-30T09:16:53Z</time>
      </trkpt>
      <trkpt lat="43.95305" lon="0.09638">
        <ele>142.2</ele>
        <time>2025-03-30T09:16:54Z</time>
      </trkpt>
      <trkpt lat="43.95303" lon="0.09636">
        <ele>142.3</ele>
        <time>2025-03-30T09:16:55Z</time>
      </trkpt>
      <trkpt lat="43.95303" lon="0.09636">
        <ele>142.3</ele>
        <time>2025-03-30T09:16:56Z</time>
      </trkpt>
      <trkpt lat="43.95302" lon="0.09635">
        <ele>142.3</ele>
        <time>2025-03-30T09:16:57Z</time>
      </trkpt>
      <trkpt lat="43.95299" lon="0.09632">
        <ele>142.4</ele>
        <time>2025-03-30T09:16:59Z</time>
      </trkpt>
      <trkpt lat="43.95299" lon="0.09631">
        <ele>142.4</ele>
        <time>2025-03-30T09:17:00Z</time>
      </trkpt>
      <trkpt lat="43.95298" lon="0.09631">
        <ele>142.5</ele>
        <time>2025-03-30T09:17:01Z</time>
      </trkpt>
      <trkpt lat="43.95296" lon="0.0963">
        <ele>142.5</ele>
        <time>2025-03-30T09:17:02Z</time>
      </trkpt>
      <trkpt lat="43.95295" lon="0.09629">
        <ele>142.6</ele>
        <time>2025-03-30T09:17:03Z</time>
      </trkpt>
      <trkpt lat="43.95294" lon="0.09629">
        <ele>142.6</ele>
        <time>2025-03-30T09:17:04Z</time>
      </trkpt>
      <trkpt lat="43.95293" lon="0.09629">
        <ele>142.7</ele>
        <time>2025-03-30T09:17:05Z</time>
      </trkpt>
      <trkpt lat="43.95291" lon="0.09628">
        <ele>142.8</ele>
        <time>2025-03-30T09:17:06Z</time>
      </trkpt>
      <trkpt lat="43.9529" lon="0.09627">
        <ele>142.8</ele>
        <time>2025-03-30T09:17:07Z</time>
      </trkpt>
      <trkpt lat="43.95289" lon="0.09627">
        <ele>142.9</ele>
        <time>2025-03-30T09:17:08Z</time>
      </trkpt>
      <trkpt lat="43.95287" lon="0.09626">
        <ele>143</ele>
        <time>2025-03-30T09:17:09Z</time>
      </trkpt>
      <trkpt lat="43.95287" lon="0.09625">
        <ele>143</ele>
        <time>2025-03-30T09:17:10Z</time>
      </trkpt>
      <trkpt lat="43.95286" lon="0.09625">
        <ele>143</ele>
        <time>2025-03-30T09:17:11Z</time>
      </trkpt>
      <trkpt lat="43.95285" lon="0.09624">
        <ele>143.1</ele>
        <time>2025-03-30T09:17:12Z</time>
      </trkpt>
      <trkpt lat="43.95282" lon="0.09621">
        <ele>143.2</ele>
        <time>2025-03-30T09:17:14Z</time>
      </trkpt>
      <trkpt lat="43.95282" lon="0.0962">
        <ele>143.3</ele>
        <time>2025-03-30T09:17:15Z</time>
      </trkpt>
      <trkpt lat="43.95281" lon="0.09618">
        <ele>143.3</ele>
        <time>2025-03-30T09:17:16Z</time>
      </trkpt>
      <trkpt lat="43.95279" lon="0.09617">
        <ele>143.4</ele>
        <time>2025-03-30T09:17:17Z</time>
      </trkpt>
      <trkpt lat="43.95278" lon="0.09616">
        <ele>143.5</ele>
        <time>2025-03-30T09:17:18Z</time>
      </trkpt>
      <trkpt lat="43.95276" lon="0.09613">
        <ele>143.6</ele>
        <time>2025-03-30T09:17:20Z</time>
      </trkpt>
      <trkpt lat="43.95275" lon="0.09613">
        <ele>143.7</ele>
        <time>2025-03-30T09:17:21Z</time>
      </trkpt>
      <trkpt lat="43.95273" lon="0.09612">
        <ele>143.7</ele>
        <time>2025-03-30T09:17:22Z</time>
      </trkpt>
      <trkpt lat="43.95272" lon="0.09611">
        <ele>143.8</ele>
        <time>2025-03-30T09:17:23Z</time>
      </trkpt>
      <trkpt lat="43.95271" lon="0.0961">
        <ele>143.8</ele>
        <time>2025-03-30T09:17:24Z</time>
      </trkpt>
      <trkpt lat="43.95269" lon="0.09609">
        <ele>144</ele>
        <time>2025-03-30T09:17:26Z</time>
      </trkpt>
      <trkpt lat="43.95267" lon="0.09608">
        <ele>144</ele>
        <time>2025-03-30T09:17:27Z</time>
      </trkpt>
      <trkpt lat="43.95266" lon="0.09607">
        <ele>144.1</ele>
        <time>2025-03-30T09:17:28Z</time>
      </trkpt>
      <trkpt lat="43.95265" lon="0.09606">
        <ele>144.2</ele>
        <time>2025-03-30T09:17:29Z</time>
      </trkpt>
      <trkpt lat="43.95263" lon="0.09605">
        <ele>144.3</ele>
        <time>2025-03-30T09:17:30Z</time>
      </trkpt>
      <trkpt lat="43.95262" lon="0.09603">
        <ele>144.3</ele>
        <time>2025-03-30T09:17:31Z</time>
      </trkpt>
      <trkpt lat="43.95261" lon="0.09602">
        <ele>144.4</ele>
        <time>2025-03-30T09:17:32Z</time>
      </trkpt>
      <trkpt lat="43.9526" lon="0.09601">
        <ele>144.5</ele>
        <time>2025-03-30T09:17:33Z</time>
      </trkpt>
      <trkpt lat="43.95258" lon="0.096">
        <ele>144.6</ele>
        <time>2025-03-30T09:17:35Z</time>
      </trkpt>
      <trkpt lat="43.95255" lon="0.09598">
        <ele>144.8</ele>
        <time>2025-03-30T09:17:36Z</time>
      </trkpt>
      <trkpt lat="43.95254" lon="0.09597">
        <ele>144.9</ele>
        <time>2025-03-30T09:17:37Z</time>
      </trkpt>
      <trkpt lat="43.95253" lon="0.09596">
        <ele>145</ele>
        <time>2025-03-30T09:17:38Z</time>
      </trkpt>
      <trkpt lat="43.95251" lon="0.09595">
        <ele>145.1</ele>
        <time>2025-03-30T09:17:39Z</time>
      </trkpt>
      <trkpt lat="43.9525" lon="0.09594">
        <ele>145.2</ele>
        <time>2025-03-30T09:17:40Z</time>
      </trkpt>
      <trkpt lat="43.95249" lon="0.09592">
        <ele>145.3</ele>
        <time>2025-03-30T09:17:41Z</time>
      </trkpt>
      <trkpt lat="43.95248" lon="0.09591">
        <ele>145.4</ele>
        <time>2025-03-30T09:17:42Z</time>
      </trkpt>
      <trkpt lat="43.95247" lon="0.09589">
        <ele>145.4</ele>
        <time>2025-03-30T09:17:43Z</time>
      </trkpt>
      <trkpt lat="43.95246" lon="0.09588">
        <ele>145.5</ele>
        <time>2025-03-30T09:17:44Z</time>
      </trkpt>
      <trkpt lat="43.95245" lon="0.09587">
        <ele>145.6</ele>
        <time>2025-03-30T09:17:45Z</time>
      </trkpt>
      <trkpt lat="43.95244" lon="0.09585">
        <ele>145.7</ele>
        <time>2025-03-30T09:17:46Z</time>
      </trkpt>
      <trkpt lat="43.95242" lon="0.09584">
        <ele>145.7</ele>
        <time>2025-03-30T09:17:47Z</time>
      </trkpt>
      <trkpt lat="43.95241" lon="0.09583">
        <ele>145.8</ele>
        <time>2025-03-30T09:17:48Z</time>
      </trkpt>
      <trkpt lat="43.9524" lon="0.09582">
        <ele>145.9</ele>
        <time>2025-03-30T09:17:49Z</time>
      </trkpt>
      <trkpt lat="43.95239" lon="0.09581">
        <ele>146</ele>
        <time>2025-03-30T09:17:50Z</time>
      </trkpt>
      <trkpt lat="43.95238" lon="0.0958">
        <ele>146</ele>
        <time>2025-03-30T09:17:51Z</time>
      </trkpt>
      <trkpt lat="43.95237" lon="0.09578">
        <ele>146.1</ele>
        <time>2025-03-30T09:17:52Z</time>
      </trkpt>
      <trkpt lat="43.95236" lon="0.09577">
        <ele>146.2</ele>
        <time>2025-03-30T09:17:53Z</time>
      </trkpt>
      <trkpt lat="43.95235" lon="0.09575">
        <ele>146.3</ele>
        <time>2025-03-30T09:17:54Z</time>
      </trkpt>
      <trkpt lat="43.95234" lon="0.09574">
        <ele>146.3</ele>
        <time>2025-03-30T09:17:55Z</time>
      </trkpt>
      <trkpt lat="43.95234" lon="0.09573">
        <ele>146.4</ele>
        <time>2025-03-30T09:17:56Z</time>
      </trkpt>
      <trkpt lat="43.95232" lon="0.09571">
        <ele>146.5</ele>
        <time>2025-03-30T09:17:57Z</time>
      </trkpt>
      <trkpt lat="43.95232" lon="0.0957">
        <ele>146.6</ele>
        <time>2025-03-30T09:17:58Z</time>
      </trkpt>
      <trkpt lat="43.95231" lon="0.09568">
        <ele>146.7</ele>
        <time>2025-03-30T09:17:59Z</time>
      </trkpt>
      <trkpt lat="43.9523" lon="0.09567">
        <ele>146.8</ele>
        <time>2025-03-30T09:18:00Z</time>
      </trkpt>
      <trkpt lat="43.95229" lon="0.09565">
        <ele>147</ele>
        <time>2025-03-30T09:18:01Z</time>
      </trkpt>
      <trkpt lat="43.95228" lon="0.09564">
        <ele>147</ele>
        <time>2025-03-30T09:18:02Z</time>
      </trkpt>
      <trkpt lat="43.95228" lon="0.09564">
        <ele>147.1</ele>
        <time>2025-03-30T09:18:03Z</time>
      </trkpt>
      <trkpt lat="43.95226" lon="0.09562">
        <ele>147.3</ele>
        <time>2025-03-30T09:18:04Z</time>
      </trkpt>
      <trkpt lat="43.95226" lon="0.09561">
        <ele>147.3</ele>
        <time>2025-03-30T09:18:05Z</time>
      </trkpt>
      <trkpt lat="43.95225" lon="0.0956">
        <ele>147.4</ele>
        <time>2025-03-30T09:18:06Z</time>
      </trkpt>
      <trkpt lat="43.95224" lon="0.09559">
        <ele>147.5</ele>
        <time>2025-03-30T09:18:07Z</time>
      </trkpt>
      <trkpt lat="43.95223" lon="0.09558">
        <ele>147.6</ele>
        <time>2025-03-30T09:18:08Z</time>
      </trkpt>
      <trkpt lat="43.95223" lon="0.09557">
        <ele>147.7</ele>
        <time>2025-03-30T09:18:09Z</time>
      </trkpt>
      <trkpt lat="43.95221" lon="0.09554">
        <ele>147.8</ele>
        <time>2025-03-30T09:18:10Z</time>
      </trkpt>
      <trkpt lat="43.9522" lon="0.09554">
        <ele>147.9</ele>
        <time>2025-03-30T09:18:11Z</time>
      </trkpt>
      <trkpt lat="43.9522" lon="0.09553">
        <ele>147.9</ele>
        <time>2025-03-30T09:18:12Z</time>
      </trkpt>
      <trkpt lat="43.95219" lon="0.09552">
        <ele>148</ele>
        <time>2025-03-30T09:18:13Z</time>
      </trkpt>
      <trkpt lat="43.95218" lon="0.0955">
        <ele>148.1</ele>
        <time>2025-03-30T09:18:14Z</time>
      </trkpt>
      <trkpt lat="43.95217" lon="0.09549">
        <ele>148.2</ele>
        <time>2025-03-30T09:18:15Z</time>
      </trkpt>
      <trkpt lat="43.95215" lon="0.09548">
        <ele>148.3</ele>
        <time>2025-03-30T09:18:16Z</time>
      </trkpt>
      <trkpt lat="43.95214" lon="0.09546">
        <ele>148.3</ele>
        <time>2025-03-30T09:18:17Z</time>
      </trkpt>
      <trkpt lat="43.95213" lon="0.09545">
        <ele>148.4</ele>
        <time>2025-03-30T09:18:18Z</time>
      </trkpt>
      <trkpt lat="43.95212" lon="0.09544">
        <ele>148.5</ele>
        <time>2025-03-30T09:18:19Z</time>
      </trkpt>
      <trkpt lat="43.95211" lon="0.09543">
        <ele>148.6</ele>
        <time>2025-03-30T09:18:20Z</time>
      </trkpt>
      <trkpt lat="43.9521" lon="0.09542">
        <ele>148.7</ele>
        <time>2025-03-30T09:18:21Z</time>
      </trkpt>
      <trkpt lat="43.95208" lon="0.09541">
        <ele>148.8</ele>
        <time>2025-03-30T09:18:22Z</time>
      </trkpt>
      <trkpt lat="43.95207" lon="0.0954">
        <ele>148.9</ele>
        <time>2025-03-30T09:18:23Z</time>
      </trkpt>
      <trkpt lat="43.95206" lon="0.09538">
        <ele>149</ele>
        <time>2025-03-30T09:18:24Z</time>
      </trkpt>
      <trkpt lat="43.95205" lon="0.09537">
        <ele>149.1</ele>
        <time>2025-03-30T09:18:25Z</time>
      </trkpt>
      <trkpt lat="43.95203" lon="0.09537">
        <ele>149.2</ele>
        <time>2025-03-30T09:18:26Z</time>
      </trkpt>
      <trkpt lat="43.95202" lon="0.09536">
        <ele>149.4</ele>
        <time>2025-03-30T09:18:27Z</time>
      </trkpt>
      <trkpt lat="43.95201" lon="0.09535">
        <ele>149.5</ele>
        <time>2025-03-30T09:18:28Z</time>
      </trkpt>
      <trkpt lat="43.95199" lon="0.09533">
        <ele>149.7</ele>
        <time>2025-03-30T09:18:29Z</time>
      </trkpt>
      <trkpt lat="43.95198" lon="0.09532">
        <ele>149.8</ele>
        <time>2025-03-30T09:18:30Z</time>
      </trkpt>
      <trkpt lat="43.95198" lon="0.09531">
        <ele>149.9</ele>
        <time>2025-03-30T09:18:31Z</time>
      </trkpt>
      <trkpt lat="43.95197" lon="0.0953">
        <ele>150</ele>
        <time>2025-03-30T09:18:32Z</time>
      </trkpt>
      <trkpt lat="43.95196" lon="0.09529">
        <ele>150.2</ele>
        <time>2025-03-30T09:18:33Z</time>
      </trkpt>
      <trkpt lat="43.95194" lon="0.09528">
        <ele>150.5</ele>
        <time>2025-03-30T09:18:34Z</time>
      </trkpt>
      <trkpt lat="43.95193" lon="0.09527">
        <ele>150.6</ele>
        <time>2025-03-30T09:18:35Z</time>
      </trkpt>
      <trkpt lat="43.95192" lon="0.09526">
        <ele>150.7</ele>
        <time>2025-03-30T09:18:36Z</time>
      </trkpt>
      <trkpt lat="43.9519" lon="0.09524">
        <ele>150.9</ele>
        <time>2025-03-30T09:18:37Z</time>
      </trkpt>
      <trkpt lat="43.9519" lon="0.09524">
        <ele>151.1</ele>
        <time>2025-03-30T09:18:38Z</time>
      </trkpt>
      <trkpt lat="43.95189" lon="0.09523">
        <ele>151.2</ele>
        <time>2025-03-30T09:18:39Z</time>
      </trkpt>
      <trkpt lat="43.95187" lon="0.09522">
        <ele>151.3</ele>
        <time>2025-03-30T09:18:40Z</time>
      </trkpt>
      <trkpt lat="43.95186" lon="0.09522">
        <ele>151.5</ele>
        <time>2025-03-30T09:18:41Z</time>
      </trkpt>
      <trkpt lat="43.95184" lon="0.0952">
        <ele>151.8</ele>
        <time>2025-03-30T09:18:43Z</time>
      </trkpt>
      <trkpt lat="43.95184" lon="0.09518">
        <ele>151.9</ele>
        <time>2025-03-30T09:18:44Z</time>
      </trkpt>
      <trkpt lat="43.95184" lon="0.09517">
        <ele>152</ele>
        <time>2025-03-30T09:18:45Z</time>
      </trkpt>
      <trkpt lat="43.95183" lon="0.09515">
        <ele>152.2</ele>
        <time>2025-03-30T09:18:46Z</time>
      </trkpt>
      <trkpt lat="43.95183" lon="0.09513">
        <ele>152.3</ele>
        <time>2025-03-30T09:18:47Z</time>
      </trkpt>
      <trkpt lat="43.95182" lon="0.09511">
        <ele>152.4</ele>
        <time>2025-03-30T09:18:48Z</time>
      </trkpt>
      <trkpt lat="43.95182" lon="0.09509">
        <ele>152.5</ele>
        <time>2025-03-30T09:18:49Z</time>
      </trkpt>
      <trkpt lat="43.95182" lon="0.09507">
        <ele>152.6</ele>
        <time>2025-03-30T09:18:50Z</time>
      </trkpt>
      <trkpt lat="43.95182" lon="0.09504">
        <ele>152.7</ele>
        <time>2025-03-30T09:18:51Z</time>
      </trkpt>
      <trkpt lat="43.95182" lon="0.09502">
        <ele>152.8</ele>
        <time>2025-03-30T09:18:52Z</time>
      </trkpt>
      <trkpt lat="43.95182" lon="0.09501">
        <ele>152.9</ele>
        <time>2025-03-30T09:18:53Z</time>
      </trkpt>
      <trkpt lat="43.95183" lon="0.09498">
        <ele>153</ele>
        <time>2025-03-30T09:18:54Z</time>
      </trkpt>
      <trkpt lat="43.95185" lon="0.09495">
        <ele>153.1</ele>
        <time>2025-03-30T09:18:56Z</time>
      </trkpt>
      <trkpt lat="43.95186" lon="0.09493">
        <ele>153.2</ele>
        <time>2025-03-30T09:18:57Z</time>
      </trkpt>
      <trkpt lat="43.95186" lon="0.09491">
        <ele>153.3</ele>
        <time>2025-03-30T09:18:58Z</time>
      </trkpt>
      <trkpt lat="43.95187" lon="0.0949">
        <ele>153.3</ele>
        <time>2025-03-30T09:18:59Z</time>
      </trkpt>
      <trkpt lat="43.95188" lon="0.09487">
        <ele>153.4</ele>
        <time>2025-03-30T09:19:00Z</time>
      </trkpt>
      <trkpt lat="43.95188" lon="0.09486">
        <ele>153.5</ele>
        <time>2025-03-30T09:19:01Z</time>
      </trkpt>
      <trkpt lat="43.95189" lon="0.09484">
        <ele>153.5</ele>
        <time>2025-03-30T09:19:02Z</time>
      </trkpt>
      <trkpt lat="43.9519" lon="0.09481">
        <ele>153.7</ele>
        <time>2025-03-30T09:19:04Z</time>
      </trkpt>
      <trkpt lat="43.95191" lon="0.09479">
        <ele>153.7</ele>
        <time>2025-03-30T09:19:05Z</time>
      </trkpt>
      <trkpt lat="43.95192" lon="0.09476">
        <ele>153.9</ele>
        <time>2025-03-30T09:19:06Z</time>
      </trkpt>
      <trkpt lat="43.95193" lon="0.09475">
        <ele>153.9</ele>
        <time>2025-03-30T09:19:07Z</time>
      </trkpt>
      <trkpt lat="43.95193" lon="0.09474">
        <ele>153.9</ele>
        <time>2025-03-30T09:19:08Z</time>
      </trkpt>
      <trkpt lat="43.95194" lon="0.09471">
        <ele>154</ele>
        <time>2025-03-30T09:19:09Z</time>
      </trkpt>
      <trkpt lat="43.95194" lon="0.0947">
        <ele>154.1</ele>
        <time>2025-03-30T09:19:10Z</time>
      </trkpt>
      <trkpt lat="43.95195" lon="0.09469">
        <ele>154.1</ele>
        <time>2025-03-30T09:19:11Z</time>
      </trkpt>
      <trkpt lat="43.95195" lon="0.09466">
        <ele>154.2</ele>
        <time>2025-03-30T09:19:12Z</time>
      </trkpt>
      <trkpt lat="43.95196" lon="0.09465">
        <ele>154.3</ele>
        <time>2025-03-30T09:19:13Z</time>
      </trkpt>
      <trkpt lat="43.95196" lon="0.09464">
        <ele>154.3</ele>
        <time>2025-03-30T09:19:14Z</time>
      </trkpt>
      <trkpt lat="43.95197" lon="0.09462">
        <ele>154.4</ele>
        <time>2025-03-30T09:19:15Z</time>
      </trkpt>
      <trkpt lat="43.95197" lon="0.0946">
        <ele>154.5</ele>
        <time>2025-03-30T09:19:16Z</time>
      </trkpt>
      <trkpt lat="43.95197" lon="0.09457">
        <ele>154.6</ele>
        <time>2025-03-30T09:19:17Z</time>
      </trkpt>
      <trkpt lat="43.95198" lon="0.09456">
        <ele>154.6</ele>
        <time>2025-03-30T09:19:18Z</time>
      </trkpt>
      <trkpt lat="43.95198" lon="0.09455">
        <ele>154.6</ele>
        <time>2025-03-30T09:19:19Z</time>
      </trkpt>
      <trkpt lat="43.95198" lon="0.09453">
        <ele>154.7</ele>
        <time>2025-03-30T09:19:20Z</time>
      </trkpt>
      <trkpt lat="43.95199" lon="0.09451">
        <ele>154.8</ele>
        <time>2025-03-30T09:19:21Z</time>
      </trkpt>
      <trkpt lat="43.95199" lon="0.0945">
        <ele>154.8</ele>
        <time>2025-03-30T09:19:23Z</time>
      </trkpt>
      <trkpt lat="43.952" lon="0.09447">
        <ele>155</ele>
        <time>2025-03-30T09:19:24Z</time>
      </trkpt>
      <trkpt lat="43.95202" lon="0.09444">
        <ele>155.1</ele>
        <time>2025-03-30T09:19:25Z</time>
      </trkpt>
      <trkpt lat="43.95202" lon="0.09443">
        <ele>155.1</ele>
        <time>2025-03-30T09:19:26Z</time>
      </trkpt>
      <trkpt lat="43.95203" lon="0.09442">
        <ele>155.2</ele>
        <time>2025-03-30T09:19:27Z</time>
      </trkpt>
      <trkpt lat="43.95203" lon="0.0944">
        <ele>155.3</ele>
        <time>2025-03-30T09:19:28Z</time>
      </trkpt>
      <trkpt lat="43.95204" lon="0.09439">
        <ele>155.3</ele>
        <time>2025-03-30T09:19:29Z</time>
      </trkpt>
      <trkpt lat="43.95205" lon="0.09437">
        <ele>155.4</ele>
        <time>2025-03-30T09:19:30Z</time>
      </trkpt>
      <trkpt lat="43.95205" lon="0.09435">
        <ele>155.5</ele>
        <time>2025-03-30T09:19:31Z</time>
      </trkpt>
      <trkpt lat="43.95206" lon="0.09433">
        <ele>155.6</ele>
        <time>2025-03-30T09:19:32Z</time>
      </trkpt>
      <trkpt lat="43.95206" lon="0.09432">
        <ele>155.6</ele>
        <time>2025-03-30T09:19:33Z</time>
      </trkpt>
      <trkpt lat="43.95207" lon="0.09429">
        <ele>155.8</ele>
        <time>2025-03-30T09:19:34Z</time>
      </trkpt>
      <trkpt lat="43.95207" lon="0.09428">
        <ele>155.8</ele>
        <time>2025-03-30T09:19:35Z</time>
      </trkpt>
      <trkpt lat="43.95207" lon="0.09427">
        <ele>155.9</ele>
        <time>2025-03-30T09:19:36Z</time>
      </trkpt>
      <trkpt lat="43.95208" lon="0.09425">
        <ele>155.9</ele>
        <time>2025-03-30T09:19:37Z</time>
      </trkpt>
      <trkpt lat="43.95209" lon="0.09422">
        <ele>156.1</ele>
        <time>2025-03-30T09:19:39Z</time>
      </trkpt>
      <trkpt lat="43.95211" lon="0.09419">
        <ele>156.2</ele>
        <time>2025-03-30T09:19:40Z</time>
      </trkpt>
      <trkpt lat="43.95212" lon="0.09417">
        <ele>156.3</ele>
        <time>2025-03-30T09:19:42Z</time>
      </trkpt>
      <trkpt lat="43.95212" lon="0.09416">
        <ele>156.4</ele>
        <time>2025-03-30T09:19:43Z</time>
      </trkpt>
      <trkpt lat="43.95213" lon="0.09414">
        <ele>156.5</ele>
        <time>2025-03-30T09:19:44Z</time>
      </trkpt>
      <trkpt lat="43.95214" lon="0.09412">
        <ele>156.6</ele>
        <time>2025-03-30T09:19:45Z</time>
      </trkpt>
      <trkpt lat="43.95214" lon="0.09409">
        <ele>156.7</ele>
        <time>2025-03-30T09:19:46Z</time>
      </trkpt>
      <trkpt lat="43.95214" lon="0.09407">
        <ele>156.8</ele>
        <time>2025-03-30T09:19:47Z</time>
      </trkpt>
      <trkpt lat="43.95215" lon="0.09405">
        <ele>156.9</ele>
        <time>2025-03-30T09:19:48Z</time>
      </trkpt>
      <trkpt lat="43.95215" lon="0.09404">
        <ele>157</ele>
        <time>2025-03-30T09:19:49Z</time>
      </trkpt>
      <trkpt lat="43.95215" lon="0.09402">
        <ele>157.1</ele>
        <time>2025-03-30T09:19:50Z</time>
      </trkpt>
      <trkpt lat="43.95215" lon="0.094">
        <ele>157.2</ele>
        <time>2025-03-30T09:19:51Z</time>
      </trkpt>
      <trkpt lat="43.95216" lon="0.09398">
        <ele>157.3</ele>
        <time>2025-03-30T09:19:52Z</time>
      </trkpt>
      <trkpt lat="43.95216" lon="0.09396">
        <ele>157.4</ele>
        <time>2025-03-30T09:19:53Z</time>
      </trkpt>
      <trkpt lat="43.95217" lon="0.09393">
        <ele>157.5</ele>
        <time>2025-03-30T09:19:54Z</time>
      </trkpt>
      <trkpt lat="43.95217" lon="0.09392">
        <ele>157.6</ele>
        <time>2025-03-30T09:19:55Z</time>
      </trkpt>
      <trkpt lat="43.95217" lon="0.09391">
        <ele>157.6</ele>
        <time>2025-03-30T09:19:56Z</time>
      </trkpt>
      <trkpt lat="43.95218" lon="0.09388">
        <ele>157.8</ele>
        <time>2025-03-30T09:19:57Z</time>
      </trkpt>
      <trkpt lat="43.95218" lon="0.09387">
        <ele>157.8</ele>
        <time>2025-03-30T09:19:58Z</time>
      </trkpt>
      <trkpt lat="43.95218" lon="0.09386">
        <ele>157.9</ele>
        <time>2025-03-30T09:19:59Z</time>
      </trkpt>
      <trkpt lat="43.9522" lon="0.09383">
        <ele>158</ele>
        <time>2025-03-30T09:20:00Z</time>
      </trkpt>
      <trkpt lat="43.9522" lon="0.09382">
        <ele>158.1</ele>
        <time>2025-03-30T09:20:01Z</time>
      </trkpt>
      <trkpt lat="43.95221" lon="0.09382">
        <ele>158.1</ele>
        <time>2025-03-30T09:20:02Z</time>
      </trkpt>
      <trkpt lat="43.95221" lon="0.0938">
        <ele>158.2</ele>
        <time>2025-03-30T09:20:03Z</time>
      </trkpt>
      <trkpt lat="43.95223" lon="0.09377">
        <ele>158.3</ele>
        <time>2025-03-30T09:20:05Z</time>
      </trkpt>
      <trkpt lat="43.95224" lon="0.09375">
        <ele>158.4</ele>
        <time>2025-03-30T09:20:06Z</time>
      </trkpt>
      <trkpt lat="43.95225" lon="0.09374">
        <ele>158.5</ele>
        <time>2025-03-30T09:20:07Z</time>
      </trkpt>
      <trkpt lat="43.95227" lon="0.09371">
        <ele>158.6</ele>
        <time>2025-03-30T09:20:08Z</time>
      </trkpt>
      <trkpt lat="43.95227" lon="0.0937">
        <ele>158.6</ele>
        <time>2025-03-30T09:20:10Z</time>
      </trkpt>
      <trkpt lat="43.95228" lon="0.09368">
        <ele>158.7</ele>
        <time>2025-03-30T09:20:11Z</time>
      </trkpt>
      <trkpt lat="43.95229" lon="0.09367">
        <ele>158.7</ele>
        <time>2025-03-30T09:20:12Z</time>
      </trkpt>
      <trkpt lat="43.9523" lon="0.09365">
        <ele>158.8</ele>
        <time>2025-03-30T09:20:13Z</time>
      </trkpt>
      <trkpt lat="43.9523" lon="0.09363">
        <ele>158.9</ele>
        <time>2025-03-30T09:20:14Z</time>
      </trkpt>
      <trkpt lat="43.9523" lon="0.09361">
        <ele>158.9</ele>
        <time>2025-03-30T09:20:15Z</time>
      </trkpt>
      <trkpt lat="43.95231" lon="0.0936">
        <ele>159</ele>
        <time>2025-03-30T09:20:16Z</time>
      </trkpt>
      <trkpt lat="43.95231" lon="0.09357">
        <ele>159</ele>
        <time>2025-03-30T09:20:17Z</time>
      </trkpt>
      <trkpt lat="43.95231" lon="0.09356">
        <ele>159.1</ele>
        <time>2025-03-30T09:20:18Z</time>
      </trkpt>
      <trkpt lat="43.95232" lon="0.09352">
        <ele>159.2</ele>
        <time>2025-03-30T09:20:19Z</time>
      </trkpt>
      <trkpt lat="43.95232" lon="0.09351">
        <ele>159.2</ele>
        <time>2025-03-30T09:20:20Z</time>
      </trkpt>
      <trkpt lat="43.95232" lon="0.0935">
        <ele>159.3</ele>
        <time>2025-03-30T09:20:21Z</time>
      </trkpt>
      <trkpt lat="43.95232" lon="0.09348">
        <ele>159.4</ele>
        <time>2025-03-30T09:20:22Z</time>
      </trkpt>
      <trkpt lat="43.95232" lon="0.09346">
        <ele>159.4</ele>
        <time>2025-03-30T09:20:23Z</time>
      </trkpt>
      <trkpt lat="43.95233" lon="0.09343">
        <ele>159.5</ele>
        <time>2025-03-30T09:20:24Z</time>
      </trkpt>
      <trkpt lat="43.95233" lon="0.09342">
        <ele>159.5</ele>
        <time>2025-03-30T09:20:25Z</time>
      </trkpt>
      <trkpt lat="43.95233" lon="0.09341">
        <ele>159.6</ele>
        <time>2025-03-30T09:20:26Z</time>
      </trkpt>
      <trkpt lat="43.95234" lon="0.09339">
        <ele>159.6</ele>
        <time>2025-03-30T09:20:27Z</time>
      </trkpt>
      <trkpt lat="43.95234" lon="0.09338">
        <ele>159.7</ele>
        <time>2025-03-30T09:20:28Z</time>
      </trkpt>
      <trkpt lat="43.95235" lon="0.09334">
        <ele>159.8</ele>
        <time>2025-03-30T09:20:30Z</time>
      </trkpt>
      <trkpt lat="43.95236" lon="0.09331">
        <ele>159.9</ele>
        <time>2025-03-30T09:20:32Z</time>
      </trkpt>
      <trkpt lat="43.95236" lon="0.0933">
        <ele>159.9</ele>
        <time>2025-03-30T09:20:33Z</time>
      </trkpt>
      <trkpt lat="43.95237" lon="0.09329">
        <ele>159.9</ele>
        <time>2025-03-30T09:20:34Z</time>
      </trkpt>
      <trkpt lat="43.95238" lon="0.09326">
        <ele>160</ele>
        <time>2025-03-30T09:20:36Z</time>
      </trkpt>
      <trkpt lat="43.95239" lon="0.09324">
        <ele>160.1</ele>
        <time>2025-03-30T09:20:37Z</time>
      </trkpt>
      <trkpt lat="43.9524" lon="0.09322">
        <ele>160.1</ele>
        <time>2025-03-30T09:20:38Z</time>
      </trkpt>
      <trkpt lat="43.95241" lon="0.09319">
        <ele>160.2</ele>
        <time>2025-03-30T09:20:40Z</time>
      </trkpt>
      <trkpt lat="43.95242" lon="0.09318">
        <ele>160.2</ele>
        <time>2025-03-30T09:20:41Z</time>
      </trkpt>
      <trkpt lat="43.95242" lon="0.09316">
        <ele>160.3</ele>
        <time>2025-03-30T09:20:42Z</time>
      </trkpt>
      <trkpt lat="43.95243" lon="0.09313">
        <ele>160.3</ele>
        <time>2025-03-30T09:20:43Z</time>
      </trkpt>
      <trkpt lat="43.95243" lon="0.09312">
        <ele>160.4</ele>
        <time>2025-03-30T09:20:44Z</time>
      </trkpt>
      <trkpt lat="43.95244" lon="0.09311">
        <ele>160.4</ele>
        <time>2025-03-30T09:20:45Z</time>
      </trkpt>
      <trkpt lat="43.95244" lon="0.0931">
        <ele>160.4</ele>
        <time>2025-03-30T09:20:46Z</time>
      </trkpt>
      <trkpt lat="43.95245" lon="0.09308">
        <ele>160.5</ele>
        <time>2025-03-30T09:20:47Z</time>
      </trkpt>
      <trkpt lat="43.95246" lon="0.09305">
        <ele>160.5</ele>
        <time>2025-03-30T09:20:48Z</time>
      </trkpt>
      <trkpt lat="43.95246" lon="0.09304">
        <ele>160.6</ele>
        <time>2025-03-30T09:20:49Z</time>
      </trkpt>
      <trkpt lat="43.95246" lon="0.09303">
        <ele>160.6</ele>
        <time>2025-03-30T09:20:50Z</time>
      </trkpt>
      <trkpt lat="43.95247" lon="0.09301">
        <ele>160.6</ele>
        <time>2025-03-30T09:20:51Z</time>
      </trkpt>
      <trkpt lat="43.95247" lon="0.09299">
        <ele>160.7</ele>
        <time>2025-03-30T09:20:52Z</time>
      </trkpt>
      <trkpt lat="43.95246" lon="0.09298">
        <ele>160.7</ele>
        <time>2025-03-30T09:20:53Z</time>
      </trkpt>
      <trkpt lat="43.95248" lon="0.09297">
        <ele>160.7</ele>
        <time>2025-03-30T09:20:54Z</time>
      </trkpt>
      <trkpt lat="43.95249" lon="0.09295">
        <ele>160.8</ele>
        <time>2025-03-30T09:20:55Z</time>
      </trkpt>
      <trkpt lat="43.95249" lon="0.09292">
        <ele>160.8</ele>
        <time>2025-03-30T09:20:56Z</time>
      </trkpt>
      <trkpt lat="43.95249" lon="0.0929">
        <ele>160.8</ele>
        <time>2025-03-30T09:20:57Z</time>
      </trkpt>
      <trkpt lat="43.95249" lon="0.09288">
        <ele>160.9</ele>
        <time>2025-03-30T09:20:58Z</time>
      </trkpt>
      <trkpt lat="43.95249" lon="0.09286">
        <ele>160.9</ele>
        <time>2025-03-30T09:20:59Z</time>
      </trkpt>
      <trkpt lat="43.95249" lon="0.09284">
        <ele>161</ele>
        <time>2025-03-30T09:21:00Z</time>
      </trkpt>
      <trkpt lat="43.95249" lon="0.09282">
        <ele>161</ele>
        <time>2025-03-30T09:21:01Z</time>
      </trkpt>
      <trkpt lat="43.95249" lon="0.09279">
        <ele>161</ele>
        <time>2025-03-30T09:21:02Z</time>
      </trkpt>
      <trkpt lat="43.95249" lon="0.09278">
        <ele>161</ele>
        <time>2025-03-30T09:21:03Z</time>
      </trkpt>
      <trkpt lat="43.95248" lon="0.09277">
        <ele>161</ele>
        <time>2025-03-30T09:21:04Z</time>
      </trkpt>
      <trkpt lat="43.95248" lon="0.09277">
        <ele>161.1</ele>
        <time>2025-03-30T09:21:05Z</time>
      </trkpt>
      <trkpt lat="43.95248" lon="0.09274">
        <ele>161.1</ele>
        <time>2025-03-30T09:21:06Z</time>
      </trkpt>
      <trkpt lat="43.95247" lon="0.09272">
        <ele>161.1</ele>
        <time>2025-03-30T09:21:07Z</time>
      </trkpt>
      <trkpt lat="43.95246" lon="0.0927">
        <ele>161.1</ele>
        <time>2025-03-30T09:21:08Z</time>
      </trkpt>
      <trkpt lat="43.95246" lon="0.09269">
        <ele>161.1</ele>
        <time>2025-03-30T09:21:09Z</time>
      </trkpt>
      <trkpt lat="43.95245" lon="0.09266">
        <ele>161.1</ele>
        <time>2025-03-30T09:21:10Z</time>
      </trkpt>
      <trkpt lat="43.95244" lon="0.09265">
        <ele>161.1</ele>
        <time>2025-03-30T09:21:11Z</time>
      </trkpt>
      <trkpt lat="43.95244" lon="0.09264">
        <ele>161.1</ele>
        <time>2025-03-30T09:21:12Z</time>
      </trkpt>
      <trkpt lat="43.95241" lon="0.09263">
        <ele>161.1</ele>
        <time>2025-03-30T09:21:13Z</time>
      </trkpt>
      <trkpt lat="43.95241" lon="0.09263">
        <ele>161.1</ele>
        <time>2025-03-30T09:21:14Z</time>
      </trkpt>
      <trkpt lat="43.9524" lon="0.09263">
        <ele>161.1</ele>
        <time>2025-03-30T09:21:15Z</time>
      </trkpt>
      <trkpt lat="43.95238" lon="0.09263">
        <ele>161.1</ele>
        <time>2025-03-30T09:21:16Z</time>
      </trkpt>
      <trkpt lat="43.95236" lon="0.09263">
        <ele>161.2</ele>
        <time>2025-03-30T09:21:17Z</time>
      </trkpt>
      <trkpt lat="43.95235" lon="0.09263">
        <ele>161.2</ele>
        <time>2025-03-30T09:21:18Z</time>
      </trkpt>
      <trkpt lat="43.95234" lon="0.09262">
        <ele>161.2</ele>
        <time>2025-03-30T09:21:19Z</time>
      </trkpt>
      <trkpt lat="43.95233" lon="0.09261">
        <ele>161.2</ele>
        <time>2025-03-30T09:21:20Z</time>
      </trkpt>
      <trkpt lat="43.95232" lon="0.09261">
        <ele>161.2</ele>
        <time>2025-03-30T09:21:21Z</time>
      </trkpt>
      <trkpt lat="43.95231" lon="0.0926">
        <ele>161.2</ele>
        <time>2025-03-30T09:21:22Z</time>
      </trkpt>
      <trkpt lat="43.95229" lon="0.0926">
        <ele>161.2</ele>
        <time>2025-03-30T09:21:23Z</time>
      </trkpt>
      <trkpt lat="43.95228" lon="0.09259">
        <ele>161.2</ele>
        <time>2025-03-30T09:21:24Z</time>
      </trkpt>
      <trkpt lat="43.95228" lon="0.09259">
        <ele>161.2</ele>
        <time>2025-03-30T09:21:25Z</time>
      </trkpt>
      <trkpt lat="43.95227" lon="0.09259">
        <ele>161.2</ele>
        <time>2025-03-30T09:21:26Z</time>
      </trkpt>
      <trkpt lat="43.95228" lon="0.0926">
        <ele>161.3</ele>
        <time>2025-03-30T09:21:27Z</time>
      </trkpt>
      <trkpt lat="43.95229" lon="0.0926">
        <ele>161.3</ele>
        <time>2025-03-30T09:21:28Z</time>
      </trkpt>
      <trkpt lat="43.95229" lon="0.09261">
        <ele>161.3</ele>
        <time>2025-03-30T09:21:29Z</time>
      </trkpt>
      <trkpt lat="43.9523" lon="0.09261">
        <ele>161.3</ele>
        <time>2025-03-30T09:21:30Z</time>
      </trkpt>
      <trkpt lat="43.95229" lon="0.09261">
        <ele>161.3</ele>
        <time>2025-03-30T09:21:31Z</time>
      </trkpt>
      <trkpt lat="43.95229" lon="0.09261">
        <ele>161.3</ele>
        <time>2025-03-30T09:21:32Z</time>
      </trkpt>
      <trkpt lat="43.95228" lon="0.0926">
        <ele>161.3</ele>
        <time>2025-03-30T09:21:33Z</time>
      </trkpt>
      <trkpt lat="43.95226" lon="0.0926">
        <ele>161.3</ele>
        <time>2025-03-30T09:21:34Z</time>
      </trkpt>
      <trkpt lat="43.95225" lon="0.0926">
        <ele>161.3</ele>
        <time>2025-03-30T09:21:36Z</time>
      </trkpt>
      <trkpt lat="43.95224" lon="0.09259">
        <ele>161.4</ele>
        <time>2025-03-30T09:21:37Z</time>
      </trkpt>
      <trkpt lat="43.95222" lon="0.09259">
        <ele>161.4</ele>
        <time>2025-03-30T09:21:39Z</time>
      </trkpt>
      <trkpt lat="43.9522" lon="0.09259">
        <ele>161.4</ele>
        <time>2025-03-30T09:21:40Z</time>
      </trkpt>
      <trkpt lat="43.95219" lon="0.09259">
        <ele>161.4</ele>
        <time>2025-03-30T09:21:41Z</time>
      </trkpt>
      <trkpt lat="43.95217" lon="0.09259">
        <ele>161.5</ele>
        <time>2025-03-30T09:21:42Z</time>
      </trkpt>
      <trkpt lat="43.95215" lon="0.09258">
        <ele>161.5</ele>
        <time>2025-03-30T09:21:43Z</time>
      </trkpt>
      <trkpt lat="43.95212" lon="0.09258">
        <ele>161.6</ele>
        <time>2025-03-30T09:21:44Z</time>
      </trkpt>
      <trkpt lat="43.95211" lon="0.09258">
        <ele>161.7</ele>
        <time>2025-03-30T09:21:45Z</time>
      </trkpt>
      <trkpt lat="43.9521" lon="0.09257">
        <ele>161.7</ele>
        <time>2025-03-30T09:21:46Z</time>
      </trkpt>
      <trkpt lat="43.95208" lon="0.09257">
        <ele>161.8</ele>
        <time>2025-03-30T09:21:47Z</time>
      </trkpt>
      <trkpt lat="43.95206" lon="0.09257">
        <ele>161.8</ele>
        <time>2025-03-30T09:21:48Z</time>
      </trkpt>
      <trkpt lat="43.95204" lon="0.09257">
        <ele>161.9</ele>
        <time>2025-03-30T09:21:49Z</time>
      </trkpt>
      <trkpt lat="43.952" lon="0.09255">
        <ele>162.1</ele>
        <time>2025-03-30T09:21:51Z</time>
      </trkpt>
      <trkpt lat="43.95199" lon="0.09255">
        <ele>162.1</ele>
        <time>2025-03-30T09:21:53Z</time>
      </trkpt>
      <trkpt lat="43.95198" lon="0.09254">
        <ele>162.2</ele>
        <time>2025-03-30T09:21:54Z</time>
      </trkpt>
      <trkpt lat="43.95196" lon="0.09254">
        <ele>162.2</ele>
        <time>2025-03-30T09:21:55Z</time>
      </trkpt>
      <trkpt lat="43.95195" lon="0.09253">
        <ele>162.3</ele>
        <time>2025-03-30T09:21:56Z</time>
      </trkpt>
      <trkpt lat="43.95194" lon="0.09253">
        <ele>162.3</ele>
        <time>2025-03-30T09:21:57Z</time>
      </trkpt>
      <trkpt lat="43.95191" lon="0.09253">
        <ele>162.4</ele>
        <time>2025-03-30T09:21:59Z</time>
      </trkpt>
      <trkpt lat="43.95189" lon="0.09252">
        <ele>162.5</ele>
        <time>2025-03-30T09:22:00Z</time>
      </trkpt>
      <trkpt lat="43.95188" lon="0.09252">
        <ele>162.5</ele>
        <time>2025-03-30T09:22:01Z</time>
      </trkpt>
      <trkpt lat="43.95187" lon="0.09252">
        <ele>162.6</ele>
        <time>2025-03-30T09:22:02Z</time>
      </trkpt>
      <trkpt lat="43.95185" lon="0.09252">
        <ele>162.6</ele>
        <time>2025-03-30T09:22:03Z</time>
      </trkpt>
      <trkpt lat="43.95184" lon="0.09251">
        <ele>162.7</ele>
        <time>2025-03-30T09:22:04Z</time>
      </trkpt>
      <trkpt lat="43.95183" lon="0.09251">
        <ele>162.7</ele>
        <time>2025-03-30T09:22:05Z</time>
      </trkpt>
      <trkpt lat="43.95181" lon="0.09251">
        <ele>162.8</ele>
        <time>2025-03-30T09:22:06Z</time>
      </trkpt>
      <trkpt lat="43.95177" lon="0.0925">
        <ele>162.9</ele>
        <time>2025-03-30T09:22:08Z</time>
      </trkpt>
      <trkpt lat="43.95176" lon="0.0925">
        <ele>162.9</ele>
        <time>2025-03-30T09:22:09Z</time>
      </trkpt>
      <trkpt lat="43.95175" lon="0.0925">
        <ele>163</ele>
        <time>2025-03-30T09:22:10Z</time>
      </trkpt>
      <trkpt lat="43.95174" lon="0.09249">
        <ele>163</ele>
        <time>2025-03-30T09:22:11Z</time>
      </trkpt>
      <trkpt lat="43.95173" lon="0.09249">
        <ele>163</ele>
        <time>2025-03-30T09:22:12Z</time>
      </trkpt>
      <trkpt lat="43.95172" lon="0.09249">
        <ele>163.1</ele>
        <time>2025-03-30T09:22:13Z</time>
      </trkpt>
      <trkpt lat="43.95169" lon="0.09249">
        <ele>163.2</ele>
        <time>2025-03-30T09:22:14Z</time>
      </trkpt>
      <trkpt lat="43.95168" lon="0.09249">
        <ele>163.2</ele>
        <time>2025-03-30T09:22:16Z</time>
      </trkpt>
      <trkpt lat="43.95166" lon="0.09249">
        <ele>163.3</ele>
        <time>2025-03-30T09:22:17Z</time>
      </trkpt>
      <trkpt lat="43.95165" lon="0.09249">
        <ele>163.3</ele>
        <time>2025-03-30T09:22:18Z</time>
      </trkpt>
      <trkpt lat="43.95163" lon="0.09249">
        <ele>163.4</ele>
        <time>2025-03-30T09:22:19Z</time>
      </trkpt>
      <trkpt lat="43.95162" lon="0.09249">
        <ele>163.4</ele>
        <time>2025-03-30T09:22:20Z</time>
      </trkpt>
      <trkpt lat="43.95161" lon="0.09249">
        <ele>163.5</ele>
        <time>2025-03-30T09:22:21Z</time>
      </trkpt>
      <trkpt lat="43.9516" lon="0.09249">
        <ele>163.5</ele>
        <time>2025-03-30T09:22:22Z</time>
      </trkpt>
      <trkpt lat="43.95158" lon="0.09249">
        <ele>163.6</ele>
        <time>2025-03-30T09:22:23Z</time>
      </trkpt>
      <trkpt lat="43.95156" lon="0.09248">
        <ele>163.6</ele>
        <time>2025-03-30T09:22:24Z</time>
      </trkpt>
      <trkpt lat="43.95155" lon="0.09247">
        <ele>163.6</ele>
        <time>2025-03-30T09:22:25Z</time>
      </trkpt>
      <trkpt lat="43.95153" lon="0.09246">
        <ele>163.7</ele>
        <time>2025-03-30T09:22:26Z</time>
      </trkpt>
      <trkpt lat="43.95152" lon="0.09246">
        <ele>163.7</ele>
        <time>2025-03-30T09:22:27Z</time>
      </trkpt>
      <trkpt lat="43.95151" lon="0.09242">
        <ele>163.8</ele>
        <time>2025-03-30T09:22:28Z</time>
      </trkpt>
      <trkpt lat="43.95149" lon="0.09241">
        <ele>163.8</ele>
        <time>2025-03-30T09:22:29Z</time>
      </trkpt>
      <trkpt lat="43.95148" lon="0.0924">
        <ele>163.8</ele>
        <time>2025-03-30T09:22:30Z</time>
      </trkpt>
      <trkpt lat="43.95147" lon="0.0924">
        <ele>163.8</ele>
        <time>2025-03-30T09:22:31Z</time>
      </trkpt>
      <trkpt lat="43.95146" lon="0.0924">
        <ele>163.8</ele>
        <time>2025-03-30T09:22:32Z</time>
      </trkpt>
      <trkpt lat="43.95145" lon="0.09239">
        <ele>163.8</ele>
        <time>2025-03-30T09:22:33Z</time>
      </trkpt>
      <trkpt lat="43.95144" lon="0.09238">
        <ele>163.8</ele>
        <time>2025-03-30T09:22:34Z</time>
      </trkpt>
      <trkpt lat="43.95143" lon="0.09237">
        <ele>163.7</ele>
        <time>2025-03-30T09:22:35Z</time>
      </trkpt>
      <trkpt lat="43.95143" lon="0.09236">
        <ele>163.7</ele>
        <time>2025-03-30T09:22:36Z</time>
      </trkpt>
      <trkpt lat="43.95142" lon="0.09234">
        <ele>163.7</ele>
        <time>2025-03-30T09:22:37Z</time>
      </trkpt>
      <trkpt lat="43.9514" lon="0.09234">
        <ele>163.6</ele>
        <time>2025-03-30T09:22:38Z</time>
      </trkpt>
      <trkpt lat="43.95139" lon="0.09233">
        <ele>163.5</ele>
        <time>2025-03-30T09:22:39Z</time>
      </trkpt>
      <trkpt lat="43.95138" lon="0.09233">
        <ele>163.5</ele>
        <time>2025-03-30T09:22:40Z</time>
      </trkpt>
      <trkpt lat="43.95136" lon="0.09232">
        <ele>163.4</ele>
        <time>2025-03-30T09:22:41Z</time>
      </trkpt>
      <trkpt lat="43.95135" lon="0.09232">
        <ele>163.3</ele>
        <time>2025-03-30T09:22:42Z</time>
      </trkpt>
      <trkpt lat="43.95133" lon="0.09231">
        <ele>163.2</ele>
        <time>2025-03-30T09:22:43Z</time>
      </trkpt>
      <trkpt lat="43.95131" lon="0.0923">
        <ele>163.1</ele>
        <time>2025-03-30T09:22:44Z</time>
      </trkpt>
      <trkpt lat="43.9513" lon="0.0923">
        <ele>163</ele>
        <time>2025-03-30T09:22:45Z</time>
      </trkpt>
      <trkpt lat="43.95129" lon="0.0923">
        <ele>163</ele>
        <time>2025-03-30T09:22:46Z</time>
      </trkpt>
      <trkpt lat="43.95125" lon="0.09229">
        <ele>162.8</ele>
        <time>2025-03-30T09:22:48Z</time>
      </trkpt>
      <trkpt lat="43.95124" lon="0.09229">
        <ele>162.7</ele>
        <time>2025-03-30T09:22:49Z</time>
      </trkpt>
      <trkpt lat="43.95123" lon="0.09228">
        <ele>162.7</ele>
        <time>2025-03-30T09:22:50Z</time>
      </trkpt>
      <trkpt lat="43.95122" lon="0.09228">
        <ele>162.6</ele>
        <time>2025-03-30T09:22:51Z</time>
      </trkpt>
      <trkpt lat="43.9512" lon="0.09227">
        <ele>162.5</ele>
        <time>2025-03-30T09:22:52Z</time>
      </trkpt>
      <trkpt lat="43.95119" lon="0.09226">
        <ele>162.5</ele>
        <time>2025-03-30T09:22:53Z</time>
      </trkpt>
      <trkpt lat="43.95119" lon="0.09226">
        <ele>162.4</ele>
        <time>2025-03-30T09:22:54Z</time>
      </trkpt>
      <trkpt lat="43.95117" lon="0.09225">
        <ele>162.4</ele>
        <time>2025-03-30T09:22:55Z</time>
      </trkpt>
      <trkpt lat="43.95116" lon="0.09224">
        <ele>162.3</ele>
        <time>2025-03-30T09:22:56Z</time>
      </trkpt>
      <trkpt lat="43.95115" lon="0.09223">
        <ele>162.2</ele>
        <time>2025-03-30T09:22:57Z</time>
      </trkpt>
      <trkpt lat="43.95114" lon="0.09222">
        <ele>162.2</ele>
        <time>2025-03-30T09:22:58Z</time>
      </trkpt>
      <trkpt lat="43.95112" lon="0.09223">
        <ele>162.1</ele>
        <time>2025-03-30T09:22:59Z</time>
      </trkpt>
      <trkpt lat="43.95112" lon="0.09225">
        <ele>162</ele>
        <time>2025-03-30T09:23:00Z</time>
      </trkpt>
      <trkpt lat="43.95112" lon="0.09227">
        <ele>162</ele>
        <time>2025-03-30T09:23:01Z</time>
      </trkpt>
      <trkpt lat="43.95111" lon="0.09227">
        <ele>162</ele>
        <time>2025-03-30T09:23:02Z</time>
      </trkpt>
      <trkpt lat="43.95109" lon="0.09225">
        <ele>161.9</ele>
        <time>2025-03-30T09:23:03Z</time>
      </trkpt>
      <trkpt lat="43.95108" lon="0.09221">
        <ele>161.9</ele>
        <time>2025-03-30T09:23:04Z</time>
      </trkpt>
      <trkpt lat="43.95107" lon="0.0922">
        <ele>161.9</ele>
        <time>2025-03-30T09:23:05Z</time>
      </trkpt>
      <trkpt lat="43.95107" lon="0.09219">
        <ele>161.9</ele>
        <time>2025-03-30T09:23:06Z</time>
      </trkpt>
      <trkpt lat="43.95107" lon="0.09219">
        <ele>161.9</ele>
        <time>2025-03-30T09:23:07Z</time>
      </trkpt>
      <trkpt lat="43.95107" lon="0.09218">
        <ele>161.9</ele>
        <time>2025-03-30T09:23:08Z</time>
      </trkpt>
      <trkpt lat="43.95106" lon="0.09218">
        <ele>161.9</ele>
        <time>2025-03-30T09:23:09Z</time>
      </trkpt>
      <trkpt lat="43.95105" lon="0.09215">
        <ele>161.9</ele>
        <time>2025-03-30T09:23:11Z</time>
      </trkpt>
      <trkpt lat="43.95104" lon="0.09214">
        <ele>161.9</ele>
        <time>2025-03-30T09:23:12Z</time>
      </trkpt>
      <trkpt lat="43.95104" lon="0.09213">
        <ele>161.9</ele>
        <time>2025-03-30T09:23:13Z</time>
      </trkpt>
      <trkpt lat="43.95103" lon="0.09213">
        <ele>161.9</ele>
        <time>2025-03-30T09:23:14Z</time>
      </trkpt>
      <trkpt lat="43.95103" lon="0.09213">
        <ele>161.9</ele>
        <time>2025-03-30T09:23:15Z</time>
      </trkpt>
      <trkpt lat="43.95103" lon="0.09213">
        <ele>161.9</ele>
        <time>2025-03-30T09:23:16Z</time>
      </trkpt>
      <trkpt lat="43.95102" lon="0.09213">
        <ele>161.9</ele>
        <time>2025-03-30T09:23:17Z</time>
      </trkpt>
      <trkpt lat="43.95102" lon="0.09212">
        <ele>161.9</ele>
        <time>2025-03-30T09:23:18Z</time>
      </trkpt>
      <trkpt lat="43.95101" lon="0.09212">
        <ele>161.9</ele>
        <time>2025-03-30T09:23:19Z</time>
      </trkpt>
      <trkpt lat="43.951" lon="0.09211">
        <ele>161.9</ele>
        <time>2025-03-30T09:23:20Z</time>
      </trkpt>
      <trkpt lat="43.95099" lon="0.0921">
        <ele>162</ele>
        <time>2025-03-30T09:23:21Z</time>
      </trkpt>
      <trkpt lat="43.95097" lon="0.0921">
        <ele>162</ele>
        <time>2025-03-30T09:23:22Z</time>
      </trkpt>
      <trkpt lat="43.95096" lon="0.09209">
        <ele>162</ele>
        <time>2025-03-30T09:23:23Z</time>
      </trkpt>
      <trkpt lat="43.95095" lon="0.09208">
        <ele>162</ele>
        <time>2025-03-30T09:23:24Z</time>
      </trkpt>
      <trkpt lat="43.95094" lon="0.09208">
        <ele>162</ele>
        <time>2025-03-30T09:23:25Z</time>
      </trkpt>
      <trkpt lat="43.95094" lon="0.09208">
        <ele>162</ele>
        <time>2025-03-30T09:23:26Z</time>
      </trkpt>
      <trkpt lat="43.95093" lon="0.09207">
        <ele>162.1</ele>
        <time>2025-03-30T09:23:27Z</time>
      </trkpt>
      <trkpt lat="43.9509" lon="0.09208">
        <ele>162.1</ele>
        <time>2025-03-30T09:23:28Z</time>
      </trkpt>
      <trkpt lat="43.95089" lon="0.09208">
        <ele>162.1</ele>
        <time>2025-03-30T09:23:29Z</time>
      </trkpt>
      <trkpt lat="43.95086" lon="0.09207">
        <ele>162.2</ele>
        <time>2025-03-30T09:23:30Z</time>
      </trkpt>
      <trkpt lat="43.95085" lon="0.09206">
        <ele>162.2</ele>
        <time>2025-03-30T09:23:31Z</time>
      </trkpt>
      <trkpt lat="43.95083" lon="0.09206">
        <ele>162.2</ele>
        <time>2025-03-30T09:23:32Z</time>
      </trkpt>
      <trkpt lat="43.95081" lon="0.09205">
        <ele>162.3</ele>
        <time>2025-03-30T09:23:33Z</time>
      </trkpt>
      <trkpt lat="43.95079" lon="0.09205">
        <ele>162.3</ele>
        <time>2025-03-30T09:23:34Z</time>
      </trkpt>
      <trkpt lat="43.95078" lon="0.09204">
        <ele>162.4</ele>
        <time>2025-03-30T09:23:35Z</time>
      </trkpt>
      <trkpt lat="43.95076" lon="0.09203">
        <ele>162.4</ele>
        <time>2025-03-30T09:23:36Z</time>
      </trkpt>
      <trkpt lat="43.95075" lon="0.09203">
        <ele>162.5</ele>
        <time>2025-03-30T09:23:37Z</time>
      </trkpt>
      <trkpt lat="43.95072" lon="0.09201">
        <ele>162.6</ele>
        <time>2025-03-30T09:23:39Z</time>
      </trkpt>
      <trkpt lat="43.9507" lon="0.092">
        <ele>162.7</ele>
        <time>2025-03-30T09:23:40Z</time>
      </trkpt>
      <trkpt lat="43.95069" lon="0.09199">
        <ele>162.7</ele>
        <time>2025-03-30T09:23:41Z</time>
      </trkpt>
      <trkpt lat="43.95068" lon="0.09198">
        <ele>162.8</ele>
        <time>2025-03-30T09:23:42Z</time>
      </trkpt>
      <trkpt lat="43.95067" lon="0.09196">
        <ele>162.8</ele>
        <time>2025-03-30T09:23:43Z</time>
      </trkpt>
      <trkpt lat="43.95066" lon="0.09196">
        <ele>162.8</ele>
        <time>2025-03-30T09:23:44Z</time>
      </trkpt>
      <trkpt lat="43.95065" lon="0.09196">
        <ele>162.9</ele>
        <time>2025-03-30T09:23:45Z</time>
      </trkpt>
      <trkpt lat="43.95065" lon="0.09196">
        <ele>162.9</ele>
        <time>2025-03-30T09:23:46Z</time>
      </trkpt>
      <trkpt lat="43.95063" lon="0.09197">
        <ele>162.9</ele>
        <time>2025-03-30T09:23:47Z</time>
      </trkpt>
      <trkpt lat="43.95061" lon="0.09197">
        <ele>163</ele>
        <time>2025-03-30T09:23:48Z</time>
      </trkpt>
      <trkpt lat="43.9506" lon="0.09196">
        <ele>163</ele>
        <time>2025-03-30T09:23:49Z</time>
      </trkpt>
      <trkpt lat="43.95059" lon="0.09196">
        <ele>163.1</ele>
        <time>2025-03-30T09:23:50Z</time>
      </trkpt>
      <trkpt lat="43.95058" lon="0.09196">
        <ele>163.1</ele>
        <time>2025-03-30T09:23:51Z</time>
      </trkpt>
      <trkpt lat="43.95056" lon="0.09195">
        <ele>163.1</ele>
        <time>2025-03-30T09:23:52Z</time>
      </trkpt>
      <trkpt lat="43.95055" lon="0.09195">
        <ele>163.2</ele>
        <time>2025-03-30T09:23:53Z</time>
      </trkpt>
      <trkpt lat="43.95054" lon="0.09194">
        <ele>163.2</ele>
        <time>2025-03-30T09:23:54Z</time>
      </trkpt>
      <trkpt lat="43.95052" lon="0.09194">
        <ele>163.2</ele>
        <time>2025-03-30T09:23:55Z</time>
      </trkpt>
      <trkpt lat="43.95051" lon="0.09193">
        <ele>163.2</ele>
        <time>2025-03-30T09:23:56Z</time>
      </trkpt>
      <trkpt lat="43.9505" lon="0.09193">
        <ele>163.2</ele>
        <time>2025-03-30T09:23:57Z</time>
      </trkpt>
      <trkpt lat="43.95048" lon="0.09193">
        <ele>163.2</ele>
        <time>2025-03-30T09:23:58Z</time>
      </trkpt>
      <trkpt lat="43.95048" lon="0.09193">
        <ele>163.3</ele>
        <time>2025-03-30T09:23:59Z</time>
      </trkpt>
      <trkpt lat="43.95047" lon="0.09193">
        <ele>163.3</ele>
        <time>2025-03-30T09:24:00Z</time>
      </trkpt>
      <trkpt lat="43.95044" lon="0.09192">
        <ele>163.3</ele>
        <time>2025-03-30T09:24:01Z</time>
      </trkpt>
      <trkpt lat="43.95043" lon="0.09192">
        <ele>163.3</ele>
        <time>2025-03-30T09:24:02Z</time>
      </trkpt>
      <trkpt lat="43.95042" lon="0.09192">
        <ele>163.3</ele>
        <time>2025-03-30T09:24:03Z</time>
      </trkpt>
      <trkpt lat="43.9504" lon="0.09192">
        <ele>163.2</ele>
        <time>2025-03-30T09:24:04Z</time>
      </trkpt>
      <trkpt lat="43.95039" lon="0.09193">
        <ele>163.2</ele>
        <time>2025-03-30T09:24:05Z</time>
      </trkpt>
      <trkpt lat="43.95039" lon="0.09193">
        <ele>163.2</ele>
        <time>2025-03-30T09:24:06Z</time>
      </trkpt>
      <trkpt lat="43.95038" lon="0.09194">
        <ele>163.1</ele>
        <time>2025-03-30T09:24:07Z</time>
      </trkpt>
      <trkpt lat="43.95036" lon="0.09195">
        <ele>163</ele>
        <time>2025-03-30T09:24:08Z</time>
      </trkpt>
      <trkpt lat="43.95036" lon="0.09195">
        <ele>163</ele>
        <time>2025-03-30T09:24:09Z</time>
      </trkpt>
      <trkpt lat="43.95035" lon="0.09196">
        <ele>163</ele>
        <time>2025-03-30T09:24:10Z</time>
      </trkpt>
      <trkpt lat="43.95034" lon="0.09198">
        <ele>162.9</ele>
        <time>2025-03-30T09:24:11Z</time>
      </trkpt>
      <trkpt lat="43.95033" lon="0.09199">
        <ele>162.8</ele>
        <time>2025-03-30T09:24:12Z</time>
      </trkpt>
      <trkpt lat="43.95032" lon="0.092">
        <ele>162.8</ele>
        <time>2025-03-30T09:24:13Z</time>
      </trkpt>
      <trkpt lat="43.95032" lon="0.092">
        <ele>162.8</ele>
        <time>2025-03-30T09:24:14Z</time>
      </trkpt>
      <trkpt lat="43.95031" lon="0.09202">
        <ele>162.7</ele>
        <time>2025-03-30T09:24:15Z</time>
      </trkpt>
      <trkpt lat="43.9503" lon="0.09205">
        <ele>162.6</ele>
        <time>2025-03-30T09:24:16Z</time>
      </trkpt>
      <trkpt lat="43.95028" lon="0.09208">
        <ele>162.4</ele>
        <time>2025-03-30T09:24:17Z</time>
      </trkpt>
      <trkpt lat="43.95028" lon="0.09209">
        <ele>162.4</ele>
        <time>2025-03-30T09:24:18Z</time>
      </trkpt>
      <trkpt lat="43.95027" lon="0.09211">
        <ele>162.2</ele>
        <time>2025-03-30T09:24:19Z</time>
      </trkpt>
      <trkpt lat="43.95026" lon="0.09212">
        <ele>162.2</ele>
        <time>2025-03-30T09:24:20Z</time>
      </trkpt>
      <trkpt lat="43.95025" lon="0.09213">
        <ele>162.1</ele>
        <time>2025-03-30T09:24:21Z</time>
      </trkpt>
      <trkpt lat="43.95024" lon="0.09214">
        <ele>162</ele>
        <time>2025-03-30T09:24:22Z</time>
      </trkpt>
      <trkpt lat="43.95023" lon="0.09216">
        <ele>162</ele>
        <time>2025-03-30T09:24:23Z</time>
      </trkpt>
      <trkpt lat="43.95022" lon="0.09218">
        <ele>161.8</ele>
        <time>2025-03-30T09:24:24Z</time>
      </trkpt>
      <trkpt lat="43.95021" lon="0.09219">
        <ele>161.8</ele>
        <time>2025-03-30T09:24:25Z</time>
      </trkpt>
      <trkpt lat="43.95021" lon="0.0922">
        <ele>161.7</ele>
        <time>2025-03-30T09:24:26Z</time>
      </trkpt>
      <trkpt lat="43.9502" lon="0.09222">
        <ele>161.7</ele>
        <time>2025-03-30T09:24:27Z</time>
      </trkpt>
      <trkpt lat="43.95019" lon="0.09224">
        <ele>161.6</ele>
        <time>2025-03-30T09:24:28Z</time>
      </trkpt>
      <trkpt lat="43.95017" lon="0.09226">
        <ele>161.5</ele>
        <time>2025-03-30T09:24:29Z</time>
      </trkpt>
      <trkpt lat="43.95017" lon="0.09226">
        <ele>161.5</ele>
        <time>2025-03-30T09:24:30Z</time>
      </trkpt>
      <trkpt lat="43.95016" lon="0.09227">
        <ele>161.4</ele>
        <time>2025-03-30T09:24:31Z</time>
      </trkpt>
      <trkpt lat="43.95015" lon="0.09228">
        <ele>161.4</ele>
        <time>2025-03-30T09:24:32Z</time>
      </trkpt>
      <trkpt lat="43.95014" lon="0.09229">
        <ele>161.3</ele>
        <time>2025-03-30T09:24:33Z</time>
      </trkpt>
      <trkpt lat="43.95013" lon="0.09231">
        <ele>161.3</ele>
        <time>2025-03-30T09:24:34Z</time>
      </trkpt>
      <trkpt lat="43.95011" lon="0.09231">
        <ele>161.2</ele>
        <time>2025-03-30T09:24:35Z</time>
      </trkpt>
      <trkpt lat="43.95009" lon="0.09232">
        <ele>161.1</ele>
        <time>2025-03-30T09:24:36Z</time>
      </trkpt>
      <trkpt lat="43.95008" lon="0.09233">
        <ele>161.1</ele>
        <time>2025-03-30T09:24:37Z</time>
      </trkpt>
      <trkpt lat="43.95007" lon="0.09233">
        <ele>161.1</ele>
        <time>2025-03-30T09:24:38Z</time>
      </trkpt>
      <trkpt lat="43.95006" lon="0.09233">
        <ele>161</ele>
        <time>2025-03-30T09:24:39Z</time>
      </trkpt>
      <trkpt lat="43.95005" lon="0.09234">
        <ele>161</ele>
        <time>2025-03-30T09:24:40Z</time>
      </trkpt>
      <trkpt lat="43.95003" lon="0.09235">
        <ele>160.9</ele>
        <time>2025-03-30T09:24:41Z</time>
      </trkpt>
      <trkpt lat="43.95002" lon="0.09235">
        <ele>160.9</ele>
        <time>2025-03-30T09:24:42Z</time>
      </trkpt>
      <trkpt lat="43.95001" lon="0.09235">
        <ele>160.9</ele>
        <time>2025-03-30T09:24:43Z</time>
      </trkpt>
      <trkpt lat="43.94999" lon="0.09235">
        <ele>160.8</ele>
        <time>2025-03-30T09:24:44Z</time>
      </trkpt>
      <trkpt lat="43.94998" lon="0.09235">
        <ele>160.8</ele>
        <time>2025-03-30T09:24:45Z</time>
      </trkpt>
      <trkpt lat="43.94996" lon="0.09235">
        <ele>160.7</ele>
        <time>2025-03-30T09:24:46Z</time>
      </trkpt>
      <trkpt lat="43.94995" lon="0.09235">
        <ele>160.7</ele>
        <time>2025-03-30T09:24:47Z</time>
      </trkpt>
      <trkpt lat="43.94994" lon="0.09235">
        <ele>160.6</ele>
        <time>2025-03-30T09:24:48Z</time>
      </trkpt>
      <trkpt lat="43.94993" lon="0.09234">
        <ele>160.6</ele>
        <time>2025-03-30T09:24:49Z</time>
      </trkpt>
      <trkpt lat="43.94992" lon="0.09233">
        <ele>160.6</ele>
        <time>2025-03-30T09:24:50Z</time>
      </trkpt>
      <trkpt lat="43.9499" lon="0.09232">
        <ele>160.5</ele>
        <time>2025-03-30T09:24:51Z</time>
      </trkpt>
      <trkpt lat="43.94989" lon="0.09231">
        <ele>160.5</ele>
        <time>2025-03-30T09:24:52Z</time>
      </trkpt>
      <trkpt lat="43.94988" lon="0.0923">
        <ele>160.5</ele>
        <time>2025-03-30T09:24:53Z</time>
      </trkpt>
      <trkpt lat="43.94985" lon="0.09226">
        <ele>160.3</ele>
        <time>2025-03-30T09:24:55Z</time>
      </trkpt>
      <trkpt lat="43.94984" lon="0.09225">
        <ele>160.3</ele>
        <time>2025-03-30T09:24:56Z</time>
      </trkpt>
      <trkpt lat="43.94984" lon="0.09225">
        <ele>160.3</ele>
        <time>2025-03-30T09:24:57Z</time>
      </trkpt>
      <trkpt lat="43.94983" lon="0.09224">
        <ele>160.3</ele>
        <time>2025-03-30T09:24:58Z</time>
      </trkpt>
      <trkpt lat="43.94982" lon="0.09223">
        <ele>160.2</ele>
        <time>2025-03-30T09:24:59Z</time>
      </trkpt>
      <trkpt lat="43.94981" lon="0.09223">
        <ele>160.2</ele>
        <time>2025-03-30T09:25:00Z</time>
      </trkpt>
      <trkpt lat="43.9498" lon="0.09222">
        <ele>160.2</ele>
        <time>2025-03-30T09:25:01Z</time>
      </trkpt>
      <trkpt lat="43.94978" lon="0.09221">
        <ele>160.1</ele>
        <time>2025-03-30T09:25:02Z</time>
      </trkpt>
      <trkpt lat="43.94977" lon="0.0922">
        <ele>160.1</ele>
        <time>2025-03-30T09:25:03Z</time>
      </trkpt>
      <trkpt lat="43.94975" lon="0.0922">
        <ele>160.1</ele>
        <time>2025-03-30T09:25:04Z</time>
      </trkpt>
      <trkpt lat="43.94974" lon="0.09219">
        <ele>160</ele>
        <time>2025-03-30T09:25:05Z</time>
      </trkpt>
      <trkpt lat="43.94973" lon="0.09218">
        <ele>160</ele>
        <time>2025-03-30T09:25:06Z</time>
      </trkpt>
      <trkpt lat="43.94972" lon="0.09217">
        <ele>160</ele>
        <time>2025-03-30T09:25:07Z</time>
      </trkpt>
      <trkpt lat="43.94971" lon="0.09216">
        <ele>160</ele>
        <time>2025-03-30T09:25:08Z</time>
      </trkpt>
      <trkpt lat="43.9497" lon="0.09215">
        <ele>160</ele>
        <time>2025-03-30T09:25:09Z</time>
      </trkpt>
      <trkpt lat="43.9497" lon="0.09214">
        <ele>160</ele>
        <time>2025-03-30T09:25:10Z</time>
      </trkpt>
      <trkpt lat="43.94969" lon="0.09213">
        <ele>159.9</ele>
        <time>2025-03-30T09:25:11Z</time>
      </trkpt>
      <trkpt lat="43.94967" lon="0.09213">
        <ele>159.9</ele>
        <time>2025-03-30T09:25:12Z</time>
      </trkpt>
      <trkpt lat="43.94965" lon="0.09214">
        <ele>159.9</ele>
        <time>2025-03-30T09:25:13Z</time>
      </trkpt>
      <trkpt lat="43.94964" lon="0.09214">
        <ele>159.9</ele>
        <time>2025-03-30T09:25:14Z</time>
      </trkpt>
      <trkpt lat="43.94962" lon="0.09216">
        <ele>159.9</ele>
        <time>2025-03-30T09:25:15Z</time>
      </trkpt>
      <trkpt lat="43.94961" lon="0.09217">
        <ele>159.9</ele>
        <time>2025-03-30T09:25:16Z</time>
      </trkpt>
      <trkpt lat="43.94959" lon="0.09217">
        <ele>159.9</ele>
        <time>2025-03-30T09:25:17Z</time>
      </trkpt>
      <trkpt lat="43.94958" lon="0.09218">
        <ele>159.9</ele>
        <time>2025-03-30T09:25:18Z</time>
      </trkpt>
      <trkpt lat="43.94957" lon="0.09219">
        <ele>159.9</ele>
        <time>2025-03-30T09:25:19Z</time>
      </trkpt>
      <trkpt lat="43.94955" lon="0.0922">
        <ele>159.9</ele>
        <time>2025-03-30T09:25:20Z</time>
      </trkpt>
      <trkpt lat="43.94954" lon="0.09221">
        <ele>159.9</ele>
        <time>2025-03-30T09:25:21Z</time>
      </trkpt>
      <trkpt lat="43.94953" lon="0.09222">
        <ele>159.9</ele>
        <time>2025-03-30T09:25:22Z</time>
      </trkpt>
      <trkpt lat="43.94952" lon="0.09223">
        <ele>159.9</ele>
        <time>2025-03-30T09:25:23Z</time>
      </trkpt>
      <trkpt lat="43.94951" lon="0.09225">
        <ele>159.9</ele>
        <time>2025-03-30T09:25:24Z</time>
      </trkpt>
      <trkpt lat="43.94949" lon="0.09226">
        <ele>159.9</ele>
        <time>2025-03-30T09:25:25Z</time>
      </trkpt>
      <trkpt lat="43.94948" lon="0.09227">
        <ele>159.9</ele>
        <time>2025-03-30T09:25:26Z</time>
      </trkpt>
      <trkpt lat="43.94948" lon="0.09228">
        <ele>159.9</ele>
        <time>2025-03-30T09:25:27Z</time>
      </trkpt>
      <trkpt lat="43.94947" lon="0.0923">
        <ele>159.9</ele>
        <time>2025-03-30T09:25:28Z</time>
      </trkpt>
      <trkpt lat="43.94946" lon="0.09231">
        <ele>159.9</ele>
        <time>2025-03-30T09:25:29Z</time>
      </trkpt>
      <trkpt lat="43.94945" lon="0.09232">
        <ele>160</ele>
        <time>2025-03-30T09:25:30Z</time>
      </trkpt>
      <trkpt lat="43.94944" lon="0.09233">
        <ele>160</ele>
        <time>2025-03-30T09:25:31Z</time>
      </trkpt>
      <trkpt lat="43.94942" lon="0.09234">
        <ele>160</ele>
        <time>2025-03-30T09:25:32Z</time>
      </trkpt>
      <trkpt lat="43.9494" lon="0.09234">
        <ele>160</ele>
        <time>2025-03-30T09:25:33Z</time>
      </trkpt>
      <trkpt lat="43.94937" lon="0.09236">
        <ele>160</ele>
        <time>2025-03-30T09:25:35Z</time>
      </trkpt>
      <trkpt lat="43.94936" lon="0.09236">
        <ele>160</ele>
        <time>2025-03-30T09:25:36Z</time>
      </trkpt>
      <trkpt lat="43.94935" lon="0.09237">
        <ele>160</ele>
        <time>2025-03-30T09:25:37Z</time>
      </trkpt>
      <trkpt lat="43.94934" lon="0.09237">
        <ele>160</ele>
        <time>2025-03-30T09:25:38Z</time>
      </trkpt>
      <trkpt lat="43.94932" lon="0.09238">
        <ele>160</ele>
        <time>2025-03-30T09:25:39Z</time>
      </trkpt>
      <trkpt lat="43.94931" lon="0.09239">
        <ele>160</ele>
        <time>2025-03-30T09:25:40Z</time>
      </trkpt>
      <trkpt lat="43.94929" lon="0.09239">
        <ele>160</ele>
        <time>2025-03-30T09:25:41Z</time>
      </trkpt>
      <trkpt lat="43.94928" lon="0.0924">
        <ele>160</ele>
        <time>2025-03-30T09:25:42Z</time>
      </trkpt>
      <trkpt lat="43.94927" lon="0.09241">
        <ele>160</ele>
        <time>2025-03-30T09:25:43Z</time>
      </trkpt>
      <trkpt lat="43.94927" lon="0.09243">
        <ele>160</ele>
        <time>2025-03-30T09:25:44Z</time>
      </trkpt>
      <trkpt lat="43.94926" lon="0.09244">
        <ele>160</ele>
        <time>2025-03-30T09:25:45Z</time>
      </trkpt>
      <trkpt lat="43.94923" lon="0.09243">
        <ele>160</ele>
        <time>2025-03-30T09:25:47Z</time>
      </trkpt>
      <trkpt lat="43.94922" lon="0.09243">
        <ele>159.9</ele>
        <time>2025-03-30T09:25:48Z</time>
      </trkpt>
      <trkpt lat="43.9492" lon="0.09243">
        <ele>159.9</ele>
        <time>2025-03-30T09:25:49Z</time>
      </trkpt>
      <trkpt lat="43.94919" lon="0.09243">
        <ele>159.9</ele>
        <time>2025-03-30T09:25:50Z</time>
      </trkpt>
      <trkpt lat="43.94918" lon="0.09244">
        <ele>159.9</ele>
        <time>2025-03-30T09:25:51Z</time>
      </trkpt>
      <trkpt lat="43.94916" lon="0.09244">
        <ele>159.9</ele>
        <time>2025-03-30T09:25:52Z</time>
      </trkpt>
      <trkpt lat="43.94915" lon="0.09245">
        <ele>159.8</ele>
        <time>2025-03-30T09:25:53Z</time>
      </trkpt>
      <trkpt lat="43.94913" lon="0.09245">
        <ele>159.8</ele>
        <time>2025-03-30T09:25:54Z</time>
      </trkpt>
      <trkpt lat="43.94912" lon="0.09245">
        <ele>159.8</ele>
        <time>2025-03-30T09:25:55Z</time>
      </trkpt>
      <trkpt lat="43.94911" lon="0.09246">
        <ele>159.8</ele>
        <time>2025-03-30T09:25:56Z</time>
      </trkpt>
      <trkpt lat="43.94909" lon="0.09246">
        <ele>159.8</ele>
        <time>2025-03-30T09:25:57Z</time>
      </trkpt>
      <trkpt lat="43.94908" lon="0.09246">
        <ele>159.7</ele>
        <time>2025-03-30T09:25:58Z</time>
      </trkpt>
      <trkpt lat="43.94907" lon="0.09246">
        <ele>159.7</ele>
        <time>2025-03-30T09:25:59Z</time>
      </trkpt>
      <trkpt lat="43.94905" lon="0.09247">
        <ele>159.7</ele>
        <time>2025-03-30T09:26:00Z</time>
      </trkpt>
      <trkpt lat="43.94903" lon="0.09247">
        <ele>159.7</ele>
        <time>2025-03-30T09:26:01Z</time>
      </trkpt>
      <trkpt lat="43.94902" lon="0.09247">
        <ele>159.7</ele>
        <time>2025-03-30T09:26:02Z</time>
      </trkpt>
      <trkpt lat="43.94901" lon="0.09247">
        <ele>159.6</ele>
        <time>2025-03-30T09:26:03Z</time>
      </trkpt>
      <trkpt lat="43.949" lon="0.09247">
        <ele>159.6</ele>
        <time>2025-03-30T09:26:04Z</time>
      </trkpt>
      <trkpt lat="43.94899" lon="0.09246">
        <ele>159.6</ele>
        <time>2025-03-30T09:26:05Z</time>
      </trkpt>
      <trkpt lat="43.94897" lon="0.09246">
        <ele>159.6</ele>
        <time>2025-03-30T09:26:06Z</time>
      </trkpt>
      <trkpt lat="43.94896" lon="0.09245">
        <ele>159.6</ele>
        <time>2025-03-30T09:26:07Z</time>
      </trkpt>
      <trkpt lat="43.94895" lon="0.09245">
        <ele>159.5</ele>
        <time>2025-03-30T09:26:08Z</time>
      </trkpt>
      <trkpt lat="43.94893" lon="0.09245">
        <ele>159.5</ele>
        <time>2025-03-30T09:26:09Z</time>
      </trkpt>
      <trkpt lat="43.94892" lon="0.09245">
        <ele>159.5</ele>
        <time>2025-03-30T09:26:10Z</time>
      </trkpt>
      <trkpt lat="43.9489" lon="0.09244">
        <ele>159.5</ele>
        <time>2025-03-30T09:26:11Z</time>
      </trkpt>
      <trkpt lat="43.94889" lon="0.09244">
        <ele>159.5</ele>
        <time>2025-03-30T09:26:12Z</time>
      </trkpt>
      <trkpt lat="43.94888" lon="0.09244">
        <ele>159.4</ele>
        <time>2025-03-30T09:26:13Z</time>
      </trkpt>
      <trkpt lat="43.94885" lon="0.09243">
        <ele>159.4</ele>
        <time>2025-03-30T09:26:15Z</time>
      </trkpt>
      <trkpt lat="43.94884" lon="0.09243">
        <ele>159.4</ele>
        <time>2025-03-30T09:26:16Z</time>
      </trkpt>
      <trkpt lat="43.94882" lon="0.09242">
        <ele>159.3</ele>
        <time>2025-03-30T09:26:18Z</time>
      </trkpt>
      <trkpt lat="43.9488" lon="0.09241">
        <ele>159.3</ele>
        <time>2025-03-30T09:26:19Z</time>
      </trkpt>
      <trkpt lat="43.94878" lon="0.0924">
        <ele>159.3</ele>
        <time>2025-03-30T09:26:21Z</time>
      </trkpt>
      <trkpt lat="43.94877" lon="0.09239">
        <ele>159.3</ele>
        <time>2025-03-30T09:26:22Z</time>
      </trkpt>
      <trkpt lat="43.94875" lon="0.09237">
        <ele>159.2</ele>
        <time>2025-03-30T09:26:23Z</time>
      </trkpt>
      <trkpt lat="43.94874" lon="0.09236">
        <ele>159.2</ele>
        <time>2025-03-30T09:26:24Z</time>
      </trkpt>
      <trkpt lat="43.94873" lon="0.09235">
        <ele>159.2</ele>
        <time>2025-03-30T09:26:25Z</time>
      </trkpt>
      <trkpt lat="43.94872" lon="0.09232">
        <ele>159.2</ele>
        <time>2025-03-30T09:26:26Z</time>
      </trkpt>
      <trkpt lat="43.94872" lon="0.09231">
        <ele>159.2</ele>
        <time>2025-03-30T09:26:27Z</time>
      </trkpt>
      <trkpt lat="43.94872" lon="0.0923">
        <ele>159.2</ele>
        <time>2025-03-30T09:26:28Z</time>
      </trkpt>
      <trkpt lat="43.94871" lon="0.09229">
        <ele>159.1</ele>
        <time>2025-03-30T09:26:29Z</time>
      </trkpt>
      <trkpt lat="43.94871" lon="0.09227">
        <ele>159.1</ele>
        <time>2025-03-30T09:26:30Z</time>
      </trkpt>
      <trkpt lat="43.94871" lon="0.09226">
        <ele>159.1</ele>
        <time>2025-03-30T09:26:31Z</time>
      </trkpt>
      <trkpt lat="43.94872" lon="0.09226">
        <ele>159.1</ele>
        <time>2025-03-30T09:26:32Z</time>
      </trkpt>
      <trkpt lat="43.94872" lon="0.09225">
        <ele>159.1</ele>
        <time>2025-03-30T09:26:34Z</time>
      </trkpt>
      <trkpt lat="43.94871" lon="0.09223">
        <ele>159.1</ele>
        <time>2025-03-30T09:26:35Z</time>
      </trkpt>
      <trkpt lat="43.94869" lon="0.09223">
        <ele>159.2</ele>
        <time>2025-03-30T09:26:36Z</time>
      </trkpt>
      <trkpt lat="43.94867" lon="0.09222">
        <ele>159.3</ele>
        <time>2025-03-30T09:26:37Z</time>
      </trkpt>
      <trkpt lat="43.94866" lon="0.09222">
        <ele>159.3</ele>
        <time>2025-03-30T09:26:38Z</time>
      </trkpt>
      <trkpt lat="43.94865" lon="0.09223">
        <ele>159.4</ele>
        <time>2025-03-30T09:26:39Z</time>
      </trkpt>
      <trkpt lat="43.94863" lon="0.09223">
        <ele>159.5</ele>
        <time>2025-03-30T09:26:40Z</time>
      </trkpt>
      <trkpt lat="43.94862" lon="0.09223">
        <ele>159.5</ele>
        <time>2025-03-30T09:26:41Z</time>
      </trkpt>
      <trkpt lat="43.94861" lon="0.09222">
        <ele>159.6</ele>
        <time>2025-03-30T09:26:42Z</time>
      </trkpt>
      <trkpt lat="43.94859" lon="0.09222">
        <ele>159.7</ele>
        <time>2025-03-30T09:26:43Z</time>
      </trkpt>
      <trkpt lat="43.94857" lon="0.09221">
        <ele>159.8</ele>
        <time>2025-03-30T09:26:44Z</time>
      </trkpt>
      <trkpt lat="43.94856" lon="0.0922">
        <ele>159.8</ele>
        <time>2025-03-30T09:26:45Z</time>
      </trkpt>
      <trkpt lat="43.94855" lon="0.0922">
        <ele>159.9</ele>
        <time>2025-03-30T09:26:46Z</time>
      </trkpt>
      <trkpt lat="43.94854" lon="0.09219">
        <ele>159.9</ele>
        <time>2025-03-30T09:26:47Z</time>
      </trkpt>
      <trkpt lat="43.94852" lon="0.09218">
        <ele>160</ele>
        <time>2025-03-30T09:26:48Z</time>
      </trkpt>
      <trkpt lat="43.9485" lon="0.09217">
        <ele>160.1</ele>
        <time>2025-03-30T09:26:49Z</time>
      </trkpt>
      <trkpt lat="43.9485" lon="0.09217">
        <ele>160.1</ele>
        <time>2025-03-30T09:26:50Z</time>
      </trkpt>
      <trkpt lat="43.94849" lon="0.09216">
        <ele>160.2</ele>
        <time>2025-03-30T09:26:51Z</time>
      </trkpt>
      <trkpt lat="43.94848" lon="0.09215">
        <ele>160.2</ele>
        <time>2025-03-30T09:26:52Z</time>
      </trkpt>
      <trkpt lat="43.94846" lon="0.09215">
        <ele>160.3</ele>
        <time>2025-03-30T09:26:53Z</time>
      </trkpt>
      <trkpt lat="43.94845" lon="0.09214">
        <ele>160.3</ele>
        <time>2025-03-30T09:26:54Z</time>
      </trkpt>
      <trkpt lat="43.94844" lon="0.09213">
        <ele>160.4</ele>
        <time>2025-03-30T09:26:55Z</time>
      </trkpt>
      <trkpt lat="43.94842" lon="0.09213">
        <ele>160.4</ele>
        <time>2025-03-30T09:26:56Z</time>
      </trkpt>
      <trkpt lat="43.94841" lon="0.09212">
        <ele>160.5</ele>
        <time>2025-03-30T09:26:57Z</time>
      </trkpt>
      <trkpt lat="43.94839" lon="0.09212">
        <ele>160.6</ele>
        <time>2025-03-30T09:26:58Z</time>
      </trkpt>
      <trkpt lat="43.94838" lon="0.09211">
        <ele>160.6</ele>
        <time>2025-03-30T09:26:59Z</time>
      </trkpt>
      <trkpt lat="43.94836" lon="0.09209">
        <ele>160.7</ele>
        <time>2025-03-30T09:27:00Z</time>
      </trkpt>
      <trkpt lat="43.94835" lon="0.09209">
        <ele>160.7</ele>
        <time>2025-03-30T09:27:01Z</time>
      </trkpt>
      <trkpt lat="43.94835" lon="0.09208">
        <ele>160.7</ele>
        <time>2025-03-30T09:27:02Z</time>
      </trkpt>
      <trkpt lat="43.94834" lon="0.09209">
        <ele>160.8</ele>
        <time>2025-03-30T09:27:03Z</time>
      </trkpt>
      <trkpt lat="43.94834" lon="0.0921">
        <ele>160.8</ele>
        <time>2025-03-30T09:27:04Z</time>
      </trkpt>
      <trkpt lat="43.94833" lon="0.0921">
        <ele>160.8</ele>
        <time>2025-03-30T09:27:05Z</time>
      </trkpt>
      <trkpt lat="43.94832" lon="0.09209">
        <ele>160.9</ele>
        <time>2025-03-30T09:27:06Z</time>
      </trkpt>
      <trkpt lat="43.9483" lon="0.0921">
        <ele>160.9</ele>
        <time>2025-03-30T09:27:07Z</time>
      </trkpt>
      <trkpt lat="43.94828" lon="0.09209">
        <ele>161</ele>
        <time>2025-03-30T09:27:08Z</time>
      </trkpt>
      <trkpt lat="43.94826" lon="0.09206">
        <ele>161.1</ele>
        <time>2025-03-30T09:27:09Z</time>
      </trkpt>
      <trkpt lat="43.94825" lon="0.09206">
        <ele>161.1</ele>
        <time>2025-03-30T09:27:10Z</time>
      </trkpt>
      <trkpt lat="43.94822" lon="0.09203">
        <ele>161.2</ele>
        <time>2025-03-30T09:27:11Z</time>
      </trkpt>
      <trkpt lat="43.94821" lon="0.09202">
        <ele>161.2</ele>
        <time>2025-03-30T09:27:12Z</time>
      </trkpt>
      <trkpt lat="43.94818" lon="0.092">
        <ele>161.3</ele>
        <time>2025-03-30T09:27:13Z</time>
      </trkpt>
      <trkpt lat="43.94817" lon="0.09199">
        <ele>161.3</ele>
        <time>2025-03-30T09:27:14Z</time>
      </trkpt>
      <trkpt lat="43.94816" lon="0.09198">
        <ele>161.4</ele>
        <time>2025-03-30T09:27:15Z</time>
      </trkpt>
      <trkpt lat="43.94814" lon="0.09197">
        <ele>161.4</ele>
        <time>2025-03-30T09:27:16Z</time>
      </trkpt>
      <trkpt lat="43.94813" lon="0.09196">
        <ele>161.4</ele>
        <time>2025-03-30T09:27:17Z</time>
      </trkpt>
      <trkpt lat="43.94812" lon="0.09196">
        <ele>161.5</ele>
        <time>2025-03-30T09:27:18Z</time>
      </trkpt>
      <trkpt lat="43.9481" lon="0.09195">
        <ele>161.5</ele>
        <time>2025-03-30T09:27:19Z</time>
      </trkpt>
      <trkpt lat="43.94809" lon="0.09194">
        <ele>161.6</ele>
        <time>2025-03-30T09:27:20Z</time>
      </trkpt>
      <trkpt lat="43.94808" lon="0.09193">
        <ele>161.6</ele>
        <time>2025-03-30T09:27:21Z</time>
      </trkpt>
      <trkpt lat="43.94806" lon="0.09193">
        <ele>161.7</ele>
        <time>2025-03-30T09:27:22Z</time>
      </trkpt>
      <trkpt lat="43.94804" lon="0.09191">
        <ele>161.7</ele>
        <time>2025-03-30T09:27:23Z</time>
      </trkpt>
      <trkpt lat="43.94803" lon="0.09191">
        <ele>161.8</ele>
        <time>2025-03-30T09:27:24Z</time>
      </trkpt>
      <trkpt lat="43.94803" lon="0.0919">
        <ele>161.8</ele>
        <time>2025-03-30T09:27:25Z</time>
      </trkpt>
      <trkpt lat="43.94801" lon="0.0919">
        <ele>161.9</ele>
        <time>2025-03-30T09:27:26Z</time>
      </trkpt>
      <trkpt lat="43.948" lon="0.09189">
        <ele>161.9</ele>
        <time>2025-03-30T09:27:27Z</time>
      </trkpt>
      <trkpt lat="43.94799" lon="0.09189">
        <ele>161.9</ele>
        <time>2025-03-30T09:27:28Z</time>
      </trkpt>
      <trkpt lat="43.94797" lon="0.09188">
        <ele>162</ele>
        <time>2025-03-30T09:27:29Z</time>
      </trkpt>
      <trkpt lat="43.94796" lon="0.09187">
        <ele>162</ele>
        <time>2025-03-30T09:27:30Z</time>
      </trkpt>
      <trkpt lat="43.94795" lon="0.09186">
        <ele>162.1</ele>
        <time>2025-03-30T09:27:31Z</time>
      </trkpt>
      <trkpt lat="43.94794" lon="0.09185">
        <ele>162.1</ele>
        <time>2025-03-30T09:27:32Z</time>
      </trkpt>
      <trkpt lat="43.94792" lon="0.09184">
        <ele>162.2</ele>
        <time>2025-03-30T09:27:33Z</time>
      </trkpt>
      <trkpt lat="43.94791" lon="0.09183">
        <ele>162.2</ele>
        <time>2025-03-30T09:27:34Z</time>
      </trkpt>
      <trkpt lat="43.9479" lon="0.09182">
        <ele>162.3</ele>
        <time>2025-03-30T09:27:35Z</time>
      </trkpt>
      <trkpt lat="43.94787" lon="0.09181">
        <ele>162.4</ele>
        <time>2025-03-30T09:27:36Z</time>
      </trkpt>
      <trkpt lat="43.94786" lon="0.09181">
        <ele>162.4</ele>
        <time>2025-03-30T09:27:38Z</time>
      </trkpt>
      <trkpt lat="43.94785" lon="0.0918">
        <ele>162.5</ele>
        <time>2025-03-30T09:27:39Z</time>
      </trkpt>
      <trkpt lat="43.94783" lon="0.0918">
        <ele>162.5</ele>
        <time>2025-03-30T09:27:40Z</time>
      </trkpt>
      <trkpt lat="43.94781" lon="0.0918">
        <ele>162.6</ele>
        <time>2025-03-30T09:27:41Z</time>
      </trkpt>
      <trkpt lat="43.9478" lon="0.0918">
        <ele>162.6</ele>
        <time>2025-03-30T09:27:42Z</time>
      </trkpt>
      <trkpt lat="43.9478" lon="0.09179">
        <ele>162.6</ele>
        <time>2025-03-30T09:27:43Z</time>
      </trkpt>
      <trkpt lat="43.94778" lon="0.09179">
        <ele>162.6</ele>
        <time>2025-03-30T09:27:44Z</time>
      </trkpt>
      <trkpt lat="43.94777" lon="0.09179">
        <ele>162.7</ele>
        <time>2025-03-30T09:27:45Z</time>
      </trkpt>
      <trkpt lat="43.94776" lon="0.09179">
        <ele>162.7</ele>
        <time>2025-03-30T09:27:46Z</time>
      </trkpt>
      <trkpt lat="43.94774" lon="0.09178">
        <ele>162.7</ele>
        <time>2025-03-30T09:27:47Z</time>
      </trkpt>
      <trkpt lat="43.94773" lon="0.09178">
        <ele>162.7</ele>
        <time>2025-03-30T09:27:48Z</time>
      </trkpt>
      <trkpt lat="43.94772" lon="0.09178">
        <ele>162.7</ele>
        <time>2025-03-30T09:27:49Z</time>
      </trkpt>
      <trkpt lat="43.94771" lon="0.09177">
        <ele>162.7</ele>
        <time>2025-03-30T09:27:50Z</time>
      </trkpt>
      <trkpt lat="43.94768" lon="0.09177">
        <ele>162.8</ele>
        <time>2025-03-30T09:27:51Z</time>
      </trkpt>
      <trkpt lat="43.94768" lon="0.09176">
        <ele>162.8</ele>
        <time>2025-03-30T09:27:52Z</time>
      </trkpt>
      <trkpt lat="43.94767" lon="0.09176">
        <ele>162.8</ele>
        <time>2025-03-30T09:27:53Z</time>
      </trkpt>
      <trkpt lat="43.94765" lon="0.09176">
        <ele>162.8</ele>
        <time>2025-03-30T09:27:54Z</time>
      </trkpt>
      <trkpt lat="43.94764" lon="0.09175">
        <ele>162.8</ele>
        <time>2025-03-30T09:27:55Z</time>
      </trkpt>
      <trkpt lat="43.94761" lon="0.09176">
        <ele>162.8</ele>
        <time>2025-03-30T09:27:56Z</time>
      </trkpt>
      <trkpt lat="43.94761" lon="0.09176">
        <ele>162.8</ele>
        <time>2025-03-30T09:27:57Z</time>
      </trkpt>
      <trkpt lat="43.9476" lon="0.09177">
        <ele>162.8</ele>
        <time>2025-03-30T09:27:58Z</time>
      </trkpt>
      <trkpt lat="43.94759" lon="0.09177">
        <ele>162.8</ele>
        <time>2025-03-30T09:27:59Z</time>
      </trkpt>
      <trkpt lat="43.94758" lon="0.09178">
        <ele>162.8</ele>
        <time>2025-03-30T09:28:00Z</time>
      </trkpt>
      <trkpt lat="43.94757" lon="0.09176">
        <ele>162.8</ele>
        <time>2025-03-30T09:28:01Z</time>
      </trkpt>
      <trkpt lat="43.94755" lon="0.09175">
        <ele>162.8</ele>
        <time>2025-03-30T09:28:02Z</time>
      </trkpt>
      <trkpt lat="43.94754" lon="0.09174">
        <ele>162.8</ele>
        <time>2025-03-30T09:28:03Z</time>
      </trkpt>
      <trkpt lat="43.94753" lon="0.09172">
        <ele>162.8</ele>
        <time>2025-03-30T09:28:04Z</time>
      </trkpt>
      <trkpt lat="43.94751" lon="0.0917">
        <ele>162.8</ele>
        <time>2025-03-30T09:28:05Z</time>
      </trkpt>
      <trkpt lat="43.94749" lon="0.09169">
        <ele>162.8</ele>
        <time>2025-03-30T09:28:06Z</time>
      </trkpt>
      <trkpt lat="43.94749" lon="0.09168">
        <ele>162.8</ele>
        <time>2025-03-30T09:28:07Z</time>
      </trkpt>
      <trkpt lat="43.94748" lon="0.09167">
        <ele>162.8</ele>
        <time>2025-03-30T09:28:08Z</time>
      </trkpt>
      <trkpt lat="43.94747" lon="0.09167">
        <ele>162.8</ele>
        <time>2025-03-30T09:28:09Z</time>
      </trkpt>
      <trkpt lat="43.94746" lon="0.09166">
        <ele>162.8</ele>
        <time>2025-03-30T09:28:10Z</time>
      </trkpt>
      <trkpt lat="43.94745" lon="0.09165">
        <ele>162.8</ele>
        <time>2025-03-30T09:28:11Z</time>
      </trkpt>
      <trkpt lat="43.94744" lon="0.09164">
        <ele>162.8</ele>
        <time>2025-03-30T09:28:12Z</time>
      </trkpt>
      <trkpt lat="43.94742" lon="0.09163">
        <ele>162.8</ele>
        <time>2025-03-30T09:28:14Z</time>
      </trkpt>
      <trkpt lat="43.94741" lon="0.09164">
        <ele>162.9</ele>
        <time>2025-03-30T09:28:15Z</time>
      </trkpt>
      <trkpt lat="43.9474" lon="0.09165">
        <ele>162.9</ele>
        <time>2025-03-30T09:28:16Z</time>
      </trkpt>
      <trkpt lat="43.94738" lon="0.09166">
        <ele>162.9</ele>
        <time>2025-03-30T09:28:17Z</time>
      </trkpt>
      <trkpt lat="43.94737" lon="0.09167">
        <ele>162.9</ele>
        <time>2025-03-30T09:28:18Z</time>
      </trkpt>
      <trkpt lat="43.94735" lon="0.09167">
        <ele>162.9</ele>
        <time>2025-03-30T09:28:19Z</time>
      </trkpt>
      <trkpt lat="43.94735" lon="0.09167">
        <ele>162.9</ele>
        <time>2025-03-30T09:28:20Z</time>
      </trkpt>
      <trkpt lat="43.94734" lon="0.09167">
        <ele>162.9</ele>
        <time>2025-03-30T09:28:21Z</time>
      </trkpt>
      <trkpt lat="43.94731" lon="0.09166">
        <ele>162.9</ele>
        <time>2025-03-30T09:28:22Z</time>
      </trkpt>
      <trkpt lat="43.9473" lon="0.09166">
        <ele>163</ele>
        <time>2025-03-30T09:28:23Z</time>
      </trkpt>
      <trkpt lat="43.94728" lon="0.09164">
        <ele>163</ele>
        <time>2025-03-30T09:28:24Z</time>
      </trkpt>
      <trkpt lat="43.94727" lon="0.09164">
        <ele>163</ele>
        <time>2025-03-30T09:28:25Z</time>
      </trkpt>
      <trkpt lat="43.94725" lon="0.09163">
        <ele>163</ele>
        <time>2025-03-30T09:28:26Z</time>
      </trkpt>
      <trkpt lat="43.94724" lon="0.09163">
        <ele>163</ele>
        <time>2025-03-30T09:28:27Z</time>
      </trkpt>
      <trkpt lat="43.94722" lon="0.09163">
        <ele>163</ele>
        <time>2025-03-30T09:28:28Z</time>
      </trkpt>
      <trkpt lat="43.94721" lon="0.09163">
        <ele>163</ele>
        <time>2025-03-30T09:28:29Z</time>
      </trkpt>
      <trkpt lat="43.9472" lon="0.09163">
        <ele>163</ele>
        <time>2025-03-30T09:28:30Z</time>
      </trkpt>
      <trkpt lat="43.94718" lon="0.09162">
        <ele>163</ele>
        <time>2025-03-30T09:28:31Z</time>
      </trkpt>
      <trkpt lat="43.94717" lon="0.09162">
        <ele>163</ele>
        <time>2025-03-30T09:28:32Z</time>
      </trkpt>
      <trkpt lat="43.94716" lon="0.09161">
        <ele>163</ele>
        <time>2025-03-30T09:28:33Z</time>
      </trkpt>
      <trkpt lat="43.94713" lon="0.09161">
        <ele>163</ele>
        <time>2025-03-30T09:28:34Z</time>
      </trkpt>
      <trkpt lat="43.94713" lon="0.09161">
        <ele>163</ele>
        <time>2025-03-30T09:28:35Z</time>
      </trkpt>
      <trkpt lat="43.94712" lon="0.09161">
        <ele>163</ele>
        <time>2025-03-30T09:28:36Z</time>
      </trkpt>
      <trkpt lat="43.9471" lon="0.09161">
        <ele>163</ele>
        <time>2025-03-30T09:28:37Z</time>
      </trkpt>
      <trkpt lat="43.94709" lon="0.0916">
        <ele>163</ele>
        <time>2025-03-30T09:28:38Z</time>
      </trkpt>
      <trkpt lat="43.94708" lon="0.09161">
        <ele>163</ele>
        <time>2025-03-30T09:28:39Z</time>
      </trkpt>
      <trkpt lat="43.94706" lon="0.09161">
        <ele>163</ele>
        <time>2025-03-30T09:28:40Z</time>
      </trkpt>
      <trkpt lat="43.94704" lon="0.09161">
        <ele>163</ele>
        <time>2025-03-30T09:28:41Z</time>
      </trkpt>
      <trkpt lat="43.94703" lon="0.09161">
        <ele>163</ele>
        <time>2025-03-30T09:28:42Z</time>
      </trkpt>
      <trkpt lat="43.94702" lon="0.0916">
        <ele>162.9</ele>
        <time>2025-03-30T09:28:43Z</time>
      </trkpt>
      <trkpt lat="43.94701" lon="0.0916">
        <ele>162.9</ele>
        <time>2025-03-30T09:28:44Z</time>
      </trkpt>
      <trkpt lat="43.947" lon="0.09159">
        <ele>162.9</ele>
        <time>2025-03-30T09:28:45Z</time>
      </trkpt>
      <trkpt lat="43.94699" lon="0.09158">
        <ele>162.9</ele>
        <time>2025-03-30T09:28:46Z</time>
      </trkpt>
      <trkpt lat="43.94697" lon="0.09157">
        <ele>162.9</ele>
        <time>2025-03-30T09:28:47Z</time>
      </trkpt>
      <trkpt lat="43.94697" lon="0.09157">
        <ele>162.9</ele>
        <time>2025-03-30T09:28:48Z</time>
      </trkpt>
      <trkpt lat="43.94696" lon="0.09156">
        <ele>162.9</ele>
        <time>2025-03-30T09:28:49Z</time>
      </trkpt>
      <trkpt lat="43.94693" lon="0.09154">
        <ele>162.9</ele>
        <time>2025-03-30T09:28:51Z</time>
      </trkpt>
      <trkpt lat="43.94692" lon="0.09153">
        <ele>162.9</ele>
        <time>2025-03-30T09:28:52Z</time>
      </trkpt>
      <trkpt lat="43.94691" lon="0.09151">
        <ele>162.9</ele>
        <time>2025-03-30T09:28:53Z</time>
      </trkpt>
      <trkpt lat="43.9469" lon="0.0915">
        <ele>162.9</ele>
        <time>2025-03-30T09:28:54Z</time>
      </trkpt>
      <trkpt lat="43.94688" lon="0.09149">
        <ele>162.8</ele>
        <time>2025-03-30T09:28:55Z</time>
      </trkpt>
      <trkpt lat="43.94687" lon="0.09148">
        <ele>162.8</ele>
        <time>2025-03-30T09:28:56Z</time>
      </trkpt>
      <trkpt lat="43.94687" lon="0.09147">
        <ele>162.8</ele>
        <time>2025-03-30T09:28:57Z</time>
      </trkpt>
      <trkpt lat="43.94685" lon="0.09147">
        <ele>162.8</ele>
        <time>2025-03-30T09:28:58Z</time>
      </trkpt>
      <trkpt lat="43.94684" lon="0.09147">
        <ele>162.8</ele>
        <time>2025-03-30T09:28:59Z</time>
      </trkpt>
      <trkpt lat="43.94683" lon="0.09147">
        <ele>162.8</ele>
        <time>2025-03-30T09:29:00Z</time>
      </trkpt>
      <trkpt lat="43.94682" lon="0.09147">
        <ele>162.8</ele>
        <time>2025-03-30T09:29:01Z</time>
      </trkpt>
      <trkpt lat="43.9468" lon="0.09148">
        <ele>162.8</ele>
        <time>2025-03-30T09:29:02Z</time>
      </trkpt>
      <trkpt lat="43.94679" lon="0.09148">
        <ele>162.8</ele>
        <time>2025-03-30T09:29:03Z</time>
      </trkpt>
      <trkpt lat="43.94678" lon="0.0915">
        <ele>162.8</ele>
        <time>2025-03-30T09:29:04Z</time>
      </trkpt>
      <trkpt lat="43.94677" lon="0.09152">
        <ele>162.9</ele>
        <time>2025-03-30T09:29:05Z</time>
      </trkpt>
      <trkpt lat="43.94677" lon="0.09154">
        <ele>162.9</ele>
        <time>2025-03-30T09:29:06Z</time>
      </trkpt>
      <trkpt lat="43.94676" lon="0.09156">
        <ele>162.9</ele>
        <time>2025-03-30T09:29:07Z</time>
      </trkpt>
      <trkpt lat="43.94675" lon="0.09158">
        <ele>162.9</ele>
        <time>2025-03-30T09:29:08Z</time>
      </trkpt>
      <trkpt lat="43.94674" lon="0.0916">
        <ele>163</ele>
        <time>2025-03-30T09:29:09Z</time>
      </trkpt>
      <trkpt lat="43.94673" lon="0.09163">
        <ele>163</ele>
        <time>2025-03-30T09:29:10Z</time>
      </trkpt>
      <trkpt lat="43.94672" lon="0.09165">
        <ele>163</ele>
        <time>2025-03-30T09:29:12Z</time>
      </trkpt>
      <trkpt lat="43.94671" lon="0.09166">
        <ele>163.1</ele>
        <time>2025-03-30T09:29:13Z</time>
      </trkpt>
      <trkpt lat="43.94671" lon="0.09167">
        <ele>163.1</ele>
        <time>2025-03-30T09:29:14Z</time>
      </trkpt>
      <trkpt lat="43.9467" lon="0.09169">
        <ele>163.1</ele>
        <time>2025-03-30T09:29:15Z</time>
      </trkpt>
      <trkpt lat="43.9467" lon="0.09171">
        <ele>163.1</ele>
        <time>2025-03-30T09:29:16Z</time>
      </trkpt>
      <trkpt lat="43.94668" lon="0.09174">
        <ele>163.2</ele>
        <time>2025-03-30T09:29:18Z</time>
      </trkpt>
      <trkpt lat="43.94668" lon="0.09175">
        <ele>163.2</ele>
        <time>2025-03-30T09:29:19Z</time>
      </trkpt>
      <trkpt lat="43.94667" lon="0.09177">
        <ele>163.2</ele>
        <time>2025-03-30T09:29:20Z</time>
      </trkpt>
      <trkpt lat="43.94666" lon="0.0918">
        <ele>163.2</ele>
        <time>2025-03-30T09:29:21Z</time>
      </trkpt>
      <trkpt lat="43.94665" lon="0.0918">
        <ele>163.2</ele>
        <time>2025-03-30T09:29:22Z</time>
      </trkpt>
      <trkpt lat="43.94665" lon="0.09181">
        <ele>163.2</ele>
        <time>2025-03-30T09:29:23Z</time>
      </trkpt>
      <trkpt lat="43.94663" lon="0.09183">
        <ele>163.2</ele>
        <time>2025-03-30T09:29:24Z</time>
      </trkpt>
      <trkpt lat="43.94663" lon="0.09185">
        <ele>163.2</ele>
        <time>2025-03-30T09:29:25Z</time>
      </trkpt>
      <trkpt lat="43.94662" lon="0.09186">
        <ele>163.2</ele>
        <time>2025-03-30T09:29:26Z</time>
      </trkpt>
      <trkpt lat="43.94661" lon="0.09188">
        <ele>163.2</ele>
        <time>2025-03-30T09:29:27Z</time>
      </trkpt>
      <trkpt lat="43.94661" lon="0.09189">
        <ele>163.2</ele>
        <time>2025-03-30T09:29:28Z</time>
      </trkpt>
      <trkpt lat="43.94661" lon="0.0919">
        <ele>163.2</ele>
        <time>2025-03-30T09:29:29Z</time>
      </trkpt>
      <trkpt lat="43.9466" lon="0.09193">
        <ele>163.2</ele>
        <time>2025-03-30T09:29:30Z</time>
      </trkpt>
      <trkpt lat="43.9466" lon="0.09195">
        <ele>163.2</ele>
        <time>2025-03-30T09:29:31Z</time>
      </trkpt>
      <trkpt lat="43.9466" lon="0.09196">
        <ele>163.2</ele>
        <time>2025-03-30T09:29:32Z</time>
      </trkpt>
      <trkpt lat="43.94659" lon="0.09198">
        <ele>163.2</ele>
        <time>2025-03-30T09:29:33Z</time>
      </trkpt>
      <trkpt lat="43.94658" lon="0.09199">
        <ele>163.2</ele>
        <time>2025-03-30T09:29:34Z</time>
      </trkpt>
      <trkpt lat="43.94658" lon="0.09202">
        <ele>163.2</ele>
        <time>2025-03-30T09:29:35Z</time>
      </trkpt>
      <trkpt lat="43.94657" lon="0.09203">
        <ele>163.2</ele>
        <time>2025-03-30T09:29:36Z</time>
      </trkpt>
      <trkpt lat="43.94657" lon="0.09204">
        <ele>163.2</ele>
        <time>2025-03-30T09:29:37Z</time>
      </trkpt>
      <trkpt lat="43.94656" lon="0.09207">
        <ele>163.2</ele>
        <time>2025-03-30T09:29:38Z</time>
      </trkpt>
      <trkpt lat="43.94655" lon="0.09208">
        <ele>163.2</ele>
        <time>2025-03-30T09:29:39Z</time>
      </trkpt>
      <trkpt lat="43.94654" lon="0.09209">
        <ele>163.2</ele>
        <time>2025-03-30T09:29:40Z</time>
      </trkpt>
      <trkpt lat="43.94654" lon="0.09211">
        <ele>163.2</ele>
        <time>2025-03-30T09:29:41Z</time>
      </trkpt>
      <trkpt lat="43.94653" lon="0.09212">
        <ele>163.1</ele>
        <time>2025-03-30T09:29:42Z</time>
      </trkpt>
      <trkpt lat="43.94651" lon="0.09214">
        <ele>163.1</ele>
        <time>2025-03-30T09:29:43Z</time>
      </trkpt>
      <trkpt lat="43.9465" lon="0.09215">
        <ele>163.1</ele>
        <time>2025-03-30T09:29:44Z</time>
      </trkpt>
      <trkpt lat="43.9465" lon="0.09216">
        <ele>163.1</ele>
        <time>2025-03-30T09:29:45Z</time>
      </trkpt>
      <trkpt lat="43.94648" lon="0.09217">
        <ele>163</ele>
        <time>2025-03-30T09:29:46Z</time>
      </trkpt>
      <trkpt lat="43.94647" lon="0.09219">
        <ele>163</ele>
        <time>2025-03-30T09:29:47Z</time>
      </trkpt>
      <trkpt lat="43.94646" lon="0.0922">
        <ele>163</ele>
        <time>2025-03-30T09:29:48Z</time>
      </trkpt>
      <trkpt lat="43.94645" lon="0.09222">
        <ele>163</ele>
        <time>2025-03-30T09:29:49Z</time>
      </trkpt>
      <trkpt lat="43.94644" lon="0.09224">
        <ele>162.9</ele>
        <time>2025-03-30T09:29:50Z</time>
      </trkpt>
      <trkpt lat="43.94643" lon="0.09225">
        <ele>162.9</ele>
        <time>2025-03-30T09:29:51Z</time>
      </trkpt>
      <trkpt lat="43.94643" lon="0.09227">
        <ele>162.9</ele>
        <time>2025-03-30T09:29:52Z</time>
      </trkpt>
      <trkpt lat="43.94642" lon="0.09229">
        <ele>162.8</ele>
        <time>2025-03-30T09:29:53Z</time>
      </trkpt>
      <trkpt lat="43.94641" lon="0.0923">
        <ele>162.8</ele>
        <time>2025-03-30T09:29:54Z</time>
      </trkpt>
      <trkpt lat="43.94641" lon="0.09231">
        <ele>162.8</ele>
        <time>2025-03-30T09:29:55Z</time>
      </trkpt>
      <trkpt lat="43.94639" lon="0.09232">
        <ele>162.8</ele>
        <time>2025-03-30T09:29:56Z</time>
      </trkpt>
      <trkpt lat="43.94638" lon="0.09233">
        <ele>162.8</ele>
        <time>2025-03-30T09:29:57Z</time>
      </trkpt>
      <trkpt lat="43.94636" lon="0.09234">
        <ele>162.7</ele>
        <time>2025-03-30T09:29:58Z</time>
      </trkpt>
      <trkpt lat="43.94636" lon="0.09235">
        <ele>162.7</ele>
        <time>2025-03-30T09:29:59Z</time>
      </trkpt>
      <trkpt lat="43.94635" lon="0.09236">
        <ele>162.7</ele>
        <time>2025-03-30T09:30:00Z</time>
      </trkpt>
      <trkpt lat="43.94634" lon="0.09236">
        <ele>162.7</ele>
        <time>2025-03-30T09:30:01Z</time>
      </trkpt>
      <trkpt lat="43.94633" lon="0.09237">
        <ele>162.6</ele>
        <time>2025-03-30T09:30:02Z</time>
      </trkpt>
      <trkpt lat="43.94632" lon="0.09238">
        <ele>162.6</ele>
        <time>2025-03-30T09:30:03Z</time>
      </trkpt>
      <trkpt lat="43.9463" lon="0.0924">
        <ele>162.6</ele>
        <time>2025-03-30T09:30:04Z</time>
      </trkpt>
      <trkpt lat="43.94629" lon="0.09241">
        <ele>162.6</ele>
        <time>2025-03-30T09:30:05Z</time>
      </trkpt>
      <trkpt lat="43.94629" lon="0.09242">
        <ele>162.6</ele>
        <time>2025-03-30T09:30:06Z</time>
      </trkpt>
      <trkpt lat="43.94627" lon="0.09243">
        <ele>162.5</ele>
        <time>2025-03-30T09:30:07Z</time>
      </trkpt>
      <trkpt lat="43.94626" lon="0.09244">
        <ele>162.5</ele>
        <time>2025-03-30T09:30:08Z</time>
      </trkpt>
      <trkpt lat="43.94625" lon="0.09245">
        <ele>162.5</ele>
        <time>2025-03-30T09:30:09Z</time>
      </trkpt>
      <trkpt lat="43.94623" lon="0.09246">
        <ele>162.5</ele>
        <time>2025-03-30T09:30:10Z</time>
      </trkpt>
      <trkpt lat="43.94622" lon="0.09247">
        <ele>162.5</ele>
        <time>2025-03-30T09:30:11Z</time>
      </trkpt>
      <trkpt lat="43.94622" lon="0.09248">
        <ele>162.4</ele>
        <time>2025-03-30T09:30:12Z</time>
      </trkpt>
      <trkpt lat="43.94621" lon="0.09249">
        <ele>162.4</ele>
        <time>2025-03-30T09:30:13Z</time>
      </trkpt>
      <trkpt lat="43.94619" lon="0.0925">
        <ele>162.4</ele>
        <time>2025-03-30T09:30:14Z</time>
      </trkpt>
      <trkpt lat="43.94618" lon="0.09251">
        <ele>162.4</ele>
        <time>2025-03-30T09:30:15Z</time>
      </trkpt>
      <trkpt lat="43.94617" lon="0.09253">
        <ele>162.3</ele>
        <time>2025-03-30T09:30:16Z</time>
      </trkpt>
      <trkpt lat="43.94615" lon="0.09255">
        <ele>162.3</ele>
        <time>2025-03-30T09:30:18Z</time>
      </trkpt>
      <trkpt lat="43.94614" lon="0.09256">
        <ele>162.3</ele>
        <time>2025-03-30T09:30:19Z</time>
      </trkpt>
      <trkpt lat="43.94613" lon="0.09257">
        <ele>162.3</ele>
        <time>2025-03-30T09:30:20Z</time>
      </trkpt>
      <trkpt lat="43.94612" lon="0.09258">
        <ele>162.2</ele>
        <time>2025-03-30T09:30:21Z</time>
      </trkpt>
      <trkpt lat="43.9461" lon="0.09261">
        <ele>162.2</ele>
        <time>2025-03-30T09:30:23Z</time>
      </trkpt>
      <trkpt lat="43.94609" lon="0.09262">
        <ele>162.2</ele>
        <time>2025-03-30T09:30:24Z</time>
      </trkpt>
      <trkpt lat="43.94607" lon="0.09264">
        <ele>162.1</ele>
        <time>2025-03-30T09:30:25Z</time>
      </trkpt>
      <trkpt lat="43.94606" lon="0.09264">
        <ele>162.1</ele>
        <time>2025-03-30T09:30:26Z</time>
      </trkpt>
      <trkpt lat="43.94606" lon="0.09265">
        <ele>162.1</ele>
        <time>2025-03-30T09:30:27Z</time>
      </trkpt>
      <trkpt lat="43.94604" lon="0.09266">
        <ele>162.1</ele>
        <time>2025-03-30T09:30:28Z</time>
      </trkpt>
      <trkpt lat="43.94603" lon="0.09267">
        <ele>162.1</ele>
        <time>2025-03-30T09:30:29Z</time>
      </trkpt>
      <trkpt lat="43.94601" lon="0.09268">
        <ele>162</ele>
        <time>2025-03-30T09:30:30Z</time>
      </trkpt>
      <trkpt lat="43.94601" lon="0.09269">
        <ele>162</ele>
        <time>2025-03-30T09:30:31Z</time>
      </trkpt>
      <trkpt lat="43.946" lon="0.09269">
        <ele>162</ele>
        <time>2025-03-30T09:30:32Z</time>
      </trkpt>
      <trkpt lat="43.94598" lon="0.09271">
        <ele>162</ele>
        <time>2025-03-30T09:30:33Z</time>
      </trkpt>
      <trkpt lat="43.94597" lon="0.09272">
        <ele>162</ele>
        <time>2025-03-30T09:30:34Z</time>
      </trkpt>
      <trkpt lat="43.94596" lon="0.09272">
        <ele>162</ele>
        <time>2025-03-30T09:30:35Z</time>
      </trkpt>
      <trkpt lat="43.94595" lon="0.09275">
        <ele>161.9</ele>
        <time>2025-03-30T09:30:36Z</time>
      </trkpt>
      <trkpt lat="43.94595" lon="0.09276">
        <ele>161.9</ele>
        <time>2025-03-30T09:30:37Z</time>
      </trkpt>
      <trkpt lat="43.94594" lon="0.09277">
        <ele>161.9</ele>
        <time>2025-03-30T09:30:38Z</time>
      </trkpt>
      <trkpt lat="43.94592" lon="0.09281">
        <ele>161.9</ele>
        <time>2025-03-30T09:30:40Z</time>
      </trkpt>
      <trkpt lat="43.94591" lon="0.09281">
        <ele>161.9</ele>
        <time>2025-03-30T09:30:41Z</time>
      </trkpt>
      <trkpt lat="43.9459" lon="0.09282">
        <ele>161.9</ele>
        <time>2025-03-30T09:30:42Z</time>
      </trkpt>
      <trkpt lat="43.94589" lon="0.09283">
        <ele>161.9</ele>
        <time>2025-03-30T09:30:43Z</time>
      </trkpt>
      <trkpt lat="43.94587" lon="0.09285">
        <ele>161.8</ele>
        <time>2025-03-30T09:30:44Z</time>
      </trkpt>
      <trkpt lat="43.94587" lon="0.09286">
        <ele>161.8</ele>
        <time>2025-03-30T09:30:45Z</time>
      </trkpt>
      <trkpt lat="43.94586" lon="0.09287">
        <ele>161.8</ele>
        <time>2025-03-30T09:30:46Z</time>
      </trkpt>
      <trkpt lat="43.94585" lon="0.09289">
        <ele>161.8</ele>
        <time>2025-03-30T09:30:47Z</time>
      </trkpt>
      <trkpt lat="43.94584" lon="0.09291">
        <ele>161.8</ele>
        <time>2025-03-30T09:30:49Z</time>
      </trkpt>
      <trkpt lat="43.94583" lon="0.09292">
        <ele>161.8</ele>
        <time>2025-03-30T09:30:50Z</time>
      </trkpt>
      <trkpt lat="43.94582" lon="0.09294">
        <ele>161.8</ele>
        <time>2025-03-30T09:30:51Z</time>
      </trkpt>
      <trkpt lat="43.94581" lon="0.09295">
        <ele>161.8</ele>
        <time>2025-03-30T09:30:52Z</time>
      </trkpt>
      <trkpt lat="43.9458" lon="0.09297">
        <ele>161.7</ele>
        <time>2025-03-30T09:30:53Z</time>
      </trkpt>
      <trkpt lat="43.94579" lon="0.09298">
        <ele>161.7</ele>
        <time>2025-03-30T09:30:54Z</time>
      </trkpt>
      <trkpt lat="43.94578" lon="0.09299">
        <ele>161.7</ele>
        <time>2025-03-30T09:30:55Z</time>
      </trkpt>
      <trkpt lat="43.94576" lon="0.093">
        <ele>161.7</ele>
        <time>2025-03-30T09:30:56Z</time>
      </trkpt>
      <trkpt lat="43.94575" lon="0.09301">
        <ele>161.7</ele>
        <time>2025-03-30T09:30:57Z</time>
      </trkpt>
      <trkpt lat="43.94573" lon="0.09301">
        <ele>161.7</ele>
        <time>2025-03-30T09:30:58Z</time>
      </trkpt>
      <trkpt lat="43.94572" lon="0.09301">
        <ele>161.7</ele>
        <time>2025-03-30T09:30:59Z</time>
      </trkpt>
      <trkpt lat="43.94571" lon="0.09302">
        <ele>161.7</ele>
        <time>2025-03-30T09:31:00Z</time>
      </trkpt>
      <trkpt lat="43.94569" lon="0.09302">
        <ele>161.7</ele>
        <time>2025-03-30T09:31:01Z</time>
      </trkpt>
      <trkpt lat="43.94568" lon="0.09303">
        <ele>161.6</ele>
        <time>2025-03-30T09:31:02Z</time>
      </trkpt>
      <trkpt lat="43.94567" lon="0.09303">
        <ele>161.6</ele>
        <time>2025-03-30T09:31:03Z</time>
      </trkpt>
      <trkpt lat="43.94565" lon="0.09303">
        <ele>161.6</ele>
        <time>2025-03-30T09:31:04Z</time>
      </trkpt>
      <trkpt lat="43.94564" lon="0.09303">
        <ele>161.6</ele>
        <time>2025-03-30T09:31:05Z</time>
      </trkpt>
      <trkpt lat="43.94562" lon="0.09303">
        <ele>161.6</ele>
        <time>2025-03-30T09:31:06Z</time>
      </trkpt>
      <trkpt lat="43.94561" lon="0.09303">
        <ele>161.6</ele>
        <time>2025-03-30T09:31:07Z</time>
      </trkpt>
      <trkpt lat="43.94559" lon="0.09304">
        <ele>161.6</ele>
        <time>2025-03-30T09:31:08Z</time>
      </trkpt>
      <trkpt lat="43.94558" lon="0.09304">
        <ele>161.6</ele>
        <time>2025-03-30T09:31:09Z</time>
      </trkpt>
      <trkpt lat="43.94555" lon="0.09307">
        <ele>161.6</ele>
        <time>2025-03-30T09:31:11Z</time>
      </trkpt>
      <trkpt lat="43.94554" lon="0.09308">
        <ele>161.6</ele>
        <time>2025-03-30T09:31:12Z</time>
      </trkpt>
      <trkpt lat="43.94553" lon="0.09309">
        <ele>161.6</ele>
        <time>2025-03-30T09:31:13Z</time>
      </trkpt>
      <trkpt lat="43.94552" lon="0.0931">
        <ele>161.5</ele>
        <time>2025-03-30T09:31:14Z</time>
      </trkpt>
      <trkpt lat="43.9455" lon="0.09312">
        <ele>161.5</ele>
        <time>2025-03-30T09:31:15Z</time>
      </trkpt>
      <trkpt lat="43.94549" lon="0.09313">
        <ele>161.5</ele>
        <time>2025-03-30T09:31:17Z</time>
      </trkpt>
      <trkpt lat="43.94547" lon="0.09314">
        <ele>161.5</ele>
        <time>2025-03-30T09:31:18Z</time>
      </trkpt>
      <trkpt lat="43.94546" lon="0.09315">
        <ele>161.4</ele>
        <time>2025-03-30T09:31:19Z</time>
      </trkpt>
      <trkpt lat="43.94545" lon="0.09317">
        <ele>161.4</ele>
        <time>2025-03-30T09:31:20Z</time>
      </trkpt>
      <trkpt lat="43.94544" lon="0.09318">
        <ele>161.4</ele>
        <time>2025-03-30T09:31:21Z</time>
      </trkpt>
      <trkpt lat="43.94543" lon="0.09319">
        <ele>161.4</ele>
        <time>2025-03-30T09:31:22Z</time>
      </trkpt>
      <trkpt lat="43.94542" lon="0.0932">
        <ele>161.4</ele>
        <time>2025-03-30T09:31:23Z</time>
      </trkpt>
      <trkpt lat="43.94541" lon="0.09321">
        <ele>161.4</ele>
        <time>2025-03-30T09:31:24Z</time>
      </trkpt>
      <trkpt lat="43.9454" lon="0.09322">
        <ele>161.4</ele>
        <time>2025-03-30T09:31:25Z</time>
      </trkpt>
      <trkpt lat="43.94539" lon="0.09323">
        <ele>161.4</ele>
        <time>2025-03-30T09:31:26Z</time>
      </trkpt>
      <trkpt lat="43.94538" lon="0.09325">
        <ele>161.3</ele>
        <time>2025-03-30T09:31:27Z</time>
      </trkpt>
      <trkpt lat="43.94537" lon="0.09326">
        <ele>161.3</ele>
        <time>2025-03-30T09:31:28Z</time>
      </trkpt>
      <trkpt lat="43.94536" lon="0.09327">
        <ele>161.3</ele>
        <time>2025-03-30T09:31:29Z</time>
      </trkpt>
      <trkpt lat="43.94534" lon="0.0933">
        <ele>161.3</ele>
        <time>2025-03-30T09:31:31Z</time>
      </trkpt>
      <trkpt lat="43.94533" lon="0.0933">
        <ele>161.3</ele>
        <time>2025-03-30T09:31:32Z</time>
      </trkpt>
      <trkpt lat="43.94532" lon="0.09331">
        <ele>161.3</ele>
        <time>2025-03-30T09:31:33Z</time>
      </trkpt>
      <trkpt lat="43.94531" lon="0.09332">
        <ele>161.3</ele>
        <time>2025-03-30T09:31:34Z</time>
      </trkpt>
      <trkpt lat="43.94529" lon="0.09333">
        <ele>161.3</ele>
        <time>2025-03-30T09:31:35Z</time>
      </trkpt>
      <trkpt lat="43.94528" lon="0.09334">
        <ele>161.3</ele>
        <time>2025-03-30T09:31:36Z</time>
      </trkpt>
      <trkpt lat="43.94527" lon="0.09334">
        <ele>161.3</ele>
        <time>2025-03-30T09:31:37Z</time>
      </trkpt>
      <trkpt lat="43.94526" lon="0.09335">
        <ele>161.3</ele>
        <time>2025-03-30T09:31:38Z</time>
      </trkpt>
      <trkpt lat="43.94524" lon="0.09337">
        <ele>161.3</ele>
        <time>2025-03-30T09:31:40Z</time>
      </trkpt>
      <trkpt lat="43.94522" lon="0.09339">
        <ele>161.3</ele>
        <time>2025-03-30T09:31:42Z</time>
      </trkpt>
      <trkpt lat="43.9452" lon="0.09341">
        <ele>161.3</ele>
        <time>2025-03-30T09:31:43Z</time>
      </trkpt>
      <trkpt lat="43.94519" lon="0.09342">
        <ele>161.3</ele>
        <time>2025-03-30T09:31:44Z</time>
      </trkpt>
      <trkpt lat="43.94519" lon="0.09343">
        <ele>161.3</ele>
        <time>2025-03-30T09:31:45Z</time>
      </trkpt>
      <trkpt lat="43.94518" lon="0.09344">
        <ele>161.3</ele>
        <time>2025-03-30T09:31:46Z</time>
      </trkpt>
      <trkpt lat="43.94516" lon="0.09345">
        <ele>161.3</ele>
        <time>2025-03-30T09:31:47Z</time>
      </trkpt>
      <trkpt lat="43.94515" lon="0.09346">
        <ele>161.3</ele>
        <time>2025-03-30T09:31:48Z</time>
      </trkpt>
      <trkpt lat="43.94514" lon="0.09347">
        <ele>161.3</ele>
        <time>2025-03-30T09:31:49Z</time>
      </trkpt>
      <trkpt lat="43.94513" lon="0.09349">
        <ele>161.4</ele>
        <time>2025-03-30T09:31:50Z</time>
      </trkpt>
      <trkpt lat="43.94512" lon="0.0935">
        <ele>161.4</ele>
        <time>2025-03-30T09:31:51Z</time>
      </trkpt>
      <trkpt lat="43.94511" lon="0.0935">
        <ele>161.4</ele>
        <time>2025-03-30T09:31:52Z</time>
      </trkpt>
      <trkpt lat="43.9451" lon="0.09351">
        <ele>161.4</ele>
        <time>2025-03-30T09:31:53Z</time>
      </trkpt>
      <trkpt lat="43.94509" lon="0.09352">
        <ele>161.4</ele>
        <time>2025-03-30T09:31:54Z</time>
      </trkpt>
      <trkpt lat="43.94507" lon="0.09353">
        <ele>161.4</ele>
        <time>2025-03-30T09:31:55Z</time>
      </trkpt>
      <trkpt lat="43.94506" lon="0.09354">
        <ele>161.4</ele>
        <time>2025-03-30T09:31:56Z</time>
      </trkpt>
      <trkpt lat="43.94505" lon="0.09355">
        <ele>161.4</ele>
        <time>2025-03-30T09:31:57Z</time>
      </trkpt>
      <trkpt lat="43.94503" lon="0.09356">
        <ele>161.4</ele>
        <time>2025-03-30T09:31:58Z</time>
      </trkpt>
      <trkpt lat="43.94502" lon="0.09357">
        <ele>161.4</ele>
        <time>2025-03-30T09:31:59Z</time>
      </trkpt>
      <trkpt lat="43.94502" lon="0.09358">
        <ele>161.4</ele>
        <time>2025-03-30T09:32:00Z</time>
      </trkpt>
      <trkpt lat="43.94501" lon="0.09359">
        <ele>161.4</ele>
        <time>2025-03-30T09:32:01Z</time>
      </trkpt>
      <trkpt lat="43.945" lon="0.0936">
        <ele>161.5</ele>
        <time>2025-03-30T09:32:02Z</time>
      </trkpt>
      <trkpt lat="43.94498" lon="0.0936">
        <ele>161.5</ele>
        <time>2025-03-30T09:32:03Z</time>
      </trkpt>
      <trkpt lat="43.94496" lon="0.09361">
        <ele>161.5</ele>
        <time>2025-03-30T09:32:04Z</time>
      </trkpt>
      <trkpt lat="43.94495" lon="0.09361">
        <ele>161.5</ele>
        <time>2025-03-30T09:32:05Z</time>
      </trkpt>
      <trkpt lat="43.94494" lon="0.09361">
        <ele>161.5</ele>
        <time>2025-03-30T09:32:06Z</time>
      </trkpt>
      <trkpt lat="43.94493" lon="0.09363">
        <ele>161.6</ele>
        <time>2025-03-30T09:32:07Z</time>
      </trkpt>
      <trkpt lat="43.94492" lon="0.09364">
        <ele>161.6</ele>
        <time>2025-03-30T09:32:08Z</time>
      </trkpt>
      <trkpt lat="43.94491" lon="0.09365">
        <ele>161.6</ele>
        <time>2025-03-30T09:32:09Z</time>
      </trkpt>
      <trkpt lat="43.9449" lon="0.09366">
        <ele>161.6</ele>
        <time>2025-03-30T09:32:10Z</time>
      </trkpt>
      <trkpt lat="43.94489" lon="0.09367">
        <ele>161.7</ele>
        <time>2025-03-30T09:32:11Z</time>
      </trkpt>
      <trkpt lat="43.94488" lon="0.09367">
        <ele>161.7</ele>
        <time>2025-03-30T09:32:12Z</time>
      </trkpt>
      <trkpt lat="43.94486" lon="0.09368">
        <ele>161.7</ele>
        <time>2025-03-30T09:32:13Z</time>
      </trkpt>
      <trkpt lat="43.94485" lon="0.09369">
        <ele>161.8</ele>
        <time>2025-03-30T09:32:14Z</time>
      </trkpt>
      <trkpt lat="43.94484" lon="0.09369">
        <ele>161.8</ele>
        <time>2025-03-30T09:32:15Z</time>
      </trkpt>
      <trkpt lat="43.94483" lon="0.09371">
        <ele>161.8</ele>
        <time>2025-03-30T09:32:16Z</time>
      </trkpt>
      <trkpt lat="43.94483" lon="0.09373">
        <ele>161.8</ele>
        <time>2025-03-30T09:32:17Z</time>
      </trkpt>
      <trkpt lat="43.94483" lon="0.09374">
        <ele>161.8</ele>
        <time>2025-03-30T09:32:18Z</time>
      </trkpt>
      <trkpt lat="43.94482" lon="0.09375">
        <ele>161.9</ele>
        <time>2025-03-30T09:32:19Z</time>
      </trkpt>
      <trkpt lat="43.94481" lon="0.09377">
        <ele>161.9</ele>
        <time>2025-03-30T09:32:20Z</time>
      </trkpt>
      <trkpt lat="43.9448" lon="0.09379">
        <ele>161.9</ele>
        <time>2025-03-30T09:32:21Z</time>
      </trkpt>
      <trkpt lat="43.94479" lon="0.0938">
        <ele>162</ele>
        <time>2025-03-30T09:32:22Z</time>
      </trkpt>
      <trkpt lat="43.94477" lon="0.09381">
        <ele>162</ele>
        <time>2025-03-30T09:32:23Z</time>
      </trkpt>
      <trkpt lat="43.94476" lon="0.09383">
        <ele>162</ele>
        <time>2025-03-30T09:32:24Z</time>
      </trkpt>
      <trkpt lat="43.94475" lon="0.09384">
        <ele>162</ele>
        <time>2025-03-30T09:32:25Z</time>
      </trkpt>
      <trkpt lat="43.94474" lon="0.09386">
        <ele>162.1</ele>
        <time>2025-03-30T09:32:26Z</time>
      </trkpt>
      <trkpt lat="43.94473" lon="0.09387">
        <ele>162.1</ele>
        <time>2025-03-30T09:32:27Z</time>
      </trkpt>
      <trkpt lat="43.94472" lon="0.09389">
        <ele>162.1</ele>
        <time>2025-03-30T09:32:28Z</time>
      </trkpt>
      <trkpt lat="43.94472" lon="0.0939">
        <ele>162.1</ele>
        <time>2025-03-30T09:32:29Z</time>
      </trkpt>
      <trkpt lat="43.94471" lon="0.09392">
        <ele>162.2</ele>
        <time>2025-03-30T09:32:30Z</time>
      </trkpt>
      <trkpt lat="43.9447" lon="0.09394">
        <ele>162.2</ele>
        <time>2025-03-30T09:32:31Z</time>
      </trkpt>
      <trkpt lat="43.9447" lon="0.09395">
        <ele>162.2</ele>
        <time>2025-03-30T09:32:32Z</time>
      </trkpt>
      <trkpt lat="43.9447" lon="0.09397">
        <ele>162.2</ele>
        <time>2025-03-30T09:32:33Z</time>
      </trkpt>
      <trkpt lat="43.94469" lon="0.09398">
        <ele>162.2</ele>
        <time>2025-03-30T09:32:34Z</time>
      </trkpt>
      <trkpt lat="43.94468" lon="0.094">
        <ele>162.3</ele>
        <time>2025-03-30T09:32:35Z</time>
      </trkpt>
      <trkpt lat="43.94467" lon="0.09401">
        <ele>162.3</ele>
        <time>2025-03-30T09:32:36Z</time>
      </trkpt>
      <trkpt lat="43.94467" lon="0.09402">
        <ele>162.3</ele>
        <time>2025-03-30T09:32:37Z</time>
      </trkpt>
      <trkpt lat="43.94466" lon="0.09404">
        <ele>162.3</ele>
        <time>2025-03-30T09:32:38Z</time>
      </trkpt>
      <trkpt lat="43.94465" lon="0.09405">
        <ele>162.3</ele>
        <time>2025-03-30T09:32:39Z</time>
      </trkpt>
      <trkpt lat="43.94463" lon="0.09407">
        <ele>162.4</ele>
        <time>2025-03-30T09:32:40Z</time>
      </trkpt>
      <trkpt lat="43.94463" lon="0.09409">
        <ele>162.4</ele>
        <time>2025-03-30T09:32:41Z</time>
      </trkpt>
      <trkpt lat="43.94463" lon="0.0941">
        <ele>162.4</ele>
        <time>2025-03-30T09:32:42Z</time>
      </trkpt>
      <trkpt lat="43.94462" lon="0.09411">
        <ele>162.4</ele>
        <time>2025-03-30T09:32:43Z</time>
      </trkpt>
      <trkpt lat="43.9446" lon="0.09413">
        <ele>162.4</ele>
        <time>2025-03-30T09:32:44Z</time>
      </trkpt>
      <trkpt lat="43.9446" lon="0.09414">
        <ele>162.4</ele>
        <time>2025-03-30T09:32:45Z</time>
      </trkpt>
      <trkpt lat="43.9446" lon="0.09415">
        <ele>162.4</ele>
        <time>2025-03-30T09:32:46Z</time>
      </trkpt>
      <trkpt lat="43.9446" lon="0.09417">
        <ele>162.5</ele>
        <time>2025-03-30T09:32:47Z</time>
      </trkpt>
      <trkpt lat="43.94461" lon="0.09418">
        <ele>162.5</ele>
        <time>2025-03-30T09:32:48Z</time>
      </trkpt>
      <trkpt lat="43.9446" lon="0.0942">
        <ele>162.5</ele>
        <time>2025-03-30T09:32:49Z</time>
      </trkpt>
      <trkpt lat="43.9446" lon="0.09421">
        <ele>162.5</ele>
        <time>2025-03-30T09:32:50Z</time>
      </trkpt>
      <trkpt lat="43.94459" lon="0.09425">
        <ele>162.5</ele>
        <time>2025-03-30T09:32:51Z</time>
      </trkpt>
      <trkpt lat="43.94458" lon="0.09426">
        <ele>162.5</ele>
        <time>2025-03-30T09:32:52Z</time>
      </trkpt>
      <trkpt lat="43.94458" lon="0.09428">
        <ele>162.5</ele>
        <time>2025-03-30T09:32:53Z</time>
      </trkpt>
      <trkpt lat="43.94458" lon="0.0943">
        <ele>162.6</ele>
        <time>2025-03-30T09:32:54Z</time>
      </trkpt>
      <trkpt lat="43.94457" lon="0.09432">
        <ele>162.6</ele>
        <time>2025-03-30T09:32:55Z</time>
      </trkpt>
      <trkpt lat="43.94457" lon="0.09434">
        <ele>162.6</ele>
        <time>2025-03-30T09:32:56Z</time>
      </trkpt>
      <trkpt lat="43.94456" lon="0.09437">
        <ele>162.6</ele>
        <time>2025-03-30T09:32:57Z</time>
      </trkpt>
      <trkpt lat="43.94456" lon="0.09438">
        <ele>162.6</ele>
        <time>2025-03-30T09:32:58Z</time>
      </trkpt>
      <trkpt lat="43.94456" lon="0.09439">
        <ele>162.6</ele>
        <time>2025-03-30T09:32:59Z</time>
      </trkpt>
      <trkpt lat="43.94455" lon="0.09441">
        <ele>162.6</ele>
        <time>2025-03-30T09:33:00Z</time>
      </trkpt>
      <trkpt lat="43.94455" lon="0.09443">
        <ele>162.6</ele>
        <time>2025-03-30T09:33:01Z</time>
      </trkpt>
      <trkpt lat="43.94454" lon="0.09445">
        <ele>162.6</ele>
        <time>2025-03-30T09:33:02Z</time>
      </trkpt>
      <trkpt lat="43.94454" lon="0.09447">
        <ele>162.6</ele>
        <time>2025-03-30T09:33:03Z</time>
      </trkpt>
      <trkpt lat="43.94454" lon="0.09449">
        <ele>162.6</ele>
        <time>2025-03-30T09:33:04Z</time>
      </trkpt>
      <trkpt lat="43.94453" lon="0.09451">
        <ele>162.7</ele>
        <time>2025-03-30T09:33:05Z</time>
      </trkpt>
      <trkpt lat="43.94453" lon="0.09454">
        <ele>162.7</ele>
        <time>2025-03-30T09:33:06Z</time>
      </trkpt>
      <trkpt lat="43.94453" lon="0.09455">
        <ele>162.7</ele>
        <time>2025-03-30T09:33:07Z</time>
      </trkpt>
      <trkpt lat="43.94453" lon="0.09456">
        <ele>162.7</ele>
        <time>2025-03-30T09:33:08Z</time>
      </trkpt>
      <trkpt lat="43.94453" lon="0.09459">
        <ele>162.7</ele>
        <time>2025-03-30T09:33:09Z</time>
      </trkpt>
      <trkpt lat="43.94453" lon="0.0946">
        <ele>162.7</ele>
        <time>2025-03-30T09:33:10Z</time>
      </trkpt>
      <trkpt lat="43.94453" lon="0.09461">
        <ele>162.7</ele>
        <time>2025-03-30T09:33:11Z</time>
      </trkpt>
      <trkpt lat="43.94452" lon="0.09464">
        <ele>162.7</ele>
        <time>2025-03-30T09:33:12Z</time>
      </trkpt>
      <trkpt lat="43.94452" lon="0.09465">
        <ele>162.7</ele>
        <time>2025-03-30T09:33:13Z</time>
      </trkpt>
      <trkpt lat="43.94451" lon="0.09466">
        <ele>162.7</ele>
        <time>2025-03-30T09:33:14Z</time>
      </trkpt>
      <trkpt lat="43.9445" lon="0.09468">
        <ele>162.8</ele>
        <time>2025-03-30T09:33:15Z</time>
      </trkpt>
      <trkpt lat="43.94449" lon="0.09469">
        <ele>162.8</ele>
        <time>2025-03-30T09:33:16Z</time>
      </trkpt>
      <trkpt lat="43.94447" lon="0.09471">
        <ele>162.8</ele>
        <time>2025-03-30T09:33:17Z</time>
      </trkpt>
      <trkpt lat="43.94447" lon="0.09472">
        <ele>162.8</ele>
        <time>2025-03-30T09:33:18Z</time>
      </trkpt>
      <trkpt lat="43.94446" lon="0.09473">
        <ele>162.9</ele>
        <time>2025-03-30T09:33:19Z</time>
      </trkpt>
      <trkpt lat="43.94446" lon="0.09476">
        <ele>162.9</ele>
        <time>2025-03-30T09:33:20Z</time>
      </trkpt>
      <trkpt lat="43.94446" lon="0.09477">
        <ele>162.9</ele>
        <time>2025-03-30T09:33:21Z</time>
      </trkpt>
      <trkpt lat="43.94446" lon="0.09478">
        <ele>162.9</ele>
        <time>2025-03-30T09:33:22Z</time>
      </trkpt>
      <trkpt lat="43.94447" lon="0.09482">
        <ele>162.9</ele>
        <time>2025-03-30T09:33:23Z</time>
      </trkpt>
      <trkpt lat="43.94446" lon="0.09483">
        <ele>163</ele>
        <time>2025-03-30T09:33:24Z</time>
      </trkpt>
      <trkpt lat="43.94446" lon="0.09484">
        <ele>163</ele>
        <time>2025-03-30T09:33:25Z</time>
      </trkpt>
      <trkpt lat="43.94445" lon="0.09488">
        <ele>163</ele>
        <time>2025-03-30T09:33:26Z</time>
      </trkpt>
      <trkpt lat="43.94445" lon="0.09489">
        <ele>163</ele>
        <time>2025-03-30T09:33:27Z</time>
      </trkpt>
      <trkpt lat="43.94444" lon="0.09491">
        <ele>163.1</ele>
        <time>2025-03-30T09:33:28Z</time>
      </trkpt>
      <trkpt lat="43.94443" lon="0.09493">
        <ele>163.1</ele>
        <time>2025-03-30T09:33:29Z</time>
      </trkpt>
      <trkpt lat="43.94442" lon="0.09495">
        <ele>163.1</ele>
        <time>2025-03-30T09:33:30Z</time>
      </trkpt>
      <trkpt lat="43.94442" lon="0.09496">
        <ele>163.1</ele>
        <time>2025-03-30T09:33:31Z</time>
      </trkpt>
      <trkpt lat="43.94441" lon="0.09498">
        <ele>163.1</ele>
        <time>2025-03-30T09:33:32Z</time>
      </trkpt>
      <trkpt lat="43.9444" lon="0.095">
        <ele>163.2</ele>
        <time>2025-03-30T09:33:33Z</time>
      </trkpt>
      <trkpt lat="43.94439" lon="0.09502">
        <ele>163.2</ele>
        <time>2025-03-30T09:33:34Z</time>
      </trkpt>
      <trkpt lat="43.94438" lon="0.09503">
        <ele>163.2</ele>
        <time>2025-03-30T09:33:35Z</time>
      </trkpt>
      <trkpt lat="43.94438" lon="0.09504">
        <ele>163.2</ele>
        <time>2025-03-30T09:33:36Z</time>
      </trkpt>
      <trkpt lat="43.94436" lon="0.09505">
        <ele>163.2</ele>
        <time>2025-03-30T09:33:37Z</time>
      </trkpt>
      <trkpt lat="43.94435" lon="0.09506">
        <ele>163.2</ele>
        <time>2025-03-30T09:33:38Z</time>
      </trkpt>
      <trkpt lat="43.94434" lon="0.09507">
        <ele>163.3</ele>
        <time>2025-03-30T09:33:39Z</time>
      </trkpt>
      <trkpt lat="43.94433" lon="0.09508">
        <ele>163.3</ele>
        <time>2025-03-30T09:33:40Z</time>
      </trkpt>
      <trkpt lat="43.94431" lon="0.0951">
        <ele>163.3</ele>
        <time>2025-03-30T09:33:41Z</time>
      </trkpt>
      <trkpt lat="43.9443" lon="0.09511">
        <ele>163.3</ele>
        <time>2025-03-30T09:33:42Z</time>
      </trkpt>
      <trkpt lat="43.94429" lon="0.09512">
        <ele>163.3</ele>
        <time>2025-03-30T09:33:43Z</time>
      </trkpt>
      <trkpt lat="43.94428" lon="0.09513">
        <ele>163.3</ele>
        <time>2025-03-30T09:33:44Z</time>
      </trkpt>
      <trkpt lat="43.94427" lon="0.09514">
        <ele>163.3</ele>
        <time>2025-03-30T09:33:45Z</time>
      </trkpt>
      <trkpt lat="43.94425" lon="0.09515">
        <ele>163.3</ele>
        <time>2025-03-30T09:33:46Z</time>
      </trkpt>
      <trkpt lat="43.94424" lon="0.09516">
        <ele>163.3</ele>
        <time>2025-03-30T09:33:47Z</time>
      </trkpt>
      <trkpt lat="43.94421" lon="0.09516">
        <ele>163.3</ele>
        <time>2025-03-30T09:33:49Z</time>
      </trkpt>
      <trkpt lat="43.9442" lon="0.09516">
        <ele>163.3</ele>
        <time>2025-03-30T09:33:50Z</time>
      </trkpt>
      <trkpt lat="43.94418" lon="0.09516">
        <ele>163.3</ele>
        <time>2025-03-30T09:33:51Z</time>
      </trkpt>
      <trkpt lat="43.94417" lon="0.09517">
        <ele>163.3</ele>
        <time>2025-03-30T09:33:52Z</time>
      </trkpt>
      <trkpt lat="43.94416" lon="0.09518">
        <ele>163.3</ele>
        <time>2025-03-30T09:33:53Z</time>
      </trkpt>
      <trkpt lat="43.94414" lon="0.09519">
        <ele>163.3</ele>
        <time>2025-03-30T09:33:54Z</time>
      </trkpt>
      <trkpt lat="43.94413" lon="0.09521">
        <ele>163.3</ele>
        <time>2025-03-30T09:33:55Z</time>
      </trkpt>
      <trkpt lat="43.94412" lon="0.09521">
        <ele>163.3</ele>
        <time>2025-03-30T09:33:56Z</time>
      </trkpt>
      <trkpt lat="43.94411" lon="0.09522">
        <ele>163.3</ele>
        <time>2025-03-30T09:33:57Z</time>
      </trkpt>
      <trkpt lat="43.9441" lon="0.09522">
        <ele>163.3</ele>
        <time>2025-03-30T09:33:58Z</time>
      </trkpt>
      <trkpt lat="43.94409" lon="0.09523">
        <ele>163.3</ele>
        <time>2025-03-30T09:33:59Z</time>
      </trkpt>
      <trkpt lat="43.94406" lon="0.09524">
        <ele>163.2</ele>
        <time>2025-03-30T09:34:01Z</time>
      </trkpt>
      <trkpt lat="43.94404" lon="0.09526">
        <ele>163.2</ele>
        <time>2025-03-30T09:34:03Z</time>
      </trkpt>
      <trkpt lat="43.94402" lon="0.09529">
        <ele>163.2</ele>
        <time>2025-03-30T09:34:04Z</time>
      </trkpt>
      <trkpt lat="43.94402" lon="0.0953">
        <ele>163.1</ele>
        <time>2025-03-30T09:34:06Z</time>
      </trkpt>
      <trkpt lat="43.94401" lon="0.09531">
        <ele>163.1</ele>
        <time>2025-03-30T09:34:07Z</time>
      </trkpt>
      <trkpt lat="43.944" lon="0.09533">
        <ele>163.1</ele>
        <time>2025-03-30T09:34:08Z</time>
      </trkpt>
      <trkpt lat="43.94399" lon="0.09534">
        <ele>163.1</ele>
        <time>2025-03-30T09:34:09Z</time>
      </trkpt>
      <trkpt lat="43.94398" lon="0.09535">
        <ele>163</ele>
        <time>2025-03-30T09:34:10Z</time>
      </trkpt>
      <trkpt lat="43.94397" lon="0.09536">
        <ele>163</ele>
        <time>2025-03-30T09:34:11Z</time>
      </trkpt>
      <trkpt lat="43.94396" lon="0.09538">
        <ele>163</ele>
        <time>2025-03-30T09:34:12Z</time>
      </trkpt>
      <trkpt lat="43.94395" lon="0.09539">
        <ele>163</ele>
        <time>2025-03-30T09:34:13Z</time>
      </trkpt>
      <trkpt lat="43.94394" lon="0.09542">
        <ele>162.9</ele>
        <time>2025-03-30T09:34:14Z</time>
      </trkpt>
      <trkpt lat="43.94393" lon="0.09543">
        <ele>162.9</ele>
        <time>2025-03-30T09:34:15Z</time>
      </trkpt>
      <trkpt lat="43.94393" lon="0.09544">
        <ele>162.9</ele>
        <time>2025-03-30T09:34:16Z</time>
      </trkpt>
      <trkpt lat="43.94392" lon="0.09545">
        <ele>162.9</ele>
        <time>2025-03-30T09:34:17Z</time>
      </trkpt>
      <trkpt lat="43.94391" lon="0.09547">
        <ele>162.9</ele>
        <time>2025-03-30T09:34:18Z</time>
      </trkpt>
      <trkpt lat="43.9439" lon="0.09549">
        <ele>162.9</ele>
        <time>2025-03-30T09:34:19Z</time>
      </trkpt>
      <trkpt lat="43.94389" lon="0.0955">
        <ele>162.8</ele>
        <time>2025-03-30T09:34:20Z</time>
      </trkpt>
      <trkpt lat="43.94388" lon="0.09552">
        <ele>162.8</ele>
        <time>2025-03-30T09:34:21Z</time>
      </trkpt>
      <trkpt lat="43.94387" lon="0.09553">
        <ele>162.8</ele>
        <time>2025-03-30T09:34:22Z</time>
      </trkpt>
      <trkpt lat="43.94387" lon="0.09555">
        <ele>162.8</ele>
        <time>2025-03-30T09:34:23Z</time>
      </trkpt>
      <trkpt lat="43.94386" lon="0.09556">
        <ele>162.8</ele>
        <time>2025-03-30T09:34:24Z</time>
      </trkpt>
      <trkpt lat="43.94385" lon="0.09558">
        <ele>162.8</ele>
        <time>2025-03-30T09:34:25Z</time>
      </trkpt>
      <trkpt lat="43.94384" lon="0.0956">
        <ele>162.7</ele>
        <time>2025-03-30T09:34:26Z</time>
      </trkpt>
      <trkpt lat="43.94383" lon="0.09561">
        <ele>162.7</ele>
        <time>2025-03-30T09:34:27Z</time>
      </trkpt>
      <trkpt lat="43.94382" lon="0.09563">
        <ele>162.7</ele>
        <time>2025-03-30T09:34:28Z</time>
      </trkpt>
      <trkpt lat="43.94382" lon="0.09565">
        <ele>162.7</ele>
        <time>2025-03-30T09:34:29Z</time>
      </trkpt>
      <trkpt lat="43.94381" lon="0.09567">
        <ele>162.7</ele>
        <time>2025-03-30T09:34:30Z</time>
      </trkpt>
      <trkpt lat="43.94379" lon="0.0957">
        <ele>162.7</ele>
        <time>2025-03-30T09:34:32Z</time>
      </trkpt>
      <trkpt lat="43.94378" lon="0.09571">
        <ele>162.7</ele>
        <time>2025-03-30T09:34:33Z</time>
      </trkpt>
      <trkpt lat="43.94378" lon="0.09573">
        <ele>162.7</ele>
        <time>2025-03-30T09:34:34Z</time>
      </trkpt>
      <trkpt lat="43.94376" lon="0.09574">
        <ele>162.7</ele>
        <time>2025-03-30T09:34:35Z</time>
      </trkpt>
      <trkpt lat="43.94375" lon="0.09576">
        <ele>162.6</ele>
        <time>2025-03-30T09:34:36Z</time>
      </trkpt>
      <trkpt lat="43.94374" lon="0.09577">
        <ele>162.6</ele>
        <time>2025-03-30T09:34:37Z</time>
      </trkpt>
      <trkpt lat="43.94373" lon="0.09579">
        <ele>162.6</ele>
        <time>2025-03-30T09:34:38Z</time>
      </trkpt>
      <trkpt lat="43.94372" lon="0.0958">
        <ele>162.6</ele>
        <time>2025-03-30T09:34:39Z</time>
      </trkpt>
      <trkpt lat="43.94372" lon="0.09581">
        <ele>162.6</ele>
        <time>2025-03-30T09:34:40Z</time>
      </trkpt>
      <trkpt lat="43.94371" lon="0.09583">
        <ele>162.6</ele>
        <time>2025-03-30T09:34:41Z</time>
      </trkpt>
      <trkpt lat="43.9437" lon="0.09585">
        <ele>162.6</ele>
        <time>2025-03-30T09:34:42Z</time>
      </trkpt>
      <trkpt lat="43.94369" lon="0.09587">
        <ele>162.6</ele>
        <time>2025-03-30T09:34:43Z</time>
      </trkpt>
      <trkpt lat="43.94368" lon="0.09588">
        <ele>162.6</ele>
        <time>2025-03-30T09:34:44Z</time>
      </trkpt>
      <trkpt lat="43.94368" lon="0.09589">
        <ele>162.6</ele>
        <time>2025-03-30T09:34:45Z</time>
      </trkpt>
      <trkpt lat="43.94367" lon="0.09592">
        <ele>162.6</ele>
        <time>2025-03-30T09:34:46Z</time>
      </trkpt>
      <trkpt lat="43.94367" lon="0.09593">
        <ele>162.6</ele>
        <time>2025-03-30T09:34:47Z</time>
      </trkpt>
      <trkpt lat="43.94366" lon="0.09594">
        <ele>162.6</ele>
        <time>2025-03-30T09:34:48Z</time>
      </trkpt>
      <trkpt lat="43.94365" lon="0.09596">
        <ele>162.6</ele>
        <time>2025-03-30T09:34:49Z</time>
      </trkpt>
      <trkpt lat="43.94364" lon="0.09597">
        <ele>162.6</ele>
        <time>2025-03-30T09:34:50Z</time>
      </trkpt>
      <trkpt lat="43.94364" lon="0.09599">
        <ele>162.6</ele>
        <time>2025-03-30T09:34:51Z</time>
      </trkpt>
      <trkpt lat="43.94363" lon="0.096">
        <ele>162.6</ele>
        <time>2025-03-30T09:34:52Z</time>
      </trkpt>
      <trkpt lat="43.94362" lon="0.09602">
        <ele>162.6</ele>
        <time>2025-03-30T09:34:53Z</time>
      </trkpt>
      <trkpt lat="43.94361" lon="0.09604">
        <ele>162.6</ele>
        <time>2025-03-30T09:34:54Z</time>
      </trkpt>
      <trkpt lat="43.9436" lon="0.09605">
        <ele>162.6</ele>
        <time>2025-03-30T09:34:55Z</time>
      </trkpt>
      <trkpt lat="43.9436" lon="0.09607">
        <ele>162.6</ele>
        <time>2025-03-30T09:34:56Z</time>
      </trkpt>
      <trkpt lat="43.94359" lon="0.0961">
        <ele>162.6</ele>
        <time>2025-03-30T09:34:57Z</time>
      </trkpt>
      <trkpt lat="43.94358" lon="0.09611">
        <ele>162.6</ele>
        <time>2025-03-30T09:34:58Z</time>
      </trkpt>
      <trkpt lat="43.94358" lon="0.09612">
        <ele>162.6</ele>
        <time>2025-03-30T09:34:59Z</time>
      </trkpt>
      <trkpt lat="43.94357" lon="0.09614">
        <ele>162.6</ele>
        <time>2025-03-30T09:35:00Z</time>
      </trkpt>
      <trkpt lat="43.94357" lon="0.09615">
        <ele>162.6</ele>
        <time>2025-03-30T09:35:01Z</time>
      </trkpt>
      <trkpt lat="43.94356" lon="0.09616">
        <ele>162.6</ele>
        <time>2025-03-30T09:35:02Z</time>
      </trkpt>
      <trkpt lat="43.94354" lon="0.09619">
        <ele>162.6</ele>
        <time>2025-03-30T09:35:03Z</time>
      </trkpt>
      <trkpt lat="43.94353" lon="0.0962">
        <ele>162.6</ele>
        <time>2025-03-30T09:35:04Z</time>
      </trkpt>
      <trkpt lat="43.94352" lon="0.09621">
        <ele>162.6</ele>
        <time>2025-03-30T09:35:05Z</time>
      </trkpt>
      <trkpt lat="43.94351" lon="0.09622">
        <ele>162.6</ele>
        <time>2025-03-30T09:35:06Z</time>
      </trkpt>
      <trkpt lat="43.9435" lon="0.09624">
        <ele>162.6</ele>
        <time>2025-03-30T09:35:07Z</time>
      </trkpt>
      <trkpt lat="43.94349" lon="0.09625">
        <ele>162.6</ele>
        <time>2025-03-30T09:35:08Z</time>
      </trkpt>
      <trkpt lat="43.94348" lon="0.09626">
        <ele>162.6</ele>
        <time>2025-03-30T09:35:09Z</time>
      </trkpt>
      <trkpt lat="43.94346" lon="0.09629">
        <ele>162.6</ele>
        <time>2025-03-30T09:35:11Z</time>
      </trkpt>
      <trkpt lat="43.94345" lon="0.09631">
        <ele>162.6</ele>
        <time>2025-03-30T09:35:12Z</time>
      </trkpt>
      <trkpt lat="43.94344" lon="0.09631">
        <ele>162.6</ele>
        <time>2025-03-30T09:35:13Z</time>
      </trkpt>
      <trkpt lat="43.94343" lon="0.09632">
        <ele>162.6</ele>
        <time>2025-03-30T09:35:14Z</time>
      </trkpt>
      <trkpt lat="43.94342" lon="0.09635">
        <ele>162.7</ele>
        <time>2025-03-30T09:35:15Z</time>
      </trkpt>
      <trkpt lat="43.94342" lon="0.09636">
        <ele>162.7</ele>
        <time>2025-03-30T09:35:16Z</time>
      </trkpt>
      <trkpt lat="43.94342" lon="0.09638">
        <ele>162.7</ele>
        <time>2025-03-30T09:35:17Z</time>
      </trkpt>
      <trkpt lat="43.94341" lon="0.0964">
        <ele>162.7</ele>
        <time>2025-03-30T09:35:18Z</time>
      </trkpt>
      <trkpt lat="43.94341" lon="0.09641">
        <ele>162.7</ele>
        <time>2025-03-30T09:35:19Z</time>
      </trkpt>
      <trkpt lat="43.94341" lon="0.09643">
        <ele>162.7</ele>
        <time>2025-03-30T09:35:20Z</time>
      </trkpt>
      <trkpt lat="43.94341" lon="0.09644">
        <ele>162.7</ele>
        <time>2025-03-30T09:35:21Z</time>
      </trkpt>
      <trkpt lat="43.9434" lon="0.09646">
        <ele>162.7</ele>
        <time>2025-03-30T09:35:22Z</time>
      </trkpt>
      <trkpt lat="43.94339" lon="0.09647">
        <ele>162.7</ele>
        <time>2025-03-30T09:35:23Z</time>
      </trkpt>
      <trkpt lat="43.94338" lon="0.09649">
        <ele>162.7</ele>
        <time>2025-03-30T09:35:24Z</time>
      </trkpt>
      <trkpt lat="43.94337" lon="0.0965">
        <ele>162.7</ele>
        <time>2025-03-30T09:35:25Z</time>
      </trkpt>
      <trkpt lat="43.94335" lon="0.09651">
        <ele>162.7</ele>
        <time>2025-03-30T09:35:26Z</time>
      </trkpt>
      <trkpt lat="43.94334" lon="0.09652">
        <ele>162.7</ele>
        <time>2025-03-30T09:35:27Z</time>
      </trkpt>
      <trkpt lat="43.94333" lon="0.09654">
        <ele>162.8</ele>
        <time>2025-03-30T09:35:28Z</time>
      </trkpt>
      <trkpt lat="43.94333" lon="0.09655">
        <ele>162.8</ele>
        <time>2025-03-30T09:35:29Z</time>
      </trkpt>
      <trkpt lat="43.94333" lon="0.09656">
        <ele>162.8</ele>
        <time>2025-03-30T09:35:30Z</time>
      </trkpt>
      <trkpt lat="43.94332" lon="0.09658">
        <ele>162.8</ele>
        <time>2025-03-30T09:35:31Z</time>
      </trkpt>
      <trkpt lat="43.94331" lon="0.0966">
        <ele>162.8</ele>
        <time>2025-03-30T09:35:32Z</time>
      </trkpt>
      <trkpt lat="43.9433" lon="0.09662">
        <ele>162.8</ele>
        <time>2025-03-30T09:35:33Z</time>
      </trkpt>
      <trkpt lat="43.9433" lon="0.09664">
        <ele>162.8</ele>
        <time>2025-03-30T09:35:34Z</time>
      </trkpt>
      <trkpt lat="43.94329" lon="0.09666">
        <ele>162.8</ele>
        <time>2025-03-30T09:35:35Z</time>
      </trkpt>
      <trkpt lat="43.94328" lon="0.09668">
        <ele>162.8</ele>
        <time>2025-03-30T09:35:36Z</time>
      </trkpt>
      <trkpt lat="43.94327" lon="0.09669">
        <ele>162.8</ele>
        <time>2025-03-30T09:35:37Z</time>
      </trkpt>
      <trkpt lat="43.94326" lon="0.0967">
        <ele>162.8</ele>
        <time>2025-03-30T09:35:38Z</time>
      </trkpt>
      <trkpt lat="43.94325" lon="0.09672">
        <ele>162.8</ele>
        <time>2025-03-30T09:35:39Z</time>
      </trkpt>
      <trkpt lat="43.94324" lon="0.09674">
        <ele>162.9</ele>
        <time>2025-03-30T09:35:40Z</time>
      </trkpt>
      <trkpt lat="43.94324" lon="0.09675">
        <ele>162.9</ele>
        <time>2025-03-30T09:35:41Z</time>
      </trkpt>
      <trkpt lat="43.94323" lon="0.09676">
        <ele>162.9</ele>
        <time>2025-03-30T09:35:42Z</time>
      </trkpt>
      <trkpt lat="43.94322" lon="0.09678">
        <ele>162.9</ele>
        <time>2025-03-30T09:35:43Z</time>
      </trkpt>
      <trkpt lat="43.94321" lon="0.09681">
        <ele>162.9</ele>
        <time>2025-03-30T09:35:45Z</time>
      </trkpt>
      <trkpt lat="43.9432" lon="0.09683">
        <ele>162.9</ele>
        <time>2025-03-30T09:35:46Z</time>
      </trkpt>
      <trkpt lat="43.9432" lon="0.09685">
        <ele>162.9</ele>
        <time>2025-03-30T09:35:47Z</time>
      </trkpt>
      <trkpt lat="43.94319" lon="0.09687">
        <ele>163</ele>
        <time>2025-03-30T09:35:48Z</time>
      </trkpt>
      <trkpt lat="43.94319" lon="0.09689">
        <ele>163</ele>
        <time>2025-03-30T09:35:49Z</time>
      </trkpt>
      <trkpt lat="43.94317" lon="0.09693">
        <ele>163</ele>
        <time>2025-03-30T09:35:51Z</time>
      </trkpt>
      <trkpt lat="43.94316" lon="0.09694">
        <ele>163</ele>
        <time>2025-03-30T09:35:52Z</time>
      </trkpt>
      <trkpt lat="43.94315" lon="0.09696">
        <ele>163</ele>
        <time>2025-03-30T09:35:53Z</time>
      </trkpt>
      <trkpt lat="43.94314" lon="0.09697">
        <ele>163</ele>
        <time>2025-03-30T09:35:54Z</time>
      </trkpt>
      <trkpt lat="43.94313" lon="0.09699">
        <ele>163</ele>
        <time>2025-03-30T09:35:55Z</time>
      </trkpt>
      <trkpt lat="43.94313" lon="0.09701">
        <ele>163.1</ele>
        <time>2025-03-30T09:35:56Z</time>
      </trkpt>
      <trkpt lat="43.94312" lon="0.09702">
        <ele>163.1</ele>
        <time>2025-03-30T09:35:57Z</time>
      </trkpt>
      <trkpt lat="43.94311" lon="0.09703">
        <ele>163.1</ele>
        <time>2025-03-30T09:35:58Z</time>
      </trkpt>
      <trkpt lat="43.94309" lon="0.09705">
        <ele>163.1</ele>
        <time>2025-03-30T09:35:59Z</time>
      </trkpt>
      <trkpt lat="43.94308" lon="0.09706">
        <ele>163.1</ele>
        <time>2025-03-30T09:36:00Z</time>
      </trkpt>
      <trkpt lat="43.94307" lon="0.09707">
        <ele>163.1</ele>
        <time>2025-03-30T09:36:01Z</time>
      </trkpt>
      <trkpt lat="43.94306" lon="0.09709">
        <ele>163.1</ele>
        <time>2025-03-30T09:36:02Z</time>
      </trkpt>
      <trkpt lat="43.94305" lon="0.0971">
        <ele>163.1</ele>
        <time>2025-03-30T09:36:03Z</time>
      </trkpt>
      <trkpt lat="43.94304" lon="0.09711">
        <ele>163.1</ele>
        <time>2025-03-30T09:36:04Z</time>
      </trkpt>
      <trkpt lat="43.94303" lon="0.09713">
        <ele>163.2</ele>
        <time>2025-03-30T09:36:05Z</time>
      </trkpt>
      <trkpt lat="43.94302" lon="0.09714">
        <ele>163.2</ele>
        <time>2025-03-30T09:36:06Z</time>
      </trkpt>
      <trkpt lat="43.94301" lon="0.09715">
        <ele>163.2</ele>
        <time>2025-03-30T09:36:07Z</time>
      </trkpt>
      <trkpt lat="43.94299" lon="0.09717">
        <ele>163.2</ele>
        <time>2025-03-30T09:36:08Z</time>
      </trkpt>
      <trkpt lat="43.94298" lon="0.09718">
        <ele>163.2</ele>
        <time>2025-03-30T09:36:09Z</time>
      </trkpt>
      <trkpt lat="43.94297" lon="0.09719">
        <ele>163.3</ele>
        <time>2025-03-30T09:36:10Z</time>
      </trkpt>
      <trkpt lat="43.94296" lon="0.0972">
        <ele>163.3</ele>
        <time>2025-03-30T09:36:11Z</time>
      </trkpt>
      <trkpt lat="43.94295" lon="0.09722">
        <ele>163.3</ele>
        <time>2025-03-30T09:36:12Z</time>
      </trkpt>
      <trkpt lat="43.94294" lon="0.09723">
        <ele>163.3</ele>
        <time>2025-03-30T09:36:13Z</time>
      </trkpt>
      <trkpt lat="43.94293" lon="0.09724">
        <ele>163.4</ele>
        <time>2025-03-30T09:36:14Z</time>
      </trkpt>
      <trkpt lat="43.94292" lon="0.09725">
        <ele>163.4</ele>
        <time>2025-03-30T09:36:15Z</time>
      </trkpt>
      <trkpt lat="43.9429" lon="0.09727">
        <ele>163.4</ele>
        <time>2025-03-30T09:36:17Z</time>
      </trkpt>
      <trkpt lat="43.94288" lon="0.09729">
        <ele>163.5</ele>
        <time>2025-03-30T09:36:18Z</time>
      </trkpt>
      <trkpt lat="43.94287" lon="0.0973">
        <ele>163.5</ele>
        <time>2025-03-30T09:36:19Z</time>
      </trkpt>
      <trkpt lat="43.94286" lon="0.09731">
        <ele>163.5</ele>
        <time>2025-03-30T09:36:20Z</time>
      </trkpt>
      <trkpt lat="43.94285" lon="0.09733">
        <ele>163.5</ele>
        <time>2025-03-30T09:36:21Z</time>
      </trkpt>
      <trkpt lat="43.94284" lon="0.09734">
        <ele>163.6</ele>
        <time>2025-03-30T09:36:22Z</time>
      </trkpt>
      <trkpt lat="43.94283" lon="0.09735">
        <ele>163.6</ele>
        <time>2025-03-30T09:36:23Z</time>
      </trkpt>
      <trkpt lat="43.94281" lon="0.09736">
        <ele>163.6</ele>
        <time>2025-03-30T09:36:24Z</time>
      </trkpt>
      <trkpt lat="43.9428" lon="0.09737">
        <ele>163.7</ele>
        <time>2025-03-30T09:36:25Z</time>
      </trkpt>
      <trkpt lat="43.94279" lon="0.09738">
        <ele>163.7</ele>
        <time>2025-03-30T09:36:26Z</time>
      </trkpt>
      <trkpt lat="43.94277" lon="0.09739">
        <ele>163.7</ele>
        <time>2025-03-30T09:36:27Z</time>
      </trkpt>
      <trkpt lat="43.94276" lon="0.0974">
        <ele>163.8</ele>
        <time>2025-03-30T09:36:28Z</time>
      </trkpt>
      <trkpt lat="43.94275" lon="0.09741">
        <ele>163.8</ele>
        <time>2025-03-30T09:36:29Z</time>
      </trkpt>
      <trkpt lat="43.94273" lon="0.09742">
        <ele>163.8</ele>
        <time>2025-03-30T09:36:30Z</time>
      </trkpt>
      <trkpt lat="43.94272" lon="0.09743">
        <ele>163.9</ele>
        <time>2025-03-30T09:36:31Z</time>
      </trkpt>
      <trkpt lat="43.94271" lon="0.09743">
        <ele>163.9</ele>
        <time>2025-03-30T09:36:32Z</time>
      </trkpt>
      <trkpt lat="43.94268" lon="0.09745">
        <ele>163.9</ele>
        <time>2025-03-30T09:36:34Z</time>
      </trkpt>
      <trkpt lat="43.94267" lon="0.09745">
        <ele>164</ele>
        <time>2025-03-30T09:36:35Z</time>
      </trkpt>
      <trkpt lat="43.94264" lon="0.09746">
        <ele>164</ele>
        <time>2025-03-30T09:36:37Z</time>
      </trkpt>
      <trkpt lat="43.94263" lon="0.09746">
        <ele>164</ele>
        <time>2025-03-30T09:36:38Z</time>
      </trkpt>
      <trkpt lat="43.94261" lon="0.09746">
        <ele>164.1</ele>
        <time>2025-03-30T09:36:39Z</time>
      </trkpt>
      <trkpt lat="43.9426" lon="0.09747">
        <ele>164.1</ele>
        <time>2025-03-30T09:36:40Z</time>
      </trkpt>
      <trkpt lat="43.94257" lon="0.09748">
        <ele>164.1</ele>
        <time>2025-03-30T09:36:42Z</time>
      </trkpt>
      <trkpt lat="43.94256" lon="0.09749">
        <ele>164.1</ele>
        <time>2025-03-30T09:36:43Z</time>
      </trkpt>
      <trkpt lat="43.94254" lon="0.0975">
        <ele>164.2</ele>
        <time>2025-03-30T09:36:44Z</time>
      </trkpt>
      <trkpt lat="43.94253" lon="0.0975">
        <ele>164.2</ele>
        <time>2025-03-30T09:36:45Z</time>
      </trkpt>
      <trkpt lat="43.94251" lon="0.09751">
        <ele>164.2</ele>
        <time>2025-03-30T09:36:46Z</time>
      </trkpt>
      <trkpt lat="43.94249" lon="0.09751">
        <ele>164.2</ele>
        <time>2025-03-30T09:36:47Z</time>
      </trkpt>
      <trkpt lat="43.94248" lon="0.09751">
        <ele>164.2</ele>
        <time>2025-03-30T09:36:48Z</time>
      </trkpt>
      <trkpt lat="43.94247" lon="0.09751">
        <ele>164.3</ele>
        <time>2025-03-30T09:36:49Z</time>
      </trkpt>
      <trkpt lat="43.94245" lon="0.09752">
        <ele>164.2</ele>
        <time>2025-03-30T09:36:50Z</time>
      </trkpt>
      <trkpt lat="43.94244" lon="0.09752">
        <ele>164.2</ele>
        <time>2025-03-30T09:36:51Z</time>
      </trkpt>
      <trkpt lat="43.94243" lon="0.09752">
        <ele>164.2</ele>
        <time>2025-03-30T09:36:52Z</time>
      </trkpt>
      <trkpt lat="43.94242" lon="0.09752">
        <ele>164.2</ele>
        <time>2025-03-30T09:36:53Z</time>
      </trkpt>
      <trkpt lat="43.9424" lon="0.09752">
        <ele>164.2</ele>
        <time>2025-03-30T09:36:54Z</time>
      </trkpt>
      <trkpt lat="43.94239" lon="0.09752">
        <ele>164.2</ele>
        <time>2025-03-30T09:36:55Z</time>
      </trkpt>
      <trkpt lat="43.94237" lon="0.09753">
        <ele>164.2</ele>
        <time>2025-03-30T09:36:56Z</time>
      </trkpt>
      <trkpt lat="43.94236" lon="0.09753">
        <ele>164.2</ele>
        <time>2025-03-30T09:36:57Z</time>
      </trkpt>
      <trkpt lat="43.94234" lon="0.09753">
        <ele>164.2</ele>
        <time>2025-03-30T09:36:58Z</time>
      </trkpt>
      <trkpt lat="43.94233" lon="0.09754">
        <ele>164.2</ele>
        <time>2025-03-30T09:36:59Z</time>
      </trkpt>
      <trkpt lat="43.94231" lon="0.09754">
        <ele>164.2</ele>
        <time>2025-03-30T09:37:00Z</time>
      </trkpt>
      <trkpt lat="43.9423" lon="0.09753">
        <ele>164.2</ele>
        <time>2025-03-30T09:37:01Z</time>
      </trkpt>
      <trkpt lat="43.94228" lon="0.09753">
        <ele>164.2</ele>
        <time>2025-03-30T09:37:02Z</time>
      </trkpt>
      <trkpt lat="43.94227" lon="0.09752">
        <ele>164.2</ele>
        <time>2025-03-30T09:37:03Z</time>
      </trkpt>
      <trkpt lat="43.94225" lon="0.09752">
        <ele>164.2</ele>
        <time>2025-03-30T09:37:04Z</time>
      </trkpt>
      <trkpt lat="43.94224" lon="0.09751">
        <ele>164.2</ele>
        <time>2025-03-30T09:37:05Z</time>
      </trkpt>
      <trkpt lat="43.94222" lon="0.09751">
        <ele>164.2</ele>
        <time>2025-03-30T09:37:06Z</time>
      </trkpt>
      <trkpt lat="43.94221" lon="0.09751">
        <ele>164.2</ele>
        <time>2025-03-30T09:37:07Z</time>
      </trkpt>
      <trkpt lat="43.94219" lon="0.0975">
        <ele>164.2</ele>
        <time>2025-03-30T09:37:08Z</time>
      </trkpt>
      <trkpt lat="43.94218" lon="0.0975">
        <ele>164.2</ele>
        <time>2025-03-30T09:37:09Z</time>
      </trkpt>
      <trkpt lat="43.94216" lon="0.09749">
        <ele>164.2</ele>
        <time>2025-03-30T09:37:10Z</time>
      </trkpt>
      <trkpt lat="43.94215" lon="0.09749">
        <ele>164.2</ele>
        <time>2025-03-30T09:37:11Z</time>
      </trkpt>
      <trkpt lat="43.94213" lon="0.09748">
        <ele>164.2</ele>
        <time>2025-03-30T09:37:12Z</time>
      </trkpt>
      <trkpt lat="43.94212" lon="0.09748">
        <ele>164.2</ele>
        <time>2025-03-30T09:37:13Z</time>
      </trkpt>
      <trkpt lat="43.9421" lon="0.09747">
        <ele>164.2</ele>
        <time>2025-03-30T09:37:14Z</time>
      </trkpt>
      <trkpt lat="43.94209" lon="0.09747">
        <ele>164.2</ele>
        <time>2025-03-30T09:37:15Z</time>
      </trkpt>
      <trkpt lat="43.94208" lon="0.09746">
        <ele>164.2</ele>
        <time>2025-03-30T09:37:16Z</time>
      </trkpt>
      <trkpt lat="43.94206" lon="0.09746">
        <ele>164.2</ele>
        <time>2025-03-30T09:37:17Z</time>
      </trkpt>
      <trkpt lat="43.94205" lon="0.09745">
        <ele>164.2</ele>
        <time>2025-03-30T09:37:18Z</time>
      </trkpt>
      <trkpt lat="43.94203" lon="0.09745">
        <ele>164.3</ele>
        <time>2025-03-30T09:37:19Z</time>
      </trkpt>
      <trkpt lat="43.94202" lon="0.09745">
        <ele>164.3</ele>
        <time>2025-03-30T09:37:20Z</time>
      </trkpt>
      <trkpt lat="43.94201" lon="0.09745">
        <ele>164.3</ele>
        <time>2025-03-30T09:37:21Z</time>
      </trkpt>
      <trkpt lat="43.942" lon="0.09744">
        <ele>164.3</ele>
        <time>2025-03-30T09:37:22Z</time>
      </trkpt>
      <trkpt lat="43.942" lon="0.09741">
        <ele>164.3</ele>
        <time>2025-03-30T09:37:23Z</time>
      </trkpt>
      <trkpt lat="43.94202" lon="0.09741">
        <ele>164.3</ele>
        <time>2025-03-30T09:37:24Z</time>
      </trkpt>
      <trkpt lat="43.94202" lon="0.09739">
        <ele>164.3</ele>
        <time>2025-03-30T09:37:25Z</time>
      </trkpt>
      <trkpt lat="43.942" lon="0.09737">
        <ele>164.3</ele>
        <time>2025-03-30T09:37:26Z</time>
      </trkpt>
      <trkpt lat="43.94199" lon="0.09736">
        <ele>164.3</ele>
        <time>2025-03-30T09:37:27Z</time>
      </trkpt>
      <trkpt lat="43.94197" lon="0.09735">
        <ele>164.3</ele>
        <time>2025-03-30T09:37:28Z</time>
      </trkpt>
      <trkpt lat="43.94196" lon="0.09735">
        <ele>164.3</ele>
        <time>2025-03-30T09:37:29Z</time>
      </trkpt>
      <trkpt lat="43.94194" lon="0.09734">
        <ele>164.3</ele>
        <time>2025-03-30T09:37:30Z</time>
      </trkpt>
      <trkpt lat="43.94193" lon="0.09734">
        <ele>164.3</ele>
        <time>2025-03-30T09:37:31Z</time>
      </trkpt>
      <trkpt lat="43.94191" lon="0.09734">
        <ele>164.3</ele>
        <time>2025-03-30T09:37:32Z</time>
      </trkpt>
      <trkpt lat="43.9419" lon="0.09733">
        <ele>164.3</ele>
        <time>2025-03-30T09:37:33Z</time>
      </trkpt>
      <trkpt lat="43.94188" lon="0.09733">
        <ele>164.3</ele>
        <time>2025-03-30T09:37:34Z</time>
      </trkpt>
      <trkpt lat="43.94185" lon="0.09732">
        <ele>164.3</ele>
        <time>2025-03-30T09:37:35Z</time>
      </trkpt>
      <trkpt lat="43.94183" lon="0.09732">
        <ele>164.3</ele>
        <time>2025-03-30T09:37:37Z</time>
      </trkpt>
      <trkpt lat="43.94182" lon="0.09732">
        <ele>164.3</ele>
        <time>2025-03-30T09:37:39Z</time>
      </trkpt>
      <trkpt lat="43.9418" lon="0.09731">
        <ele>164.2</ele>
        <time>2025-03-30T09:37:40Z</time>
      </trkpt>
      <trkpt lat="43.94178" lon="0.09731">
        <ele>164.2</ele>
        <time>2025-03-30T09:37:41Z</time>
      </trkpt>
      <trkpt lat="43.94177" lon="0.09731">
        <ele>164.2</ele>
        <time>2025-03-30T09:37:42Z</time>
      </trkpt>
      <trkpt lat="43.94175" lon="0.0973">
        <ele>164.2</ele>
        <time>2025-03-30T09:37:43Z</time>
      </trkpt>
      <trkpt lat="43.94173" lon="0.09729">
        <ele>164.1</ele>
        <time>2025-03-30T09:37:45Z</time>
      </trkpt>
      <trkpt lat="43.94171" lon="0.09728">
        <ele>164.1</ele>
        <time>2025-03-30T09:37:46Z</time>
      </trkpt>
      <trkpt lat="43.9417" lon="0.09727">
        <ele>164.1</ele>
        <time>2025-03-30T09:37:47Z</time>
      </trkpt>
      <trkpt lat="43.94168" lon="0.09726">
        <ele>164.1</ele>
        <time>2025-03-30T09:37:48Z</time>
      </trkpt>
      <trkpt lat="43.94167" lon="0.09726">
        <ele>164.1</ele>
        <time>2025-03-30T09:37:49Z</time>
      </trkpt>
      <trkpt lat="43.94166" lon="0.09725">
        <ele>164</ele>
        <time>2025-03-30T09:37:50Z</time>
      </trkpt>
      <trkpt lat="43.94164" lon="0.09724">
        <ele>164</ele>
        <time>2025-03-30T09:37:51Z</time>
      </trkpt>
      <trkpt lat="43.94163" lon="0.09724">
        <ele>164</ele>
        <time>2025-03-30T09:37:52Z</time>
      </trkpt>
      <trkpt lat="43.94162" lon="0.09723">
        <ele>163.9</ele>
        <time>2025-03-30T09:37:53Z</time>
      </trkpt>
      <trkpt lat="43.94161" lon="0.09722">
        <ele>163.9</ele>
        <time>2025-03-30T09:37:54Z</time>
      </trkpt>
      <trkpt lat="43.9416" lon="0.09722">
        <ele>163.9</ele>
        <time>2025-03-30T09:37:55Z</time>
      </trkpt>
      <trkpt lat="43.94158" lon="0.09721">
        <ele>163.8</ele>
        <time>2025-03-30T09:37:56Z</time>
      </trkpt>
      <trkpt lat="43.94157" lon="0.09721">
        <ele>163.8</ele>
        <time>2025-03-30T09:37:57Z</time>
      </trkpt>
      <trkpt lat="43.94155" lon="0.09719">
        <ele>163.7</ele>
        <time>2025-03-30T09:37:58Z</time>
      </trkpt>
      <trkpt lat="43.94154" lon="0.09718">
        <ele>163.7</ele>
        <time>2025-03-30T09:37:59Z</time>
      </trkpt>
      <trkpt lat="43.94153" lon="0.09718">
        <ele>163.6</ele>
        <time>2025-03-30T09:38:00Z</time>
      </trkpt>
      <trkpt lat="43.94152" lon="0.09718">
        <ele>163.6</ele>
        <time>2025-03-30T09:38:01Z</time>
      </trkpt>
      <trkpt lat="43.94149" lon="0.09716">
        <ele>163.5</ele>
        <time>2025-03-30T09:38:03Z</time>
      </trkpt>
      <trkpt lat="43.94147" lon="0.09713">
        <ele>163.4</ele>
        <time>2025-03-30T09:38:05Z</time>
      </trkpt>
      <trkpt lat="43.94146" lon="0.09712">
        <ele>163.4</ele>
        <time>2025-03-30T09:38:06Z</time>
      </trkpt>
      <trkpt lat="43.94145" lon="0.0971">
        <ele>163.3</ele>
        <time>2025-03-30T09:38:07Z</time>
      </trkpt>
      <trkpt lat="43.94143" lon="0.09709">
        <ele>163.3</ele>
        <time>2025-03-30T09:38:08Z</time>
      </trkpt>
      <trkpt lat="43.94142" lon="0.09708">
        <ele>163.2</ele>
        <time>2025-03-30T09:38:09Z</time>
      </trkpt>
      <trkpt lat="43.94141" lon="0.09706">
        <ele>163.2</ele>
        <time>2025-03-30T09:38:10Z</time>
      </trkpt>
      <trkpt lat="43.9414" lon="0.09705">
        <ele>163.2</ele>
        <time>2025-03-30T09:38:11Z</time>
      </trkpt>
      <trkpt lat="43.94138" lon="0.09704">
        <ele>163.1</ele>
        <time>2025-03-30T09:38:12Z</time>
      </trkpt>
      <trkpt lat="43.94137" lon="0.09705">
        <ele>163.1</ele>
        <time>2025-03-30T09:38:13Z</time>
      </trkpt>
      <trkpt lat="43.94136" lon="0.09705">
        <ele>163</ele>
        <time>2025-03-30T09:38:14Z</time>
      </trkpt>
      <trkpt lat="43.94135" lon="0.09704">
        <ele>163</ele>
        <time>2025-03-30T09:38:15Z</time>
      </trkpt>
      <trkpt lat="43.94133" lon="0.09702">
        <ele>162.9</ele>
        <time>2025-03-30T09:38:16Z</time>
      </trkpt>
      <trkpt lat="43.94132" lon="0.09701">
        <ele>162.9</ele>
        <time>2025-03-30T09:38:17Z</time>
      </trkpt>
      <trkpt lat="43.94131" lon="0.09701">
        <ele>162.8</ele>
        <time>2025-03-30T09:38:18Z</time>
      </trkpt>
      <trkpt lat="43.94129" lon="0.097">
        <ele>162.8</ele>
        <time>2025-03-30T09:38:19Z</time>
      </trkpt>
      <trkpt lat="43.94128" lon="0.09702">
        <ele>162.7</ele>
        <time>2025-03-30T09:38:20Z</time>
      </trkpt>
      <trkpt lat="43.94126" lon="0.09701">
        <ele>162.7</ele>
        <time>2025-03-30T09:38:22Z</time>
      </trkpt>
      <trkpt lat="43.94125" lon="0.09698">
        <ele>162.6</ele>
        <time>2025-03-30T09:38:23Z</time>
      </trkpt>
      <trkpt lat="43.94123" lon="0.09696">
        <ele>162.5</ele>
        <time>2025-03-30T09:38:24Z</time>
      </trkpt>
      <trkpt lat="43.94122" lon="0.09696">
        <ele>162.5</ele>
        <time>2025-03-30T09:38:25Z</time>
      </trkpt>
      <trkpt lat="43.94121" lon="0.09694">
        <ele>162.4</ele>
        <time>2025-03-30T09:38:26Z</time>
      </trkpt>
      <trkpt lat="43.9412" lon="0.09693">
        <ele>162.4</ele>
        <time>2025-03-30T09:38:27Z</time>
      </trkpt>
      <trkpt lat="43.94119" lon="0.09693">
        <ele>162.4</ele>
        <time>2025-03-30T09:38:28Z</time>
      </trkpt>
      <trkpt lat="43.94117" lon="0.09691">
        <ele>162.3</ele>
        <time>2025-03-30T09:38:29Z</time>
      </trkpt>
      <trkpt lat="43.94117" lon="0.09691">
        <ele>162.3</ele>
        <time>2025-03-30T09:38:30Z</time>
      </trkpt>
      <trkpt lat="43.94116" lon="0.0969">
        <ele>162.2</ele>
        <time>2025-03-30T09:38:31Z</time>
      </trkpt>
      <trkpt lat="43.94114" lon="0.0969">
        <ele>162.2</ele>
        <time>2025-03-30T09:38:32Z</time>
      </trkpt>
      <trkpt lat="43.94113" lon="0.0969">
        <ele>162.1</ele>
        <time>2025-03-30T09:38:33Z</time>
      </trkpt>
      <trkpt lat="43.94112" lon="0.09689">
        <ele>162.1</ele>
        <time>2025-03-30T09:38:34Z</time>
      </trkpt>
      <trkpt lat="43.94111" lon="0.09689">
        <ele>162.1</ele>
        <time>2025-03-30T09:38:35Z</time>
      </trkpt>
      <trkpt lat="43.94109" lon="0.09688">
        <ele>162</ele>
        <time>2025-03-30T09:38:36Z</time>
      </trkpt>
      <trkpt lat="43.94108" lon="0.09688">
        <ele>162</ele>
        <time>2025-03-30T09:38:37Z</time>
      </trkpt>
      <trkpt lat="43.94107" lon="0.09687">
        <ele>161.9</ele>
        <time>2025-03-30T09:38:38Z</time>
      </trkpt>
      <trkpt lat="43.94105" lon="0.09687">
        <ele>161.9</ele>
        <time>2025-03-30T09:38:39Z</time>
      </trkpt>
      <trkpt lat="43.94104" lon="0.09686">
        <ele>161.9</ele>
        <time>2025-03-30T09:38:40Z</time>
      </trkpt>
      <trkpt lat="43.94103" lon="0.09685">
        <ele>161.8</ele>
        <time>2025-03-30T09:38:42Z</time>
      </trkpt>
      <trkpt lat="43.941" lon="0.09683">
        <ele>161.8</ele>
        <time>2025-03-30T09:38:43Z</time>
      </trkpt>
      <trkpt lat="43.941" lon="0.0968">
        <ele>161.7</ele>
        <time>2025-03-30T09:38:44Z</time>
      </trkpt>
      <trkpt lat="43.94098" lon="0.09678">
        <ele>161.7</ele>
        <time>2025-03-30T09:38:45Z</time>
      </trkpt>
      <trkpt lat="43.94098" lon="0.09678">
        <ele>161.7</ele>
        <time>2025-03-30T09:38:46Z</time>
      </trkpt>
      <trkpt lat="43.94097" lon="0.09677">
        <ele>161.6</ele>
        <time>2025-03-30T09:38:47Z</time>
      </trkpt>
      <trkpt lat="43.94095" lon="0.09676">
        <ele>161.6</ele>
        <time>2025-03-30T09:38:48Z</time>
      </trkpt>
      <trkpt lat="43.94094" lon="0.09675">
        <ele>161.6</ele>
        <time>2025-03-30T09:38:49Z</time>
      </trkpt>
      <trkpt lat="43.94093" lon="0.09674">
        <ele>161.5</ele>
        <time>2025-03-30T09:38:50Z</time>
      </trkpt>
      <trkpt lat="43.94091" lon="0.09673">
        <ele>161.5</ele>
        <time>2025-03-30T09:38:51Z</time>
      </trkpt>
      <trkpt lat="43.9409" lon="0.09672">
        <ele>161.5</ele>
        <time>2025-03-30T09:38:52Z</time>
      </trkpt>
      <trkpt lat="43.94089" lon="0.09671">
        <ele>161.4</ele>
        <time>2025-03-30T09:38:53Z</time>
      </trkpt>
      <trkpt lat="43.94088" lon="0.0967">
        <ele>161.4</ele>
        <time>2025-03-30T09:38:54Z</time>
      </trkpt>
      <trkpt lat="43.94087" lon="0.09669">
        <ele>161.4</ele>
        <time>2025-03-30T09:38:55Z</time>
      </trkpt>
      <trkpt lat="43.94085" lon="0.09669">
        <ele>161.3</ele>
        <time>2025-03-30T09:38:56Z</time>
      </trkpt>
      <trkpt lat="43.94084" lon="0.09667">
        <ele>161.3</ele>
        <time>2025-03-30T09:38:57Z</time>
      </trkpt>
      <trkpt lat="43.94082" lon="0.09666">
        <ele>161.3</ele>
        <time>2025-03-30T09:38:58Z</time>
      </trkpt>
      <trkpt lat="43.94081" lon="0.09666">
        <ele>161.2</ele>
        <time>2025-03-30T09:38:59Z</time>
      </trkpt>
      <trkpt lat="43.9408" lon="0.09666">
        <ele>161.2</ele>
        <time>2025-03-30T09:39:00Z</time>
      </trkpt>
      <trkpt lat="43.94079" lon="0.09665">
        <ele>161.2</ele>
        <time>2025-03-30T09:39:01Z</time>
      </trkpt>
      <trkpt lat="43.94078" lon="0.09664">
        <ele>161.2</ele>
        <time>2025-03-30T09:39:02Z</time>
      </trkpt>
      <trkpt lat="43.94076" lon="0.09664">
        <ele>161.1</ele>
        <time>2025-03-30T09:39:03Z</time>
      </trkpt>
      <trkpt lat="43.94075" lon="0.09664">
        <ele>161.1</ele>
        <time>2025-03-30T09:39:04Z</time>
      </trkpt>
      <trkpt lat="43.94073" lon="0.09663">
        <ele>161</ele>
        <time>2025-03-30T09:39:05Z</time>
      </trkpt>
      <trkpt lat="43.94072" lon="0.09663">
        <ele>161</ele>
        <time>2025-03-30T09:39:06Z</time>
      </trkpt>
      <trkpt lat="43.94071" lon="0.09663">
        <ele>161</ele>
        <time>2025-03-30T09:39:07Z</time>
      </trkpt>
      <trkpt lat="43.94069" lon="0.09662">
        <ele>161</ele>
        <time>2025-03-30T09:39:08Z</time>
      </trkpt>
      <trkpt lat="43.94068" lon="0.09661">
        <ele>160.9</ele>
        <time>2025-03-30T09:39:09Z</time>
      </trkpt>
      <trkpt lat="43.94067" lon="0.09661">
        <ele>160.9</ele>
        <time>2025-03-30T09:39:10Z</time>
      </trkpt>
      <trkpt lat="43.94066" lon="0.0966">
        <ele>160.9</ele>
        <time>2025-03-30T09:39:11Z</time>
      </trkpt>
      <trkpt lat="43.94065" lon="0.0966">
        <ele>160.9</ele>
        <time>2025-03-30T09:39:12Z</time>
      </trkpt>
      <trkpt lat="43.94064" lon="0.0966">
        <ele>160.9</ele>
        <time>2025-03-30T09:39:13Z</time>
      </trkpt>
      <trkpt lat="43.94062" lon="0.09661">
        <ele>160.8</ele>
        <time>2025-03-30T09:39:14Z</time>
      </trkpt>
      <trkpt lat="43.94061" lon="0.0966">
        <ele>160.8</ele>
        <time>2025-03-30T09:39:15Z</time>
      </trkpt>
      <trkpt lat="43.9406" lon="0.09659">
        <ele>160.8</ele>
        <time>2025-03-30T09:39:16Z</time>
      </trkpt>
      <trkpt lat="43.94059" lon="0.09658">
        <ele>160.8</ele>
        <time>2025-03-30T09:39:17Z</time>
      </trkpt>
      <trkpt lat="43.94058" lon="0.09657">
        <ele>160.7</ele>
        <time>2025-03-30T09:39:18Z</time>
      </trkpt>
      <trkpt lat="43.94057" lon="0.09655">
        <ele>160.7</ele>
        <time>2025-03-30T09:39:19Z</time>
      </trkpt>
      <trkpt lat="43.94056" lon="0.09655">
        <ele>160.7</ele>
        <time>2025-03-30T09:39:20Z</time>
      </trkpt>
      <trkpt lat="43.94054" lon="0.09653">
        <ele>160.7</ele>
        <time>2025-03-30T09:39:21Z</time>
      </trkpt>
      <trkpt lat="43.94053" lon="0.09652">
        <ele>160.6</ele>
        <time>2025-03-30T09:39:22Z</time>
      </trkpt>
      <trkpt lat="43.94053" lon="0.09651">
        <ele>160.6</ele>
        <time>2025-03-30T09:39:23Z</time>
      </trkpt>
      <trkpt lat="43.94051" lon="0.09651">
        <ele>160.6</ele>
        <time>2025-03-30T09:39:24Z</time>
      </trkpt>
      <trkpt lat="43.9405" lon="0.09651">
        <ele>160.6</ele>
        <time>2025-03-30T09:39:25Z</time>
      </trkpt>
      <trkpt lat="43.94049" lon="0.09652">
        <ele>160.6</ele>
        <time>2025-03-30T09:39:26Z</time>
      </trkpt>
      <trkpt lat="43.94048" lon="0.09652">
        <ele>160.6</ele>
        <time>2025-03-30T09:39:27Z</time>
      </trkpt>
      <trkpt lat="43.94046" lon="0.09652">
        <ele>160.5</ele>
        <time>2025-03-30T09:39:28Z</time>
      </trkpt>
      <trkpt lat="43.94043" lon="0.09651">
        <ele>160.5</ele>
        <time>2025-03-30T09:39:30Z</time>
      </trkpt>
      <trkpt lat="43.94041" lon="0.0965">
        <ele>160.4</ele>
        <time>2025-03-30T09:39:31Z</time>
      </trkpt>
      <trkpt lat="43.9404" lon="0.09649">
        <ele>160.4</ele>
        <time>2025-03-30T09:39:32Z</time>
      </trkpt>
      <trkpt lat="43.94038" lon="0.09648">
        <ele>160.4</ele>
        <time>2025-03-30T09:39:33Z</time>
      </trkpt>
      <trkpt lat="43.94037" lon="0.09648">
        <ele>160.3</ele>
        <time>2025-03-30T09:39:34Z</time>
      </trkpt>
      <trkpt lat="43.94034" lon="0.09646">
        <ele>160.3</ele>
        <time>2025-03-30T09:39:36Z</time>
      </trkpt>
      <trkpt lat="43.94033" lon="0.09646">
        <ele>160.3</ele>
        <time>2025-03-30T09:39:37Z</time>
      </trkpt>
      <trkpt lat="43.94032" lon="0.09645">
        <ele>160.2</ele>
        <time>2025-03-30T09:39:38Z</time>
      </trkpt>
      <trkpt lat="43.94031" lon="0.09644">
        <ele>160.2</ele>
        <time>2025-03-30T09:39:39Z</time>
      </trkpt>
      <trkpt lat="43.9403" lon="0.09644">
        <ele>160.2</ele>
        <time>2025-03-30T09:39:40Z</time>
      </trkpt>
      <trkpt lat="43.94028" lon="0.09643">
        <ele>160.2</ele>
        <time>2025-03-30T09:39:41Z</time>
      </trkpt>
      <trkpt lat="43.94027" lon="0.09643">
        <ele>160.2</ele>
        <time>2025-03-30T09:39:42Z</time>
      </trkpt>
      <trkpt lat="43.94024" lon="0.09642">
        <ele>160.1</ele>
        <time>2025-03-30T09:39:44Z</time>
      </trkpt>
      <trkpt lat="43.94023" lon="0.09642">
        <ele>160.1</ele>
        <time>2025-03-30T09:39:45Z</time>
      </trkpt>
      <trkpt lat="43.94022" lon="0.09641">
        <ele>160.1</ele>
        <time>2025-03-30T09:39:46Z</time>
      </trkpt>
      <trkpt lat="43.9402" lon="0.09641">
        <ele>160.1</ele>
        <time>2025-03-30T09:39:47Z</time>
      </trkpt>
      <trkpt lat="43.94019" lon="0.09641">
        <ele>160.1</ele>
        <time>2025-03-30T09:39:48Z</time>
      </trkpt>
      <trkpt lat="43.94018" lon="0.0964">
        <ele>160.1</ele>
        <time>2025-03-30T09:39:49Z</time>
      </trkpt>
      <trkpt lat="43.94016" lon="0.0964">
        <ele>160.1</ele>
        <time>2025-03-30T09:39:50Z</time>
      </trkpt>
      <trkpt lat="43.94015" lon="0.09639">
        <ele>160</ele>
        <time>2025-03-30T09:39:51Z</time>
      </trkpt>
      <trkpt lat="43.94014" lon="0.09639">
        <ele>160</ele>
        <time>2025-03-30T09:39:52Z</time>
      </trkpt>
      <trkpt lat="43.94012" lon="0.09638">
        <ele>160</ele>
        <time>2025-03-30T09:39:53Z</time>
      </trkpt>
      <trkpt lat="43.9401" lon="0.09637">
        <ele>160</ele>
        <time>2025-03-30T09:39:54Z</time>
      </trkpt>
      <trkpt lat="43.94008" lon="0.09636">
        <ele>160</ele>
        <time>2025-03-30T09:39:56Z</time>
      </trkpt>
      <trkpt lat="43.94007" lon="0.09636">
        <ele>160</ele>
        <time>2025-03-30T09:39:57Z</time>
      </trkpt>
      <trkpt lat="43.94005" lon="0.09635">
        <ele>160</ele>
        <time>2025-03-30T09:39:58Z</time>
      </trkpt>
      <trkpt lat="43.94003" lon="0.09635">
        <ele>160</ele>
        <time>2025-03-30T09:39:59Z</time>
      </trkpt>
      <trkpt lat="43.94" lon="0.09634">
        <ele>160</ele>
        <time>2025-03-30T09:40:01Z</time>
      </trkpt>
      <trkpt lat="43.94" lon="0.09634">
        <ele>160</ele>
        <time>2025-03-30T09:40:02Z</time>
      </trkpt>
      <trkpt lat="43.93998" lon="0.09633">
        <ele>160</ele>
        <time>2025-03-30T09:40:03Z</time>
      </trkpt>
      <trkpt lat="43.93996" lon="0.09633">
        <ele>159.9</ele>
        <time>2025-03-30T09:40:04Z</time>
      </trkpt>
      <trkpt lat="43.93994" lon="0.09632">
        <ele>159.9</ele>
        <time>2025-03-30T09:40:05Z</time>
      </trkpt>
      <trkpt lat="43.93993" lon="0.09632">
        <ele>159.9</ele>
        <time>2025-03-30T09:40:06Z</time>
      </trkpt>
      <trkpt lat="43.93993" lon="0.09632">
        <ele>159.9</ele>
        <time>2025-03-30T09:40:07Z</time>
      </trkpt>
      <trkpt lat="43.93991" lon="0.09631">
        <ele>159.9</ele>
        <time>2025-03-30T09:40:08Z</time>
      </trkpt>
      <trkpt lat="43.9399" lon="0.09631">
        <ele>159.9</ele>
        <time>2025-03-30T09:40:09Z</time>
      </trkpt>
      <trkpt lat="43.93988" lon="0.0963">
        <ele>159.9</ele>
        <time>2025-03-30T09:40:10Z</time>
      </trkpt>
      <trkpt lat="43.93987" lon="0.0963">
        <ele>159.9</ele>
        <time>2025-03-30T09:40:11Z</time>
      </trkpt>
      <trkpt lat="43.93986" lon="0.0963">
        <ele>159.9</ele>
        <time>2025-03-30T09:40:12Z</time>
      </trkpt>
      <trkpt lat="43.93986" lon="0.0963">
        <ele>159.9</ele>
        <time>2025-03-30T09:40:13Z</time>
      </trkpt>
      <trkpt lat="43.93984" lon="0.09627">
        <ele>159.9</ele>
        <time>2025-03-30T09:40:14Z</time>
      </trkpt>
      <trkpt lat="43.93982" lon="0.09626">
        <ele>159.9</ele>
        <time>2025-03-30T09:40:15Z</time>
      </trkpt>
      <trkpt lat="43.93981" lon="0.09625">
        <ele>159.9</ele>
        <time>2025-03-30T09:40:16Z</time>
      </trkpt>
      <trkpt lat="43.9398" lon="0.09625">
        <ele>159.9</ele>
        <time>2025-03-30T09:40:17Z</time>
      </trkpt>
      <trkpt lat="43.93979" lon="0.09624">
        <ele>159.9</ele>
        <time>2025-03-30T09:40:18Z</time>
      </trkpt>
      <trkpt lat="43.93978" lon="0.09622">
        <ele>159.9</ele>
        <time>2025-03-30T09:40:19Z</time>
      </trkpt>
      <trkpt lat="43.93976" lon="0.09621">
        <ele>159.8</ele>
        <time>2025-03-30T09:40:20Z</time>
      </trkpt>
      <trkpt lat="43.93975" lon="0.09621">
        <ele>159.8</ele>
        <time>2025-03-30T09:40:21Z</time>
      </trkpt>
      <trkpt lat="43.93973" lon="0.09619">
        <ele>159.8</ele>
        <time>2025-03-30T09:40:23Z</time>
      </trkpt>
      <trkpt lat="43.93971" lon="0.09619">
        <ele>159.8</ele>
        <time>2025-03-30T09:40:24Z</time>
      </trkpt>
      <trkpt lat="43.9397" lon="0.09618">
        <ele>159.8</ele>
        <time>2025-03-30T09:40:25Z</time>
      </trkpt>
      <trkpt lat="43.93969" lon="0.09618">
        <ele>159.8</ele>
        <time>2025-03-30T09:40:26Z</time>
      </trkpt>
      <trkpt lat="43.93967" lon="0.09617">
        <ele>159.8</ele>
        <time>2025-03-30T09:40:27Z</time>
      </trkpt>
      <trkpt lat="43.93967" lon="0.09617">
        <ele>159.8</ele>
        <time>2025-03-30T09:40:28Z</time>
      </trkpt>
      <trkpt lat="43.93965" lon="0.09617">
        <ele>159.8</ele>
        <time>2025-03-30T09:40:29Z</time>
      </trkpt>
      <trkpt lat="43.93964" lon="0.09617">
        <ele>159.8</ele>
        <time>2025-03-30T09:40:30Z</time>
      </trkpt>
      <trkpt lat="43.93963" lon="0.09617">
        <ele>159.8</ele>
        <time>2025-03-30T09:40:31Z</time>
      </trkpt>
      <trkpt lat="43.93962" lon="0.09617">
        <ele>159.8</ele>
        <time>2025-03-30T09:40:33Z</time>
      </trkpt>
      <trkpt lat="43.9396" lon="0.09615">
        <ele>159.7</ele>
        <time>2025-03-30T09:40:34Z</time>
      </trkpt>
      <trkpt lat="43.93957" lon="0.09613">
        <ele>159.7</ele>
        <time>2025-03-30T09:40:35Z</time>
      </trkpt>
      <trkpt lat="43.93956" lon="0.09612">
        <ele>159.7</ele>
        <time>2025-03-30T09:40:36Z</time>
      </trkpt>
      <trkpt lat="43.93956" lon="0.09611">
        <ele>159.7</ele>
        <time>2025-03-30T09:40:37Z</time>
      </trkpt>
      <trkpt lat="43.93954" lon="0.0961">
        <ele>159.7</ele>
        <time>2025-03-30T09:40:38Z</time>
      </trkpt>
      <trkpt lat="43.93953" lon="0.09609">
        <ele>159.7</ele>
        <time>2025-03-30T09:40:39Z</time>
      </trkpt>
      <trkpt lat="43.93951" lon="0.09608">
        <ele>159.7</ele>
        <time>2025-03-30T09:40:40Z</time>
      </trkpt>
      <trkpt lat="43.93949" lon="0.09608">
        <ele>159.7</ele>
        <time>2025-03-30T09:40:41Z</time>
      </trkpt>
      <trkpt lat="43.93948" lon="0.09607">
        <ele>159.7</ele>
        <time>2025-03-30T09:40:42Z</time>
      </trkpt>
      <trkpt lat="43.93946" lon="0.09607">
        <ele>159.7</ele>
        <time>2025-03-30T09:40:43Z</time>
      </trkpt>
      <trkpt lat="43.93945" lon="0.09607">
        <ele>159.7</ele>
        <time>2025-03-30T09:40:44Z</time>
      </trkpt>
      <trkpt lat="43.93945" lon="0.09607">
        <ele>159.7</ele>
        <time>2025-03-30T09:40:45Z</time>
      </trkpt>
      <trkpt lat="43.93943" lon="0.09608">
        <ele>159.7</ele>
        <time>2025-03-30T09:40:46Z</time>
      </trkpt>
      <trkpt lat="43.93943" lon="0.09607">
        <ele>159.7</ele>
        <time>2025-03-30T09:40:47Z</time>
      </trkpt>
      <trkpt lat="43.93941" lon="0.09606">
        <ele>159.7</ele>
        <time>2025-03-30T09:40:48Z</time>
      </trkpt>
      <trkpt lat="43.9394" lon="0.09604">
        <ele>159.7</ele>
        <time>2025-03-30T09:40:49Z</time>
      </trkpt>
      <trkpt lat="43.93938" lon="0.09601">
        <ele>159.7</ele>
        <time>2025-03-30T09:40:51Z</time>
      </trkpt>
      <trkpt lat="43.93937" lon="0.09599">
        <ele>159.7</ele>
        <time>2025-03-30T09:40:52Z</time>
      </trkpt>
      <trkpt lat="43.93935" lon="0.09597">
        <ele>159.8</ele>
        <time>2025-03-30T09:40:53Z</time>
      </trkpt>
      <trkpt lat="43.93935" lon="0.09597">
        <ele>159.8</ele>
        <time>2025-03-30T09:40:54Z</time>
      </trkpt>
      <trkpt lat="43.93934" lon="0.09596">
        <ele>159.8</ele>
        <time>2025-03-30T09:40:55Z</time>
      </trkpt>
      <trkpt lat="43.93931" lon="0.09594">
        <ele>159.8</ele>
        <time>2025-03-30T09:40:57Z</time>
      </trkpt>
      <trkpt lat="43.9393" lon="0.09593">
        <ele>159.8</ele>
        <time>2025-03-30T09:40:58Z</time>
      </trkpt>
      <trkpt lat="43.93928" lon="0.09592">
        <ele>159.8</ele>
        <time>2025-03-30T09:40:59Z</time>
      </trkpt>
      <trkpt lat="43.93927" lon="0.09591">
        <ele>159.8</ele>
        <time>2025-03-30T09:41:00Z</time>
      </trkpt>
      <trkpt lat="43.93927" lon="0.0959">
        <ele>159.8</ele>
        <time>2025-03-30T09:41:01Z</time>
      </trkpt>
      <trkpt lat="43.93926" lon="0.0959">
        <ele>159.9</ele>
        <time>2025-03-30T09:41:02Z</time>
      </trkpt>
      <trkpt lat="43.93925" lon="0.09589">
        <ele>159.9</ele>
        <time>2025-03-30T09:41:03Z</time>
      </trkpt>
      <trkpt lat="43.93923" lon="0.09589">
        <ele>159.9</ele>
        <time>2025-03-30T09:41:04Z</time>
      </trkpt>
      <trkpt lat="43.93922" lon="0.09588">
        <ele>159.9</ele>
        <time>2025-03-30T09:41:05Z</time>
      </trkpt>
      <trkpt lat="43.9392" lon="0.09587">
        <ele>159.9</ele>
        <time>2025-03-30T09:41:06Z</time>
      </trkpt>
      <trkpt lat="43.9392" lon="0.09586">
        <ele>159.9</ele>
        <time>2025-03-30T09:41:07Z</time>
      </trkpt>
      <trkpt lat="43.93919" lon="0.09585">
        <ele>159.9</ele>
        <time>2025-03-30T09:41:08Z</time>
      </trkpt>
      <trkpt lat="43.93918" lon="0.09584">
        <ele>159.9</ele>
        <time>2025-03-30T09:41:09Z</time>
      </trkpt>
      <trkpt lat="43.93918" lon="0.09584">
        <ele>160</ele>
        <time>2025-03-30T09:41:10Z</time>
      </trkpt>
      <trkpt lat="43.93917" lon="0.09584">
        <ele>160</ele>
        <time>2025-03-30T09:41:11Z</time>
      </trkpt>
      <trkpt lat="43.93915" lon="0.09583">
        <ele>160</ele>
        <time>2025-03-30T09:41:12Z</time>
      </trkpt>
      <trkpt lat="43.93914" lon="0.09582">
        <ele>160</ele>
        <time>2025-03-30T09:41:13Z</time>
      </trkpt>
      <trkpt lat="43.93913" lon="0.09582">
        <ele>160</ele>
        <time>2025-03-30T09:41:14Z</time>
      </trkpt>
      <trkpt lat="43.93912" lon="0.09581">
        <ele>160</ele>
        <time>2025-03-30T09:41:15Z</time>
      </trkpt>
      <trkpt lat="43.93912" lon="0.0958">
        <ele>160</ele>
        <time>2025-03-30T09:41:16Z</time>
      </trkpt>
      <trkpt lat="43.9391" lon="0.09579">
        <ele>160</ele>
        <time>2025-03-30T09:41:17Z</time>
      </trkpt>
      <trkpt lat="43.93908" lon="0.09578">
        <ele>160.1</ele>
        <time>2025-03-30T09:41:18Z</time>
      </trkpt>
      <trkpt lat="43.93907" lon="0.09578">
        <ele>160.1</ele>
        <time>2025-03-30T09:41:19Z</time>
      </trkpt>
      <trkpt lat="43.93904" lon="0.09575">
        <ele>160.1</ele>
        <time>2025-03-30T09:41:21Z</time>
      </trkpt>
      <trkpt lat="43.93903" lon="0.09575">
        <ele>160.1</ele>
        <time>2025-03-30T09:41:22Z</time>
      </trkpt>
      <trkpt lat="43.93902" lon="0.09574">
        <ele>160.1</ele>
        <time>2025-03-30T09:41:23Z</time>
      </trkpt>
      <trkpt lat="43.93901" lon="0.09573">
        <ele>160.1</ele>
        <time>2025-03-30T09:41:24Z</time>
      </trkpt>
      <trkpt lat="43.939" lon="0.09572">
        <ele>160.2</ele>
        <time>2025-03-30T09:41:25Z</time>
      </trkpt>
      <trkpt lat="43.93899" lon="0.09571">
        <ele>160.2</ele>
        <time>2025-03-30T09:41:26Z</time>
      </trkpt>
      <trkpt lat="43.93897" lon="0.0957">
        <ele>160.2</ele>
        <time>2025-03-30T09:41:27Z</time>
      </trkpt>
      <trkpt lat="43.93896" lon="0.09569">
        <ele>160.2</ele>
        <time>2025-03-30T09:41:28Z</time>
      </trkpt>
      <trkpt lat="43.93895" lon="0.09569">
        <ele>160.2</ele>
        <time>2025-03-30T09:41:29Z</time>
      </trkpt>
      <trkpt lat="43.93893" lon="0.09568">
        <ele>160.3</ele>
        <time>2025-03-30T09:41:30Z</time>
      </trkpt>
      <trkpt lat="43.93892" lon="0.09567">
        <ele>160.3</ele>
        <time>2025-03-30T09:41:31Z</time>
      </trkpt>
      <trkpt lat="43.93892" lon="0.09567">
        <ele>160.3</ele>
        <time>2025-03-30T09:41:32Z</time>
      </trkpt>
      <trkpt lat="43.9389" lon="0.09566">
        <ele>160.3</ele>
        <time>2025-03-30T09:41:33Z</time>
      </trkpt>
      <trkpt lat="43.93889" lon="0.09565">
        <ele>160.4</ele>
        <time>2025-03-30T09:41:34Z</time>
      </trkpt>
      <trkpt lat="43.93887" lon="0.09564">
        <ele>160.4</ele>
        <time>2025-03-30T09:41:35Z</time>
      </trkpt>
      <trkpt lat="43.93886" lon="0.09563">
        <ele>160.4</ele>
        <time>2025-03-30T09:41:36Z</time>
      </trkpt>
      <trkpt lat="43.93885" lon="0.09562">
        <ele>160.5</ele>
        <time>2025-03-30T09:41:37Z</time>
      </trkpt>
      <trkpt lat="43.93884" lon="0.09561">
        <ele>160.5</ele>
        <time>2025-03-30T09:41:38Z</time>
      </trkpt>
      <trkpt lat="43.93883" lon="0.09561">
        <ele>160.5</ele>
        <time>2025-03-30T09:41:39Z</time>
      </trkpt>
      <trkpt lat="43.93881" lon="0.0956">
        <ele>160.5</ele>
        <time>2025-03-30T09:41:40Z</time>
      </trkpt>
      <trkpt lat="43.9388" lon="0.09559">
        <ele>160.6</ele>
        <time>2025-03-30T09:41:41Z</time>
      </trkpt>
      <trkpt lat="43.93879" lon="0.09558">
        <ele>160.6</ele>
        <time>2025-03-30T09:41:42Z</time>
      </trkpt>
      <trkpt lat="43.93878" lon="0.09557">
        <ele>160.6</ele>
        <time>2025-03-30T09:41:43Z</time>
      </trkpt>
      <trkpt lat="43.93875" lon="0.09555">
        <ele>160.7</ele>
        <time>2025-03-30T09:41:44Z</time>
      </trkpt>
      <trkpt lat="43.93874" lon="0.09554">
        <ele>160.7</ele>
        <time>2025-03-30T09:41:46Z</time>
      </trkpt>
      <trkpt lat="43.93873" lon="0.09553">
        <ele>160.7</ele>
        <time>2025-03-30T09:41:47Z</time>
      </trkpt>
      <trkpt lat="43.93872" lon="0.09552">
        <ele>160.8</ele>
        <time>2025-03-30T09:41:48Z</time>
      </trkpt>
      <trkpt lat="43.9387" lon="0.09551">
        <ele>160.8</ele>
        <time>2025-03-30T09:41:49Z</time>
      </trkpt>
      <trkpt lat="43.93869" lon="0.0955">
        <ele>160.8</ele>
        <time>2025-03-30T09:41:50Z</time>
      </trkpt>
      <trkpt lat="43.93868" lon="0.09549">
        <ele>160.9</ele>
        <time>2025-03-30T09:41:51Z</time>
      </trkpt>
      <trkpt lat="43.93866" lon="0.09548">
        <ele>160.9</ele>
        <time>2025-03-30T09:41:52Z</time>
      </trkpt>
      <trkpt lat="43.93865" lon="0.09547">
        <ele>160.9</ele>
        <time>2025-03-30T09:41:53Z</time>
      </trkpt>
      <trkpt lat="43.93864" lon="0.09546">
        <ele>161</ele>
        <time>2025-03-30T09:41:54Z</time>
      </trkpt>
      <trkpt lat="43.93862" lon="0.09545">
        <ele>161</ele>
        <time>2025-03-30T09:41:55Z</time>
      </trkpt>
      <trkpt lat="43.93861" lon="0.09545">
        <ele>161</ele>
        <time>2025-03-30T09:41:56Z</time>
      </trkpt>
      <trkpt lat="43.93859" lon="0.09543">
        <ele>161.1</ele>
        <time>2025-03-30T09:41:58Z</time>
      </trkpt>
      <trkpt lat="43.93858" lon="0.09542">
        <ele>161.1</ele>
        <time>2025-03-30T09:41:59Z</time>
      </trkpt>
      <trkpt lat="43.93856" lon="0.09541">
        <ele>161.2</ele>
        <time>2025-03-30T09:42:00Z</time>
      </trkpt>
      <trkpt lat="43.93854" lon="0.0954">
        <ele>161.2</ele>
        <time>2025-03-30T09:42:01Z</time>
      </trkpt>
      <trkpt lat="43.93853" lon="0.09539">
        <ele>161.2</ele>
        <time>2025-03-30T09:42:02Z</time>
      </trkpt>
      <trkpt lat="43.93853" lon="0.09538">
        <ele>161.3</ele>
        <time>2025-03-30T09:42:03Z</time>
      </trkpt>
      <trkpt lat="43.93851" lon="0.09536">
        <ele>161.3</ele>
        <time>2025-03-30T09:42:04Z</time>
      </trkpt>
      <trkpt lat="43.9385" lon="0.09536">
        <ele>161.3</ele>
        <time>2025-03-30T09:42:05Z</time>
      </trkpt>
      <trkpt lat="43.9385" lon="0.09535">
        <ele>161.4</ele>
        <time>2025-03-30T09:42:06Z</time>
      </trkpt>
      <trkpt lat="43.93849" lon="0.09534">
        <ele>161.4</ele>
        <time>2025-03-30T09:42:07Z</time>
      </trkpt>
      <trkpt lat="43.93847" lon="0.09533">
        <ele>161.4</ele>
        <time>2025-03-30T09:42:08Z</time>
      </trkpt>
      <trkpt lat="43.93846" lon="0.09532">
        <ele>161.5</ele>
        <time>2025-03-30T09:42:09Z</time>
      </trkpt>
      <trkpt lat="43.93845" lon="0.09531">
        <ele>161.5</ele>
        <time>2025-03-30T09:42:10Z</time>
      </trkpt>
      <trkpt lat="43.93844" lon="0.0953">
        <ele>161.6</ele>
        <time>2025-03-30T09:42:11Z</time>
      </trkpt>
      <trkpt lat="43.93842" lon="0.09529">
        <ele>161.6</ele>
        <time>2025-03-30T09:42:12Z</time>
      </trkpt>
      <trkpt lat="43.93841" lon="0.09527">
        <ele>161.7</ele>
        <time>2025-03-30T09:42:13Z</time>
      </trkpt>
      <trkpt lat="43.9384" lon="0.09526">
        <ele>161.7</ele>
        <time>2025-03-30T09:42:14Z</time>
      </trkpt>
      <trkpt lat="43.93838" lon="0.09524">
        <ele>161.8</ele>
        <time>2025-03-30T09:42:15Z</time>
      </trkpt>
      <trkpt lat="43.93838" lon="0.09523">
        <ele>161.8</ele>
        <time>2025-03-30T09:42:16Z</time>
      </trkpt>
      <trkpt lat="43.93837" lon="0.09523">
        <ele>161.9</ele>
        <time>2025-03-30T09:42:17Z</time>
      </trkpt>
      <trkpt lat="43.93835" lon="0.09522">
        <ele>162</ele>
        <time>2025-03-30T09:42:18Z</time>
      </trkpt>
      <trkpt lat="43.93834" lon="0.09521">
        <ele>162</ele>
        <time>2025-03-30T09:42:19Z</time>
      </trkpt>
      <trkpt lat="43.93833" lon="0.09521">
        <ele>162.1</ele>
        <time>2025-03-30T09:42:20Z</time>
      </trkpt>
      <trkpt lat="43.93831" lon="0.0952">
        <ele>162.1</ele>
        <time>2025-03-30T09:42:21Z</time>
      </trkpt>
      <trkpt lat="43.9383" lon="0.0952">
        <ele>162.2</ele>
        <time>2025-03-30T09:42:22Z</time>
      </trkpt>
      <trkpt lat="43.93829" lon="0.09519">
        <ele>162.2</ele>
        <time>2025-03-30T09:42:23Z</time>
      </trkpt>
      <trkpt lat="43.93828" lon="0.09519">
        <ele>162.3</ele>
        <time>2025-03-30T09:42:24Z</time>
      </trkpt>
      <trkpt lat="43.93827" lon="0.09518">
        <ele>162.4</ele>
        <time>2025-03-30T09:42:25Z</time>
      </trkpt>
      <trkpt lat="43.93825" lon="0.09516">
        <ele>162.5</ele>
        <time>2025-03-30T09:42:26Z</time>
      </trkpt>
      <trkpt lat="43.93824" lon="0.09516">
        <ele>162.5</ele>
        <time>2025-03-30T09:42:27Z</time>
      </trkpt>
      <trkpt lat="43.93823" lon="0.09515">
        <ele>162.5</ele>
        <time>2025-03-30T09:42:28Z</time>
      </trkpt>
      <trkpt lat="43.93822" lon="0.09514">
        <ele>162.6</ele>
        <time>2025-03-30T09:42:29Z</time>
      </trkpt>
      <trkpt lat="43.93821" lon="0.09513">
        <ele>162.7</ele>
        <time>2025-03-30T09:42:30Z</time>
      </trkpt>
      <trkpt lat="43.93819" lon="0.09512">
        <ele>162.8</ele>
        <time>2025-03-30T09:42:31Z</time>
      </trkpt>
      <trkpt lat="43.93818" lon="0.09512">
        <ele>162.8</ele>
        <time>2025-03-30T09:42:32Z</time>
      </trkpt>
      <trkpt lat="43.93817" lon="0.09511">
        <ele>162.8</ele>
        <time>2025-03-30T09:42:33Z</time>
      </trkpt>
      <trkpt lat="43.93816" lon="0.0951">
        <ele>162.9</ele>
        <time>2025-03-30T09:42:34Z</time>
      </trkpt>
      <trkpt lat="43.93815" lon="0.09509">
        <ele>163</ele>
        <time>2025-03-30T09:42:35Z</time>
      </trkpt>
      <trkpt lat="43.93813" lon="0.09508">
        <ele>163.1</ele>
        <time>2025-03-30T09:42:36Z</time>
      </trkpt>
      <trkpt lat="43.93812" lon="0.09507">
        <ele>163.2</ele>
        <time>2025-03-30T09:42:37Z</time>
      </trkpt>
      <trkpt lat="43.93811" lon="0.09506">
        <ele>163.2</ele>
        <time>2025-03-30T09:42:38Z</time>
      </trkpt>
      <trkpt lat="43.9381" lon="0.09505">
        <ele>163.3</ele>
        <time>2025-03-30T09:42:39Z</time>
      </trkpt>
      <trkpt lat="43.93809" lon="0.09504">
        <ele>163.4</ele>
        <time>2025-03-30T09:42:40Z</time>
      </trkpt>
      <trkpt lat="43.93807" lon="0.09503">
        <ele>163.5</ele>
        <time>2025-03-30T09:42:41Z</time>
      </trkpt>
      <trkpt lat="43.93806" lon="0.09502">
        <ele>163.5</ele>
        <time>2025-03-30T09:42:42Z</time>
      </trkpt>
      <trkpt lat="43.93805" lon="0.09502">
        <ele>163.6</ele>
        <time>2025-03-30T09:42:43Z</time>
      </trkpt>
      <trkpt lat="43.93803" lon="0.095">
        <ele>163.7</ele>
        <time>2025-03-30T09:42:44Z</time>
      </trkpt>
      <trkpt lat="43.93803" lon="0.095">
        <ele>163.7</ele>
        <time>2025-03-30T09:42:45Z</time>
      </trkpt>
      <trkpt lat="43.93802" lon="0.09499">
        <ele>163.8</ele>
        <time>2025-03-30T09:42:46Z</time>
      </trkpt>
      <trkpt lat="43.938" lon="0.09498">
        <ele>163.9</ele>
        <time>2025-03-30T09:42:47Z</time>
      </trkpt>
      <trkpt lat="43.93799" lon="0.09497">
        <ele>164</ele>
        <time>2025-03-30T09:42:48Z</time>
      </trkpt>
      <trkpt lat="43.93798" lon="0.09497">
        <ele>164</ele>
        <time>2025-03-30T09:42:49Z</time>
      </trkpt>
      <trkpt lat="43.93796" lon="0.09496">
        <ele>164.1</ele>
        <time>2025-03-30T09:42:50Z</time>
      </trkpt>
      <trkpt lat="43.93795" lon="0.09495">
        <ele>164.2</ele>
        <time>2025-03-30T09:42:51Z</time>
      </trkpt>
      <trkpt lat="43.93795" lon="0.09495">
        <ele>164.2</ele>
        <time>2025-03-30T09:42:52Z</time>
      </trkpt>
      <trkpt lat="43.93793" lon="0.09494">
        <ele>164.3</ele>
        <time>2025-03-30T09:42:53Z</time>
      </trkpt>
      <trkpt lat="43.93792" lon="0.09493">
        <ele>164.4</ele>
        <time>2025-03-30T09:42:54Z</time>
      </trkpt>
      <trkpt lat="43.93791" lon="0.09493">
        <ele>164.4</ele>
        <time>2025-03-30T09:42:55Z</time>
      </trkpt>
      <trkpt lat="43.9379" lon="0.09492">
        <ele>164.5</ele>
        <time>2025-03-30T09:42:56Z</time>
      </trkpt>
      <trkpt lat="43.93787" lon="0.09491">
        <ele>164.6</ele>
        <time>2025-03-30T09:42:57Z</time>
      </trkpt>
      <trkpt lat="43.93787" lon="0.09491">
        <ele>164.6</ele>
        <time>2025-03-30T09:42:58Z</time>
      </trkpt>
      <trkpt lat="43.93786" lon="0.0949">
        <ele>164.6</ele>
        <time>2025-03-30T09:42:59Z</time>
      </trkpt>
      <trkpt lat="43.93785" lon="0.09489">
        <ele>164.7</ele>
        <time>2025-03-30T09:43:00Z</time>
      </trkpt>
      <trkpt lat="43.93784" lon="0.09488">
        <ele>164.7</ele>
        <time>2025-03-30T09:43:01Z</time>
      </trkpt>
      <trkpt lat="43.93782" lon="0.09486">
        <ele>164.8</ele>
        <time>2025-03-30T09:43:02Z</time>
      </trkpt>
      <trkpt lat="43.93781" lon="0.09485">
        <ele>164.9</ele>
        <time>2025-03-30T09:43:03Z</time>
      </trkpt>
      <trkpt lat="43.9378" lon="0.09484">
        <ele>164.9</ele>
        <time>2025-03-30T09:43:04Z</time>
      </trkpt>
      <trkpt lat="43.93779" lon="0.09483">
        <ele>164.9</ele>
        <time>2025-03-30T09:43:05Z</time>
      </trkpt>
      <trkpt lat="43.93778" lon="0.09482">
        <ele>165</ele>
        <time>2025-03-30T09:43:06Z</time>
      </trkpt>
      <trkpt lat="43.93777" lon="0.09481">
        <ele>165</ele>
        <time>2025-03-30T09:43:07Z</time>
      </trkpt>
      <trkpt lat="43.93776" lon="0.0948">
        <ele>165.1</ele>
        <time>2025-03-30T09:43:08Z</time>
      </trkpt>
      <trkpt lat="43.93774" lon="0.09479">
        <ele>165.1</ele>
        <time>2025-03-30T09:43:09Z</time>
      </trkpt>
      <trkpt lat="43.93773" lon="0.09478">
        <ele>165.2</ele>
        <time>2025-03-30T09:43:10Z</time>
      </trkpt>
      <trkpt lat="43.93772" lon="0.09477">
        <ele>165.2</ele>
        <time>2025-03-30T09:43:11Z</time>
      </trkpt>
      <trkpt lat="43.93771" lon="0.09476">
        <ele>165.3</ele>
        <time>2025-03-30T09:43:12Z</time>
      </trkpt>
      <trkpt lat="43.9377" lon="0.09475">
        <ele>165.3</ele>
        <time>2025-03-30T09:43:13Z</time>
      </trkpt>
      <trkpt lat="43.93769" lon="0.09474">
        <ele>165.3</ele>
        <time>2025-03-30T09:43:14Z</time>
      </trkpt>
      <trkpt lat="43.93767" lon="0.09473">
        <ele>165.4</ele>
        <time>2025-03-30T09:43:15Z</time>
      </trkpt>
      <trkpt lat="43.93766" lon="0.09473">
        <ele>165.4</ele>
        <time>2025-03-30T09:43:16Z</time>
      </trkpt>
      <trkpt lat="43.93765" lon="0.09472">
        <ele>165.4</ele>
        <time>2025-03-30T09:43:17Z</time>
      </trkpt>
      <trkpt lat="43.93764" lon="0.09472">
        <ele>165.4</ele>
        <time>2025-03-30T09:43:18Z</time>
      </trkpt>
      <trkpt lat="43.93763" lon="0.09471">
        <ele>165.5</ele>
        <time>2025-03-30T09:43:19Z</time>
      </trkpt>
      <trkpt lat="43.93762" lon="0.0947">
        <ele>165.5</ele>
        <time>2025-03-30T09:43:20Z</time>
      </trkpt>
      <trkpt lat="43.93761" lon="0.09469">
        <ele>165.5</ele>
        <time>2025-03-30T09:43:21Z</time>
      </trkpt>
      <trkpt lat="43.9376" lon="0.09469">
        <ele>165.5</ele>
        <time>2025-03-30T09:43:22Z</time>
      </trkpt>
      <trkpt lat="43.93758" lon="0.09468">
        <ele>165.6</ele>
        <time>2025-03-30T09:43:23Z</time>
      </trkpt>
      <trkpt lat="43.93757" lon="0.09467">
        <ele>165.6</ele>
        <time>2025-03-30T09:43:24Z</time>
      </trkpt>
      <trkpt lat="43.93756" lon="0.09466">
        <ele>165.6</ele>
        <time>2025-03-30T09:43:25Z</time>
      </trkpt>
      <trkpt lat="43.93754" lon="0.09465">
        <ele>165.7</ele>
        <time>2025-03-30T09:43:26Z</time>
      </trkpt>
      <trkpt lat="43.93753" lon="0.09464">
        <ele>165.7</ele>
        <time>2025-03-30T09:43:27Z</time>
      </trkpt>
      <trkpt lat="43.93752" lon="0.09464">
        <ele>165.7</ele>
        <time>2025-03-30T09:43:28Z</time>
      </trkpt>
      <trkpt lat="43.93751" lon="0.09463">
        <ele>165.7</ele>
        <time>2025-03-30T09:43:29Z</time>
      </trkpt>
      <trkpt lat="43.9375" lon="0.09462">
        <ele>165.7</ele>
        <time>2025-03-30T09:43:30Z</time>
      </trkpt>
      <trkpt lat="43.93748" lon="0.09461">
        <ele>165.7</ele>
        <time>2025-03-30T09:43:31Z</time>
      </trkpt>
      <trkpt lat="43.93747" lon="0.0946">
        <ele>165.8</ele>
        <time>2025-03-30T09:43:32Z</time>
      </trkpt>
      <trkpt lat="43.93746" lon="0.0946">
        <ele>165.8</ele>
        <time>2025-03-30T09:43:33Z</time>
      </trkpt>
      <trkpt lat="43.93745" lon="0.09459">
        <ele>165.8</ele>
        <time>2025-03-30T09:43:34Z</time>
      </trkpt>
      <trkpt lat="43.93744" lon="0.09458">
        <ele>165.8</ele>
        <time>2025-03-30T09:43:35Z</time>
      </trkpt>
      <trkpt lat="43.93743" lon="0.09457">
        <ele>165.8</ele>
        <time>2025-03-30T09:43:36Z</time>
      </trkpt>
      <trkpt lat="43.9374" lon="0.09455">
        <ele>165.8</ele>
        <time>2025-03-30T09:43:38Z</time>
      </trkpt>
      <trkpt lat="43.93739" lon="0.09455">
        <ele>165.8</ele>
        <time>2025-03-30T09:43:39Z</time>
      </trkpt>
      <trkpt lat="43.93737" lon="0.09454">
        <ele>165.8</ele>
        <time>2025-03-30T09:43:40Z</time>
      </trkpt>
      <trkpt lat="43.93735" lon="0.09452">
        <ele>165.8</ele>
        <time>2025-03-30T09:43:41Z</time>
      </trkpt>
      <trkpt lat="43.93734" lon="0.09452">
        <ele>165.8</ele>
        <time>2025-03-30T09:43:42Z</time>
      </trkpt>
      <trkpt lat="43.93733" lon="0.09451">
        <ele>165.8</ele>
        <time>2025-03-30T09:43:43Z</time>
      </trkpt>
      <trkpt lat="43.93732" lon="0.0945">
        <ele>165.7</ele>
        <time>2025-03-30T09:43:44Z</time>
      </trkpt>
      <trkpt lat="43.9373" lon="0.09449">
        <ele>165.7</ele>
        <time>2025-03-30T09:43:45Z</time>
      </trkpt>
      <trkpt lat="43.93729" lon="0.09448">
        <ele>165.7</ele>
        <time>2025-03-30T09:43:46Z</time>
      </trkpt>
      <trkpt lat="43.93728" lon="0.09447">
        <ele>165.7</ele>
        <time>2025-03-30T09:43:47Z</time>
      </trkpt>
      <trkpt lat="43.93727" lon="0.09446">
        <ele>165.7</ele>
        <time>2025-03-30T09:43:48Z</time>
      </trkpt>
      <trkpt lat="43.93726" lon="0.09445">
        <ele>165.6</ele>
        <time>2025-03-30T09:43:49Z</time>
      </trkpt>
      <trkpt lat="43.93725" lon="0.09445">
        <ele>165.6</ele>
        <time>2025-03-30T09:43:50Z</time>
      </trkpt>
      <trkpt lat="43.93723" lon="0.09444">
        <ele>165.6</ele>
        <time>2025-03-30T09:43:51Z</time>
      </trkpt>
      <trkpt lat="43.93722" lon="0.09443">
        <ele>165.5</ele>
        <time>2025-03-30T09:43:52Z</time>
      </trkpt>
      <trkpt lat="43.93721" lon="0.09442">
        <ele>165.5</ele>
        <time>2025-03-30T09:43:53Z</time>
      </trkpt>
      <trkpt lat="43.93719" lon="0.09442">
        <ele>165.5</ele>
        <time>2025-03-30T09:43:54Z</time>
      </trkpt>
      <trkpt lat="43.93718" lon="0.09441">
        <ele>165.4</ele>
        <time>2025-03-30T09:43:55Z</time>
      </trkpt>
      <trkpt lat="43.93717" lon="0.09441">
        <ele>165.4</ele>
        <time>2025-03-30T09:43:56Z</time>
      </trkpt>
      <trkpt lat="43.93715" lon="0.0944">
        <ele>165.3</ele>
        <time>2025-03-30T09:43:57Z</time>
      </trkpt>
      <trkpt lat="43.93714" lon="0.09439">
        <ele>165.3</ele>
        <time>2025-03-30T09:43:58Z</time>
      </trkpt>
      <trkpt lat="43.93714" lon="0.09438">
        <ele>165.3</ele>
        <time>2025-03-30T09:43:59Z</time>
      </trkpt>
      <trkpt lat="43.93714" lon="0.09437">
        <ele>165.3</ele>
        <time>2025-03-30T09:44:00Z</time>
      </trkpt>
      <trkpt lat="43.93714" lon="0.09436">
        <ele>165.2</ele>
        <time>2025-03-30T09:44:01Z</time>
      </trkpt>
      <trkpt lat="43.93713" lon="0.09436">
        <ele>165.2</ele>
        <time>2025-03-30T09:44:02Z</time>
      </trkpt>
      <trkpt lat="43.93712" lon="0.09434">
        <ele>165.2</ele>
        <time>2025-03-30T09:44:03Z</time>
      </trkpt>
      <trkpt lat="43.93711" lon="0.09433">
        <ele>165.1</ele>
        <time>2025-03-30T09:44:04Z</time>
      </trkpt>
      <trkpt lat="43.9371" lon="0.09432">
        <ele>165.1</ele>
        <time>2025-03-30T09:44:05Z</time>
      </trkpt>
      <trkpt lat="43.93708" lon="0.09431">
        <ele>165</ele>
        <time>2025-03-30T09:44:06Z</time>
      </trkpt>
      <trkpt lat="43.93707" lon="0.09431">
        <ele>165</ele>
        <time>2025-03-30T09:44:07Z</time>
      </trkpt>
      <trkpt lat="43.93706" lon="0.0943">
        <ele>165</ele>
        <time>2025-03-30T09:44:08Z</time>
      </trkpt>
      <trkpt lat="43.93704" lon="0.09429">
        <ele>164.9</ele>
        <time>2025-03-30T09:44:09Z</time>
      </trkpt>
      <trkpt lat="43.93703" lon="0.09429">
        <ele>164.9</ele>
        <time>2025-03-30T09:44:10Z</time>
      </trkpt>
      <trkpt lat="43.93702" lon="0.09428">
        <ele>164.8</ele>
        <time>2025-03-30T09:44:11Z</time>
      </trkpt>
      <trkpt lat="43.93701" lon="0.09428">
        <ele>164.8</ele>
        <time>2025-03-30T09:44:12Z</time>
      </trkpt>
      <trkpt lat="43.93699" lon="0.09427">
        <ele>164.7</ele>
        <time>2025-03-30T09:44:13Z</time>
      </trkpt>
      <trkpt lat="43.93698" lon="0.09427">
        <ele>164.7</ele>
        <time>2025-03-30T09:44:14Z</time>
      </trkpt>
      <trkpt lat="43.93696" lon="0.09425">
        <ele>164.6</ele>
        <time>2025-03-30T09:44:15Z</time>
      </trkpt>
      <trkpt lat="43.93695" lon="0.09425">
        <ele>164.6</ele>
        <time>2025-03-30T09:44:16Z</time>
      </trkpt>
      <trkpt lat="43.93695" lon="0.09424">
        <ele>164.6</ele>
        <time>2025-03-30T09:44:17Z</time>
      </trkpt>
      <trkpt lat="43.93693" lon="0.09423">
        <ele>164.6</ele>
        <time>2025-03-30T09:44:18Z</time>
      </trkpt>
      <trkpt lat="43.93692" lon="0.09422">
        <ele>164.5</ele>
        <time>2025-03-30T09:44:19Z</time>
      </trkpt>
      <trkpt lat="43.9369" lon="0.09421">
        <ele>164.5</ele>
        <time>2025-03-30T09:44:21Z</time>
      </trkpt>
      <trkpt lat="43.93689" lon="0.0942">
        <ele>164.4</ele>
        <time>2025-03-30T09:44:22Z</time>
      </trkpt>
      <trkpt lat="43.93686" lon="0.09419">
        <ele>164.4</ele>
        <time>2025-03-30T09:44:24Z</time>
      </trkpt>
      <trkpt lat="43.93684" lon="0.09417">
        <ele>164.3</ele>
        <time>2025-03-30T09:44:25Z</time>
      </trkpt>
      <trkpt lat="43.93684" lon="0.09417">
        <ele>164.3</ele>
        <time>2025-03-30T09:44:26Z</time>
      </trkpt>
      <trkpt lat="43.93683" lon="0.09416">
        <ele>164.3</ele>
        <time>2025-03-30T09:44:27Z</time>
      </trkpt>
      <trkpt lat="43.93682" lon="0.09416">
        <ele>164.3</ele>
        <time>2025-03-30T09:44:28Z</time>
      </trkpt>
      <trkpt lat="43.93681" lon="0.09415">
        <ele>164.2</ele>
        <time>2025-03-30T09:44:29Z</time>
      </trkpt>
      <trkpt lat="43.9368" lon="0.09414">
        <ele>164.2</ele>
        <time>2025-03-30T09:44:30Z</time>
      </trkpt>
      <trkpt lat="43.93677" lon="0.09412">
        <ele>164.1</ele>
        <time>2025-03-30T09:44:32Z</time>
      </trkpt>
      <trkpt lat="43.93676" lon="0.09411">
        <ele>164.1</ele>
        <time>2025-03-30T09:44:33Z</time>
      </trkpt>
      <trkpt lat="43.93675" lon="0.0941">
        <ele>164.1</ele>
        <time>2025-03-30T09:44:34Z</time>
      </trkpt>
      <trkpt lat="43.93674" lon="0.09409">
        <ele>164.1</ele>
        <time>2025-03-30T09:44:35Z</time>
      </trkpt>
      <trkpt lat="43.93673" lon="0.09408">
        <ele>164</ele>
        <time>2025-03-30T09:44:36Z</time>
      </trkpt>
      <trkpt lat="43.93671" lon="0.09408">
        <ele>164</ele>
        <time>2025-03-30T09:44:37Z</time>
      </trkpt>
      <trkpt lat="43.9367" lon="0.09407">
        <ele>164</ele>
        <time>2025-03-30T09:44:38Z</time>
      </trkpt>
      <trkpt lat="43.93668" lon="0.09405">
        <ele>163.9</ele>
        <time>2025-03-30T09:44:39Z</time>
      </trkpt>
      <trkpt lat="43.93667" lon="0.09405">
        <ele>163.9</ele>
        <time>2025-03-30T09:44:40Z</time>
      </trkpt>
      <trkpt lat="43.93666" lon="0.09404">
        <ele>163.9</ele>
        <time>2025-03-30T09:44:41Z</time>
      </trkpt>
      <trkpt lat="43.93665" lon="0.09403">
        <ele>163.9</ele>
        <time>2025-03-30T09:44:42Z</time>
      </trkpt>
      <trkpt lat="43.93664" lon="0.09402">
        <ele>163.9</ele>
        <time>2025-03-30T09:44:43Z</time>
      </trkpt>
      <trkpt lat="43.93662" lon="0.09401">
        <ele>163.9</ele>
        <time>2025-03-30T09:44:44Z</time>
      </trkpt>
      <trkpt lat="43.93661" lon="0.09401">
        <ele>163.9</ele>
        <time>2025-03-30T09:44:45Z</time>
      </trkpt>
      <trkpt lat="43.9366" lon="0.09401">
        <ele>163.9</ele>
        <time>2025-03-30T09:44:46Z</time>
      </trkpt>
      <trkpt lat="43.93659" lon="0.094">
        <ele>163.8</ele>
        <time>2025-03-30T09:44:47Z</time>
      </trkpt>
      <trkpt lat="43.93657" lon="0.094">
        <ele>163.8</ele>
        <time>2025-03-30T09:44:48Z</time>
      </trkpt>
      <trkpt lat="43.93656" lon="0.09399">
        <ele>163.8</ele>
        <time>2025-03-30T09:44:49Z</time>
      </trkpt>
      <trkpt lat="43.93655" lon="0.09399">
        <ele>163.8</ele>
        <time>2025-03-30T09:44:50Z</time>
      </trkpt>
      <trkpt lat="43.93653" lon="0.09398">
        <ele>163.8</ele>
        <time>2025-03-30T09:44:51Z</time>
      </trkpt>
      <trkpt lat="43.93652" lon="0.09397">
        <ele>163.8</ele>
        <time>2025-03-30T09:44:52Z</time>
      </trkpt>
      <trkpt lat="43.93651" lon="0.09397">
        <ele>163.8</ele>
        <time>2025-03-30T09:44:53Z</time>
      </trkpt>
      <trkpt lat="43.93649" lon="0.09395">
        <ele>163.8</ele>
        <time>2025-03-30T09:44:54Z</time>
      </trkpt>
      <trkpt lat="43.93649" lon="0.09394">
        <ele>163.8</ele>
        <time>2025-03-30T09:44:55Z</time>
      </trkpt>
      <trkpt lat="43.93648" lon="0.09394">
        <ele>163.8</ele>
        <time>2025-03-30T09:44:56Z</time>
      </trkpt>
      <trkpt lat="43.93647" lon="0.09391">
        <ele>163.8</ele>
        <time>2025-03-30T09:44:57Z</time>
      </trkpt>
      <trkpt lat="43.93648" lon="0.09389">
        <ele>163.8</ele>
        <time>2025-03-30T09:44:58Z</time>
      </trkpt>
      <trkpt lat="43.93647" lon="0.09387">
        <ele>163.7</ele>
        <time>2025-03-30T09:44:59Z</time>
      </trkpt>
      <trkpt lat="43.93646" lon="0.09386">
        <ele>163.7</ele>
        <time>2025-03-30T09:45:00Z</time>
      </trkpt>
      <trkpt lat="43.93645" lon="0.09385">
        <ele>163.7</ele>
        <time>2025-03-30T09:45:01Z</time>
      </trkpt>
      <trkpt lat="43.93644" lon="0.09383">
        <ele>163.7</ele>
        <time>2025-03-30T09:45:02Z</time>
      </trkpt>
      <trkpt lat="43.93642" lon="0.09382">
        <ele>163.7</ele>
        <time>2025-03-30T09:45:03Z</time>
      </trkpt>
      <trkpt lat="43.93641" lon="0.09382">
        <ele>163.7</ele>
        <time>2025-03-30T09:45:04Z</time>
      </trkpt>
      <trkpt lat="43.9364" lon="0.09381">
        <ele>163.7</ele>
        <time>2025-03-30T09:45:05Z</time>
      </trkpt>
      <trkpt lat="43.93639" lon="0.0938">
        <ele>163.8</ele>
        <time>2025-03-30T09:45:06Z</time>
      </trkpt>
      <trkpt lat="43.93638" lon="0.09379">
        <ele>163.8</ele>
        <time>2025-03-30T09:45:07Z</time>
      </trkpt>
      <trkpt lat="43.93637" lon="0.09376">
        <ele>163.8</ele>
        <time>2025-03-30T09:45:08Z</time>
      </trkpt>
      <trkpt lat="43.93637" lon="0.09375">
        <ele>163.8</ele>
        <time>2025-03-30T09:45:09Z</time>
      </trkpt>
      <trkpt lat="43.93637" lon="0.09373">
        <ele>163.8</ele>
        <time>2025-03-30T09:45:10Z</time>
      </trkpt>
      <trkpt lat="43.93638" lon="0.09372">
        <ele>163.8</ele>
        <time>2025-03-30T09:45:11Z</time>
      </trkpt>
      <trkpt lat="43.93639" lon="0.0937">
        <ele>163.9</ele>
        <time>2025-03-30T09:45:12Z</time>
      </trkpt>
      <trkpt lat="43.9364" lon="0.09368">
        <ele>163.9</ele>
        <time>2025-03-30T09:45:13Z</time>
      </trkpt>
      <trkpt lat="43.9364" lon="0.09366">
        <ele>163.9</ele>
        <time>2025-03-30T09:45:14Z</time>
      </trkpt>
      <trkpt lat="43.93641" lon="0.09365">
        <ele>163.9</ele>
        <time>2025-03-30T09:45:15Z</time>
      </trkpt>
      <trkpt lat="43.93642" lon="0.09363">
        <ele>163.9</ele>
        <time>2025-03-30T09:45:16Z</time>
      </trkpt>
      <trkpt lat="43.93643" lon="0.09362">
        <ele>164</ele>
        <time>2025-03-30T09:45:17Z</time>
      </trkpt>
      <trkpt lat="43.93644" lon="0.09361">
        <ele>164</ele>
        <time>2025-03-30T09:45:18Z</time>
      </trkpt>
      <trkpt lat="43.93644" lon="0.0936">
        <ele>164</ele>
        <time>2025-03-30T09:45:19Z</time>
      </trkpt>
      <trkpt lat="43.93646" lon="0.09358">
        <ele>164</ele>
        <time>2025-03-30T09:45:20Z</time>
      </trkpt>
      <trkpt lat="43.93647" lon="0.09357">
        <ele>164</ele>
        <time>2025-03-30T09:45:21Z</time>
      </trkpt>
      <trkpt lat="43.93647" lon="0.09356">
        <ele>164.1</ele>
        <time>2025-03-30T09:45:22Z</time>
      </trkpt>
      <trkpt lat="43.93648" lon="0.09355">
        <ele>164.1</ele>
        <time>2025-03-30T09:45:23Z</time>
      </trkpt>
      <trkpt lat="43.93649" lon="0.09353">
        <ele>164.1</ele>
        <time>2025-03-30T09:45:24Z</time>
      </trkpt>
      <trkpt lat="43.93651" lon="0.09351">
        <ele>164.2</ele>
        <time>2025-03-30T09:45:25Z</time>
      </trkpt>
      <trkpt lat="43.93651" lon="0.0935">
        <ele>164.2</ele>
        <time>2025-03-30T09:45:26Z</time>
      </trkpt>
      <trkpt lat="43.93652" lon="0.09349">
        <ele>164.3</ele>
        <time>2025-03-30T09:45:27Z</time>
      </trkpt>
      <trkpt lat="43.93653" lon="0.09346">
        <ele>164.3</ele>
        <time>2025-03-30T09:45:28Z</time>
      </trkpt>
      <trkpt lat="43.93654" lon="0.09345">
        <ele>164.3</ele>
        <time>2025-03-30T09:45:29Z</time>
      </trkpt>
      <trkpt lat="43.93654" lon="0.09344">
        <ele>164.4</ele>
        <time>2025-03-30T09:45:30Z</time>
      </trkpt>
      <trkpt lat="43.93655" lon="0.09345">
        <ele>164.4</ele>
        <time>2025-03-30T09:45:31Z</time>
      </trkpt>
      <trkpt lat="43.93656" lon="0.09343">
        <ele>164.4</ele>
        <time>2025-03-30T09:45:32Z</time>
      </trkpt>
      <trkpt lat="43.93657" lon="0.09342">
        <ele>164.5</ele>
        <time>2025-03-30T09:45:33Z</time>
      </trkpt>
      <trkpt lat="43.93658" lon="0.09341">
        <ele>164.5</ele>
        <time>2025-03-30T09:45:34Z</time>
      </trkpt>
      <trkpt lat="43.93658" lon="0.09339">
        <ele>164.5</ele>
        <time>2025-03-30T09:45:35Z</time>
      </trkpt>
      <trkpt lat="43.93659" lon="0.09336">
        <ele>164.6</ele>
        <time>2025-03-30T09:45:36Z</time>
      </trkpt>
      <trkpt lat="43.9366" lon="0.09335">
        <ele>164.6</ele>
        <time>2025-03-30T09:45:37Z</time>
      </trkpt>
      <trkpt lat="43.93661" lon="0.09334">
        <ele>164.7</ele>
        <time>2025-03-30T09:45:38Z</time>
      </trkpt>
      <trkpt lat="43.93662" lon="0.09332">
        <ele>164.7</ele>
        <time>2025-03-30T09:45:39Z</time>
      </trkpt>
      <trkpt lat="43.93663" lon="0.0933">
        <ele>164.7</ele>
        <time>2025-03-30T09:45:40Z</time>
      </trkpt>
      <trkpt lat="43.93664" lon="0.09329">
        <ele>164.7</ele>
        <time>2025-03-30T09:45:41Z</time>
      </trkpt>
      <trkpt lat="43.93665" lon="0.09327">
        <ele>164.7</ele>
        <time>2025-03-30T09:45:42Z</time>
      </trkpt>
      <trkpt lat="43.93666" lon="0.09325">
        <ele>164.7</ele>
        <time>2025-03-30T09:45:43Z</time>
      </trkpt>
      <trkpt lat="43.93666" lon="0.09323">
        <ele>164.7</ele>
        <time>2025-03-30T09:45:44Z</time>
      </trkpt>
      <trkpt lat="43.93667" lon="0.09321">
        <ele>164.7</ele>
        <time>2025-03-30T09:45:45Z</time>
      </trkpt>
      <trkpt lat="43.93668" lon="0.0932">
        <ele>164.7</ele>
        <time>2025-03-30T09:45:46Z</time>
      </trkpt>
      <trkpt lat="43.93669" lon="0.09319">
        <ele>164.7</ele>
        <time>2025-03-30T09:45:47Z</time>
      </trkpt>
      <trkpt lat="43.93669" lon="0.09318">
        <ele>164.7</ele>
        <time>2025-03-30T09:45:48Z</time>
      </trkpt>
      <trkpt lat="43.9367" lon="0.09316">
        <ele>164.7</ele>
        <time>2025-03-30T09:45:49Z</time>
      </trkpt>
      <trkpt lat="43.93671" lon="0.09314">
        <ele>164.7</ele>
        <time>2025-03-30T09:45:50Z</time>
      </trkpt>
      <trkpt lat="43.93672" lon="0.09313">
        <ele>164.7</ele>
        <time>2025-03-30T09:45:51Z</time>
      </trkpt>
      <trkpt lat="43.93672" lon="0.09311">
        <ele>164.7</ele>
        <time>2025-03-30T09:45:52Z</time>
      </trkpt>
      <trkpt lat="43.93673" lon="0.0931">
        <ele>164.7</ele>
        <time>2025-03-30T09:45:53Z</time>
      </trkpt>
      <trkpt lat="43.93674" lon="0.09308">
        <ele>164.7</ele>
        <time>2025-03-30T09:45:54Z</time>
      </trkpt>
      <trkpt lat="43.93674" lon="0.09307">
        <ele>164.7</ele>
        <time>2025-03-30T09:45:55Z</time>
      </trkpt>
      <trkpt lat="43.93675" lon="0.09305">
        <ele>164.7</ele>
        <time>2025-03-30T09:45:56Z</time>
      </trkpt>
      <trkpt lat="43.93676" lon="0.09304">
        <ele>164.7</ele>
        <time>2025-03-30T09:45:57Z</time>
      </trkpt>
      <trkpt lat="43.93677" lon="0.09303">
        <ele>164.7</ele>
        <time>2025-03-30T09:45:58Z</time>
      </trkpt>
      <trkpt lat="43.93678" lon="0.09301">
        <ele>164.7</ele>
        <time>2025-03-30T09:45:59Z</time>
      </trkpt>
      <trkpt lat="43.93679" lon="0.09299">
        <ele>164.7</ele>
        <time>2025-03-30T09:46:00Z</time>
      </trkpt>
      <trkpt lat="43.9368" lon="0.09298">
        <ele>164.7</ele>
        <time>2025-03-30T09:46:01Z</time>
      </trkpt>
      <trkpt lat="43.9368" lon="0.09297">
        <ele>164.7</ele>
        <time>2025-03-30T09:46:02Z</time>
      </trkpt>
      <trkpt lat="43.93681" lon="0.09296">
        <ele>164.7</ele>
        <time>2025-03-30T09:46:03Z</time>
      </trkpt>
      <trkpt lat="43.93682" lon="0.09294">
        <ele>164.7</ele>
        <time>2025-03-30T09:46:04Z</time>
      </trkpt>
      <trkpt lat="43.93684" lon="0.09292">
        <ele>164.7</ele>
        <time>2025-03-30T09:46:05Z</time>
      </trkpt>
      <trkpt lat="43.93684" lon="0.09291">
        <ele>164.7</ele>
        <time>2025-03-30T09:46:06Z</time>
      </trkpt>
      <trkpt lat="43.93685" lon="0.0929">
        <ele>164.7</ele>
        <time>2025-03-30T09:46:07Z</time>
      </trkpt>
      <trkpt lat="43.93686" lon="0.09288">
        <ele>164.8</ele>
        <time>2025-03-30T09:46:08Z</time>
      </trkpt>
      <trkpt lat="43.93687" lon="0.09287">
        <ele>164.8</ele>
        <time>2025-03-30T09:46:09Z</time>
      </trkpt>
      <trkpt lat="43.93688" lon="0.09285">
        <ele>164.8</ele>
        <time>2025-03-30T09:46:10Z</time>
      </trkpt>
      <trkpt lat="43.93689" lon="0.09284">
        <ele>164.8</ele>
        <time>2025-03-30T09:46:11Z</time>
      </trkpt>
      <trkpt lat="43.93689" lon="0.09283">
        <ele>164.8</ele>
        <time>2025-03-30T09:46:12Z</time>
      </trkpt>
      <trkpt lat="43.9369" lon="0.09282">
        <ele>164.8</ele>
        <time>2025-03-30T09:46:13Z</time>
      </trkpt>
      <trkpt lat="43.93691" lon="0.0928">
        <ele>164.9</ele>
        <time>2025-03-30T09:46:14Z</time>
      </trkpt>
      <trkpt lat="43.93692" lon="0.09278">
        <ele>164.9</ele>
        <time>2025-03-30T09:46:15Z</time>
      </trkpt>
      <trkpt lat="43.93693" lon="0.09277">
        <ele>164.9</ele>
        <time>2025-03-30T09:46:16Z</time>
      </trkpt>
      <trkpt lat="43.93693" lon="0.09276">
        <ele>164.9</ele>
        <time>2025-03-30T09:46:17Z</time>
      </trkpt>
      <trkpt lat="43.93694" lon="0.09274">
        <ele>164.9</ele>
        <time>2025-03-30T09:46:18Z</time>
      </trkpt>
      <trkpt lat="43.93696" lon="0.09272">
        <ele>164.9</ele>
        <time>2025-03-30T09:46:19Z</time>
      </trkpt>
      <trkpt lat="43.93697" lon="0.09271">
        <ele>164.9</ele>
        <time>2025-03-30T09:46:20Z</time>
      </trkpt>
      <trkpt lat="43.93698" lon="0.0927">
        <ele>164.9</ele>
        <time>2025-03-30T09:46:21Z</time>
      </trkpt>
      <trkpt lat="43.93698" lon="0.09268">
        <ele>164.9</ele>
        <time>2025-03-30T09:46:22Z</time>
      </trkpt>
      <trkpt lat="43.93698" lon="0.09266">
        <ele>164.9</ele>
        <time>2025-03-30T09:46:23Z</time>
      </trkpt>
      <trkpt lat="43.93699" lon="0.09264">
        <ele>164.9</ele>
        <time>2025-03-30T09:46:24Z</time>
      </trkpt>
      <trkpt lat="43.937" lon="0.09262">
        <ele>164.9</ele>
        <time>2025-03-30T09:46:25Z</time>
      </trkpt>
      <trkpt lat="43.93701" lon="0.09261">
        <ele>164.9</ele>
        <time>2025-03-30T09:46:26Z</time>
      </trkpt>
      <trkpt lat="43.93702" lon="0.09261">
        <ele>164.9</ele>
        <time>2025-03-30T09:46:27Z</time>
      </trkpt>
      <trkpt lat="43.93702" lon="0.09259">
        <ele>164.9</ele>
        <time>2025-03-30T09:46:28Z</time>
      </trkpt>
      <trkpt lat="43.93703" lon="0.09258">
        <ele>164.9</ele>
        <time>2025-03-30T09:46:29Z</time>
      </trkpt>
      <trkpt lat="43.93704" lon="0.09257">
        <ele>164.9</ele>
        <time>2025-03-30T09:46:30Z</time>
      </trkpt>
      <trkpt lat="43.93706" lon="0.09253">
        <ele>164.9</ele>
        <time>2025-03-30T09:46:32Z</time>
      </trkpt>
      <trkpt lat="43.93706" lon="0.09252">
        <ele>164.9</ele>
        <time>2025-03-30T09:46:33Z</time>
      </trkpt>
      <trkpt lat="43.93707" lon="0.0925">
        <ele>164.9</ele>
        <time>2025-03-30T09:46:34Z</time>
      </trkpt>
      <trkpt lat="43.93708" lon="0.09249">
        <ele>164.8</ele>
        <time>2025-03-30T09:46:35Z</time>
      </trkpt>
      <trkpt lat="43.93708" lon="0.09247">
        <ele>164.8</ele>
        <time>2025-03-30T09:46:36Z</time>
      </trkpt>
      <trkpt lat="43.93709" lon="0.09246">
        <ele>164.8</ele>
        <time>2025-03-30T09:46:37Z</time>
      </trkpt>
      <trkpt lat="43.9371" lon="0.09244">
        <ele>164.8</ele>
        <time>2025-03-30T09:46:38Z</time>
      </trkpt>
      <trkpt lat="43.93712" lon="0.09241">
        <ele>164.8</ele>
        <time>2025-03-30T09:46:40Z</time>
      </trkpt>
      <trkpt lat="43.93711" lon="0.09239">
        <ele>164.8</ele>
        <time>2025-03-30T09:46:41Z</time>
      </trkpt>
      <trkpt lat="43.93712" lon="0.09238">
        <ele>164.8</ele>
        <time>2025-03-30T09:46:42Z</time>
      </trkpt>
      <trkpt lat="43.93714" lon="0.09237">
        <ele>164.8</ele>
        <time>2025-03-30T09:46:43Z</time>
      </trkpt>
      <trkpt lat="43.93714" lon="0.09235">
        <ele>164.8</ele>
        <time>2025-03-30T09:46:44Z</time>
      </trkpt>
      <trkpt lat="43.93715" lon="0.09234">
        <ele>164.8</ele>
        <time>2025-03-30T09:46:45Z</time>
      </trkpt>
      <trkpt lat="43.93716" lon="0.09233">
        <ele>164.8</ele>
        <time>2025-03-30T09:46:46Z</time>
      </trkpt>
      <trkpt lat="43.93718" lon="0.09231">
        <ele>164.7</ele>
        <time>2025-03-30T09:46:47Z</time>
      </trkpt>
      <trkpt lat="43.93718" lon="0.0923">
        <ele>164.7</ele>
        <time>2025-03-30T09:46:48Z</time>
      </trkpt>
      <trkpt lat="43.93719" lon="0.09229">
        <ele>164.7</ele>
        <time>2025-03-30T09:46:49Z</time>
      </trkpt>
      <trkpt lat="43.9372" lon="0.09226">
        <ele>164.7</ele>
        <time>2025-03-30T09:46:50Z</time>
      </trkpt>
      <trkpt lat="43.93721" lon="0.09225">
        <ele>164.7</ele>
        <time>2025-03-30T09:46:51Z</time>
      </trkpt>
      <trkpt lat="43.93721" lon="0.09224">
        <ele>164.7</ele>
        <time>2025-03-30T09:46:52Z</time>
      </trkpt>
      <trkpt lat="43.93722" lon="0.09221">
        <ele>164.7</ele>
        <time>2025-03-30T09:46:53Z</time>
      </trkpt>
      <trkpt lat="43.93723" lon="0.0922">
        <ele>164.7</ele>
        <time>2025-03-30T09:46:54Z</time>
      </trkpt>
      <trkpt lat="43.93723" lon="0.09219">
        <ele>164.7</ele>
        <time>2025-03-30T09:46:55Z</time>
      </trkpt>
      <trkpt lat="43.93724" lon="0.09217">
        <ele>164.6</ele>
        <time>2025-03-30T09:46:56Z</time>
      </trkpt>
      <trkpt lat="43.93725" lon="0.09216">
        <ele>164.6</ele>
        <time>2025-03-30T09:46:57Z</time>
      </trkpt>
      <trkpt lat="43.93726" lon="0.09214">
        <ele>164.6</ele>
        <time>2025-03-30T09:46:58Z</time>
      </trkpt>
      <trkpt lat="43.93727" lon="0.09213">
        <ele>164.6</ele>
        <time>2025-03-30T09:46:59Z</time>
      </trkpt>
      <trkpt lat="43.93727" lon="0.09211">
        <ele>164.6</ele>
        <time>2025-03-30T09:47:00Z</time>
      </trkpt>
      <trkpt lat="43.93728" lon="0.09209">
        <ele>164.5</ele>
        <time>2025-03-30T09:47:01Z</time>
      </trkpt>
      <trkpt lat="43.93729" lon="0.09207">
        <ele>164.5</ele>
        <time>2025-03-30T09:47:02Z</time>
      </trkpt>
      <trkpt lat="43.9373" lon="0.09206">
        <ele>164.5</ele>
        <time>2025-03-30T09:47:03Z</time>
      </trkpt>
      <trkpt lat="43.93731" lon="0.09205">
        <ele>164.5</ele>
        <time>2025-03-30T09:47:04Z</time>
      </trkpt>
      <trkpt lat="43.93732" lon="0.09203">
        <ele>164.5</ele>
        <time>2025-03-30T09:47:05Z</time>
      </trkpt>
      <trkpt lat="43.93733" lon="0.09202">
        <ele>164.4</ele>
        <time>2025-03-30T09:47:06Z</time>
      </trkpt>
      <trkpt lat="43.93735" lon="0.092">
        <ele>164.4</ele>
        <time>2025-03-30T09:47:07Z</time>
      </trkpt>
      <trkpt lat="43.93735" lon="0.09199">
        <ele>164.4</ele>
        <time>2025-03-30T09:47:08Z</time>
      </trkpt>
      <trkpt lat="43.93736" lon="0.09198">
        <ele>164.4</ele>
        <time>2025-03-30T09:47:09Z</time>
      </trkpt>
      <trkpt lat="43.93737" lon="0.09195">
        <ele>164.4</ele>
        <time>2025-03-30T09:47:10Z</time>
      </trkpt>
      <trkpt lat="43.93738" lon="0.09194">
        <ele>164.3</ele>
        <time>2025-03-30T09:47:11Z</time>
      </trkpt>
      <trkpt lat="43.93738" lon="0.09193">
        <ele>164.3</ele>
        <time>2025-03-30T09:47:12Z</time>
      </trkpt>
      <trkpt lat="43.93739" lon="0.09191">
        <ele>164.3</ele>
        <time>2025-03-30T09:47:13Z</time>
      </trkpt>
      <trkpt lat="43.9374" lon="0.09191">
        <ele>164.3</ele>
        <time>2025-03-30T09:47:14Z</time>
      </trkpt>
      <trkpt lat="43.93742" lon="0.09191">
        <ele>164.3</ele>
        <time>2025-03-30T09:47:15Z</time>
      </trkpt>
      <trkpt lat="43.93743" lon="0.09188">
        <ele>164.2</ele>
        <time>2025-03-30T09:47:17Z</time>
      </trkpt>
      <trkpt lat="43.93744" lon="0.09187">
        <ele>164.2</ele>
        <time>2025-03-30T09:47:18Z</time>
      </trkpt>
      <trkpt lat="43.93745" lon="0.09187">
        <ele>164.2</ele>
        <time>2025-03-30T09:47:19Z</time>
      </trkpt>
      <trkpt lat="43.93745" lon="0.09185">
        <ele>164.2</ele>
        <time>2025-03-30T09:47:20Z</time>
      </trkpt>
      <trkpt lat="43.93744" lon="0.09185">
        <ele>164.2</ele>
        <time>2025-03-30T09:47:21Z</time>
      </trkpt>
      <trkpt lat="43.93744" lon="0.09184">
        <ele>164.2</ele>
        <time>2025-03-30T09:47:22Z</time>
      </trkpt>
      <trkpt lat="43.93744" lon="0.09183">
        <ele>164.2</ele>
        <time>2025-03-30T09:47:23Z</time>
      </trkpt>
      <trkpt lat="43.93744" lon="0.0918">
        <ele>164.1</ele>
        <time>2025-03-30T09:47:24Z</time>
      </trkpt>
      <trkpt lat="43.93744" lon="0.09179">
        <ele>164.1</ele>
        <time>2025-03-30T09:47:25Z</time>
      </trkpt>
      <trkpt lat="43.93744" lon="0.09177">
        <ele>164.1</ele>
        <time>2025-03-30T09:47:26Z</time>
      </trkpt>
      <trkpt lat="43.93743" lon="0.09174">
        <ele>164.1</ele>
        <time>2025-03-30T09:47:27Z</time>
      </trkpt>
      <trkpt lat="43.93743" lon="0.09173">
        <ele>164.1</ele>
        <time>2025-03-30T09:47:28Z</time>
      </trkpt>
      <trkpt lat="43.93743" lon="0.09172">
        <ele>164</ele>
        <time>2025-03-30T09:47:29Z</time>
      </trkpt>
      <trkpt lat="43.93742" lon="0.0917">
        <ele>164</ele>
        <time>2025-03-30T09:47:30Z</time>
      </trkpt>
      <trkpt lat="43.93741" lon="0.09169">
        <ele>164</ele>
        <time>2025-03-30T09:47:31Z</time>
      </trkpt>
      <trkpt lat="43.9374" lon="0.09167">
        <ele>163.9</ele>
        <time>2025-03-30T09:47:32Z</time>
      </trkpt>
      <trkpt lat="43.9374" lon="0.09165">
        <ele>163.9</ele>
        <time>2025-03-30T09:47:33Z</time>
      </trkpt>
      <trkpt lat="43.93743" lon="0.09163">
        <ele>163.8</ele>
        <time>2025-03-30T09:47:34Z</time>
      </trkpt>
      <trkpt lat="43.93748" lon="0.09162">
        <ele>163.6</ele>
        <time>2025-03-30T09:47:35Z</time>
      </trkpt>
      <trkpt lat="43.93757" lon="0.09163">
        <ele>163.4</ele>
        <time>2025-03-30T09:47:36Z</time>
      </trkpt>
      <trkpt lat="43.93758" lon="0.09161">
        <ele>163.3</ele>
        <time>2025-03-30T09:47:37Z</time>
      </trkpt>
      <trkpt lat="43.9376" lon="0.09158">
        <ele>163.2</ele>
        <time>2025-03-30T09:47:39Z</time>
      </trkpt>
      <trkpt lat="43.93761" lon="0.09156">
        <ele>163.2</ele>
        <time>2025-03-30T09:47:40Z</time>
      </trkpt>
      <trkpt lat="43.93762" lon="0.09154">
        <ele>163.1</ele>
        <time>2025-03-30T09:47:41Z</time>
      </trkpt>
      <trkpt lat="43.93764" lon="0.09151">
        <ele>163</ele>
        <time>2025-03-30T09:47:43Z</time>
      </trkpt>
      <trkpt lat="43.93764" lon="0.0915">
        <ele>163</ele>
        <time>2025-03-30T09:47:44Z</time>
      </trkpt>
      <trkpt lat="43.93765" lon="0.09148">
        <ele>162.9</ele>
        <time>2025-03-30T09:47:45Z</time>
      </trkpt>
      <trkpt lat="43.93766" lon="0.09146">
        <ele>162.9</ele>
        <time>2025-03-30T09:47:46Z</time>
      </trkpt>
      <trkpt lat="43.93767" lon="0.09144">
        <ele>162.8</ele>
        <time>2025-03-30T09:47:47Z</time>
      </trkpt>
      <trkpt lat="43.93768" lon="0.09143">
        <ele>162.8</ele>
        <time>2025-03-30T09:47:48Z</time>
      </trkpt>
      <trkpt lat="43.93768" lon="0.09142">
        <ele>162.8</ele>
        <time>2025-03-30T09:47:49Z</time>
      </trkpt>
      <trkpt lat="43.93769" lon="0.09141">
        <ele>162.8</ele>
        <time>2025-03-30T09:47:50Z</time>
      </trkpt>
      <trkpt lat="43.9377" lon="0.0914">
        <ele>162.7</ele>
        <time>2025-03-30T09:47:51Z</time>
      </trkpt>
      <trkpt lat="43.93771" lon="0.09139">
        <ele>162.7</ele>
        <time>2025-03-30T09:47:52Z</time>
      </trkpt>
      <trkpt lat="43.93772" lon="0.09138">
        <ele>162.7</ele>
        <time>2025-03-30T09:47:53Z</time>
      </trkpt>
      <trkpt lat="43.93773" lon="0.09138">
        <ele>162.6</ele>
        <time>2025-03-30T09:47:54Z</time>
      </trkpt>
      <trkpt lat="43.93774" lon="0.09136">
        <ele>162.6</ele>
        <time>2025-03-30T09:47:55Z</time>
      </trkpt>
      <trkpt lat="43.93778" lon="0.09133">
        <ele>162.5</ele>
        <time>2025-03-30T09:47:57Z</time>
      </trkpt>
      <trkpt lat="43.93778" lon="0.09133">
        <ele>162.5</ele>
        <time>2025-03-30T09:47:58Z</time>
      </trkpt>
      <trkpt lat="43.93779" lon="0.09132">
        <ele>162.5</ele>
        <time>2025-03-30T09:47:59Z</time>
      </trkpt>
      <trkpt lat="43.9378" lon="0.09131">
        <ele>162.4</ele>
        <time>2025-03-30T09:48:00Z</time>
      </trkpt>
      <trkpt lat="43.93781" lon="0.09129">
        <ele>162.4</ele>
        <time>2025-03-30T09:48:01Z</time>
      </trkpt>
      <trkpt lat="43.93782" lon="0.09127">
        <ele>162.3</ele>
        <time>2025-03-30T09:48:02Z</time>
      </trkpt>
      <trkpt lat="43.93783" lon="0.09126">
        <ele>162.3</ele>
        <time>2025-03-30T09:48:03Z</time>
      </trkpt>
      <trkpt lat="43.93785" lon="0.09126">
        <ele>162.3</ele>
        <time>2025-03-30T09:48:04Z</time>
      </trkpt>
      <trkpt lat="43.93785" lon="0.09125">
        <ele>162.3</ele>
        <time>2025-03-30T09:48:05Z</time>
      </trkpt>
      <trkpt lat="43.93785" lon="0.09124">
        <ele>162.2</ele>
        <time>2025-03-30T09:48:06Z</time>
      </trkpt>
      <trkpt lat="43.93787" lon="0.09121">
        <ele>162.2</ele>
        <time>2025-03-30T09:48:07Z</time>
      </trkpt>
      <trkpt lat="43.93787" lon="0.0912">
        <ele>162.1</ele>
        <time>2025-03-30T09:48:08Z</time>
      </trkpt>
      <trkpt lat="43.93789" lon="0.09118">
        <ele>162.1</ele>
        <time>2025-03-30T09:48:09Z</time>
      </trkpt>
      <trkpt lat="43.93789" lon="0.09117">
        <ele>162.1</ele>
        <time>2025-03-30T09:48:10Z</time>
      </trkpt>
      <trkpt lat="43.9379" lon="0.09115">
        <ele>162</ele>
        <time>2025-03-30T09:48:11Z</time>
      </trkpt>
      <trkpt lat="43.93791" lon="0.09113">
        <ele>161.9</ele>
        <time>2025-03-30T09:48:12Z</time>
      </trkpt>
      <trkpt lat="43.93792" lon="0.09112">
        <ele>161.8</ele>
        <time>2025-03-30T09:48:13Z</time>
      </trkpt>
      <trkpt lat="43.93793" lon="0.0911">
        <ele>161.7</ele>
        <time>2025-03-30T09:48:14Z</time>
      </trkpt>
      <trkpt lat="43.93794" lon="0.09109">
        <ele>161.6</ele>
        <time>2025-03-30T09:48:15Z</time>
      </trkpt>
      <trkpt lat="43.93795" lon="0.09107">
        <ele>161.5</ele>
        <time>2025-03-30T09:48:16Z</time>
      </trkpt>
      <trkpt lat="43.93796" lon="0.09106">
        <ele>161.5</ele>
        <time>2025-03-30T09:48:17Z</time>
      </trkpt>
      <trkpt lat="43.93797" lon="0.09104">
        <ele>161.4</ele>
        <time>2025-03-30T09:48:18Z</time>
      </trkpt>
      <trkpt lat="43.93798" lon="0.09103">
        <ele>161.3</ele>
        <time>2025-03-30T09:48:19Z</time>
      </trkpt>
      <trkpt lat="43.93799" lon="0.09101">
        <ele>161.3</ele>
        <time>2025-03-30T09:48:20Z</time>
      </trkpt>
      <trkpt lat="43.938" lon="0.091">
        <ele>161.3</ele>
        <time>2025-03-30T09:48:21Z</time>
      </trkpt>
      <trkpt lat="43.93801" lon="0.09098">
        <ele>161.2</ele>
        <time>2025-03-30T09:48:22Z</time>
      </trkpt>
      <trkpt lat="43.93802" lon="0.09097">
        <ele>161.2</ele>
        <time>2025-03-30T09:48:23Z</time>
      </trkpt>
      <trkpt lat="43.93803" lon="0.09095">
        <ele>161.2</ele>
        <time>2025-03-30T09:48:24Z</time>
      </trkpt>
      <trkpt lat="43.93804" lon="0.09094">
        <ele>161.1</ele>
        <time>2025-03-30T09:48:25Z</time>
      </trkpt>
      <trkpt lat="43.93805" lon="0.09092">
        <ele>161.1</ele>
        <time>2025-03-30T09:48:26Z</time>
      </trkpt>
      <trkpt lat="43.93806" lon="0.0909">
        <ele>161.1</ele>
        <time>2025-03-30T09:48:27Z</time>
      </trkpt>
      <trkpt lat="43.93807" lon="0.09089">
        <ele>161</ele>
        <time>2025-03-30T09:48:28Z</time>
      </trkpt>
      <trkpt lat="43.93808" lon="0.09087">
        <ele>161</ele>
        <time>2025-03-30T09:48:29Z</time>
      </trkpt>
      <trkpt lat="43.93809" lon="0.09086">
        <ele>161</ele>
        <time>2025-03-30T09:48:30Z</time>
      </trkpt>
      <trkpt lat="43.9381" lon="0.09084">
        <ele>160.9</ele>
        <time>2025-03-30T09:48:31Z</time>
      </trkpt>
      <trkpt lat="43.93811" lon="0.09083">
        <ele>160.9</ele>
        <time>2025-03-30T09:48:32Z</time>
      </trkpt>
      <trkpt lat="43.93812" lon="0.09081">
        <ele>160.9</ele>
        <time>2025-03-30T09:48:33Z</time>
      </trkpt>
      <trkpt lat="43.93813" lon="0.0908">
        <ele>160.8</ele>
        <time>2025-03-30T09:48:34Z</time>
      </trkpt>
      <trkpt lat="43.93815" lon="0.09079">
        <ele>160.8</ele>
        <time>2025-03-30T09:48:35Z</time>
      </trkpt>
      <trkpt lat="43.93816" lon="0.09078">
        <ele>160.8</ele>
        <time>2025-03-30T09:48:36Z</time>
      </trkpt>
      <trkpt lat="43.93816" lon="0.09076">
        <ele>160.7</ele>
        <time>2025-03-30T09:48:37Z</time>
      </trkpt>
      <trkpt lat="43.93817" lon="0.09074">
        <ele>160.7</ele>
        <time>2025-03-30T09:48:38Z</time>
      </trkpt>
      <trkpt lat="43.93818" lon="0.0907">
        <ele>160.6</ele>
        <time>2025-03-30T09:48:40Z</time>
      </trkpt>
      <trkpt lat="43.93819" lon="0.09068">
        <ele>160.5</ele>
        <time>2025-03-30T09:48:41Z</time>
      </trkpt>
      <trkpt lat="43.93819" lon="0.09067">
        <ele>160.5</ele>
        <time>2025-03-30T09:48:42Z</time>
      </trkpt>
      <trkpt lat="43.9382" lon="0.09065">
        <ele>160.5</ele>
        <time>2025-03-30T09:48:43Z</time>
      </trkpt>
      <trkpt lat="43.93822" lon="0.09062">
        <ele>160.4</ele>
        <time>2025-03-30T09:48:45Z</time>
      </trkpt>
      <trkpt lat="43.93822" lon="0.0906">
        <ele>160.3</ele>
        <time>2025-03-30T09:48:46Z</time>
      </trkpt>
      <trkpt lat="43.93823" lon="0.09058">
        <ele>160.3</ele>
        <time>2025-03-30T09:48:47Z</time>
      </trkpt>
      <trkpt lat="43.93824" lon="0.09057">
        <ele>160.2</ele>
        <time>2025-03-30T09:48:48Z</time>
      </trkpt>
      <trkpt lat="43.93825" lon="0.09055">
        <ele>160.2</ele>
        <time>2025-03-30T09:48:49Z</time>
      </trkpt>
      <trkpt lat="43.93826" lon="0.09053">
        <ele>160.1</ele>
        <time>2025-03-30T09:48:50Z</time>
      </trkpt>
      <trkpt lat="43.93827" lon="0.09052">
        <ele>160.1</ele>
        <time>2025-03-30T09:48:51Z</time>
      </trkpt>
      <trkpt lat="43.93827" lon="0.09051">
        <ele>160.1</ele>
        <time>2025-03-30T09:48:52Z</time>
      </trkpt>
      <trkpt lat="43.93828" lon="0.09048">
        <ele>160.1</ele>
        <time>2025-03-30T09:48:53Z</time>
      </trkpt>
      <trkpt lat="43.93829" lon="0.09047">
        <ele>160.1</ele>
        <time>2025-03-30T09:48:54Z</time>
      </trkpt>
      <trkpt lat="43.93829" lon="0.09046">
        <ele>160</ele>
        <time>2025-03-30T09:48:55Z</time>
      </trkpt>
      <trkpt lat="43.93831" lon="0.09044">
        <ele>160</ele>
        <time>2025-03-30T09:48:56Z</time>
      </trkpt>
      <trkpt lat="43.93831" lon="0.09043">
        <ele>160</ele>
        <time>2025-03-30T09:48:57Z</time>
      </trkpt>
      <trkpt lat="43.93832" lon="0.09042">
        <ele>160</ele>
        <time>2025-03-30T09:48:58Z</time>
      </trkpt>
      <trkpt lat="43.93833" lon="0.0904">
        <ele>159.9</ele>
        <time>2025-03-30T09:48:59Z</time>
      </trkpt>
      <trkpt lat="43.93833" lon="0.09039">
        <ele>159.9</ele>
        <time>2025-03-30T09:49:00Z</time>
      </trkpt>
      <trkpt lat="43.93834" lon="0.09037">
        <ele>159.9</ele>
        <time>2025-03-30T09:49:01Z</time>
      </trkpt>
      <trkpt lat="43.93835" lon="0.09036">
        <ele>159.9</ele>
        <time>2025-03-30T09:49:02Z</time>
      </trkpt>
      <trkpt lat="43.93836" lon="0.09035">
        <ele>159.9</ele>
        <time>2025-03-30T09:49:03Z</time>
      </trkpt>
      <trkpt lat="43.93838" lon="0.09032">
        <ele>159.8</ele>
        <time>2025-03-30T09:49:05Z</time>
      </trkpt>
      <trkpt lat="43.93839" lon="0.09029">
        <ele>159.8</ele>
        <time>2025-03-30T09:49:07Z</time>
      </trkpt>
      <trkpt lat="43.93841" lon="0.09027">
        <ele>159.8</ele>
        <time>2025-03-30T09:49:08Z</time>
      </trkpt>
      <trkpt lat="43.93841" lon="0.09027">
        <ele>159.8</ele>
        <time>2025-03-30T09:49:09Z</time>
      </trkpt>
      <trkpt lat="43.93843" lon="0.09025">
        <ele>159.7</ele>
        <time>2025-03-30T09:49:10Z</time>
      </trkpt>
      <trkpt lat="43.93843" lon="0.09024">
        <ele>159.7</ele>
        <time>2025-03-30T09:49:11Z</time>
      </trkpt>
      <trkpt lat="43.93844" lon="0.09023">
        <ele>159.7</ele>
        <time>2025-03-30T09:49:12Z</time>
      </trkpt>
      <trkpt lat="43.93846" lon="0.09021">
        <ele>159.7</ele>
        <time>2025-03-30T09:49:13Z</time>
      </trkpt>
      <trkpt lat="43.93846" lon="0.0902">
        <ele>159.7</ele>
        <time>2025-03-30T09:49:14Z</time>
      </trkpt>
      <trkpt lat="43.93847" lon="0.0902">
        <ele>159.6</ele>
        <time>2025-03-30T09:49:15Z</time>
      </trkpt>
      <trkpt lat="43.93849" lon="0.09018">
        <ele>159.6</ele>
        <time>2025-03-30T09:49:16Z</time>
      </trkpt>
      <trkpt lat="43.93849" lon="0.09017">
        <ele>159.6</ele>
        <time>2025-03-30T09:49:17Z</time>
      </trkpt>
      <trkpt lat="43.9385" lon="0.09016">
        <ele>159.6</ele>
        <time>2025-03-30T09:49:18Z</time>
      </trkpt>
      <trkpt lat="43.93851" lon="0.09013">
        <ele>159.6</ele>
        <time>2025-03-30T09:49:19Z</time>
      </trkpt>
      <trkpt lat="43.93852" lon="0.09012">
        <ele>159.5</ele>
        <time>2025-03-30T09:49:20Z</time>
      </trkpt>
      <trkpt lat="43.93853" lon="0.09012">
        <ele>159.5</ele>
        <time>2025-03-30T09:49:21Z</time>
      </trkpt>
      <trkpt lat="43.93853" lon="0.0901">
        <ele>159.6</ele>
        <time>2025-03-30T09:49:22Z</time>
      </trkpt>
      <trkpt lat="43.93855" lon="0.09009">
        <ele>159.6</ele>
        <time>2025-03-30T09:49:23Z</time>
      </trkpt>
      <trkpt lat="43.93856" lon="0.09008">
        <ele>159.6</ele>
        <time>2025-03-30T09:49:24Z</time>
      </trkpt>
      <trkpt lat="43.93857" lon="0.09009">
        <ele>159.6</ele>
        <time>2025-03-30T09:49:25Z</time>
      </trkpt>
      <trkpt lat="43.93858" lon="0.09007">
        <ele>159.6</ele>
        <time>2025-03-30T09:49:26Z</time>
      </trkpt>
      <trkpt lat="43.93859" lon="0.09006">
        <ele>159.6</ele>
        <time>2025-03-30T09:49:27Z</time>
      </trkpt>
      <trkpt lat="43.93859" lon="0.09004">
        <ele>159.7</ele>
        <time>2025-03-30T09:49:28Z</time>
      </trkpt>
      <trkpt lat="43.93861" lon="0.09001">
        <ele>159.7</ele>
        <time>2025-03-30T09:49:29Z</time>
      </trkpt>
      <trkpt lat="43.93861" lon="0.09">
        <ele>159.7</ele>
        <time>2025-03-30T09:49:30Z</time>
      </trkpt>
      <trkpt lat="43.93862" lon="0.08999">
        <ele>159.7</ele>
        <time>2025-03-30T09:49:31Z</time>
      </trkpt>
      <trkpt lat="43.93863" lon="0.08998">
        <ele>159.7</ele>
        <time>2025-03-30T09:49:32Z</time>
      </trkpt>
      <trkpt lat="43.93864" lon="0.08997">
        <ele>159.8</ele>
        <time>2025-03-30T09:49:33Z</time>
      </trkpt>
      <trkpt lat="43.93865" lon="0.08995">
        <ele>159.8</ele>
        <time>2025-03-30T09:49:34Z</time>
      </trkpt>
      <trkpt lat="43.93866" lon="0.08994">
        <ele>159.8</ele>
        <time>2025-03-30T09:49:35Z</time>
      </trkpt>
      <trkpt lat="43.93867" lon="0.08993">
        <ele>159.9</ele>
        <time>2025-03-30T09:49:36Z</time>
      </trkpt>
      <trkpt lat="43.93868" lon="0.08992">
        <ele>159.9</ele>
        <time>2025-03-30T09:49:37Z</time>
      </trkpt>
      <trkpt lat="43.9387" lon="0.0899">
        <ele>159.9</ele>
        <time>2025-03-30T09:49:38Z</time>
      </trkpt>
      <trkpt lat="43.93871" lon="0.08989">
        <ele>159.9</ele>
        <time>2025-03-30T09:49:39Z</time>
      </trkpt>
      <trkpt lat="43.93872" lon="0.08988">
        <ele>160</ele>
        <time>2025-03-30T09:49:40Z</time>
      </trkpt>
      <trkpt lat="43.93872" lon="0.08987">
        <ele>160</ele>
        <time>2025-03-30T09:49:41Z</time>
      </trkpt>
      <trkpt lat="43.93872" lon="0.08986">
        <ele>160</ele>
        <time>2025-03-30T09:49:42Z</time>
      </trkpt>
      <trkpt lat="43.93873" lon="0.08984">
        <ele>160</ele>
        <time>2025-03-30T09:49:43Z</time>
      </trkpt>
      <trkpt lat="43.93874" lon="0.08983">
        <ele>160.1</ele>
        <time>2025-03-30T09:49:44Z</time>
      </trkpt>
      <trkpt lat="43.93875" lon="0.08982">
        <ele>160.1</ele>
        <time>2025-03-30T09:49:45Z</time>
      </trkpt>
      <trkpt lat="43.93877" lon="0.0898">
        <ele>160.1</ele>
        <time>2025-03-30T09:49:46Z</time>
      </trkpt>
      <trkpt lat="43.93878" lon="0.0898">
        <ele>160.2</ele>
        <time>2025-03-30T09:49:47Z</time>
      </trkpt>
      <trkpt lat="43.93879" lon="0.08979">
        <ele>160.2</ele>
        <time>2025-03-30T09:49:48Z</time>
      </trkpt>
      <trkpt lat="43.93879" lon="0.08978">
        <ele>160.2</ele>
        <time>2025-03-30T09:49:49Z</time>
      </trkpt>
      <trkpt lat="43.9388" lon="0.08978">
        <ele>160.2</ele>
        <time>2025-03-30T09:49:50Z</time>
      </trkpt>
      <trkpt lat="43.93881" lon="0.08976">
        <ele>160.3</ele>
        <time>2025-03-30T09:49:51Z</time>
      </trkpt>
      <trkpt lat="43.93883" lon="0.08975">
        <ele>160.3</ele>
        <time>2025-03-30T09:49:52Z</time>
      </trkpt>
      <trkpt lat="43.93883" lon="0.08975">
        <ele>160.3</ele>
        <time>2025-03-30T09:49:53Z</time>
      </trkpt>
      <trkpt lat="43.93884" lon="0.08973">
        <ele>160.3</ele>
        <time>2025-03-30T09:49:54Z</time>
      </trkpt>
      <trkpt lat="43.93885" lon="0.08971">
        <ele>160.4</ele>
        <time>2025-03-30T09:49:55Z</time>
      </trkpt>
      <trkpt lat="43.93886" lon="0.08969">
        <ele>160.4</ele>
        <time>2025-03-30T09:49:56Z</time>
      </trkpt>
      <trkpt lat="43.93888" lon="0.08967">
        <ele>160.5</ele>
        <time>2025-03-30T09:49:57Z</time>
      </trkpt>
      <trkpt lat="43.93889" lon="0.08966">
        <ele>160.5</ele>
        <time>2025-03-30T09:49:58Z</time>
      </trkpt>
      <trkpt lat="43.93889" lon="0.08965">
        <ele>160.5</ele>
        <time>2025-03-30T09:49:59Z</time>
      </trkpt>
      <trkpt lat="43.93892" lon="0.08963">
        <ele>160.6</ele>
        <time>2025-03-30T09:50:00Z</time>
      </trkpt>
      <trkpt lat="43.93893" lon="0.08962">
        <ele>160.6</ele>
        <time>2025-03-30T09:50:02Z</time>
      </trkpt>
      <trkpt lat="43.93894" lon="0.08961">
        <ele>160.6</ele>
        <time>2025-03-30T09:50:03Z</time>
      </trkpt>
      <trkpt lat="43.93895" lon="0.0896">
        <ele>160.6</ele>
        <time>2025-03-30T09:50:04Z</time>
      </trkpt>
      <trkpt lat="43.93896" lon="0.08959">
        <ele>160.7</ele>
        <time>2025-03-30T09:50:05Z</time>
      </trkpt>
      <trkpt lat="43.93898" lon="0.08959">
        <ele>160.7</ele>
        <time>2025-03-30T09:50:06Z</time>
      </trkpt>
      <trkpt lat="43.93899" lon="0.08958">
        <ele>160.7</ele>
        <time>2025-03-30T09:50:07Z</time>
      </trkpt>
      <trkpt lat="43.939" lon="0.08957">
        <ele>160.7</ele>
        <time>2025-03-30T09:50:08Z</time>
      </trkpt>
      <trkpt lat="43.93901" lon="0.08955">
        <ele>160.7</ele>
        <time>2025-03-30T09:50:09Z</time>
      </trkpt>
      <trkpt lat="43.93902" lon="0.08954">
        <ele>160.7</ele>
        <time>2025-03-30T09:50:10Z</time>
      </trkpt>
      <trkpt lat="43.93903" lon="0.08953">
        <ele>160.8</ele>
        <time>2025-03-30T09:50:11Z</time>
      </trkpt>
      <trkpt lat="43.93904" lon="0.08952">
        <ele>160.8</ele>
        <time>2025-03-30T09:50:12Z</time>
      </trkpt>
      <trkpt lat="43.93905" lon="0.0895">
        <ele>160.8</ele>
        <time>2025-03-30T09:50:13Z</time>
      </trkpt>
      <trkpt lat="43.93907" lon="0.08949">
        <ele>160.8</ele>
        <time>2025-03-30T09:50:14Z</time>
      </trkpt>
      <trkpt lat="43.93908" lon="0.08948">
        <ele>160.8</ele>
        <time>2025-03-30T09:50:15Z</time>
      </trkpt>
      <trkpt lat="43.93909" lon="0.08947">
        <ele>160.8</ele>
        <time>2025-03-30T09:50:16Z</time>
      </trkpt>
      <trkpt lat="43.9391" lon="0.08945">
        <ele>160.8</ele>
        <time>2025-03-30T09:50:17Z</time>
      </trkpt>
      <trkpt lat="43.93911" lon="0.08944">
        <ele>160.9</ele>
        <time>2025-03-30T09:50:18Z</time>
      </trkpt>
      <trkpt lat="43.93912" lon="0.08942">
        <ele>160.9</ele>
        <time>2025-03-30T09:50:19Z</time>
      </trkpt>
      <trkpt lat="43.93912" lon="0.08941">
        <ele>160.9</ele>
        <time>2025-03-30T09:50:20Z</time>
      </trkpt>
      <trkpt lat="43.93913" lon="0.08939">
        <ele>160.9</ele>
        <time>2025-03-30T09:50:21Z</time>
      </trkpt>
      <trkpt lat="43.93914" lon="0.08938">
        <ele>160.9</ele>
        <time>2025-03-30T09:50:22Z</time>
      </trkpt>
      <trkpt lat="43.93915" lon="0.08936">
        <ele>160.9</ele>
        <time>2025-03-30T09:50:23Z</time>
      </trkpt>
      <trkpt lat="43.93916" lon="0.08935">
        <ele>160.9</ele>
        <time>2025-03-30T09:50:24Z</time>
      </trkpt>
      <trkpt lat="43.93917" lon="0.08934">
        <ele>160.9</ele>
        <time>2025-03-30T09:50:25Z</time>
      </trkpt>
      <trkpt lat="43.93918" lon="0.08932">
        <ele>160.9</ele>
        <time>2025-03-30T09:50:26Z</time>
      </trkpt>
      <trkpt lat="43.93919" lon="0.08931">
        <ele>161</ele>
        <time>2025-03-30T09:50:27Z</time>
      </trkpt>
      <trkpt lat="43.9392" lon="0.08929">
        <ele>161</ele>
        <time>2025-03-30T09:50:28Z</time>
      </trkpt>
      <trkpt lat="43.93921" lon="0.08928">
        <ele>161</ele>
        <time>2025-03-30T09:50:29Z</time>
      </trkpt>
      <trkpt lat="43.93923" lon="0.08926">
        <ele>161</ele>
        <time>2025-03-30T09:50:30Z</time>
      </trkpt>
      <trkpt lat="43.93924" lon="0.08925">
        <ele>161</ele>
        <time>2025-03-30T09:50:31Z</time>
      </trkpt>
      <trkpt lat="43.93925" lon="0.08924">
        <ele>161.1</ele>
        <time>2025-03-30T09:50:32Z</time>
      </trkpt>
      <trkpt lat="43.93926" lon="0.08922">
        <ele>161.1</ele>
        <time>2025-03-30T09:50:33Z</time>
      </trkpt>
      <trkpt lat="43.93927" lon="0.08921">
        <ele>161.1</ele>
        <time>2025-03-30T09:50:34Z</time>
      </trkpt>
      <trkpt lat="43.93928" lon="0.0892">
        <ele>161.1</ele>
        <time>2025-03-30T09:50:35Z</time>
      </trkpt>
      <trkpt lat="43.93929" lon="0.08918">
        <ele>161.2</ele>
        <time>2025-03-30T09:50:36Z</time>
      </trkpt>
      <trkpt lat="43.93931" lon="0.08916">
        <ele>161.2</ele>
        <time>2025-03-30T09:50:37Z</time>
      </trkpt>
      <trkpt lat="43.93932" lon="0.08914">
        <ele>161.2</ele>
        <time>2025-03-30T09:50:39Z</time>
      </trkpt>
      <trkpt lat="43.93933" lon="0.08913">
        <ele>161.3</ele>
        <time>2025-03-30T09:50:40Z</time>
      </trkpt>
      <trkpt lat="43.93934" lon="0.08912">
        <ele>161.3</ele>
        <time>2025-03-30T09:50:41Z</time>
      </trkpt>
      <trkpt lat="43.93935" lon="0.0891">
        <ele>161.3</ele>
        <time>2025-03-30T09:50:42Z</time>
      </trkpt>
      <trkpt lat="43.93936" lon="0.08909">
        <ele>161.4</ele>
        <time>2025-03-30T09:50:43Z</time>
      </trkpt>
      <trkpt lat="43.93937" lon="0.08907">
        <ele>161.4</ele>
        <time>2025-03-30T09:50:44Z</time>
      </trkpt>
      <trkpt lat="43.93938" lon="0.08906">
        <ele>161.4</ele>
        <time>2025-03-30T09:50:45Z</time>
      </trkpt>
      <trkpt lat="43.93938" lon="0.08905">
        <ele>161.5</ele>
        <time>2025-03-30T09:50:46Z</time>
      </trkpt>
      <trkpt lat="43.9394" lon="0.08903">
        <ele>161.5</ele>
        <time>2025-03-30T09:50:47Z</time>
      </trkpt>
      <trkpt lat="43.93941" lon="0.08903">
        <ele>161.5</ele>
        <time>2025-03-30T09:50:48Z</time>
      </trkpt>
      <trkpt lat="43.93942" lon="0.08902">
        <ele>161.6</ele>
        <time>2025-03-30T09:50:49Z</time>
      </trkpt>
      <trkpt lat="43.93943" lon="0.08901">
        <ele>161.6</ele>
        <time>2025-03-30T09:50:50Z</time>
      </trkpt>
      <trkpt lat="43.93944" lon="0.08899">
        <ele>161.6</ele>
        <time>2025-03-30T09:50:51Z</time>
      </trkpt>
      <trkpt lat="43.93945" lon="0.08898">
        <ele>161.7</ele>
        <time>2025-03-30T09:50:52Z</time>
      </trkpt>
      <trkpt lat="43.93946" lon="0.08897">
        <ele>161.7</ele>
        <time>2025-03-30T09:50:53Z</time>
      </trkpt>
      <trkpt lat="43.93947" lon="0.08896">
        <ele>161.8</ele>
        <time>2025-03-30T09:50:54Z</time>
      </trkpt>
      <trkpt lat="43.93948" lon="0.08894">
        <ele>161.8</ele>
        <time>2025-03-30T09:50:55Z</time>
      </trkpt>
      <trkpt lat="43.9395" lon="0.08894">
        <ele>161.8</ele>
        <time>2025-03-30T09:50:56Z</time>
      </trkpt>
      <trkpt lat="43.93951" lon="0.08895">
        <ele>161.9</ele>
        <time>2025-03-30T09:50:57Z</time>
      </trkpt>
      <trkpt lat="43.93953" lon="0.08897">
        <ele>161.9</ele>
        <time>2025-03-30T09:50:58Z</time>
      </trkpt>
      <trkpt lat="43.93954" lon="0.08896">
        <ele>162</ele>
        <time>2025-03-30T09:50:59Z</time>
      </trkpt>
      <trkpt lat="43.93955" lon="0.08894">
        <ele>162</ele>
        <time>2025-03-30T09:51:00Z</time>
      </trkpt>
      <trkpt lat="43.93957" lon="0.08892">
        <ele>162.1</ele>
        <time>2025-03-30T09:51:01Z</time>
      </trkpt>
      <trkpt lat="43.93957" lon="0.08891">
        <ele>162.1</ele>
        <time>2025-03-30T09:51:02Z</time>
      </trkpt>
      <trkpt lat="43.93958" lon="0.08889">
        <ele>162.2</ele>
        <time>2025-03-30T09:51:03Z</time>
      </trkpt>
      <trkpt lat="43.93959" lon="0.08887">
        <ele>162.2</ele>
        <time>2025-03-30T09:51:04Z</time>
      </trkpt>
      <trkpt lat="43.9396" lon="0.08886">
        <ele>162.2</ele>
        <time>2025-03-30T09:51:05Z</time>
      </trkpt>
      <trkpt lat="43.93961" lon="0.08883">
        <ele>162.3</ele>
        <time>2025-03-30T09:51:06Z</time>
      </trkpt>
      <trkpt lat="43.93962" lon="0.08882">
        <ele>162.3</ele>
        <time>2025-03-30T09:51:07Z</time>
      </trkpt>
      <trkpt lat="43.93962" lon="0.08882">
        <ele>162.3</ele>
        <time>2025-03-30T09:51:08Z</time>
      </trkpt>
      <trkpt lat="43.93963" lon="0.0888">
        <ele>162.3</ele>
        <time>2025-03-30T09:51:09Z</time>
      </trkpt>
      <trkpt lat="43.93964" lon="0.08879">
        <ele>162.4</ele>
        <time>2025-03-30T09:51:10Z</time>
      </trkpt>
      <trkpt lat="43.93963" lon="0.08877">
        <ele>162.4</ele>
        <time>2025-03-30T09:51:11Z</time>
      </trkpt>
      <trkpt lat="43.93965" lon="0.08875">
        <ele>162.4</ele>
        <time>2025-03-30T09:51:12Z</time>
      </trkpt>
      <trkpt lat="43.93966" lon="0.08875">
        <ele>162.4</ele>
        <time>2025-03-30T09:51:13Z</time>
      </trkpt>
      <trkpt lat="43.93967" lon="0.08874">
        <ele>162.4</ele>
        <time>2025-03-30T09:51:14Z</time>
      </trkpt>
      <trkpt lat="43.93968" lon="0.08874">
        <ele>162.4</ele>
        <time>2025-03-30T09:51:15Z</time>
      </trkpt>
      <trkpt lat="43.93969" lon="0.08873">
        <ele>162.5</ele>
        <time>2025-03-30T09:51:16Z</time>
      </trkpt>
      <trkpt lat="43.9397" lon="0.08872">
        <ele>162.5</ele>
        <time>2025-03-30T09:51:17Z</time>
      </trkpt>
      <trkpt lat="43.93971" lon="0.08871">
        <ele>162.5</ele>
        <time>2025-03-30T09:51:18Z</time>
      </trkpt>
      <trkpt lat="43.93972" lon="0.0887">
        <ele>162.5</ele>
        <time>2025-03-30T09:51:19Z</time>
      </trkpt>
      <trkpt lat="43.93973" lon="0.08868">
        <ele>162.5</ele>
        <time>2025-03-30T09:51:20Z</time>
      </trkpt>
      <trkpt lat="43.93974" lon="0.08867">
        <ele>162.6</ele>
        <time>2025-03-30T09:51:21Z</time>
      </trkpt>
      <trkpt lat="43.93975" lon="0.08865">
        <ele>162.6</ele>
        <time>2025-03-30T09:51:22Z</time>
      </trkpt>
      <trkpt lat="43.93976" lon="0.08864">
        <ele>162.6</ele>
        <time>2025-03-30T09:51:23Z</time>
      </trkpt>
      <trkpt lat="43.93976" lon="0.08862">
        <ele>162.6</ele>
        <time>2025-03-30T09:51:24Z</time>
      </trkpt>
      <trkpt lat="43.93977" lon="0.08861">
        <ele>162.6</ele>
        <time>2025-03-30T09:51:25Z</time>
      </trkpt>
      <trkpt lat="43.93978" lon="0.0886">
        <ele>162.7</ele>
        <time>2025-03-30T09:51:26Z</time>
      </trkpt>
      <trkpt lat="43.93979" lon="0.08859">
        <ele>162.7</ele>
        <time>2025-03-30T09:51:27Z</time>
      </trkpt>
      <trkpt lat="43.93979" lon="0.08857">
        <ele>162.7</ele>
        <time>2025-03-30T09:51:28Z</time>
      </trkpt>
      <trkpt lat="43.9398" lon="0.08857">
        <ele>162.7</ele>
        <time>2025-03-30T09:51:29Z</time>
      </trkpt>
      <trkpt lat="43.93982" lon="0.08855">
        <ele>162.7</ele>
        <time>2025-03-30T09:51:30Z</time>
      </trkpt>
      <trkpt lat="43.93983" lon="0.08854">
        <ele>162.8</ele>
        <time>2025-03-30T09:51:31Z</time>
      </trkpt>
      <trkpt lat="43.93983" lon="0.08854">
        <ele>162.8</ele>
        <time>2025-03-30T09:51:32Z</time>
      </trkpt>
      <trkpt lat="43.93985" lon="0.08851">
        <ele>162.8</ele>
        <time>2025-03-30T09:51:33Z</time>
      </trkpt>
      <trkpt lat="43.93986" lon="0.0885">
        <ele>162.8</ele>
        <time>2025-03-30T09:51:34Z</time>
      </trkpt>
      <trkpt lat="43.93986" lon="0.0885">
        <ele>162.8</ele>
        <time>2025-03-30T09:51:35Z</time>
      </trkpt>
      <trkpt lat="43.93987" lon="0.08848">
        <ele>162.9</ele>
        <time>2025-03-30T09:51:36Z</time>
      </trkpt>
      <trkpt lat="43.93988" lon="0.08847">
        <ele>162.9</ele>
        <time>2025-03-30T09:51:37Z</time>
      </trkpt>
      <trkpt lat="43.93989" lon="0.08844">
        <ele>162.9</ele>
        <time>2025-03-30T09:51:38Z</time>
      </trkpt>
      <trkpt lat="43.9399" lon="0.08843">
        <ele>162.9</ele>
        <time>2025-03-30T09:51:39Z</time>
      </trkpt>
      <trkpt lat="43.9399" lon="0.08842">
        <ele>162.9</ele>
        <time>2025-03-30T09:51:40Z</time>
      </trkpt>
      <trkpt lat="43.93992" lon="0.0884">
        <ele>163</ele>
        <time>2025-03-30T09:51:41Z</time>
      </trkpt>
      <trkpt lat="43.93992" lon="0.0884">
        <ele>163</ele>
        <time>2025-03-30T09:51:42Z</time>
      </trkpt>
      <trkpt lat="43.93993" lon="0.08839">
        <ele>163</ele>
        <time>2025-03-30T09:51:43Z</time>
      </trkpt>
      <trkpt lat="43.93995" lon="0.08838">
        <ele>163</ele>
        <time>2025-03-30T09:51:44Z</time>
      </trkpt>
      <trkpt lat="43.93996" lon="0.08837">
        <ele>163.1</ele>
        <time>2025-03-30T09:51:45Z</time>
      </trkpt>
      <trkpt lat="43.93997" lon="0.08836">
        <ele>163.1</ele>
        <time>2025-03-30T09:51:46Z</time>
      </trkpt>
      <trkpt lat="43.93999" lon="0.08836">
        <ele>163.1</ele>
        <time>2025-03-30T09:51:47Z</time>
      </trkpt>
      <trkpt lat="43.94" lon="0.08836">
        <ele>163.1</ele>
        <time>2025-03-30T09:51:48Z</time>
      </trkpt>
      <trkpt lat="43.94001" lon="0.08835">
        <ele>163.1</ele>
        <time>2025-03-30T09:51:49Z</time>
      </trkpt>
      <trkpt lat="43.94003" lon="0.08834">
        <ele>163.1</ele>
        <time>2025-03-30T09:51:50Z</time>
      </trkpt>
      <trkpt lat="43.94004" lon="0.08833">
        <ele>163.1</ele>
        <time>2025-03-30T09:51:51Z</time>
      </trkpt>
      <trkpt lat="43.94005" lon="0.08832">
        <ele>163.2</ele>
        <time>2025-03-30T09:51:52Z</time>
      </trkpt>
      <trkpt lat="43.94006" lon="0.08831">
        <ele>163.2</ele>
        <time>2025-03-30T09:51:53Z</time>
      </trkpt>
      <trkpt lat="43.94007" lon="0.0883">
        <ele>163.2</ele>
        <time>2025-03-30T09:51:54Z</time>
      </trkpt>
      <trkpt lat="43.94009" lon="0.08829">
        <ele>163.2</ele>
        <time>2025-03-30T09:51:55Z</time>
      </trkpt>
      <trkpt lat="43.9401" lon="0.08828">
        <ele>163.2</ele>
        <time>2025-03-30T09:51:56Z</time>
      </trkpt>
      <trkpt lat="43.94012" lon="0.08827">
        <ele>163.2</ele>
        <time>2025-03-30T09:51:57Z</time>
      </trkpt>
      <trkpt lat="43.94013" lon="0.08827">
        <ele>163.2</ele>
        <time>2025-03-30T09:51:58Z</time>
      </trkpt>
      <trkpt lat="43.94015" lon="0.08826">
        <ele>163.2</ele>
        <time>2025-03-30T09:51:59Z</time>
      </trkpt>
      <trkpt lat="43.94016" lon="0.08826">
        <ele>163.2</ele>
        <time>2025-03-30T09:52:00Z</time>
      </trkpt>
      <trkpt lat="43.94018" lon="0.08825">
        <ele>163.2</ele>
        <time>2025-03-30T09:52:01Z</time>
      </trkpt>
      <trkpt lat="43.94019" lon="0.08824">
        <ele>163.2</ele>
        <time>2025-03-30T09:52:02Z</time>
      </trkpt>
      <trkpt lat="43.94021" lon="0.08824">
        <ele>163.2</ele>
        <time>2025-03-30T09:52:03Z</time>
      </trkpt>
      <trkpt lat="43.94022" lon="0.08823">
        <ele>163.2</ele>
        <time>2025-03-30T09:52:04Z</time>
      </trkpt>
      <trkpt lat="43.94024" lon="0.08823">
        <ele>163.2</ele>
        <time>2025-03-30T09:52:05Z</time>
      </trkpt>
      <trkpt lat="43.94025" lon="0.08823">
        <ele>163.2</ele>
        <time>2025-03-30T09:52:06Z</time>
      </trkpt>
      <trkpt lat="43.94027" lon="0.08823">
        <ele>163.2</ele>
        <time>2025-03-30T09:52:07Z</time>
      </trkpt>
      <trkpt lat="43.94028" lon="0.08823">
        <ele>163.2</ele>
        <time>2025-03-30T09:52:08Z</time>
      </trkpt>
      <trkpt lat="43.9403" lon="0.08823">
        <ele>163.2</ele>
        <time>2025-03-30T09:52:09Z</time>
      </trkpt>
      <trkpt lat="43.94031" lon="0.08823">
        <ele>163.2</ele>
        <time>2025-03-30T09:52:10Z</time>
      </trkpt>
      <trkpt lat="43.94033" lon="0.08822">
        <ele>163.2</ele>
        <time>2025-03-30T09:52:11Z</time>
      </trkpt>
      <trkpt lat="43.94034" lon="0.08822">
        <ele>163.2</ele>
        <time>2025-03-30T09:52:12Z</time>
      </trkpt>
      <trkpt lat="43.94035" lon="0.08821">
        <ele>163.2</ele>
        <time>2025-03-30T09:52:13Z</time>
      </trkpt>
      <trkpt lat="43.94037" lon="0.0882">
        <ele>163.2</ele>
        <time>2025-03-30T09:52:14Z</time>
      </trkpt>
      <trkpt lat="43.94038" lon="0.0882">
        <ele>163.2</ele>
        <time>2025-03-30T09:52:15Z</time>
      </trkpt>
      <trkpt lat="43.94039" lon="0.08819">
        <ele>163.2</ele>
        <time>2025-03-30T09:52:16Z</time>
      </trkpt>
      <trkpt lat="43.94041" lon="0.08818">
        <ele>163.2</ele>
        <time>2025-03-30T09:52:17Z</time>
      </trkpt>
      <trkpt lat="43.94042" lon="0.08818">
        <ele>163.2</ele>
        <time>2025-03-30T09:52:18Z</time>
      </trkpt>
      <trkpt lat="43.94043" lon="0.08817">
        <ele>163.2</ele>
        <time>2025-03-30T09:52:19Z</time>
      </trkpt>
      <trkpt lat="43.94045" lon="0.08817">
        <ele>163.2</ele>
        <time>2025-03-30T09:52:20Z</time>
      </trkpt>
      <trkpt lat="43.94046" lon="0.08816">
        <ele>163.2</ele>
        <time>2025-03-30T09:52:21Z</time>
      </trkpt>
      <trkpt lat="43.94048" lon="0.08815">
        <ele>163.2</ele>
        <time>2025-03-30T09:52:22Z</time>
      </trkpt>
      <trkpt lat="43.94049" lon="0.08815">
        <ele>163.2</ele>
        <time>2025-03-30T09:52:23Z</time>
      </trkpt>
      <trkpt lat="43.9405" lon="0.08815">
        <ele>163.2</ele>
        <time>2025-03-30T09:52:24Z</time>
      </trkpt>
      <trkpt lat="43.94052" lon="0.08815">
        <ele>163.2</ele>
        <time>2025-03-30T09:52:25Z</time>
      </trkpt>
      <trkpt lat="43.94053" lon="0.08815">
        <ele>163.2</ele>
        <time>2025-03-30T09:52:26Z</time>
      </trkpt>
      <trkpt lat="43.94054" lon="0.08815">
        <ele>163.2</ele>
        <time>2025-03-30T09:52:27Z</time>
      </trkpt>
      <trkpt lat="43.94056" lon="0.08815">
        <ele>163.2</ele>
        <time>2025-03-30T09:52:28Z</time>
      </trkpt>
      <trkpt lat="43.94057" lon="0.08815">
        <ele>163.2</ele>
        <time>2025-03-30T09:52:29Z</time>
      </trkpt>
      <trkpt lat="43.94059" lon="0.08815">
        <ele>163.2</ele>
        <time>2025-03-30T09:52:30Z</time>
      </trkpt>
      <trkpt lat="43.9406" lon="0.08815">
        <ele>163.2</ele>
        <time>2025-03-30T09:52:31Z</time>
      </trkpt>
      <trkpt lat="43.94062" lon="0.08814">
        <ele>163.2</ele>
        <time>2025-03-30T09:52:32Z</time>
      </trkpt>
      <trkpt lat="43.94063" lon="0.08813">
        <ele>163.1</ele>
        <time>2025-03-30T09:52:33Z</time>
      </trkpt>
      <trkpt lat="43.94064" lon="0.08813">
        <ele>163.1</ele>
        <time>2025-03-30T09:52:34Z</time>
      </trkpt>
      <trkpt lat="43.94066" lon="0.08812">
        <ele>163.1</ele>
        <time>2025-03-30T09:52:35Z</time>
      </trkpt>
      <trkpt lat="43.94067" lon="0.08812">
        <ele>163.1</ele>
        <time>2025-03-30T09:52:36Z</time>
      </trkpt>
      <trkpt lat="43.94068" lon="0.08812">
        <ele>163.1</ele>
        <time>2025-03-30T09:52:37Z</time>
      </trkpt>
      <trkpt lat="43.94069" lon="0.08811">
        <ele>163.1</ele>
        <time>2025-03-30T09:52:38Z</time>
      </trkpt>
      <trkpt lat="43.9407" lon="0.0881">
        <ele>163</ele>
        <time>2025-03-30T09:52:39Z</time>
      </trkpt>
      <trkpt lat="43.94072" lon="0.08809">
        <ele>163</ele>
        <time>2025-03-30T09:52:40Z</time>
      </trkpt>
      <trkpt lat="43.94073" lon="0.08809">
        <ele>163</ele>
        <time>2025-03-30T09:52:41Z</time>
      </trkpt>
      <trkpt lat="43.94074" lon="0.08809">
        <ele>163</ele>
        <time>2025-03-30T09:52:42Z</time>
      </trkpt>
      <trkpt lat="43.94075" lon="0.08809">
        <ele>163</ele>
        <time>2025-03-30T09:52:43Z</time>
      </trkpt>
      <trkpt lat="43.94077" lon="0.08809">
        <ele>162.9</ele>
        <time>2025-03-30T09:52:44Z</time>
      </trkpt>
      <trkpt lat="43.94078" lon="0.08809">
        <ele>162.9</ele>
        <time>2025-03-30T09:52:45Z</time>
      </trkpt>
      <trkpt lat="43.9408" lon="0.08809">
        <ele>162.9</ele>
        <time>2025-03-30T09:52:46Z</time>
      </trkpt>
      <trkpt lat="43.94081" lon="0.08809">
        <ele>162.9</ele>
        <time>2025-03-30T09:52:47Z</time>
      </trkpt>
      <trkpt lat="43.94083" lon="0.08809">
        <ele>162.8</ele>
        <time>2025-03-30T09:52:48Z</time>
      </trkpt>
      <trkpt lat="43.94084" lon="0.08809">
        <ele>162.8</ele>
        <time>2025-03-30T09:52:49Z</time>
      </trkpt>
      <trkpt lat="43.94086" lon="0.08809">
        <ele>162.8</ele>
        <time>2025-03-30T09:52:50Z</time>
      </trkpt>
      <trkpt lat="43.94088" lon="0.08808">
        <ele>162.8</ele>
        <time>2025-03-30T09:52:51Z</time>
      </trkpt>
      <trkpt lat="43.94089" lon="0.08807">
        <ele>162.8</ele>
        <time>2025-03-30T09:52:52Z</time>
      </trkpt>
      <trkpt lat="43.94089" lon="0.08807">
        <ele>162.7</ele>
        <time>2025-03-30T09:52:53Z</time>
      </trkpt>
      <trkpt lat="43.94091" lon="0.08806">
        <ele>162.7</ele>
        <time>2025-03-30T09:52:54Z</time>
      </trkpt>
      <trkpt lat="43.94092" lon="0.08805">
        <ele>162.7</ele>
        <time>2025-03-30T09:52:55Z</time>
      </trkpt>
      <trkpt lat="43.94093" lon="0.08805">
        <ele>162.7</ele>
        <time>2025-03-30T09:52:56Z</time>
      </trkpt>
      <trkpt lat="43.94095" lon="0.08805">
        <ele>162.7</ele>
        <time>2025-03-30T09:52:57Z</time>
      </trkpt>
      <trkpt lat="43.94097" lon="0.08804">
        <ele>162.7</ele>
        <time>2025-03-30T09:52:58Z</time>
      </trkpt>
      <trkpt lat="43.94098" lon="0.08804">
        <ele>162.7</ele>
        <time>2025-03-30T09:52:59Z</time>
      </trkpt>
      <trkpt lat="43.94098" lon="0.08803">
        <ele>162.7</ele>
        <time>2025-03-30T09:53:00Z</time>
      </trkpt>
      <trkpt lat="43.941" lon="0.08803">
        <ele>162.7</ele>
        <time>2025-03-30T09:53:01Z</time>
      </trkpt>
      <trkpt lat="43.94101" lon="0.08803">
        <ele>162.7</ele>
        <time>2025-03-30T09:53:02Z</time>
      </trkpt>
      <trkpt lat="43.94103" lon="0.08804">
        <ele>162.7</ele>
        <time>2025-03-30T09:53:03Z</time>
      </trkpt>
      <trkpt lat="43.94104" lon="0.08804">
        <ele>162.7</ele>
        <time>2025-03-30T09:53:04Z</time>
      </trkpt>
      <trkpt lat="43.94105" lon="0.08804">
        <ele>162.7</ele>
        <time>2025-03-30T09:53:05Z</time>
      </trkpt>
      <trkpt lat="43.94107" lon="0.08803">
        <ele>162.7</ele>
        <time>2025-03-30T09:53:06Z</time>
      </trkpt>
      <trkpt lat="43.94108" lon="0.08803">
        <ele>162.7</ele>
        <time>2025-03-30T09:53:07Z</time>
      </trkpt>
      <trkpt lat="43.94109" lon="0.08803">
        <ele>162.6</ele>
        <time>2025-03-30T09:53:08Z</time>
      </trkpt>
      <trkpt lat="43.94111" lon="0.08802">
        <ele>162.6</ele>
        <time>2025-03-30T09:53:09Z</time>
      </trkpt>
      <trkpt lat="43.94111" lon="0.08802">
        <ele>162.6</ele>
        <time>2025-03-30T09:53:10Z</time>
      </trkpt>
      <trkpt lat="43.94112" lon="0.08802">
        <ele>162.6</ele>
        <time>2025-03-30T09:53:11Z</time>
      </trkpt>
      <trkpt lat="43.94114" lon="0.08801">
        <ele>162.6</ele>
        <time>2025-03-30T09:53:12Z</time>
      </trkpt>
      <trkpt lat="43.94115" lon="0.08801">
        <ele>162.6</ele>
        <time>2025-03-30T09:53:13Z</time>
      </trkpt>
      <trkpt lat="43.94116" lon="0.08801">
        <ele>162.6</ele>
        <time>2025-03-30T09:53:14Z</time>
      </trkpt>
      <trkpt lat="43.94119" lon="0.08801">
        <ele>162.5</ele>
        <time>2025-03-30T09:53:15Z</time>
      </trkpt>
      <trkpt lat="43.94119" lon="0.08801">
        <ele>162.5</ele>
        <time>2025-03-30T09:53:16Z</time>
      </trkpt>
      <trkpt lat="43.9412" lon="0.088">
        <ele>162.5</ele>
        <time>2025-03-30T09:53:17Z</time>
      </trkpt>
      <trkpt lat="43.94122" lon="0.088">
        <ele>162.5</ele>
        <time>2025-03-30T09:53:18Z</time>
      </trkpt>
      <trkpt lat="43.94123" lon="0.088">
        <ele>162.5</ele>
        <time>2025-03-30T09:53:19Z</time>
      </trkpt>
      <trkpt lat="43.94125" lon="0.08799">
        <ele>162.5</ele>
        <time>2025-03-30T09:53:20Z</time>
      </trkpt>
      <trkpt lat="43.94126" lon="0.08798">
        <ele>162.5</ele>
        <time>2025-03-30T09:53:21Z</time>
      </trkpt>
      <trkpt lat="43.94127" lon="0.08797">
        <ele>162.4</ele>
        <time>2025-03-30T09:53:22Z</time>
      </trkpt>
      <trkpt lat="43.94128" lon="0.08796">
        <ele>162.4</ele>
        <time>2025-03-30T09:53:23Z</time>
      </trkpt>
      <trkpt lat="43.9413" lon="0.08795">
        <ele>162.4</ele>
        <time>2025-03-30T09:53:24Z</time>
      </trkpt>
      <trkpt lat="43.94131" lon="0.08794">
        <ele>162.4</ele>
        <time>2025-03-30T09:53:25Z</time>
      </trkpt>
      <trkpt lat="43.94133" lon="0.08792">
        <ele>162.4</ele>
        <time>2025-03-30T09:53:26Z</time>
      </trkpt>
      <trkpt lat="43.94133" lon="0.08791">
        <ele>162.4</ele>
        <time>2025-03-30T09:53:27Z</time>
      </trkpt>
      <trkpt lat="43.94134" lon="0.08791">
        <ele>162.4</ele>
        <time>2025-03-30T09:53:28Z</time>
      </trkpt>
      <trkpt lat="43.94135" lon="0.0879">
        <ele>162.5</ele>
        <time>2025-03-30T09:53:29Z</time>
      </trkpt>
      <trkpt lat="43.94136" lon="0.08788">
        <ele>162.5</ele>
        <time>2025-03-30T09:53:30Z</time>
      </trkpt>
      <trkpt lat="43.94138" lon="0.08787">
        <ele>162.5</ele>
        <time>2025-03-30T09:53:32Z</time>
      </trkpt>
      <trkpt lat="43.9414" lon="0.08785">
        <ele>162.5</ele>
        <time>2025-03-30T09:53:33Z</time>
      </trkpt>
      <trkpt lat="43.9414" lon="0.08785">
        <ele>162.5</ele>
        <time>2025-03-30T09:53:34Z</time>
      </trkpt>
      <trkpt lat="43.94142" lon="0.08784">
        <ele>162.5</ele>
        <time>2025-03-30T09:53:35Z</time>
      </trkpt>
      <trkpt lat="43.94143" lon="0.08783">
        <ele>162.5</ele>
        <time>2025-03-30T09:53:36Z</time>
      </trkpt>
      <trkpt lat="43.94144" lon="0.08783">
        <ele>162.5</ele>
        <time>2025-03-30T09:53:37Z</time>
      </trkpt>
      <trkpt lat="43.94146" lon="0.08784">
        <ele>162.5</ele>
        <time>2025-03-30T09:53:38Z</time>
      </trkpt>
      <trkpt lat="43.94147" lon="0.08783">
        <ele>162.5</ele>
        <time>2025-03-30T09:53:39Z</time>
      </trkpt>
      <trkpt lat="43.94148" lon="0.08782">
        <ele>162.5</ele>
        <time>2025-03-30T09:53:40Z</time>
      </trkpt>
      <trkpt lat="43.94149" lon="0.08781">
        <ele>162.5</ele>
        <time>2025-03-30T09:53:41Z</time>
      </trkpt>
      <trkpt lat="43.94151" lon="0.0878">
        <ele>162.5</ele>
        <time>2025-03-30T09:53:42Z</time>
      </trkpt>
      <trkpt lat="43.94152" lon="0.08779">
        <ele>162.5</ele>
        <time>2025-03-30T09:53:43Z</time>
      </trkpt>
      <trkpt lat="43.94153" lon="0.08778">
        <ele>162.5</ele>
        <time>2025-03-30T09:53:44Z</time>
      </trkpt>
      <trkpt lat="43.94154" lon="0.08777">
        <ele>162.5</ele>
        <time>2025-03-30T09:53:45Z</time>
      </trkpt>
      <trkpt lat="43.94156" lon="0.08775">
        <ele>162.5</ele>
        <time>2025-03-30T09:53:46Z</time>
      </trkpt>
      <trkpt lat="43.94157" lon="0.08775">
        <ele>162.5</ele>
        <time>2025-03-30T09:53:47Z</time>
      </trkpt>
      <trkpt lat="43.94158" lon="0.08774">
        <ele>162.5</ele>
        <time>2025-03-30T09:53:48Z</time>
      </trkpt>
      <trkpt lat="43.94159" lon="0.08772">
        <ele>162.4</ele>
        <time>2025-03-30T09:53:49Z</time>
      </trkpt>
      <trkpt lat="43.9416" lon="0.08771">
        <ele>162.4</ele>
        <time>2025-03-30T09:53:50Z</time>
      </trkpt>
      <trkpt lat="43.94161" lon="0.0877">
        <ele>162.4</ele>
        <time>2025-03-30T09:53:51Z</time>
      </trkpt>
      <trkpt lat="43.94162" lon="0.08769">
        <ele>162.4</ele>
        <time>2025-03-30T09:53:52Z</time>
      </trkpt>
      <trkpt lat="43.94163" lon="0.08768">
        <ele>162.3</ele>
        <time>2025-03-30T09:53:53Z</time>
      </trkpt>
      <trkpt lat="43.94164" lon="0.08767">
        <ele>162.3</ele>
        <time>2025-03-30T09:53:54Z</time>
      </trkpt>
      <trkpt lat="43.94165" lon="0.08766">
        <ele>162.3</ele>
        <time>2025-03-30T09:53:55Z</time>
      </trkpt>
      <trkpt lat="43.94166" lon="0.08764">
        <ele>162.2</ele>
        <time>2025-03-30T09:53:56Z</time>
      </trkpt>
      <trkpt lat="43.94167" lon="0.08763">
        <ele>162.2</ele>
        <time>2025-03-30T09:53:57Z</time>
      </trkpt>
      <trkpt lat="43.94168" lon="0.08761">
        <ele>162.1</ele>
        <time>2025-03-30T09:53:58Z</time>
      </trkpt>
      <trkpt lat="43.94169" lon="0.08759">
        <ele>162.1</ele>
        <time>2025-03-30T09:53:59Z</time>
      </trkpt>
      <trkpt lat="43.9417" lon="0.08758">
        <ele>162</ele>
        <time>2025-03-30T09:54:00Z</time>
      </trkpt>
      <trkpt lat="43.94171" lon="0.08756">
        <ele>162</ele>
        <time>2025-03-30T09:54:01Z</time>
      </trkpt>
      <trkpt lat="43.94173" lon="0.08753">
        <ele>161.8</ele>
        <time>2025-03-30T09:54:03Z</time>
      </trkpt>
      <trkpt lat="43.94174" lon="0.08752">
        <ele>161.8</ele>
        <time>2025-03-30T09:54:04Z</time>
      </trkpt>
      <trkpt lat="43.94175" lon="0.08752">
        <ele>161.7</ele>
        <time>2025-03-30T09:54:05Z</time>
      </trkpt>
      <trkpt lat="43.94177" lon="0.08751">
        <ele>161.7</ele>
        <time>2025-03-30T09:54:06Z</time>
      </trkpt>
      <trkpt lat="43.94178" lon="0.08753">
        <ele>161.6</ele>
        <time>2025-03-30T09:54:07Z</time>
      </trkpt>
      <trkpt lat="43.9418" lon="0.08752">
        <ele>161.5</ele>
        <time>2025-03-30T09:54:08Z</time>
      </trkpt>
      <trkpt lat="43.94181" lon="0.08751">
        <ele>161.4</ele>
        <time>2025-03-30T09:54:09Z</time>
      </trkpt>
      <trkpt lat="43.94182" lon="0.08749">
        <ele>161.3</ele>
        <time>2025-03-30T09:54:10Z</time>
      </trkpt>
      <trkpt lat="43.94184" lon="0.08748">
        <ele>161.2</ele>
        <time>2025-03-30T09:54:11Z</time>
      </trkpt>
      <trkpt lat="43.94185" lon="0.08747">
        <ele>161.2</ele>
        <time>2025-03-30T09:54:12Z</time>
      </trkpt>
      <trkpt lat="43.94187" lon="0.08747">
        <ele>161</ele>
        <time>2025-03-30T09:54:13Z</time>
      </trkpt>
      <trkpt lat="43.94188" lon="0.08746">
        <ele>161</ele>
        <time>2025-03-30T09:54:14Z</time>
      </trkpt>
      <trkpt lat="43.94189" lon="0.08746">
        <ele>160.9</ele>
        <time>2025-03-30T09:54:15Z</time>
      </trkpt>
      <trkpt lat="43.9419" lon="0.08745">
        <ele>160.9</ele>
        <time>2025-03-30T09:54:16Z</time>
      </trkpt>
      <trkpt lat="43.94192" lon="0.08742">
        <ele>160.7</ele>
        <time>2025-03-30T09:54:18Z</time>
      </trkpt>
      <trkpt lat="43.94192" lon="0.0874">
        <ele>160.6</ele>
        <time>2025-03-30T09:54:19Z</time>
      </trkpt>
      <trkpt lat="43.94194" lon="0.08738">
        <ele>160.4</ele>
        <time>2025-03-30T09:54:20Z</time>
      </trkpt>
      <trkpt lat="43.94195" lon="0.08737">
        <ele>160.4</ele>
        <time>2025-03-30T09:54:21Z</time>
      </trkpt>
      <trkpt lat="43.94195" lon="0.08736">
        <ele>160.3</ele>
        <time>2025-03-30T09:54:22Z</time>
      </trkpt>
      <trkpt lat="43.94197" lon="0.08734">
        <ele>160.2</ele>
        <time>2025-03-30T09:54:23Z</time>
      </trkpt>
      <trkpt lat="43.94198" lon="0.08733">
        <ele>160.1</ele>
        <time>2025-03-30T09:54:24Z</time>
      </trkpt>
      <trkpt lat="43.94199" lon="0.08732">
        <ele>160</ele>
        <time>2025-03-30T09:54:25Z</time>
      </trkpt>
      <trkpt lat="43.94199" lon="0.08729">
        <ele>159.8</ele>
        <time>2025-03-30T09:54:26Z</time>
      </trkpt>
      <trkpt lat="43.942" lon="0.08728">
        <ele>159.8</ele>
        <time>2025-03-30T09:54:27Z</time>
      </trkpt>
      <trkpt lat="43.942" lon="0.08727">
        <ele>159.7</ele>
        <time>2025-03-30T09:54:28Z</time>
      </trkpt>
      <trkpt lat="43.942" lon="0.08727">
        <ele>159.7</ele>
        <time>2025-03-30T09:54:29Z</time>
      </trkpt>
      <trkpt lat="43.94201" lon="0.08725">
        <ele>159.6</ele>
        <time>2025-03-30T09:54:30Z</time>
      </trkpt>
      <trkpt lat="43.94202" lon="0.08724">
        <ele>159.4</ele>
        <time>2025-03-30T09:54:31Z</time>
      </trkpt>
      <trkpt lat="43.94203" lon="0.08723">
        <ele>159.3</ele>
        <time>2025-03-30T09:54:32Z</time>
      </trkpt>
      <trkpt lat="43.94204" lon="0.08721">
        <ele>159.2</ele>
        <time>2025-03-30T09:54:33Z</time>
      </trkpt>
      <trkpt lat="43.94206" lon="0.08719">
        <ele>159</ele>
        <time>2025-03-30T09:54:34Z</time>
      </trkpt>
      <trkpt lat="43.94206" lon="0.08718">
        <ele>158.9</ele>
        <time>2025-03-30T09:54:35Z</time>
      </trkpt>
      <trkpt lat="43.94207" lon="0.08717">
        <ele>158.8</ele>
        <time>2025-03-30T09:54:36Z</time>
      </trkpt>
      <trkpt lat="43.94207" lon="0.08716">
        <ele>158.7</ele>
        <time>2025-03-30T09:54:37Z</time>
      </trkpt>
      <trkpt lat="43.94208" lon="0.08715">
        <ele>158.6</ele>
        <time>2025-03-30T09:54:38Z</time>
      </trkpt>
      <trkpt lat="43.94209" lon="0.08714">
        <ele>158.5</ele>
        <time>2025-03-30T09:54:39Z</time>
      </trkpt>
      <trkpt lat="43.9421" lon="0.08712">
        <ele>158.3</ele>
        <time>2025-03-30T09:54:40Z</time>
      </trkpt>
      <trkpt lat="43.9421" lon="0.0871">
        <ele>158.1</ele>
        <time>2025-03-30T09:54:41Z</time>
      </trkpt>
      <trkpt lat="43.94211" lon="0.08707">
        <ele>157.9</ele>
        <time>2025-03-30T09:54:42Z</time>
      </trkpt>
      <trkpt lat="43.94211" lon="0.08706">
        <ele>157.8</ele>
        <time>2025-03-30T09:54:43Z</time>
      </trkpt>
      <trkpt lat="43.94211" lon="0.08705">
        <ele>157.6</ele>
        <time>2025-03-30T09:54:44Z</time>
      </trkpt>
      <trkpt lat="43.9421" lon="0.08703">
        <ele>157.5</ele>
        <time>2025-03-30T09:54:45Z</time>
      </trkpt>
      <trkpt lat="43.9421" lon="0.08701">
        <ele>157.3</ele>
        <time>2025-03-30T09:54:46Z</time>
      </trkpt>
      <trkpt lat="43.9421" lon="0.08698">
        <ele>156.9</ele>
        <time>2025-03-30T09:54:47Z</time>
      </trkpt>
      <trkpt lat="43.94211" lon="0.08697">
        <ele>156.8</ele>
        <time>2025-03-30T09:54:48Z</time>
      </trkpt>
      <trkpt lat="43.94211" lon="0.08695">
        <ele>156.7</ele>
        <time>2025-03-30T09:54:49Z</time>
      </trkpt>
      <trkpt lat="43.94211" lon="0.08694">
        <ele>156.5</ele>
        <time>2025-03-30T09:54:50Z</time>
      </trkpt>
      <trkpt lat="43.94211" lon="0.08692">
        <ele>156.3</ele>
        <time>2025-03-30T09:54:51Z</time>
      </trkpt>
      <trkpt lat="43.94211" lon="0.08691">
        <ele>156.1</ele>
        <time>2025-03-30T09:54:52Z</time>
      </trkpt>
      <trkpt lat="43.94212" lon="0.08689">
        <ele>155.9</ele>
        <time>2025-03-30T09:54:53Z</time>
      </trkpt>
      <trkpt lat="43.94212" lon="0.08687">
        <ele>155.7</ele>
        <time>2025-03-30T09:54:54Z</time>
      </trkpt>
      <trkpt lat="43.94212" lon="0.08686">
        <ele>155.6</ele>
        <time>2025-03-30T09:54:55Z</time>
      </trkpt>
      <trkpt lat="43.94212" lon="0.08684">
        <ele>155.4</ele>
        <time>2025-03-30T09:54:56Z</time>
      </trkpt>
      <trkpt lat="43.94213" lon="0.08683">
        <ele>155.2</ele>
        <time>2025-03-30T09:54:57Z</time>
      </trkpt>
      <trkpt lat="43.94213" lon="0.08681">
        <ele>155</ele>
        <time>2025-03-30T09:54:58Z</time>
      </trkpt>
      <trkpt lat="43.94213" lon="0.0868">
        <ele>154.8</ele>
        <time>2025-03-30T09:54:59Z</time>
      </trkpt>
      <trkpt lat="43.94212" lon="0.08679">
        <ele>154.7</ele>
        <time>2025-03-30T09:55:00Z</time>
      </trkpt>
      <trkpt lat="43.94211" lon="0.08678">
        <ele>154.5</ele>
        <time>2025-03-30T09:55:01Z</time>
      </trkpt>
      <trkpt lat="43.94211" lon="0.08676">
        <ele>154.3</ele>
        <time>2025-03-30T09:55:02Z</time>
      </trkpt>
      <trkpt lat="43.94211" lon="0.08675">
        <ele>154.1</ele>
        <time>2025-03-30T09:55:03Z</time>
      </trkpt>
      <trkpt lat="43.94211" lon="0.08673">
        <ele>154</ele>
        <time>2025-03-30T09:55:04Z</time>
      </trkpt>
      <trkpt lat="43.94211" lon="0.08672">
        <ele>153.8</ele>
        <time>2025-03-30T09:55:05Z</time>
      </trkpt>
      <trkpt lat="43.94211" lon="0.0867">
        <ele>153.6</ele>
        <time>2025-03-30T09:55:06Z</time>
      </trkpt>
      <trkpt lat="43.9421" lon="0.08669">
        <ele>153.4</ele>
        <time>2025-03-30T09:55:07Z</time>
      </trkpt>
      <trkpt lat="43.94209" lon="0.08668">
        <ele>153.3</ele>
        <time>2025-03-30T09:55:08Z</time>
      </trkpt>
      <trkpt lat="43.94208" lon="0.08666">
        <ele>153</ele>
        <time>2025-03-30T09:55:09Z</time>
      </trkpt>
      <trkpt lat="43.94209" lon="0.08665">
        <ele>152.9</ele>
        <time>2025-03-30T09:55:10Z</time>
      </trkpt>
      <trkpt lat="43.94209" lon="0.08662">
        <ele>152.6</ele>
        <time>2025-03-30T09:55:11Z</time>
      </trkpt>
      <trkpt lat="43.9421" lon="0.0866">
        <ele>152.5</ele>
        <time>2025-03-30T09:55:12Z</time>
      </trkpt>
      <trkpt lat="43.9421" lon="0.08659">
        <ele>152.4</ele>
        <time>2025-03-30T09:55:13Z</time>
      </trkpt>
      <trkpt lat="43.94211" lon="0.08657">
        <ele>152.2</ele>
        <time>2025-03-30T09:55:14Z</time>
      </trkpt>
      <trkpt lat="43.94211" lon="0.08656">
        <ele>152</ele>
        <time>2025-03-30T09:55:15Z</time>
      </trkpt>
      <trkpt lat="43.94212" lon="0.08653">
        <ele>151.8</ele>
        <time>2025-03-30T09:55:16Z</time>
      </trkpt>
      <trkpt lat="43.94213" lon="0.08652">
        <ele>151.6</ele>
        <time>2025-03-30T09:55:17Z</time>
      </trkpt>
      <trkpt lat="43.94213" lon="0.08651">
        <ele>151.6</ele>
        <time>2025-03-30T09:55:18Z</time>
      </trkpt>
      <trkpt lat="43.94214" lon="0.0865">
        <ele>151.4</ele>
        <time>2025-03-30T09:55:19Z</time>
      </trkpt>
      <trkpt lat="43.94215" lon="0.08648">
        <ele>151.2</ele>
        <time>2025-03-30T09:55:20Z</time>
      </trkpt>
      <trkpt lat="43.94216" lon="0.08646">
        <ele>151</ele>
        <time>2025-03-30T09:55:21Z</time>
      </trkpt>
      <trkpt lat="43.94217" lon="0.08644">
        <ele>150.8</ele>
        <time>2025-03-30T09:55:22Z</time>
      </trkpt>
      <trkpt lat="43.94217" lon="0.08643">
        <ele>150.7</ele>
        <time>2025-03-30T09:55:23Z</time>
      </trkpt>
      <trkpt lat="43.94217" lon="0.08641">
        <ele>150.6</ele>
        <time>2025-03-30T09:55:24Z</time>
      </trkpt>
      <trkpt lat="43.94218" lon="0.0864">
        <ele>150.5</ele>
        <time>2025-03-30T09:55:25Z</time>
      </trkpt>
      <trkpt lat="43.94218" lon="0.08637">
        <ele>150.3</ele>
        <time>2025-03-30T09:55:26Z</time>
      </trkpt>
      <trkpt lat="43.94218" lon="0.08636">
        <ele>150.2</ele>
        <time>2025-03-30T09:55:27Z</time>
      </trkpt>
      <trkpt lat="43.94218" lon="0.08635">
        <ele>150.1</ele>
        <time>2025-03-30T09:55:28Z</time>
      </trkpt>
      <trkpt lat="43.94219" lon="0.08632">
        <ele>149.9</ele>
        <time>2025-03-30T09:55:29Z</time>
      </trkpt>
      <trkpt lat="43.94219" lon="0.0863">
        <ele>149.8</ele>
        <time>2025-03-30T09:55:30Z</time>
      </trkpt>
      <trkpt lat="43.94219" lon="0.08629">
        <ele>149.8</ele>
        <time>2025-03-30T09:55:31Z</time>
      </trkpt>
      <trkpt lat="43.9422" lon="0.08627">
        <ele>149.6</ele>
        <time>2025-03-30T09:55:32Z</time>
      </trkpt>
      <trkpt lat="43.94221" lon="0.08625">
        <ele>149.5</ele>
        <time>2025-03-30T09:55:33Z</time>
      </trkpt>
      <trkpt lat="43.94221" lon="0.08624">
        <ele>149.4</ele>
        <time>2025-03-30T09:55:34Z</time>
      </trkpt>
      <trkpt lat="43.94221" lon="0.08623">
        <ele>149.3</ele>
        <time>2025-03-30T09:55:35Z</time>
      </trkpt>
      <trkpt lat="43.94222" lon="0.08619">
        <ele>149.1</ele>
        <time>2025-03-30T09:55:36Z</time>
      </trkpt>
      <trkpt lat="43.94222" lon="0.08619">
        <ele>149.1</ele>
        <time>2025-03-30T09:55:37Z</time>
      </trkpt>
      <trkpt lat="43.94222" lon="0.08618">
        <ele>149</ele>
        <time>2025-03-30T09:55:38Z</time>
      </trkpt>
      <trkpt lat="43.94223" lon="0.08616">
        <ele>148.9</ele>
        <time>2025-03-30T09:55:39Z</time>
      </trkpt>
      <trkpt lat="43.94223" lon="0.08615">
        <ele>148.8</ele>
        <time>2025-03-30T09:55:40Z</time>
      </trkpt>
      <trkpt lat="43.94223" lon="0.08611">
        <ele>148.6</ele>
        <time>2025-03-30T09:55:42Z</time>
      </trkpt>
      <trkpt lat="43.94224" lon="0.08607">
        <ele>148.4</ele>
        <time>2025-03-30T09:55:44Z</time>
      </trkpt>
      <trkpt lat="43.94224" lon="0.08606">
        <ele>148.3</ele>
        <time>2025-03-30T09:55:45Z</time>
      </trkpt>
      <trkpt lat="43.94224" lon="0.08603">
        <ele>148.1</ele>
        <time>2025-03-30T09:55:46Z</time>
      </trkpt>
      <trkpt lat="43.94224" lon="0.08602">
        <ele>148.1</ele>
        <time>2025-03-30T09:55:47Z</time>
      </trkpt>
      <trkpt lat="43.94224" lon="0.08601">
        <ele>147.9</ele>
        <time>2025-03-30T09:55:48Z</time>
      </trkpt>
      <trkpt lat="43.94224" lon="0.08598">
        <ele>147.8</ele>
        <time>2025-03-30T09:55:49Z</time>
      </trkpt>
      <trkpt lat="43.94225" lon="0.08597">
        <ele>147.6</ele>
        <time>2025-03-30T09:55:50Z</time>
      </trkpt>
      <trkpt lat="43.94224" lon="0.08595">
        <ele>147.3</ele>
        <time>2025-03-30T09:55:51Z</time>
      </trkpt>
      <trkpt lat="43.94224" lon="0.08594">
        <ele>147.1</ele>
        <time>2025-03-30T09:55:52Z</time>
      </trkpt>
      <trkpt lat="43.94224" lon="0.08594">
        <ele>147</ele>
        <time>2025-03-30T09:55:53Z</time>
      </trkpt>
      <trkpt lat="43.94224" lon="0.08594">
        <ele>147</ele>
        <time>2025-03-30T09:55:54Z</time>
      </trkpt>
      <trkpt lat="43.94224" lon="0.08594">
        <ele>146.9</ele>
        <time>2025-03-30T09:55:55Z</time>
      </trkpt>
      <trkpt lat="43.94225" lon="0.08591">
        <ele>146.5</ele>
        <time>2025-03-30T09:55:56Z</time>
      </trkpt>
      <trkpt lat="43.94226" lon="0.08591">
        <ele>146.2</ele>
        <time>2025-03-30T09:55:57Z</time>
      </trkpt>
      <trkpt lat="43.94227" lon="0.08588">
        <ele>145.7</ele>
        <time>2025-03-30T09:55:58Z</time>
      </trkpt>
      <trkpt lat="43.94228" lon="0.08586">
        <ele>145.4</ele>
        <time>2025-03-30T09:55:59Z</time>
      </trkpt>
      <trkpt lat="43.94229" lon="0.08584">
        <ele>145.1</ele>
        <time>2025-03-30T09:56:00Z</time>
      </trkpt>
      <trkpt lat="43.94229" lon="0.08583">
        <ele>144.8</ele>
        <time>2025-03-30T09:56:01Z</time>
      </trkpt>
      <trkpt lat="43.9423" lon="0.08581">
        <ele>144.5</ele>
        <time>2025-03-30T09:56:02Z</time>
      </trkpt>
      <trkpt lat="43.94231" lon="0.0858">
        <ele>144.3</ele>
        <time>2025-03-30T09:56:03Z</time>
      </trkpt>
      <trkpt lat="43.94232" lon="0.08578">
        <ele>144</ele>
        <time>2025-03-30T09:56:04Z</time>
      </trkpt>
      <trkpt lat="43.94233" lon="0.08577">
        <ele>143.8</ele>
        <time>2025-03-30T09:56:05Z</time>
      </trkpt>
      <trkpt lat="43.94233" lon="0.08575">
        <ele>143.6</ele>
        <time>2025-03-30T09:56:06Z</time>
      </trkpt>
      <trkpt lat="43.94234" lon="0.08574">
        <ele>143.4</ele>
        <time>2025-03-30T09:56:07Z</time>
      </trkpt>
      <trkpt lat="43.94235" lon="0.08573">
        <ele>143.2</ele>
        <time>2025-03-30T09:56:08Z</time>
      </trkpt>
      <trkpt lat="43.94237" lon="0.08573">
        <ele>143.1</ele>
        <time>2025-03-30T09:56:09Z</time>
      </trkpt>
      <trkpt lat="43.94237" lon="0.08572">
        <ele>142.9</ele>
        <time>2025-03-30T09:56:10Z</time>
      </trkpt>
      <trkpt lat="43.94239" lon="0.08572">
        <ele>142.8</ele>
        <time>2025-03-30T09:56:11Z</time>
      </trkpt>
      <trkpt lat="43.94241" lon="0.08571">
        <ele>142.5</ele>
        <time>2025-03-30T09:56:12Z</time>
      </trkpt>
      <trkpt lat="43.94241" lon="0.08571">
        <ele>142.4</ele>
        <time>2025-03-30T09:56:13Z</time>
      </trkpt>
      <trkpt lat="43.94242" lon="0.08571">
        <ele>142.4</ele>
        <time>2025-03-30T09:56:14Z</time>
      </trkpt>
      <trkpt lat="43.94244" lon="0.08571">
        <ele>142.2</ele>
        <time>2025-03-30T09:56:15Z</time>
      </trkpt>
      <trkpt lat="43.94245" lon="0.0857">
        <ele>142.1</ele>
        <time>2025-03-30T09:56:16Z</time>
      </trkpt>
      <trkpt lat="43.94246" lon="0.0857">
        <ele>142</ele>
        <time>2025-03-30T09:56:17Z</time>
      </trkpt>
      <trkpt lat="43.94248" lon="0.08571">
        <ele>141.9</ele>
        <time>2025-03-30T09:56:18Z</time>
      </trkpt>
      <trkpt lat="43.94249" lon="0.08571">
        <ele>141.8</ele>
        <time>2025-03-30T09:56:19Z</time>
      </trkpt>
      <trkpt lat="43.9425" lon="0.08571">
        <ele>141.8</ele>
        <time>2025-03-30T09:56:20Z</time>
      </trkpt>
      <trkpt lat="43.94252" lon="0.08571">
        <ele>141.7</ele>
        <time>2025-03-30T09:56:21Z</time>
      </trkpt>
      <trkpt lat="43.94254" lon="0.08572">
        <ele>141.5</ele>
        <time>2025-03-30T09:56:22Z</time>
      </trkpt>
      <trkpt lat="43.94255" lon="0.08572">
        <ele>141.5</ele>
        <time>2025-03-30T09:56:23Z</time>
      </trkpt>
      <trkpt lat="43.94256" lon="0.08572">
        <ele>141.4</ele>
        <time>2025-03-30T09:56:24Z</time>
      </trkpt>
      <trkpt lat="43.94257" lon="0.08574">
        <ele>141.4</ele>
        <time>2025-03-30T09:56:25Z</time>
      </trkpt>
      <trkpt lat="43.94258" lon="0.08575">
        <ele>141.3</ele>
        <time>2025-03-30T09:56:26Z</time>
      </trkpt>
      <trkpt lat="43.94258" lon="0.08577">
        <ele>141.2</ele>
        <time>2025-03-30T09:56:27Z</time>
      </trkpt>
      <trkpt lat="43.94259" lon="0.08578">
        <ele>141.1</ele>
        <time>2025-03-30T09:56:28Z</time>
      </trkpt>
      <trkpt lat="43.94261" lon="0.08579">
        <ele>141</ele>
        <time>2025-03-30T09:56:29Z</time>
      </trkpt>
      <trkpt lat="43.94262" lon="0.0858">
        <ele>140.9</ele>
        <time>2025-03-30T09:56:30Z</time>
      </trkpt>
      <trkpt lat="43.94263" lon="0.08581">
        <ele>140.9</ele>
        <time>2025-03-30T09:56:31Z</time>
      </trkpt>
      <trkpt lat="43.94264" lon="0.08582">
        <ele>140.8</ele>
        <time>2025-03-30T09:56:32Z</time>
      </trkpt>
      <trkpt lat="43.94265" lon="0.08582">
        <ele>140.7</ele>
        <time>2025-03-30T09:56:33Z</time>
      </trkpt>
      <trkpt lat="43.94266" lon="0.08583">
        <ele>140.7</ele>
        <time>2025-03-30T09:56:34Z</time>
      </trkpt>
      <trkpt lat="43.94267" lon="0.08584">
        <ele>140.6</ele>
        <time>2025-03-30T09:56:35Z</time>
      </trkpt>
      <trkpt lat="43.94268" lon="0.08585">
        <ele>140.5</ele>
        <time>2025-03-30T09:56:36Z</time>
      </trkpt>
      <trkpt lat="43.9427" lon="0.08586">
        <ele>140.4</ele>
        <time>2025-03-30T09:56:37Z</time>
      </trkpt>
      <trkpt lat="43.94271" lon="0.08586">
        <ele>140.4</ele>
        <time>2025-03-30T09:56:38Z</time>
      </trkpt>
      <trkpt lat="43.94272" lon="0.08587">
        <ele>140.3</ele>
        <time>2025-03-30T09:56:39Z</time>
      </trkpt>
      <trkpt lat="43.94273" lon="0.08587">
        <ele>140.2</ele>
        <time>2025-03-30T09:56:40Z</time>
      </trkpt>
      <trkpt lat="43.94274" lon="0.08587">
        <ele>140.2</ele>
        <time>2025-03-30T09:56:41Z</time>
      </trkpt>
      <trkpt lat="43.94275" lon="0.08587">
        <ele>140.1</ele>
        <time>2025-03-30T09:56:42Z</time>
      </trkpt>
      <trkpt lat="43.94277" lon="0.08588">
        <ele>140</ele>
        <time>2025-03-30T09:56:43Z</time>
      </trkpt>
      <trkpt lat="43.94278" lon="0.08588">
        <ele>140</ele>
        <time>2025-03-30T09:56:44Z</time>
      </trkpt>
      <trkpt lat="43.94279" lon="0.08589">
        <ele>139.9</ele>
        <time>2025-03-30T09:56:45Z</time>
      </trkpt>
      <trkpt lat="43.9428" lon="0.08589">
        <ele>139.8</ele>
        <time>2025-03-30T09:56:46Z</time>
      </trkpt>
      <trkpt lat="43.94281" lon="0.0859">
        <ele>139.8</ele>
        <time>2025-03-30T09:56:47Z</time>
      </trkpt>
      <trkpt lat="43.94284" lon="0.08591">
        <ele>139.6</ele>
        <time>2025-03-30T09:56:48Z</time>
      </trkpt>
      <trkpt lat="43.94285" lon="0.08592">
        <ele>139.5</ele>
        <time>2025-03-30T09:56:50Z</time>
      </trkpt>
      <trkpt lat="43.94287" lon="0.08592">
        <ele>139.5</ele>
        <time>2025-03-30T09:56:51Z</time>
      </trkpt>
      <trkpt lat="43.94288" lon="0.08593">
        <ele>139.4</ele>
        <time>2025-03-30T09:56:52Z</time>
      </trkpt>
      <trkpt lat="43.94289" lon="0.08593">
        <ele>139.3</ele>
        <time>2025-03-30T09:56:53Z</time>
      </trkpt>
      <trkpt lat="43.94291" lon="0.08593">
        <ele>139.2</ele>
        <time>2025-03-30T09:56:54Z</time>
      </trkpt>
      <trkpt lat="43.94292" lon="0.08594">
        <ele>139.2</ele>
        <time>2025-03-30T09:56:55Z</time>
      </trkpt>
      <trkpt lat="43.94294" lon="0.08594">
        <ele>139.1</ele>
        <time>2025-03-30T09:56:56Z</time>
      </trkpt>
      <trkpt lat="43.94296" lon="0.08595">
        <ele>139</ele>
        <time>2025-03-30T09:56:57Z</time>
      </trkpt>
      <trkpt lat="43.94297" lon="0.08595">
        <ele>138.9</ele>
        <time>2025-03-30T09:56:58Z</time>
      </trkpt>
      <trkpt lat="43.94298" lon="0.08596">
        <ele>138.9</ele>
        <time>2025-03-30T09:56:59Z</time>
      </trkpt>
      <trkpt lat="43.94299" lon="0.08596">
        <ele>138.8</ele>
        <time>2025-03-30T09:57:00Z</time>
      </trkpt>
      <trkpt lat="43.943" lon="0.08597">
        <ele>138.7</ele>
        <time>2025-03-30T09:57:01Z</time>
      </trkpt>
      <trkpt lat="43.94302" lon="0.08597">
        <ele>138.6</ele>
        <time>2025-03-30T09:57:02Z</time>
      </trkpt>
      <trkpt lat="43.94303" lon="0.08598">
        <ele>138.5</ele>
        <time>2025-03-30T09:57:03Z</time>
      </trkpt>
      <trkpt lat="43.94304" lon="0.08598">
        <ele>138.5</ele>
        <time>2025-03-30T09:57:04Z</time>
      </trkpt>
      <trkpt lat="43.94305" lon="0.08598">
        <ele>138.4</ele>
        <time>2025-03-30T09:57:05Z</time>
      </trkpt>
      <trkpt lat="43.94307" lon="0.08599">
        <ele>138.3</ele>
        <time>2025-03-30T09:57:06Z</time>
      </trkpt>
      <trkpt lat="43.94309" lon="0.086">
        <ele>138.2</ele>
        <time>2025-03-30T09:57:07Z</time>
      </trkpt>
      <trkpt lat="43.94309" lon="0.086">
        <ele>138.1</ele>
        <time>2025-03-30T09:57:08Z</time>
      </trkpt>
      <trkpt lat="43.9431" lon="0.08601">
        <ele>138.1</ele>
        <time>2025-03-30T09:57:09Z</time>
      </trkpt>
      <trkpt lat="43.94311" lon="0.08602">
        <ele>138</ele>
        <time>2025-03-30T09:57:10Z</time>
      </trkpt>
      <trkpt lat="43.94312" lon="0.08603">
        <ele>137.9</ele>
        <time>2025-03-30T09:57:11Z</time>
      </trkpt>
      <trkpt lat="43.94313" lon="0.08603">
        <ele>137.8</ele>
        <time>2025-03-30T09:57:12Z</time>
      </trkpt>
      <trkpt lat="43.94315" lon="0.08603">
        <ele>137.7</ele>
        <time>2025-03-30T09:57:13Z</time>
      </trkpt>
      <trkpt lat="43.94316" lon="0.08603">
        <ele>137.6</ele>
        <time>2025-03-30T09:57:14Z</time>
      </trkpt>
      <trkpt lat="43.94318" lon="0.08603">
        <ele>137.5</ele>
        <time>2025-03-30T09:57:15Z</time>
      </trkpt>
      <trkpt lat="43.94319" lon="0.08602">
        <ele>137.4</ele>
        <time>2025-03-30T09:57:16Z</time>
      </trkpt>
      <trkpt lat="43.94321" lon="0.08602">
        <ele>137.3</ele>
        <time>2025-03-30T09:57:17Z</time>
      </trkpt>
      <trkpt lat="43.94322" lon="0.08602">
        <ele>137.3</ele>
        <time>2025-03-30T09:57:18Z</time>
      </trkpt>
      <trkpt lat="43.94323" lon="0.08602">
        <ele>137.2</ele>
        <time>2025-03-30T09:57:19Z</time>
      </trkpt>
      <trkpt lat="43.94324" lon="0.08602">
        <ele>137.1</ele>
        <time>2025-03-30T09:57:20Z</time>
      </trkpt>
      <trkpt lat="43.94326" lon="0.08601">
        <ele>137</ele>
        <time>2025-03-30T09:57:21Z</time>
      </trkpt>
      <trkpt lat="43.94327" lon="0.08601">
        <ele>136.9</ele>
        <time>2025-03-30T09:57:22Z</time>
      </trkpt>
      <trkpt lat="43.94328" lon="0.08601">
        <ele>136.8</ele>
        <time>2025-03-30T09:57:23Z</time>
      </trkpt>
      <trkpt lat="43.94329" lon="0.08601">
        <ele>136.8</ele>
        <time>2025-03-30T09:57:24Z</time>
      </trkpt>
      <trkpt lat="43.94331" lon="0.08601">
        <ele>136.7</ele>
        <time>2025-03-30T09:57:25Z</time>
      </trkpt>
      <trkpt lat="43.94332" lon="0.08601">
        <ele>136.6</ele>
        <time>2025-03-30T09:57:26Z</time>
      </trkpt>
      <trkpt lat="43.94332" lon="0.08601">
        <ele>136.6</ele>
        <time>2025-03-30T09:57:27Z</time>
      </trkpt>
      <trkpt lat="43.94334" lon="0.08601">
        <ele>136.5</ele>
        <time>2025-03-30T09:57:28Z</time>
      </trkpt>
      <trkpt lat="43.94337" lon="0.08601">
        <ele>136.3</ele>
        <time>2025-03-30T09:57:30Z</time>
      </trkpt>
      <trkpt lat="43.94338" lon="0.08602">
        <ele>136.2</ele>
        <time>2025-03-30T09:57:31Z</time>
      </trkpt>
      <trkpt lat="43.9434" lon="0.08602">
        <ele>136.1</ele>
        <time>2025-03-30T09:57:32Z</time>
      </trkpt>
      <trkpt lat="43.94341" lon="0.08603">
        <ele>136</ele>
        <time>2025-03-30T09:57:33Z</time>
      </trkpt>
      <trkpt lat="43.94343" lon="0.08603">
        <ele>135.9</ele>
        <time>2025-03-30T09:57:34Z</time>
      </trkpt>
      <trkpt lat="43.94344" lon="0.08604">
        <ele>135.9</ele>
        <time>2025-03-30T09:57:35Z</time>
      </trkpt>
      <trkpt lat="43.94346" lon="0.08604">
        <ele>135.7</ele>
        <time>2025-03-30T09:57:36Z</time>
      </trkpt>
      <trkpt lat="43.94347" lon="0.08604">
        <ele>135.7</ele>
        <time>2025-03-30T09:57:37Z</time>
      </trkpt>
      <trkpt lat="43.94349" lon="0.08604">
        <ele>135.6</ele>
        <time>2025-03-30T09:57:38Z</time>
      </trkpt>
      <trkpt lat="43.9435" lon="0.08605">
        <ele>135.5</ele>
        <time>2025-03-30T09:57:39Z</time>
      </trkpt>
      <trkpt lat="43.94352" lon="0.08605">
        <ele>135.4</ele>
        <time>2025-03-30T09:57:40Z</time>
      </trkpt>
      <trkpt lat="43.94353" lon="0.08606">
        <ele>135.3</ele>
        <time>2025-03-30T09:57:41Z</time>
      </trkpt>
      <trkpt lat="43.94355" lon="0.08606">
        <ele>135.2</ele>
        <time>2025-03-30T09:57:42Z</time>
      </trkpt>
      <trkpt lat="43.94357" lon="0.08607">
        <ele>135.1</ele>
        <time>2025-03-30T09:57:43Z</time>
      </trkpt>
      <trkpt lat="43.94358" lon="0.08607">
        <ele>135</ele>
        <time>2025-03-30T09:57:44Z</time>
      </trkpt>
      <trkpt lat="43.9436" lon="0.08607">
        <ele>134.9</ele>
        <time>2025-03-30T09:57:45Z</time>
      </trkpt>
      <trkpt lat="43.94361" lon="0.08607">
        <ele>134.8</ele>
        <time>2025-03-30T09:57:46Z</time>
      </trkpt>
      <trkpt lat="43.94362" lon="0.08607">
        <ele>134.7</ele>
        <time>2025-03-30T09:57:47Z</time>
      </trkpt>
      <trkpt lat="43.94363" lon="0.08605">
        <ele>134.7</ele>
        <time>2025-03-30T09:57:48Z</time>
      </trkpt>
      <trkpt lat="43.94364" lon="0.08603">
        <ele>134.6</ele>
        <time>2025-03-30T09:57:49Z</time>
      </trkpt>
      <trkpt lat="43.94365" lon="0.08603">
        <ele>134.5</ele>
        <time>2025-03-30T09:57:50Z</time>
      </trkpt>
      <trkpt lat="43.94367" lon="0.08603">
        <ele>134.4</ele>
        <time>2025-03-30T09:57:51Z</time>
      </trkpt>
      <trkpt lat="43.9437" lon="0.08603">
        <ele>134.2</ele>
        <time>2025-03-30T09:57:52Z</time>
      </trkpt>
      <trkpt lat="43.94371" lon="0.08603">
        <ele>134.1</ele>
        <time>2025-03-30T09:57:53Z</time>
      </trkpt>
      <trkpt lat="43.94373" lon="0.08603">
        <ele>134</ele>
        <time>2025-03-30T09:57:54Z</time>
      </trkpt>
      <trkpt lat="43.94374" lon="0.08603">
        <ele>133.9</ele>
        <time>2025-03-30T09:57:55Z</time>
      </trkpt>
      <trkpt lat="43.94376" lon="0.08603">
        <ele>133.8</ele>
        <time>2025-03-30T09:57:56Z</time>
      </trkpt>
      <trkpt lat="43.94377" lon="0.08603">
        <ele>133.8</ele>
        <time>2025-03-30T09:57:57Z</time>
      </trkpt>
      <trkpt lat="43.94379" lon="0.08603">
        <ele>133.7</ele>
        <time>2025-03-30T09:57:58Z</time>
      </trkpt>
      <trkpt lat="43.9438" lon="0.08603">
        <ele>133.6</ele>
        <time>2025-03-30T09:57:59Z</time>
      </trkpt>
      <trkpt lat="43.94382" lon="0.08603">
        <ele>133.5</ele>
        <time>2025-03-30T09:58:00Z</time>
      </trkpt>
      <trkpt lat="43.94383" lon="0.08603">
        <ele>133.4</ele>
        <time>2025-03-30T09:58:01Z</time>
      </trkpt>
      <trkpt lat="43.94384" lon="0.08603">
        <ele>133.4</ele>
        <time>2025-03-30T09:58:02Z</time>
      </trkpt>
      <trkpt lat="43.94385" lon="0.08603">
        <ele>133.4</ele>
        <time>2025-03-30T09:58:03Z</time>
      </trkpt>
      <trkpt lat="43.94387" lon="0.08603">
        <ele>133.3</ele>
        <time>2025-03-30T09:58:04Z</time>
      </trkpt>
      <trkpt lat="43.94388" lon="0.08603">
        <ele>133.3</ele>
        <time>2025-03-30T09:58:05Z</time>
      </trkpt>
      <trkpt lat="43.94389" lon="0.08603">
        <ele>133.2</ele>
        <time>2025-03-30T09:58:06Z</time>
      </trkpt>
      <trkpt lat="43.94392" lon="0.08603">
        <ele>133.1</ele>
        <time>2025-03-30T09:58:07Z</time>
      </trkpt>
      <trkpt lat="43.94393" lon="0.08603">
        <ele>133</ele>
        <time>2025-03-30T09:58:08Z</time>
      </trkpt>
      <trkpt lat="43.94393" lon="0.08603">
        <ele>133</ele>
        <time>2025-03-30T09:58:09Z</time>
      </trkpt>
      <trkpt lat="43.94396" lon="0.08603">
        <ele>132.8</ele>
        <time>2025-03-30T09:58:10Z</time>
      </trkpt>
      <trkpt lat="43.94396" lon="0.08603">
        <ele>132.8</ele>
        <time>2025-03-30T09:58:11Z</time>
      </trkpt>
      <trkpt lat="43.94397" lon="0.08603">
        <ele>132.7</ele>
        <time>2025-03-30T09:58:12Z</time>
      </trkpt>
      <trkpt lat="43.944" lon="0.08603">
        <ele>132.6</ele>
        <time>2025-03-30T09:58:13Z</time>
      </trkpt>
      <trkpt lat="43.944" lon="0.08603">
        <ele>132.5</ele>
        <time>2025-03-30T09:58:14Z</time>
      </trkpt>
      <trkpt lat="43.94401" lon="0.08603">
        <ele>132.5</ele>
        <time>2025-03-30T09:58:15Z</time>
      </trkpt>
      <trkpt lat="43.94404" lon="0.08603">
        <ele>132.3</ele>
        <time>2025-03-30T09:58:16Z</time>
      </trkpt>
      <trkpt lat="43.94404" lon="0.08603">
        <ele>132.3</ele>
        <time>2025-03-30T09:58:17Z</time>
      </trkpt>
      <trkpt lat="43.94405" lon="0.08603">
        <ele>132.3</ele>
        <time>2025-03-30T09:58:18Z</time>
      </trkpt>
      <trkpt lat="43.94407" lon="0.08603">
        <ele>132.2</ele>
        <time>2025-03-30T09:58:19Z</time>
      </trkpt>
      <trkpt lat="43.94408" lon="0.08603">
        <ele>132.2</ele>
        <time>2025-03-30T09:58:20Z</time>
      </trkpt>
      <trkpt lat="43.9441" lon="0.08603">
        <ele>132.1</ele>
        <time>2025-03-30T09:58:21Z</time>
      </trkpt>
      <trkpt lat="43.94411" lon="0.08603">
        <ele>132.1</ele>
        <time>2025-03-30T09:58:22Z</time>
      </trkpt>
      <trkpt lat="43.94412" lon="0.08603">
        <ele>132</ele>
        <time>2025-03-30T09:58:23Z</time>
      </trkpt>
      <trkpt lat="43.94414" lon="0.08602">
        <ele>132</ele>
        <time>2025-03-30T09:58:24Z</time>
      </trkpt>
      <trkpt lat="43.94415" lon="0.08602">
        <ele>132</ele>
        <time>2025-03-30T09:58:25Z</time>
      </trkpt>
      <trkpt lat="43.94417" lon="0.08602">
        <ele>131.9</ele>
        <time>2025-03-30T09:58:26Z</time>
      </trkpt>
      <trkpt lat="43.94417" lon="0.086">
        <ele>131.9</ele>
        <time>2025-03-30T09:58:27Z</time>
      </trkpt>
      <trkpt lat="43.94418" lon="0.08598">
        <ele>131.9</ele>
        <time>2025-03-30T09:58:28Z</time>
      </trkpt>
      <trkpt lat="43.94419" lon="0.08597">
        <ele>131.9</ele>
        <time>2025-03-30T09:58:29Z</time>
      </trkpt>
      <trkpt lat="43.9442" lon="0.08596">
        <ele>131.9</ele>
        <time>2025-03-30T09:58:30Z</time>
      </trkpt>
      <trkpt lat="43.94422" lon="0.08595">
        <ele>131.8</ele>
        <time>2025-03-30T09:58:31Z</time>
      </trkpt>
      <trkpt lat="43.94423" lon="0.08595">
        <ele>131.8</ele>
        <time>2025-03-30T09:58:32Z</time>
      </trkpt>
      <trkpt lat="43.94425" lon="0.08595">
        <ele>131.8</ele>
        <time>2025-03-30T09:58:33Z</time>
      </trkpt>
      <trkpt lat="43.94426" lon="0.08595">
        <ele>131.8</ele>
        <time>2025-03-30T09:58:34Z</time>
      </trkpt>
      <trkpt lat="43.94428" lon="0.08595">
        <ele>131.9</ele>
        <time>2025-03-30T09:58:35Z</time>
      </trkpt>
      <trkpt lat="43.94429" lon="0.08595">
        <ele>131.9</ele>
        <time>2025-03-30T09:58:36Z</time>
      </trkpt>
      <trkpt lat="43.94431" lon="0.08595">
        <ele>131.9</ele>
        <time>2025-03-30T09:58:37Z</time>
      </trkpt>
      <trkpt lat="43.94432" lon="0.08595">
        <ele>131.9</ele>
        <time>2025-03-30T09:58:38Z</time>
      </trkpt>
      <trkpt lat="43.94434" lon="0.08595">
        <ele>131.8</ele>
        <time>2025-03-30T09:58:39Z</time>
      </trkpt>
      <trkpt lat="43.94435" lon="0.08595">
        <ele>131.8</ele>
        <time>2025-03-30T09:58:40Z</time>
      </trkpt>
      <trkpt lat="43.94438" lon="0.08595">
        <ele>131.8</ele>
        <time>2025-03-30T09:58:41Z</time>
      </trkpt>
      <trkpt lat="43.94438" lon="0.08595">
        <ele>131.8</ele>
        <time>2025-03-30T09:58:42Z</time>
      </trkpt>
      <trkpt lat="43.94439" lon="0.08595">
        <ele>131.8</ele>
        <time>2025-03-30T09:58:43Z</time>
      </trkpt>
      <trkpt lat="43.94441" lon="0.08596">
        <ele>131.8</ele>
        <time>2025-03-30T09:58:44Z</time>
      </trkpt>
      <trkpt lat="43.94442" lon="0.08596">
        <ele>131.7</ele>
        <time>2025-03-30T09:58:45Z</time>
      </trkpt>
      <trkpt lat="43.94443" lon="0.08596">
        <ele>131.7</ele>
        <time>2025-03-30T09:58:46Z</time>
      </trkpt>
      <trkpt lat="43.94444" lon="0.08596">
        <ele>131.7</ele>
        <time>2025-03-30T09:58:47Z</time>
      </trkpt>
      <trkpt lat="43.94446" lon="0.08596">
        <ele>131.6</ele>
        <time>2025-03-30T09:58:48Z</time>
      </trkpt>
      <trkpt lat="43.94448" lon="0.08596">
        <ele>131.6</ele>
        <time>2025-03-30T09:58:49Z</time>
      </trkpt>
      <trkpt lat="43.94449" lon="0.08596">
        <ele>131.6</ele>
        <time>2025-03-30T09:58:50Z</time>
      </trkpt>
      <trkpt lat="43.94451" lon="0.08597">
        <ele>131.5</ele>
        <time>2025-03-30T09:58:51Z</time>
      </trkpt>
      <trkpt lat="43.94452" lon="0.08598">
        <ele>131.5</ele>
        <time>2025-03-30T09:58:52Z</time>
      </trkpt>
      <trkpt lat="43.94453" lon="0.08598">
        <ele>131.5</ele>
        <time>2025-03-30T09:58:53Z</time>
      </trkpt>
      <trkpt lat="43.94455" lon="0.08599">
        <ele>131.4</ele>
        <time>2025-03-30T09:58:54Z</time>
      </trkpt>
      <trkpt lat="43.94455" lon="0.086">
        <ele>131.4</ele>
        <time>2025-03-30T09:58:55Z</time>
      </trkpt>
      <trkpt lat="43.94456" lon="0.08601">
        <ele>131.4</ele>
        <time>2025-03-30T09:58:56Z</time>
      </trkpt>
      <trkpt lat="43.94456" lon="0.08603">
        <ele>131.3</ele>
        <time>2025-03-30T09:58:57Z</time>
      </trkpt>
      <trkpt lat="43.94456" lon="0.08605">
        <ele>131.3</ele>
        <time>2025-03-30T09:58:58Z</time>
      </trkpt>
      <trkpt lat="43.94457" lon="0.08607">
        <ele>131.3</ele>
        <time>2025-03-30T09:58:59Z</time>
      </trkpt>
      <trkpt lat="43.94456" lon="0.08609">
        <ele>131.2</ele>
        <time>2025-03-30T09:59:00Z</time>
      </trkpt>
      <trkpt lat="43.94456" lon="0.08612">
        <ele>131.2</ele>
        <time>2025-03-30T09:59:01Z</time>
      </trkpt>
      <trkpt lat="43.94457" lon="0.08613">
        <ele>131.2</ele>
        <time>2025-03-30T09:59:02Z</time>
      </trkpt>
      <trkpt lat="43.94458" lon="0.08615">
        <ele>131.2</ele>
        <time>2025-03-30T09:59:03Z</time>
      </trkpt>
      <trkpt lat="43.94458" lon="0.08617">
        <ele>131.2</ele>
        <time>2025-03-30T09:59:04Z</time>
      </trkpt>
      <trkpt lat="43.94459" lon="0.08619">
        <ele>131.1</ele>
        <time>2025-03-30T09:59:05Z</time>
      </trkpt>
      <trkpt lat="43.9446" lon="0.0862">
        <ele>131.1</ele>
        <time>2025-03-30T09:59:06Z</time>
      </trkpt>
      <trkpt lat="43.94461" lon="0.08621">
        <ele>131.1</ele>
        <time>2025-03-30T09:59:07Z</time>
      </trkpt>
      <trkpt lat="43.94462" lon="0.08623">
        <ele>131.1</ele>
        <time>2025-03-30T09:59:08Z</time>
      </trkpt>
      <trkpt lat="43.94462" lon="0.08625">
        <ele>131.1</ele>
        <time>2025-03-30T09:59:09Z</time>
      </trkpt>
      <trkpt lat="43.94463" lon="0.08626">
        <ele>131.1</ele>
        <time>2025-03-30T09:59:10Z</time>
      </trkpt>
      <trkpt lat="43.94464" lon="0.08629">
        <ele>131</ele>
        <time>2025-03-30T09:59:11Z</time>
      </trkpt>
      <trkpt lat="43.94465" lon="0.0863">
        <ele>131</ele>
        <time>2025-03-30T09:59:12Z</time>
      </trkpt>
      <trkpt lat="43.94465" lon="0.08631">
        <ele>131</ele>
        <time>2025-03-30T09:59:13Z</time>
      </trkpt>
      <trkpt lat="43.94466" lon="0.08632">
        <ele>131</ele>
        <time>2025-03-30T09:59:14Z</time>
      </trkpt>
      <trkpt lat="43.94467" lon="0.08634">
        <ele>131</ele>
        <time>2025-03-30T09:59:15Z</time>
      </trkpt>
      <trkpt lat="43.94467" lon="0.08637">
        <ele>131</ele>
        <time>2025-03-30T09:59:16Z</time>
      </trkpt>
      <trkpt lat="43.94468" lon="0.08638">
        <ele>131</ele>
        <time>2025-03-30T09:59:17Z</time>
      </trkpt>
      <trkpt lat="43.94469" lon="0.08638">
        <ele>131</ele>
        <time>2025-03-30T09:59:18Z</time>
      </trkpt>
      <trkpt lat="43.9447" lon="0.0864">
        <ele>131</ele>
        <time>2025-03-30T09:59:19Z</time>
      </trkpt>
      <trkpt lat="43.94471" lon="0.08641">
        <ele>131</ele>
        <time>2025-03-30T09:59:20Z</time>
      </trkpt>
      <trkpt lat="43.94472" lon="0.08641">
        <ele>131</ele>
        <time>2025-03-30T09:59:21Z</time>
      </trkpt>
      <trkpt lat="43.94473" lon="0.08641">
        <ele>131</ele>
        <time>2025-03-30T09:59:22Z</time>
      </trkpt>
      <trkpt lat="43.94474" lon="0.08642">
        <ele>131</ele>
        <time>2025-03-30T09:59:23Z</time>
      </trkpt>
      <trkpt lat="43.94475" lon="0.08643">
        <ele>131</ele>
        <time>2025-03-30T09:59:24Z</time>
      </trkpt>
      <trkpt lat="43.94477" lon="0.08644">
        <ele>131</ele>
        <time>2025-03-30T09:59:25Z</time>
      </trkpt>
      <trkpt lat="43.94479" lon="0.08643">
        <ele>131</ele>
        <time>2025-03-30T09:59:26Z</time>
      </trkpt>
      <trkpt lat="43.9448" lon="0.08643">
        <ele>131</ele>
        <time>2025-03-30T09:59:27Z</time>
      </trkpt>
      <trkpt lat="43.9448" lon="0.08642">
        <ele>131</ele>
        <time>2025-03-30T09:59:28Z</time>
      </trkpt>
      <trkpt lat="43.94482" lon="0.08642">
        <ele>131</ele>
        <time>2025-03-30T09:59:29Z</time>
      </trkpt>
      <trkpt lat="43.94483" lon="0.08641">
        <ele>131</ele>
        <time>2025-03-30T09:59:30Z</time>
      </trkpt>
      <trkpt lat="43.94484" lon="0.08641">
        <ele>131</ele>
        <time>2025-03-30T09:59:31Z</time>
      </trkpt>
      <trkpt lat="43.94485" lon="0.08639">
        <ele>131</ele>
        <time>2025-03-30T09:59:32Z</time>
      </trkpt>
      <trkpt lat="43.94486" lon="0.08639">
        <ele>131</ele>
        <time>2025-03-30T09:59:33Z</time>
      </trkpt>
      <trkpt lat="43.94488" lon="0.08641">
        <ele>131</ele>
        <time>2025-03-30T09:59:34Z</time>
      </trkpt>
      <trkpt lat="43.94489" lon="0.08642">
        <ele>130.9</ele>
        <time>2025-03-30T09:59:35Z</time>
      </trkpt>
      <trkpt lat="43.94491" lon="0.08642">
        <ele>130.9</ele>
        <time>2025-03-30T09:59:36Z</time>
      </trkpt>
      <trkpt lat="43.94492" lon="0.08642">
        <ele>130.9</ele>
        <time>2025-03-30T09:59:37Z</time>
      </trkpt>
      <trkpt lat="43.94495" lon="0.08642">
        <ele>130.9</ele>
        <time>2025-03-30T09:59:38Z</time>
      </trkpt>
      <trkpt lat="43.94496" lon="0.08642">
        <ele>130.9</ele>
        <time>2025-03-30T09:59:39Z</time>
      </trkpt>
      <trkpt lat="43.94497" lon="0.08642">
        <ele>130.9</ele>
        <time>2025-03-30T09:59:40Z</time>
      </trkpt>
      <trkpt lat="43.94498" lon="0.08641">
        <ele>130.9</ele>
        <time>2025-03-30T09:59:41Z</time>
      </trkpt>
      <trkpt lat="43.945" lon="0.08641">
        <ele>130.9</ele>
        <time>2025-03-30T09:59:42Z</time>
      </trkpt>
      <trkpt lat="43.94501" lon="0.0864">
        <ele>130.9</ele>
        <time>2025-03-30T09:59:43Z</time>
      </trkpt>
      <trkpt lat="43.94502" lon="0.0864">
        <ele>130.9</ele>
        <time>2025-03-30T09:59:44Z</time>
      </trkpt>
      <trkpt lat="43.94504" lon="0.0864">
        <ele>130.9</ele>
        <time>2025-03-30T09:59:45Z</time>
      </trkpt>
      <trkpt lat="43.94505" lon="0.08639">
        <ele>130.9</ele>
        <time>2025-03-30T09:59:46Z</time>
      </trkpt>
      <trkpt lat="43.94507" lon="0.08638">
        <ele>131</ele>
        <time>2025-03-30T09:59:47Z</time>
      </trkpt>
      <trkpt lat="43.94508" lon="0.08638">
        <ele>131</ele>
        <time>2025-03-30T09:59:48Z</time>
      </trkpt>
      <trkpt lat="43.94509" lon="0.08637">
        <ele>131</ele>
        <time>2025-03-30T09:59:49Z</time>
      </trkpt>
      <trkpt lat="43.94511" lon="0.08637">
        <ele>131</ele>
        <time>2025-03-30T09:59:50Z</time>
      </trkpt>
      <trkpt lat="43.94512" lon="0.08637">
        <ele>131</ele>
        <time>2025-03-30T09:59:51Z</time>
      </trkpt>
      <trkpt lat="43.94514" lon="0.08637">
        <ele>131</ele>
        <time>2025-03-30T09:59:52Z</time>
      </trkpt>
      <trkpt lat="43.94515" lon="0.08636">
        <ele>131</ele>
        <time>2025-03-30T09:59:53Z</time>
      </trkpt>
      <trkpt lat="43.94516" lon="0.08636">
        <ele>131.1</ele>
        <time>2025-03-30T09:59:54Z</time>
      </trkpt>
      <trkpt lat="43.94518" lon="0.08636">
        <ele>131.1</ele>
        <time>2025-03-30T09:59:55Z</time>
      </trkpt>
      <trkpt lat="43.94519" lon="0.08636">
        <ele>131.1</ele>
        <time>2025-03-30T09:59:56Z</time>
      </trkpt>
      <trkpt lat="43.94521" lon="0.08635">
        <ele>131.1</ele>
        <time>2025-03-30T09:59:57Z</time>
      </trkpt>
      <trkpt lat="43.94522" lon="0.08635">
        <ele>131.2</ele>
        <time>2025-03-30T09:59:58Z</time>
      </trkpt>
      <trkpt lat="43.94523" lon="0.08635">
        <ele>131.2</ele>
        <time>2025-03-30T09:59:59Z</time>
      </trkpt>
      <trkpt lat="43.94524" lon="0.08634">
        <ele>131.2</ele>
        <time>2025-03-30T10:00:00Z</time>
      </trkpt>
      <trkpt lat="43.94526" lon="0.08634">
        <ele>131.2</ele>
        <time>2025-03-30T10:00:01Z</time>
      </trkpt>
      <trkpt lat="43.94527" lon="0.08634">
        <ele>131.2</ele>
        <time>2025-03-30T10:00:02Z</time>
      </trkpt>
      <trkpt lat="43.94529" lon="0.08633">
        <ele>131.3</ele>
        <time>2025-03-30T10:00:03Z</time>
      </trkpt>
      <trkpt lat="43.9453" lon="0.08633">
        <ele>131.3</ele>
        <time>2025-03-30T10:00:04Z</time>
      </trkpt>
      <trkpt lat="43.94532" lon="0.08632">
        <ele>131.4</ele>
        <time>2025-03-30T10:00:05Z</time>
      </trkpt>
      <trkpt lat="43.94533" lon="0.08632">
        <ele>131.4</ele>
        <time>2025-03-30T10:00:06Z</time>
      </trkpt>
      <trkpt lat="43.94534" lon="0.08632">
        <ele>131.4</ele>
        <time>2025-03-30T10:00:07Z</time>
      </trkpt>
      <trkpt lat="43.94536" lon="0.08632">
        <ele>131.5</ele>
        <time>2025-03-30T10:00:08Z</time>
      </trkpt>
      <trkpt lat="43.94537" lon="0.08632">
        <ele>131.5</ele>
        <time>2025-03-30T10:00:09Z</time>
      </trkpt>
      <trkpt lat="43.94539" lon="0.08631">
        <ele>131.6</ele>
        <time>2025-03-30T10:00:10Z</time>
      </trkpt>
      <trkpt lat="43.9454" lon="0.0863">
        <ele>131.6</ele>
        <time>2025-03-30T10:00:11Z</time>
      </trkpt>
      <trkpt lat="43.94541" lon="0.0863">
        <ele>131.7</ele>
        <time>2025-03-30T10:00:12Z</time>
      </trkpt>
      <trkpt lat="43.94543" lon="0.08629">
        <ele>131.7</ele>
        <time>2025-03-30T10:00:13Z</time>
      </trkpt>
      <trkpt lat="43.94544" lon="0.08629">
        <ele>131.8</ele>
        <time>2025-03-30T10:00:14Z</time>
      </trkpt>
      <trkpt lat="43.94545" lon="0.08628">
        <ele>131.8</ele>
        <time>2025-03-30T10:00:15Z</time>
      </trkpt>
      <trkpt lat="43.94547" lon="0.08628">
        <ele>131.9</ele>
        <time>2025-03-30T10:00:16Z</time>
      </trkpt>
      <trkpt lat="43.94548" lon="0.08627">
        <ele>131.9</ele>
        <time>2025-03-30T10:00:17Z</time>
      </trkpt>
      <trkpt lat="43.94549" lon="0.08626">
        <ele>132</ele>
        <time>2025-03-30T10:00:18Z</time>
      </trkpt>
      <trkpt lat="43.94551" lon="0.08627">
        <ele>132.1</ele>
        <time>2025-03-30T10:00:19Z</time>
      </trkpt>
      <trkpt lat="43.94552" lon="0.08626">
        <ele>132.1</ele>
        <time>2025-03-30T10:00:20Z</time>
      </trkpt>
      <trkpt lat="43.94553" lon="0.08626">
        <ele>132.2</ele>
        <time>2025-03-30T10:00:21Z</time>
      </trkpt>
      <trkpt lat="43.94555" lon="0.08626">
        <ele>132.2</ele>
        <time>2025-03-30T10:00:22Z</time>
      </trkpt>
      <trkpt lat="43.94556" lon="0.08626">
        <ele>132.3</ele>
        <time>2025-03-30T10:00:23Z</time>
      </trkpt>
      <trkpt lat="43.94558" lon="0.08626">
        <ele>132.4</ele>
        <time>2025-03-30T10:00:24Z</time>
      </trkpt>
      <trkpt lat="43.94559" lon="0.08625">
        <ele>132.4</ele>
        <time>2025-03-30T10:00:25Z</time>
      </trkpt>
      <trkpt lat="43.9456" lon="0.08625">
        <ele>132.5</ele>
        <time>2025-03-30T10:00:26Z</time>
      </trkpt>
      <trkpt lat="43.94561" lon="0.08625">
        <ele>132.6</ele>
        <time>2025-03-30T10:00:27Z</time>
      </trkpt>
      <trkpt lat="43.94563" lon="0.08624">
        <ele>132.7</ele>
        <time>2025-03-30T10:00:28Z</time>
      </trkpt>
      <trkpt lat="43.94565" lon="0.08624">
        <ele>132.8</ele>
        <time>2025-03-30T10:00:29Z</time>
      </trkpt>
      <trkpt lat="43.94566" lon="0.08624">
        <ele>132.8</ele>
        <time>2025-03-30T10:00:30Z</time>
      </trkpt>
      <trkpt lat="43.94567" lon="0.08624">
        <ele>132.9</ele>
        <time>2025-03-30T10:00:31Z</time>
      </trkpt>
      <trkpt lat="43.94569" lon="0.08623">
        <ele>133</ele>
        <time>2025-03-30T10:00:32Z</time>
      </trkpt>
      <trkpt lat="43.9457" lon="0.08623">
        <ele>133</ele>
        <time>2025-03-30T10:00:33Z</time>
      </trkpt>
      <trkpt lat="43.94571" lon="0.08623">
        <ele>133.1</ele>
        <time>2025-03-30T10:00:34Z</time>
      </trkpt>
      <trkpt lat="43.94572" lon="0.08622">
        <ele>133.2</ele>
        <time>2025-03-30T10:00:35Z</time>
      </trkpt>
      <trkpt lat="43.94574" lon="0.08621">
        <ele>133.2</ele>
        <time>2025-03-30T10:00:36Z</time>
      </trkpt>
      <trkpt lat="43.94576" lon="0.0862">
        <ele>133.4</ele>
        <time>2025-03-30T10:00:37Z</time>
      </trkpt>
      <trkpt lat="43.94577" lon="0.0862">
        <ele>133.4</ele>
        <time>2025-03-30T10:00:38Z</time>
      </trkpt>
      <trkpt lat="43.94577" lon="0.0862">
        <ele>133.4</ele>
        <time>2025-03-30T10:00:39Z</time>
      </trkpt>
      <trkpt lat="43.94579" lon="0.08619">
        <ele>133.6</ele>
        <time>2025-03-30T10:00:40Z</time>
      </trkpt>
      <trkpt lat="43.9458" lon="0.08619">
        <ele>133.6</ele>
        <time>2025-03-30T10:00:41Z</time>
      </trkpt>
      <trkpt lat="43.94581" lon="0.08618">
        <ele>133.6</ele>
        <time>2025-03-30T10:00:42Z</time>
      </trkpt>
      <trkpt lat="43.94583" lon="0.08617">
        <ele>133.7</ele>
        <time>2025-03-30T10:00:43Z</time>
      </trkpt>
      <trkpt lat="43.94584" lon="0.08617">
        <ele>133.8</ele>
        <time>2025-03-30T10:00:44Z</time>
      </trkpt>
      <trkpt lat="43.94585" lon="0.08617">
        <ele>133.8</ele>
        <time>2025-03-30T10:00:45Z</time>
      </trkpt>
      <trkpt lat="43.94587" lon="0.08616">
        <ele>133.9</ele>
        <time>2025-03-30T10:00:46Z</time>
      </trkpt>
      <trkpt lat="43.94588" lon="0.08616">
        <ele>134</ele>
        <time>2025-03-30T10:00:47Z</time>
      </trkpt>
      <trkpt lat="43.94588" lon="0.08616">
        <ele>134</ele>
        <time>2025-03-30T10:00:48Z</time>
      </trkpt>
      <trkpt lat="43.94591" lon="0.08615">
        <ele>134.1</ele>
        <time>2025-03-30T10:00:49Z</time>
      </trkpt>
      <trkpt lat="43.94591" lon="0.08614">
        <ele>134.2</ele>
        <time>2025-03-30T10:00:50Z</time>
      </trkpt>
      <trkpt lat="43.94592" lon="0.08614">
        <ele>134.2</ele>
        <time>2025-03-30T10:00:51Z</time>
      </trkpt>
      <trkpt lat="43.94594" lon="0.08614">
        <ele>134.3</ele>
        <time>2025-03-30T10:00:52Z</time>
      </trkpt>
      <trkpt lat="43.94595" lon="0.08613">
        <ele>134.3</ele>
        <time>2025-03-30T10:00:53Z</time>
      </trkpt>
      <trkpt lat="43.94596" lon="0.08612">
        <ele>134.4</ele>
        <time>2025-03-30T10:00:54Z</time>
      </trkpt>
      <trkpt lat="43.94598" lon="0.08612">
        <ele>134.4</ele>
        <time>2025-03-30T10:00:55Z</time>
      </trkpt>
      <trkpt lat="43.94599" lon="0.08611">
        <ele>134.5</ele>
        <time>2025-03-30T10:00:56Z</time>
      </trkpt>
      <trkpt lat="43.946" lon="0.08611">
        <ele>134.5</ele>
        <time>2025-03-30T10:00:57Z</time>
      </trkpt>
      <trkpt lat="43.94602" lon="0.0861">
        <ele>134.6</ele>
        <time>2025-03-30T10:00:58Z</time>
      </trkpt>
      <trkpt lat="43.94603" lon="0.08609">
        <ele>134.7</ele>
        <time>2025-03-30T10:00:59Z</time>
      </trkpt>
      <trkpt lat="43.94605" lon="0.08607">
        <ele>134.8</ele>
        <time>2025-03-30T10:01:00Z</time>
      </trkpt>
      <trkpt lat="43.94606" lon="0.08607">
        <ele>134.8</ele>
        <time>2025-03-30T10:01:01Z</time>
      </trkpt>
      <trkpt lat="43.94607" lon="0.08606">
        <ele>134.9</ele>
        <time>2025-03-30T10:01:02Z</time>
      </trkpt>
      <trkpt lat="43.94609" lon="0.08605">
        <ele>135</ele>
        <time>2025-03-30T10:01:03Z</time>
      </trkpt>
      <trkpt lat="43.9461" lon="0.08605">
        <ele>135.1</ele>
        <time>2025-03-30T10:01:04Z</time>
      </trkpt>
      <trkpt lat="43.9461" lon="0.08604">
        <ele>135.1</ele>
        <time>2025-03-30T10:01:05Z</time>
      </trkpt>
      <trkpt lat="43.94611" lon="0.08604">
        <ele>135.2</ele>
        <time>2025-03-30T10:01:06Z</time>
      </trkpt>
      <trkpt lat="43.94612" lon="0.08604">
        <ele>135.2</ele>
        <time>2025-03-30T10:01:07Z</time>
      </trkpt>
      <trkpt lat="43.94615" lon="0.08603">
        <ele>135.3</ele>
        <time>2025-03-30T10:01:09Z</time>
      </trkpt>
      <trkpt lat="43.94615" lon="0.08603">
        <ele>135.4</ele>
        <time>2025-03-30T10:01:10Z</time>
      </trkpt>
      <trkpt lat="43.94617" lon="0.08602">
        <ele>135.5</ele>
        <time>2025-03-30T10:01:11Z</time>
      </trkpt>
      <trkpt lat="43.94618" lon="0.08601">
        <ele>135.6</ele>
        <time>2025-03-30T10:01:12Z</time>
      </trkpt>
      <trkpt lat="43.9462" lon="0.08601">
        <ele>135.7</ele>
        <time>2025-03-30T10:01:13Z</time>
      </trkpt>
      <trkpt lat="43.94621" lon="0.086">
        <ele>135.8</ele>
        <time>2025-03-30T10:01:14Z</time>
      </trkpt>
      <trkpt lat="43.94622" lon="0.08599">
        <ele>135.9</ele>
        <time>2025-03-30T10:01:15Z</time>
      </trkpt>
      <trkpt lat="43.94623" lon="0.08598">
        <ele>136</ele>
        <time>2025-03-30T10:01:16Z</time>
      </trkpt>
      <trkpt lat="43.94625" lon="0.08597">
        <ele>136.1</ele>
        <time>2025-03-30T10:01:17Z</time>
      </trkpt>
      <trkpt lat="43.94626" lon="0.08597">
        <ele>136.2</ele>
        <time>2025-03-30T10:01:18Z</time>
      </trkpt>
      <trkpt lat="43.94628" lon="0.08596">
        <ele>136.3</ele>
        <time>2025-03-30T10:01:19Z</time>
      </trkpt>
      <trkpt lat="43.94629" lon="0.08596">
        <ele>136.4</ele>
        <time>2025-03-30T10:01:20Z</time>
      </trkpt>
      <trkpt lat="43.94631" lon="0.08596">
        <ele>136.6</ele>
        <time>2025-03-30T10:01:21Z</time>
      </trkpt>
      <trkpt lat="43.94631" lon="0.08594">
        <ele>136.7</ele>
        <time>2025-03-30T10:01:22Z</time>
      </trkpt>
      <trkpt lat="43.94631" lon="0.08591">
        <ele>136.9</ele>
        <time>2025-03-30T10:01:23Z</time>
      </trkpt>
      <trkpt lat="43.94633" lon="0.0859">
        <ele>137.1</ele>
        <time>2025-03-30T10:01:24Z</time>
      </trkpt>
      <trkpt lat="43.94634" lon="0.0859">
        <ele>137.2</ele>
        <time>2025-03-30T10:01:25Z</time>
      </trkpt>
      <trkpt lat="43.94635" lon="0.0859">
        <ele>137.3</ele>
        <time>2025-03-30T10:01:26Z</time>
      </trkpt>
      <trkpt lat="43.94637" lon="0.08589">
        <ele>137.4</ele>
        <time>2025-03-30T10:01:27Z</time>
      </trkpt>
      <trkpt lat="43.94638" lon="0.08589">
        <ele>137.5</ele>
        <time>2025-03-30T10:01:28Z</time>
      </trkpt>
      <trkpt lat="43.9464" lon="0.08589">
        <ele>137.7</ele>
        <time>2025-03-30T10:01:29Z</time>
      </trkpt>
      <trkpt lat="43.94641" lon="0.08588">
        <ele>137.8</ele>
        <time>2025-03-30T10:01:30Z</time>
      </trkpt>
      <trkpt lat="43.94643" lon="0.08587">
        <ele>138</ele>
        <time>2025-03-30T10:01:31Z</time>
      </trkpt>
      <trkpt lat="43.94644" lon="0.08586">
        <ele>138.1</ele>
        <time>2025-03-30T10:01:32Z</time>
      </trkpt>
      <trkpt lat="43.94644" lon="0.08585">
        <ele>138.1</ele>
        <time>2025-03-30T10:01:33Z</time>
      </trkpt>
      <trkpt lat="43.94646" lon="0.08584">
        <ele>138.2</ele>
        <time>2025-03-30T10:01:34Z</time>
      </trkpt>
      <trkpt lat="43.94647" lon="0.08584">
        <ele>138.3</ele>
        <time>2025-03-30T10:01:35Z</time>
      </trkpt>
      <trkpt lat="43.94648" lon="0.08583">
        <ele>138.4</ele>
        <time>2025-03-30T10:01:36Z</time>
      </trkpt>
      <trkpt lat="43.94649" lon="0.08583">
        <ele>138.5</ele>
        <time>2025-03-30T10:01:37Z</time>
      </trkpt>
      <trkpt lat="43.94651" lon="0.08582">
        <ele>138.5</ele>
        <time>2025-03-30T10:01:38Z</time>
      </trkpt>
      <trkpt lat="43.94653" lon="0.0858">
        <ele>138.7</ele>
        <time>2025-03-30T10:01:39Z</time>
      </trkpt>
      <trkpt lat="43.94653" lon="0.0858">
        <ele>138.7</ele>
        <time>2025-03-30T10:01:40Z</time>
      </trkpt>
      <trkpt lat="43.94654" lon="0.0858">
        <ele>138.8</ele>
        <time>2025-03-30T10:01:41Z</time>
      </trkpt>
      <trkpt lat="43.94657" lon="0.0858">
        <ele>139</ele>
        <time>2025-03-30T10:01:42Z</time>
      </trkpt>
      <trkpt lat="43.94658" lon="0.08579">
        <ele>139.1</ele>
        <time>2025-03-30T10:01:43Z</time>
      </trkpt>
      <trkpt lat="43.94659" lon="0.08579">
        <ele>139.1</ele>
        <time>2025-03-30T10:01:44Z</time>
      </trkpt>
      <trkpt lat="43.9466" lon="0.08578">
        <ele>139.2</ele>
        <time>2025-03-30T10:01:45Z</time>
      </trkpt>
      <trkpt lat="43.94662" lon="0.08578">
        <ele>139.3</ele>
        <time>2025-03-30T10:01:46Z</time>
      </trkpt>
      <trkpt lat="43.94664" lon="0.08578">
        <ele>139.4</ele>
        <time>2025-03-30T10:01:47Z</time>
      </trkpt>
      <trkpt lat="43.94664" lon="0.08577">
        <ele>139.5</ele>
        <time>2025-03-30T10:01:48Z</time>
      </trkpt>
      <trkpt lat="43.94665" lon="0.08577">
        <ele>139.6</ele>
        <time>2025-03-30T10:01:49Z</time>
      </trkpt>
      <trkpt lat="43.94667" lon="0.08577">
        <ele>139.6</ele>
        <time>2025-03-30T10:01:50Z</time>
      </trkpt>
      <trkpt lat="43.94668" lon="0.08577">
        <ele>139.7</ele>
        <time>2025-03-30T10:01:51Z</time>
      </trkpt>
      <trkpt lat="43.94669" lon="0.08576">
        <ele>139.8</ele>
        <time>2025-03-30T10:01:52Z</time>
      </trkpt>
      <trkpt lat="43.9467" lon="0.08576">
        <ele>139.8</ele>
        <time>2025-03-30T10:01:53Z</time>
      </trkpt>
      <trkpt lat="43.94671" lon="0.08576">
        <ele>139.9</ele>
        <time>2025-03-30T10:01:54Z</time>
      </trkpt>
      <trkpt lat="43.94672" lon="0.08577">
        <ele>140</ele>
        <time>2025-03-30T10:01:55Z</time>
      </trkpt>
      <trkpt lat="43.94673" lon="0.08579">
        <ele>140</ele>
        <time>2025-03-30T10:01:56Z</time>
      </trkpt>
      <trkpt lat="43.94675" lon="0.08579">
        <ele>140.1</ele>
        <time>2025-03-30T10:01:57Z</time>
      </trkpt>
      <trkpt lat="43.94675" lon="0.08578">
        <ele>140.1</ele>
        <time>2025-03-30T10:01:58Z</time>
      </trkpt>
      <trkpt lat="43.94676" lon="0.08578">
        <ele>140.1</ele>
        <time>2025-03-30T10:01:59Z</time>
      </trkpt>
      <trkpt lat="43.94677" lon="0.08576">
        <ele>140.2</ele>
        <time>2025-03-30T10:02:00Z</time>
      </trkpt>
      <trkpt lat="43.94678" lon="0.08574">
        <ele>140.2</ele>
        <time>2025-03-30T10:02:01Z</time>
      </trkpt>
      <trkpt lat="43.94679" lon="0.08573">
        <ele>140.2</ele>
        <time>2025-03-30T10:02:02Z</time>
      </trkpt>
      <trkpt lat="43.94681" lon="0.08572">
        <ele>140.3</ele>
        <time>2025-03-30T10:02:03Z</time>
      </trkpt>
      <trkpt lat="43.94683" lon="0.08571">
        <ele>140.5</ele>
        <time>2025-03-30T10:02:04Z</time>
      </trkpt>
      <trkpt lat="43.94683" lon="0.0857">
        <ele>140.6</ele>
        <time>2025-03-30T10:02:05Z</time>
      </trkpt>
      <trkpt lat="43.94684" lon="0.0857">
        <ele>140.7</ele>
        <time>2025-03-30T10:02:06Z</time>
      </trkpt>
      <trkpt lat="43.94686" lon="0.0857">
        <ele>140.9</ele>
        <time>2025-03-30T10:02:07Z</time>
      </trkpt>
      <trkpt lat="43.94687" lon="0.0857">
        <ele>141</ele>
        <time>2025-03-30T10:02:08Z</time>
      </trkpt>
      <trkpt lat="43.94688" lon="0.08569">
        <ele>141.2</ele>
        <time>2025-03-30T10:02:09Z</time>
      </trkpt>
      <trkpt lat="43.9469" lon="0.08569">
        <ele>141.4</ele>
        <time>2025-03-30T10:02:10Z</time>
      </trkpt>
      <trkpt lat="43.94693" lon="0.08568">
        <ele>141.8</ele>
        <time>2025-03-30T10:02:12Z</time>
      </trkpt>
      <trkpt lat="43.94694" lon="0.08567">
        <ele>141.8</ele>
        <time>2025-03-30T10:02:13Z</time>
      </trkpt>
      <trkpt lat="43.94695" lon="0.08566">
        <ele>141.9</ele>
        <time>2025-03-30T10:02:14Z</time>
      </trkpt>
      <trkpt lat="43.94696" lon="0.08565">
        <ele>142</ele>
        <time>2025-03-30T10:02:15Z</time>
      </trkpt>
      <trkpt lat="43.94698" lon="0.08564">
        <ele>142.1</ele>
        <time>2025-03-30T10:02:16Z</time>
      </trkpt>
      <trkpt lat="43.94699" lon="0.08563">
        <ele>142.2</ele>
        <time>2025-03-30T10:02:17Z</time>
      </trkpt>
      <trkpt lat="43.94701" lon="0.08562">
        <ele>142.3</ele>
        <time>2025-03-30T10:02:18Z</time>
      </trkpt>
      <trkpt lat="43.94702" lon="0.08561">
        <ele>142.4</ele>
        <time>2025-03-30T10:02:19Z</time>
      </trkpt>
      <trkpt lat="43.94703" lon="0.08561">
        <ele>142.4</ele>
        <time>2025-03-30T10:02:20Z</time>
      </trkpt>
      <trkpt lat="43.94704" lon="0.0856">
        <ele>142.5</ele>
        <time>2025-03-30T10:02:21Z</time>
      </trkpt>
      <trkpt lat="43.94705" lon="0.08559">
        <ele>142.6</ele>
        <time>2025-03-30T10:02:22Z</time>
      </trkpt>
      <trkpt lat="43.94706" lon="0.08558">
        <ele>142.7</ele>
        <time>2025-03-30T10:02:23Z</time>
      </trkpt>
      <trkpt lat="43.94707" lon="0.08557">
        <ele>142.8</ele>
        <time>2025-03-30T10:02:24Z</time>
      </trkpt>
      <trkpt lat="43.94708" lon="0.08557">
        <ele>142.8</ele>
        <time>2025-03-30T10:02:25Z</time>
      </trkpt>
      <trkpt lat="43.9471" lon="0.08556">
        <ele>143</ele>
        <time>2025-03-30T10:02:26Z</time>
      </trkpt>
      <trkpt lat="43.94711" lon="0.08555">
        <ele>143</ele>
        <time>2025-03-30T10:02:27Z</time>
      </trkpt>
      <trkpt lat="43.94712" lon="0.08555">
        <ele>143.1</ele>
        <time>2025-03-30T10:02:28Z</time>
      </trkpt>
      <trkpt lat="43.94714" lon="0.08554">
        <ele>143.2</ele>
        <time>2025-03-30T10:02:29Z</time>
      </trkpt>
      <trkpt lat="43.94715" lon="0.08553">
        <ele>143.2</ele>
        <time>2025-03-30T10:02:30Z</time>
      </trkpt>
      <trkpt lat="43.94715" lon="0.08553">
        <ele>143.3</ele>
        <time>2025-03-30T10:02:31Z</time>
      </trkpt>
      <trkpt lat="43.94716" lon="0.08551">
        <ele>143.4</ele>
        <time>2025-03-30T10:02:32Z</time>
      </trkpt>
      <trkpt lat="43.94717" lon="0.0855">
        <ele>143.4</ele>
        <time>2025-03-30T10:02:33Z</time>
      </trkpt>
      <trkpt lat="43.94718" lon="0.08548">
        <ele>143.5</ele>
        <time>2025-03-30T10:02:34Z</time>
      </trkpt>
      <trkpt lat="43.94719" lon="0.08547">
        <ele>143.6</ele>
        <time>2025-03-30T10:02:35Z</time>
      </trkpt>
      <trkpt lat="43.94721" lon="0.08546">
        <ele>143.7</ele>
        <time>2025-03-30T10:02:36Z</time>
      </trkpt>
      <trkpt lat="43.94722" lon="0.08545">
        <ele>143.9</ele>
        <time>2025-03-30T10:02:37Z</time>
      </trkpt>
      <trkpt lat="43.94723" lon="0.08543">
        <ele>144</ele>
        <time>2025-03-30T10:02:38Z</time>
      </trkpt>
      <trkpt lat="43.94724" lon="0.08541">
        <ele>144.1</ele>
        <time>2025-03-30T10:02:39Z</time>
      </trkpt>
      <trkpt lat="43.94724" lon="0.08539">
        <ele>144.2</ele>
        <time>2025-03-30T10:02:40Z</time>
      </trkpt>
      <trkpt lat="43.94725" lon="0.08538">
        <ele>144.2</ele>
        <time>2025-03-30T10:02:41Z</time>
      </trkpt>
      <trkpt lat="43.94726" lon="0.08536">
        <ele>144.3</ele>
        <time>2025-03-30T10:02:42Z</time>
      </trkpt>
      <trkpt lat="43.94727" lon="0.08534">
        <ele>144.4</ele>
        <time>2025-03-30T10:02:43Z</time>
      </trkpt>
      <trkpt lat="43.94728" lon="0.08532">
        <ele>144.4</ele>
        <time>2025-03-30T10:02:44Z</time>
      </trkpt>
      <trkpt lat="43.94729" lon="0.08531">
        <ele>144.4</ele>
        <time>2025-03-30T10:02:45Z</time>
      </trkpt>
      <trkpt lat="43.9473" lon="0.08529">
        <ele>144.5</ele>
        <time>2025-03-30T10:02:46Z</time>
      </trkpt>
      <trkpt lat="43.94731" lon="0.08528">
        <ele>144.5</ele>
        <time>2025-03-30T10:02:47Z</time>
      </trkpt>
      <trkpt lat="43.94732" lon="0.08527">
        <ele>144.5</ele>
        <time>2025-03-30T10:02:48Z</time>
      </trkpt>
      <trkpt lat="43.94734" lon="0.08525">
        <ele>144.5</ele>
        <time>2025-03-30T10:02:49Z</time>
      </trkpt>
      <trkpt lat="43.94735" lon="0.08524">
        <ele>144.5</ele>
        <time>2025-03-30T10:02:50Z</time>
      </trkpt>
      <trkpt lat="43.94736" lon="0.08522">
        <ele>144.5</ele>
        <time>2025-03-30T10:02:51Z</time>
      </trkpt>
      <trkpt lat="43.94737" lon="0.08521">
        <ele>144.5</ele>
        <time>2025-03-30T10:02:52Z</time>
      </trkpt>
      <trkpt lat="43.94737" lon="0.08519">
        <ele>144.5</ele>
        <time>2025-03-30T10:02:53Z</time>
      </trkpt>
      <trkpt lat="43.94738" lon="0.08517">
        <ele>144.5</ele>
        <time>2025-03-30T10:02:54Z</time>
      </trkpt>
      <trkpt lat="43.94737" lon="0.08515">
        <ele>144.5</ele>
        <time>2025-03-30T10:02:55Z</time>
      </trkpt>
      <trkpt lat="43.94738" lon="0.08513">
        <ele>144.5</ele>
        <time>2025-03-30T10:02:56Z</time>
      </trkpt>
      <trkpt lat="43.9474" lon="0.08512">
        <ele>144.5</ele>
        <time>2025-03-30T10:02:57Z</time>
      </trkpt>
      <trkpt lat="43.94741" lon="0.0851">
        <ele>144.5</ele>
        <time>2025-03-30T10:02:58Z</time>
      </trkpt>
      <trkpt lat="43.94742" lon="0.08509">
        <ele>144.5</ele>
        <time>2025-03-30T10:02:59Z</time>
      </trkpt>
      <trkpt lat="43.94743" lon="0.08508">
        <ele>144.5</ele>
        <time>2025-03-30T10:03:00Z</time>
      </trkpt>
      <trkpt lat="43.94744" lon="0.08506">
        <ele>144.5</ele>
        <time>2025-03-30T10:03:01Z</time>
      </trkpt>
      <trkpt lat="43.94745" lon="0.08505">
        <ele>144.5</ele>
        <time>2025-03-30T10:03:02Z</time>
      </trkpt>
      <trkpt lat="43.94747" lon="0.08503">
        <ele>144.5</ele>
        <time>2025-03-30T10:03:03Z</time>
      </trkpt>
      <trkpt lat="43.94747" lon="0.08502">
        <ele>144.5</ele>
        <time>2025-03-30T10:03:04Z</time>
      </trkpt>
      <trkpt lat="43.94748" lon="0.08501">
        <ele>144.5</ele>
        <time>2025-03-30T10:03:05Z</time>
      </trkpt>
      <trkpt lat="43.94749" lon="0.08499">
        <ele>144.5</ele>
        <time>2025-03-30T10:03:06Z</time>
      </trkpt>
      <trkpt lat="43.9475" lon="0.08498">
        <ele>144.5</ele>
        <time>2025-03-30T10:03:07Z</time>
      </trkpt>
      <trkpt lat="43.94752" lon="0.08497">
        <ele>144.5</ele>
        <time>2025-03-30T10:03:08Z</time>
      </trkpt>
      <trkpt lat="43.94753" lon="0.08495">
        <ele>144.5</ele>
        <time>2025-03-30T10:03:09Z</time>
      </trkpt>
      <trkpt lat="43.94754" lon="0.08494">
        <ele>144.6</ele>
        <time>2025-03-30T10:03:10Z</time>
      </trkpt>
      <trkpt lat="43.94756" lon="0.08493">
        <ele>144.6</ele>
        <time>2025-03-30T10:03:11Z</time>
      </trkpt>
      <trkpt lat="43.94757" lon="0.08492">
        <ele>144.6</ele>
        <time>2025-03-30T10:03:12Z</time>
      </trkpt>
      <trkpt lat="43.94758" lon="0.0849">
        <ele>144.6</ele>
        <time>2025-03-30T10:03:13Z</time>
      </trkpt>
      <trkpt lat="43.94759" lon="0.08489">
        <ele>144.6</ele>
        <time>2025-03-30T10:03:14Z</time>
      </trkpt>
      <trkpt lat="43.9476" lon="0.08487">
        <ele>144.6</ele>
        <time>2025-03-30T10:03:15Z</time>
      </trkpt>
      <trkpt lat="43.9476" lon="0.08486">
        <ele>144.6</ele>
        <time>2025-03-30T10:03:16Z</time>
      </trkpt>
      <trkpt lat="43.94762" lon="0.08485">
        <ele>144.6</ele>
        <time>2025-03-30T10:03:17Z</time>
      </trkpt>
      <trkpt lat="43.94764" lon="0.08488">
        <ele>144.6</ele>
        <time>2025-03-30T10:03:18Z</time>
      </trkpt>
      <trkpt lat="43.94765" lon="0.08488">
        <ele>144.7</ele>
        <time>2025-03-30T10:03:19Z</time>
      </trkpt>
      <trkpt lat="43.94766" lon="0.08486">
        <ele>144.7</ele>
        <time>2025-03-30T10:03:20Z</time>
      </trkpt>
      <trkpt lat="43.94767" lon="0.08485">
        <ele>144.7</ele>
        <time>2025-03-30T10:03:21Z</time>
      </trkpt>
      <trkpt lat="43.94768" lon="0.08484">
        <ele>144.7</ele>
        <time>2025-03-30T10:03:22Z</time>
      </trkpt>
      <trkpt lat="43.94769" lon="0.08482">
        <ele>144.7</ele>
        <time>2025-03-30T10:03:23Z</time>
      </trkpt>
      <trkpt lat="43.9477" lon="0.0848">
        <ele>144.7</ele>
        <time>2025-03-30T10:03:24Z</time>
      </trkpt>
      <trkpt lat="43.94771" lon="0.08479">
        <ele>144.7</ele>
        <time>2025-03-30T10:03:25Z</time>
      </trkpt>
      <trkpt lat="43.94772" lon="0.08478">
        <ele>144.8</ele>
        <time>2025-03-30T10:03:26Z</time>
      </trkpt>
      <trkpt lat="43.94773" lon="0.08477">
        <ele>144.8</ele>
        <time>2025-03-30T10:03:27Z</time>
      </trkpt>
      <trkpt lat="43.94773" lon="0.08475">
        <ele>144.8</ele>
        <time>2025-03-30T10:03:28Z</time>
      </trkpt>
      <trkpt lat="43.94775" lon="0.08474">
        <ele>144.8</ele>
        <time>2025-03-30T10:03:29Z</time>
      </trkpt>
      <trkpt lat="43.94775" lon="0.08472">
        <ele>144.8</ele>
        <time>2025-03-30T10:03:30Z</time>
      </trkpt>
      <trkpt lat="43.94776" lon="0.08471">
        <ele>144.8</ele>
        <time>2025-03-30T10:03:31Z</time>
      </trkpt>
      <trkpt lat="43.94777" lon="0.08469">
        <ele>144.9</ele>
        <time>2025-03-30T10:03:32Z</time>
      </trkpt>
      <trkpt lat="43.94778" lon="0.08467">
        <ele>144.9</ele>
        <time>2025-03-30T10:03:33Z</time>
      </trkpt>
      <trkpt lat="43.94779" lon="0.08466">
        <ele>144.9</ele>
        <time>2025-03-30T10:03:34Z</time>
      </trkpt>
      <trkpt lat="43.9478" lon="0.08464">
        <ele>144.9</ele>
        <time>2025-03-30T10:03:35Z</time>
      </trkpt>
      <trkpt lat="43.94781" lon="0.08463">
        <ele>145</ele>
        <time>2025-03-30T10:03:36Z</time>
      </trkpt>
      <trkpt lat="43.94782" lon="0.08461">
        <ele>145</ele>
        <time>2025-03-30T10:03:37Z</time>
      </trkpt>
      <trkpt lat="43.94783" lon="0.0846">
        <ele>145</ele>
        <time>2025-03-30T10:03:38Z</time>
      </trkpt>
      <trkpt lat="43.94784" lon="0.08458">
        <ele>145.1</ele>
        <time>2025-03-30T10:03:39Z</time>
      </trkpt>
      <trkpt lat="43.94785" lon="0.08457">
        <ele>145.1</ele>
        <time>2025-03-30T10:03:40Z</time>
      </trkpt>
      <trkpt lat="43.94786" lon="0.08456">
        <ele>145.1</ele>
        <time>2025-03-30T10:03:41Z</time>
      </trkpt>
      <trkpt lat="43.94787" lon="0.08454">
        <ele>145.2</ele>
        <time>2025-03-30T10:03:42Z</time>
      </trkpt>
      <trkpt lat="43.94788" lon="0.08453">
        <ele>145.2</ele>
        <time>2025-03-30T10:03:43Z</time>
      </trkpt>
      <trkpt lat="43.94788" lon="0.08452">
        <ele>145.2</ele>
        <time>2025-03-30T10:03:44Z</time>
      </trkpt>
      <trkpt lat="43.94789" lon="0.0845">
        <ele>145.2</ele>
        <time>2025-03-30T10:03:45Z</time>
      </trkpt>
      <trkpt lat="43.9479" lon="0.08449">
        <ele>145.3</ele>
        <time>2025-03-30T10:03:46Z</time>
      </trkpt>
      <trkpt lat="43.94791" lon="0.08446">
        <ele>145.3</ele>
        <time>2025-03-30T10:03:47Z</time>
      </trkpt>
      <trkpt lat="43.94792" lon="0.08446">
        <ele>145.3</ele>
        <time>2025-03-30T10:03:48Z</time>
      </trkpt>
      <trkpt lat="43.94793" lon="0.08445">
        <ele>145.4</ele>
        <time>2025-03-30T10:03:49Z</time>
      </trkpt>
      <trkpt lat="43.94794" lon="0.08443">
        <ele>145.4</ele>
        <time>2025-03-30T10:03:50Z</time>
      </trkpt>
      <trkpt lat="43.94796" lon="0.08441">
        <ele>145.4</ele>
        <time>2025-03-30T10:03:52Z</time>
      </trkpt>
      <trkpt lat="43.94798" lon="0.0844">
        <ele>145.5</ele>
        <time>2025-03-30T10:03:53Z</time>
      </trkpt>
      <trkpt lat="43.94799" lon="0.08439">
        <ele>145.5</ele>
        <time>2025-03-30T10:03:54Z</time>
      </trkpt>
      <trkpt lat="43.948" lon="0.08438">
        <ele>145.5</ele>
        <time>2025-03-30T10:03:55Z</time>
      </trkpt>
      <trkpt lat="43.94802" lon="0.08436">
        <ele>145.5</ele>
        <time>2025-03-30T10:03:56Z</time>
      </trkpt>
      <trkpt lat="43.94802" lon="0.08436">
        <ele>145.6</ele>
        <time>2025-03-30T10:03:57Z</time>
      </trkpt>
      <trkpt lat="43.94803" lon="0.08435">
        <ele>145.6</ele>
        <time>2025-03-30T10:03:58Z</time>
      </trkpt>
      <trkpt lat="43.94804" lon="0.08437">
        <ele>145.6</ele>
        <time>2025-03-30T10:03:59Z</time>
      </trkpt>
      <trkpt lat="43.94805" lon="0.08438">
        <ele>145.6</ele>
        <time>2025-03-30T10:04:00Z</time>
      </trkpt>
      <trkpt lat="43.94807" lon="0.08437">
        <ele>145.6</ele>
        <time>2025-03-30T10:04:01Z</time>
      </trkpt>
      <trkpt lat="43.94808" lon="0.08436">
        <ele>145.7</ele>
        <time>2025-03-30T10:04:02Z</time>
      </trkpt>
      <trkpt lat="43.94809" lon="0.08434">
        <ele>145.7</ele>
        <time>2025-03-30T10:04:03Z</time>
      </trkpt>
      <trkpt lat="43.94809" lon="0.08433">
        <ele>145.7</ele>
        <time>2025-03-30T10:04:04Z</time>
      </trkpt>
      <trkpt lat="43.9481" lon="0.08431">
        <ele>145.7</ele>
        <time>2025-03-30T10:04:05Z</time>
      </trkpt>
      <trkpt lat="43.94812" lon="0.08428">
        <ele>145.8</ele>
        <time>2025-03-30T10:04:07Z</time>
      </trkpt>
      <trkpt lat="43.94813" lon="0.08426">
        <ele>145.8</ele>
        <time>2025-03-30T10:04:08Z</time>
      </trkpt>
      <trkpt lat="43.94814" lon="0.08424">
        <ele>145.8</ele>
        <time>2025-03-30T10:04:09Z</time>
      </trkpt>
      <trkpt lat="43.94815" lon="0.08422">
        <ele>145.8</ele>
        <time>2025-03-30T10:04:10Z</time>
      </trkpt>
      <trkpt lat="43.94815" lon="0.08421">
        <ele>145.7</ele>
        <time>2025-03-30T10:04:11Z</time>
      </trkpt>
      <trkpt lat="43.94817" lon="0.08419">
        <ele>145.6</ele>
        <time>2025-03-30T10:04:12Z</time>
      </trkpt>
      <trkpt lat="43.94817" lon="0.08418">
        <ele>145.5</ele>
        <time>2025-03-30T10:04:13Z</time>
      </trkpt>
      <trkpt lat="43.94818" lon="0.08417">
        <ele>145.4</ele>
        <time>2025-03-30T10:04:14Z</time>
      </trkpt>
      <trkpt lat="43.94819" lon="0.08416">
        <ele>145.3</ele>
        <time>2025-03-30T10:04:15Z</time>
      </trkpt>
      <trkpt lat="43.94819" lon="0.08414">
        <ele>145.2</ele>
        <time>2025-03-30T10:04:16Z</time>
      </trkpt>
      <trkpt lat="43.9482" lon="0.08413">
        <ele>145.1</ele>
        <time>2025-03-30T10:04:17Z</time>
      </trkpt>
      <trkpt lat="43.94822" lon="0.08409">
        <ele>144.7</ele>
        <time>2025-03-30T10:04:19Z</time>
      </trkpt>
      <trkpt lat="43.94823" lon="0.08408">
        <ele>144.6</ele>
        <time>2025-03-30T10:04:20Z</time>
      </trkpt>
      <trkpt lat="43.94824" lon="0.08406">
        <ele>144.5</ele>
        <time>2025-03-30T10:04:21Z</time>
      </trkpt>
      <trkpt lat="43.94825" lon="0.08406">
        <ele>144.3</ele>
        <time>2025-03-30T10:04:22Z</time>
      </trkpt>
      <trkpt lat="43.94827" lon="0.08405">
        <ele>144.2</ele>
        <time>2025-03-30T10:04:23Z</time>
      </trkpt>
      <trkpt lat="43.94827" lon="0.08406">
        <ele>144.1</ele>
        <time>2025-03-30T10:04:24Z</time>
      </trkpt>
      <trkpt lat="43.94827" lon="0.08404">
        <ele>144</ele>
        <time>2025-03-30T10:04:25Z</time>
      </trkpt>
      <trkpt lat="43.94828" lon="0.08403">
        <ele>143.9</ele>
        <time>2025-03-30T10:04:26Z</time>
      </trkpt>
      <trkpt lat="43.94829" lon="0.08399">
        <ele>143.7</ele>
        <time>2025-03-30T10:04:28Z</time>
      </trkpt>
      <trkpt lat="43.94831" lon="0.08395">
        <ele>143.9</ele>
        <time>2025-03-30T10:04:30Z</time>
      </trkpt>
      <trkpt lat="43.94832" lon="0.08393">
        <ele>144</ele>
        <time>2025-03-30T10:04:31Z</time>
      </trkpt>
      <trkpt lat="43.94833" lon="0.08392">
        <ele>144.1</ele>
        <time>2025-03-30T10:04:32Z</time>
      </trkpt>
      <trkpt lat="43.94834" lon="0.08391">
        <ele>144.2</ele>
        <time>2025-03-30T10:04:33Z</time>
      </trkpt>
      <trkpt lat="43.94836" lon="0.0839">
        <ele>144.3</ele>
        <time>2025-03-30T10:04:34Z</time>
      </trkpt>
      <trkpt lat="43.94837" lon="0.08389">
        <ele>144.4</ele>
        <time>2025-03-30T10:04:35Z</time>
      </trkpt>
      <trkpt lat="43.94838" lon="0.08388">
        <ele>144.5</ele>
        <time>2025-03-30T10:04:36Z</time>
      </trkpt>
      <trkpt lat="43.94839" lon="0.08388">
        <ele>144.6</ele>
        <time>2025-03-30T10:04:37Z</time>
      </trkpt>
      <trkpt lat="43.94842" lon="0.08387">
        <ele>144.7</ele>
        <time>2025-03-30T10:04:38Z</time>
      </trkpt>
      <trkpt lat="43.94842" lon="0.08386">
        <ele>144.8</ele>
        <time>2025-03-30T10:04:39Z</time>
      </trkpt>
      <trkpt lat="43.94843" lon="0.08386">
        <ele>144.9</ele>
        <time>2025-03-30T10:04:40Z</time>
      </trkpt>
      <trkpt lat="43.94845" lon="0.08386">
        <ele>145</ele>
        <time>2025-03-30T10:04:41Z</time>
      </trkpt>
      <trkpt lat="43.94846" lon="0.08386">
        <ele>145.1</ele>
        <time>2025-03-30T10:04:42Z</time>
      </trkpt>
      <trkpt lat="43.94849" lon="0.08386">
        <ele>145.1</ele>
        <time>2025-03-30T10:04:43Z</time>
      </trkpt>
      <trkpt lat="43.94849" lon="0.08385">
        <ele>145.1</ele>
        <time>2025-03-30T10:04:44Z</time>
      </trkpt>
      <trkpt lat="43.9485" lon="0.08385">
        <ele>145.1</ele>
        <time>2025-03-30T10:04:45Z</time>
      </trkpt>
      <trkpt lat="43.94851" lon="0.08385">
        <ele>145.1</ele>
        <time>2025-03-30T10:04:46Z</time>
      </trkpt>
      <trkpt lat="43.94853" lon="0.08384">
        <ele>145.1</ele>
        <time>2025-03-30T10:04:47Z</time>
      </trkpt>
      <trkpt lat="43.94854" lon="0.08382">
        <ele>145</ele>
        <time>2025-03-30T10:04:48Z</time>
      </trkpt>
      <trkpt lat="43.94855" lon="0.08381">
        <ele>145</ele>
        <time>2025-03-30T10:04:49Z</time>
      </trkpt>
      <trkpt lat="43.94856" lon="0.08381">
        <ele>145</ele>
        <time>2025-03-30T10:04:50Z</time>
      </trkpt>
      <trkpt lat="43.94857" lon="0.0838">
        <ele>145</ele>
        <time>2025-03-30T10:04:51Z</time>
      </trkpt>
      <trkpt lat="43.94858" lon="0.08379">
        <ele>145</ele>
        <time>2025-03-30T10:04:52Z</time>
      </trkpt>
      <trkpt lat="43.9486" lon="0.08377">
        <ele>144.9</ele>
        <time>2025-03-30T10:04:53Z</time>
      </trkpt>
      <trkpt lat="43.94861" lon="0.08377">
        <ele>144.9</ele>
        <time>2025-03-30T10:04:54Z</time>
      </trkpt>
      <trkpt lat="43.94862" lon="0.08376">
        <ele>144.9</ele>
        <time>2025-03-30T10:04:55Z</time>
      </trkpt>
      <trkpt lat="43.94863" lon="0.08375">
        <ele>145</ele>
        <time>2025-03-30T10:04:56Z</time>
      </trkpt>
      <trkpt lat="43.94863" lon="0.08374">
        <ele>145</ele>
        <time>2025-03-30T10:04:58Z</time>
      </trkpt>
      <trkpt lat="43.94865" lon="0.08372">
        <ele>145</ele>
        <time>2025-03-30T10:04:59Z</time>
      </trkpt>
    </trkseg>
  </trk>
</gpx>